<?xml version='1.0' encoding='UTF-8'?><gpx version="1.1" creator="JPX - https://github.com/jenetics/jpx" xmlns="http://www.topografix.com/GPX/1/1"><trk><trkseg><trkpt lat="44.881964580510136" lon="7.316373442754251"><ele>382.0</ele><time>2026-04-19T10:57:13.002Z</time></trkpt><trkpt lat="44.8818799056941" lon="7.3162863628229955"><ele>382.0</ele><time>2026-04-19T10:57:15.002Z</time></trkpt><trkpt lat="44.881876749310656" lon="7.3160141334303495"><ele>382.0</ele><time>2026-04-19T10:57:17.002Z</time></trkpt><trkpt lat="44.881792348742884" lon="7.315936208160453"><ele>382.0</ele><time>2026-04-19T10:57:19.002Z</time></trkpt><trkpt lat="44.88170829638586" lon="7.31585860444713"><ele>382.20000000000005</ele><time>2026-04-19T10:57:21.002Z</time></trkpt><trkpt lat="44.88162175167212" lon="7.3157786995637935"><ele>382.4</ele><time>2026-04-19T10:57:23.002Z</time></trkpt><trkpt lat="44.88156265432908" lon="7.315725079818747"><ele>382.6</ele><time>2026-04-19T10:57:24.002Z</time></trkpt><trkpt lat="44.88147966027156" lon="7.315652840742034"><ele>382.79999999999995</ele><time>2026-04-19T10:57:26.003Z</time></trkpt><trkpt lat="44.88138877481674" lon="7.315597400462035"><ele>383.0</ele><time>2026-04-19T10:57:29.003Z</time></trkpt><trkpt lat="44.88130964246318" lon="7.315539349506311"><ele>383.2</ele><time>2026-04-19T10:57:30.003Z</time></trkpt><trkpt lat="44.88122378294756" lon="7.315479466799096"><ele>383.4</ele><time>2026-04-19T10:57:31.003Z</time></trkpt><trkpt lat="44.88113075701389" lon="7.315416045358498"><ele>383.59999999999997</ele><time>2026-04-19T10:57:32.003Z</time></trkpt><trkpt lat="44.881023234292186" lon="7.315343551036826"><ele>383.79999999999995</ele><time>2026-04-19T10:57:33.003Z</time></trkpt><trkpt lat="44.880909259543635" lon="7.315261521130626"><ele>384.0</ele><time>2026-04-19T10:57:34.003Z</time></trkpt><trkpt lat="44.880806434755165" lon="7.315181192477637"><ele>384.2</ele><time>2026-04-19T10:57:35.003Z</time></trkpt><trkpt lat="44.88072010066381" lon="7.315106981589261"><ele>384.4</ele><time>2026-04-19T10:57:36.003Z</time></trkpt><trkpt lat="44.88064574319411" lon="7.315028375189526"><ele>384.6</ele><time>2026-04-19T10:57:37.003Z</time></trkpt><trkpt lat="44.88059279639576" lon="7.314943373338125"><ele>384.8</ele><time>2026-04-19T10:57:38.003Z</time></trkpt><trkpt lat="44.880574819898" lon="7.3147956093665965"><ele>385.0</ele><time>2026-04-19T10:57:39.999Z</time></trkpt><trkpt lat="44.88063626461678" lon="7.314679888744462"><ele>385.0</ele><time>2026-04-19T10:57:42Z</time></trkpt><trkpt lat="44.88070521833936" lon="7.314627374247424"><ele>385.0</ele><time>2026-04-19T10:57:43Z</time></trkpt><trkpt lat="44.88078635320021" lon="7.3145945654191715"><ele>385.0</ele><time>2026-04-19T10:57:43.999Z</time></trkpt><trkpt lat="44.8808788759521" lon="7.314613361740146"><ele>385.0</ele><time>2026-04-19T10:57:45Z</time></trkpt><trkpt lat="44.88097605333219" lon="7.314612790960766"><ele>385.0</ele><time>2026-04-19T10:57:46Z</time></trkpt><trkpt lat="44.88108037073788" lon="7.314596831114677"><ele>385.0</ele><time>2026-04-19T10:57:47Z</time></trkpt><trkpt lat="44.88119071011419" lon="7.314599945049341"><ele>385.0</ele><time>2026-04-19T10:57:48Z</time></trkpt><trkpt lat="44.88128361226469" lon="7.314597268100839"><ele>385.0</ele><time>2026-04-19T10:57:49Z</time></trkpt><trkpt lat="44.88135785086923" lon="7.314614378359825"><ele>385.0</ele><time>2026-04-19T10:57:51Z</time></trkpt><trkpt lat="44.881288446846725" lon="7.31455196434136"><ele>385.0</ele><time>2026-04-19T10:57:57Z</time></trkpt><trkpt lat="44.88128969824165" lon="7.314396518344796"><ele>385.0</ele><time>2026-04-19T10:58:00Z</time></trkpt><trkpt lat="44.88130032876162" lon="7.314280055591834"><ele>385.0</ele><time>2026-04-19T10:58:01Z</time></trkpt><trkpt lat="44.881313383780764" lon="7.314158112250014"><ele>385.0</ele><time>2026-04-19T10:58:02Z</time></trkpt><trkpt lat="44.88132921715301" lon="7.314028110088159"><ele>385.0</ele><time>2026-04-19T10:58:03Z</time></trkpt><trkpt lat="44.88134933616257" lon="7.313889147829273"><ele>385.0</ele><time>2026-04-19T10:58:04Z</time></trkpt><trkpt lat="44.881375133068666" lon="7.313734303356623"><ele>385.0</ele><time>2026-04-19T10:58:05Z</time></trkpt><trkpt lat="44.881401299780215" lon="7.313565151205327"><ele>385.0</ele><time>2026-04-19T10:58:06Z</time></trkpt><trkpt lat="44.881416331684484" lon="7.3133878291986365"><ele>385.0</ele><time>2026-04-19T10:58:07Z</time></trkpt><trkpt lat="44.88144782588719" lon="7.313211301509425"><ele>385.0</ele><time>2026-04-19T10:58:08Z</time></trkpt><trkpt lat="44.881477106195575" lon="7.313022297824977"><ele>385.25</ele><time>2026-04-19T10:58:09Z</time></trkpt><trkpt lat="44.881498053814425" lon="7.312825305617267"><ele>385.5</ele><time>2026-04-19T10:58:10Z</time></trkpt><trkpt lat="44.881506724746934" lon="7.312626585427677"><ele>385.75</ele><time>2026-04-19T10:58:11Z</time></trkpt><trkpt lat="44.88150879604452" lon="7.312431471251495"><ele>386.0</ele><time>2026-04-19T10:58:12Z</time></trkpt><trkpt lat="44.88151222762165" lon="7.31224056348677"><ele>386.75</ele><time>2026-04-19T10:58:13Z</time></trkpt><trkpt lat="44.88151827797421" lon="7.312040804661622"><ele>387.5</ele><time>2026-04-19T10:58:14Z</time></trkpt><trkpt lat="44.88152642639453" lon="7.311835277252903"><ele>388.25</ele><time>2026-04-19T10:58:15Z</time></trkpt><trkpt lat="44.8815369883793" lon="7.3116274930452585"><ele>389.0</ele><time>2026-04-19T10:58:16Z</time></trkpt><trkpt lat="44.88154953179451" lon="7.311418815905214"><ele>389.25</ele><time>2026-04-19T10:58:17Z</time></trkpt><trkpt lat="44.881583373597365" lon="7.311220635361598"><ele>389.5</ele><time>2026-04-19T10:58:18Z</time></trkpt><trkpt lat="44.8815978478312" lon="7.311019381297265"><ele>389.75</ele><time>2026-04-19T10:58:19Z</time></trkpt><trkpt lat="44.88160163626568" lon="7.31081581068846"><ele>390.0</ele><time>2026-04-19T10:58:20.001Z</time></trkpt><trkpt lat="44.88160569003657" lon="7.310621816750908"><ele>390.0</ele><time>2026-04-19T10:58:21.001Z</time></trkpt><trkpt lat="44.881599560937424" lon="7.3104399618072415"><ele>390.0</ele><time>2026-04-19T10:58:22.001Z</time></trkpt><trkpt lat="44.88161995170096" lon="7.3102605099044915"><ele>390.0</ele><time>2026-04-19T10:58:23.001Z</time></trkpt><trkpt lat="44.88162755743418" lon="7.310080386087907"><ele>390.0</ele><time>2026-04-19T10:58:24.001Z</time></trkpt><trkpt lat="44.881640417412676" lon="7.309900584686923"><ele>390.25</ele><time>2026-04-19T10:58:25.001Z</time></trkpt><trkpt lat="44.881685944289075" lon="7.3097228550116204"><ele>390.5</ele><time>2026-04-19T10:58:26.001Z</time></trkpt><trkpt lat="44.881737137953216" lon="7.309576611755689"><ele>390.75</ele><time>2026-04-19T10:58:27.001Z</time></trkpt><trkpt lat="44.88180181462327" lon="7.309426797960535"><ele>391.0</ele><time>2026-04-19T10:58:28.001Z</time></trkpt><trkpt lat="44.88185970517226" lon="7.30925563218114"><ele>391.0</ele><time>2026-04-19T10:58:29.001Z</time></trkpt><trkpt lat="44.881937534947134" lon="7.309083903441513"><ele>391.0</ele><time>2026-04-19T10:58:30.001Z</time></trkpt><trkpt lat="44.88200074833864" lon="7.308907639996196"><ele>391.0</ele><time>2026-04-19T10:58:31.001Z</time></trkpt><trkpt lat="44.882066975302095" lon="7.3087164102653155"><ele>391.0</ele><time>2026-04-19T10:58:32.001Z</time></trkpt><trkpt lat="44.882120821041845" lon="7.308529147177225"><ele>391.25</ele><time>2026-04-19T10:58:33.001Z</time></trkpt><trkpt lat="44.88219083421783" lon="7.308345851544465"><ele>391.5</ele><time>2026-04-19T10:58:34.001Z</time></trkpt><trkpt lat="44.88223056835493" lon="7.30814637935647"><ele>391.75</ele><time>2026-04-19T10:58:35.001Z</time></trkpt><trkpt lat="44.882274820741884" lon="7.307977888034933"><ele>392.0</ele><time>2026-04-19T10:58:36.001Z</time></trkpt><trkpt lat="44.882308930036636" lon="7.307837518896336"><ele>392.20000000000005</ele><time>2026-04-19T10:58:37.001Z</time></trkpt><trkpt lat="44.88233822139873" lon="7.3077200063489"><ele>392.4</ele><time>2026-04-19T10:58:38.001Z</time></trkpt><trkpt lat="44.88241366690965" lon="7.307599290692093"><ele>392.6</ele><time>2026-04-19T10:58:40.001Z</time></trkpt><trkpt lat="44.882501533851176" lon="7.307621730846535"><ele>392.79999999999995</ele><time>2026-04-19T10:58:41.001Z</time></trkpt><trkpt lat="44.88259932524195" lon="7.307560529210616"><ele>393.0</ele><time>2026-04-19T10:58:42.001Z</time></trkpt><trkpt lat="44.882712767949826" lon="7.307512110991686"><ele>393.2</ele><time>2026-04-19T10:58:43.001Z</time></trkpt><trkpt lat="44.882839063135776" lon="7.30749761759493"><ele>393.4</ele><time>2026-04-19T10:58:44.001Z</time></trkpt><trkpt lat="44.882957920250746" lon="7.3074501201276485"><ele>393.59999999999997</ele><time>2026-04-19T10:58:45.001Z</time></trkpt><trkpt lat="44.883055837362136" lon="7.307424365163221"><ele>393.79999999999995</ele><time>2026-04-19T10:58:46.001Z</time></trkpt><trkpt lat="44.88314117733168" lon="7.307408188447144"><ele>394.0</ele><time>2026-04-19T10:58:47.001Z</time></trkpt><trkpt lat="44.88322623812412" lon="7.307381640374548"><ele>394.0</ele><time>2026-04-19T10:58:48.001Z</time></trkpt><trkpt lat="44.88328235418649" lon="7.307314362438299"><ele>394.0</ele><time>2026-04-19T10:58:49.001Z</time></trkpt><trkpt lat="44.883315656917404" lon="7.307227095645353"><ele>394.0</ele><time>2026-04-19T10:58:50.001Z</time></trkpt><trkpt lat="44.88325546010399" lon="7.307022121096163"><ele>394.0</ele><time>2026-04-19T10:58:52.001Z</time></trkpt><trkpt lat="44.88318691435816" lon="7.306907762351823"><ele>394.0</ele><time>2026-04-19T10:58:53.001Z</time></trkpt><trkpt lat="44.88310795954428" lon="7.306781495693341"><ele>394.0</ele><time>2026-04-19T10:58:54.002Z</time></trkpt><trkpt lat="44.8830446562777" lon="7.306651301975436"><ele>394.0</ele><time>2026-04-19T10:58:55.002Z</time></trkpt><trkpt lat="44.88296694779487" lon="7.306522408787811"><ele>394.0</ele><time>2026-04-19T10:58:56.002Z</time></trkpt><trkpt lat="44.88290234521804" lon="7.306395473738044"><ele>394.0</ele><time>2026-04-19T10:58:57.002Z</time></trkpt><trkpt lat="44.88283968803515" lon="7.306301573733011"><ele>394.0</ele><time>2026-04-19T10:58:58.002Z</time></trkpt><trkpt lat="44.88280064302895" lon="7.306176960736431"><ele>394.0</ele><time>2026-04-19T10:59:00.002Z</time></trkpt><trkpt lat="44.882977676609066" lon="7.306129523984093"><ele>394.0</ele><time>2026-04-19T10:59:04.002Z</time></trkpt><trkpt lat="44.88309923635282" lon="7.306113060612889"><ele>394.0</ele><time>2026-04-19T10:59:05.002Z</time></trkpt><trkpt lat="44.88322880821461" lon="7.306090943862237"><ele>394.0</ele><time>2026-04-19T10:59:06.002Z</time></trkpt><trkpt lat="44.883361728704315" lon="7.306054625220547"><ele>394.5</ele><time>2026-04-19T10:59:07.002Z</time></trkpt><trkpt lat="44.88349702442804" lon="7.3060302082016575"><ele>395.0</ele><time>2026-04-19T10:59:08.002Z</time></trkpt><trkpt lat="44.88363886894181" lon="7.306015498835591"><ele>395.5</ele><time>2026-04-19T10:59:09.002Z</time></trkpt><trkpt lat="44.88375884743445" lon="7.30602590149753"><ele>396.0</ele><time>2026-04-19T10:59:10.002Z</time></trkpt><trkpt lat="44.88386262871509" lon="7.306003882863932"><ele>396.0</ele><time>2026-04-19T10:59:11.002Z</time></trkpt><trkpt lat="44.883957861886024" lon="7.306028460119881"><ele>396.0</ele><time>2026-04-19T10:59:12.002Z</time></trkpt><trkpt lat="44.8840235986084" lon="7.306157046308063"><ele>396.0</ele><time>2026-04-19T10:59:13.002Z</time></trkpt><trkpt lat="44.88408224343115" lon="7.306190535927152"><ele>396.0</ele><time>2026-04-19T10:59:14.002Z</time></trkpt><trkpt lat="44.884149993323994" lon="7.306197691877181"><ele>396.0</ele><time>2026-04-19T10:59:15.002Z</time></trkpt><trkpt lat="44.88420490379455" lon="7.30613788446382"><ele>396.0</ele><time>2026-04-19T10:59:16.002Z</time></trkpt><trkpt lat="44.88423050288766" lon="7.306020208680319"><ele>396.0</ele><time>2026-04-19T10:59:17.002Z</time></trkpt><trkpt lat="44.884196421809996" lon="7.305868916960647"><ele>396.0</ele><time>2026-04-19T10:59:18.002Z</time></trkpt><trkpt lat="44.884193203467774" lon="7.305708263362625"><ele>396.0</ele><time>2026-04-19T10:59:19.002Z</time></trkpt><trkpt lat="44.884184389911645" lon="7.305528129516338"><ele>396.0</ele><time>2026-04-19T10:59:20.002Z</time></trkpt><trkpt lat="44.88417492193377" lon="7.305343930399892"><ele>396.0</ele><time>2026-04-19T10:59:21.002Z</time></trkpt><trkpt lat="44.88415551381028" lon="7.305141573913804"><ele>396.0</ele><time>2026-04-19T10:59:22.002Z</time></trkpt><trkpt lat="44.884161455784216" lon="7.304921903725474"><ele>396.0</ele><time>2026-04-19T10:59:23.002Z</time></trkpt><trkpt lat="44.88416287851915" lon="7.30468400098017"><ele>396.0</ele><time>2026-04-19T10:59:24.002Z</time></trkpt><trkpt lat="44.88416763903908" lon="7.304434577627485"><ele>396.0</ele><time>2026-04-19T10:59:25.002Z</time></trkpt><trkpt lat="44.88417662924531" lon="7.304195427111868"><ele>396.0</ele><time>2026-04-19T10:59:26.002Z</time></trkpt><trkpt lat="44.88419043132803" lon="7.303977786859323"><ele>396.25</ele><time>2026-04-19T10:59:27.002Z</time></trkpt><trkpt lat="44.884214730890385" lon="7.303777339052904"><ele>396.5</ele><time>2026-04-19T10:59:28.002Z</time></trkpt><trkpt lat="44.88423718459802" lon="7.303600416837063"><ele>396.75</ele><time>2026-04-19T10:59:29.003Z</time></trkpt><trkpt lat="44.88425321352408" lon="7.303438233275432"><ele>397.0</ele><time>2026-04-19T10:59:30.003Z</time></trkpt><trkpt lat="44.884260747138974" lon="7.303292827762351"><ele>397.0</ele><time>2026-04-19T10:59:31.003Z</time></trkpt><trkpt lat="44.884259715671334" lon="7.303172239346231"><ele>397.0</ele><time>2026-04-19T10:59:32.003Z</time></trkpt><trkpt lat="44.88425521007116" lon="7.303064092035564"><ele>397.0</ele><time>2026-04-19T10:59:33.003Z</time></trkpt><trkpt lat="44.88425655332087" lon="7.302973495727059"><ele>397.0</ele><time>2026-04-19T10:59:34.003Z</time></trkpt><trkpt lat="44.88430220059535" lon="7.302803465670638"><ele>397.0</ele><time>2026-04-19T10:59:36.003Z</time></trkpt><trkpt lat="44.88426250729768" lon="7.302649932476766"><ele>398.0</ele><time>2026-04-19T10:59:37.003Z</time></trkpt><trkpt lat="44.88427091169596" lon="7.302476247416006"><ele>399.0</ele><time>2026-04-19T10:59:38.003Z</time></trkpt><trkpt lat="44.884300148775445" lon="7.302288475722906"><ele>400.0</ele><time>2026-04-19T10:59:39.003Z</time></trkpt><trkpt lat="44.884338590865475" lon="7.302086837716274"><ele>401.0</ele><time>2026-04-19T10:59:40.003Z</time></trkpt><trkpt lat="44.884378628939785" lon="7.301872855417072"><ele>401.3333333333333</ele><time>2026-04-19T10:59:41.003Z</time></trkpt><trkpt lat="44.88441369770107" lon="7.301641786293083"><ele>401.66666666666663</ele><time>2026-04-19T10:59:42.003Z</time></trkpt><trkpt lat="44.88443746655531" lon="7.30139702539088"><ele>402.0</ele><time>2026-04-19T10:59:43.003Z</time></trkpt><trkpt lat="44.88447674016868" lon="7.301145047396239"><ele>402.66666666666663</ele><time>2026-04-19T10:59:44.003Z</time></trkpt><trkpt lat="44.88448247910074" lon="7.30088488788238"><ele>403.3333333333333</ele><time>2026-04-19T10:59:45.003Z</time></trkpt><trkpt lat="44.8845021929559" lon="7.300617640916833"><ele>404.0</ele><time>2026-04-19T10:59:45.997Z</time></trkpt><trkpt lat="44.884537224644205" lon="7.30034849259113"><ele>404.0</ele><time>2026-04-19T10:59:46.997Z</time></trkpt><trkpt lat="44.88455393217588" lon="7.300079790250197"><ele>404.0</ele><time>2026-04-19T10:59:47.997Z</time></trkpt><trkpt lat="44.88457247985325" lon="7.299809594643822"><ele>404.0</ele><time>2026-04-19T10:59:48.997Z</time></trkpt><trkpt lat="44.884591532230765" lon="7.299543502362499"><ele>404.0</ele><time>2026-04-19T10:59:49.997Z</time></trkpt><trkpt lat="44.884610092972025" lon="7.299293851900765"><ele>404.0</ele><time>2026-04-19T10:59:50.997Z</time></trkpt><trkpt lat="44.88462952974582" lon="7.299039980380655"><ele>404.0</ele><time>2026-04-19T10:59:51.997Z</time></trkpt><trkpt lat="44.88464846235426" lon="7.298792693825273"><ele>404.66666666666663</ele><time>2026-04-19T10:59:52.997Z</time></trkpt><trkpt lat="44.884666346697486" lon="7.298564096757781"><ele>405.33333333333337</ele><time>2026-04-19T10:59:53.997Z</time></trkpt><trkpt lat="44.884681737668735" lon="7.298347346377416"><ele>406.0</ele><time>2026-04-19T10:59:54.997Z</time></trkpt><trkpt lat="44.884694458739126" lon="7.2981594260525515"><ele>405.5</ele><time>2026-04-19T10:59:55.997Z</time></trkpt><trkpt lat="44.88471333960344" lon="7.29797687743897"><ele>405.0</ele><time>2026-04-19T10:59:56.997Z</time></trkpt><trkpt lat="44.88474987821244" lon="7.2977942605853405"><ele>404.5</ele><time>2026-04-19T10:59:57.997Z</time></trkpt><trkpt lat="44.884797666958235" lon="7.2976044320130855"><ele>404.0</ele><time>2026-04-19T10:59:58.997Z</time></trkpt><trkpt lat="44.88484419590183" lon="7.297398664077094"><ele>404.0</ele><time>2026-04-19T10:59:59.998Z</time></trkpt><trkpt lat="44.884952946242095" lon="7.297227325185226"><ele>404.0</ele><time>2026-04-19T11:00:00.998Z</time></trkpt><trkpt lat="44.88504897499801" lon="7.2970386879084845"><ele>404.0</ele><time>2026-04-19T11:00:01.998Z</time></trkpt><trkpt lat="44.885148031841524" lon="7.296854952984829"><ele>404.5</ele><time>2026-04-19T11:00:02.998Z</time></trkpt><trkpt lat="44.885244200409474" lon="7.296678520104849"><ele>405.0</ele><time>2026-04-19T11:00:03.998Z</time></trkpt><trkpt lat="44.88532609734716" lon="7.296499486615386"><ele>405.5</ele><time>2026-04-19T11:00:04.998Z</time></trkpt><trkpt lat="44.885428861456056" lon="7.296382683769013"><ele>406.0</ele><time>2026-04-19T11:00:05.998Z</time></trkpt><trkpt lat="44.8855297201162" lon="7.296313760547745"><ele>406.0</ele><time>2026-04-19T11:00:06.998Z</time></trkpt><trkpt lat="44.88562519700688" lon="7.29631766628342"><ele>406.0</ele><time>2026-04-19T11:00:07.998Z</time></trkpt><trkpt lat="44.8856801639429" lon="7.296260640336279"><ele>406.0</ele><time>2026-04-19T11:00:08.999Z</time></trkpt><trkpt lat="44.88569658513875" lon="7.296137362997879"><ele>406.0</ele><time>2026-04-19T11:00:09.999Z</time></trkpt><trkpt lat="44.88567504138025" lon="7.295976747771279"><ele>406.0</ele><time>2026-04-19T11:00:10.999Z</time></trkpt><trkpt lat="44.88566849441257" lon="7.295811176624735"><ele>406.0</ele><time>2026-04-19T11:00:11.999Z</time></trkpt><trkpt lat="44.88564611675176" lon="7.295636216199916"><ele>406.0</ele><time>2026-04-19T11:00:12.999Z</time></trkpt><trkpt lat="44.88564376249534" lon="7.295443139939489"><ele>406.0</ele><time>2026-04-19T11:00:13.999Z</time></trkpt><trkpt lat="44.885642141637156" lon="7.29523388977937"><ele>406.0</ele><time>2026-04-19T11:00:14.999Z</time></trkpt><trkpt lat="44.88563557175175" lon="7.295010907142023"><ele>406.0</ele><time>2026-04-19T11:00:15.999Z</time></trkpt><trkpt lat="44.88562340495297" lon="7.2947809849442296"><ele>406.0</ele><time>2026-04-19T11:00:16.999Z</time></trkpt><trkpt lat="44.88560041637776" lon="7.294547393312929"><ele>406.0</ele><time>2026-04-19T11:00:17.999Z</time></trkpt><trkpt lat="44.885584690379936" lon="7.294297177088314"><ele>406.6666666666667</ele><time>2026-04-19T11:00:18.999Z</time></trkpt><trkpt lat="44.885538564682136" lon="7.294048001791043"><ele>407.33333333333337</ele><time>2026-04-19T11:00:19.999Z</time></trkpt><trkpt lat="44.88549237291394" lon="7.293797776411534"><ele>408.0</ele><time>2026-04-19T11:00:20.999Z</time></trkpt><trkpt lat="44.885443973261275" lon="7.293544537463318"><ele>408.0</ele><time>2026-04-19T11:00:21.999Z</time></trkpt><trkpt lat="44.885397516095864" lon="7.29330146212605"><ele>408.0</ele><time>2026-04-19T11:00:22.999Z</time></trkpt><trkpt lat="44.885351534911635" lon="7.293053036532289"><ele>408.0</ele><time>2026-04-19T11:00:23.999Z</time></trkpt><trkpt lat="44.885310387900816" lon="7.292813633167624"><ele>407.66666666666663</ele><time>2026-04-19T11:00:25Z</time></trkpt><trkpt lat="44.8852818309585" lon="7.29257205646044"><ele>407.3333333333333</ele><time>2026-04-19T11:00:26Z</time></trkpt><trkpt lat="44.88526531180732" lon="7.292337991079626"><ele>407.0</ele><time>2026-04-19T11:00:27Z</time></trkpt><trkpt lat="44.88526803083102" lon="7.292104361763448"><ele>407.0</ele><time>2026-04-19T11:00:28Z</time></trkpt><trkpt lat="44.88528345934218" lon="7.291854606659529"><ele>407.0</ele><time>2026-04-19T11:00:29Z</time></trkpt><trkpt lat="44.885298257599715" lon="7.291616371817371"><ele>407.0</ele><time>2026-04-19T11:00:30Z</time></trkpt><trkpt lat="44.88531354482176" lon="7.291370265180478"><ele>407.3333333333333</ele><time>2026-04-19T11:00:31Z</time></trkpt><trkpt lat="44.88532855469054" lon="7.291128623620991"><ele>407.66666666666663</ele><time>2026-04-19T11:00:32Z</time></trkpt><trkpt lat="44.88534422503563" lon="7.2908763491815565"><ele>408.0</ele><time>2026-04-19T11:00:33Z</time></trkpt><trkpt lat="44.885359862358705" lon="7.290618613085488"><ele>408.66666666666663</ele><time>2026-04-19T11:00:34Z</time></trkpt><trkpt lat="44.88537471279388" lon="7.290362257163887"><ele>409.3333333333333</ele><time>2026-04-19T11:00:35Z</time></trkpt><trkpt lat="44.885390548201556" lon="7.2900961095066"><ele>410.0</ele><time>2026-04-19T11:00:36Z</time></trkpt><trkpt lat="44.88538454140434" lon="7.289833331910441"><ele>409.66666666666663</ele><time>2026-04-19T11:00:37Z</time></trkpt><trkpt lat="44.885399389726174" lon="7.289564537641223"><ele>409.33333333333337</ele><time>2026-04-19T11:00:38Z</time></trkpt><trkpt lat="44.88542429451045" lon="7.289298647331355"><ele>409.0</ele><time>2026-04-19T11:00:39Z</time></trkpt><trkpt lat="44.88543704175664" lon="7.2890425120999405"><ele>410.0</ele><time>2026-04-19T11:00:40Z</time></trkpt><trkpt lat="44.88546515253079" lon="7.288787233552659"><ele>411.0</ele><time>2026-04-19T11:00:41Z</time></trkpt><trkpt lat="44.88544885675314" lon="7.288546057459799"><ele>412.0</ele><time>2026-04-19T11:00:42Z</time></trkpt><trkpt lat="44.885457594208674" lon="7.28831761600864"><ele>412.33333333333337</ele><time>2026-04-19T11:00:43Z</time></trkpt><trkpt lat="44.885471322376176" lon="7.288092271158771"><ele>412.66666666666663</ele><time>2026-04-19T11:00:44Z</time></trkpt><trkpt lat="44.88547203840903" lon="7.287851734777532"><ele>413.0</ele><time>2026-04-19T11:00:45Z</time></trkpt><trkpt lat="44.88545364744593" lon="7.287607143060179"><ele>413.0</ele><time>2026-04-19T11:00:46Z</time></trkpt><trkpt lat="44.88542416470665" lon="7.287362159157532"><ele>413.0</ele><time>2026-04-19T11:00:47Z</time></trkpt><trkpt lat="44.88538987455681" lon="7.287123166732845"><ele>413.0</ele><time>2026-04-19T11:00:48Z</time></trkpt><trkpt lat="44.88536826988562" lon="7.286869553965959"><ele>412.66666666666663</ele><time>2026-04-19T11:00:49Z</time></trkpt><trkpt lat="44.885343323939196" lon="7.28662354343737"><ele>412.33333333333337</ele><time>2026-04-19T11:00:50.001Z</time></trkpt><trkpt lat="44.88532164282587" lon="7.286380190328046"><ele>412.0</ele><time>2026-04-19T11:00:51.001Z</time></trkpt><trkpt lat="44.88529408088103" lon="7.286129107719112"><ele>411.33333333333337</ele><time>2026-04-19T11:00:52.001Z</time></trkpt><trkpt lat="44.88531314507208" lon="7.285876058027922"><ele>410.66666666666663</ele><time>2026-04-19T11:00:53.001Z</time></trkpt><trkpt lat="44.88532232231744" lon="7.285620836525164"><ele>410.0</ele><time>2026-04-19T11:00:54.001Z</time></trkpt><trkpt lat="44.885334004423825" lon="7.285367559077976"><ele>409.3333333333333</ele><time>2026-04-19T11:00:55.001Z</time></trkpt><trkpt lat="44.885349777638886" lon="7.285108604132345"><ele>408.66666666666663</ele><time>2026-04-19T11:00:56.001Z</time></trkpt><trkpt lat="44.88536466598504" lon="7.284853811506803"><ele>408.0</ele><time>2026-04-19T11:00:57.001Z</time></trkpt><trkpt lat="44.88537987243453" lon="7.28458961059356"><ele>409.0</ele><time>2026-04-19T11:00:58.001Z</time></trkpt><trkpt lat="44.885395865779046" lon="7.284330172206426"><ele>410.0</ele><time>2026-04-19T11:00:59.001Z</time></trkpt><trkpt lat="44.88541293364515" lon="7.28406547482369"><ele>411.0</ele><time>2026-04-19T11:01:00.001Z</time></trkpt><trkpt lat="44.88543031892436" lon="7.283796345115544"><ele>411.0</ele><time>2026-04-19T11:01:01.001Z</time></trkpt><trkpt lat="44.885447500500746" lon="7.283530805812295"><ele>411.0</ele><time>2026-04-19T11:01:02.001Z</time></trkpt><trkpt lat="44.885464473861354" lon="7.2832684844494615"><ele>411.0</ele><time>2026-04-19T11:01:03.001Z</time></trkpt><trkpt lat="44.88548204406251" lon="7.283007547144915"><ele>411.0</ele><time>2026-04-19T11:01:04.001Z</time></trkpt><trkpt lat="44.88548718090082" lon="7.282738824952901"><ele>411.0</ele><time>2026-04-19T11:01:05.001Z</time></trkpt><trkpt lat="44.885515355327776" lon="7.282473224168894"><ele>411.0</ele><time>2026-04-19T11:01:06.001Z</time></trkpt><trkpt lat="44.88557985955208" lon="7.282231057857643"><ele>411.0</ele><time>2026-04-19T11:01:07.001Z</time></trkpt><trkpt lat="44.88564159608077" lon="7.281989488657781"><ele>411.0</ele><time>2026-04-19T11:01:08.001Z</time></trkpt><trkpt lat="44.88570314601022" lon="7.281749767534606"><ele>411.0</ele><time>2026-04-19T11:01:09.001Z</time></trkpt><trkpt lat="44.885763694028654" lon="7.281507207278743"><ele>411.0</ele><time>2026-04-19T11:01:10.001Z</time></trkpt><trkpt lat="44.885827068233404" lon="7.281261088375387"><ele>411.0</ele><time>2026-04-19T11:01:11.001Z</time></trkpt><trkpt lat="44.88589147702339" lon="7.281010711957706"><ele>411.0</ele><time>2026-04-19T11:01:12.001Z</time></trkpt><trkpt lat="44.88595171324699" lon="7.280775065692115"><ele>414.66666666666663</ele><time>2026-04-19T11:01:13.001Z</time></trkpt><trkpt lat="44.885993098744386" lon="7.280529715775042"><ele>418.3333333333333</ele><time>2026-04-19T11:01:14.001Z</time></trkpt><trkpt lat="44.88605244232477" lon="7.280285569978952"><ele>422.0</ele><time>2026-04-19T11:01:15.001Z</time></trkpt><trkpt lat="44.886117298238105" lon="7.280051936356044"><ele>422.0</ele><time>2026-04-19T11:01:16.001Z</time></trkpt><trkpt lat="44.886161252143935" lon="7.279801627605343"><ele>422.0</ele><time>2026-04-19T11:01:17.001Z</time></trkpt><trkpt lat="44.88620018369705" lon="7.279548927430966"><ele>422.0</ele><time>2026-04-19T11:01:18.001Z</time></trkpt><trkpt lat="44.88623786530216" lon="7.279303645093703"><ele>422.0</ele><time>2026-04-19T11:01:19.001Z</time></trkpt><trkpt lat="44.886276420121156" lon="7.279050291990575"><ele>422.0</ele><time>2026-04-19T11:01:20.001Z</time></trkpt><trkpt lat="44.886312550068865" lon="7.278805997813074"><ele>422.0</ele><time>2026-04-19T11:01:21.001Z</time></trkpt><trkpt lat="44.88634972186904" lon="7.278554658982457"><ele>422.0</ele><time>2026-04-19T11:01:22.002Z</time></trkpt><trkpt lat="44.88638702841712" lon="7.27830240909897"><ele>422.0</ele><time>2026-04-19T11:01:23.002Z</time></trkpt><trkpt lat="44.88642356835639" lon="7.278054280844381"><ele>422.0</ele><time>2026-04-19T11:01:24.002Z</time></trkpt><trkpt lat="44.886461429877116" lon="7.277796181104688"><ele>422.3333333333333</ele><time>2026-04-19T11:01:25.002Z</time></trkpt><trkpt lat="44.886478453967335" lon="7.2775422594108345"><ele>422.66666666666663</ele><time>2026-04-19T11:01:26.002Z</time></trkpt><trkpt lat="44.8865187003139" lon="7.277280169299669"><ele>423.0</ele><time>2026-04-19T11:01:27.002Z</time></trkpt><trkpt lat="44.886555359031995" lon="7.277026497019097"><ele>422.0</ele><time>2026-04-19T11:01:28.002Z</time></trkpt><trkpt lat="44.88659430962118" lon="7.2767642639644246"><ele>421.0</ele><time>2026-04-19T11:01:29.002Z</time></trkpt><trkpt lat="44.88665117743889" lon="7.276505348257504"><ele>420.0</ele><time>2026-04-19T11:01:30.002Z</time></trkpt><trkpt lat="44.88667338044149" lon="7.276237967554342"><ele>419.33333333333337</ele><time>2026-04-19T11:01:31.002Z</time></trkpt><trkpt lat="44.88671110493781" lon="7.275973271348117"><ele>418.6666666666667</ele><time>2026-04-19T11:01:32.002Z</time></trkpt><trkpt lat="44.88674865787143" lon="7.27571213815202"><ele>418.0</ele><time>2026-04-19T11:01:33.002Z</time></trkpt><trkpt lat="44.88678620432794" lon="7.275449078469069"><ele>427.33333333333337</ele><time>2026-04-19T11:01:34.002Z</time></trkpt><trkpt lat="44.88682051780169" lon="7.275188650439505"><ele>436.66666666666663</ele><time>2026-04-19T11:01:35.002Z</time></trkpt><trkpt lat="44.88684712121278" lon="7.274928518532255"><ele>446.0</ele><time>2026-04-19T11:01:36.002Z</time></trkpt><trkpt lat="44.88685396627102" lon="7.2746662338786905"><ele>447.0</ele><time>2026-04-19T11:01:37.002Z</time></trkpt><trkpt lat="44.88684139579312" lon="7.274409834476591"><ele>448.0</ele><time>2026-04-19T11:01:38.002Z</time></trkpt><trkpt lat="44.88681130685898" lon="7.274154551778987"><ele>449.0</ele><time>2026-04-19T11:01:39.002Z</time></trkpt><trkpt lat="44.88677752004857" lon="7.27389280392006"><ele>440.66666666666663</ele><time>2026-04-19T11:01:40.002Z</time></trkpt><trkpt lat="44.88674778425706" lon="7.273639203362745"><ele>432.33333333333337</ele><time>2026-04-19T11:01:41.002Z</time></trkpt><trkpt lat="44.88674439406122" lon="7.2733704391115985"><ele>424.0</ele><time>2026-04-19T11:01:42.002Z</time></trkpt><trkpt lat="44.88670380011991" lon="7.273113384888354"><ele>425.0</ele><time>2026-04-19T11:01:43.002Z</time></trkpt><trkpt lat="44.88668202420391" lon="7.2728563012022365"><ele>426.0</ele><time>2026-04-19T11:01:44.002Z</time></trkpt><trkpt lat="44.88665734081499" lon="7.272594074904816"><ele>427.0</ele><time>2026-04-19T11:01:45.002Z</time></trkpt><trkpt lat="44.886633023136916" lon="7.272343378638027"><ele>426.6666666666667</ele><time>2026-04-19T11:01:46.002Z</time></trkpt><trkpt lat="44.886612693667" lon="7.2720805172849845"><ele>426.33333333333337</ele><time>2026-04-19T11:01:47.002Z</time></trkpt><trkpt lat="44.88659769321514" lon="7.271830758598034"><ele>426.0</ele><time>2026-04-19T11:01:48.002Z</time></trkpt><trkpt lat="44.886616512044235" lon="7.271581847381361"><ele>425.66666666666663</ele><time>2026-04-19T11:01:49.002Z</time></trkpt><trkpt lat="44.88664209850154" lon="7.271348354029544"><ele>425.3333333333333</ele><time>2026-04-19T11:01:50.002Z</time></trkpt><trkpt lat="44.8866714134041" lon="7.271124223654822"><ele>425.0</ele><time>2026-04-19T11:01:51.002Z</time></trkpt><trkpt lat="44.886693078690854" lon="7.270895864173017"><ele>425.0</ele><time>2026-04-19T11:01:51.996Z</time></trkpt><trkpt lat="44.886723886877576" lon="7.27068657281377"><ele>425.0</ele><time>2026-04-19T11:01:52.996Z</time></trkpt><trkpt lat="44.88675868058561" lon="7.2704735017606055"><ele>425.0</ele><time>2026-04-19T11:01:53.996Z</time></trkpt><trkpt lat="44.88678067691372" lon="7.270249949912366"><ele>430.0</ele><time>2026-04-19T11:01:54.996Z</time></trkpt><trkpt lat="44.88680444007862" lon="7.270028335837158"><ele>435.0</ele><time>2026-04-19T11:01:55.996Z</time></trkpt><trkpt lat="44.886826395473996" lon="7.269804913259344"><ele>440.0</ele><time>2026-04-19T11:01:56.997Z</time></trkpt><trkpt lat="44.88685501789503" lon="7.269578876048661"><ele>440.0</ele><time>2026-04-19T11:01:57.997Z</time></trkpt><trkpt lat="44.886878702648005" lon="7.269349765290965"><ele>440.0</ele><time>2026-04-19T11:01:58.997Z</time></trkpt><trkpt lat="44.886906745759035" lon="7.269126611840296"><ele>440.0</ele><time>2026-04-19T11:01:59.997Z</time></trkpt><trkpt lat="44.88693876695666" lon="7.268891298329942"><ele>439.0</ele><time>2026-04-19T11:02:00.997Z</time></trkpt><trkpt lat="44.886966577977134" lon="7.268665034633173"><ele>438.0</ele><time>2026-04-19T11:02:01.997Z</time></trkpt><trkpt lat="44.886994379079695" lon="7.268424825210396"><ele>437.0</ele><time>2026-04-19T11:02:02.998Z</time></trkpt><trkpt lat="44.887023468088586" lon="7.268182524502843"><ele>436.66666666666663</ele><time>2026-04-19T11:02:03.998Z</time></trkpt><trkpt lat="44.88705014977886" lon="7.267940794385143"><ele>436.33333333333337</ele><time>2026-04-19T11:02:04.998Z</time></trkpt><trkpt lat="44.88707693893978" lon="7.267699284980165"><ele>436.0</ele><time>2026-04-19T11:02:05.998Z</time></trkpt><trkpt lat="44.88710929109904" lon="7.26744464266926"><ele>435.33333333333337</ele><time>2026-04-19T11:02:06.998Z</time></trkpt><trkpt lat="44.887147032324066" lon="7.267193470372054"><ele>434.66666666666663</ele><time>2026-04-19T11:02:07.998Z</time></trkpt><trkpt lat="44.88720068761398" lon="7.266949514920436"><ele>434.0</ele><time>2026-04-19T11:02:08.998Z</time></trkpt><trkpt lat="44.88728881466713" lon="7.26671924171848"><ele>434.0</ele><time>2026-04-19T11:02:09.999Z</time></trkpt><trkpt lat="44.88735610499229" lon="7.266478627247831"><ele>434.0</ele><time>2026-04-19T11:02:10.999Z</time></trkpt><trkpt lat="44.887443037626895" lon="7.266245702642837"><ele>434.0</ele><time>2026-04-19T11:02:11.999Z</time></trkpt><trkpt lat="44.88752676845659" lon="7.266015573721262"><ele>438.66666666666663</ele><time>2026-04-19T11:02:12.999Z</time></trkpt><trkpt lat="44.887610621031776" lon="7.265785486819449"><ele>443.33333333333337</ele><time>2026-04-19T11:02:13.999Z</time></trkpt><trkpt lat="44.88769290514356" lon="7.265550816345884"><ele>448.0</ele><time>2026-04-19T11:02:14.999Z</time></trkpt><trkpt lat="44.88776977598293" lon="7.2653263920096105"><ele>448.0</ele><time>2026-04-19T11:02:15.999Z</time></trkpt><trkpt lat="44.88784639127639" lon="7.265103850447719"><ele>448.0</ele><time>2026-04-19T11:02:16.999Z</time></trkpt><trkpt lat="44.8879239612405" lon="7.264883069376663"><ele>448.0</ele><time>2026-04-19T11:02:17.999Z</time></trkpt><trkpt lat="44.88800071369841" lon="7.264661044540828"><ele>444.6666666666667</ele><time>2026-04-19T11:02:18.999Z</time></trkpt><trkpt lat="44.88808697670531" lon="7.264448944925144"><ele>441.33333333333337</ele><time>2026-04-19T11:02:19.999Z</time></trkpt><trkpt lat="44.88819851416418" lon="7.264269262878557"><ele>438.0</ele><time>2026-04-19T11:02:21Z</time></trkpt><trkpt lat="44.88831067979108" lon="7.264075551613862"><ele>436.33333333333337</ele><time>2026-04-19T11:02:22Z</time></trkpt><trkpt lat="44.88842428552805" lon="7.263883309358765"><ele>434.6666666666667</ele><time>2026-04-19T11:02:23Z</time></trkpt><trkpt lat="44.88853081092296" lon="7.263673822196183"><ele>433.0</ele><time>2026-04-19T11:02:24Z</time></trkpt><trkpt lat="44.888618097701155" lon="7.263460901638431"><ele>436.33333333333337</ele><time>2026-04-19T11:02:25Z</time></trkpt><trkpt lat="44.88872074342024" lon="7.263239084669257"><ele>439.66666666666663</ele><time>2026-04-19T11:02:26Z</time></trkpt><trkpt lat="44.888816939747116" lon="7.263023291919472"><ele>443.0</ele><time>2026-04-19T11:02:27Z</time></trkpt><trkpt lat="44.88891942878299" lon="7.262798631775506"><ele>443.0</ele><time>2026-04-19T11:02:28Z</time></trkpt><trkpt lat="44.88901875432166" lon="7.262579101708115"><ele>443.0</ele><time>2026-04-19T11:02:29Z</time></trkpt><trkpt lat="44.889133505200334" lon="7.262367746775392"><ele>443.0</ele><time>2026-04-19T11:02:30Z</time></trkpt><trkpt lat="44.88923517444544" lon="7.2621462986004115"><ele>450.66666666666663</ele><time>2026-04-19T11:02:31Z</time></trkpt><trkpt lat="44.88933375637273" lon="7.261932048505122"><ele>458.33333333333337</ele><time>2026-04-19T11:02:32Z</time></trkpt><trkpt lat="44.889420776014596" lon="7.261700429935442"><ele>466.0</ele><time>2026-04-19T11:02:33Z</time></trkpt><trkpt lat="44.88952048521205" lon="7.261484177289432"><ele>459.33333333333337</ele><time>2026-04-19T11:02:34Z</time></trkpt><trkpt lat="44.88961971890652" lon="7.261267596630494"><ele>452.66666666666663</ele><time>2026-04-19T11:02:35Z</time></trkpt><trkpt lat="44.88971825793456" lon="7.261054738477864"><ele>446.0</ele><time>2026-04-19T11:02:36Z</time></trkpt><trkpt lat="44.889820049013885" lon="7.260839643684535"><ele>446.0</ele><time>2026-04-19T11:02:37Z</time></trkpt><trkpt lat="44.88991587486011" lon="7.260625618291166"><ele>446.0</ele><time>2026-04-19T11:02:38.001Z</time></trkpt><trkpt lat="44.89003013258978" lon="7.26041970443225"><ele>446.0</ele><time>2026-04-19T11:02:39.001Z</time></trkpt><trkpt lat="44.890127633450895" lon="7.2602092093193304"><ele>446.66666666666663</ele><time>2026-04-19T11:02:40.001Z</time></trkpt><trkpt lat="44.89022899468444" lon="7.259990876386173"><ele>447.33333333333337</ele><time>2026-04-19T11:02:41.001Z</time></trkpt><trkpt lat="44.89032797844217" lon="7.2597776643750285"><ele>448.0</ele><time>2026-04-19T11:02:42.001Z</time></trkpt><trkpt lat="44.89042933453365" lon="7.259559342704215"><ele>448.0</ele><time>2026-04-19T11:02:43.001Z</time></trkpt><trkpt lat="44.89052243534529" lon="7.259341024881099"><ele>448.0</ele><time>2026-04-19T11:02:44.001Z</time></trkpt><trkpt lat="44.890585115767266" lon="7.259100461871055"><ele>448.0</ele><time>2026-04-19T11:02:45.001Z</time></trkpt><trkpt lat="44.890641271022844" lon="7.258861991045267"><ele>447.0</ele><time>2026-04-19T11:02:46.001Z</time></trkpt><trkpt lat="44.8906796413724" lon="7.258620936743709"><ele>446.0</ele><time>2026-04-19T11:02:47.001Z</time></trkpt><trkpt lat="44.89070751924512" lon="7.258369448275172"><ele>445.0</ele><time>2026-04-19T11:02:48.001Z</time></trkpt><trkpt lat="44.890750660591586" lon="7.258118018652811"><ele>443.6666666666667</ele><time>2026-04-19T11:02:49.001Z</time></trkpt><trkpt lat="44.890786048689705" lon="7.257868501690534"><ele>442.33333333333337</ele><time>2026-04-19T11:02:50.001Z</time></trkpt><trkpt lat="44.890823509623594" lon="7.257604369400267"><ele>441.0</ele><time>2026-04-19T11:02:51.001Z</time></trkpt><trkpt lat="44.89085992392127" lon="7.257347191718326"><ele>442.66666666666663</ele><time>2026-04-19T11:02:52.001Z</time></trkpt><trkpt lat="44.890896356815844" lon="7.25708862431594"><ele>444.3333333333333</ele><time>2026-04-19T11:02:53.001Z</time></trkpt><trkpt lat="44.89093261876573" lon="7.256827651623636"><ele>446.0</ele><time>2026-04-19T11:02:54.001Z</time></trkpt><trkpt lat="44.890967948896254" lon="7.2565705448596285"><ele>460.66666666666663</ele><time>2026-04-19T11:02:55.001Z</time></trkpt><trkpt lat="44.89100339106996" lon="7.256312622799158"><ele>475.33333333333337</ele><time>2026-04-19T11:02:56.001Z</time></trkpt><trkpt lat="44.891039477147565" lon="7.256050014808491"><ele>490.0</ele><time>2026-04-19T11:02:57.001Z</time></trkpt><trkpt lat="44.89107504947162" lon="7.255791145565223"><ele>487.6666666666667</ele><time>2026-04-19T11:02:58.001Z</time></trkpt><trkpt lat="44.89110873151968" lon="7.25553213901087"><ele>485.33333333333337</ele><time>2026-04-19T11:02:59.001Z</time></trkpt><trkpt lat="44.891136065331615" lon="7.255271546421372"><ele>483.0</ele><time>2026-04-19T11:03:00.001Z</time></trkpt><trkpt lat="44.89112892375967" lon="7.255001697450394"><ele>481.66666666666663</ele><time>2026-04-19T11:03:01.001Z</time></trkpt><trkpt lat="44.89112773283231" lon="7.254740958344484"><ele>480.3333333333333</ele><time>2026-04-19T11:03:02.001Z</time></trkpt><trkpt lat="44.89111194347698" lon="7.254486748870456"><ele>479.0</ele><time>2026-04-19T11:03:03.001Z</time></trkpt><trkpt lat="44.891091331067415" lon="7.254223548275527"><ele>479.0</ele><time>2026-04-19T11:03:04.001Z</time></trkpt><trkpt lat="44.89109616052588" lon="7.253971633537371"><ele>479.0</ele><time>2026-04-19T11:03:05.002Z</time></trkpt><trkpt lat="44.891063583636786" lon="7.253705213986724"><ele>479.0</ele><time>2026-04-19T11:03:06.002Z</time></trkpt><trkpt lat="44.89105150814888" lon="7.253446259662097"><ele>480.3333333333333</ele><time>2026-04-19T11:03:07.002Z</time></trkpt><trkpt lat="44.89103964263719" lon="7.25318070344271"><ele>481.66666666666663</ele><time>2026-04-19T11:03:08.002Z</time></trkpt><trkpt lat="44.89102762426559" lon="7.252910700874747"><ele>483.0</ele><time>2026-04-19T11:03:09.002Z</time></trkpt><trkpt lat="44.89103123269738" lon="7.252640047803796"><ele>486.0</ele><time>2026-04-19T11:03:10.002Z</time></trkpt><trkpt lat="44.89099059861687" lon="7.252380494863966"><ele>489.0</ele><time>2026-04-19T11:03:11.002Z</time></trkpt><trkpt lat="44.890962723071254" lon="7.252118965488875"><ele>492.0</ele><time>2026-04-19T11:03:12.002Z</time></trkpt><trkpt lat="44.89093550746027" lon="7.251855253656119"><ele>479.33333333333337</ele><time>2026-04-19T11:03:13.002Z</time></trkpt><trkpt lat="44.890905791779495" lon="7.251589945222987"><ele>466.6666666666667</ele><time>2026-04-19T11:03:14.002Z</time></trkpt><trkpt lat="44.89087596308015" lon="7.251325286511216"><ele>454.0</ele><time>2026-04-19T11:03:15.002Z</time></trkpt><trkpt lat="44.89084552419047" lon="7.251061447784517"><ele>454.0</ele><time>2026-04-19T11:03:16.002Z</time></trkpt><trkpt lat="44.89081752014288" lon="7.250803425445704"><ele>454.0</ele><time>2026-04-19T11:03:17.002Z</time></trkpt><trkpt lat="44.89079028063613" lon="7.250546343333188"><ele>454.0</ele><time>2026-04-19T11:03:18.002Z</time></trkpt><trkpt lat="44.89075759043498" lon="7.250286305897861"><ele>454.33333333333337</ele><time>2026-04-19T11:03:19.002Z</time></trkpt><trkpt lat="44.89072351382415" lon="7.250024141355771"><ele>454.66666666666663</ele><time>2026-04-19T11:03:20.002Z</time></trkpt><trkpt lat="44.89068993960762" lon="7.249767531086321"><ele>455.0</ele><time>2026-04-19T11:03:21.002Z</time></trkpt><trkpt lat="44.890657818713905" lon="7.249507793633406"><ele>454.0</ele><time>2026-04-19T11:03:22.002Z</time></trkpt><trkpt lat="44.89062233288837" lon="7.249246890115511"><ele>453.0</ele><time>2026-04-19T11:03:23.002Z</time></trkpt><trkpt lat="44.8905972012216" lon="7.2489919134868614"><ele>452.0</ele><time>2026-04-19T11:03:24.002Z</time></trkpt><trkpt lat="44.89057866079293" lon="7.248737385572612"><ele>452.0</ele><time>2026-04-19T11:03:25.002Z</time></trkpt><trkpt lat="44.89056728754229" lon="7.248475005224867"><ele>452.0</ele><time>2026-04-19T11:03:26.002Z</time></trkpt><trkpt lat="44.890586814246866" lon="7.248226002608722"><ele>452.0</ele><time>2026-04-19T11:03:27.002Z</time></trkpt><trkpt lat="44.8906059667518" lon="7.247977121039248"><ele>452.0</ele><time>2026-04-19T11:03:28.002Z</time></trkpt><trkpt lat="44.8906394993818" lon="7.247727607944511"><ele>452.0</ele><time>2026-04-19T11:03:29.002Z</time></trkpt><trkpt lat="44.89068673795608" lon="7.247488646626853"><ele>452.0</ele><time>2026-04-19T11:03:30.002Z</time></trkpt><trkpt lat="44.8907571399078" lon="7.247251742477013"><ele>451.66666666666663</ele><time>2026-04-19T11:03:31.002Z</time></trkpt><trkpt lat="44.89084009896885" lon="7.247029694952257"><ele>451.33333333333337</ele><time>2026-04-19T11:03:32.002Z</time></trkpt><trkpt lat="44.89092985410241" lon="7.2468129187360075"><ele>451.0</ele><time>2026-04-19T11:03:33.002Z</time></trkpt><trkpt lat="44.89101695285665" lon="7.2465862092609745"><ele>451.6666666666667</ele><time>2026-04-19T11:03:34.002Z</time></trkpt><trkpt lat="44.89111902534959" lon="7.246383828162719"><ele>452.33333333333337</ele><time>2026-04-19T11:03:35.002Z</time></trkpt><trkpt lat="44.89122656154216" lon="7.246172947734836"><ele>453.0</ele><time>2026-04-19T11:03:36.002Z</time></trkpt><trkpt lat="44.891333540255985" lon="7.245966079404341"><ele>453.0</ele><time>2026-04-19T11:03:37.003Z</time></trkpt><trkpt lat="44.891441199199186" lon="7.245765387946787"><ele>453.0</ele><time>2026-04-19T11:03:38.003Z</time></trkpt><trkpt lat="44.89156133259799" lon="7.245560714136423"><ele>453.0</ele><time>2026-04-19T11:03:39.003Z</time></trkpt><trkpt lat="44.89168605994738" lon="7.245373413739848"><ele>456.66666666666663</ele><time>2026-04-19T11:03:40.003Z</time></trkpt><trkpt lat="44.89182250543182" lon="7.245196378995454"><ele>460.3333333333333</ele><time>2026-04-19T11:03:41.003Z</time></trkpt><trkpt lat="44.89196198691568" lon="7.2450386557702755"><ele>464.0</ele><time>2026-04-19T11:03:42.003Z</time></trkpt><trkpt lat="44.89210300961189" lon="7.2448762900660215"><ele>461.0</ele><time>2026-04-19T11:03:43.003Z</time></trkpt><trkpt lat="44.89223565720094" lon="7.244714026893797"><ele>458.0</ele><time>2026-04-19T11:03:44.003Z</time></trkpt><trkpt lat="44.89235362879038" lon="7.244541941261753"><ele>455.0</ele><time>2026-04-19T11:03:45.003Z</time></trkpt><trkpt lat="44.89246558016834" lon="7.244374275354187"><ele>457.0</ele><time>2026-04-19T11:03:46.003Z</time></trkpt><trkpt lat="44.89259038270815" lon="7.244267941120789"><ele>459.0</ele><time>2026-04-19T11:03:47.003Z</time></trkpt><trkpt lat="44.892735855705006" lon="7.244260204011357"><ele>461.0</ele><time>2026-04-19T11:03:48.003Z</time></trkpt><trkpt lat="44.89289465887945" lon="7.244227294470155"><ele>461.0</ele><time>2026-04-19T11:03:49.003Z</time></trkpt><trkpt lat="44.89306626181169" lon="7.244227071726981"><ele>461.0</ele><time>2026-04-19T11:03:50.003Z</time></trkpt><trkpt lat="44.8932371742956" lon="7.244242763805731"><ele>461.0</ele><time>2026-04-19T11:03:51.003Z</time></trkpt><trkpt lat="44.893413062097245" lon="7.2442612819740875"><ele>461.66666666666663</ele><time>2026-04-19T11:03:52.003Z</time></trkpt><trkpt lat="44.893594993905936" lon="7.244295395304058"><ele>462.33333333333337</ele><time>2026-04-19T11:03:53.003Z</time></trkpt><trkpt lat="44.89377940875941" lon="7.244332722859141"><ele>463.0</ele><time>2026-04-19T11:03:54.003Z</time></trkpt><trkpt lat="44.89396306844311" lon="7.244369002391434"><ele>463.0</ele><time>2026-04-19T11:03:55.003Z</time></trkpt><trkpt lat="44.894148017953114" lon="7.24440242828854"><ele>463.0</ele><time>2026-04-19T11:03:56.003Z</time></trkpt><trkpt lat="44.894336544264235" lon="7.244433614205485"><ele>463.0</ele><time>2026-04-19T11:03:57.003Z</time></trkpt><trkpt lat="44.8945130434196" lon="7.2444586075728035"><ele>462.33333333333337</ele><time>2026-04-19T11:03:57.997Z</time></trkpt><trkpt lat="44.89469777668261" lon="7.244482836137542"><ele>461.66666666666663</ele><time>2026-04-19T11:03:58.997Z</time></trkpt><trkpt lat="44.89488891018711" lon="7.244524883424959"><ele>461.0</ele><time>2026-04-19T11:03:59.997Z</time></trkpt><trkpt lat="44.895072243439174" lon="7.244557009274122"><ele>460.66666666666663</ele><time>2026-04-19T11:04:00.997Z</time></trkpt><trkpt lat="44.89525359657895" lon="7.244599045659506"><ele>460.33333333333337</ele><time>2026-04-19T11:04:01.997Z</time></trkpt><trkpt lat="44.89543607356272" lon="7.244637753480607"><ele>460.0</ele><time>2026-04-19T11:04:02.998Z</time></trkpt><trkpt lat="44.89561706622856" lon="7.24468204962986"><ele>460.0</ele><time>2026-04-19T11:04:03.998Z</time></trkpt><trkpt lat="44.895790387912804" lon="7.244719816452449"><ele>460.0</ele><time>2026-04-19T11:04:04.998Z</time></trkpt><trkpt lat="44.895959677328946" lon="7.244755059687842"><ele>460.0</ele><time>2026-04-19T11:04:05.998Z</time></trkpt><trkpt lat="44.89611534996661" lon="7.244795117285112"><ele>464.0</ele><time>2026-04-19T11:04:06.998Z</time></trkpt><trkpt lat="44.89625265664534" lon="7.24484093577601"><ele>468.0</ele><time>2026-04-19T11:04:07.998Z</time></trkpt><trkpt lat="44.896365705364175" lon="7.244893524798727"><ele>472.0</ele><time>2026-04-19T11:04:08.998Z</time></trkpt><trkpt lat="44.896459587339365" lon="7.244963542818018"><ele>476.0</ele><time>2026-04-19T11:04:09.998Z</time></trkpt><trkpt lat="44.896546064388225" lon="7.245048842943481"><ele>476.0</ele><time>2026-04-19T11:04:10.998Z</time></trkpt><trkpt lat="44.896612992035266" lon="7.245056924635062"><ele>476.0</ele><time>2026-04-19T11:04:11.999Z</time></trkpt><trkpt lat="44.89667554571844" lon="7.2449281219774075"><ele>476.0</ele><time>2026-04-19T11:04:13.999Z</time></trkpt><trkpt lat="44.89665724956404" lon="7.244812648158899"><ele>476.0</ele><time>2026-04-19T11:04:14.999Z</time></trkpt><trkpt lat="44.89665077834567" lon="7.244688029930732"><ele>476.0</ele><time>2026-04-19T11:04:15.999Z</time></trkpt><trkpt lat="44.89668553215089" lon="7.244546838619238"><ele>472.75</ele><time>2026-04-19T11:04:16.999Z</time></trkpt><trkpt lat="44.89675657597531" lon="7.244410096871922"><ele>469.5</ele><time>2026-04-19T11:04:17.999Z</time></trkpt><trkpt lat="44.896798524644204" lon="7.244237785052113"><ele>466.25</ele><time>2026-04-19T11:04:18.999Z</time></trkpt><trkpt lat="44.896864991713436" lon="7.24407178114302"><ele>463.0</ele><time>2026-04-19T11:04:19.999Z</time></trkpt><trkpt lat="44.89693827600816" lon="7.243906863694216"><ele>463.0</ele><time>2026-04-19T11:04:20.999Z</time></trkpt><trkpt lat="44.897021859529396" lon="7.243738701153047"><ele>463.0</ele><time>2026-04-19T11:04:22Z</time></trkpt><trkpt lat="44.89710798011712" lon="7.243566282088306"><ele>463.0</ele><time>2026-04-19T11:04:23Z</time></trkpt><trkpt lat="44.89719528614158" lon="7.243389859787473"><ele>463.0</ele><time>2026-04-19T11:04:24Z</time></trkpt><trkpt lat="44.897280905096345" lon="7.243215935906956"><ele>464.0</ele><time>2026-04-19T11:04:25Z</time></trkpt><trkpt lat="44.89735736064971" lon="7.243063978517424"><ele>464.99999999999994</ele><time>2026-04-19T11:04:26Z</time></trkpt><trkpt lat="44.89741501208589" lon="7.242930544048256"><ele>465.99999999999994</ele><time>2026-04-19T11:04:27Z</time></trkpt><trkpt lat="44.897456979312395" lon="7.242813361762545"><ele>467.0</ele><time>2026-04-19T11:04:28Z</time></trkpt><trkpt lat="44.89748556100492" lon="7.2427130570915885"><ele>468.0</ele><time>2026-04-19T11:04:29Z</time></trkpt><trkpt lat="44.89751313910999" lon="7.242603321366984"><ele>468.0</ele><time>2026-04-19T11:04:30Z</time></trkpt><trkpt lat="44.89753591040847" lon="7.242468671115202"><ele>467.99999999999994</ele><time>2026-04-19T11:04:32Z</time></trkpt><trkpt lat="44.89764972119361" lon="7.242472609042755"><ele>467.99999999999994</ele><time>2026-04-19T11:04:35Z</time></trkpt><trkpt lat="44.89772594217607" lon="7.2424830994494425"><ele>468.0</ele><time>2026-04-19T11:04:36Z</time></trkpt><trkpt lat="44.897831428756554" lon="7.242507433904385"><ele>468.0</ele><time>2026-04-19T11:04:37Z</time></trkpt><trkpt lat="44.89795592434247" lon="7.242526549101468"><ele>469.0</ele><time>2026-04-19T11:04:38Z</time></trkpt><trkpt lat="44.89808502426596" lon="7.242532369824448"><ele>470.0</ele><time>2026-04-19T11:04:39.001Z</time></trkpt><trkpt lat="44.89820525354378" lon="7.242560567865993"><ele>471.0</ele><time>2026-04-19T11:04:40.001Z</time></trkpt><trkpt lat="44.89831872379861" lon="7.242592647120377"><ele>472.0</ele><time>2026-04-19T11:04:41.001Z</time></trkpt><trkpt lat="44.89843033097788" lon="7.242606897853632"><ele>472.0</ele><time>2026-04-19T11:04:42.001Z</time></trkpt><trkpt lat="44.89853694122799" lon="7.242681235552443"><ele>472.0</ele><time>2026-04-19T11:04:43.001Z</time></trkpt><trkpt lat="44.89865254381358" lon="7.242741029741378"><ele>472.0</ele><time>2026-04-19T11:04:44.001Z</time></trkpt><trkpt lat="44.89877940923083" lon="7.242785779829647"><ele>472.0</ele><time>2026-04-19T11:04:45.001Z</time></trkpt><trkpt lat="44.89890012690351" lon="7.242845751652208"><ele>472.0</ele><time>2026-04-19T11:04:46.001Z</time></trkpt><trkpt lat="44.89902122902775" lon="7.242895103234014"><ele>472.0</ele><time>2026-04-19T11:04:47.001Z</time></trkpt><trkpt lat="44.89915251648594" lon="7.24292614704165"><ele>472.0</ele><time>2026-04-19T11:04:48.001Z</time></trkpt><trkpt lat="44.89928817394878" lon="7.242937492967268"><ele>472.0</ele><time>2026-04-19T11:04:49.001Z</time></trkpt><trkpt lat="44.89942350876137" lon="7.24294965980111"><ele>470.75</ele><time>2026-04-19T11:04:50.001Z</time></trkpt><trkpt lat="44.899557926640384" lon="7.242970780002564"><ele>469.5</ele><time>2026-04-19T11:04:51.001Z</time></trkpt><trkpt lat="44.89970099519952" lon="7.2429978033093825"><ele>468.25</ele><time>2026-04-19T11:04:52.001Z</time></trkpt><trkpt lat="44.89983621152709" lon="7.243046857009139"><ele>467.0</ele><time>2026-04-19T11:04:53.001Z</time></trkpt><trkpt lat="44.89997199226407" lon="7.243094919244923"><ele>468.0</ele><time>2026-04-19T11:04:54.001Z</time></trkpt><trkpt lat="44.90010558999585" lon="7.243132917870194"><ele>469.00000000000006</ele><time>2026-04-19T11:04:55.001Z</time></trkpt><trkpt lat="44.900224511709226" lon="7.243169447608"><ele>470.00000000000006</ele><time>2026-04-19T11:04:56.001Z</time></trkpt><trkpt lat="44.90032881031955" lon="7.243197024666565"><ele>471.0</ele><time>2026-04-19T11:04:57.001Z</time></trkpt><trkpt lat="44.90040366438218" lon="7.243214264483235"><ele>472.0</ele><time>2026-04-19T11:04:58.001Z</time></trkpt><trkpt lat="44.90046267791141" lon="7.243268263311914"><ele>472.0</ele><time>2026-04-19T11:04:59.001Z</time></trkpt><trkpt lat="44.90048874371735" lon="7.243390276903376"><ele>472.0</ele><time>2026-04-19T11:05:00.001Z</time></trkpt><trkpt lat="44.900527524358836" lon="7.243537594113623"><ele>472.0</ele><time>2026-04-19T11:05:01.001Z</time></trkpt><trkpt lat="44.900589875928986" lon="7.243710329112951"><ele>472.0</ele><time>2026-04-19T11:05:02.001Z</time></trkpt><trkpt lat="44.9006581728572" lon="7.243877083511715"><ele>472.25</ele><time>2026-04-19T11:05:03.001Z</time></trkpt><trkpt lat="44.90073316534889" lon="7.244042722663905"><ele>472.5</ele><time>2026-04-19T11:05:04.002Z</time></trkpt><trkpt lat="44.90081641376749" lon="7.244207204482615"><ele>472.75</ele><time>2026-04-19T11:05:05.002Z</time></trkpt><trkpt lat="44.900903020629286" lon="7.244350526822002"><ele>473.0</ele><time>2026-04-19T11:05:06.002Z</time></trkpt><trkpt lat="44.90098279832741" lon="7.244465235488371"><ele>473.0</ele><time>2026-04-19T11:05:07.002Z</time></trkpt><trkpt lat="44.90106900421913" lon="7.24455272519267"><ele>473.0</ele><time>2026-04-19T11:05:08.002Z</time></trkpt><trkpt lat="44.90118477745618" lon="7.2446241978085535"><ele>473.0</ele><time>2026-04-19T11:05:09.002Z</time></trkpt><trkpt lat="44.901314604991974" lon="7.2446757444458445"><ele>473.0</ele><time>2026-04-19T11:05:10.002Z</time></trkpt><trkpt lat="44.901444747107234" lon="7.244745521871219"><ele>472.5</ele><time>2026-04-19T11:05:11.002Z</time></trkpt><trkpt lat="44.90156746882148" lon="7.2448128336925"><ele>472.0</ele><time>2026-04-19T11:05:12.002Z</time></trkpt><trkpt lat="44.9017007461257" lon="7.244885597703457"><ele>471.5</ele><time>2026-04-19T11:05:13.002Z</time></trkpt><trkpt lat="44.90183567818384" lon="7.244927123552597"><ele>471.0</ele><time>2026-04-19T11:05:14.002Z</time></trkpt><trkpt lat="44.9019833391164" lon="7.244948292531032"><ele>471.0</ele><time>2026-04-19T11:05:15.002Z</time></trkpt><trkpt lat="44.902119263429064" lon="7.244976175053352"><ele>471.0</ele><time>2026-04-19T11:05:16.002Z</time></trkpt><trkpt lat="44.90225784771574" lon="7.245011366311083"><ele>471.0</ele><time>2026-04-19T11:05:17.002Z</time></trkpt><trkpt lat="44.90239593824291" lon="7.24504863047219"><ele>471.0</ele><time>2026-04-19T11:05:18.002Z</time></trkpt><trkpt lat="44.90253888094308" lon="7.245109207305655"><ele>472.25</ele><time>2026-04-19T11:05:19.002Z</time></trkpt><trkpt lat="44.90265633251273" lon="7.245209983577531"><ele>473.5</ele><time>2026-04-19T11:05:20.002Z</time></trkpt><trkpt lat="44.902783886351735" lon="7.245308986899953"><ele>474.75</ele><time>2026-04-19T11:05:21.002Z</time></trkpt><trkpt lat="44.90289921061641" lon="7.2453784739250775"><ele>476.0</ele><time>2026-04-19T11:05:22.002Z</time></trkpt><trkpt lat="44.903005602564264" lon="7.245428141859515"><ele>476.0</ele><time>2026-04-19T11:05:23.002Z</time></trkpt><trkpt lat="44.90308935458146" lon="7.2454619172842305"><ele>476.0</ele><time>2026-04-19T11:05:24.002Z</time></trkpt><trkpt lat="44.90316781057902" lon="7.245529001542782"><ele>476.0</ele><time>2026-04-19T11:05:25.002Z</time></trkpt><trkpt lat="44.903256029097186" lon="7.245595002315021"><ele>476.0</ele><time>2026-04-19T11:05:26.002Z</time></trkpt><trkpt lat="44.903365394172766" lon="7.245651475024841"><ele>476.0</ele><time>2026-04-19T11:05:27.002Z</time></trkpt><trkpt lat="44.903486650670416" lon="7.245689597696775"><ele>475.75</ele><time>2026-04-19T11:05:28.002Z</time></trkpt><trkpt lat="44.9036178042214" lon="7.245715944246563"><ele>475.5</ele><time>2026-04-19T11:05:29.002Z</time></trkpt><trkpt lat="44.90375387054811" lon="7.245732639256918"><ele>475.25</ele><time>2026-04-19T11:05:30.002Z</time></trkpt><trkpt lat="44.903893040572264" lon="7.24573639152407"><ele>475.0</ele><time>2026-04-19T11:05:31.002Z</time></trkpt><trkpt lat="44.904029613260356" lon="7.245740694104177"><ele>475.0</ele><time>2026-04-19T11:05:32.002Z</time></trkpt><trkpt lat="44.904172258067746" lon="7.245744934338517"><ele>475.0</ele><time>2026-04-19T11:05:33.002Z</time></trkpt><trkpt lat="44.90431395878676" lon="7.245745531568066"><ele>475.0</ele><time>2026-04-19T11:05:34.002Z</time></trkpt><trkpt lat="44.904449142326094" lon="7.245764076739188"><ele>475.0</ele><time>2026-04-19T11:05:35.002Z</time></trkpt><trkpt lat="44.90459142921551" lon="7.245790711802397"><ele>475.25</ele><time>2026-04-19T11:05:36.003Z</time></trkpt><trkpt lat="44.90473365298039" lon="7.245820829639278"><ele>475.5</ele><time>2026-04-19T11:05:37.003Z</time></trkpt><trkpt lat="44.904875735119404" lon="7.245860754425078"><ele>475.75</ele><time>2026-04-19T11:05:38.003Z</time></trkpt><trkpt lat="44.90501965019122" lon="7.24590420258992"><ele>476.0</ele><time>2026-04-19T11:05:39.003Z</time></trkpt><trkpt lat="44.9051660732104" lon="7.245947855915448"><ele>477.3333333333333</ele><time>2026-04-19T11:05:40.003Z</time></trkpt><trkpt lat="44.90531529288775" lon="7.245994514197423"><ele>478.66666666666663</ele><time>2026-04-19T11:05:41.003Z</time></trkpt><trkpt lat="44.905462806630794" lon="7.246039968465455"><ele>480.0</ele><time>2026-04-19T11:05:42.003Z</time></trkpt><trkpt lat="44.90561234171303" lon="7.2460753498520525"><ele>480.0</ele><time>2026-04-19T11:05:43.003Z</time></trkpt><trkpt lat="44.90576467273866" lon="7.24609651192864"><ele>480.0</ele><time>2026-04-19T11:05:44.003Z</time></trkpt><trkpt lat="44.90591311311418" lon="7.246084722405924"><ele>480.0</ele><time>2026-04-19T11:05:45.003Z</time></trkpt><trkpt lat="44.906061859034274" lon="7.246081324102942"><ele>479.0</ele><time>2026-04-19T11:05:46.003Z</time></trkpt><trkpt lat="44.90620712704248" lon="7.246092657688148"><ele>478.0</ele><time>2026-04-19T11:05:47.003Z</time></trkpt><trkpt lat="44.90633927434166" lon="7.246100220099011"><ele>477.0</ele><time>2026-04-19T11:05:48.003Z</time></trkpt><trkpt lat="44.906477270395285" lon="7.246094044375119"><ele>476.0</ele><time>2026-04-19T11:05:49.003Z</time></trkpt><trkpt lat="44.90660913372121" lon="7.24607386712835"><ele>476.0</ele><time>2026-04-19T11:05:50.003Z</time></trkpt><trkpt lat="44.906720551213525" lon="7.246043052129688"><ele>476.0</ele><time>2026-04-19T11:05:51.003Z</time></trkpt><trkpt lat="44.906806423264264" lon="7.24597762647998"><ele>476.0</ele><time>2026-04-19T11:05:52.003Z</time></trkpt><trkpt lat="44.90689389826931" lon="7.245883610721892"><ele>476.0</ele><time>2026-04-19T11:05:53.003Z</time></trkpt><trkpt lat="44.90699701547664" lon="7.245766043832676"><ele>476.0</ele><time>2026-04-19T11:05:54.003Z</time></trkpt><trkpt lat="44.90711300253591" lon="7.245656476548692"><ele>476.0</ele><time>2026-04-19T11:05:55.003Z</time></trkpt><trkpt lat="44.90722973509423" lon="7.245527085839314"><ele>476.0</ele><time>2026-04-19T11:05:56.003Z</time></trkpt><trkpt lat="44.90733584699908" lon="7.245401649342345"><ele>476.0</ele><time>2026-04-19T11:05:57.003Z</time></trkpt><trkpt lat="44.90743847464064" lon="7.24527756589168"><ele>476.0</ele><time>2026-04-19T11:05:58.003Z</time></trkpt><trkpt lat="44.907541773892945" lon="7.245163528219165"><ele>476.0</ele><time>2026-04-19T11:05:59.003Z</time></trkpt><trkpt lat="44.907647601847195" lon="7.2450550243764695"><ele>476.0</ele><time>2026-04-19T11:06:00.003Z</time></trkpt><trkpt lat="44.90776122581026" lon="7.244956208519079"><ele>476.0</ele><time>2026-04-19T11:06:01.003Z</time></trkpt><trkpt lat="44.90788193093437" lon="7.244853552461168"><ele>475.5</ele><time>2026-04-19T11:06:02.003Z</time></trkpt><trkpt lat="44.90799848123887" lon="7.244754099482917"><ele>475.0</ele><time>2026-04-19T11:06:03.003Z</time></trkpt><trkpt lat="44.908101434677874" lon="7.244666033939571"><ele>474.5</ele><time>2026-04-19T11:06:03.997Z</time></trkpt><trkpt lat="44.908217194984864" lon="7.244576860221228"><ele>474.0</ele><time>2026-04-19T11:06:04.997Z</time></trkpt><trkpt lat="44.90833822691827" lon="7.244485688940623"><ele>474.25</ele><time>2026-04-19T11:06:05.998Z</time></trkpt><trkpt lat="44.908459645071424" lon="7.244399674610478"><ele>474.5</ele><time>2026-04-19T11:06:06.998Z</time></trkpt><trkpt lat="44.9085853372151" lon="7.244320230740454"><ele>474.75</ele><time>2026-04-19T11:06:07.998Z</time></trkpt><trkpt lat="44.90871435709651" lon="7.244250054240313"><ele>475.0</ele><time>2026-04-19T11:06:08.998Z</time></trkpt><trkpt lat="44.908842916659246" lon="7.244177739441706"><ele>475.0</ele><time>2026-04-19T11:06:09.998Z</time></trkpt><trkpt lat="44.90896156832165" lon="7.2441141174715495"><ele>475.0</ele><time>2026-04-19T11:06:10.998Z</time></trkpt><trkpt lat="44.90908259868496" lon="7.244062551505032"><ele>475.0</ele><time>2026-04-19T11:06:11.998Z</time></trkpt><trkpt lat="44.90922226073608" lon="7.244006157028426"><ele>475.0</ele><time>2026-04-19T11:06:12.998Z</time></trkpt><trkpt lat="44.909353688831274" lon="7.24395107131295"><ele>476.5</ele><time>2026-04-19T11:06:13.998Z</time></trkpt><trkpt lat="44.909482821177626" lon="7.243893588704909"><ele>478.0</ele><time>2026-04-19T11:06:14.998Z</time></trkpt><trkpt lat="44.909612228776176" lon="7.2438390006938205"><ele>479.5</ele><time>2026-04-19T11:06:15.999Z</time></trkpt><trkpt lat="44.90974720819427" lon="7.243780863825578"><ele>481.0</ele><time>2026-04-19T11:06:16.999Z</time></trkpt><trkpt lat="44.909871898563395" lon="7.243716934284067"><ele>481.0</ele><time>2026-04-19T11:06:17.999Z</time></trkpt><trkpt lat="44.90999469520704" lon="7.243657759965437"><ele>481.0</ele><time>2026-04-19T11:06:18.999Z</time></trkpt><trkpt lat="44.910125539580925" lon="7.243617788270239"><ele>481.0</ele><time>2026-04-19T11:06:19.999Z</time></trkpt><trkpt lat="44.91025723615934" lon="7.243590072437316"><ele>481.0</ele><time>2026-04-19T11:06:20.999Z</time></trkpt><trkpt lat="44.91038531267103" lon="7.243557504155918"><ele>482.4</ele><time>2026-04-19T11:06:21.999Z</time></trkpt><trkpt lat="44.91051406806057" lon="7.243520206666957"><ele>483.8</ele><time>2026-04-19T11:06:22.999Z</time></trkpt><trkpt lat="44.91064005366409" lon="7.243478912835178"><ele>485.19999999999993</ele><time>2026-04-19T11:06:23.999Z</time></trkpt><trkpt lat="44.91074162862096" lon="7.243445053043865"><ele>486.59999999999997</ele><time>2026-04-19T11:06:24.999Z</time></trkpt><trkpt lat="44.91081977407229" lon="7.243430899981504"><ele>488.0</ele><time>2026-04-19T11:06:25.999Z</time></trkpt><trkpt lat="44.910882964678265" lon="7.243444722913946"><ele>489.4</ele><time>2026-04-19T11:06:27Z</time></trkpt><trkpt lat="44.910991283042556" lon="7.243446914269794"><ele>490.79999999999995</ele><time>2026-04-19T11:06:28Z</time></trkpt><trkpt lat="44.911097444281395" lon="7.243441404123799"><ele>492.2</ele><time>2026-04-19T11:06:29Z</time></trkpt><trkpt lat="44.91121622246667" lon="7.243456973798678"><ele>493.6</ele><time>2026-04-19T11:06:30Z</time></trkpt><trkpt lat="44.91132147777815" lon="7.243466011787838"><ele>495.0</ele><time>2026-04-19T11:06:31Z</time></trkpt><trkpt lat="44.91140038405966" lon="7.243408510922133"><ele>495.0</ele><time>2026-04-19T11:06:32Z</time></trkpt><trkpt lat="44.911497238258136" lon="7.243352058105611"><ele>495.0</ele><time>2026-04-19T11:06:33Z</time></trkpt><trkpt lat="44.91156235355698" lon="7.2432936518701005"><ele>495.0</ele><time>2026-04-19T11:06:34Z</time></trkpt><trkpt lat="44.91161389976581" lon="7.2432170567939425"><ele>495.0</ele><time>2026-04-19T11:06:35Z</time></trkpt><trkpt lat="44.91169975879326" lon="7.24316592641083"><ele>495.0</ele><time>2026-04-19T11:06:36Z</time></trkpt><trkpt lat="44.91178476484818" lon="7.243152774300608"><ele>495.0</ele><time>2026-04-19T11:06:37Z</time></trkpt><trkpt lat="44.911860317885136" lon="7.2431590557486185"><ele>500.2</ele><time>2026-04-19T11:06:38Z</time></trkpt><trkpt lat="44.91193824821669" lon="7.243125718902811"><ele>505.4</ele><time>2026-04-19T11:06:40Z</time></trkpt><trkpt lat="44.911942156165885" lon="7.24297161178614"><ele>510.6</ele><time>2026-04-19T11:06:42Z</time></trkpt><trkpt lat="44.91189288410911" lon="7.242815576363183"><ele>515.8</ele><time>2026-04-19T11:06:44.001Z</time></trkpt><trkpt lat="44.91181621260629" lon="7.24272904168703"><ele>521.0</ele><time>2026-04-19T11:06:46.001Z</time></trkpt><trkpt lat="44.91174509135289" lon="7.2427159099147005"><ele>518.8</ele><time>2026-04-19T11:06:47.001Z</time></trkpt><trkpt lat="44.911658643315526" lon="7.242706721935742"><ele>516.6</ele><time>2026-04-19T11:06:48.001Z</time></trkpt><trkpt lat="44.9115786563271" lon="7.242672593878663"><ele>514.4</ele><time>2026-04-19T11:06:49.001Z</time></trkpt><trkpt lat="44.911486689748436" lon="7.2426307638568"><ele>512.2</ele><time>2026-04-19T11:06:50.001Z</time></trkpt><trkpt lat="44.91138547923585" lon="7.242580383542508"><ele>510.0</ele><time>2026-04-19T11:06:51.001Z</time></trkpt><trkpt lat="44.91127348390758" lon="7.242528119027814"><ele>510.0</ele><time>2026-04-19T11:06:52.001Z</time></trkpt><trkpt lat="44.911161107823915" lon="7.242484300495972"><ele>510.0</ele><time>2026-04-19T11:06:53.001Z</time></trkpt><trkpt lat="44.91103560422873" lon="7.24246507448727"><ele>510.0</ele><time>2026-04-19T11:06:54.001Z</time></trkpt><trkpt lat="44.9109005992963" lon="7.242482567997936"><ele>510.0</ele><time>2026-04-19T11:06:55.001Z</time></trkpt><trkpt lat="44.910769708700265" lon="7.242529401309653"><ele>508.25</ele><time>2026-04-19T11:06:56.001Z</time></trkpt><trkpt lat="44.91063752361912" lon="7.2425959154659365"><ele>506.5</ele><time>2026-04-19T11:06:57.001Z</time></trkpt><trkpt lat="44.910506488902605" lon="7.242646870993131"><ele>504.75</ele><time>2026-04-19T11:06:58.001Z</time></trkpt><trkpt lat="44.9103842494956" lon="7.242712580843554"><ele>503.0</ele><time>2026-04-19T11:06:59.001Z</time></trkpt><trkpt lat="44.910275405176506" lon="7.242748352279654"><ele>503.0</ele><time>2026-04-19T11:07:00.001Z</time></trkpt><trkpt lat="44.910159566599056" lon="7.242760032637204"><ele>503.0</ele><time>2026-04-19T11:07:01.001Z</time></trkpt><trkpt lat="44.91004139997303" lon="7.242739481066176"><ele>503.0</ele><time>2026-04-19T11:07:02.001Z</time></trkpt><trkpt lat="44.90991274858792" lon="7.242699677148238"><ele>503.0</ele><time>2026-04-19T11:07:03.001Z</time></trkpt><trkpt lat="44.90978506490341" lon="7.242654938805039"><ele>502.75</ele><time>2026-04-19T11:07:04.001Z</time></trkpt><trkpt lat="44.90965588946821" lon="7.24257984463038"><ele>502.5</ele><time>2026-04-19T11:07:05.001Z</time></trkpt><trkpt lat="44.909529243906164" lon="7.2424905038587895"><ele>502.25</ele><time>2026-04-19T11:07:06.001Z</time></trkpt><trkpt lat="44.90941649677593" lon="7.242362826987466"><ele>502.0</ele><time>2026-04-19T11:07:07.001Z</time></trkpt><trkpt lat="44.90930789972865" lon="7.242238211439965"><ele>504.75</ele><time>2026-04-19T11:07:08.001Z</time></trkpt><trkpt lat="44.909193087538966" lon="7.242111163418801"><ele>507.5</ele><time>2026-04-19T11:07:09.001Z</time></trkpt><trkpt lat="44.909060624006976" lon="7.2420215587563606"><ele>510.25</ele><time>2026-04-19T11:07:10.002Z</time></trkpt><trkpt lat="44.90895230784166" lon="7.241909643922701"><ele>513.0</ele><time>2026-04-19T11:07:11.002Z</time></trkpt><trkpt lat="44.908846143132216" lon="7.241822006983034"><ele>513.0</ele><time>2026-04-19T11:07:12.002Z</time></trkpt><trkpt lat="44.90873550640549" lon="7.241728522566054"><ele>513.0</ele><time>2026-04-19T11:07:13.002Z</time></trkpt><trkpt lat="44.90861804782292" lon="7.241626700199773"><ele>513.0</ele><time>2026-04-19T11:07:14.002Z</time></trkpt><trkpt lat="44.90850449979549" lon="7.241521447249216"><ele>513.0</ele><time>2026-04-19T11:07:15.002Z</time></trkpt><trkpt lat="44.908407642943814" lon="7.241441643836745"><ele>512.6</ele><time>2026-04-19T11:07:16.002Z</time></trkpt><trkpt lat="44.90834432085427" lon="7.241361352257351"><ele>512.1999999999999</ele><time>2026-04-19T11:07:17.002Z</time></trkpt><trkpt lat="44.908298750980244" lon="7.241275937621933"><ele>511.8</ele><time>2026-04-19T11:07:18.002Z</time></trkpt><trkpt lat="44.90828729672972" lon="7.2411522243554955"><ele>511.4</ele><time>2026-04-19T11:07:19.002Z</time></trkpt><trkpt lat="44.908250295577695" lon="7.241009327173036"><ele>511.0</ele><time>2026-04-19T11:07:20.002Z</time></trkpt><trkpt lat="44.90821114120656" lon="7.2408681031639235"><ele>511.0</ele><time>2026-04-19T11:07:21.002Z</time></trkpt><trkpt lat="44.9081636406948" lon="7.240767805382642"><ele>511.0</ele><time>2026-04-19T11:07:22.002Z</time></trkpt><trkpt lat="44.90816941046166" lon="7.240643773397372"><ele>511.0</ele><time>2026-04-19T11:07:24.002Z</time></trkpt><trkpt lat="44.90828667057559" lon="7.2406874384748985"><ele>511.0</ele><time>2026-04-19T11:07:26.002Z</time></trkpt><trkpt lat="44.90837125424892" lon="7.240658176206632"><ele>511.0</ele><time>2026-04-19T11:07:27.002Z</time></trkpt><trkpt lat="44.90846330516066" lon="7.240625786901769"><ele>514.0</ele><time>2026-04-19T11:07:28.002Z</time></trkpt><trkpt lat="44.90855731908827" lon="7.240573019558186"><ele>517.0</ele><time>2026-04-19T11:07:29.002Z</time></trkpt><trkpt lat="44.90863965369019" lon="7.240509820781849"><ele>520.0</ele><time>2026-04-19T11:07:30.002Z</time></trkpt><trkpt lat="44.90871510042965" lon="7.240440011101006"><ele>523.0</ele><time>2026-04-19T11:07:31.002Z</time></trkpt><trkpt lat="44.90878852287473" lon="7.2403884239618135"><ele>526.0</ele><time>2026-04-19T11:07:32.002Z</time></trkpt><trkpt lat="44.90885810888857" lon="7.2403715397729185"><ele>529.0</ele><time>2026-04-19T11:07:33.002Z</time></trkpt><trkpt lat="44.90895215464555" lon="7.240380384796473"><ele>529.0</ele><time>2026-04-19T11:07:34.002Z</time></trkpt><trkpt lat="44.909053182223445" lon="7.240333282652222"><ele>529.0</ele><time>2026-04-19T11:07:35.002Z</time></trkpt><trkpt lat="44.909141877115175" lon="7.240324623879869"><ele>529.0</ele><time>2026-04-19T11:07:36.002Z</time></trkpt><trkpt lat="44.90922736253553" lon="7.240310216722436"><ele>529.0</ele><time>2026-04-19T11:07:37.002Z</time></trkpt><trkpt lat="44.90930190087518" lon="7.240380006991494"><ele>529.0</ele><time>2026-04-19T11:07:38.002Z</time></trkpt><trkpt lat="44.90936163358312" lon="7.240456919002516"><ele>528.8333333333334</ele><time>2026-04-19T11:07:39.002Z</time></trkpt><trkpt lat="44.90942402826597" lon="7.24054594814983"><ele>528.6666666666667</ele><time>2026-04-19T11:07:40.002Z</time></trkpt><trkpt lat="44.90948891009146" lon="7.240615936286597"><ele>528.5</ele><time>2026-04-19T11:07:41.002Z</time></trkpt><trkpt lat="44.90954850033974" lon="7.240654476792545"><ele>528.3333333333334</ele><time>2026-04-19T11:07:42.003Z</time></trkpt><trkpt lat="44.90964989410727" lon="7.240557839669891"><ele>528.1666666666666</ele><time>2026-04-19T11:07:44.003Z</time></trkpt><trkpt lat="44.90969486273721" lon="7.240448312654807"><ele>528.0</ele><time>2026-04-19T11:07:45.003Z</time></trkpt><trkpt lat="44.909762334585025" lon="7.240392020285165"><ele>531.0</ele><time>2026-04-19T11:07:46.003Z</time></trkpt><trkpt lat="44.909836974136915" lon="7.240339768741307"><ele>534.0</ele><time>2026-04-19T11:07:47.003Z</time></trkpt><trkpt lat="44.90991402410604" lon="7.24031893208127"><ele>537.0</ele><time>2026-04-19T11:07:48.003Z</time></trkpt><trkpt lat="44.909998524493716" lon="7.2403228729891"><ele>540.0</ele><time>2026-04-19T11:07:49.003Z</time></trkpt><trkpt lat="44.91010054338041" lon="7.240347247286011"><ele>543.0</ele><time>2026-04-19T11:07:50.003Z</time></trkpt><trkpt lat="44.910205476864" lon="7.240375348092638"><ele>545.25</ele><time>2026-04-19T11:07:51.003Z</time></trkpt><trkpt lat="44.91032019217778" lon="7.240407082063965"><ele>547.5</ele><time>2026-04-19T11:07:52.003Z</time></trkpt><trkpt lat="44.91043387073989" lon="7.240440521148081"><ele>549.75</ele><time>2026-04-19T11:07:53.003Z</time></trkpt><trkpt lat="44.91055397648076" lon="7.240467502659096"><ele>552.0</ele><time>2026-04-19T11:07:54.003Z</time></trkpt><trkpt lat="44.910655558633934" lon="7.240545124557886"><ele>552.0</ele><time>2026-04-19T11:07:55.003Z</time></trkpt><trkpt lat="44.9107481196232" lon="7.240604270885193"><ele>552.0</ele><time>2026-04-19T11:07:56.003Z</time></trkpt><trkpt lat="44.910827014853616" lon="7.240647451963399"><ele>552.0</ele><time>2026-04-19T11:07:57.003Z</time></trkpt><trkpt lat="44.91090159868208" lon="7.240654905830051"><ele>552.0</ele><time>2026-04-19T11:07:58.003Z</time></trkpt><trkpt lat="44.91098110211534" lon="7.24056026517732"><ele>552.0</ele><time>2026-04-19T11:07:59.003Z</time></trkpt><trkpt lat="44.91107403178546" lon="7.240515063921593"><ele>554.4</ele><time>2026-04-19T11:08:00.003Z</time></trkpt><trkpt lat="44.911158953601664" lon="7.2404892007212"><ele>556.8000000000001</ele><time>2026-04-19T11:08:01.003Z</time></trkpt><trkpt lat="44.91123723271733" lon="7.240477108123556"><ele>559.2</ele><time>2026-04-19T11:08:02.003Z</time></trkpt><trkpt lat="44.91132093345697" lon="7.240484479339308"><ele>561.6</ele><time>2026-04-19T11:08:03.003Z</time></trkpt><trkpt lat="44.911425346069215" lon="7.240480398641752"><ele>564.0</ele><time>2026-04-19T11:08:04.003Z</time></trkpt><trkpt lat="44.91152514931776" lon="7.240528833059605"><ele>564.0</ele><time>2026-04-19T11:08:05.003Z</time></trkpt><trkpt lat="44.91162697060424" lon="7.2405698593720915"><ele>564.0</ele><time>2026-04-19T11:08:06.003Z</time></trkpt><trkpt lat="44.91173179988389" lon="7.240620534067682"><ele>564.0</ele><time>2026-04-19T11:08:07.003Z</time></trkpt><trkpt lat="44.91182489464507" lon="7.240692684887163"><ele>564.0</ele><time>2026-04-19T11:08:08.003Z</time></trkpt><trkpt lat="44.91191323418243" lon="7.2407642510384935"><ele>564.0</ele><time>2026-04-19T11:08:09.003Z</time></trkpt><trkpt lat="44.91197833166989" lon="7.240810162180889"><ele>563.5</ele><time>2026-04-19T11:08:09.997Z</time></trkpt><trkpt lat="44.91207246707624" lon="7.240788420653049"><ele>563.0</ele><time>2026-04-19T11:08:11.998Z</time></trkpt><trkpt lat="44.91210084792314" lon="7.240695944593978"><ele>562.5</ele><time>2026-04-19T11:08:12.998Z</time></trkpt><trkpt lat="44.91204067855078" lon="7.2405716751387175"><ele>562.0</ele><time>2026-04-19T11:08:13.998Z</time></trkpt><trkpt lat="44.911987671535684" lon="7.240488493512543"><ele>561.5</ele><time>2026-04-19T11:08:14.998Z</time></trkpt><trkpt lat="44.911956088284924" lon="7.240388143521592"><ele>561.0</ele><time>2026-04-19T11:08:15.998Z</time></trkpt><trkpt lat="44.91193394524049" lon="7.240270814402033"><ele>564.4</ele><time>2026-04-19T11:08:16.998Z</time></trkpt><trkpt lat="44.91191081207411" lon="7.240144331460068"><ele>567.8</ele><time>2026-04-19T11:08:17.998Z</time></trkpt><trkpt lat="44.91188979956618" lon="7.2400159670653235"><ele>571.1999999999999</ele><time>2026-04-19T11:08:18.998Z</time></trkpt><trkpt lat="44.91186919254457" lon="7.239894063348571"><ele>574.6</ele><time>2026-04-19T11:08:19.998Z</time></trkpt><trkpt lat="44.91186251720817" lon="7.239773843684687"><ele>578.0</ele><time>2026-04-19T11:08:21.999Z</time></trkpt><trkpt lat="44.91197269587472" lon="7.239779833346746"><ele>578.0</ele><time>2026-04-19T11:08:23.999Z</time></trkpt><trkpt lat="44.91201757960581" lon="7.239858093338115"><ele>578.0</ele><time>2026-04-19T11:08:24.999Z</time></trkpt><trkpt lat="44.91210791547469" lon="7.23977285113946"><ele>578.0</ele><time>2026-04-19T11:08:26.999Z</time></trkpt><trkpt lat="44.912100036010344" lon="7.23965295619503"><ele>578.0</ele><time>2026-04-19T11:08:27.999Z</time></trkpt><trkpt lat="44.91204751700269" lon="7.2395601884019305"><ele>578.0</ele><time>2026-04-19T11:08:28.999Z</time></trkpt><trkpt lat="44.91193509420481" lon="7.239560352963296"><ele>579.0</ele><time>2026-04-19T11:08:29.999Z</time></trkpt><trkpt lat="44.91183052961749" lon="7.239546205717877"><ele>580.0</ele><time>2026-04-19T11:08:30.999Z</time></trkpt><trkpt lat="44.91172506599274" lon="7.239546457730451"><ele>581.0</ele><time>2026-04-19T11:08:31.999Z</time></trkpt><trkpt lat="44.911628952150984" lon="7.239591556396149"><ele>582.0</ele><time>2026-04-19T11:08:33Z</time></trkpt><trkpt lat="44.91155072126238" lon="7.239629309820626"><ele>583.0</ele><time>2026-04-19T11:08:34Z</time></trkpt><trkpt lat="44.91147433152894" lon="7.239588103961341"><ele>583.0</ele><time>2026-04-19T11:08:36Z</time></trkpt><trkpt lat="44.911531718634116" lon="7.239435557020092"><ele>583.0</ele><time>2026-04-19T11:08:38Z</time></trkpt><trkpt lat="44.91164403561059" lon="7.2393729668004525"><ele>583.0</ele><time>2026-04-19T11:08:40Z</time></trkpt><trkpt lat="44.911720384878855" lon="7.2393340146264755"><ele>583.0</ele><time>2026-04-19T11:08:41Z</time></trkpt><trkpt lat="44.91180463250236" lon="7.239308570333453"><ele>583.0</ele><time>2026-04-19T11:08:42Z</time></trkpt><trkpt lat="44.9118853183285" lon="7.23929692023957"><ele>585.0</ele><time>2026-04-19T11:08:43Z</time></trkpt><trkpt lat="44.91197300732261" lon="7.239198694501954"><ele>587.0</ele><time>2026-04-19T11:08:45Z</time></trkpt><trkpt lat="44.91200850052231" lon="7.239110209753237"><ele>589.0</ele><time>2026-04-19T11:08:46Z</time></trkpt><trkpt lat="44.91206587683466" lon="7.239020543311044"><ele>591.0</ele><time>2026-04-19T11:08:47Z</time></trkpt><trkpt lat="44.91213139432609" lon="7.23895248665238"><ele>593.0</ele><time>2026-04-19T11:08:48Z</time></trkpt><trkpt lat="44.91220821625372" lon="7.23892440540178"><ele>595.0</ele><time>2026-04-19T11:08:49Z</time></trkpt><trkpt lat="44.91229225280151" lon="7.238901483071521"><ele>595.0</ele><time>2026-04-19T11:08:50.001Z</time></trkpt><trkpt lat="44.91237960974574" lon="7.238880293567516"><ele>595.0</ele><time>2026-04-19T11:08:51.001Z</time></trkpt><trkpt lat="44.91246495653367" lon="7.238926177472468"><ele>595.0</ele><time>2026-04-19T11:08:52.001Z</time></trkpt><trkpt lat="44.91254023481353" lon="7.238983455037819"><ele>595.0</ele><time>2026-04-19T11:08:53.001Z</time></trkpt><trkpt lat="44.91261809644587" lon="7.2390473352211036"><ele>595.0</ele><time>2026-04-19T11:08:55.001Z</time></trkpt><trkpt lat="44.9126895500762" lon="7.2389686090615815"><ele>595.0</ele><time>2026-04-19T11:08:57.001Z</time></trkpt><trkpt lat="44.912692545609616" lon="7.2388293375348916"><ele>602.75</ele><time>2026-04-19T11:08:59.001Z</time></trkpt><trkpt lat="44.912678299126966" lon="7.238712359717205"><ele>610.5</ele><time>2026-04-19T11:09:01.001Z</time></trkpt><trkpt lat="44.91242693308461" lon="7.238630974213181"><ele>618.25</ele><time>2026-04-19T11:09:03.001Z</time></trkpt><trkpt lat="44.912374863531234" lon="7.238578392941744"><ele>626.0</ele><time>2026-04-19T11:09:04.001Z</time></trkpt><trkpt lat="44.91232322280567" lon="7.238511904102185"><ele>626.0</ele><time>2026-04-19T11:09:05.001Z</time></trkpt><trkpt lat="44.91226942376691" lon="7.238337167772046"><ele>626.0</ele><time>2026-04-19T11:09:07.001Z</time></trkpt><trkpt lat="44.912241405061906" lon="7.238241663353693"><ele>626.0</ele><time>2026-04-19T11:09:08.001Z</time></trkpt><trkpt lat="44.912201311781345" lon="7.238161251274682"><ele>626.0</ele><time>2026-04-19T11:09:09.001Z</time></trkpt><trkpt lat="44.91214498229237" lon="7.238110652435092"><ele>626.0</ele><time>2026-04-19T11:09:18.002Z</time></trkpt><trkpt lat="44.91206072342867" lon="7.238129760302058"><ele>626.0</ele><time>2026-04-19T11:09:22.002Z</time></trkpt><trkpt lat="44.911987106474356" lon="7.238141440767616"><ele>626.0</ele><time>2026-04-19T11:09:43.002Z</time></trkpt><trkpt lat="44.91189786829743" lon="7.23811514936745"><ele>626.0</ele><time>2026-04-19T11:09:45.002Z</time></trkpt><trkpt lat="44.91181293469441" lon="7.238054212941053"><ele>626.0</ele><time>2026-04-19T11:09:47.002Z</time></trkpt><trkpt lat="44.91176454759146" lon="7.237982787774265"><ele>626.0</ele><time>2026-04-19T11:09:49.003Z</time></trkpt><trkpt lat="44.911705759675705" lon="7.238015336949231"><ele>626.0</ele><time>2026-04-19T11:09:52.003Z</time></trkpt><trkpt lat="44.91179639388502" lon="7.238035999223021"><ele>626.0</ele><time>2026-04-19T11:09:56.003Z</time></trkpt><trkpt lat="44.91188500225068" lon="7.238146349308944"><ele>626.0</ele><time>2026-04-19T11:09:58.003Z</time></trkpt><trkpt lat="44.91199676039503" lon="7.238161834218411"><ele>626.0</ele><time>2026-04-19T11:10:00.003Z</time></trkpt><trkpt lat="44.912096268667064" lon="7.2381213535352344"><ele>626.0</ele><time>2026-04-19T11:10:02.003Z</time></trkpt><trkpt lat="44.912158221031845" lon="7.238104540191826"><ele>626.0</ele><time>2026-04-19T11:10:05.003Z</time></trkpt><trkpt lat="44.9122194340019" lon="7.238080544391263"><ele>626.0</ele><time>2026-04-19T11:10:39Z</time></trkpt><trkpt lat="44.91231649079324" lon="7.238180421704397"><ele>626.0</ele><time>2026-04-19T11:10:41Z</time></trkpt><trkpt lat="44.9124191293963" lon="7.23826741944345"><ele>626.0</ele><time>2026-04-19T11:10:43Z</time></trkpt><trkpt lat="44.91252326102952" lon="7.238315592583046"><ele>626.0</ele><time>2026-04-19T11:10:45Z</time></trkpt><trkpt lat="44.91262374696977" lon="7.238329055996927"><ele>626.0</ele><time>2026-04-19T11:10:47Z</time></trkpt><trkpt lat="44.91273809514361" lon="7.238278167002693"><ele>628.4</ele><time>2026-04-19T11:11:12.001Z</time></trkpt><trkpt lat="44.912849451864275" lon="7.23827019758916"><ele>630.8</ele><time>2026-04-19T11:11:14.001Z</time></trkpt><trkpt lat="44.912957651565755" lon="7.238258608129036"><ele>633.1999999999999</ele><time>2026-04-19T11:11:16.001Z</time></trkpt><trkpt lat="44.913050940404595" lon="7.238246510386491"><ele>635.6</ele><time>2026-04-19T11:11:18.001Z</time></trkpt><trkpt lat="44.9131316651295" lon="7.238240223843788"><ele>638.0</ele><time>2026-04-19T11:11:20.001Z</time></trkpt><trkpt lat="44.91297434926285" lon="7.238256172238156"><ele>638.0</ele><time>2026-04-19T11:11:30.002Z</time></trkpt><trkpt lat="44.91285428377745" lon="7.23828041118974"><ele>638.0</ele><time>2026-04-19T11:11:31.002Z</time></trkpt><trkpt lat="44.912766278864936" lon="7.238290649186677"><ele>638.0</ele><time>2026-04-19T11:11:32.002Z</time></trkpt><trkpt lat="44.91268049513159" lon="7.238305469075435"><ele>638.0</ele><time>2026-04-19T11:11:33.002Z</time></trkpt><trkpt lat="44.91259864585904" lon="7.238310874274905"><ele>638.0</ele><time>2026-04-19T11:11:34.002Z</time></trkpt><trkpt lat="44.912519302452495" lon="7.23830245566816"><ele>636.0</ele><time>2026-04-19T11:11:35.002Z</time></trkpt><trkpt lat="44.91244808213277" lon="7.238264872804875"><ele>634.0</ele><time>2026-04-19T11:11:36.002Z</time></trkpt><trkpt lat="44.91239709840281" lon="7.238201217892357"><ele>632.0</ele><time>2026-04-19T11:11:37.002Z</time></trkpt><trkpt lat="44.91229669154628" lon="7.238146711605211"><ele>630.0</ele><time>2026-04-19T11:11:39.002Z</time></trkpt><trkpt lat="44.91223478906344" lon="7.238109522038466"><ele>628.0</ele><time>2026-04-19T11:11:41.002Z</time></trkpt><trkpt lat="44.91212478521381" lon="7.238083241213001"><ele>626.0</ele><time>2026-04-19T11:11:55.003Z</time></trkpt><trkpt lat="44.91206344907143" lon="7.23811048226267"><ele>626.0</ele><time>2026-04-19T11:11:56.003Z</time></trkpt><trkpt lat="44.911974923868534" lon="7.23813060569095"><ele>626.0</ele><time>2026-04-19T11:11:58.003Z</time></trkpt><trkpt lat="44.91189790632526" lon="7.238137030393622"><ele>626.0</ele><time>2026-04-19T11:12:00.003Z</time></trkpt><trkpt lat="44.9118277669646" lon="7.238087739942526"><ele>626.0</ele><time>2026-04-19T11:12:03.003Z</time></trkpt><trkpt lat="44.91176053287164" lon="7.2380246638469155"><ele>626.0</ele><time>2026-04-19T11:12:06.003Z</time></trkpt><trkpt lat="44.91169235178924" lon="7.238037761123024"><ele>626.0</ele><time>2026-04-19T11:12:08.003Z</time></trkpt><trkpt lat="44.91161393466799" lon="7.238057672745144"><ele>625.6666666666666</ele><time>2026-04-19T11:12:11.003Z</time></trkpt><trkpt lat="44.91155328306632" lon="7.238094054349809"><ele>625.3333333333333</ele><time>2026-04-19T11:12:14.003Z</time></trkpt><trkpt lat="44.91146477553523" lon="7.238106716218752"><ele>625.0</ele><time>2026-04-19T11:12:33.999Z</time></trkpt><trkpt lat="44.911536719950185" lon="7.238103322217376"><ele>624.6666666666666</ele><time>2026-04-19T11:12:39.999Z</time></trkpt><trkpt lat="44.91161647001871" lon="7.238074607471144"><ele>624.3333333333334</ele><time>2026-04-19T11:12:52Z</time></trkpt><trkpt lat="44.91171004589816" lon="7.2380260845400795"><ele>624.0</ele><time>2026-04-19T11:12:54Z</time></trkpt><trkpt lat="44.911817355460094" lon="7.238052020389799"><ele>624.2857142857143</ele><time>2026-04-19T11:12:56Z</time></trkpt><trkpt lat="44.91186889175137" lon="7.238125788866921"><ele>624.5714285714286</ele><time>2026-04-19T11:12:57Z</time></trkpt><trkpt lat="44.911934543594924" lon="7.238149901736343"><ele>624.8571428571429</ele><time>2026-04-19T11:12:58Z</time></trkpt><trkpt lat="44.911999667169816" lon="7.238142453316406"><ele>625.1428571428571</ele><time>2026-04-19T11:12:59Z</time></trkpt><trkpt lat="44.91206507851925" lon="7.238116678745204"><ele>625.4285714285714</ele><time>2026-04-19T11:13:00Z</time></trkpt><trkpt lat="44.91213137540955" lon="7.238096526115601"><ele>625.7142857142857</ele><time>2026-04-19T11:13:01Z</time></trkpt><trkpt lat="44.91219145642137" lon="7.238066593388697"><ele>626.0</ele><time>2026-04-19T11:13:02Z</time></trkpt><trkpt lat="44.912321266161705" lon="7.2380991387657465"><ele>626.0</ele><time>2026-04-19T11:13:04.001Z</time></trkpt><trkpt lat="44.91239142246069" lon="7.238159442378101"><ele>626.0</ele><time>2026-04-19T11:13:05.001Z</time></trkpt><trkpt lat="44.91244599401567" lon="7.2382405503097695"><ele>626.0</ele><time>2026-04-19T11:13:06.001Z</time></trkpt><trkpt lat="44.91250119108696" lon="7.238289011472198"><ele>626.0</ele><time>2026-04-19T11:13:07.001Z</time></trkpt><trkpt lat="44.91256410461854" lon="7.238298782877333"><ele>626.0</ele><time>2026-04-19T11:13:08.001Z</time></trkpt><trkpt lat="44.91264712652561" lon="7.238367201640097"><ele>626.0</ele><time>2026-04-19T11:13:10.001Z</time></trkpt><trkpt lat="44.91272966056515" lon="7.238405435672919"><ele>628.0</ele><time>2026-04-19T11:13:11.001Z</time></trkpt><trkpt lat="44.91285723696102" lon="7.238282909098422"><ele>630.0</ele><time>2026-04-19T11:13:12.001Z</time></trkpt><trkpt lat="44.91293349760622" lon="7.238270415065984"><ele>632.0</ele><time>2026-04-19T11:13:13.001Z</time></trkpt><trkpt lat="44.913004489129264" lon="7.238263342749476"><ele>634.0</ele><time>2026-04-19T11:13:14.001Z</time></trkpt><trkpt lat="44.913069689081965" lon="7.238250799779969"><ele>636.0</ele><time>2026-04-19T11:13:15.001Z</time></trkpt><trkpt lat="44.9131373972766" lon="7.23826656622172"><ele>638.0</ele><time>2026-04-19T11:13:46.002Z</time></trkpt><trkpt lat="44.9130348750165" lon="7.23825414492895"><ele>638.0</ele><time>2026-04-19T11:14:11.003Z</time></trkpt><trkpt lat="44.9129236725686" lon="7.238274672179711"><ele>638.0</ele><time>2026-04-19T11:14:13.003Z</time></trkpt><trkpt lat="44.91280385190273" lon="7.238045329665696"><ele>638.0</ele><time>2026-04-19T11:14:14.003Z</time></trkpt><trkpt lat="44.91272276285693" lon="7.238028513114623"><ele>638.0</ele><time>2026-04-19T11:14:15.003Z</time></trkpt><trkpt lat="44.91265348612867" lon="7.238007943442376"><ele>642.3333333333333</ele><time>2026-04-19T11:14:16.003Z</time></trkpt><trkpt lat="44.912594785019756" lon="7.237943642361361"><ele>646.6666666666666</ele><time>2026-04-19T11:14:18.004Z</time></trkpt><trkpt lat="44.91251347201472" lon="7.237843059387586"><ele>651.0</ele><time>2026-04-19T11:14:20.003Z</time></trkpt><trkpt lat="44.91220506516415" lon="7.238092412490783"><ele>651.0</ele><time>2026-04-19T11:14:22.003Z</time></trkpt><trkpt lat="44.912141259249" lon="7.238083418201259"><ele>651.0</ele><time>2026-04-19T11:14:25.003Z</time></trkpt><trkpt lat="44.912233873668356" lon="7.238243178531457"><ele>651.0</ele><time>2026-04-19T11:14:29.996Z</time></trkpt><trkpt lat="44.91228542376808" lon="7.238368477116008"><ele>651.0</ele><time>2026-04-19T11:14:31.996Z</time></trkpt><trkpt lat="44.912318808030975" lon="7.238446048267323"><ele>651.0</ele><time>2026-04-19T11:14:32.996Z</time></trkpt><trkpt lat="44.912371872077436" lon="7.238575988506996"><ele>648.8333333333334</ele><time>2026-04-19T11:14:34.997Z</time></trkpt><trkpt lat="44.91247725695733" lon="7.23865633634522"><ele>646.6666666666666</ele><time>2026-04-19T11:14:36.997Z</time></trkpt><trkpt lat="44.91253550858837" lon="7.238697354035315"><ele>644.5</ele><time>2026-04-19T11:14:37.997Z</time></trkpt><trkpt lat="44.91259406378392" lon="7.2387450447413135"><ele>642.3333333333333</ele><time>2026-04-19T11:14:38.997Z</time></trkpt><trkpt lat="44.912664101189485" lon="7.238811690859874"><ele>640.1666666666666</ele><time>2026-04-19T11:14:40.998Z</time></trkpt><trkpt lat="44.91267884136142" lon="7.238961790879779"><ele>638.0</ele><time>2026-04-19T11:14:42.998Z</time></trkpt><trkpt lat="44.91261990019642" lon="7.23902533745105"><ele>635.6</ele><time>2026-04-19T11:14:44.998Z</time></trkpt><trkpt lat="44.91251619213403" lon="7.238976672020904"><ele>633.1999999999999</ele><time>2026-04-19T11:14:46.998Z</time></trkpt><trkpt lat="44.912438621153704" lon="7.238913893138446"><ele>630.8</ele><time>2026-04-19T11:14:47.999Z</time></trkpt><trkpt lat="44.9123363144029" lon="7.238870461399682"><ele>628.4</ele><time>2026-04-19T11:14:48.999Z</time></trkpt><trkpt lat="44.91223477533919" lon="7.238838462332672"><ele>626.0</ele><time>2026-04-19T11:14:49.999Z</time></trkpt><trkpt lat="44.912131976971644" lon="7.238853612144115"><ele>626.0</ele><time>2026-04-19T11:14:50.999Z</time></trkpt><trkpt lat="44.91205140482025" lon="7.238922548104857"><ele>626.0</ele><time>2026-04-19T11:14:51.999Z</time></trkpt><trkpt lat="44.911993504260636" lon="7.23902500877459"><ele>626.0</ele><time>2026-04-19T11:14:52.999Z</time></trkpt><trkpt lat="44.91195801407806" lon="7.239132320084649"><ele>626.0</ele><time>2026-04-19T11:14:53.999Z</time></trkpt><trkpt lat="44.91191993804657" lon="7.23921248553795"><ele>626.0</ele><time>2026-04-19T11:14:54.999Z</time></trkpt><trkpt lat="44.9118739576525" lon="7.239283334105183"><ele>626.0</ele><time>2026-04-19T11:14:55.999Z</time></trkpt><trkpt lat="44.91180768974982" lon="7.2393090985324005"><ele>620.8333333333333</ele><time>2026-04-19T11:14:56.999Z</time></trkpt><trkpt lat="44.91174081830856" lon="7.239329868359548"><ele>615.6666666666666</ele><time>2026-04-19T11:14:58Z</time></trkpt><trkpt lat="44.911673460201825" lon="7.239346226572688"><ele>610.5</ele><time>2026-04-19T11:14:59Z</time></trkpt><trkpt lat="44.9116049296217" lon="7.239369254837063"><ele>605.3333333333334</ele><time>2026-04-19T11:15:00Z</time></trkpt><trkpt lat="44.911533940408205" lon="7.239399063732377"><ele>600.1666666666667</ele><time>2026-04-19T11:15:01Z</time></trkpt><trkpt lat="44.91146197072645" lon="7.239515078306366"><ele>595.0</ele><time>2026-04-19T11:15:03Z</time></trkpt><trkpt lat="44.91150911386979" lon="7.239659884369259"><ele>595.0</ele><time>2026-04-19T11:15:05Z</time></trkpt><trkpt lat="44.91162802764895" lon="7.239621447576731"><ele>595.0</ele><time>2026-04-19T11:15:07Z</time></trkpt><trkpt lat="44.91170503863562" lon="7.239600683974915"><ele>595.0</ele><time>2026-04-19T11:15:08Z</time></trkpt><trkpt lat="44.911792256697176" lon="7.239588254436139"><ele>595.0</ele><time>2026-04-19T11:15:09Z</time></trkpt><trkpt lat="44.91187323910706" lon="7.239573942217003"><ele>595.0</ele><time>2026-04-19T11:15:10Z</time></trkpt><trkpt lat="44.91195427855204" lon="7.239585497837293"><ele>595.0</ele><time>2026-04-19T11:15:11Z</time></trkpt><trkpt lat="44.912040497018545" lon="7.239647998213771"><ele>595.0</ele><time>2026-04-19T11:15:13Z</time></trkpt><trkpt lat="44.912060652962005" lon="7.239781602818981"><ele>595.0</ele><time>2026-04-19T11:15:15.001Z</time></trkpt><trkpt lat="44.911980301855955" lon="7.239838845757617"><ele>595.0</ele><time>2026-04-19T11:15:17.001Z</time></trkpt><trkpt lat="44.911921828787015" lon="7.239789186319107"><ele>595.0</ele><time>2026-04-19T11:15:18.001Z</time></trkpt><trkpt lat="44.91181859049069" lon="7.239832630187215"><ele>591.6</ele><time>2026-04-19T11:15:20.001Z</time></trkpt><trkpt lat="44.91184343468569" lon="7.239955676024651"><ele>588.2</ele><time>2026-04-19T11:15:21.001Z</time></trkpt><trkpt lat="44.911874761525645" lon="7.240089929678293"><ele>584.8</ele><time>2026-04-19T11:15:22.001Z</time></trkpt><trkpt lat="44.91190077250073" lon="7.240231594710875"><ele>581.4</ele><time>2026-04-19T11:15:23.001Z</time></trkpt><trkpt lat="44.91192742710604" lon="7.240369362543477"><ele>578.0</ele><time>2026-04-19T11:15:24.001Z</time></trkpt><trkpt lat="44.91196358050562" lon="7.240497984680356"><ele>578.0</ele><time>2026-04-19T11:15:25.001Z</time></trkpt><trkpt lat="44.91200733931618" lon="7.240596834283625"><ele>578.0</ele><time>2026-04-19T11:15:26.001Z</time></trkpt><trkpt lat="44.91204606532851" lon="7.240672505440382"><ele>578.0</ele><time>2026-04-19T11:15:27.001Z</time></trkpt><trkpt lat="44.912021362423104" lon="7.240789626805103"><ele>578.0</ele><time>2026-04-19T11:15:29.001Z</time></trkpt><trkpt lat="44.911915641424144" lon="7.24071354537031"><ele>578.0</ele><time>2026-04-19T11:15:31.001Z</time></trkpt><trkpt lat="44.9118461526318" lon="7.240655123579925"><ele>578.0</ele><time>2026-04-19T11:15:32.001Z</time></trkpt><trkpt lat="44.911764846567024" lon="7.2405948972752805"><ele>575.1999999999999</ele><time>2026-04-19T11:15:33.001Z</time></trkpt><trkpt lat="44.91165999939975" lon="7.240559842582685"><ele>572.4</ele><time>2026-04-19T11:15:34.001Z</time></trkpt><trkpt lat="44.911561366433965" lon="7.2404931423743175"><ele>569.5999999999999</ele><time>2026-04-19T11:15:35.001Z</time></trkpt><trkpt lat="44.91146007132657" lon="7.240463245726855"><ele>566.8</ele><time>2026-04-19T11:15:36.001Z</time></trkpt><trkpt lat="44.91136018671899" lon="7.240443255248744"><ele>564.0</ele><time>2026-04-19T11:15:37.001Z</time></trkpt><trkpt lat="44.91125848931232" lon="7.240445895772875"><ele>564.0</ele><time>2026-04-19T11:15:38.001Z</time></trkpt><trkpt lat="44.91116371639677" lon="7.24042771316389"><ele>564.0</ele><time>2026-04-19T11:15:39.001Z</time></trkpt><trkpt lat="44.91107993017837" lon="7.240429955868449"><ele>564.0</ele><time>2026-04-19T11:15:40.001Z</time></trkpt><trkpt lat="44.91101083872266" lon="7.240476209615832"><ele>564.0</ele><time>2026-04-19T11:15:41.002Z</time></trkpt><trkpt lat="44.91095154558492" lon="7.240545674188766"><ele>564.0</ele><time>2026-04-19T11:15:42.002Z</time></trkpt><trkpt lat="44.910889489420455" lon="7.240597343421416"><ele>564.0</ele><time>2026-04-19T11:15:43.002Z</time></trkpt><trkpt lat="44.91082525284577" lon="7.240623272878217"><ele>561.6</ele><time>2026-04-19T11:15:44.002Z</time></trkpt><trkpt lat="44.9107593391181" lon="7.240582735929067"><ele>559.2</ele><time>2026-04-19T11:15:45.002Z</time></trkpt><trkpt lat="44.91068854100427" lon="7.2405143924617885"><ele>556.8000000000001</ele><time>2026-04-19T11:15:46.002Z</time></trkpt><trkpt lat="44.910591999032135" lon="7.240456799481769"><ele>554.4</ele><time>2026-04-19T11:15:47.002Z</time></trkpt><trkpt lat="44.91048399756828" lon="7.240409191713541"><ele>552.0</ele><time>2026-04-19T11:15:48.002Z</time></trkpt><trkpt lat="44.91036736479949" lon="7.240391239373707"><ele>552.0</ele><time>2026-04-19T11:15:49.002Z</time></trkpt><trkpt lat="44.91024121120405" lon="7.240358630040469"><ele>552.0</ele><time>2026-04-19T11:15:50.002Z</time></trkpt><trkpt lat="44.91011455003068" lon="7.240325568958314"><ele>552.0</ele><time>2026-04-19T11:15:51.002Z</time></trkpt><trkpt lat="44.90999427261513" lon="7.240295859239916"><ele>552.0</ele><time>2026-04-19T11:15:52.002Z</time></trkpt><trkpt lat="44.90989137468448" lon="7.240293281924402"><ele>550.2</ele><time>2026-04-19T11:15:53.002Z</time></trkpt><trkpt lat="44.90978924765313" lon="7.240325332022581"><ele>548.4000000000001</ele><time>2026-04-19T11:15:54.002Z</time></trkpt><trkpt lat="44.90970120893364" lon="7.24039840059775"><ele>546.5999999999999</ele><time>2026-04-19T11:15:55.002Z</time></trkpt><trkpt lat="44.90963066346136" lon="7.240509012700418"><ele>544.8</ele><time>2026-04-19T11:15:56.002Z</time></trkpt><trkpt lat="44.909563385176526" lon="7.240603514836496"><ele>543.0</ele><time>2026-04-19T11:15:57.002Z</time></trkpt><trkpt lat="44.90946109634368" lon="7.240607770008435"><ele>543.0</ele><time>2026-04-19T11:15:59.002Z</time></trkpt><trkpt lat="44.909443595469604" lon="7.24051583256633"><ele>543.0</ele><time>2026-04-19T11:16:00.002Z</time></trkpt><trkpt lat="44.90939172494723" lon="7.24043386845021"><ele>543.0</ele><time>2026-04-19T11:16:01.002Z</time></trkpt><trkpt lat="44.90931977831741" lon="7.240356621177455"><ele>543.0</ele><time>2026-04-19T11:16:02.002Z</time></trkpt><trkpt lat="44.909245861534224" lon="7.2403050578959425"><ele>543.0</ele><time>2026-04-19T11:16:03.002Z</time></trkpt><trkpt lat="44.90916006874692" lon="7.240271829648004"><ele>543.0</ele><time>2026-04-19T11:16:04.002Z</time></trkpt><trkpt lat="44.90905786204831" lon="7.24032729767958"><ele>540.1999999999999</ele><time>2026-04-19T11:16:05.002Z</time></trkpt><trkpt lat="44.90896186850053" lon="7.240330425088143"><ele>537.4</ele><time>2026-04-19T11:16:06.002Z</time></trkpt><trkpt lat="44.90887090895583" lon="7.240370733316993"><ele>534.5999999999999</ele><time>2026-04-19T11:16:07.002Z</time></trkpt><trkpt lat="44.908773797736906" lon="7.240348204714078"><ele>531.8</ele><time>2026-04-19T11:16:08.002Z</time></trkpt><trkpt lat="44.9086910036832" lon="7.240406907698687"><ele>529.0</ele><time>2026-04-19T11:16:09.002Z</time></trkpt><trkpt lat="44.90862184917496" lon="7.240471154424897"><ele>529.0</ele><time>2026-04-19T11:16:10.002Z</time></trkpt><trkpt lat="44.90854192313413" lon="7.240531412522721"><ele>529.0</ele><time>2026-04-19T11:16:11.002Z</time></trkpt><trkpt lat="44.90844967031364" lon="7.240584019177427"><ele>529.0</ele><time>2026-04-19T11:16:12.002Z</time></trkpt><trkpt lat="44.90835894862125" lon="7.240614136095224"><ele>529.0</ele><time>2026-04-19T11:16:13.003Z</time></trkpt><trkpt lat="44.90827945362955" lon="7.240641667996441"><ele>529.0</ele><time>2026-04-19T11:16:14.003Z</time></trkpt><trkpt lat="44.90819318762784" lon="7.240696775680327"><ele>524.5</ele><time>2026-04-19T11:16:16.003Z</time></trkpt><trkpt lat="44.9081287582906" lon="7.240697313687116"><ele>520.0</ele><time>2026-04-19T11:16:20.003Z</time></trkpt><trkpt lat="44.908185060637365" lon="7.24093751314369"><ele>515.5</ele><time>2026-04-19T11:16:22.003Z</time></trkpt><trkpt lat="44.90823123425542" lon="7.241069170898331"><ele>511.0</ele><time>2026-04-19T11:16:23.003Z</time></trkpt><trkpt lat="44.90827556367727" lon="7.241214770891097"><ele>511.00000000000006</ele><time>2026-04-19T11:16:24.003Z</time></trkpt><trkpt lat="44.90831614007558" lon="7.24134013248044"><ele>511.0</ele><time>2026-04-19T11:16:25.003Z</time></trkpt><trkpt lat="44.90836384556171" lon="7.241439926092018"><ele>511.0</ele><time>2026-04-19T11:16:26.003Z</time></trkpt><trkpt lat="44.90843236701709" lon="7.241512487517917"><ele>511.0</ele><time>2026-04-19T11:16:27.003Z</time></trkpt><trkpt lat="44.908505327882544" lon="7.24156638257995"><ele>511.00000000000006</ele><time>2026-04-19T11:16:28.003Z</time></trkpt><trkpt lat="44.90855707039664" lon="7.241628213408005"><ele>511.0</ele><time>2026-04-19T11:16:29.003Z</time></trkpt><trkpt lat="44.90861211622697" lon="7.241676747440596"><ele>511.4</ele><time>2026-04-19T11:16:30.003Z</time></trkpt><trkpt lat="44.90867733463657" lon="7.241733321539028"><ele>511.8</ele><time>2026-04-19T11:16:31.003Z</time></trkpt><trkpt lat="44.90876407226611" lon="7.24180808309315"><ele>512.1999999999999</ele><time>2026-04-19T11:16:32.003Z</time></trkpt><trkpt lat="44.9088638627834" lon="7.241878020778866"><ele>512.6</ele><time>2026-04-19T11:16:33.003Z</time></trkpt><trkpt lat="44.90896942493428" lon="7.241974361313849"><ele>513.0</ele><time>2026-04-19T11:16:33.995Z</time></trkpt><trkpt lat="44.90908731843834" lon="7.242070421177054"><ele>513.0</ele><time>2026-04-19T11:16:34.995Z</time></trkpt><trkpt lat="44.909209953838754" lon="7.242173139537528"><ele>513.0</ele><time>2026-04-19T11:16:35.995Z</time></trkpt><trkpt lat="44.909326500999626" lon="7.242299441493552"><ele>513.0</ele><time>2026-04-19T11:16:36.996Z</time></trkpt><trkpt lat="44.90944539524488" lon="7.242430961062706"><ele>513.0</ele><time>2026-04-19T11:16:37.996Z</time></trkpt><trkpt lat="44.90958408172325" lon="7.242535980053419"><ele>509.33333333333337</ele><time>2026-04-19T11:16:38.996Z</time></trkpt><trkpt lat="44.9097154972758" lon="7.242641847960894"><ele>505.6666666666667</ele><time>2026-04-19T11:16:39.996Z</time></trkpt><trkpt lat="44.90986220940116" lon="7.242690740471763"><ele>502.0</ele><time>2026-04-19T11:16:40.996Z</time></trkpt><trkpt lat="44.91000375945316" lon="7.242749697956432"><ele>502.25</ele><time>2026-04-19T11:16:41.997Z</time></trkpt><trkpt lat="44.91014535924436" lon="7.242785851556616"><ele>502.5</ele><time>2026-04-19T11:16:42.997Z</time></trkpt><trkpt lat="44.91028657551539" lon="7.242785072126024"><ele>502.75</ele><time>2026-04-19T11:16:43.997Z</time></trkpt><trkpt lat="44.910425521951055" lon="7.242748429254007"><ele>503.0</ele><time>2026-04-19T11:16:44.997Z</time></trkpt><trkpt lat="44.91056334809528" lon="7.242695307961386"><ele>503.0</ele><time>2026-04-19T11:16:45.997Z</time></trkpt><trkpt lat="44.91069978973341" lon="7.2425976458339765"><ele>503.0</ele><time>2026-04-19T11:16:46.997Z</time></trkpt><trkpt lat="44.910839754442975" lon="7.2425339264854625"><ele>503.0</ele><time>2026-04-19T11:16:47.998Z</time></trkpt><trkpt lat="44.91098609098257" lon="7.242492757938007"><ele>503.0</ele><time>2026-04-19T11:16:48.998Z</time></trkpt><trkpt lat="44.91114084350446" lon="7.242493723853807"><ele>505.3333333333333</ele><time>2026-04-19T11:16:49.998Z</time></trkpt><trkpt lat="44.9112968193658" lon="7.242539639497347"><ele>507.66666666666663</ele><time>2026-04-19T11:16:50.998Z</time></trkpt><trkpt lat="44.91144099469021" lon="7.242638677441855"><ele>510.0</ele><time>2026-04-19T11:16:51.998Z</time></trkpt><trkpt lat="44.911592268355136" lon="7.242699701678471"><ele>513.6666666666666</ele><time>2026-04-19T11:16:52.998Z</time></trkpt><trkpt lat="44.91174598415479" lon="7.242774310019156"><ele>517.3333333333333</ele><time>2026-04-19T11:16:53.998Z</time></trkpt><trkpt lat="44.91190657837575" lon="7.242837397443451"><ele>521.0</ele><time>2026-04-19T11:16:54.999Z</time></trkpt><trkpt lat="44.91207285139577" lon="7.242903115040628"><ele>521.0</ele><time>2026-04-19T11:16:55.999Z</time></trkpt><trkpt lat="44.91224412829406" lon="7.242973602052351"><ele>521.0</ele><time>2026-04-19T11:16:56.999Z</time></trkpt><trkpt lat="44.91239914809555" lon="7.243037951979894"><ele>521.0</ele><time>2026-04-19T11:16:57.999Z</time></trkpt><trkpt lat="44.91256320341452" lon="7.243102459707015"><ele>520.3333333333333</ele><time>2026-04-19T11:16:58.999Z</time></trkpt><trkpt lat="44.91272842582579" lon="7.243124935278875"><ele>519.6666666666666</ele><time>2026-04-19T11:16:59.999Z</time></trkpt><trkpt lat="44.912891971904685" lon="7.243124167158228"><ele>519.0</ele><time>2026-04-19T11:17:00.999Z</time></trkpt><trkpt lat="44.913055354004776" lon="7.24312998130111"><ele>514.0</ele><time>2026-04-19T11:17:01.999Z</time></trkpt><trkpt lat="44.91320917638991" lon="7.243159944521149"><ele>509.0</ele><time>2026-04-19T11:17:02.999Z</time></trkpt><trkpt lat="44.91335593988455" lon="7.243195768289189"><ele>504.0</ele><time>2026-04-19T11:17:04Z</time></trkpt><trkpt lat="44.913488729496656" lon="7.243189942112833"><ele>499.0</ele><time>2026-04-19T11:17:05Z</time></trkpt><trkpt lat="44.91359461871124" lon="7.243126086288326"><ele>499.0</ele><time>2026-04-19T11:17:06Z</time></trkpt><trkpt lat="44.91367328212166" lon="7.243006443122544"><ele>499.0</ele><time>2026-04-19T11:17:07Z</time></trkpt><trkpt lat="44.91372339025098" lon="7.242853036984037"><ele>499.0</ele><time>2026-04-19T11:17:08Z</time></trkpt><trkpt lat="44.91381443177133" lon="7.24270363966502"><ele>499.0</ele><time>2026-04-19T11:17:09Z</time></trkpt><trkpt lat="44.91391382819859" lon="7.242559352211619"><ele>499.0</ele><time>2026-04-19T11:17:10Z</time></trkpt><trkpt lat="44.914020666195256" lon="7.242430291838091"><ele>499.0</ele><time>2026-04-19T11:17:11Z</time></trkpt><trkpt lat="44.914126081778186" lon="7.242332331413567"><ele>499.0</ele><time>2026-04-19T11:17:12Z</time></trkpt><trkpt lat="44.91423620417199" lon="7.242256726087172"><ele>499.0</ele><time>2026-04-19T11:17:13Z</time></trkpt><trkpt lat="44.9143645801257" lon="7.242211782588611"><ele>505.0</ele><time>2026-04-19T11:17:14Z</time></trkpt><trkpt lat="44.9145071363523" lon="7.242174352590955"><ele>511.0</ele><time>2026-04-19T11:17:15Z</time></trkpt><trkpt lat="44.91465847779307" lon="7.242140479280947"><ele>517.0</ele><time>2026-04-19T11:17:16Z</time></trkpt><trkpt lat="44.914813223947526" lon="7.242093936459148"><ele>517.0</ele><time>2026-04-19T11:17:17Z</time></trkpt><trkpt lat="44.91496233351773" lon="7.242078267497863"><ele>517.0</ele><time>2026-04-19T11:17:18Z</time></trkpt><trkpt lat="44.91509042326149" lon="7.2420662145099675"><ele>517.0</ele><time>2026-04-19T11:17:19.001Z</time></trkpt><trkpt lat="44.91519896355231" lon="7.242065633920648"><ele>517.0</ele><time>2026-04-19T11:17:20.001Z</time></trkpt><trkpt lat="44.91528916180087" lon="7.242092587845442"><ele>516.6</ele><time>2026-04-19T11:17:21.001Z</time></trkpt><trkpt lat="44.915339411888105" lon="7.242152568110511"><ele>516.2</ele><time>2026-04-19T11:17:22.001Z</time></trkpt><trkpt lat="44.91535529802502" lon="7.2422971581573945"><ele>515.8</ele><time>2026-04-19T11:17:24.001Z</time></trkpt><trkpt lat="44.91548320331228" lon="7.242312502081457"><ele>515.4</ele><time>2026-04-19T11:17:32.001Z</time></trkpt><trkpt lat="44.91555974031887" lon="7.242241720291796"><ele>515.0</ele><time>2026-04-19T11:17:33.001Z</time></trkpt><trkpt lat="44.91565453132633" lon="7.24217026320971"><ele>515.0</ele><time>2026-04-19T11:17:34.001Z</time></trkpt><trkpt lat="44.91576842478375" lon="7.2420967784303185"><ele>515.0</ele><time>2026-04-19T11:17:35.001Z</time></trkpt><trkpt lat="44.915897726814805" lon="7.242030772657545"><ele>515.0</ele><time>2026-04-19T11:17:36.001Z</time></trkpt><trkpt lat="44.91604488552692" lon="7.241965834937731"><ele>515.0</ele><time>2026-04-19T11:17:37.001Z</time></trkpt><trkpt lat="44.916193354151616" lon="7.241901410960134"><ele>508.66666666666663</ele><time>2026-04-19T11:17:38.001Z</time></trkpt><trkpt lat="44.91634501125906" lon="7.241829129118005"><ele>502.33333333333337</ele><time>2026-04-19T11:17:39.001Z</time></trkpt><trkpt lat="44.91649555725851" lon="7.241769944228743"><ele>496.0</ele><time>2026-04-19T11:17:40.001Z</time></trkpt><trkpt lat="44.916643190007086" lon="7.241710570971011"><ele>494.75</ele><time>2026-04-19T11:17:41.001Z</time></trkpt><trkpt lat="44.916781924512975" lon="7.241657969262298"><ele>493.5</ele><time>2026-04-19T11:17:42.001Z</time></trkpt><trkpt lat="44.91692182683586" lon="7.2416075698325715"><ele>492.25</ele><time>2026-04-19T11:17:43.001Z</time></trkpt><trkpt lat="44.917058246951164" lon="7.2415605049174365"><ele>491.0</ele><time>2026-04-19T11:17:44.002Z</time></trkpt><trkpt lat="44.91719873460922" lon="7.241508414645309"><ele>491.3333333333333</ele><time>2026-04-19T11:17:45.002Z</time></trkpt><trkpt lat="44.917350760027375" lon="7.241459440184937"><ele>491.66666666666663</ele><time>2026-04-19T11:17:46.002Z</time></trkpt><trkpt lat="44.917509017312" lon="7.241406186998019"><ele>492.0</ele><time>2026-04-19T11:17:47.002Z</time></trkpt><trkpt lat="44.917669809719946" lon="7.2413456907645"><ele>492.0</ele><time>2026-04-19T11:17:48.002Z</time></trkpt><trkpt lat="44.91783819351684" lon="7.241273906382573"><ele>492.0</ele><time>2026-04-19T11:17:49.002Z</time></trkpt><trkpt lat="44.91801199024178" lon="7.241224163472496"><ele>492.0</ele><time>2026-04-19T11:17:50.002Z</time></trkpt><trkpt lat="44.91818264184101" lon="7.241161027756994"><ele>492.0</ele><time>2026-04-19T11:17:51.002Z</time></trkpt><trkpt lat="44.91833071432825" lon="7.240978865598213"><ele>492.0</ele><time>2026-04-19T11:17:52.002Z</time></trkpt><trkpt lat="44.91848407912551" lon="7.240863196602327"><ele>492.0</ele><time>2026-04-19T11:17:53.002Z</time></trkpt><trkpt lat="44.91863595867246" lon="7.2407386951981545"><ele>493.66666666666663</ele><time>2026-04-19T11:17:54.002Z</time></trkpt><trkpt lat="44.91878358191831" lon="7.240609134266461"><ele>495.3333333333333</ele><time>2026-04-19T11:17:55.002Z</time></trkpt><trkpt lat="44.91892173858" lon="7.240460432378699"><ele>497.0</ele><time>2026-04-19T11:17:56.002Z</time></trkpt><trkpt lat="44.919059391393596" lon="7.240302583701385"><ele>497.0</ele><time>2026-04-19T11:17:57.002Z</time></trkpt><trkpt lat="44.91919076582033" lon="7.240139101074621"><ele>497.0</ele><time>2026-04-19T11:17:58.002Z</time></trkpt><trkpt lat="44.91932338992419" lon="7.2399682694999505"><ele>497.0</ele><time>2026-04-19T11:17:59.002Z</time></trkpt><trkpt lat="44.91945046564925" lon="7.239800389588766"><ele>497.0</ele><time>2026-04-19T11:18:00.002Z</time></trkpt><trkpt lat="44.919575860024324" lon="7.239638363506122"><ele>497.0</ele><time>2026-04-19T11:18:01.002Z</time></trkpt><trkpt lat="44.91969437173325" lon="7.239488763559884"><ele>497.0</ele><time>2026-04-19T11:18:02.002Z</time></trkpt><trkpt lat="44.91980564081181" lon="7.239350788349331"><ele>497.0</ele><time>2026-04-19T11:18:03.002Z</time></trkpt><trkpt lat="44.91991916784889" lon="7.239218874311035"><ele>497.0</ele><time>2026-04-19T11:18:04.002Z</time></trkpt><trkpt lat="44.92003549808787" lon="7.239090405594541"><ele>497.0</ele><time>2026-04-19T11:18:05.002Z</time></trkpt><trkpt lat="44.92016338413536" lon="7.238977023846904"><ele>497.0</ele><time>2026-04-19T11:18:06.002Z</time></trkpt><trkpt lat="44.92030808563604" lon="7.238886154619539"><ele>497.0</ele><time>2026-04-19T11:18:07.002Z</time></trkpt><trkpt lat="44.920458045766" lon="7.238806900279055"><ele>497.0</ele><time>2026-04-19T11:18:08.002Z</time></trkpt><trkpt lat="44.92060651230093" lon="7.238731400862092"><ele>497.0</ele><time>2026-04-19T11:18:09.002Z</time></trkpt><trkpt lat="44.92076011434147" lon="7.238655484760438"><ele>496.66666666666663</ele><time>2026-04-19T11:18:10.002Z</time></trkpt><trkpt lat="44.92091761494954" lon="7.238575738508994"><ele>496.33333333333337</ele><time>2026-04-19T11:18:11.002Z</time></trkpt><trkpt lat="44.92107962642548" lon="7.238495917080077"><ele>496.0</ele><time>2026-04-19T11:18:12.002Z</time></trkpt><trkpt lat="44.92124644090831" lon="7.238416240615367"><ele>496.0</ele><time>2026-04-19T11:18:13.002Z</time></trkpt><trkpt lat="44.92140853353106" lon="7.238339664006117"><ele>496.0</ele><time>2026-04-19T11:18:14.002Z</time></trkpt><trkpt lat="44.921580023944166" lon="7.238258186717006"><ele>496.0</ele><time>2026-04-19T11:18:15.003Z</time></trkpt><trkpt lat="44.92175611609347" lon="7.238178144976229"><ele>497.6666666666667</ele><time>2026-04-19T11:18:16.003Z</time></trkpt><trkpt lat="44.92192913057694" lon="7.2381030165839535"><ele>499.33333333333337</ele><time>2026-04-19T11:18:17.003Z</time></trkpt><trkpt lat="44.92210733654746" lon="7.238018931357956"><ele>501.0</ele><time>2026-04-19T11:18:18.003Z</time></trkpt><trkpt lat="44.922283187928166" lon="7.237933676434956"><ele>501.0</ele><time>2026-04-19T11:18:19.003Z</time></trkpt><trkpt lat="44.92246122627385" lon="7.237847879667717"><ele>501.0</ele><time>2026-04-19T11:18:20.003Z</time></trkpt><trkpt lat="44.92264094616664" lon="7.237762593625937"><ele>501.0</ele><time>2026-04-19T11:18:21.003Z</time></trkpt><trkpt lat="44.92282470909556" lon="7.237675798356991"><ele>500.66666666666663</ele><time>2026-04-19T11:18:22.003Z</time></trkpt><trkpt lat="44.92300300179713" lon="7.237588677659112"><ele>500.3333333333333</ele><time>2026-04-19T11:18:23.003Z</time></trkpt><trkpt lat="44.923180125164386" lon="7.237506231761477"><ele>500.0</ele><time>2026-04-19T11:18:24.003Z</time></trkpt><trkpt lat="44.92336120154374" lon="7.237424845874392"><ele>501.0</ele><time>2026-04-19T11:18:25.003Z</time></trkpt><trkpt lat="44.92354343703856" lon="7.237341432175789"><ele>502.0</ele><time>2026-04-19T11:18:26.003Z</time></trkpt><trkpt lat="44.923723021151716" lon="7.237253295446956"><ele>503.0</ele><time>2026-04-19T11:18:27.003Z</time></trkpt><trkpt lat="44.92390047589357" lon="7.237158653641915"><ele>503.3333333333333</ele><time>2026-04-19T11:18:28.003Z</time></trkpt><trkpt lat="44.92407492842823" lon="7.237052333307448"><ele>503.66666666666663</ele><time>2026-04-19T11:18:29.003Z</time></trkpt><trkpt lat="44.92424784859748" lon="7.2369341003969545"><ele>504.0</ele><time>2026-04-19T11:18:30.003Z</time></trkpt><trkpt lat="44.9244133203262" lon="7.236803620386117"><ele>504.0</ele><time>2026-04-19T11:18:31.003Z</time></trkpt><trkpt lat="44.92458373876476" lon="7.236664783169595"><ele>504.0</ele><time>2026-04-19T11:18:32.003Z</time></trkpt><trkpt lat="44.92475043174246" lon="7.236522563717775"><ele>504.0</ele><time>2026-04-19T11:18:33.003Z</time></trkpt><trkpt lat="44.92491401890281" lon="7.236386959191083"><ele>504.33333333333337</ele><time>2026-04-19T11:18:34.003Z</time></trkpt><trkpt lat="44.9250782686178" lon="7.236252489194137"><ele>504.6666666666667</ele><time>2026-04-19T11:18:35.003Z</time></trkpt><trkpt lat="44.925243665003826" lon="7.236119642969357"><ele>505.0</ele><time>2026-04-19T11:18:36.003Z</time></trkpt><trkpt lat="44.92540564676858" lon="7.235983150550468"><ele>505.0</ele><time>2026-04-19T11:18:37.003Z</time></trkpt><trkpt lat="44.92557286881725" lon="7.235842947701322"><ele>505.0</ele><time>2026-04-19T11:18:38.003Z</time></trkpt><trkpt lat="44.925739075232904" lon="7.235701212377012"><ele>505.0</ele><time>2026-04-19T11:18:39.003Z</time></trkpt><trkpt lat="44.925903517329765" lon="7.235560943892987"><ele>505.6666666666667</ele><time>2026-04-19T11:18:39.996Z</time></trkpt><trkpt lat="44.92607228466256" lon="7.235420042252022"><ele>506.33333333333337</ele><time>2026-04-19T11:18:40.996Z</time></trkpt><trkpt lat="44.92624218506188" lon="7.2352826397579655"><ele>507.0</ele><time>2026-04-19T11:18:41.996Z</time></trkpt><trkpt lat="44.92641324888028" lon="7.235142451811893"><ele>507.0</ele><time>2026-04-19T11:18:42.996Z</time></trkpt><trkpt lat="44.926581038414355" lon="7.234998775965623"><ele>507.0</ele><time>2026-04-19T11:18:43.996Z</time></trkpt><trkpt lat="44.92674918397731" lon="7.234855083819148"><ele>507.0</ele><time>2026-04-19T11:18:44.997Z</time></trkpt><trkpt lat="44.92691355115386" lon="7.234713240798177"><ele>507.0</ele><time>2026-04-19T11:18:45.997Z</time></trkpt><trkpt lat="44.92708028128962" lon="7.234570976320432"><ele>507.0</ele><time>2026-04-19T11:18:46.997Z</time></trkpt><trkpt lat="44.92725328836578" lon="7.234429471387429"><ele>507.0</ele><time>2026-04-19T11:18:47.997Z</time></trkpt><trkpt lat="44.927424364486015" lon="7.234289649342689"><ele>507.33333333333337</ele><time>2026-04-19T11:18:48.997Z</time></trkpt><trkpt lat="44.92759854443861" lon="7.234147337650759"><ele>507.6666666666667</ele><time>2026-04-19T11:18:49.997Z</time></trkpt><trkpt lat="44.927769305929544" lon="7.234002925741642"><ele>508.0</ele><time>2026-04-19T11:18:50.998Z</time></trkpt><trkpt lat="44.9279427954504" lon="7.233855965820805"><ele>508.33333333333337</ele><time>2026-04-19T11:18:51.998Z</time></trkpt><trkpt lat="44.92811787873121" lon="7.233713404855919"><ele>508.66666666666663</ele><time>2026-04-19T11:18:52.998Z</time></trkpt><trkpt lat="44.9282927486314" lon="7.233570644716904"><ele>509.0</ele><time>2026-04-19T11:18:53.998Z</time></trkpt><trkpt lat="44.928462827561475" lon="7.233426431141474"><ele>509.0</ele><time>2026-04-19T11:18:54.998Z</time></trkpt><trkpt lat="44.92862999672351" lon="7.233278760885423"><ele>509.0</ele><time>2026-04-19T11:18:55.998Z</time></trkpt><trkpt lat="44.928795920424506" lon="7.233135650625161"><ele>509.0</ele><time>2026-04-19T11:18:56.998Z</time></trkpt><trkpt lat="44.92896472886969" lon="7.232995861555134"><ele>510.0</ele><time>2026-04-19T11:18:57.998Z</time></trkpt><trkpt lat="44.929134304935396" lon="7.232857897008322"><ele>511.0</ele><time>2026-04-19T11:18:58.999Z</time></trkpt><trkpt lat="44.92930181029859" lon="7.232717888135439"><ele>512.0</ele><time>2026-04-19T11:18:59.999Z</time></trkpt><trkpt lat="44.92946995348154" lon="7.232575984969012"><ele>511.66666666666663</ele><time>2026-04-19T11:19:00.999Z</time></trkpt><trkpt lat="44.92963498938431" lon="7.232433793416479"><ele>511.33333333333337</ele><time>2026-04-19T11:19:01.999Z</time></trkpt><trkpt lat="44.92980135128764" lon="7.232291293581051"><ele>511.0</ele><time>2026-04-19T11:19:02.999Z</time></trkpt><trkpt lat="44.929957287184635" lon="7.2321536369919075"><ele>512.6666666666667</ele><time>2026-04-19T11:19:03.999Z</time></trkpt><trkpt lat="44.930107870977366" lon="7.232012501436275"><ele>514.3333333333334</ele><time>2026-04-19T11:19:04.999Z</time></trkpt><trkpt lat="44.930249946944606" lon="7.231865860185045"><ele>516.0</ele><time>2026-04-19T11:19:05.999Z</time></trkpt><trkpt lat="44.93039223858017" lon="7.2317113023375015"><ele>516.0</ele><time>2026-04-19T11:19:06.999Z</time></trkpt><trkpt lat="44.930540460687155" lon="7.231544543909106"><ele>516.0</ele><time>2026-04-19T11:19:07.999Z</time></trkpt><trkpt lat="44.93068176397685" lon="7.231375973486528"><ele>516.0</ele><time>2026-04-19T11:19:09Z</time></trkpt><trkpt lat="44.93083175692104" lon="7.231201546878635"><ele>516.3333333333334</ele><time>2026-04-19T11:19:10Z</time></trkpt><trkpt lat="44.930978009848616" lon="7.231027200239366"><ele>516.6666666666667</ele><time>2026-04-19T11:19:11Z</time></trkpt><trkpt lat="44.93111736748567" lon="7.23084743970823"><ele>517.0</ele><time>2026-04-19T11:19:12Z</time></trkpt><trkpt lat="44.93125262122511" lon="7.230664836580406"><ele>517.3333333333334</ele><time>2026-04-19T11:19:13Z</time></trkpt><trkpt lat="44.9313892686226" lon="7.23048374081445"><ele>517.6666666666666</ele><time>2026-04-19T11:19:14Z</time></trkpt><trkpt lat="44.931520628032814" lon="7.230292726916124"><ele>518.0</ele><time>2026-04-19T11:19:15Z</time></trkpt><trkpt lat="44.93165063699749" lon="7.230095397346918"><ele>518.3333333333333</ele><time>2026-04-19T11:19:16Z</time></trkpt><trkpt lat="44.93177465055727" lon="7.229900098786069"><ele>518.6666666666666</ele><time>2026-04-19T11:19:17Z</time></trkpt><trkpt lat="44.931895055848614" lon="7.2297023260999485"><ele>519.0</ele><time>2026-04-19T11:19:18Z</time></trkpt><trkpt lat="44.932015126643144" lon="7.2295055037213025"><ele>519.0</ele><time>2026-04-19T11:19:19Z</time></trkpt><trkpt lat="44.93212936779593" lon="7.229307817411085"><ele>519.0</ele><time>2026-04-19T11:19:20Z</time></trkpt><trkpt lat="44.93223896587364" lon="7.229106079033408"><ele>519.0</ele><time>2026-04-19T11:19:21Z</time></trkpt><trkpt lat="44.93235242594186" lon="7.228884049628668"><ele>519.0</ele><time>2026-04-19T11:19:22Z</time></trkpt><trkpt lat="44.93246094191113" lon="7.228663198720285"><ele>519.0</ele><time>2026-04-19T11:19:23Z</time></trkpt><trkpt lat="44.93256583557266" lon="7.228440602689498"><ele>519.0</ele><time>2026-04-19T11:19:24.001Z</time></trkpt><trkpt lat="44.93267186248728" lon="7.228213895395743"><ele>520.3333333333334</ele><time>2026-04-19T11:19:25.001Z</time></trkpt><trkpt lat="44.932773552608325" lon="7.227983786728488"><ele>521.6666666666667</ele><time>2026-04-19T11:19:26.001Z</time></trkpt><trkpt lat="44.93287805733055" lon="7.227741578281648"><ele>523.0</ele><time>2026-04-19T11:19:27.001Z</time></trkpt><trkpt lat="44.932968825676355" lon="7.227501568730826"><ele>524.3333333333334</ele><time>2026-04-19T11:19:28.001Z</time></trkpt><trkpt lat="44.93305552731241" lon="7.227271913379811"><ele>525.6666666666666</ele><time>2026-04-19T11:19:29.001Z</time></trkpt><trkpt lat="44.93313455727526" lon="7.227065311573041"><ele>527.0</ele><time>2026-04-19T11:19:30.001Z</time></trkpt><trkpt lat="44.93321423333965" lon="7.2268666945653965"><ele>527.0</ele><time>2026-04-19T11:19:31.001Z</time></trkpt><trkpt lat="44.9332823604907" lon="7.226687608083643"><ele>527.0</ele><time>2026-04-19T11:19:32.001Z</time></trkpt><trkpt lat="44.93335525753272" lon="7.226523935686719"><ele>527.0</ele><time>2026-04-19T11:19:33.001Z</time></trkpt><trkpt lat="44.93344687923609" lon="7.226390348988025"><ele>527.0</ele><time>2026-04-19T11:19:34.001Z</time></trkpt><trkpt lat="44.93356287329663" lon="7.226285256010299"><ele>529.5</ele><time>2026-04-19T11:19:35.001Z</time></trkpt><trkpt lat="44.933696398175464" lon="7.226216577550576"><ele>532.0</ele><time>2026-04-19T11:19:36.001Z</time></trkpt><trkpt lat="44.93383952505175" lon="7.226181283996632"><ele>534.5</ele><time>2026-04-19T11:19:37.001Z</time></trkpt><trkpt lat="44.93398913717466" lon="7.226177183184237"><ele>537.0</ele><time>2026-04-19T11:19:38.001Z</time></trkpt><trkpt lat="44.93414369913788" lon="7.226168809118279"><ele>535.3333333333334</ele><time>2026-04-19T11:19:39.001Z</time></trkpt><trkpt lat="44.934297180628654" lon="7.226141486192358"><ele>533.6666666666667</ele><time>2026-04-19T11:19:40.001Z</time></trkpt><trkpt lat="44.93445564330212" lon="7.226077616633834"><ele>532.0</ele><time>2026-04-19T11:19:41.001Z</time></trkpt><trkpt lat="44.9346162230444" lon="7.225999771658854"><ele>532.0</ele><time>2026-04-19T11:19:42.001Z</time></trkpt><trkpt lat="44.93477396164244" lon="7.2258982280941595"><ele>532.0</ele><time>2026-04-19T11:19:43.001Z</time></trkpt><trkpt lat="44.93493075062995" lon="7.2257749998231535"><ele>532.0</ele><time>2026-04-19T11:19:44.001Z</time></trkpt><trkpt lat="44.93508000770622" lon="7.225630690295242"><ele>534.3333333333334</ele><time>2026-04-19T11:19:45.001Z</time></trkpt><trkpt lat="44.93523589905154" lon="7.225479078154451"><ele>536.6666666666666</ele><time>2026-04-19T11:19:46.001Z</time></trkpt><trkpt lat="44.93539477245573" lon="7.225331125595613"><ele>539.0</ele><time>2026-04-19T11:19:47.001Z</time></trkpt><trkpt lat="44.93555327440829" lon="7.225184705030573"><ele>539.0</ele><time>2026-04-19T11:19:48.001Z</time></trkpt><trkpt lat="44.935714079468426" lon="7.225041311324507"><ele>539.0</ele><time>2026-04-19T11:19:49.001Z</time></trkpt><trkpt lat="44.93587600122193" lon="7.22489128167457"><ele>539.0</ele><time>2026-04-19T11:19:50.002Z</time></trkpt><trkpt lat="44.93603858780425" lon="7.224737027801416"><ele>537.6666666666666</ele><time>2026-04-19T11:19:51.002Z</time></trkpt><trkpt lat="44.93620240454225" lon="7.224582888109029"><ele>536.3333333333334</ele><time>2026-04-19T11:19:52.002Z</time></trkpt><trkpt lat="44.93637172239069" lon="7.2244319984065966"><ele>535.0</ele><time>2026-04-19T11:19:53.002Z</time></trkpt><trkpt lat="44.93654061167175" lon="7.22428325700608"><ele>535.0</ele><time>2026-04-19T11:19:54.002Z</time></trkpt><trkpt lat="44.9367130593325" lon="7.224141456906868"><ele>535.0</ele><time>2026-04-19T11:19:55.002Z</time></trkpt><trkpt lat="44.93688722699105" lon="7.224008224478044"><ele>535.0</ele><time>2026-04-19T11:19:56.002Z</time></trkpt><trkpt lat="44.93706078477053" lon="7.223881355998126"><ele>535.0</ele><time>2026-04-19T11:19:57.002Z</time></trkpt><trkpt lat="44.93724935061138" lon="7.22376153698637"><ele>535.0</ele><time>2026-04-19T11:19:58.002Z</time></trkpt><trkpt lat="44.93741613591219" lon="7.223645547159833"><ele>535.0</ele><time>2026-04-19T11:19:59.002Z</time></trkpt><trkpt lat="44.93759091529316" lon="7.223529601570082"><ele>535.0</ele><time>2026-04-19T11:20:00.002Z</time></trkpt><trkpt lat="44.93776741839778" lon="7.223422693892807"><ele>535.0</ele><time>2026-04-19T11:20:01.002Z</time></trkpt><trkpt lat="44.93794801914631" lon="7.223325176868263"><ele>535.0</ele><time>2026-04-19T11:20:02.002Z</time></trkpt><trkpt lat="44.93813386859482" lon="7.223234341731809"><ele>539.3333333333334</ele><time>2026-04-19T11:20:03.002Z</time></trkpt><trkpt lat="44.938318139064314" lon="7.223144883537006"><ele>543.6666666666666</ele><time>2026-04-19T11:20:04.002Z</time></trkpt><trkpt lat="44.938509334037725" lon="7.223053944555101"><ele>548.0</ele><time>2026-04-19T11:20:05.002Z</time></trkpt><trkpt lat="44.93869505283029" lon="7.222960731101316"><ele>548.0</ele><time>2026-04-19T11:20:06.002Z</time></trkpt><trkpt lat="44.93888217512631" lon="7.222870775045223"><ele>548.0</ele><time>2026-04-19T11:20:07.002Z</time></trkpt><trkpt lat="44.93907142124177" lon="7.222780821766245"><ele>548.0</ele><time>2026-04-19T11:20:08.002Z</time></trkpt><trkpt lat="44.939265079953245" lon="7.22269358669664"><ele>546.3333333333333</ele><time>2026-04-19T11:20:09.002Z</time></trkpt><trkpt lat="44.939453046648566" lon="7.222609021200555"><ele>544.6666666666666</ele><time>2026-04-19T11:20:10.002Z</time></trkpt><trkpt lat="44.939642311805045" lon="7.222518482631548"><ele>543.0</ele><time>2026-04-19T11:20:11.002Z</time></trkpt><trkpt lat="44.939825371130496" lon="7.222426855224699"><ele>543.0</ele><time>2026-04-19T11:20:12.002Z</time></trkpt><trkpt lat="44.94001208614809" lon="7.222336692480971"><ele>543.0</ele><time>2026-04-19T11:20:13.002Z</time></trkpt><trkpt lat="44.94019690431791" lon="7.222243327670878"><ele>543.0</ele><time>2026-04-19T11:20:14.002Z</time></trkpt><trkpt lat="44.94038247287765" lon="7.222148357165341"><ele>543.0</ele><time>2026-04-19T11:20:15.002Z</time></trkpt><trkpt lat="44.940564335927476" lon="7.222050473948033"><ele>543.0</ele><time>2026-04-19T11:20:16.002Z</time></trkpt><trkpt lat="44.94074135581523" lon="7.221953394290968"><ele>543.0</ele><time>2026-04-19T11:20:17.002Z</time></trkpt><trkpt lat="44.94091524285191" lon="7.221860032564487"><ele>543.0</ele><time>2026-04-19T11:20:18.002Z</time></trkpt><trkpt lat="44.94109411491582" lon="7.221766952653005"><ele>543.0</ele><time>2026-04-19T11:20:19.002Z</time></trkpt><trkpt lat="44.941268802919815" lon="7.221669993078986"><ele>543.0</ele><time>2026-04-19T11:20:20.002Z</time></trkpt><trkpt lat="44.94144089227637" lon="7.221565928799404"><ele>542.6666666666666</ele><time>2026-04-19T11:20:21.003Z</time></trkpt><trkpt lat="44.941611741909156" lon="7.221462570430065"><ele>542.3333333333333</ele><time>2026-04-19T11:20:22.003Z</time></trkpt><trkpt lat="44.941780363077406" lon="7.221350797311461"><ele>542.0</ele><time>2026-04-19T11:20:23.003Z</time></trkpt><trkpt lat="44.941944624049356" lon="7.221244302855567"><ele>542.0</ele><time>2026-04-19T11:20:24.003Z</time></trkpt><trkpt lat="44.942098376348866" lon="7.221145793583547"><ele>542.0</ele><time>2026-04-19T11:20:25.003Z</time></trkpt><trkpt lat="44.94223830047587" lon="7.221061073252558"><ele>542.0</ele><time>2026-04-19T11:20:26.003Z</time></trkpt><trkpt lat="44.94236485900418" lon="7.220993956397251"><ele>542.0</ele><time>2026-04-19T11:20:27.003Z</time></trkpt><trkpt lat="44.942477479540074" lon="7.220952295961517"><ele>542.0</ele><time>2026-04-19T11:20:28.003Z</time></trkpt><trkpt lat="44.9425698746177" lon="7.220954906171374"><ele>542.0</ele><time>2026-04-19T11:20:29.003Z</time></trkpt><trkpt lat="44.94265436910161" lon="7.220956743728378"><ele>542.0</ele><time>2026-04-19T11:20:30.003Z</time></trkpt><trkpt lat="44.942723866022966" lon="7.2208330324745775"><ele>542.0</ele><time>2026-04-19T11:20:32.003Z</time></trkpt><trkpt lat="44.9427121031593" lon="7.220720889515276"><ele>542.4</ele><time>2026-04-19T11:20:33.003Z</time></trkpt><trkpt lat="44.94267525231425" lon="7.220605471158256"><ele>542.8000000000001</ele><time>2026-04-19T11:20:34.003Z</time></trkpt><trkpt lat="44.94261786849669" lon="7.220498641607844"><ele>543.2</ele><time>2026-04-19T11:20:35.003Z</time></trkpt><trkpt lat="44.94259262959493" lon="7.220394233010832"><ele>543.6</ele><time>2026-04-19T11:20:36.003Z</time></trkpt><trkpt lat="44.942692737926485" lon="7.220312607341209"><ele>544.0</ele><time>2026-04-19T11:20:38.003Z</time></trkpt><trkpt lat="44.942771874402716" lon="7.22036553463092"><ele>544.0</ele><time>2026-04-19T11:20:39.003Z</time></trkpt><trkpt lat="44.94285009883889" lon="7.220471218808619"><ele>544.0</ele><time>2026-04-19T11:20:40.003Z</time></trkpt><trkpt lat="44.94294751118973" lon="7.220581703545098"><ele>544.0</ele><time>2026-04-19T11:20:41.003Z</time></trkpt><trkpt lat="44.94306694210587" lon="7.22065245620028"><ele>544.0</ele><time>2026-04-19T11:20:42.003Z</time></trkpt><trkpt lat="44.943201107317336" lon="7.220650970551874"><ele>544.0</ele><time>2026-04-19T11:20:43.003Z</time></trkpt><trkpt lat="44.94334733496133" lon="7.220595249647879"><ele>544.0</ele><time>2026-04-19T11:20:44.003Z</time></trkpt><trkpt lat="44.943482138694314" lon="7.220532972203755"><ele>544.0</ele><time>2026-04-19T11:20:45.003Z</time></trkpt><trkpt lat="44.94361373009018" lon="7.220468932533753"><ele>544.0</ele><time>2026-04-19T11:20:45.995Z</time></trkpt><trkpt lat="44.94374147232107" lon="7.220392575023044"><ele>544.0</ele><time>2026-04-19T11:20:46.996Z</time></trkpt><trkpt lat="44.943865919571635" lon="7.220306036431189"><ele>544.0</ele><time>2026-04-19T11:20:47.996Z</time></trkpt><trkpt lat="44.94398025522586" lon="7.22020368419659"><ele>544.0</ele><time>2026-04-19T11:20:48.996Z</time></trkpt><trkpt lat="44.944091596879744" lon="7.220077634745565"><ele>544.0</ele><time>2026-04-19T11:20:49.996Z</time></trkpt><trkpt lat="44.94418848188752" lon="7.219929400569369"><ele>544.75</ele><time>2026-04-19T11:20:50.997Z</time></trkpt><trkpt lat="44.94427861270568" lon="7.219775015382928"><ele>545.5</ele><time>2026-04-19T11:20:51.997Z</time></trkpt><trkpt lat="44.94436639561864" lon="7.219614750631904"><ele>546.25</ele><time>2026-04-19T11:20:52.997Z</time></trkpt><trkpt lat="44.94444496526767" lon="7.219444030074873"><ele>547.0</ele><time>2026-04-19T11:20:53.997Z</time></trkpt><trkpt lat="44.94450589933756" lon="7.219264144887601"><ele>547.0</ele><time>2026-04-19T11:20:54.997Z</time></trkpt><trkpt lat="44.94454044667477" lon="7.219070622226196"><ele>547.0</ele><time>2026-04-19T11:20:55.997Z</time></trkpt><trkpt lat="44.94455499861749" lon="7.2188790277763495"><ele>547.0</ele><time>2026-04-19T11:20:56.997Z</time></trkpt><trkpt lat="44.944548996180345" lon="7.218689910345603"><ele>547.0</ele><time>2026-04-19T11:20:57.998Z</time></trkpt><trkpt lat="44.94456367441822" lon="7.2185125405554835"><ele>548.75</ele><time>2026-04-19T11:20:58.998Z</time></trkpt><trkpt lat="44.94461130123304" lon="7.218360183300687"><ele>550.5</ele><time>2026-04-19T11:20:59.998Z</time></trkpt><trkpt lat="44.9446885016667" lon="7.2182289233549"><ele>552.25</ele><time>2026-04-19T11:21:00.998Z</time></trkpt><trkpt lat="44.944782133195986" lon="7.218121481311923"><ele>554.0</ele><time>2026-04-19T11:21:01.998Z</time></trkpt><trkpt lat="44.94486884136323" lon="7.218001419448204"><ele>554.25</ele><time>2026-04-19T11:21:02.998Z</time></trkpt><trkpt lat="44.94495540832121" lon="7.217873494818783"><ele>554.5</ele><time>2026-04-19T11:21:03.998Z</time></trkpt><trkpt lat="44.94503877369699" lon="7.217718758006739"><ele>554.75</ele><time>2026-04-19T11:21:04.999Z</time></trkpt><trkpt lat="44.945124351765294" lon="7.21754966156949"><ele>555.0</ele><time>2026-04-19T11:21:05.999Z</time></trkpt><trkpt lat="44.94521949446395" lon="7.217396370233848"><ele>554.75</ele><time>2026-04-19T11:21:06.999Z</time></trkpt><trkpt lat="44.945314921040094" lon="7.217260737882411"><ele>554.5</ele><time>2026-04-19T11:21:07.999Z</time></trkpt><trkpt lat="44.94543091800853" lon="7.2171518099290575"><ele>554.25</ele><time>2026-04-19T11:21:08.999Z</time></trkpt><trkpt lat="44.945560028937095" lon="7.217057839317189"><ele>554.0</ele><time>2026-04-19T11:21:09.999Z</time></trkpt><trkpt lat="44.9456918491196" lon="7.216951646249869"><ele>554.0</ele><time>2026-04-19T11:21:10.999Z</time></trkpt><trkpt lat="44.94581857581231" lon="7.216828673818957"><ele>554.0</ele><time>2026-04-19T11:21:11.999Z</time></trkpt><trkpt lat="44.94593992212241" lon="7.21669953043765"><ele>554.0</ele><time>2026-04-19T11:21:12.999Z</time></trkpt><trkpt lat="44.946060597157455" lon="7.216563564175625"><ele>554.3333333333333</ele><time>2026-04-19T11:21:13.999Z</time></trkpt><trkpt lat="44.946177915748514" lon="7.216422561916514"><ele>554.6666666666666</ele><time>2026-04-19T11:21:15Z</time></trkpt><trkpt lat="44.946287831871864" lon="7.216277101396414"><ele>555.0</ele><time>2026-04-19T11:21:16Z</time></trkpt><trkpt lat="44.94638422705152" lon="7.216116920641847"><ele>555.0</ele><time>2026-04-19T11:21:17Z</time></trkpt><trkpt lat="44.94647321052925" lon="7.215939812010753"><ele>555.0</ele><time>2026-04-19T11:21:18Z</time></trkpt><trkpt lat="44.94656227530924" lon="7.215754883036248"><ele>555.0</ele><time>2026-04-19T11:21:19Z</time></trkpt><trkpt lat="44.94664811388142" lon="7.215563625324195"><ele>555.5</ele><time>2026-04-19T11:21:20Z</time></trkpt><trkpt lat="44.946731301449006" lon="7.215386031723282"><ele>556.0</ele><time>2026-04-19T11:21:21Z</time></trkpt><trkpt lat="44.94681538091025" lon="7.215221470569045"><ele>556.5</ele><time>2026-04-19T11:21:22Z</time></trkpt><trkpt lat="44.94690568169852" lon="7.2150551239218474"><ele>557.0</ele><time>2026-04-19T11:21:23Z</time></trkpt><trkpt lat="44.94700276697714" lon="7.2148913819134375"><ele>557.3333333333333</ele><time>2026-04-19T11:21:24Z</time></trkpt><trkpt lat="44.94710232729696" lon="7.2147228896932205"><ele>557.6666666666666</ele><time>2026-04-19T11:21:25Z</time></trkpt><trkpt lat="44.94719937697617" lon="7.214550081529346"><ele>558.0</ele><time>2026-04-19T11:21:26Z</time></trkpt><trkpt lat="44.94729546867321" lon="7.214379282565657"><ele>558.0</ele><time>2026-04-19T11:21:27Z</time></trkpt><trkpt lat="44.94739558073843" lon="7.214212082723135"><ele>558.0</ele><time>2026-04-19T11:21:28Z</time></trkpt><trkpt lat="44.94749422340799" lon="7.214049224156673"><ele>558.0</ele><time>2026-04-19T11:21:29Z</time></trkpt><trkpt lat="44.94759219675669" lon="7.213886440256159"><ele>558.3333333333334</ele><time>2026-04-19T11:21:30Z</time></trkpt><trkpt lat="44.94768949242694" lon="7.213720794946498"><ele>558.6666666666667</ele><time>2026-04-19T11:21:31.001Z</time></trkpt><trkpt lat="44.947790415790685" lon="7.213548500142813"><ele>559.0</ele><time>2026-04-19T11:21:32.001Z</time></trkpt><trkpt lat="44.94788889839822" lon="7.21337378419547"><ele>559.0</ele><time>2026-04-19T11:21:33.001Z</time></trkpt><trkpt lat="44.947985869637556" lon="7.2131911182977655"><ele>559.0</ele><time>2026-04-19T11:21:34.001Z</time></trkpt><trkpt lat="44.94808344516639" lon="7.213003595195714"><ele>559.0</ele><time>2026-04-19T11:21:35.001Z</time></trkpt><trkpt lat="44.948180937025725" lon="7.2128157914750695"><ele>559.6666666666667</ele><time>2026-04-19T11:21:36.001Z</time></trkpt><trkpt lat="44.94828219764208" lon="7.2126183793895295"><ele>560.3333333333334</ele><time>2026-04-19T11:21:37.001Z</time></trkpt><trkpt lat="44.94838206403706" lon="7.212424469076679"><ele>561.0</ele><time>2026-04-19T11:21:38.001Z</time></trkpt><trkpt lat="44.948483417338785" lon="7.2122310877448355"><ele>561.6666666666666</ele><time>2026-04-19T11:21:39.001Z</time></trkpt><trkpt lat="44.948584344494265" lon="7.212036158486143"><ele>562.3333333333333</ele><time>2026-04-19T11:21:40.001Z</time></trkpt><trkpt lat="44.9486846671232" lon="7.2118389383990635"><ele>563.0</ele><time>2026-04-19T11:21:41.001Z</time></trkpt><trkpt lat="44.94878136268561" lon="7.211639920521381"><ele>563.6666666666666</ele><time>2026-04-19T11:21:42.001Z</time></trkpt><trkpt lat="44.94887292387953" lon="7.211443061781709"><ele>564.3333333333334</ele><time>2026-04-19T11:21:43.001Z</time></trkpt><trkpt lat="44.94896642936699" lon="7.211243915737299"><ele>565.0</ele><time>2026-04-19T11:21:44.001Z</time></trkpt><trkpt lat="44.94905483357926" lon="7.211047702571319"><ele>565.0</ele><time>2026-04-19T11:21:45.001Z</time></trkpt><trkpt lat="44.94913914341438" lon="7.210851923953308"><ele>565.0</ele><time>2026-04-19T11:21:46.001Z</time></trkpt><trkpt lat="44.94922352920837" lon="7.210646635983324"><ele>565.0</ele><time>2026-04-19T11:21:47.001Z</time></trkpt><trkpt lat="44.94930212011108" lon="7.210445865712723"><ele>565.3333333333334</ele><time>2026-04-19T11:21:48.001Z</time></trkpt><trkpt lat="44.94938153294373" lon="7.210240515705005"><ele>565.6666666666666</ele><time>2026-04-19T11:21:49.001Z</time></trkpt><trkpt lat="44.94946428423765" lon="7.210039144766798"><ele>566.0</ele><time>2026-04-19T11:21:50.001Z</time></trkpt><trkpt lat="44.949537454363664" lon="7.20981172129216"><ele>566.0</ele><time>2026-04-19T11:21:51.001Z</time></trkpt><trkpt lat="44.949628073646146" lon="7.209630158307434"><ele>566.0</ele><time>2026-04-19T11:21:52.001Z</time></trkpt><trkpt lat="44.949704659727615" lon="7.209431726431388"><ele>566.0</ele><time>2026-04-19T11:21:53.001Z</time></trkpt><trkpt lat="44.94977976351302" lon="7.209228720309448"><ele>566.0</ele><time>2026-04-19T11:21:54.001Z</time></trkpt><trkpt lat="44.94985021577143" lon="7.209024023740931"><ele>566.0</ele><time>2026-04-19T11:21:55.001Z</time></trkpt><trkpt lat="44.94991929393408" lon="7.208821179672321"><ele>566.0</ele><time>2026-04-19T11:21:56.001Z</time></trkpt><trkpt lat="44.94999396838622" lon="7.2086275770515496"><ele>565.5</ele><time>2026-04-19T11:21:57.002Z</time></trkpt><trkpt lat="44.95007463073444" lon="7.208456591013624"><ele>565.0</ele><time>2026-04-19T11:21:58.002Z</time></trkpt><trkpt lat="44.95016019328654" lon="7.208309974118511"><ele>564.5</ele><time>2026-04-19T11:21:59.002Z</time></trkpt><trkpt lat="44.95024139378321" lon="7.208178599714905"><ele>564.0</ele><time>2026-04-19T11:22:00.002Z</time></trkpt><trkpt lat="44.95031220834364" lon="7.208062675529022"><ele>565.5</ele><time>2026-04-19T11:22:01.002Z</time></trkpt><trkpt lat="44.95037007777417" lon="7.207943015911446"><ele>567.0</ele><time>2026-04-19T11:22:02.002Z</time></trkpt><trkpt lat="44.950425991333184" lon="7.207804263906051"><ele>568.5</ele><time>2026-04-19T11:22:03.002Z</time></trkpt><trkpt lat="44.950485555895895" lon="7.207654691319942"><ele>570.0</ele><time>2026-04-19T11:22:04.002Z</time></trkpt><trkpt lat="44.95054573132158" lon="7.207493947844911"><ele>570.0</ele><time>2026-04-19T11:22:05.002Z</time></trkpt><trkpt lat="44.95060875412341" lon="7.20733069702799"><ele>570.0</ele><time>2026-04-19T11:22:06.002Z</time></trkpt><trkpt lat="44.950671181586124" lon="7.2071654369799765"><ele>570.0</ele><time>2026-04-19T11:22:07.002Z</time></trkpt><trkpt lat="44.95072582092264" lon="7.207010067153977"><ele>570.0</ele><time>2026-04-19T11:22:08.002Z</time></trkpt><trkpt lat="44.95078220321505" lon="7.206848138519204"><ele>570.5</ele><time>2026-04-19T11:22:09.002Z</time></trkpt><trkpt lat="44.95082425281008" lon="7.206668799114431"><ele>571.0</ele><time>2026-04-19T11:22:10.002Z</time></trkpt><trkpt lat="44.95087043653319" lon="7.2064865724271066"><ele>571.5</ele><time>2026-04-19T11:22:11.002Z</time></trkpt><trkpt lat="44.95092561760164" lon="7.20630124238564"><ele>572.0</ele><time>2026-04-19T11:22:12.002Z</time></trkpt><trkpt lat="44.950976197727854" lon="7.206126869319881"><ele>572.0</ele><time>2026-04-19T11:22:13.002Z</time></trkpt><trkpt lat="44.95102762551545" lon="7.205963371224387"><ele>572.0</ele><time>2026-04-19T11:22:14.002Z</time></trkpt><trkpt lat="44.95107179838151" lon="7.205788997315712"><ele>572.0</ele><time>2026-04-19T11:22:15.002Z</time></trkpt><trkpt lat="44.951114888377305" lon="7.205598517178093"><ele>572.0</ele><time>2026-04-19T11:22:16.002Z</time></trkpt><trkpt lat="44.95116372730456" lon="7.205413240285447"><ele>572.0</ele><time>2026-04-19T11:22:17.002Z</time></trkpt><trkpt lat="44.95121615026673" lon="7.20521424988187"><ele>572.0</ele><time>2026-04-19T11:22:18.002Z</time></trkpt><trkpt lat="44.951268352621724" lon="7.205008913930829"><ele>572.0</ele><time>2026-04-19T11:22:19.002Z</time></trkpt><trkpt lat="44.951317623355706" lon="7.204792061674405"><ele>573.0</ele><time>2026-04-19T11:22:20.002Z</time></trkpt><trkpt lat="44.951360681367355" lon="7.204569626496411"><ele>574.0</ele><time>2026-04-19T11:22:21.002Z</time></trkpt><trkpt lat="44.95140114005868" lon="7.204350643550336"><ele>575.0</ele><time>2026-04-19T11:22:22.002Z</time></trkpt><trkpt lat="44.951442509650995" lon="7.204125156801255"><ele>575.3333333333333</ele><time>2026-04-19T11:22:23.002Z</time></trkpt><trkpt lat="44.951487630664815" lon="7.203900789726132"><ele>575.6666666666666</ele><time>2026-04-19T11:22:24.002Z</time></trkpt><trkpt lat="44.9515270079808" lon="7.203671836531452"><ele>576.0</ele><time>2026-04-19T11:22:25.002Z</time></trkpt><trkpt lat="44.95156913313666" lon="7.20343660609568"><ele>576.0</ele><time>2026-04-19T11:22:26.002Z</time></trkpt><trkpt lat="44.951610301860704" lon="7.203204682364152"><ele>576.0</ele><time>2026-04-19T11:22:27.002Z</time></trkpt><trkpt lat="44.95164833979895" lon="7.202967443053819"><ele>576.0</ele><time>2026-04-19T11:22:28.002Z</time></trkpt><trkpt lat="44.951679590520776" lon="7.202727294889234"><ele>576.0</ele><time>2026-04-19T11:22:29.003Z</time></trkpt><trkpt lat="44.95170108219134" lon="7.20248308642469"><ele>576.0</ele><time>2026-04-19T11:22:30.003Z</time></trkpt><trkpt lat="44.95172063962234" lon="7.202238978038131"><ele>576.0</ele><time>2026-04-19T11:22:31.003Z</time></trkpt><trkpt lat="44.951739440024994" lon="7.201996464535525"><ele>575.0</ele><time>2026-04-19T11:22:32.003Z</time></trkpt><trkpt lat="44.95176070335216" lon="7.201755682542447"><ele>574.0</ele><time>2026-04-19T11:22:33.003Z</time></trkpt><trkpt lat="44.9517842015205" lon="7.201522367325354"><ele>573.0</ele><time>2026-04-19T11:22:34.003Z</time></trkpt><trkpt lat="44.95181020388259" lon="7.201282898742389"><ele>573.0</ele><time>2026-04-19T11:22:35.003Z</time></trkpt><trkpt lat="44.95184068956027" lon="7.2010416501734005"><ele>573.0</ele><time>2026-04-19T11:22:36.003Z</time></trkpt><trkpt lat="44.951868107853365" lon="7.20080105181025"><ele>573.0</ele><time>2026-04-19T11:22:37.003Z</time></trkpt><trkpt lat="44.951895741986085" lon="7.200560171582794"><ele>573.6666666666666</ele><time>2026-04-19T11:22:38.003Z</time></trkpt><trkpt lat="44.951918903707565" lon="7.200310911429042"><ele>574.3333333333333</ele><time>2026-04-19T11:22:39.003Z</time></trkpt><trkpt lat="44.951942674224334" lon="7.200067303600001"><ele>575.0</ele><time>2026-04-19T11:22:40.003Z</time></trkpt><trkpt lat="44.95196902218173" lon="7.199825964065408"><ele>575.6666666666666</ele><time>2026-04-19T11:22:41.003Z</time></trkpt><trkpt lat="44.95199636231502" lon="7.199606670312321"><ele>576.3333333333334</ele><time>2026-04-19T11:22:42.003Z</time></trkpt><trkpt lat="44.95201168277806" lon="7.199395824789226"><ele>577.0</ele><time>2026-04-19T11:22:43.003Z</time></trkpt><trkpt lat="44.95200134674821" lon="7.199184944169871"><ele>577.0</ele><time>2026-04-19T11:22:44.003Z</time></trkpt><trkpt lat="44.95196450815624" lon="7.198970370240981"><ele>577.0</ele><time>2026-04-19T11:22:45.003Z</time></trkpt><trkpt lat="44.951920024831956" lon="7.198772748527634"><ele>577.0</ele><time>2026-04-19T11:22:46.003Z</time></trkpt><trkpt lat="44.9518634102804" lon="7.198594172628388"><ele>577.0</ele><time>2026-04-19T11:22:47.003Z</time></trkpt><trkpt lat="44.9518069862071" lon="7.198435246481496"><ele>577.0</ele><time>2026-04-19T11:22:48.003Z</time></trkpt><trkpt lat="44.95175880552796" lon="7.198287913031595"><ele>577.0</ele><time>2026-04-19T11:22:49.003Z</time></trkpt><trkpt lat="44.95172007684521" lon="7.1981443512132435"><ele>577.0</ele><time>2026-04-19T11:22:50.003Z</time></trkpt><trkpt lat="44.951701795299606" lon="7.197988297242531"><ele>577.0</ele><time>2026-04-19T11:22:51.003Z</time></trkpt><trkpt lat="44.951712667968835" lon="7.197820937879444"><ele>577.75</ele><time>2026-04-19T11:22:51.997Z</time></trkpt><trkpt lat="44.951747062171485" lon="7.197652382447198"><ele>578.5</ele><time>2026-04-19T11:22:52.997Z</time></trkpt><trkpt lat="44.9517939626238" lon="7.19746340551016"><ele>579.25</ele><time>2026-04-19T11:22:53.997Z</time></trkpt><trkpt lat="44.95184785558465" lon="7.1972567100384595"><ele>580.0</ele><time>2026-04-19T11:22:54.997Z</time></trkpt><trkpt lat="44.95190609331058" lon="7.197033083188138"><ele>581.0</ele><time>2026-04-19T11:22:55.997Z</time></trkpt><trkpt lat="44.951965569370806" lon="7.196789169012915"><ele>582.0</ele><time>2026-04-19T11:22:56.997Z</time></trkpt><trkpt lat="44.95202003332059" lon="7.196537212939443"><ele>583.0</ele><time>2026-04-19T11:22:57.997Z</time></trkpt><trkpt lat="44.95206761762666" lon="7.196286778675883"><ele>583.6666666666667</ele><time>2026-04-19T11:22:58.998Z</time></trkpt><trkpt lat="44.95211273637228" lon="7.196024402642707"><ele>584.3333333333334</ele><time>2026-04-19T11:22:59.998Z</time></trkpt><trkpt lat="44.952152846579764" lon="7.195759191057941"><ele>585.0</ele><time>2026-04-19T11:23:00.998Z</time></trkpt><trkpt lat="44.9521879998355" lon="7.195497049048616"><ele>585.3333333333334</ele><time>2026-04-19T11:23:01.998Z</time></trkpt><trkpt lat="44.95222312803034" lon="7.195236847296559"><ele>585.6666666666667</ele><time>2026-04-19T11:23:02.998Z</time></trkpt><trkpt lat="44.952257359355514" lon="7.194979839132622"><ele>586.0</ele><time>2026-04-19T11:23:03.998Z</time></trkpt><trkpt lat="44.95228855933658" lon="7.194723099522409"><ele>586.0</ele><time>2026-04-19T11:23:04.998Z</time></trkpt><trkpt lat="44.9523153929715" lon="7.194488435043558"><ele>586.0</ele><time>2026-04-19T11:23:05.998Z</time></trkpt><trkpt lat="44.95234445550023" lon="7.194255657614667"><ele>586.0</ele><time>2026-04-19T11:23:06.999Z</time></trkpt><trkpt lat="44.95237384999869" lon="7.194015212867689"><ele>587.3333333333334</ele><time>2026-04-19T11:23:07.999Z</time></trkpt><trkpt lat="44.95240977767116" lon="7.193777552472366"><ele>588.6666666666666</ele><time>2026-04-19T11:23:08.999Z</time></trkpt><trkpt lat="44.95245155153117" lon="7.193542389811557"><ele>590.0</ele><time>2026-04-19T11:23:09.999Z</time></trkpt><trkpt lat="44.95249886413433" lon="7.193298148658125"><ele>590.6666666666666</ele><time>2026-04-19T11:23:10.999Z</time></trkpt><trkpt lat="44.952542195651" lon="7.193046524718489"><ele>591.3333333333334</ele><time>2026-04-19T11:23:11.999Z</time></trkpt><trkpt lat="44.95258036367362" lon="7.192800043940496"><ele>592.0</ele><time>2026-04-19T11:23:12.999Z</time></trkpt><trkpt lat="44.952618946511244" lon="7.192553286294981"><ele>592.6666666666667</ele><time>2026-04-19T11:23:13.999Z</time></trkpt><trkpt lat="44.95266533444346" lon="7.192271479272887"><ele>593.3333333333334</ele><time>2026-04-19T11:23:14.999Z</time></trkpt><trkpt lat="44.952699910754866" lon="7.192039026104989"><ele>594.0</ele><time>2026-04-19T11:23:15.999Z</time></trkpt><trkpt lat="44.95273310052225" lon="7.191779075871718"><ele>594.0</ele><time>2026-04-19T11:23:17Z</time></trkpt><trkpt lat="44.9527602329304" lon="7.191530326061347"><ele>594.0</ele><time>2026-04-19T11:23:18Z</time></trkpt><trkpt lat="44.952780940777956" lon="7.191271184433897"><ele>594.0</ele><time>2026-04-19T11:23:19Z</time></trkpt><trkpt lat="44.95279084976722" lon="7.191017265439822"><ele>594.3333333333334</ele><time>2026-04-19T11:23:20Z</time></trkpt><trkpt lat="44.95280511412298" lon="7.190752277854132"><ele>594.6666666666667</ele><time>2026-04-19T11:23:21Z</time></trkpt><trkpt lat="44.95282674301346" lon="7.1904937764050185"><ele>595.0</ele><time>2026-04-19T11:23:22Z</time></trkpt><trkpt lat="44.952846853233616" lon="7.190227015257042"><ele>595.3333333333334</ele><time>2026-04-19T11:23:23Z</time></trkpt><trkpt lat="44.952876286488355" lon="7.1899679757426505"><ele>595.6666666666666</ele><time>2026-04-19T11:23:24Z</time></trkpt><trkpt lat="44.9529094221568" lon="7.189721562702589"><ele>596.0</ele><time>2026-04-19T11:23:25Z</time></trkpt><trkpt lat="44.952941663211746" lon="7.18947536579172"><ele>596.6666666666666</ele><time>2026-04-19T11:23:26Z</time></trkpt><trkpt lat="44.952965487294634" lon="7.189235757535947"><ele>597.3333333333334</ele><time>2026-04-19T11:23:27Z</time></trkpt><trkpt lat="44.95298212447225" lon="7.188992233275142"><ele>598.0</ele><time>2026-04-19T11:23:28Z</time></trkpt><trkpt lat="44.95299368623668" lon="7.188752035013691"><ele>599.3333333333334</ele><time>2026-04-19T11:23:29Z</time></trkpt><trkpt lat="44.95300203023849" lon="7.188502798813131"><ele>600.6666666666666</ele><time>2026-04-19T11:23:30Z</time></trkpt><trkpt lat="44.953006574178055" lon="7.188265298528257"><ele>602.0</ele><time>2026-04-19T11:23:31Z</time></trkpt><trkpt lat="44.95300050279555" lon="7.1880264880562414"><ele>602.0</ele><time>2026-04-19T11:23:32Z</time></trkpt><trkpt lat="44.952976395963596" lon="7.187801317603745"><ele>602.0</ele><time>2026-04-19T11:23:33.001Z</time></trkpt><trkpt lat="44.95293939225274" lon="7.1875982927134725"><ele>602.0</ele><time>2026-04-19T11:23:34.001Z</time></trkpt><trkpt lat="44.952887998199174" lon="7.187392545214092"><ele>602.0</ele><time>2026-04-19T11:23:35.001Z</time></trkpt><trkpt lat="44.952833726704576" lon="7.187168935708037"><ele>602.0</ele><time>2026-04-19T11:23:36.001Z</time></trkpt><trkpt lat="44.95278511042243" lon="7.186943999795577"><ele>602.0</ele><time>2026-04-19T11:23:37.001Z</time></trkpt><trkpt lat="44.952761719417275" lon="7.186733747276346"><ele>602.0</ele><time>2026-04-19T11:23:38.001Z</time></trkpt><trkpt lat="44.95276456449474" lon="7.186525435578943"><ele>602.0</ele><time>2026-04-19T11:23:39.001Z</time></trkpt><trkpt lat="44.95280457070751" lon="7.186321742542422"><ele>602.0</ele><time>2026-04-19T11:23:40.001Z</time></trkpt><trkpt lat="44.95287526351277" lon="7.186122767502611"><ele>602.3333333333333</ele><time>2026-04-19T11:23:41.001Z</time></trkpt><trkpt lat="44.95296810488992" lon="7.1859255126344275"><ele>602.6666666666666</ele><time>2026-04-19T11:23:42.001Z</time></trkpt><trkpt lat="44.95306381145831" lon="7.185710514547166"><ele>603.0</ele><time>2026-04-19T11:23:43.001Z</time></trkpt><trkpt lat="44.95316046768714" lon="7.185494256836455"><ele>603.3333333333334</ele><time>2026-04-19T11:23:44.001Z</time></trkpt><trkpt lat="44.95325178424801" lon="7.18527374198007"><ele>603.6666666666667</ele><time>2026-04-19T11:23:45.001Z</time></trkpt><trkpt lat="44.95334508796726" lon="7.185052963931876"><ele>604.0</ele><time>2026-04-19T11:23:46.001Z</time></trkpt><trkpt lat="44.95344200007757" lon="7.184827637460732"><ele>604.3333333333334</ele><time>2026-04-19T11:23:47.001Z</time></trkpt><trkpt lat="44.953531682761586" lon="7.184621893734515"><ele>604.6666666666666</ele><time>2026-04-19T11:23:48.001Z</time></trkpt><trkpt lat="44.95361487224119" lon="7.1844010216307135"><ele>605.0</ele><time>2026-04-19T11:23:49.001Z</time></trkpt><trkpt lat="44.95367673817087" lon="7.184163011400072"><ele>605.3333333333333</ele><time>2026-04-19T11:23:50.001Z</time></trkpt><trkpt lat="44.95371619013882" lon="7.183924604500712"><ele>605.6666666666666</ele><time>2026-04-19T11:23:51.001Z</time></trkpt><trkpt lat="44.953745979626504" lon="7.183680594921762"><ele>606.0</ele><time>2026-04-19T11:23:52.001Z</time></trkpt><trkpt lat="44.953768746797586" lon="7.18343691040424"><ele>606.0</ele><time>2026-04-19T11:23:53.001Z</time></trkpt><trkpt lat="44.95379260589107" lon="7.1831828030569405"><ele>606.0</ele><time>2026-04-19T11:23:54.001Z</time></trkpt><trkpt lat="44.9538213050012" lon="7.1829302414104905"><ele>606.0</ele><time>2026-04-19T11:23:55.001Z</time></trkpt><trkpt lat="44.95385223202748" lon="7.182685070277125"><ele>606.3333333333334</ele><time>2026-04-19T11:23:56.001Z</time></trkpt><trkpt lat="44.95388188752233" lon="7.182442096617059"><ele>606.6666666666667</ele><time>2026-04-19T11:23:57.001Z</time></trkpt><trkpt lat="44.9539148338527" lon="7.182202469058338"><ele>607.0</ele><time>2026-04-19T11:23:58.002Z</time></trkpt><trkpt lat="44.953946722110004" lon="7.181959106126885"><ele>607.6666666666667</ele><time>2026-04-19T11:23:59.002Z</time></trkpt><trkpt lat="44.953969518495356" lon="7.181726620503943"><ele>608.3333333333334</ele><time>2026-04-19T11:24:00.002Z</time></trkpt><trkpt lat="44.95397612058612" lon="7.181487655859284"><ele>609.0</ele><time>2026-04-19T11:24:01.002Z</time></trkpt><trkpt lat="44.95395854847686" lon="7.181249971742774"><ele>609.6666666666666</ele><time>2026-04-19T11:24:02.002Z</time></trkpt><trkpt lat="44.95393203717655" lon="7.181009875475868"><ele>610.3333333333333</ele><time>2026-04-19T11:24:03.002Z</time></trkpt><trkpt lat="44.95390485105899" lon="7.180765928844106"><ele>611.0</ele><time>2026-04-19T11:24:04.002Z</time></trkpt><trkpt lat="44.953883918118706" lon="7.180513956749711"><ele>611.6666666666666</ele><time>2026-04-19T11:24:05.002Z</time></trkpt><trkpt lat="44.953867946879456" lon="7.180266630139665"><ele>612.3333333333334</ele><time>2026-04-19T11:24:06.002Z</time></trkpt><trkpt lat="44.95385375226017" lon="7.18001768265942"><ele>613.0</ele><time>2026-04-19T11:24:07.002Z</time></trkpt><trkpt lat="44.95384027337437" lon="7.179791468185951"><ele>614.0</ele><time>2026-04-19T11:24:08.002Z</time></trkpt><trkpt lat="44.953819444916995" lon="7.179582544794121"><ele>615.0</ele><time>2026-04-19T11:24:09.002Z</time></trkpt><trkpt lat="44.95378788117631" lon="7.179389207456329"><ele>616.0</ele><time>2026-04-19T11:24:10.002Z</time></trkpt><trkpt lat="44.95375059663017" lon="7.179205333942476"><ele>617.0</ele><time>2026-04-19T11:24:11.002Z</time></trkpt><trkpt lat="44.95370979130738" lon="7.179024381576665"><ele>618.5</ele><time>2026-04-19T11:24:12.002Z</time></trkpt><trkpt lat="44.95366914665975" lon="7.178847609322695"><ele>620.0</ele><time>2026-04-19T11:24:13.002Z</time></trkpt><trkpt lat="44.95362208772419" lon="7.178668770042362"><ele>621.5</ele><time>2026-04-19T11:24:14.002Z</time></trkpt><trkpt lat="44.9535713024404" lon="7.178481156128379"><ele>623.0</ele><time>2026-04-19T11:24:15.002Z</time></trkpt><trkpt lat="44.95352165663994" lon="7.178281293950818"><ele>624.6666666666666</ele><time>2026-04-19T11:24:16.002Z</time></trkpt><trkpt lat="44.95347392522585" lon="7.178067943158206"><ele>626.3333333333334</ele><time>2026-04-19T11:24:17.002Z</time></trkpt><trkpt lat="44.953428675148885" lon="7.177849530764626"><ele>628.0</ele><time>2026-04-19T11:24:18.002Z</time></trkpt><trkpt lat="44.953382486423294" lon="7.177639341632346"><ele>627.75</ele><time>2026-04-19T11:24:19.002Z</time></trkpt><trkpt lat="44.95333877059433" lon="7.17744964599956"><ele>627.5</ele><time>2026-04-19T11:24:20.002Z</time></trkpt><trkpt lat="44.9533023670978" lon="7.177275280530239"><ele>627.25</ele><time>2026-04-19T11:24:21.002Z</time></trkpt><trkpt lat="44.95328151267671" lon="7.177098240433345"><ele>627.0</ele><time>2026-04-19T11:24:22.002Z</time></trkpt><trkpt lat="44.95328207130867" lon="7.176933141005923"><ele>626.2</ele><time>2026-04-19T11:24:23.002Z</time></trkpt><trkpt lat="44.953315529704156" lon="7.176795396425952"><ele>625.4000000000001</ele><time>2026-04-19T11:24:24.002Z</time></trkpt><trkpt lat="44.95338780493983" lon="7.176698509039157"><ele>624.5999999999999</ele><time>2026-04-19T11:24:25.002Z</time></trkpt><trkpt lat="44.953471478737576" lon="7.176638143307396"><ele>623.8</ele><time>2026-04-19T11:24:26.002Z</time></trkpt><trkpt lat="44.95357434508967" lon="7.176580812525174"><ele>623.0</ele><time>2026-04-19T11:24:27.002Z</time></trkpt><trkpt lat="44.953683545921734" lon="7.1765302457806195"><ele>624.0</ele><time>2026-04-19T11:24:28.002Z</time></trkpt><trkpt lat="44.95380344421159" lon="7.1764633197280165"><ele>625.0</ele><time>2026-04-19T11:24:29.002Z</time></trkpt><trkpt lat="44.95390793698424" lon="7.1764074806656115"><ele>626.0</ele><time>2026-04-19T11:24:30.003Z</time></trkpt><trkpt lat="44.95400695479274" lon="7.1763619725149885"><ele>627.0</ele><time>2026-04-19T11:24:31.003Z</time></trkpt><trkpt lat="44.95410115068835" lon="7.176321477914567"><ele>628.0</ele><time>2026-04-19T11:24:32.003Z</time></trkpt><trkpt lat="44.95418105163809" lon="7.176262852070003"><ele>639.2</ele><time>2026-04-19T11:24:33.003Z</time></trkpt><trkpt lat="44.954229115266976" lon="7.176153172770809"><ele>650.4</ele><time>2026-04-19T11:24:34.003Z</time></trkpt><trkpt lat="44.95426437117774" lon="7.176007829563008"><ele>661.6</ele><time>2026-04-19T11:24:35.003Z</time></trkpt><trkpt lat="44.954301786995835" lon="7.175850158488135"><ele>672.8000000000001</ele><time>2026-04-19T11:24:36.003Z</time></trkpt><trkpt lat="44.9543516927036" lon="7.17568714355876"><ele>684.0</ele><time>2026-04-19T11:24:37.003Z</time></trkpt><trkpt lat="44.95439621205424" lon="7.1755079180832615"><ele>684.5</ele><time>2026-04-19T11:24:38.003Z</time></trkpt><trkpt lat="44.954422037755705" lon="7.175315354331849"><ele>685.0</ele><time>2026-04-19T11:24:39.003Z</time></trkpt><trkpt lat="44.95442971101345" lon="7.175113256640422"><ele>685.5</ele><time>2026-04-19T11:24:40.003Z</time></trkpt><trkpt lat="44.954413380853346" lon="7.17490828129534"><ele>686.0</ele><time>2026-04-19T11:24:41.003Z</time></trkpt><trkpt lat="44.95437526642545" lon="7.174708179947315"><ele>689.25</ele><time>2026-04-19T11:24:42.003Z</time></trkpt><trkpt lat="44.95432311139886" lon="7.174520543178347"><ele>692.5</ele><time>2026-04-19T11:24:43.003Z</time></trkpt><trkpt lat="44.954256705631465" lon="7.174349839225334"><ele>695.75</ele><time>2026-04-19T11:24:44.003Z</time></trkpt><trkpt lat="44.9541690245619" lon="7.174197895183436"><ele>699.0</ele><time>2026-04-19T11:24:45.003Z</time></trkpt><trkpt lat="44.95406614014642" lon="7.174078127903896"><ele>692.75</ele><time>2026-04-19T11:24:46.003Z</time></trkpt><trkpt lat="44.95394832221554" lon="7.173979741951361"><ele>686.5</ele><time>2026-04-19T11:24:47.003Z</time></trkpt><trkpt lat="44.95381775913864" lon="7.173927418027006"><ele>680.25</ele><time>2026-04-19T11:24:48.003Z</time></trkpt><trkpt lat="44.953673357403254" lon="7.173892965361379"><ele>674.0</ele><time>2026-04-19T11:24:49.003Z</time></trkpt><trkpt lat="44.953523307708664" lon="7.173855592541541"><ele>674.0</ele><time>2026-04-19T11:24:50.003Z</time></trkpt><trkpt lat="44.95337616330059" lon="7.173808122954749"><ele>674.0</ele><time>2026-04-19T11:24:51.003Z</time></trkpt><trkpt lat="44.95322131519621" lon="7.173757444368778"><ele>674.0</ele><time>2026-04-19T11:24:52.003Z</time></trkpt><trkpt lat="44.95306309950975" lon="7.173703191554476"><ele>662.3333333333333</ele><time>2026-04-19T11:24:53.003Z</time></trkpt><trkpt lat="44.952907793392065" lon="7.173648816313063"><ele>650.6666666666666</ele><time>2026-04-19T11:24:54.003Z</time></trkpt><trkpt lat="44.952749750847765" lon="7.173595728286698"><ele>639.0</ele><time>2026-04-19T11:24:55.003Z</time></trkpt><trkpt lat="44.95258315708704" lon="7.173541436933237"><ele>636.6666666666666</ele><time>2026-04-19T11:24:56.003Z</time></trkpt><trkpt lat="44.952429014397325" lon="7.173485653909876"><ele>634.3333333333333</ele><time>2026-04-19T11:24:57.003Z</time></trkpt><trkpt lat="44.952281854094664" lon="7.17343092228788"><ele>632.0</ele><time>2026-04-19T11:24:57.998Z</time></trkpt><trkpt lat="44.95213406547184" lon="7.17336041879666"><ele>632.0</ele><time>2026-04-19T11:24:58.998Z</time></trkpt><trkpt lat="44.95199067259911" lon="7.173271874982658"><ele>632.0</ele><time>2026-04-19T11:24:59.998Z</time></trkpt><trkpt lat="44.951859282416365" lon="7.173163843396678"><ele>632.0</ele><time>2026-04-19T11:25:00.998Z</time></trkpt><trkpt lat="44.95172534736878" lon="7.173029708374088"><ele>634.0</ele><time>2026-04-19T11:25:01.998Z</time></trkpt><trkpt lat="44.95159603204146" lon="7.172874715878591"><ele>636.0</ele><time>2026-04-19T11:25:02.998Z</time></trkpt><trkpt lat="44.95148554472175" lon="7.1727031863809305"><ele>638.0</ele><time>2026-04-19T11:25:03.998Z</time></trkpt><trkpt lat="44.951379821624165" lon="7.172508920894368"><ele>641.0</ele><time>2026-04-19T11:25:04.998Z</time></trkpt><trkpt lat="44.95129274164356" lon="7.172292887130958"><ele>644.0</ele><time>2026-04-19T11:25:05.999Z</time></trkpt><trkpt lat="44.95122693881989" lon="7.172063689595094"><ele>647.0</ele><time>2026-04-19T11:25:06.999Z</time></trkpt><trkpt lat="44.95117967479972" lon="7.171825074864407"><ele>647.0</ele><time>2026-04-19T11:25:07.999Z</time></trkpt><trkpt lat="44.95115433184124" lon="7.171576946316268"><ele>647.0</ele><time>2026-04-19T11:25:08.999Z</time></trkpt><trkpt lat="44.95114833077976" lon="7.171326613810694"><ele>647.0</ele><time>2026-04-19T11:25:09.999Z</time></trkpt><trkpt lat="44.95116022420049" lon="7.171074954341979"><ele>649.0</ele><time>2026-04-19T11:25:10.999Z</time></trkpt><trkpt lat="44.951174015368196" lon="7.170832327679666"><ele>651.0</ele><time>2026-04-19T11:25:11.999Z</time></trkpt><trkpt lat="44.95119558465615" lon="7.17058060458225"><ele>653.0</ele><time>2026-04-19T11:25:12.999Z</time></trkpt><trkpt lat="44.95121791598563" lon="7.170333130063271"><ele>655.6666666666666</ele><time>2026-04-19T11:25:13.999Z</time></trkpt><trkpt lat="44.9512323609982" lon="7.170087281244312"><ele>658.3333333333334</ele><time>2026-04-19T11:25:14.999Z</time></trkpt><trkpt lat="44.95125124663005" lon="7.169844959218406"><ele>661.0</ele><time>2026-04-19T11:25:15.999Z</time></trkpt><trkpt lat="44.95127652703955" lon="7.169594919928568"><ele>662.0</ele><time>2026-04-19T11:25:16.999Z</time></trkpt><trkpt lat="44.95129550532231" lon="7.169350850938807"><ele>663.0</ele><time>2026-04-19T11:25:17.999Z</time></trkpt><trkpt lat="44.951313830433044" lon="7.169096475547304"><ele>664.0</ele><time>2026-04-19T11:25:19Z</time></trkpt><trkpt lat="44.951328485674736" lon="7.168851984148945"><ele>665.3333333333334</ele><time>2026-04-19T11:25:20Z</time></trkpt><trkpt lat="44.95133229284251" lon="7.168606686012305"><ele>666.6666666666666</ele><time>2026-04-19T11:25:21Z</time></trkpt><trkpt lat="44.95132503889589" lon="7.168367276848154"><ele>668.0</ele><time>2026-04-19T11:25:22Z</time></trkpt><trkpt lat="44.95131365734652" lon="7.168129198851497"><ele>668.3333333333333</ele><time>2026-04-19T11:25:23Z</time></trkpt><trkpt lat="44.95129563498404" lon="7.167889312888509"><ele>668.6666666666666</ele><time>2026-04-19T11:25:24Z</time></trkpt><trkpt lat="44.951266497151316" lon="7.1676524812227855"><ele>669.0</ele><time>2026-04-19T11:25:25Z</time></trkpt><trkpt lat="44.951230226874266" lon="7.16741371608504"><ele>669.6666666666666</ele><time>2026-04-19T11:25:26Z</time></trkpt><trkpt lat="44.95119885234981" lon="7.167174789523818"><ele>670.3333333333333</ele><time>2026-04-19T11:25:27Z</time></trkpt><trkpt lat="44.95117028918788" lon="7.166933033468939"><ele>671.0</ele><time>2026-04-19T11:25:28Z</time></trkpt><trkpt lat="44.95114524792852" lon="7.166689820362243"><ele>676.3333333333333</ele><time>2026-04-19T11:25:29Z</time></trkpt><trkpt lat="44.951117671409584" lon="7.16645169085225"><ele>681.6666666666666</ele><time>2026-04-19T11:25:30Z</time></trkpt><trkpt lat="44.95108794218799" lon="7.166237997300343"><ele>687.0</ele><time>2026-04-19T11:25:31Z</time></trkpt><trkpt lat="44.95105417257444" lon="7.16603901148529"><ele>687.0</ele><time>2026-04-19T11:25:32Z</time></trkpt><trkpt lat="44.950990416498236" lon="7.165869564165348"><ele>687.0</ele><time>2026-04-19T11:25:33Z</time></trkpt><trkpt lat="44.95089437403432" lon="7.165750711611542"><ele>687.0</ele><time>2026-04-19T11:25:34Z</time></trkpt><trkpt lat="44.950779835460004" lon="7.165690915245625"><ele>687.0</ele><time>2026-04-19T11:25:35Z</time></trkpt><trkpt lat="44.95066804339048" lon="7.165704324860252"><ele>681.0</ele><time>2026-04-19T11:25:36Z</time></trkpt><trkpt lat="44.95057028275431" lon="7.165719349137129"><ele>675.0</ele><time>2026-04-19T11:25:37.001Z</time></trkpt><trkpt lat="44.9505014395029" lon="7.165659230565505"><ele>669.0</ele><time>2026-04-19T11:25:38.001Z</time></trkpt><trkpt lat="44.95044792367175" lon="7.165529428349457"><ele>663.0</ele><time>2026-04-19T11:25:39.001Z</time></trkpt><trkpt lat="44.950417744279285" lon="7.165351871920534"><ele>657.0</ele><time>2026-04-19T11:25:40.001Z</time></trkpt><trkpt lat="44.950394457346995" lon="7.16516582878"><ele>657.0</ele><time>2026-04-19T11:25:41.001Z</time></trkpt><trkpt lat="44.95035448379294" lon="7.164964017406828"><ele>657.0</ele><time>2026-04-19T11:25:42.001Z</time></trkpt><trkpt lat="44.95029542415111" lon="7.164757784924646"><ele>657.0</ele><time>2026-04-19T11:25:43.001Z</time></trkpt><trkpt lat="44.95021279518288" lon="7.164554574380793"><ele>658.0</ele><time>2026-04-19T11:25:44.001Z</time></trkpt><trkpt lat="44.95012632634925" lon="7.164350200678221"><ele>659.0</ele><time>2026-04-19T11:25:45.001Z</time></trkpt><trkpt lat="44.95004111841108" lon="7.164147852565335"><ele>660.0</ele><time>2026-04-19T11:25:46.001Z</time></trkpt><trkpt lat="44.949946041240295" lon="7.163940724287404"><ele>663.3333333333334</ele><time>2026-04-19T11:25:47.001Z</time></trkpt><trkpt lat="44.94984395662556" lon="7.163736160711691"><ele>666.6666666666667</ele><time>2026-04-19T11:25:48.001Z</time></trkpt><trkpt lat="44.94972995755493" lon="7.163545364267455"><ele>670.0</ele><time>2026-04-19T11:25:49.001Z</time></trkpt><trkpt lat="44.949608725603476" lon="7.163372533414941"><ele>670.0</ele><time>2026-04-19T11:25:50.001Z</time></trkpt><trkpt lat="44.949487360346716" lon="7.16320759481585"><ele>670.0</ele><time>2026-04-19T11:25:51.001Z</time></trkpt><trkpt lat="44.94937271654037" lon="7.1630569564701645"><ele>670.0</ele><time>2026-04-19T11:25:52.001Z</time></trkpt><trkpt lat="44.94926462171405" lon="7.162932830015279"><ele>675.0</ele><time>2026-04-19T11:25:53.001Z</time></trkpt><trkpt lat="44.94916457384816" lon="7.162860729881958"><ele>680.0</ele><time>2026-04-19T11:25:54.001Z</time></trkpt><trkpt lat="44.949054133530446" lon="7.162849370234105"><ele>685.0</ele><time>2026-04-19T11:25:55.001Z</time></trkpt><trkpt lat="44.94893557486323" lon="7.1628982362682"><ele>690.0</ele><time>2026-04-19T11:25:56.001Z</time></trkpt><trkpt lat="44.94881848720351" lon="7.162996155284496"><ele>690.0</ele><time>2026-04-19T11:25:57.001Z</time></trkpt><trkpt lat="44.94870574043572" lon="7.163126638553119"><ele>690.0</ele><time>2026-04-19T11:25:58.001Z</time></trkpt><trkpt lat="44.94858571871482" lon="7.1632646347700675"><ele>690.0</ele><time>2026-04-19T11:25:59.001Z</time></trkpt><trkpt lat="44.94846014800454" lon="7.1634051773871095"><ele>687.3333333333334</ele><time>2026-04-19T11:26:00.001Z</time></trkpt><trkpt lat="44.94832191698733" lon="7.1635420461453725"><ele>684.6666666666667</ele><time>2026-04-19T11:26:01.001Z</time></trkpt><trkpt lat="44.94816967535627" lon="7.163660037695251"><ele>682.0</ele><time>2026-04-19T11:26:02.001Z</time></trkpt><trkpt lat="44.94801433248384" lon="7.16375922464549"><ele>682.0</ele><time>2026-04-19T11:26:03.001Z</time></trkpt><trkpt lat="44.94785758109117" lon="7.163843591849048"><ele>682.0</ele><time>2026-04-19T11:26:04.001Z</time></trkpt><trkpt lat="44.94769603111904" lon="7.163903812374012"><ele>682.0</ele><time>2026-04-19T11:26:05.002Z</time></trkpt><trkpt lat="44.94752786710526" lon="7.163937546566722"><ele>678.3333333333334</ele><time>2026-04-19T11:26:06.002Z</time></trkpt><trkpt lat="44.94736099612949" lon="7.163956120652389"><ele>674.6666666666666</ele><time>2026-04-19T11:26:07.002Z</time></trkpt><trkpt lat="44.947200060051756" lon="7.163950812991744"><ele>671.0</ele><time>2026-04-19T11:26:08.002Z</time></trkpt><trkpt lat="44.94706331172257" lon="7.1639192897565795"><ele>671.0</ele><time>2026-04-19T11:26:09.002Z</time></trkpt><trkpt lat="44.94692886517716" lon="7.163865997584024"><ele>671.0</ele><time>2026-04-19T11:26:10.002Z</time></trkpt><trkpt lat="44.94679807967963" lon="7.163770229958414"><ele>671.0</ele><time>2026-04-19T11:26:11.002Z</time></trkpt><trkpt lat="44.94667797304292" lon="7.163628367615669"><ele>671.0</ele><time>2026-04-19T11:26:12.002Z</time></trkpt><trkpt lat="44.94655430546302" lon="7.163453513274827"><ele>671.0</ele><time>2026-04-19T11:26:13.002Z</time></trkpt><trkpt lat="44.94644170767152" lon="7.163257386194318"><ele>671.0</ele><time>2026-04-19T11:26:14.002Z</time></trkpt><trkpt lat="44.9463234536486" lon="7.1630495341599385"><ele>671.0</ele><time>2026-04-19T11:26:15.002Z</time></trkpt><trkpt lat="44.94619966968401" lon="7.162834822536274"><ele>671.6666666666666</ele><time>2026-04-19T11:26:16.002Z</time></trkpt><trkpt lat="44.94606863528365" lon="7.162614193893888"><ele>672.3333333333334</ele><time>2026-04-19T11:26:17.002Z</time></trkpt><trkpt lat="44.94594036818704" lon="7.162398159381795"><ele>673.0</ele><time>2026-04-19T11:26:18.002Z</time></trkpt><trkpt lat="44.94580863593415" lon="7.1621744405611825"><ele>670.3333333333334</ele><time>2026-04-19T11:26:19.002Z</time></trkpt><trkpt lat="44.94567980208115" lon="7.161950831130748"><ele>667.6666666666666</ele><time>2026-04-19T11:26:20.002Z</time></trkpt><trkpt lat="44.945549654150824" lon="7.161729645718901"><ele>665.0</ele><time>2026-04-19T11:26:21.002Z</time></trkpt><trkpt lat="44.94541874703856" lon="7.161555124022548"><ele>665.6666666666666</ele><time>2026-04-19T11:26:22.002Z</time></trkpt><trkpt lat="44.945260831041246" lon="7.161426877877846"><ele>666.3333333333334</ele><time>2026-04-19T11:26:23.002Z</time></trkpt><trkpt lat="44.945067691955195" lon="7.161349904617984"><ele>667.0</ele><time>2026-04-19T11:26:24.002Z</time></trkpt><trkpt lat="44.94488736343196" lon="7.161274716794809"><ele>667.0</ele><time>2026-04-19T11:26:25.002Z</time></trkpt><trkpt lat="44.944716238747006" lon="7.161156700661152"><ele>667.0</ele><time>2026-04-19T11:26:26.002Z</time></trkpt><trkpt lat="44.94456080479687" lon="7.161013715889935"><ele>667.0</ele><time>2026-04-19T11:26:27.002Z</time></trkpt><trkpt lat="44.94441521617648" lon="7.160842450094151"><ele>667.0</ele><time>2026-04-19T11:26:28.002Z</time></trkpt><trkpt lat="44.94427700554431" lon="7.160641652748946"><ele>667.0</ele><time>2026-04-19T11:26:29.002Z</time></trkpt><trkpt lat="44.94413547220086" lon="7.160437790725309"><ele>667.0</ele><time>2026-04-19T11:26:30.002Z</time></trkpt><trkpt lat="44.94399850279684" lon="7.160216092027024"><ele>668.0</ele><time>2026-04-19T11:26:31.002Z</time></trkpt><trkpt lat="44.943864921356344" lon="7.159994031513846"><ele>669.0</ele><time>2026-04-19T11:26:32.002Z</time></trkpt><trkpt lat="44.94374102180628" lon="7.159780250592626"><ele>670.0</ele><time>2026-04-19T11:26:33.002Z</time></trkpt><trkpt lat="44.94362428474178" lon="7.159584788124145"><ele>670.0</ele><time>2026-04-19T11:26:34.002Z</time></trkpt><trkpt lat="44.94348068749311" lon="7.159429984421835"><ele>670.0</ele><time>2026-04-19T11:26:35.002Z</time></trkpt><trkpt lat="44.94332727583715" lon="7.159307615216692"><ele>670.0</ele><time>2026-04-19T11:26:36.002Z</time></trkpt><trkpt lat="44.94314550944805" lon="7.15923352543241"><ele>673.0</ele><time>2026-04-19T11:26:37.003Z</time></trkpt><trkpt lat="44.94297090864262" lon="7.159172420510854"><ele>676.0</ele><time>2026-04-19T11:26:38.003Z</time></trkpt><trkpt lat="44.94278320941884" lon="7.15910050009064"><ele>679.0</ele><time>2026-04-19T11:26:39.003Z</time></trkpt><trkpt lat="44.94260539771314" lon="7.159016973805111"><ele>678.6666666666667</ele><time>2026-04-19T11:26:40.003Z</time></trkpt><trkpt lat="44.942441654708574" lon="7.158919519574665"><ele>678.3333333333334</ele><time>2026-04-19T11:26:41.003Z</time></trkpt><trkpt lat="44.94228008733413" lon="7.158800752104032"><ele>678.0</ele><time>2026-04-19T11:26:42.003Z</time></trkpt><trkpt lat="44.94215262012163" lon="7.158613043406483"><ele>678.0</ele><time>2026-04-19T11:26:43.003Z</time></trkpt><trkpt lat="44.942033290283014" lon="7.1584123107147635"><ele>678.0</ele><time>2026-04-19T11:26:44.003Z</time></trkpt><trkpt lat="44.94193978152174" lon="7.158196637052911"><ele>678.0</ele><time>2026-04-19T11:26:45.003Z</time></trkpt><trkpt lat="44.94184250141377" lon="7.157968710868291"><ele>682.0</ele><time>2026-04-19T11:26:46.003Z</time></trkpt><trkpt lat="44.941751751450774" lon="7.157739310924503"><ele>686.0</ele><time>2026-04-19T11:26:47.003Z</time></trkpt><trkpt lat="44.94168669237434" lon="7.157493820957216"><ele>690.0</ele><time>2026-04-19T11:26:48.003Z</time></trkpt><trkpt lat="44.941622155902515" lon="7.156968901064584"><ele>690.0</ele><time>2026-04-19T11:26:50.003Z</time></trkpt><trkpt lat="44.941593939135544" lon="7.1567065919719"><ele>690.0</ele><time>2026-04-19T11:26:51.003Z</time></trkpt><trkpt lat="44.94153973811667" lon="7.156460338627933"><ele>690.0</ele><time>2026-04-19T11:26:52.003Z</time></trkpt><trkpt lat="44.94147080891543" lon="7.156225011140599"><ele>689.0</ele><time>2026-04-19T11:26:53.003Z</time></trkpt><trkpt lat="44.941379762689174" lon="7.155991714948303"><ele>688.0</ele><time>2026-04-19T11:26:54.003Z</time></trkpt><trkpt lat="44.941276841160146" lon="7.155776745889684"><ele>687.0</ele><time>2026-04-19T11:26:55.003Z</time></trkpt><trkpt lat="44.94115450938304" lon="7.155609019217867"><ele>686.0</ele><time>2026-04-19T11:26:56.003Z</time></trkpt><trkpt lat="44.94100307143884" lon="7.155489641089791"><ele>685.0</ele><time>2026-04-19T11:26:57.003Z</time></trkpt><trkpt lat="44.940819800651006" lon="7.155372901322093"><ele>684.0</ele><time>2026-04-19T11:26:58.003Z</time></trkpt><trkpt lat="44.94066356030065" lon="7.155244277031311"><ele>684.0</ele><time>2026-04-19T11:26:59.003Z</time></trkpt><trkpt lat="44.94054322891428" lon="7.155099073247786"><ele>684.0</ele><time>2026-04-19T11:27:00.003Z</time></trkpt><trkpt lat="44.940464618897764" lon="7.154938290076892"><ele>684.0</ele><time>2026-04-19T11:27:01.003Z</time></trkpt><trkpt lat="44.94040319833618" lon="7.1547742435612225"><ele>684.0</ele><time>2026-04-19T11:27:02.003Z</time></trkpt><trkpt lat="44.94031458191525" lon="7.154656562071994"><ele>689.25</ele><time>2026-04-19T11:27:03.003Z</time></trkpt><trkpt lat="44.94019848576618" lon="7.154570279794935"><ele>694.5</ele><time>2026-04-19T11:27:03.999Z</time></trkpt><trkpt lat="44.94005090657077" lon="7.154560677005113"><ele>699.75</ele><time>2026-04-19T11:27:04.999Z</time></trkpt><trkpt lat="44.93988301645182" lon="7.154564623353855"><ele>705.0</ele><time>2026-04-19T11:27:05.999Z</time></trkpt><trkpt lat="44.939720172780106" lon="7.154527302866016"><ele>705.0</ele><time>2026-04-19T11:27:06.999Z</time></trkpt><trkpt lat="44.939565307303454" lon="7.1544246614051925"><ele>705.0</ele><time>2026-04-19T11:27:07.999Z</time></trkpt><trkpt lat="44.93941602707381" lon="7.154300689062858"><ele>705.0</ele><time>2026-04-19T11:27:08.999Z</time></trkpt><trkpt lat="44.939271047418025" lon="7.154151387732559"><ele>709.6666666666666</ele><time>2026-04-19T11:27:09.999Z</time></trkpt><trkpt lat="44.939139907091494" lon="7.153977977510714"><ele>714.3333333333333</ele><time>2026-04-19T11:27:10.999Z</time></trkpt><trkpt lat="44.9390122268393" lon="7.153786934196462"><ele>719.0</ele><time>2026-04-19T11:27:11.999Z</time></trkpt><trkpt lat="44.93889362930094" lon="7.153598428867783"><ele>719.0</ele><time>2026-04-19T11:27:12.999Z</time></trkpt><trkpt lat="44.93882918683696" lon="7.153353270609829"><ele>719.0</ele><time>2026-04-19T11:27:13.999Z</time></trkpt><trkpt lat="44.93877940289217" lon="7.153109598146877"><ele>719.0</ele><time>2026-04-19T11:27:14.999Z</time></trkpt><trkpt lat="44.93874686547401" lon="7.152847884140007"><ele>722.3333333333333</ele><time>2026-04-19T11:27:15.999Z</time></trkpt><trkpt lat="44.93873971945994" lon="7.152584226060035"><ele>725.6666666666666</ele><time>2026-04-19T11:27:16.999Z</time></trkpt><trkpt lat="44.93875975777343" lon="7.152325477502469"><ele>729.0</ele><time>2026-04-19T11:27:17.999Z</time></trkpt><trkpt lat="44.93882376139732" lon="7.152081665428335"><ele>729.0</ele><time>2026-04-19T11:27:18.999Z</time></trkpt><trkpt lat="44.93889799921685" lon="7.151854397083003"><ele>729.0</ele><time>2026-04-19T11:27:19.999Z</time></trkpt><trkpt lat="44.93896301121782" lon="7.151614660530537"><ele>729.0</ele><time>2026-04-19T11:27:21Z</time></trkpt><trkpt lat="44.9390061173884" lon="7.151378578669421"><ele>730.3333333333334</ele><time>2026-04-19T11:27:22Z</time></trkpt><trkpt lat="44.938999099529475" lon="7.151139476418344"><ele>731.6666666666667</ele><time>2026-04-19T11:27:23Z</time></trkpt><trkpt lat="44.9389476259604" lon="7.150890966276404"><ele>733.0</ele><time>2026-04-19T11:27:24Z</time></trkpt><trkpt lat="44.93887437781297" lon="7.150643094924675"><ele>735.6666666666667</ele><time>2026-04-19T11:27:25Z</time></trkpt><trkpt lat="44.938828539863266" lon="7.15040451011549"><ele>738.3333333333334</ele><time>2026-04-19T11:27:26Z</time></trkpt><trkpt lat="44.93877242350155" lon="7.150171008793242"><ele>741.0</ele><time>2026-04-19T11:27:27Z</time></trkpt><trkpt lat="44.93868197895396" lon="7.1499414100213015"><ele>746.3333333333334</ele><time>2026-04-19T11:27:28Z</time></trkpt><trkpt lat="44.93858485924969" lon="7.149715422521189"><ele>751.6666666666667</ele><time>2026-04-19T11:27:29Z</time></trkpt><trkpt lat="44.93847276065941" lon="7.149495359610803"><ele>757.0</ele><time>2026-04-19T11:27:30Z</time></trkpt><trkpt lat="44.93835163104303" lon="7.149291266428218"><ele>747.6666666666667</ele><time>2026-04-19T11:27:31Z</time></trkpt><trkpt lat="44.938226048583694" lon="7.149097148333703"><ele>738.3333333333334</ele><time>2026-04-19T11:27:32Z</time></trkpt><trkpt lat="44.93809419691565" lon="7.148894086320927"><ele>729.0</ele><time>2026-04-19T11:27:33Z</time></trkpt><trkpt lat="44.93797866727436" lon="7.148681436562979"><ele>729.0</ele><time>2026-04-19T11:27:34Z</time></trkpt><trkpt lat="44.93786530547208" lon="7.148468226059869"><ele>729.0</ele><time>2026-04-19T11:27:35Z</time></trkpt><trkpt lat="44.937768213713866" lon="7.148245419385228"><ele>729.0</ele><time>2026-04-19T11:27:36Z</time></trkpt><trkpt lat="44.93771549107895" lon="7.147988856793068"><ele>729.6666666666666</ele><time>2026-04-19T11:27:37Z</time></trkpt><trkpt lat="44.93763733285979" lon="7.147740587550316"><ele>730.3333333333333</ele><time>2026-04-19T11:27:38Z</time></trkpt><trkpt lat="44.937558648694484" lon="7.1474880441726905"><ele>731.0</ele><time>2026-04-19T11:27:39Z</time></trkpt><trkpt lat="44.93748898216894" lon="7.147249973733647"><ele>731.0</ele><time>2026-04-19T11:27:40.001Z</time></trkpt><trkpt lat="44.93744622648764" lon="7.147027574320952"><ele>731.0</ele><time>2026-04-19T11:27:41.001Z</time></trkpt><trkpt lat="44.93746323670624" lon="7.14683683143672"><ele>731.0</ele><time>2026-04-19T11:27:42.001Z</time></trkpt><trkpt lat="44.93750831755551" lon="7.146638641467112"><ele>731.0</ele><time>2026-04-19T11:27:43.001Z</time></trkpt><trkpt lat="44.93756582324517" lon="7.146409671244795"><ele>740.6666666666666</ele><time>2026-04-19T11:27:44.001Z</time></trkpt><trkpt lat="44.937622056615396" lon="7.146177447355122"><ele>750.3333333333334</ele><time>2026-04-19T11:27:45.001Z</time></trkpt><trkpt lat="44.937682319131355" lon="7.14592676330211"><ele>760.0</ele><time>2026-04-19T11:27:46.001Z</time></trkpt><trkpt lat="44.93774598265987" lon="7.1456619315153"><ele>760.0</ele><time>2026-04-19T11:27:47.001Z</time></trkpt><trkpt lat="44.9377957763662" lon="7.145390258950887"><ele>760.0</ele><time>2026-04-19T11:27:48.001Z</time></trkpt><trkpt lat="44.93786167083538" lon="7.145128433910288"><ele>760.0</ele><time>2026-04-19T11:27:49.001Z</time></trkpt><trkpt lat="44.93792947703959" lon="7.144866708967198"><ele>758.0</ele><time>2026-04-19T11:27:50.001Z</time></trkpt><trkpt lat="44.93798779264189" lon="7.1446069447200165"><ele>756.0</ele><time>2026-04-19T11:27:51.001Z</time></trkpt><trkpt lat="44.93805679961525" lon="7.144343345381104"><ele>754.0</ele><time>2026-04-19T11:27:52.001Z</time></trkpt><trkpt lat="44.93810455881426" lon="7.144091236240366"><ele>752.6666666666667</ele><time>2026-04-19T11:27:53.001Z</time></trkpt><trkpt lat="44.93810914436481" lon="7.143814568139586"><ele>751.3333333333334</ele><time>2026-04-19T11:27:54.001Z</time></trkpt><trkpt lat="44.938127258807356" lon="7.143543046835899"><ele>750.0</ele><time>2026-04-19T11:27:55.001Z</time></trkpt><trkpt lat="44.938128258394734" lon="7.143272542730035"><ele>750.6666666666666</ele><time>2026-04-19T11:27:56.001Z</time></trkpt><trkpt lat="44.93810620775411" lon="7.143001985126536"><ele>751.3333333333333</ele><time>2026-04-19T11:27:57.001Z</time></trkpt><trkpt lat="44.938077794241025" lon="7.14274732712124"><ele>752.0</ele><time>2026-04-19T11:27:58.001Z</time></trkpt><trkpt lat="44.938047355216426" lon="7.142516210064201"><ele>755.3333333333333</ele><time>2026-04-19T11:27:59.001Z</time></trkpt><trkpt lat="44.93796801160727" lon="7.142315425025774"><ele>758.6666666666666</ele><time>2026-04-19T11:28:00.001Z</time></trkpt><trkpt lat="44.93791241441195" lon="7.142097056498735"><ele>762.0</ele><time>2026-04-19T11:28:01.001Z</time></trkpt><trkpt lat="44.93789538549209" lon="7.141887892809538"><ele>762.0</ele><time>2026-04-19T11:28:02.001Z</time></trkpt><trkpt lat="44.937854361834084" lon="7.141662826111048"><ele>762.0</ele><time>2026-04-19T11:28:03.001Z</time></trkpt><trkpt lat="44.937802859689924" lon="7.141443010581113"><ele>762.0</ele><time>2026-04-19T11:28:04.001Z</time></trkpt><trkpt lat="44.93771455760363" lon="7.141235540852502"><ele>761.6666666666666</ele><time>2026-04-19T11:28:05.001Z</time></trkpt><trkpt lat="44.93760939453858" lon="7.1410422023677995"><ele>761.3333333333333</ele><time>2026-04-19T11:28:06.001Z</time></trkpt><trkpt lat="44.937519945638385" lon="7.140836439291226"><ele>761.0</ele><time>2026-04-19T11:28:07.001Z</time></trkpt><trkpt lat="44.93743772240805" lon="7.1406396238674725"><ele>761.0</ele><time>2026-04-19T11:28:08.002Z</time></trkpt><trkpt lat="44.93734340515279" lon="7.140456104832973"><ele>761.0</ele><time>2026-04-19T11:28:09.002Z</time></trkpt><trkpt lat="44.93723101281129" lon="7.140279731727592"><ele>761.0</ele><time>2026-04-19T11:28:10.002Z</time></trkpt><trkpt lat="44.93710135727432" lon="7.140113755501947"><ele>761.0</ele><time>2026-04-19T11:28:11.002Z</time></trkpt><trkpt lat="44.93696208279792" lon="7.139951210940539"><ele>761.0</ele><time>2026-04-19T11:28:12.002Z</time></trkpt><trkpt lat="44.93683137875275" lon="7.139773646170777"><ele>761.0</ele><time>2026-04-19T11:28:13.002Z</time></trkpt><trkpt lat="44.93668512692013" lon="7.139657206907766"><ele>758.0</ele><time>2026-04-19T11:28:14.002Z</time></trkpt><trkpt lat="44.93654799577323" lon="7.139529418707112"><ele>755.0</ele><time>2026-04-19T11:28:15.002Z</time></trkpt><trkpt lat="44.936427188869956" lon="7.139407478996051"><ele>752.0</ele><time>2026-04-19T11:28:16.002Z</time></trkpt><trkpt lat="44.93630566421549" lon="7.139293329775199"><ele>752.0</ele><time>2026-04-19T11:28:17.002Z</time></trkpt><trkpt lat="44.93621522055964" lon="7.139174490577372"><ele>752.0</ele><time>2026-04-19T11:28:18.002Z</time></trkpt><trkpt lat="44.93613716770087" lon="7.139056711700186"><ele>752.0</ele><time>2026-04-19T11:28:19.002Z</time></trkpt><trkpt lat="44.936076283908555" lon="7.138967942040988"><ele>752.0</ele><time>2026-04-19T11:28:20.002Z</time></trkpt><trkpt lat="44.936026118217974" lon="7.1388748062639795"><ele>752.0</ele><time>2026-04-19T11:28:22.002Z</time></trkpt><trkpt lat="44.93587752537655" lon="7.139069083266056"><ele>746.25</ele><time>2026-04-19T11:28:23.002Z</time></trkpt><trkpt lat="44.93581397123247" lon="7.139194674951428"><ele>740.5</ele><time>2026-04-19T11:28:24.002Z</time></trkpt><trkpt lat="44.935751315143236" lon="7.139335273106346"><ele>734.75</ele><time>2026-04-19T11:28:25.002Z</time></trkpt><trkpt lat="44.935697376542805" lon="7.139498291186617"><ele>729.0</ele><time>2026-04-19T11:28:26.002Z</time></trkpt><trkpt lat="44.93568303029817" lon="7.139665098111129"><ele>729.0</ele><time>2026-04-19T11:28:27.002Z</time></trkpt><trkpt lat="44.93571237966275" lon="7.139822161036774"><ele>729.0</ele><time>2026-04-19T11:28:28.002Z</time></trkpt><trkpt lat="44.935774315842664" lon="7.13998707296847"><ele>729.0</ele><time>2026-04-19T11:28:29.002Z</time></trkpt><trkpt lat="44.935833372591844" lon="7.140147961349349"><ele>729.0</ele><time>2026-04-19T11:28:30.002Z</time></trkpt><trkpt lat="44.935856652950484" lon="7.140333709833471"><ele>729.75</ele><time>2026-04-19T11:28:31.002Z</time></trkpt><trkpt lat="44.93588060202145" lon="7.140517225484268"><ele>730.5</ele><time>2026-04-19T11:28:32.002Z</time></trkpt><trkpt lat="44.935882421730874" lon="7.140708059575138"><ele>731.25</ele><time>2026-04-19T11:28:33.002Z</time></trkpt><trkpt lat="44.93586721358849" lon="7.1408957838551075"><ele>732.0</ele><time>2026-04-19T11:28:34.002Z</time></trkpt><trkpt lat="44.93585157488979" lon="7.141061626108423"><ele>732.6</ele><time>2026-04-19T11:28:35.002Z</time></trkpt><trkpt lat="44.93577224621695" lon="7.141171468869751"><ele>733.2</ele><time>2026-04-19T11:28:36.002Z</time></trkpt><trkpt lat="44.93568471188479" lon="7.141210307396878"><ele>733.8</ele><time>2026-04-19T11:28:37.002Z</time></trkpt><trkpt lat="44.935583032930154" lon="7.141212180415925"><ele>734.4</ele><time>2026-04-19T11:28:38.002Z</time></trkpt><trkpt lat="44.93546529332295" lon="7.14124146901516"><ele>735.0</ele><time>2026-04-19T11:28:39.002Z</time></trkpt><trkpt lat="44.93533024717286" lon="7.141261521655744"><ele>735.0</ele><time>2026-04-19T11:28:40.002Z</time></trkpt><trkpt lat="44.93518705624892" lon="7.141281829185296"><ele>735.0</ele><time>2026-04-19T11:28:41.003Z</time></trkpt><trkpt lat="44.93503428007438" lon="7.141298873752822"><ele>735.0</ele><time>2026-04-19T11:28:42.003Z</time></trkpt><trkpt lat="44.93487558529956" lon="7.141331780637362"><ele>740.0</ele><time>2026-04-19T11:28:43.003Z</time></trkpt><trkpt lat="44.93471762171245" lon="7.1413240719987465"><ele>745.0</ele><time>2026-04-19T11:28:44.003Z</time></trkpt><trkpt lat="44.934555245387486" lon="7.141356272864348"><ele>750.0</ele><time>2026-04-19T11:28:45.003Z</time></trkpt><trkpt lat="44.93438997602028" lon="7.14135413903928"><ele>750.0</ele><time>2026-04-19T11:28:46.003Z</time></trkpt><trkpt lat="44.93422604845059" lon="7.1413530104015726"><ele>750.0</ele><time>2026-04-19T11:28:47.003Z</time></trkpt><trkpt lat="44.934076147318" lon="7.141368810112149"><ele>750.0</ele><time>2026-04-19T11:28:48.003Z</time></trkpt><trkpt lat="44.93393932547163" lon="7.141395136805825"><ele>752.2</ele><time>2026-04-19T11:28:49.003Z</time></trkpt><trkpt lat="44.9338064834811" lon="7.141437941560393"><ele>754.4</ele><time>2026-04-19T11:28:50.003Z</time></trkpt><trkpt lat="44.93370877302001" lon="7.141478029228103"><ele>756.5999999999999</ele><time>2026-04-19T11:28:51.003Z</time></trkpt><trkpt lat="44.93365895956687" lon="7.141571574112509"><ele>758.8</ele><time>2026-04-19T11:28:52.003Z</time></trkpt><trkpt lat="44.93370501007585" lon="7.141684828177074"><ele>761.0</ele><time>2026-04-19T11:28:54.003Z</time></trkpt><trkpt lat="44.93379781632329" lon="7.141711711596564"><ele>762.25</ele><time>2026-04-19T11:28:55.003Z</time></trkpt><trkpt lat="44.93388957505659" lon="7.141701768008286"><ele>763.5</ele><time>2026-04-19T11:28:56.003Z</time></trkpt><trkpt lat="44.93401341598949" lon="7.141644035140109"><ele>764.75</ele><time>2026-04-19T11:28:57.003Z</time></trkpt><trkpt lat="44.93413922049015" lon="7.141624375211247"><ele>766.0</ele><time>2026-04-19T11:28:58.003Z</time></trkpt><trkpt lat="44.93427993798997" lon="7.1416076426553055"><ele>766.0</ele><time>2026-04-19T11:28:59.003Z</time></trkpt><trkpt lat="44.934421534824004" lon="7.141622255102282"><ele>766.0</ele><time>2026-04-19T11:29:00.003Z</time></trkpt><trkpt lat="44.9345766855579" lon="7.141624338809201"><ele>766.0</ele><time>2026-04-19T11:29:01.003Z</time></trkpt><trkpt lat="44.93473336534015" lon="7.141650090494875"><ele>766.0</ele><time>2026-04-19T11:29:02.003Z</time></trkpt><trkpt lat="44.9348917954645" lon="7.141679863417908"><ele>766.0</ele><time>2026-04-19T11:29:03.003Z</time></trkpt><trkpt lat="44.93503828074337" lon="7.141758292200228"><ele>766.0</ele><time>2026-04-19T11:29:04.003Z</time></trkpt><trkpt lat="44.93519233684141" lon="7.141819452742024"><ele>763.0</ele><time>2026-04-19T11:29:05.003Z</time></trkpt><trkpt lat="44.93534707813227" lon="7.141874666911603"><ele>760.0</ele><time>2026-04-19T11:29:06.003Z</time></trkpt><trkpt lat="44.935495865248626" lon="7.141948660950226"><ele>757.0</ele><time>2026-04-19T11:29:07.003Z</time></trkpt><trkpt lat="44.93564947044781" lon="7.142024982958724"><ele>757.0</ele><time>2026-04-19T11:29:08.003Z</time></trkpt><trkpt lat="44.93580003576202" lon="7.142108267935694"><ele>757.0</ele><time>2026-04-19T11:29:09.003Z</time></trkpt><trkpt lat="44.93591029319063" lon="7.142172210894719"><ele>757.0</ele><time>2026-04-19T11:29:09.999Z</time></trkpt><trkpt lat="44.93600696689929" lon="7.142229601385042"><ele>757.0</ele><time>2026-04-19T11:29:10.999Z</time></trkpt><trkpt lat="44.93604245246023" lon="7.1423465420226195"><ele>757.0</ele><time>2026-04-19T11:29:12.999Z</time></trkpt><trkpt lat="44.93593773733212" lon="7.1423195863756055"><ele>757.0</ele><time>2026-04-19T11:29:14.999Z</time></trkpt><trkpt lat="44.93586294793314" lon="7.142273289871821"><ele>757.0</ele><time>2026-04-19T11:29:15.999Z</time></trkpt><trkpt lat="44.93576740554688" lon="7.142237257934046"><ele>757.0</ele><time>2026-04-19T11:29:16.999Z</time></trkpt><trkpt lat="44.93565021011412" lon="7.1421855040238"><ele>757.0</ele><time>2026-04-19T11:29:17.999Z</time></trkpt><trkpt lat="44.93552606921876" lon="7.142165485233602"><ele>757.0</ele><time>2026-04-19T11:29:18.999Z</time></trkpt><trkpt lat="44.93538588011911" lon="7.142136187070136"><ele>757.0</ele><time>2026-04-19T11:29:20Z</time></trkpt><trkpt lat="44.93524673275351" lon="7.1421271227195104"><ele>757.0</ele><time>2026-04-19T11:29:21Z</time></trkpt><trkpt lat="44.93510300688231" lon="7.142130134029407"><ele>757.0</ele><time>2026-04-19T11:29:22Z</time></trkpt><trkpt lat="44.93495904017205" lon="7.142142628634328"><ele>759.25</ele><time>2026-04-19T11:29:23Z</time></trkpt><trkpt lat="44.93480909715817" lon="7.142171197669533"><ele>761.5</ele><time>2026-04-19T11:29:24Z</time></trkpt><trkpt lat="44.93467695151465" lon="7.1422127985980275"><ele>763.75</ele><time>2026-04-19T11:29:25Z</time></trkpt><trkpt lat="44.934569497774426" lon="7.1422652560109"><ele>766.0</ele><time>2026-04-19T11:29:26Z</time></trkpt><trkpt lat="44.93449347000642" lon="7.142336983251506"><ele>772.1999999999999</ele><time>2026-04-19T11:29:27Z</time></trkpt><trkpt lat="44.934449631558785" lon="7.142400915449094"><ele>778.4</ele><time>2026-04-19T11:29:28Z</time></trkpt><trkpt lat="44.934487047806456" lon="7.142565596070126"><ele>784.6</ele><time>2026-04-19T11:29:30Z</time></trkpt><trkpt lat="44.934583895878674" lon="7.1425673727146295"><ele>790.8</ele><time>2026-04-19T11:29:31Z</time></trkpt><trkpt lat="44.93468343027324" lon="7.142529994608068"><ele>797.0</ele><time>2026-04-19T11:29:32Z</time></trkpt><trkpt lat="44.934791202075594" lon="7.142456646643463"><ele>794.2</ele><time>2026-04-19T11:29:33Z</time></trkpt><trkpt lat="44.93490438066876" lon="7.142379185505721"><ele>791.4000000000001</ele><time>2026-04-19T11:29:34Z</time></trkpt><trkpt lat="44.93503464847349" lon="7.14237203350024"><ele>788.5999999999999</ele><time>2026-04-19T11:29:35Z</time></trkpt><trkpt lat="44.935151801068" lon="7.1423941251394"><ele>785.8</ele><time>2026-04-19T11:29:36Z</time></trkpt><trkpt lat="44.935221363839865" lon="7.142428533845231"><ele>783.0</ele><time>2026-04-19T11:29:37Z</time></trkpt><trkpt lat="44.93520905199266" lon="7.142534918987136"><ele>783.0</ele><time>2026-04-19T11:29:39Z</time></trkpt><trkpt lat="44.93515302190894" lon="7.142584517621455"><ele>783.0</ele><time>2026-04-19T11:29:40Z</time></trkpt><trkpt lat="44.93505763019435" lon="7.14252157530471"><ele>783.0</ele><time>2026-04-19T11:29:41Z</time></trkpt><trkpt lat="44.934951468890496" lon="7.142548074592921"><ele>783.0</ele><time>2026-04-19T11:29:42Z</time></trkpt><trkpt lat="44.93483769796869" lon="7.142619774421151"><ele>783.0</ele><time>2026-04-19T11:29:43.001Z</time></trkpt><trkpt lat="44.934712388203955" lon="7.142682675276315"><ele>785.25</ele><time>2026-04-19T11:29:44.001Z</time></trkpt><trkpt lat="44.934582985035306" lon="7.142749044666604"><ele>787.5</ele><time>2026-04-19T11:29:45.001Z</time></trkpt><trkpt lat="44.93445161579771" lon="7.142833813285139"><ele>789.75</ele><time>2026-04-19T11:29:46.001Z</time></trkpt><trkpt lat="44.93431921135975" lon="7.142927827429659"><ele>792.0</ele><time>2026-04-19T11:29:47.001Z</time></trkpt><trkpt lat="44.93419131412702" lon="7.1430313035053"><ele>792.0</ele><time>2026-04-19T11:29:48.001Z</time></trkpt><trkpt lat="44.93405705956517" lon="7.1431001362444535"><ele>792.0</ele><time>2026-04-19T11:29:49.001Z</time></trkpt><trkpt lat="44.93394054117124" lon="7.143164185296775"><ele>792.0</ele><time>2026-04-19T11:29:50.001Z</time></trkpt><trkpt lat="44.93385313587669" lon="7.143210894148672"><ele>792.0</ele><time>2026-04-19T11:29:51.001Z</time></trkpt><trkpt lat="44.93379808799457" lon="7.143268102012004"><ele>792.0</ele><time>2026-04-19T11:29:52.001Z</time></trkpt><trkpt lat="44.93378395730398" lon="7.143360704587549"><ele>796.4000000000001</ele><time>2026-04-19T11:29:53.001Z</time></trkpt><trkpt lat="44.93382125073261" lon="7.143456579582694"><ele>800.8000000000001</ele><time>2026-04-19T11:29:54.001Z</time></trkpt><trkpt lat="44.93389034855315" lon="7.14355035883745"><ele>805.2</ele><time>2026-04-19T11:29:55.001Z</time></trkpt><trkpt lat="44.93399919985287" lon="7.14353276534458"><ele>809.6</ele><time>2026-04-19T11:29:56.001Z</time></trkpt><trkpt lat="44.934103520713805" lon="7.1434833755116305"><ele>814.0</ele><time>2026-04-19T11:29:57.001Z</time></trkpt><trkpt lat="44.93420157070146" lon="7.1434195072201"><ele>815.5</ele><time>2026-04-19T11:29:58.001Z</time></trkpt><trkpt lat="44.934316196198544" lon="7.143429156532006"><ele>817.0</ele><time>2026-04-19T11:29:59.001Z</time></trkpt><trkpt lat="44.934435814392025" lon="7.143422801685021"><ele>818.5</ele><time>2026-04-19T11:30:00.001Z</time></trkpt><trkpt lat="44.93456509431756" lon="7.1434400880990605"><ele>820.0</ele><time>2026-04-19T11:30:01.001Z</time></trkpt><trkpt lat="44.934697148931086" lon="7.143446483868363"><ele>820.0</ele><time>2026-04-19T11:30:02.001Z</time></trkpt><trkpt lat="44.934835744884325" lon="7.143454508568306"><ele>820.0</ele><time>2026-04-19T11:30:03.001Z</time></trkpt><trkpt lat="44.934970390625615" lon="7.143467327757786"><ele>820.0</ele><time>2026-04-19T11:30:04.001Z</time></trkpt><trkpt lat="44.93510452703068" lon="7.143492887518749"><ele>820.0</ele><time>2026-04-19T11:30:05.001Z</time></trkpt><trkpt lat="44.935218518979745" lon="7.143524296851414"><ele>820.0</ele><time>2026-04-19T11:30:06.001Z</time></trkpt><trkpt lat="44.9352917777528" lon="7.143568781623108"><ele>820.0</ele><time>2026-04-19T11:30:07.001Z</time></trkpt><trkpt lat="44.93527315056004" lon="7.143712186911023"><ele>820.0</ele><time>2026-04-19T11:30:09.001Z</time></trkpt><trkpt lat="44.93516505353427" lon="7.143728733175412"><ele>820.0</ele><time>2026-04-19T11:30:10.001Z</time></trkpt><trkpt lat="44.93507099183931" lon="7.14378530330983"><ele>820.0</ele><time>2026-04-19T11:30:11.001Z</time></trkpt><trkpt lat="44.93498150274651" lon="7.143870190881157"><ele>820.0</ele><time>2026-04-19T11:30:12.001Z</time></trkpt><trkpt lat="44.93486537279828" lon="7.143956010770193"><ele>820.0</ele><time>2026-04-19T11:30:13.002Z</time></trkpt><trkpt lat="44.93475777175797" lon="7.144054224470424"><ele>820.0</ele><time>2026-04-19T11:30:14.002Z</time></trkpt><trkpt lat="44.93464248246094" lon="7.144151892916855"><ele>820.0</ele><time>2026-04-19T11:30:15.002Z</time></trkpt><trkpt lat="44.934527848722105" lon="7.144267635239633"><ele>823.0</ele><time>2026-04-19T11:30:16.002Z</time></trkpt><trkpt lat="44.9344209495444" lon="7.144400339119246"><ele>826.0</ele><time>2026-04-19T11:30:17.002Z</time></trkpt><trkpt lat="44.93431437372853" lon="7.144550811674061"><ele>829.0</ele><time>2026-04-19T11:30:18.002Z</time></trkpt><trkpt lat="44.93420885982558" lon="7.144713901561054"><ele>832.0</ele><time>2026-04-19T11:30:19.002Z</time></trkpt><trkpt lat="44.93410197770737" lon="7.144877796880767"><ele>837.0</ele><time>2026-04-19T11:30:20.002Z</time></trkpt><trkpt lat="44.93401409263713" lon="7.145068106860921"><ele>842.0</ele><time>2026-04-19T11:30:21.002Z</time></trkpt><trkpt lat="44.933951071947035" lon="7.145267124451421"><ele>847.0</ele><time>2026-04-19T11:30:22.002Z</time></trkpt><trkpt lat="44.93390636337765" lon="7.145479015422072"><ele>847.0</ele><time>2026-04-19T11:30:23.002Z</time></trkpt><trkpt lat="44.93387376691584" lon="7.145697687139472"><ele>847.0</ele><time>2026-04-19T11:30:24.002Z</time></trkpt><trkpt lat="44.93382327039302" lon="7.145879011906237"><ele>847.0</ele><time>2026-04-19T11:30:25.002Z</time></trkpt><trkpt lat="44.933766706234415" lon="7.146092771925808"><ele>851.0</ele><time>2026-04-19T11:30:26.002Z</time></trkpt><trkpt lat="44.93369606611872" lon="7.1462850656462225"><ele>855.0</ele><time>2026-04-19T11:30:27.002Z</time></trkpt><trkpt lat="44.933616420343554" lon="7.146451474655759"><ele>859.0</ele><time>2026-04-19T11:30:28.002Z</time></trkpt><trkpt lat="44.93353051713266" lon="7.146619230072249"><ele>863.0</ele><time>2026-04-19T11:30:29.002Z</time></trkpt><trkpt lat="44.93341899017069" lon="7.1467509149227935"><ele>861.75</ele><time>2026-04-19T11:30:30.002Z</time></trkpt><trkpt lat="44.93331910381533" lon="7.146897690098734"><ele>860.5</ele><time>2026-04-19T11:30:31.002Z</time></trkpt><trkpt lat="44.933187665421954" lon="7.146967683045324"><ele>859.25</ele><time>2026-04-19T11:30:32.002Z</time></trkpt><trkpt lat="44.933061034051846" lon="7.14705001274865"><ele>858.0</ele><time>2026-04-19T11:30:33.002Z</time></trkpt><trkpt lat="44.932938941671146" lon="7.147152924037975"><ele>858.0</ele><time>2026-04-19T11:30:34.002Z</time></trkpt><trkpt lat="44.932806802017126" lon="7.147244274159439"><ele>858.0</ele><time>2026-04-19T11:30:35.002Z</time></trkpt><trkpt lat="44.932676242839335" lon="7.14734432864671"><ele>858.0</ele><time>2026-04-19T11:30:36.002Z</time></trkpt><trkpt lat="44.93254244019805" lon="7.147445861682525"><ele>858.0</ele><time>2026-04-19T11:30:37.002Z</time></trkpt><trkpt lat="44.93240656332001" lon="7.147535815535867"><ele>861.5</ele><time>2026-04-19T11:30:38.002Z</time></trkpt><trkpt lat="44.93226121966087" lon="7.147566383288254"><ele>865.0</ele><time>2026-04-19T11:30:39.002Z</time></trkpt><trkpt lat="44.932125227455494" lon="7.1475681667929445"><ele>868.5</ele><time>2026-04-19T11:30:40.002Z</time></trkpt><trkpt lat="44.93197101708968" lon="7.147585385656637"><ele>872.0</ele><time>2026-04-19T11:30:41.002Z</time></trkpt><trkpt lat="44.931824404878235" lon="7.147658177566249"><ele>873.75</ele><time>2026-04-19T11:30:42.002Z</time></trkpt><trkpt lat="44.931688579158504" lon="7.147704465828919"><ele>875.5</ele><time>2026-04-19T11:30:43.002Z</time></trkpt><trkpt lat="44.931542148638144" lon="7.147686115791594"><ele>877.25</ele><time>2026-04-19T11:30:44.002Z</time></trkpt><trkpt lat="44.931400873069386" lon="7.147650383241235"><ele>879.0</ele><time>2026-04-19T11:30:45.002Z</time></trkpt><trkpt lat="44.93127214724825" lon="7.147593203574609"><ele>879.0</ele><time>2026-04-19T11:30:46.003Z</time></trkpt><trkpt lat="44.931131067602266" lon="7.147527904963002"><ele>879.0</ele><time>2026-04-19T11:30:47.003Z</time></trkpt><trkpt lat="44.93101353318512" lon="7.147518230336816"><ele>879.0</ele><time>2026-04-19T11:30:48.003Z</time></trkpt><trkpt lat="44.93091660072307" lon="7.147548960954212"><ele>879.0</ele><time>2026-04-19T11:30:49.003Z</time></trkpt><trkpt lat="44.93080107379532" lon="7.14763630260499"><ele>879.75</ele><time>2026-04-19T11:30:50.003Z</time></trkpt><trkpt lat="44.930666610702794" lon="7.147725277981788"><ele>880.5</ele><time>2026-04-19T11:30:51.003Z</time></trkpt><trkpt lat="44.93055434702631" lon="7.1477936758230545"><ele>881.25</ele><time>2026-04-19T11:30:52.003Z</time></trkpt><trkpt lat="44.93046166150641" lon="7.1478772087533375"><ele>882.0</ele><time>2026-04-19T11:30:53.003Z</time></trkpt><trkpt lat="44.930402878002425" lon="7.147985060764755"><ele>882.0</ele><time>2026-04-19T11:30:54.003Z</time></trkpt><trkpt lat="44.93038470223155" lon="7.148126523144262"><ele>882.0</ele><time>2026-04-19T11:30:55.003Z</time></trkpt><trkpt lat="44.93037329264202" lon="7.148301596478124"><ele>882.0</ele><time>2026-04-19T11:30:56.003Z</time></trkpt><trkpt lat="44.93035156954599" lon="7.1484774342663435"><ele>882.0</ele><time>2026-04-19T11:30:57.003Z</time></trkpt><trkpt lat="44.930314610871214" lon="7.148687719188683"><ele>888.0</ele><time>2026-04-19T11:30:58.003Z</time></trkpt><trkpt lat="44.93027240990499" lon="7.14889998119123"><ele>894.0</ele><time>2026-04-19T11:30:59.003Z</time></trkpt><trkpt lat="44.93022364205427" lon="7.149108273282136"><ele>900.0</ele><time>2026-04-19T11:31:00.003Z</time></trkpt><trkpt lat="44.93016688366577" lon="7.1492839242163555"><ele>906.0</ele><time>2026-04-19T11:31:01.003Z</time></trkpt><trkpt lat="44.93003900091871" lon="7.149378951295693"><ele>906.0</ele><time>2026-04-19T11:31:02.003Z</time></trkpt><trkpt lat="44.92992777101447" lon="7.149507715901101"><ele>906.0</ele><time>2026-04-19T11:31:03.003Z</time></trkpt><trkpt lat="44.92981002783155" lon="7.1496259851798944"><ele>906.0</ele><time>2026-04-19T11:31:04.003Z</time></trkpt><trkpt lat="44.929692659257945" lon="7.149736364364122"><ele>906.0</ele><time>2026-04-19T11:31:05.003Z</time></trkpt><trkpt lat="44.92957686638906" lon="7.149803680914529"><ele>906.0</ele><time>2026-04-19T11:31:06.003Z</time></trkpt><trkpt lat="44.92945623185051" lon="7.149822325715248"><ele>906.0</ele><time>2026-04-19T11:31:07.003Z</time></trkpt><trkpt lat="44.92933539639316" lon="7.149776150590513"><ele>906.0</ele><time>2026-04-19T11:31:08.003Z</time></trkpt><trkpt lat="44.92921158811086" lon="7.149787989418487"><ele>906.0</ele><time>2026-04-19T11:31:09.003Z</time></trkpt><trkpt lat="44.92910384236312" lon="7.149837754112563"><ele>910.25</ele><time>2026-04-19T11:31:10.003Z</time></trkpt><trkpt lat="44.92897457644222" lon="7.149914545508487"><ele>914.5</ele><time>2026-04-19T11:31:11.003Z</time></trkpt><trkpt lat="44.92883800862992" lon="7.150018918080196"><ele>918.75</ele><time>2026-04-19T11:31:12.003Z</time></trkpt><trkpt lat="44.9287122315353" lon="7.150131730510636"><ele>923.0</ele><time>2026-04-19T11:31:13.003Z</time></trkpt><trkpt lat="44.92857021475147" lon="7.150194424824667"><ele>923.0</ele><time>2026-04-19T11:31:14.003Z</time></trkpt><trkpt lat="44.92842951786667" lon="7.15024334713651"><ele>923.0</ele><time>2026-04-19T11:31:15.003Z</time></trkpt><trkpt lat="44.92828085165672" lon="7.150272852481626"><ele>923.0</ele><time>2026-04-19T11:31:15.999Z</time></trkpt><trkpt lat="44.92812935189313" lon="7.150281013217592"><ele>923.0</ele><time>2026-04-19T11:31:16.999Z</time></trkpt><trkpt lat="44.927979493346626" lon="7.150294017848552"><ele>923.0</ele><time>2026-04-19T11:31:17.999Z</time></trkpt><trkpt lat="44.92782694274334" lon="7.150321624811552"><ele>923.0</ele><time>2026-04-19T11:31:18.999Z</time></trkpt><trkpt lat="44.927690698432116" lon="7.150412645243083"><ele>923.0</ele><time>2026-04-19T11:31:19.999Z</time></trkpt><trkpt lat="44.92756500179163" lon="7.150498300276384"><ele>923.0</ele><time>2026-04-19T11:31:20.999Z</time></trkpt><trkpt lat="44.92745041831819" lon="7.150603003530147"><ele>922.6666666666667</ele><time>2026-04-19T11:31:21.999Z</time></trkpt><trkpt lat="44.92730679384462" lon="7.150687426813424"><ele>922.3333333333333</ele><time>2026-04-19T11:31:22.999Z</time></trkpt><trkpt lat="44.927174552631215" lon="7.1507827648707405"><ele>922.0</ele><time>2026-04-19T11:31:24Z</time></trkpt><trkpt lat="44.92704625985432" lon="7.150883783826829"><ele>926.0</ele><time>2026-04-19T11:31:25Z</time></trkpt><trkpt lat="44.926910517869636" lon="7.150938011152429"><ele>930.0</ele><time>2026-04-19T11:31:26Z</time></trkpt><trkpt lat="44.9267902611653" lon="7.150962457840105"><ele>934.0</ele><time>2026-04-19T11:31:27Z</time></trkpt><trkpt lat="44.92668080718195" lon="7.150995947692497"><ele>938.0</ele><time>2026-04-19T11:31:28Z</time></trkpt><trkpt lat="44.92659831743154" lon="7.15103970930832"><ele>938.0000000000001</ele><time>2026-04-19T11:31:29Z</time></trkpt><trkpt lat="44.92654642352921" lon="7.151110007303541"><ele>938.0</ele><time>2026-04-19T11:31:30Z</time></trkpt><trkpt lat="44.92657220180599" lon="7.151240679831762"><ele>938.0</ele><time>2026-04-19T11:31:31Z</time></trkpt><trkpt lat="44.926625134395984" lon="7.151308369775944"><ele>938.0</ele><time>2026-04-19T11:31:32Z</time></trkpt><trkpt lat="44.9267140248875" lon="7.1513193153932875"><ele>938.0000000000001</ele><time>2026-04-19T11:31:33Z</time></trkpt><trkpt lat="44.92682476592817" lon="7.151279642839665"><ele>938.0</ele><time>2026-04-19T11:31:34Z</time></trkpt><trkpt lat="44.92695229198369" lon="7.1512265368113255"><ele>939.75</ele><time>2026-04-19T11:31:35Z</time></trkpt><trkpt lat="44.927085784354496" lon="7.151244016324134"><ele>941.5</ele><time>2026-04-19T11:31:36Z</time></trkpt><trkpt lat="44.927230995122954" lon="7.1512600695409585"><ele>943.25</ele><time>2026-04-19T11:31:37Z</time></trkpt><trkpt lat="44.927391195598275" lon="7.151243033198082"><ele>945.0</ele><time>2026-04-19T11:31:38Z</time></trkpt><trkpt lat="44.92754906055443" lon="7.151245715303462"><ele>946.0</ele><time>2026-04-19T11:31:39Z</time></trkpt><trkpt lat="44.927721123024135" lon="7.15125312918062"><ele>947.0</ele><time>2026-04-19T11:31:40Z</time></trkpt><trkpt lat="44.92789526907129" lon="7.151257095022978"><ele>948.0</ele><time>2026-04-19T11:31:41Z</time></trkpt><trkpt lat="44.928068663983574" lon="7.151281722192882"><ele>948.0</ele><time>2026-04-19T11:31:42Z</time></trkpt><trkpt lat="44.92824535851301" lon="7.15131376456019"><ele>948.0</ele><time>2026-04-19T11:31:43Z</time></trkpt><trkpt lat="44.928428146779886" lon="7.151354135245837"><ele>948.0</ele><time>2026-04-19T11:31:44Z</time></trkpt><trkpt lat="44.92860168660809" lon="7.151386367427426"><ele>947.6666666666667</ele><time>2026-04-19T11:31:45Z</time></trkpt><trkpt lat="44.9287710952998" lon="7.151406934463629"><ele>947.3333333333334</ele><time>2026-04-19T11:31:46Z</time></trkpt><trkpt lat="44.92894085176385" lon="7.151395768179728"><ele>947.0</ele><time>2026-04-19T11:31:47Z</time></trkpt><trkpt lat="44.92910251011858" lon="7.151356117443798"><ele>947.5</ele><time>2026-04-19T11:31:48Z</time></trkpt><trkpt lat="44.929244797274094" lon="7.151324630293301"><ele>948.0</ele><time>2026-04-19T11:31:49Z</time></trkpt><trkpt lat="44.92936711160642" lon="7.151325648977632"><ele>948.5</ele><time>2026-04-19T11:31:50Z</time></trkpt><trkpt lat="44.92947019166574" lon="7.1514195668363065"><ele>949.0</ele><time>2026-04-19T11:31:51.001Z</time></trkpt><trkpt lat="44.929602154586114" lon="7.151504793637961"><ele>956.3333333333333</ele><time>2026-04-19T11:31:52.001Z</time></trkpt><trkpt lat="44.92973072613431" lon="7.151648371858661"><ele>963.6666666666667</ele><time>2026-04-19T11:31:53.001Z</time></trkpt><trkpt lat="44.929857194574296" lon="7.151779425025875"><ele>971.0</ele><time>2026-04-19T11:31:54.001Z</time></trkpt><trkpt lat="44.92998820040667" lon="7.151889896900441"><ele>974.25</ele><time>2026-04-19T11:31:55.001Z</time></trkpt><trkpt lat="44.93013350229567" lon="7.1519810529690675"><ele>977.5</ele><time>2026-04-19T11:31:56.001Z</time></trkpt><trkpt lat="44.93028386522811" lon="7.152043578027583"><ele>980.75</ele><time>2026-04-19T11:31:57.001Z</time></trkpt><trkpt lat="44.93041479659209" lon="7.152072495150564"><ele>984.0</ele><time>2026-04-19T11:31:58.001Z</time></trkpt><trkpt lat="44.93053020778154" lon="7.152102441244073"><ele>984.0</ele><time>2026-04-19T11:31:59.001Z</time></trkpt><trkpt lat="44.9306279629477" lon="7.152108305703417"><ele>984.0</ele><time>2026-04-19T11:32:00.001Z</time></trkpt><trkpt lat="44.93068737094145" lon="7.152149077710016"><ele>984.0</ele><time>2026-04-19T11:32:01.001Z</time></trkpt><trkpt lat="44.93066532466503" lon="7.152284510820445"><ele>984.0</ele><time>2026-04-19T11:32:03.001Z</time></trkpt><trkpt lat="44.93060213566652" lon="7.152333521295104"><ele>984.0</ele><time>2026-04-19T11:32:04.001Z</time></trkpt><trkpt lat="44.93049929794909" lon="7.1522877278075745"><ele>984.0</ele><time>2026-04-19T11:32:05.001Z</time></trkpt><trkpt lat="44.930372904804095" lon="7.152295138621805"><ele>984.0</ele><time>2026-04-19T11:32:06.001Z</time></trkpt><trkpt lat="44.930229914350114" lon="7.152291235574441"><ele>984.0</ele><time>2026-04-19T11:32:07.001Z</time></trkpt><trkpt lat="44.93007151728784" lon="7.152255514123299"><ele>984.0</ele><time>2026-04-19T11:32:08.001Z</time></trkpt><trkpt lat="44.92991714905551" lon="7.152205556601803"><ele>979.6666666666667</ele><time>2026-04-19T11:32:09.001Z</time></trkpt><trkpt lat="44.92975235651301" lon="7.152151051176604"><ele>975.3333333333334</ele><time>2026-04-19T11:32:10.001Z</time></trkpt><trkpt lat="44.92959901682129" lon="7.152139566805095"><ele>971.0</ele><time>2026-04-19T11:32:11.001Z</time></trkpt><trkpt lat="44.92945617607406" lon="7.152117173458249"><ele>971.0</ele><time>2026-04-19T11:32:12.001Z</time></trkpt><trkpt lat="44.929327927375006" lon="7.152118356730756"><ele>971.0</ele><time>2026-04-19T11:32:13.001Z</time></trkpt><trkpt lat="44.92919673062657" lon="7.152155797333942"><ele>971.0</ele><time>2026-04-19T11:32:14.001Z</time></trkpt><trkpt lat="44.92906177203059" lon="7.152242066004362"><ele>971.0</ele><time>2026-04-19T11:32:15.001Z</time></trkpt><trkpt lat="44.928907393887286" lon="7.152309892450782"><ele>978.0</ele><time>2026-04-19T11:32:16.001Z</time></trkpt><trkpt lat="44.92876908321661" lon="7.15237599929873"><ele>985.0</ele><time>2026-04-19T11:32:17.001Z</time></trkpt><trkpt lat="44.92865800463135" lon="7.152450403785508"><ele>992.0</ele><time>2026-04-19T11:32:18.001Z</time></trkpt><trkpt lat="44.92855589720316" lon="7.152524312916883"><ele>999.0</ele><time>2026-04-19T11:32:19.001Z</time></trkpt><trkpt lat="44.9284815329005" lon="7.152655848379966"><ele>999.0</ele><time>2026-04-19T11:32:20.001Z</time></trkpt><trkpt lat="44.928422395096135" lon="7.152819254879087"><ele>999.0</ele><time>2026-04-19T11:32:21.001Z</time></trkpt><trkpt lat="44.92835311330391" lon="7.1529719009314805"><ele>999.0</ele><time>2026-04-19T11:32:22.002Z</time></trkpt><trkpt lat="44.9282491567551" lon="7.153095615446369"><ele>999.0</ele><time>2026-04-19T11:32:23.002Z</time></trkpt><trkpt lat="44.92813644715658" lon="7.153188568339582"><ele>1001.25</ele><time>2026-04-19T11:32:24.002Z</time></trkpt><trkpt lat="44.92802219389884" lon="7.153298238996276"><ele>1003.5</ele><time>2026-04-19T11:32:25.002Z</time></trkpt><trkpt lat="44.92791560519114" lon="7.153419313440582"><ele>1005.75</ele><time>2026-04-19T11:32:26.002Z</time></trkpt><trkpt lat="44.92777772209914" lon="7.153507818223404"><ele>1008.0</ele><time>2026-04-19T11:32:27.002Z</time></trkpt><trkpt lat="44.92765793898343" lon="7.153530514049293"><ele>1007.0</ele><time>2026-04-19T11:32:28.002Z</time></trkpt><trkpt lat="44.927556826692054" lon="7.153548563085835"><ele>1006.0</ele><time>2026-04-19T11:32:29.002Z</time></trkpt><trkpt lat="44.92747616036957" lon="7.1535887615516005"><ele>1005.0</ele><time>2026-04-19T11:32:30.002Z</time></trkpt><trkpt lat="44.92739419847102" lon="7.153634592856341"><ele>1004.0</ele><time>2026-04-19T11:32:32.002Z</time></trkpt><trkpt lat="44.927408512515925" lon="7.153750880780274"><ele>1003.0</ele><time>2026-04-19T11:32:33.002Z</time></trkpt><trkpt lat="44.927484621423226" lon="7.153822576027325"><ele>1003.0</ele><time>2026-04-19T11:32:34.002Z</time></trkpt><trkpt lat="44.92756020198143" lon="7.153872303561694"><ele>1003.0</ele><time>2026-04-19T11:32:35.002Z</time></trkpt><trkpt lat="44.92766456426377" lon="7.153878523245087"><ele>1003.0</ele><time>2026-04-19T11:32:36.002Z</time></trkpt><trkpt lat="44.92777210616358" lon="7.153870497688848"><ele>1003.0</ele><time>2026-04-19T11:32:37.002Z</time></trkpt><trkpt lat="44.92789078848989" lon="7.153833478649779"><ele>1003.0</ele><time>2026-04-19T11:32:38.002Z</time></trkpt><trkpt lat="44.92801600171459" lon="7.153787753573557"><ele>1004.25</ele><time>2026-04-19T11:32:39.002Z</time></trkpt><trkpt lat="44.92815418241453" lon="7.153757548569446"><ele>1005.5</ele><time>2026-04-19T11:32:40.002Z</time></trkpt><trkpt lat="44.92830308595133" lon="7.153745395498056"><ele>1006.75</ele><time>2026-04-19T11:32:41.002Z</time></trkpt><trkpt lat="44.92845442187833" lon="7.153743149164669"><ele>1008.0</ele><time>2026-04-19T11:32:42.002Z</time></trkpt><trkpt lat="44.92860911475387" lon="7.153723918379632"><ele>1013.0</ele><time>2026-04-19T11:32:43.002Z</time></trkpt><trkpt lat="44.92876783024609" lon="7.153671419106693"><ele>1018.0</ele><time>2026-04-19T11:32:44.002Z</time></trkpt><trkpt lat="44.92891731687503" lon="7.153607027462324"><ele>1023.0</ele><time>2026-04-19T11:32:45.002Z</time></trkpt><trkpt lat="44.929066876566395" lon="7.153544949024748"><ele>1023.0</ele><time>2026-04-19T11:32:46.002Z</time></trkpt><trkpt lat="44.92921213838381" lon="7.153493638975444"><ele>1023.0</ele><time>2026-04-19T11:32:47.002Z</time></trkpt><trkpt lat="44.929358470541054" lon="7.1534387332063165"><ele>1023.0</ele><time>2026-04-19T11:32:48.002Z</time></trkpt><trkpt lat="44.929500108091986" lon="7.153419364252851"><ele>1023.0</ele><time>2026-04-19T11:32:49.002Z</time></trkpt><trkpt lat="44.92961142001016" lon="7.1533833736230825"><ele>1024.0</ele><time>2026-04-19T11:32:50.002Z</time></trkpt><trkpt lat="44.9296928080818" lon="7.153375162487488"><ele>1025.0</ele><time>2026-04-19T11:32:51.002Z</time></trkpt><trkpt lat="44.92977091726428" lon="7.153443380895809"><ele>1026.0</ele><time>2026-04-19T11:32:53.002Z</time></trkpt><trkpt lat="44.92968298333198" lon="7.153557260205156"><ele>1027.0</ele><time>2026-04-19T11:32:55.003Z</time></trkpt><trkpt lat="44.929610425827356" lon="7.153604708241021"><ele>1028.0</ele><time>2026-04-19T11:32:56.003Z</time></trkpt><trkpt lat="44.929524258342184" lon="7.153682042335034"><ele>1028.0</ele><time>2026-04-19T11:32:57.003Z</time></trkpt><trkpt lat="44.92942317851388" lon="7.153739511177158"><ele>1028.0</ele><time>2026-04-19T11:32:58.003Z</time></trkpt><trkpt lat="44.929318273486516" lon="7.153821742995468"><ele>1028.0</ele><time>2026-04-19T11:32:59.003Z</time></trkpt><trkpt lat="44.92920950847872" lon="7.153913370535357"><ele>1028.0</ele><time>2026-04-19T11:33:00.003Z</time></trkpt><trkpt lat="44.92910745386353" lon="7.153995195486906"><ele>1032.0</ele><time>2026-04-19T11:33:01.003Z</time></trkpt><trkpt lat="44.92902165969236" lon="7.154059626248072"><ele>1036.0</ele><time>2026-04-19T11:33:02.003Z</time></trkpt><trkpt lat="44.92895867679444" lon="7.154133447089483"><ele>1040.0</ele><time>2026-04-19T11:33:03.003Z</time></trkpt><trkpt lat="44.928939870558104" lon="7.154220853107028"><ele>1044.0</ele><time>2026-04-19T11:33:04.003Z</time></trkpt><trkpt lat="44.92904135811685" lon="7.154345313250151"><ele>1048.0</ele><time>2026-04-19T11:33:06.003Z</time></trkpt><trkpt lat="44.92912918916443" lon="7.154349206209066"><ele>1048.0</ele><time>2026-04-19T11:33:07.003Z</time></trkpt><trkpt lat="44.92922124487381" lon="7.154308347594761"><ele>1048.0</ele><time>2026-04-19T11:33:08.003Z</time></trkpt><trkpt lat="44.92932685341318" lon="7.154262665710073"><ele>1048.0</ele><time>2026-04-19T11:33:09.003Z</time></trkpt><trkpt lat="44.92944033101553" lon="7.154212287594532"><ele>1048.0</ele><time>2026-04-19T11:33:10.003Z</time></trkpt><trkpt lat="44.92955788114228" lon="7.154178462116051"><ele>1048.0</ele><time>2026-04-19T11:33:11.003Z</time></trkpt><trkpt lat="44.92968573615782" lon="7.154154840459573"><ele>1048.75</ele><time>2026-04-19T11:33:12.003Z</time></trkpt><trkpt lat="44.929816103705434" lon="7.154181009883483"><ele>1049.5</ele><time>2026-04-19T11:33:13.003Z</time></trkpt><trkpt lat="44.92994159185722" lon="7.154207149567842"><ele>1050.25</ele><time>2026-04-19T11:33:14.003Z</time></trkpt><trkpt lat="44.9300642214757" lon="7.154226386295165"><ele>1051.0</ele><time>2026-04-19T11:33:15.003Z</time></trkpt><trkpt lat="44.93018548907419" lon="7.154290888805366"><ele>1051.0</ele><time>2026-04-19T11:33:16.003Z</time></trkpt><trkpt lat="44.93029871342636" lon="7.154375109568833"><ele>1051.0</ele><time>2026-04-19T11:33:17.003Z</time></trkpt><trkpt lat="44.930416300562904" lon="7.154477322840557"><ele>1051.0</ele><time>2026-04-19T11:33:18.003Z</time></trkpt><trkpt lat="44.93050168903725" lon="7.154602931590746"><ele>1051.0</ele><time>2026-04-19T11:33:19.003Z</time></trkpt><trkpt lat="44.93059838065031" lon="7.154725427373158"><ele>1051.0</ele><time>2026-04-19T11:33:20.003Z</time></trkpt><trkpt lat="44.93065064045992" lon="7.154808388606447"><ele>1051.0</ele><time>2026-04-19T11:33:21.003Z</time></trkpt><trkpt lat="44.930735887636324" lon="7.154904557384375"><ele>1051.0</ele><time>2026-04-19T11:35:33Z</time></trkpt><trkpt lat="44.93079411715689" lon="7.154969355808456"><ele>1051.0</ele><time>2026-04-19T11:35:34Z</time></trkpt><trkpt lat="44.930850690415554" lon="7.155066136731072"><ele>1051.0</ele><time>2026-04-19T11:35:35Z</time></trkpt><trkpt lat="44.93094241753558" lon="7.155139835743643"><ele>1053.0</ele><time>2026-04-19T11:35:36Z</time></trkpt><trkpt lat="44.93103608507825" lon="7.1552344451360455"><ele>1055.0</ele><time>2026-04-19T11:35:37Z</time></trkpt><trkpt lat="44.93113942647524" lon="7.155284812790653"><ele>1057.0</ele><time>2026-04-19T11:35:38Z</time></trkpt><trkpt lat="44.93121911735952" lon="7.15531655030515"><ele>1059.0</ele><time>2026-04-19T11:35:39Z</time></trkpt><trkpt lat="44.93128102495056" lon="7.155365596737942"><ele>1061.0</ele><time>2026-04-19T11:35:41Z</time></trkpt><trkpt lat="44.93116469463038" lon="7.155390423497454"><ele>1061.0</ele><time>2026-04-19T11:35:44Z</time></trkpt><trkpt lat="44.93108870334027" lon="7.15538955303111"><ele>1061.0</ele><time>2026-04-19T11:35:45Z</time></trkpt><trkpt lat="44.93098752996224" lon="7.155384348023672"><ele>1061.0</ele><time>2026-04-19T11:35:46Z</time></trkpt><trkpt lat="44.9308719906652" lon="7.155397755976628"><ele>1061.0</ele><time>2026-04-19T11:35:47Z</time></trkpt><trkpt lat="44.930758321877775" lon="7.155362706265818"><ele>1061.0</ele><time>2026-04-19T11:35:48Z</time></trkpt><trkpt lat="44.930646147814834" lon="7.15526050118725"><ele>1063.25</ele><time>2026-04-19T11:35:49Z</time></trkpt><trkpt lat="44.930529886346555" lon="7.155251053339366"><ele>1065.5</ele><time>2026-04-19T11:35:50Z</time></trkpt><trkpt lat="44.93040464374951" lon="7.155268975738879"><ele>1067.75</ele><time>2026-04-19T11:35:51Z</time></trkpt><trkpt lat="44.93026896973141" lon="7.155293769634282"><ele>1070.0</ele><time>2026-04-19T11:35:52Z</time></trkpt><trkpt lat="44.930135704466544" lon="7.155306435453764"><ele>1071.5</ele><time>2026-04-19T11:35:53Z</time></trkpt><trkpt lat="44.93001143637341" lon="7.155328959342591"><ele>1073.0</ele><time>2026-04-19T11:35:54Z</time></trkpt><trkpt lat="44.92990434809177" lon="7.155382388864059"><ele>1074.5</ele><time>2026-04-19T11:35:55Z</time></trkpt><trkpt lat="44.929804478399696" lon="7.155473132222824"><ele>1076.0</ele><time>2026-04-19T11:35:56.001Z</time></trkpt><trkpt lat="44.92971735595271" lon="7.155573459334262"><ele>1076.0</ele><time>2026-04-19T11:35:57.001Z</time></trkpt><trkpt lat="44.92962590863429" lon="7.1556805215228305"><ele>1076.0</ele><time>2026-04-19T11:35:58.001Z</time></trkpt><trkpt lat="44.929542824062864" lon="7.155819463671939"><ele>1076.0</ele><time>2026-04-19T11:35:59.001Z</time></trkpt><trkpt lat="44.929465759696974" lon="7.155981488553908"><ele>1076.0</ele><time>2026-04-19T11:36:00.001Z</time></trkpt><trkpt lat="44.92937164377238" lon="7.156147904665316"><ele>1079.3333333333335</ele><time>2026-04-19T11:36:01.001Z</time></trkpt><trkpt lat="44.92926910186108" lon="7.156334872321399"><ele>1082.6666666666667</ele><time>2026-04-19T11:36:02.001Z</time></trkpt><trkpt lat="44.92914494443712" lon="7.156486579137382"><ele>1086.0</ele><time>2026-04-19T11:36:03.001Z</time></trkpt><trkpt lat="44.92902101540757" lon="7.156651116502402"><ele>1093.3333333333333</ele><time>2026-04-19T11:36:04.001Z</time></trkpt><trkpt lat="44.928912361831145" lon="7.156816644487905"><ele>1100.6666666666665</ele><time>2026-04-19T11:36:05.001Z</time></trkpt><trkpt lat="44.9287833707724" lon="7.156956027442966"><ele>1108.0</ele><time>2026-04-19T11:36:06.001Z</time></trkpt><trkpt lat="44.92867067474693" lon="7.1570690302996995"><ele>1108.0</ele><time>2026-04-19T11:36:07.001Z</time></trkpt><trkpt lat="44.92857837381189" lon="7.157156774037383"><ele>1108.0</ele><time>2026-04-19T11:36:08.001Z</time></trkpt><trkpt lat="44.9284960407606" lon="7.15723294584125"><ele>1108.0</ele><time>2026-04-19T11:36:09.001Z</time></trkpt><trkpt lat="44.92839294685936" lon="7.157240555581368"><ele>1108.0</ele><time>2026-04-19T11:36:10.001Z</time></trkpt><trkpt lat="44.928297456493596" lon="7.157211298683051"><ele>1108.0</ele><time>2026-04-19T11:36:11.001Z</time></trkpt><trkpt lat="44.92819700330309" lon="7.157186346118742"><ele>1109.1666666666665</ele><time>2026-04-19T11:36:12.001Z</time></trkpt><trkpt lat="44.928115175910605" lon="7.15718680743658"><ele>1110.3333333333333</ele><time>2026-04-19T11:36:13.001Z</time></trkpt><trkpt lat="44.92805289823789" lon="7.157200394883047"><ele>1111.5</ele><time>2026-04-19T11:36:14.001Z</time></trkpt><trkpt lat="44.927996441827744" lon="7.157320212349203"><ele>1112.6666666666667</ele><time>2026-04-19T11:36:16.001Z</time></trkpt><trkpt lat="44.92802348777829" lon="7.157401046649465"><ele>1113.8333333333335</ele><time>2026-04-19T11:36:17.001Z</time></trkpt><trkpt lat="44.92808277175186" lon="7.157448479799675"><ele>1115.0</ele><time>2026-04-19T11:36:18.001Z</time></trkpt><trkpt lat="44.928183959720315" lon="7.157431605168131"><ele>1115.0</ele><time>2026-04-19T11:36:19.001Z</time></trkpt><trkpt lat="44.92828229913688" lon="7.157457517310085"><ele>1115.0</ele><time>2026-04-19T11:36:20.001Z</time></trkpt><trkpt lat="44.92837946439472" lon="7.157521593329186"><ele>1115.0</ele><time>2026-04-19T11:36:21.001Z</time></trkpt><trkpt lat="44.928468630280086" lon="7.157604370188766"><ele>1115.0</ele><time>2026-04-19T11:36:22.001Z</time></trkpt><trkpt lat="44.92856012836657" lon="7.15765485219735"><ele>1115.0</ele><time>2026-04-19T11:36:23.001Z</time></trkpt><trkpt lat="44.92864770839769" lon="7.15764123583857"><ele>1113.25</ele><time>2026-04-19T11:36:24.001Z</time></trkpt><trkpt lat="44.92873501656144" lon="7.157565294149572"><ele>1111.5</ele><time>2026-04-19T11:36:25.001Z</time></trkpt><trkpt lat="44.92882895277242" lon="7.157455310597802"><ele>1109.75</ele><time>2026-04-19T11:36:26.001Z</time></trkpt><trkpt lat="44.928938737459646" lon="7.157348383211302"><ele>1108.0</ele><time>2026-04-19T11:36:27.001Z</time></trkpt><trkpt lat="44.92906322700145" lon="7.157271549063983"><ele>1108.0</ele><time>2026-04-19T11:36:28.001Z</time></trkpt><trkpt lat="44.92919322998861" lon="7.157226877964123"><ele>1108.0</ele><time>2026-04-19T11:36:29.001Z</time></trkpt><trkpt lat="44.929299647345" lon="7.157151842968439"><ele>1108.0</ele><time>2026-04-19T11:36:30.001Z</time></trkpt><trkpt lat="44.92941413440324" lon="7.157087932288079"><ele>1108.0</ele><time>2026-04-19T11:36:31.001Z</time></trkpt><trkpt lat="44.92950973543806" lon="7.157009844432245"><ele>1109.1666666666665</ele><time>2026-04-19T11:36:32.001Z</time></trkpt><trkpt lat="44.92957706275178" lon="7.156923373476301"><ele>1110.3333333333333</ele><time>2026-04-19T11:36:33.001Z</time></trkpt><trkpt lat="44.92965023704771" lon="7.156858086639915"><ele>1111.5</ele><time>2026-04-19T11:36:34.001Z</time></trkpt><trkpt lat="44.92971277579297" lon="7.156792649581645"><ele>1112.6666666666667</ele><time>2026-04-19T11:36:35.002Z</time></trkpt><trkpt lat="44.92979827134684" lon="7.156715477335329"><ele>1113.8333333333335</ele><time>2026-04-19T11:36:36.002Z</time></trkpt><trkpt lat="44.92987629474274" lon="7.156655278053178"><ele>1115.0</ele><time>2026-04-19T11:36:37.002Z</time></trkpt><trkpt lat="44.92994802281327" lon="7.156614234685261"><ele>1115.0</ele><time>2026-04-19T11:36:38.002Z</time></trkpt><trkpt lat="44.930040360857646" lon="7.156662860913715"><ele>1115.0</ele><time>2026-04-19T11:36:40.002Z</time></trkpt><trkpt lat="44.93007850571121" lon="7.156747051415921"><ele>1115.0</ele><time>2026-04-19T11:36:41.002Z</time></trkpt><trkpt lat="44.930094874740824" lon="7.156871382268153"><ele>1115.0</ele><time>2026-04-19T11:36:42.002Z</time></trkpt><trkpt lat="44.930056018662775" lon="7.157022379492857"><ele>1115.0</ele><time>2026-04-19T11:36:43.002Z</time></trkpt><trkpt lat="44.930041051365144" lon="7.157185297762094"><ele>1115.0</ele><time>2026-04-19T11:36:44.002Z</time></trkpt><trkpt lat="44.93000623732874" lon="7.157353431734798"><ele>1115.0</ele><time>2026-04-19T11:36:45.002Z</time></trkpt><trkpt lat="44.929983876633656" lon="7.157539032668516"><ele>1115.0</ele><time>2026-04-19T11:36:46.002Z</time></trkpt><trkpt lat="44.92997879366757" lon="7.157733231768721"><ele>1115.0</ele><time>2026-04-19T11:36:47.002Z</time></trkpt><trkpt lat="44.92998845852462" lon="7.157929991126761"><ele>1117.75</ele><time>2026-04-19T11:36:48.002Z</time></trkpt><trkpt lat="44.93001256845283" lon="7.158113844189533"><ele>1120.5</ele><time>2026-04-19T11:36:49.002Z</time></trkpt><trkpt lat="44.93002864968513" lon="7.15830898094844"><ele>1123.25</ele><time>2026-04-19T11:36:50.002Z</time></trkpt><trkpt lat="44.9300283642218" lon="7.158507295246214"><ele>1126.0</ele><time>2026-04-19T11:36:51.002Z</time></trkpt><trkpt lat="44.930023775568465" lon="7.158679647134939"><ele>1128.5</ele><time>2026-04-19T11:36:52.002Z</time></trkpt><trkpt lat="44.929961889673386" lon="7.158822371665541"><ele>1131.0</ele><time>2026-04-19T11:36:53.002Z</time></trkpt><trkpt lat="44.92992445169015" lon="7.158996898201703"><ele>1133.5</ele><time>2026-04-19T11:36:54.002Z</time></trkpt><trkpt lat="44.92988314215412" lon="7.159170231194591"><ele>1136.0</ele><time>2026-04-19T11:36:55.002Z</time></trkpt><trkpt lat="44.92985852352759" lon="7.159358150324298"><ele>1137.2</ele><time>2026-04-19T11:36:56.002Z</time></trkpt><trkpt lat="44.929824610121585" lon="7.159550108641689"><ele>1138.3999999999999</ele><time>2026-04-19T11:36:57.002Z</time></trkpt><trkpt lat="44.92978984578081" lon="7.159714602979388"><ele>1139.6</ele><time>2026-04-19T11:36:58.002Z</time></trkpt><trkpt lat="44.92975706251805" lon="7.159835222639582"><ele>1140.8</ele><time>2026-04-19T11:36:59.002Z</time></trkpt><trkpt lat="44.92969259140964" lon="7.159931610233736"><ele>1142.0</ele><time>2026-04-19T11:37:01.002Z</time></trkpt><trkpt lat="44.92965370752615" lon="7.159815762567596"><ele>1142.0</ele><time>2026-04-19T11:37:03.002Z</time></trkpt><trkpt lat="44.929677190694235" lon="7.15963135056805"><ele>1142.0</ele><time>2026-04-19T11:37:05.002Z</time></trkpt><trkpt lat="44.92967480730351" lon="7.159487717494758"><ele>1142.0</ele><time>2026-04-19T11:37:06.002Z</time></trkpt><trkpt lat="44.92962694228152" lon="7.1593309974795645"><ele>1142.0</ele><time>2026-04-19T11:37:07.002Z</time></trkpt><trkpt lat="44.92961839924052" lon="7.159162970496529"><ele>1141.0</ele><time>2026-04-19T11:37:08.002Z</time></trkpt><trkpt lat="44.92959424822738" lon="7.159028630795403"><ele>1140.0</ele><time>2026-04-19T11:37:09.002Z</time></trkpt><trkpt lat="44.92956023623847" lon="7.158932672286448"><ele>1139.0</ele><time>2026-04-19T11:37:10.002Z</time></trkpt><trkpt lat="44.92950465922304" lon="7.158846940605797"><ele>1138.0</ele><time>2026-04-19T11:37:11.002Z</time></trkpt><trkpt lat="44.929402223039645" lon="7.1588167730950625"><ele>1137.0</ele><time>2026-04-19T11:37:12.003Z</time></trkpt><trkpt lat="44.92931886192191" lon="7.158803060253941"><ele>1136.0</ele><time>2026-04-19T11:37:13.003Z</time></trkpt><trkpt lat="44.929251575532724" lon="7.158799980767425"><ele>1137.0</ele><time>2026-04-19T11:37:14.003Z</time></trkpt><trkpt lat="44.929206507865096" lon="7.158871743966568"><ele>1138.0</ele><time>2026-04-19T11:37:15.003Z</time></trkpt><trkpt lat="44.929220945898976" lon="7.158980728599004"><ele>1139.0</ele><time>2026-04-19T11:37:16.003Z</time></trkpt><trkpt lat="44.92929089436419" lon="7.15906915061304"><ele>1140.0</ele><time>2026-04-19T11:37:17.003Z</time></trkpt><trkpt lat="44.92935722993951" lon="7.159169979927998"><ele>1141.0</ele><time>2026-04-19T11:37:18.003Z</time></trkpt><trkpt lat="44.929374812135684" lon="7.159287066487874"><ele>1142.0</ele><time>2026-04-19T11:37:19.003Z</time></trkpt><trkpt lat="44.929382641544144" lon="7.159381692093123"><ele>1142.0</ele><time>2026-04-19T11:37:20.003Z</time></trkpt><trkpt lat="44.929397191034994" lon="7.159503425312519"><ele>1142.0</ele><time>2026-04-19T11:37:21.003Z</time></trkpt><trkpt lat="44.92935298555854" lon="7.159633452091812"><ele>1142.0</ele><time>2026-04-19T11:37:22.003Z</time></trkpt><trkpt lat="44.929334491701525" lon="7.159763963726065"><ele>1142.0</ele><time>2026-04-19T11:37:23.003Z</time></trkpt><trkpt lat="44.92929547136101" lon="7.15989934732831"><ele>1142.0</ele><time>2026-04-19T11:37:24.003Z</time></trkpt><trkpt lat="44.92924888029355" lon="7.160027153263481"><ele>1146.8</ele><time>2026-04-19T11:37:25.003Z</time></trkpt><trkpt lat="44.92919923383668" lon="7.160111549262542"><ele>1151.6</ele><time>2026-04-19T11:37:26.003Z</time></trkpt><trkpt lat="44.9291160449537" lon="7.16014938458296"><ele>1156.3999999999999</ele><time>2026-04-19T11:37:27.003Z</time></trkpt><trkpt lat="44.92902818383638" lon="7.16021439172426"><ele>1161.2</ele><time>2026-04-19T11:37:28.003Z</time></trkpt><trkpt lat="44.92890877396121" lon="7.160268837014755"><ele>1166.0</ele><time>2026-04-19T11:37:29.003Z</time></trkpt><trkpt lat="44.928882588622734" lon="7.160351166753914"><ele>1166.0</ele><time>2026-04-19T11:37:30.003Z</time></trkpt><trkpt lat="44.928889400247094" lon="7.160474881548776"><ele>1166.0</ele><time>2026-04-19T11:37:31.003Z</time></trkpt><trkpt lat="44.92891957259653" lon="7.1606035950519304"><ele>1166.0</ele><time>2026-04-19T11:37:32.003Z</time></trkpt><trkpt lat="44.928925207122475" lon="7.160781652671858"><ele>1166.0</ele><time>2026-04-19T11:37:33.003Z</time></trkpt><trkpt lat="44.92892290048617" lon="7.160950231900814"><ele>1166.0</ele><time>2026-04-19T11:37:33.999Z</time></trkpt><trkpt lat="44.92893211406796" lon="7.161111594971509"><ele>1167.0</ele><time>2026-04-19T11:37:34.999Z</time></trkpt><trkpt lat="44.92895700226624" lon="7.161279511656081"><ele>1168.0</ele><time>2026-04-19T11:37:35.999Z</time></trkpt><trkpt lat="44.92899685548291" lon="7.161433577342922"><ele>1169.0</ele><time>2026-04-19T11:37:36.999Z</time></trkpt><trkpt lat="44.929002022501564" lon="7.1615983904954295"><ele>1170.0</ele><time>2026-04-19T11:37:37.999Z</time></trkpt><trkpt lat="44.92897086236116" lon="7.161742698577499"><ele>1171.5</ele><time>2026-04-19T11:37:38.999Z</time></trkpt><trkpt lat="44.928950237856256" lon="7.161892594975542"><ele>1173.0</ele><time>2026-04-19T11:37:39.999Z</time></trkpt><trkpt lat="44.92891927425139" lon="7.162031149097869"><ele>1174.5</ele><time>2026-04-19T11:37:40.999Z</time></trkpt><trkpt lat="44.928888979426844" lon="7.1621650155607"><ele>1176.0</ele><time>2026-04-19T11:37:41.999Z</time></trkpt><trkpt lat="44.928846833299964" lon="7.162364417492787"><ele>1177.0</ele><time>2026-04-19T11:37:42.999Z</time></trkpt><trkpt lat="44.92880347350998" lon="7.162510999555753"><ele>1178.0</ele><time>2026-04-19T11:37:43.999Z</time></trkpt><trkpt lat="44.92876824862903" lon="7.162630022895649"><ele>1179.0</ele><time>2026-04-19T11:37:45Z</time></trkpt><trkpt lat="44.92874147258532" lon="7.1627172351362995"><ele>1180.0</ele><time>2026-04-19T11:37:46Z</time></trkpt><trkpt lat="44.92864000449744" lon="7.162706534742758"><ele>1181.0</ele><time>2026-04-19T11:37:49Z</time></trkpt><trkpt lat="44.92864097238386" lon="7.162606651123957"><ele>1182.0</ele><time>2026-04-19T11:37:50Z</time></trkpt><trkpt lat="44.928679977086134" lon="7.1625009820106085"><ele>1180.5</ele><time>2026-04-19T11:37:51Z</time></trkpt><trkpt lat="44.92868441005305" lon="7.16233639261805"><ele>1179.0</ele><time>2026-04-19T11:37:53Z</time></trkpt><trkpt lat="44.9286354587062" lon="7.162214611108708"><ele>1177.5</ele><time>2026-04-19T11:37:54Z</time></trkpt><trkpt lat="44.92857903662925" lon="7.1620700261077435"><ele>1176.0</ele><time>2026-04-19T11:37:55Z</time></trkpt><trkpt lat="44.928530020483215" lon="7.161914652697683"><ele>1176.0</ele><time>2026-04-19T11:37:56Z</time></trkpt><trkpt lat="44.92846929579458" lon="7.161769279383321"><ele>1176.0</ele><time>2026-04-19T11:37:57Z</time></trkpt><trkpt lat="44.92840917902335" lon="7.161622233205577"><ele>1176.0</ele><time>2026-04-19T11:37:58Z</time></trkpt><trkpt lat="44.92834231833422" lon="7.1614660869441416"><ele>1176.0</ele><time>2026-04-19T11:37:59Z</time></trkpt><trkpt lat="44.92827846665879" lon="7.1612980782666344"><ele>1178.3999999999999</ele><time>2026-04-19T11:38:00Z</time></trkpt><trkpt lat="44.928224207491844" lon="7.161154547497305"><ele>1180.8</ele><time>2026-04-19T11:38:01Z</time></trkpt><trkpt lat="44.9281582966586" lon="7.161051017559176"><ele>1183.1999999999998</ele><time>2026-04-19T11:38:02Z</time></trkpt><trkpt lat="44.92806949389645" lon="7.160970229160623"><ele>1185.6</ele><time>2026-04-19T11:38:03Z</time></trkpt><trkpt lat="44.92795261120667" lon="7.160898764180155"><ele>1188.0</ele><time>2026-04-19T11:38:04Z</time></trkpt><trkpt lat="44.92785544964621" lon="7.16084585946801"><ele>1188.0</ele><time>2026-04-19T11:38:05Z</time></trkpt><trkpt lat="44.927786231138974" lon="7.160795947422926"><ele>1188.0</ele><time>2026-04-19T11:38:06Z</time></trkpt><trkpt lat="44.927704564724365" lon="7.160756550996126"><ele>1188.0</ele><time>2026-04-19T11:38:08Z</time></trkpt><trkpt lat="44.92770866605358" lon="7.16088883446895"><ele>1188.0</ele><time>2026-04-19T11:38:10Z</time></trkpt><trkpt lat="44.927751197949945" lon="7.1609633530173005"><ele>1188.0</ele><time>2026-04-19T11:38:11Z</time></trkpt><trkpt lat="44.927821357144644" lon="7.161040385135818"><ele>1188.0</ele><time>2026-04-19T11:38:12.001Z</time></trkpt><trkpt lat="44.927879419934435" lon="7.16112262518584"><ele>1188.0</ele><time>2026-04-19T11:38:13.001Z</time></trkpt><trkpt lat="44.92792423586209" lon="7.161248675870929"><ele>1188.0</ele><time>2026-04-19T11:38:14.001Z</time></trkpt><trkpt lat="44.92795426020167" lon="7.161384969315248"><ele>1188.0</ele><time>2026-04-19T11:38:15.001Z</time></trkpt><trkpt lat="44.92798138960681" lon="7.161542662397862"><ele>1188.0</ele><time>2026-04-19T11:38:16.001Z</time></trkpt><trkpt lat="44.92799682591362" lon="7.161706641236329"><ele>1188.0</ele><time>2026-04-19T11:38:17.001Z</time></trkpt><trkpt lat="44.928004926249585" lon="7.1618800247148595"><ele>1191.75</ele><time>2026-04-19T11:38:18.001Z</time></trkpt><trkpt lat="44.928011910462274" lon="7.162070624551355"><ele>1195.5</ele><time>2026-04-19T11:38:19.001Z</time></trkpt><trkpt lat="44.928025080711706" lon="7.1622347650566125"><ele>1199.25</ele><time>2026-04-19T11:38:20.001Z</time></trkpt><trkpt lat="44.928040264639414" lon="7.162387150168176"><ele>1203.0</ele><time>2026-04-19T11:38:21.001Z</time></trkpt><trkpt lat="44.92800829990592" lon="7.162528255599795"><ele>1204.75</ele><time>2026-04-19T11:38:22.001Z</time></trkpt><trkpt lat="44.9279674549388" lon="7.162677564154441"><ele>1206.5</ele><time>2026-04-19T11:38:23.001Z</time></trkpt><trkpt lat="44.927933535505176" lon="7.1628631696728124"><ele>1208.25</ele><time>2026-04-19T11:38:24.001Z</time></trkpt><trkpt lat="44.92789724789018" lon="7.163032466782428"><ele>1210.0</ele><time>2026-04-19T11:38:25.001Z</time></trkpt><trkpt lat="44.92786642993637" lon="7.163165873275892"><ele>1210.0</ele><time>2026-04-19T11:38:26.001Z</time></trkpt><trkpt lat="44.92786141396662" lon="7.163271729644263"><ele>1210.0</ele><time>2026-04-19T11:38:27.001Z</time></trkpt><trkpt lat="44.92782347511427" lon="7.163382175251492"><ele>1210.0</ele><time>2026-04-19T11:38:29.001Z</time></trkpt><trkpt lat="44.92778968857137" lon="7.163192570118405"><ele>1210.0</ele><time>2026-04-19T11:38:30.001Z</time></trkpt><trkpt lat="44.927788334560844" lon="7.162934336273462"><ele>1210.0</ele><time>2026-04-19T11:38:34.001Z</time></trkpt><trkpt lat="44.92775351434578" lon="7.162809465097061"><ele>1210.0</ele><time>2026-04-19T11:38:35.001Z</time></trkpt><trkpt lat="44.9277172671791" lon="7.1626798729243015"><ele>1210.0</ele><time>2026-04-19T11:38:36.001Z</time></trkpt><trkpt lat="44.92765143097227" lon="7.162542660344919"><ele>1210.0</ele><time>2026-04-19T11:38:37.001Z</time></trkpt><trkpt lat="44.92754182382462" lon="7.16241197046369"><ele>1214.5</ele><time>2026-04-19T11:38:38.001Z</time></trkpt><trkpt lat="44.92745025136834" lon="7.162297336981739"><ele>1219.0</ele><time>2026-04-19T11:38:39.001Z</time></trkpt><trkpt lat="44.927331825608455" lon="7.162201878271883"><ele>1223.5</ele><time>2026-04-19T11:38:40.001Z</time></trkpt><trkpt lat="44.92720941744319" lon="7.162089678520213"><ele>1228.0</ele><time>2026-04-19T11:38:41.001Z</time></trkpt><trkpt lat="44.927097657350615" lon="7.162004574683807"><ele>1228.0</ele><time>2026-04-19T11:38:42.001Z</time></trkpt><trkpt lat="44.92698230428812" lon="7.161922403205947"><ele>1228.0</ele><time>2026-04-19T11:38:43.002Z</time></trkpt><trkpt lat="44.9268887639341" lon="7.161856184239493"><ele>1228.0</ele><time>2026-04-19T11:38:44.002Z</time></trkpt><trkpt lat="44.926779367955284" lon="7.161781805061431"><ele>1228.0</ele><time>2026-04-19T11:38:45.002Z</time></trkpt><trkpt lat="44.92666513583088" lon="7.16170720771703"><ele>1228.75</ele><time>2026-04-19T11:38:46.002Z</time></trkpt><trkpt lat="44.92654282514559" lon="7.16164923828912"><ele>1229.5</ele><time>2026-04-19T11:38:47.002Z</time></trkpt><trkpt lat="44.9264259908712" lon="7.1615513201847705"><ele>1230.25</ele><time>2026-04-19T11:38:48.002Z</time></trkpt><trkpt lat="44.92635827084102" lon="7.161394333330994"><ele>1231.0</ele><time>2026-04-19T11:38:49.002Z</time></trkpt><trkpt lat="44.92627963488746" lon="7.1612748422847465"><ele>1231.0</ele><time>2026-04-19T11:38:50.002Z</time></trkpt><trkpt lat="44.926197982789915" lon="7.161196180551158"><ele>1231.0</ele><time>2026-04-19T11:38:51.002Z</time></trkpt><trkpt lat="44.92615118640287" lon="7.161123645180247"><ele>1231.0</ele><time>2026-04-19T11:38:52.002Z</time></trkpt><trkpt lat="44.926082984509165" lon="7.1612395421827895"><ele>1231.0</ele><time>2026-04-19T11:38:54.002Z</time></trkpt><trkpt lat="44.92607271648613" lon="7.161347658214189"><ele>1231.0</ele><time>2026-04-19T11:38:57.002Z</time></trkpt><trkpt lat="44.92614473560308" lon="7.1615456640247155"><ele>1235.5</ele><time>2026-04-19T11:38:58.002Z</time></trkpt><trkpt lat="44.92616936873557" lon="7.161691112341962"><ele>1240.0</ele><time>2026-04-19T11:38:59.002Z</time></trkpt><trkpt lat="44.926193192660655" lon="7.1618730576340335"><ele>1244.5</ele><time>2026-04-19T11:39:00.002Z</time></trkpt><trkpt lat="44.92626606144581" lon="7.162056513297894"><ele>1249.0</ele><time>2026-04-19T11:39:01.002Z</time></trkpt><trkpt lat="44.926325536922214" lon="7.162231287024674"><ele>1253.25</ele><time>2026-04-19T11:39:02.002Z</time></trkpt><trkpt lat="44.92638694374403" lon="7.162399788470369"><ele>1257.5</ele><time>2026-04-19T11:39:03.002Z</time></trkpt><trkpt lat="44.92643623362586" lon="7.162589215200495"><ele>1261.75</ele><time>2026-04-19T11:39:04.002Z</time></trkpt><trkpt lat="44.926488816614764" lon="7.16276825939971"><ele>1266.0</ele><time>2026-04-19T11:39:05.002Z</time></trkpt><trkpt lat="44.92653734286788" lon="7.162970344654357"><ele>1266.0</ele><time>2026-04-19T11:39:06.002Z</time></trkpt><trkpt lat="44.92655002470383" lon="7.163135633744695"><ele>1266.0</ele><time>2026-04-19T11:39:07.002Z</time></trkpt><trkpt lat="44.926554007890545" lon="7.163291781031489"><ele>1266.0</ele><time>2026-04-19T11:39:08.002Z</time></trkpt><trkpt lat="44.92656674344168" lon="7.163434120573977"><ele>1266.0</ele><time>2026-04-19T11:39:09.002Z</time></trkpt><trkpt lat="44.926545375555506" lon="7.16360738707767"><ele>1269.25</ele><time>2026-04-19T11:39:10.002Z</time></trkpt><trkpt lat="44.926520455788804" lon="7.163797601894559"><ele>1272.5</ele><time>2026-04-19T11:39:11.002Z</time></trkpt><trkpt lat="44.926498341565775" lon="7.164003684576287"><ele>1275.75</ele><time>2026-04-19T11:39:12.002Z</time></trkpt><trkpt lat="44.9264679438975" lon="7.164217942641261"><ele>1279.0</ele><time>2026-04-19T11:39:13.002Z</time></trkpt><trkpt lat="44.926448082384404" lon="7.164423914176087"><ele>1281.0</ele><time>2026-04-19T11:39:14.002Z</time></trkpt><trkpt lat="44.92640282107301" lon="7.1646010828441495"><ele>1283.0</ele><time>2026-04-19T11:39:15.002Z</time></trkpt><trkpt lat="44.92638376327676" lon="7.164792387234556"><ele>1285.0</ele><time>2026-04-19T11:39:16.003Z</time></trkpt><trkpt lat="44.92635020708644" lon="7.164968110895771"><ele>1287.0</ele><time>2026-04-19T11:39:17.003Z</time></trkpt><trkpt lat="44.926318064902404" lon="7.165165559586226"><ele>1287.75</ele><time>2026-04-19T11:39:18.003Z</time></trkpt><trkpt lat="44.92628132858035" lon="7.16535885760522"><ele>1288.5</ele><time>2026-04-19T11:39:19.003Z</time></trkpt><trkpt lat="44.926234970117456" lon="7.165503040867514"><ele>1289.25</ele><time>2026-04-19T11:39:20.003Z</time></trkpt><trkpt lat="44.926194588351834" lon="7.1656782142239726"><ele>1290.0</ele><time>2026-04-19T11:39:21.003Z</time></trkpt><trkpt lat="44.926182858288534" lon="7.165860267893977"><ele>1290.0</ele><time>2026-04-19T11:39:22.003Z</time></trkpt><trkpt lat="44.92616174762912" lon="7.166059492988362"><ele>1290.0</ele><time>2026-04-19T11:39:23.003Z</time></trkpt><trkpt lat="44.926137225899794" lon="7.16626410312769"><ele>1290.0</ele><time>2026-04-19T11:39:24.003Z</time></trkpt><trkpt lat="44.926114674539996" lon="7.166459587706737"><ele>1290.0</ele><time>2026-04-19T11:39:25.003Z</time></trkpt><trkpt lat="44.92609063334542" lon="7.166667986384537"><ele>1290.5</ele><time>2026-04-19T11:39:26.003Z</time></trkpt><trkpt lat="44.92606789048922" lon="7.166865130555793"><ele>1291.0</ele><time>2026-04-19T11:39:27.003Z</time></trkpt><trkpt lat="44.9260425230939" lon="7.167057572165218"><ele>1291.5</ele><time>2026-04-19T11:39:28.003Z</time></trkpt><trkpt lat="44.92600788104831" lon="7.16723342916094"><ele>1292.0</ele><time>2026-04-19T11:39:29.003Z</time></trkpt><trkpt lat="44.92597970356196" lon="7.167405365107783"><ele>1294.25</ele><time>2026-04-19T11:39:30.003Z</time></trkpt><trkpt lat="44.9259938573" lon="7.167561230101879"><ele>1296.5</ele><time>2026-04-19T11:39:31.003Z</time></trkpt><trkpt lat="44.92600410913516" lon="7.1676963244475544"><ele>1298.75</ele><time>2026-04-19T11:39:32.003Z</time></trkpt><trkpt lat="44.92606535905437" lon="7.167862727604559"><ele>1301.0</ele><time>2026-04-19T11:39:33.003Z</time></trkpt><trkpt lat="44.92611431393622" lon="7.168034819351515"><ele>1304.25</ele><time>2026-04-19T11:39:34.003Z</time></trkpt><trkpt lat="44.926171194272776" lon="7.168197866638842"><ele>1307.5</ele><time>2026-04-19T11:39:35.003Z</time></trkpt><trkpt lat="44.92619920510185" lon="7.168393149657932"><ele>1310.75</ele><time>2026-04-19T11:39:36.003Z</time></trkpt><trkpt lat="44.926240818563436" lon="7.168573224038448"><ele>1314.0</ele><time>2026-04-19T11:39:37.003Z</time></trkpt><trkpt lat="44.92626919070482" lon="7.168772865959004"><ele>1314.0</ele><time>2026-04-19T11:39:38.003Z</time></trkpt><trkpt lat="44.926304208387535" lon="7.168960993802614"><ele>1314.0</ele><time>2026-04-19T11:39:39.003Z</time></trkpt><trkpt lat="44.92633638148347" lon="7.1691497976441845"><ele>1314.0</ele><time>2026-04-19T11:39:39.999Z</time></trkpt><trkpt lat="44.92637115606644" lon="7.169351157310779"><ele>1314.0</ele><time>2026-04-19T11:39:40.999Z</time></trkpt><trkpt lat="44.926433443549136" lon="7.16954788938136"><ele>1317.5</ele><time>2026-04-19T11:39:41.999Z</time></trkpt><trkpt lat="44.926472344180574" lon="7.169742995524866"><ele>1321.0</ele><time>2026-04-19T11:39:42.999Z</time></trkpt><trkpt lat="44.92652189206584" lon="7.169892425578104"><ele>1324.5</ele><time>2026-04-19T11:39:43.999Z</time></trkpt><trkpt lat="44.92659125247264" lon="7.170032140853103"><ele>1328.0</ele><time>2026-04-19T11:39:44.999Z</time></trkpt><trkpt lat="44.92670640830813" lon="7.170161780756486"><ele>1328.6666666666667</ele><time>2026-04-19T11:39:45.999Z</time></trkpt><trkpt lat="44.9268231392573" lon="7.170328077260697"><ele>1329.3333333333333</ele><time>2026-04-19T11:39:47Z</time></trkpt><trkpt lat="44.92692683041315" lon="7.170486043961571"><ele>1330.0</ele><time>2026-04-19T11:39:48Z</time></trkpt><trkpt lat="44.92704335216817" lon="7.170647883321206"><ele>1333.75</ele><time>2026-04-19T11:39:49Z</time></trkpt><trkpt lat="44.92715108852219" lon="7.170803109768691"><ele>1337.5</ele><time>2026-04-19T11:39:50Z</time></trkpt><trkpt lat="44.927235337056146" lon="7.170939249018223"><ele>1341.25</ele><time>2026-04-19T11:39:51Z</time></trkpt><trkpt lat="44.927300040627834" lon="7.171064990958366"><ele>1345.0</ele><time>2026-04-19T11:39:52Z</time></trkpt><trkpt lat="44.92737889481395" lon="7.171199017661491"><ele>1345.0</ele><time>2026-04-19T11:39:53Z</time></trkpt><trkpt lat="44.92741313935987" lon="7.171370939216745"><ele>1345.0</ele><time>2026-04-19T11:39:54Z</time></trkpt><trkpt lat="44.92745449728766" lon="7.171545721524304"><ele>1345.0</ele><time>2026-04-19T11:39:55Z</time></trkpt><trkpt lat="44.92749706767238" lon="7.171730596240479"><ele>1345.0</ele><time>2026-04-19T11:39:56Z</time></trkpt><trkpt lat="44.927536407533815" lon="7.171914730679693"><ele>1344.5</ele><time>2026-04-19T11:39:57Z</time></trkpt><trkpt lat="44.92760804186818" lon="7.172066257941546"><ele>1344.0</ele><time>2026-04-19T11:39:58Z</time></trkpt><trkpt lat="44.92770279660242" lon="7.1722206418041585"><ele>1343.5</ele><time>2026-04-19T11:39:59Z</time></trkpt><trkpt lat="44.927802452997824" lon="7.172378797200257"><ele>1343.0</ele><time>2026-04-19T11:40:00Z</time></trkpt><trkpt lat="44.927895133388155" lon="7.172550670262708"><ele>1346.2</ele><time>2026-04-19T11:40:01Z</time></trkpt><trkpt lat="44.927957086994546" lon="7.172700488469227"><ele>1349.4</ele><time>2026-04-19T11:40:02Z</time></trkpt><trkpt lat="44.92800725612423" lon="7.1728410898047095"><ele>1352.6000000000001</ele><time>2026-04-19T11:40:03Z</time></trkpt><trkpt lat="44.92804138885785" lon="7.172971607876037"><ele>1355.8000000000002</ele><time>2026-04-19T11:40:04Z</time></trkpt><trkpt lat="44.92805326863101" lon="7.173100738586607"><ele>1359.0</ele><time>2026-04-19T11:40:05Z</time></trkpt><trkpt lat="44.928097081063456" lon="7.173200601083686"><ele>1359.4</ele><time>2026-04-19T11:40:06Z</time></trkpt><trkpt lat="44.928172054034754" lon="7.173284403029457"><ele>1359.8000000000002</ele><time>2026-04-19T11:40:07Z</time></trkpt><trkpt lat="44.92826829832338" lon="7.173357213414784"><ele>1360.1999999999998</ele><time>2026-04-19T11:40:08Z</time></trkpt><trkpt lat="44.928359084272294" lon="7.173414409498827"><ele>1360.6</ele><time>2026-04-19T11:40:09Z</time></trkpt><trkpt lat="44.928467184847946" lon="7.173450559964835"><ele>1361.0</ele><time>2026-04-19T11:40:10Z</time></trkpt><trkpt lat="44.928564775523256" lon="7.173507847647462"><ele>1361.0</ele><time>2026-04-19T11:40:11Z</time></trkpt><trkpt lat="44.92862513633411" lon="7.173563870463403"><ele>1361.0</ele><time>2026-04-19T11:40:12Z</time></trkpt><trkpt lat="44.92870549423329" lon="7.173622757904972"><ele>1361.0</ele><time>2026-04-19T11:40:13.001Z</time></trkpt><trkpt lat="44.92877205620663" lon="7.17374636373175"><ele>1361.0</ele><time>2026-04-19T11:40:14.001Z</time></trkpt><trkpt lat="44.928833424693586" lon="7.173879129429844"><ele>1361.0</ele><time>2026-04-19T11:40:15.001Z</time></trkpt><trkpt lat="44.92890357904812" lon="7.174019630615433"><ele>1362.5</ele><time>2026-04-19T11:40:16.001Z</time></trkpt><trkpt lat="44.92898802072" lon="7.174139262354728"><ele>1364.0</ele><time>2026-04-19T11:40:17.001Z</time></trkpt><trkpt lat="44.92909121930763" lon="7.174222710374954"><ele>1365.5</ele><time>2026-04-19T11:40:18.001Z</time></trkpt><trkpt lat="44.9291971384909" lon="7.1743049229222144"><ele>1367.0</ele><time>2026-04-19T11:40:19.001Z</time></trkpt><trkpt lat="44.9292956500054" lon="7.174416918092775"><ele>1367.0</ele><time>2026-04-19T11:40:20.001Z</time></trkpt><trkpt lat="44.9293874808652" lon="7.174551838707004"><ele>1367.0</ele><time>2026-04-19T11:40:21.001Z</time></trkpt><trkpt lat="44.92946678626651" lon="7.174688887215365"><ele>1367.0</ele><time>2026-04-19T11:40:22.001Z</time></trkpt><trkpt lat="44.92954615403777" lon="7.174812435562591"><ele>1367.0</ele><time>2026-04-19T11:40:23.001Z</time></trkpt><trkpt lat="44.92963160182068" lon="7.174925505790631"><ele>1372.0</ele><time>2026-04-19T11:40:24.001Z</time></trkpt><trkpt lat="44.92972453174517" lon="7.175046379336291"><ele>1377.0</ele><time>2026-04-19T11:40:25.001Z</time></trkpt><trkpt lat="44.92977544013621" lon="7.175167538925282"><ele>1382.0</ele><time>2026-04-19T11:40:26.001Z</time></trkpt><trkpt lat="44.92985912251851" lon="7.1753034028808385"><ele>1387.0</ele><time>2026-04-19T11:40:27.001Z</time></trkpt><trkpt lat="44.92990594715008" lon="7.175470530251522"><ele>1387.0</ele><time>2026-04-19T11:40:28.001Z</time></trkpt><trkpt lat="44.92995637531403" lon="7.175635348989758"><ele>1387.0</ele><time>2026-04-19T11:40:29.001Z</time></trkpt><trkpt lat="44.930015706595746" lon="7.175794909648952"><ele>1387.0</ele><time>2026-04-19T11:40:30.001Z</time></trkpt><trkpt lat="44.93009024921231" lon="7.175938909413457"><ele>1387.0</ele><time>2026-04-19T11:40:31.001Z</time></trkpt><trkpt lat="44.93015971077094" lon="7.176048004313993"><ele>1387.75</ele><time>2026-04-19T11:40:32.001Z</time></trkpt><trkpt lat="44.93024534586355" lon="7.1761592074985145"><ele>1388.5</ele><time>2026-04-19T11:40:33.001Z</time></trkpt><trkpt lat="44.93034036558503" lon="7.1762849688033326"><ele>1389.25</ele><time>2026-04-19T11:40:34.001Z</time></trkpt><trkpt lat="44.930440518548316" lon="7.176403497094252"><ele>1390.0</ele><time>2026-04-19T11:40:35.001Z</time></trkpt><trkpt lat="44.93054654516064" lon="7.176513572183702"><ele>1392.2</ele><time>2026-04-19T11:40:36.001Z</time></trkpt><trkpt lat="44.930658110731564" lon="7.176608361402937"><ele>1394.4</ele><time>2026-04-19T11:40:37.001Z</time></trkpt><trkpt lat="44.93076496453387" lon="7.176680819908654"><ele>1396.6</ele><time>2026-04-19T11:40:38.001Z</time></trkpt><trkpt lat="44.930847988902194" lon="7.176748633297327"><ele>1398.8</ele><time>2026-04-19T11:40:39.001Z</time></trkpt><trkpt lat="44.93089223235869" lon="7.17686122434846"><ele>1401.0</ele><time>2026-04-19T11:40:40.001Z</time></trkpt><trkpt lat="44.93092929771423" lon="7.176973211133063"><ele>1401.0</ele><time>2026-04-19T11:40:41.001Z</time></trkpt><trkpt lat="44.93098396562715" lon="7.177059373956228"><ele>1401.0</ele><time>2026-04-19T11:40:42.001Z</time></trkpt><trkpt lat="44.93099796476721" lon="7.177181596726416"><ele>1401.0</ele><time>2026-04-19T11:40:43.002Z</time></trkpt><trkpt lat="44.931051004537785" lon="7.177254597887747"><ele>1401.0</ele><time>2026-04-19T11:40:44.002Z</time></trkpt><trkpt lat="44.931167991855936" lon="7.177340740099613"><ele>1401.0</ele><time>2026-04-19T11:40:46.002Z</time></trkpt><trkpt lat="44.93126532943001" lon="7.177380148601668"><ele>1406.0</ele><time>2026-04-19T11:40:47.002Z</time></trkpt><trkpt lat="44.93132857801414" lon="7.1774018159400095"><ele>1411.0</ele><time>2026-04-19T11:40:48.002Z</time></trkpt><trkpt lat="44.93138954430516" lon="7.177747765592281"><ele>1416.0</ele><time>2026-04-19T11:40:51.002Z</time></trkpt><trkpt lat="44.93115861275625" lon="7.177521383581647"><ele>1416.0</ele><time>2026-04-19T11:40:52.002Z</time></trkpt><trkpt lat="44.931049265850795" lon="7.177460926701878"><ele>1416.0</ele><time>2026-04-19T11:40:53.002Z</time></trkpt><trkpt lat="44.9309457327071" lon="7.17738401065991"><ele>1416.0</ele><time>2026-04-19T11:40:54.002Z</time></trkpt><trkpt lat="44.93081866092851" lon="7.17734875461671"><ele>1416.0</ele><time>2026-04-19T11:40:55.002Z</time></trkpt><trkpt lat="44.9307365696922" lon="7.177351824024076"><ele>1416.0</ele><time>2026-04-19T11:40:56.002Z</time></trkpt><trkpt lat="44.93063723309405" lon="7.177358030060788"><ele>1418.0</ele><time>2026-04-19T11:40:57.002Z</time></trkpt><trkpt lat="44.930517496177735" lon="7.177378859961849"><ele>1420.0</ele><time>2026-04-19T11:40:58.002Z</time></trkpt><trkpt lat="44.93037077479711" lon="7.177415078984477"><ele>1422.0</ele><time>2026-04-19T11:40:59.002Z</time></trkpt><trkpt lat="44.930232629912595" lon="7.17742145051344"><ele>1424.0</ele><time>2026-04-19T11:41:00.002Z</time></trkpt><trkpt lat="44.930082797549126" lon="7.177410139950584"><ele>1422.25</ele><time>2026-04-19T11:41:01.002Z</time></trkpt><trkpt lat="44.9299342714147" lon="7.177390840650276"><ele>1420.5</ele><time>2026-04-19T11:41:02.002Z</time></trkpt><trkpt lat="44.92978392494564" lon="7.177331516964885"><ele>1418.75</ele><time>2026-04-19T11:41:03.002Z</time></trkpt><trkpt lat="44.929664136078536" lon="7.177285407143741"><ele>1417.0</ele><time>2026-04-19T11:41:04.002Z</time></trkpt><trkpt lat="44.92954541560189" lon="7.177236480950473"><ele>1417.0</ele><time>2026-04-19T11:41:05.002Z</time></trkpt><trkpt lat="44.929412992542126" lon="7.177175000345566"><ele>1417.0</ele><time>2026-04-19T11:41:06.002Z</time></trkpt><trkpt lat="44.9292878797615" lon="7.177133248569384"><ele>1417.0</ele><time>2026-04-19T11:41:07.002Z</time></trkpt><trkpt lat="44.929164609518935" lon="7.177064308905161"><ele>1417.0</ele><time>2026-04-19T11:41:08.002Z</time></trkpt><trkpt lat="44.92904069866177" lon="7.1770120612854305"><ele>1421.5</ele><time>2026-04-19T11:41:09.002Z</time></trkpt><trkpt lat="44.92889965714398" lon="7.17696706838063"><ele>1426.0</ele><time>2026-04-19T11:41:10.002Z</time></trkpt><trkpt lat="44.928749117921555" lon="7.176938648562837"><ele>1430.5</ele><time>2026-04-19T11:41:11.002Z</time></trkpt><trkpt lat="44.92862528070379" lon="7.176948828356005"><ele>1435.0</ele><time>2026-04-19T11:41:12.002Z</time></trkpt><trkpt lat="44.928515004837166" lon="7.176949940971165"><ele>1435.0</ele><time>2026-04-19T11:41:13.002Z</time></trkpt><trkpt lat="44.92841957705394" lon="7.17696629499087"><ele>1435.0</ele><time>2026-04-19T11:41:14.002Z</time></trkpt><trkpt lat="44.9283345948684" lon="7.17702475774026"><ele>1435.0</ele><time>2026-04-19T11:41:16.003Z</time></trkpt><trkpt lat="44.9284316698579" lon="7.177058671605719"><ele>1435.0</ele><time>2026-04-19T11:41:18.003Z</time></trkpt><trkpt lat="44.92850388990699" lon="7.177158085670644"><ele>1435.0</ele><time>2026-04-19T11:41:20.003Z</time></trkpt><trkpt lat="44.928586728063465" lon="7.177222331814731"><ele>1435.0</ele><time>2026-04-19T11:41:21.003Z</time></trkpt><trkpt lat="44.92866769558425" lon="7.177298563117368"><ele>1435.0</ele><time>2026-04-19T11:41:22.003Z</time></trkpt><trkpt lat="44.928749298956994" lon="7.177376360431978"><ele>1435.0</ele><time>2026-04-19T11:41:23.003Z</time></trkpt><trkpt lat="44.92882229086325" lon="7.177480203475863"><ele>1435.0</ele><time>2026-04-19T11:41:24.003Z</time></trkpt><trkpt lat="44.928910629793464" lon="7.17758787604172"><ele>1435.0</ele><time>2026-04-19T11:41:25.003Z</time></trkpt><trkpt lat="44.92901035200995" lon="7.177678682499353"><ele>1435.25</ele><time>2026-04-19T11:41:26.003Z</time></trkpt><trkpt lat="44.9290765330356" lon="7.177775432627388"><ele>1435.5</ele><time>2026-04-19T11:41:27.003Z</time></trkpt><trkpt lat="44.92914844665995" lon="7.177879697214137"><ele>1435.75</ele><time>2026-04-19T11:41:28.003Z</time></trkpt><trkpt lat="44.92923076292515" lon="7.177994089646964"><ele>1436.0</ele><time>2026-04-19T11:41:29.003Z</time></trkpt><trkpt lat="44.92930816008741" lon="7.17815855174581"><ele>1441.5</ele><time>2026-04-19T11:41:30.003Z</time></trkpt><trkpt lat="44.9293965862956" lon="7.178319110059115"><ele>1447.0</ele><time>2026-04-19T11:41:31.003Z</time></trkpt><trkpt lat="44.92947752927598" lon="7.178466373265615"><ele>1452.5</ele><time>2026-04-19T11:41:32.003Z</time></trkpt><trkpt lat="44.929565926099805" lon="7.178624426723506"><ele>1458.0</ele><time>2026-04-19T11:41:33.003Z</time></trkpt><trkpt lat="44.92963680477914" lon="7.178756493572071"><ele>1458.0</ele><time>2026-04-19T11:41:34.003Z</time></trkpt><trkpt lat="44.929690005851214" lon="7.178876283443022"><ele>1458.0</ele><time>2026-04-19T11:41:36.003Z</time></trkpt><trkpt lat="44.92958010882118" lon="7.178918613566587"><ele>1458.0</ele><time>2026-04-19T11:41:38.003Z</time></trkpt><trkpt lat="44.929518006405594" lon="7.17887767678276"><ele>1458.0</ele><time>2026-04-19T11:41:39.003Z</time></trkpt><trkpt lat="44.92945599716234" lon="7.178793902286522"><ele>1458.0</ele><time>2026-04-19T11:41:40.003Z</time></trkpt><trkpt lat="44.92936494717615" lon="7.178724772986625"><ele>1458.0</ele><time>2026-04-19T11:41:41.003Z</time></trkpt><trkpt lat="44.929242356096886" lon="7.178673595855677"><ele>1458.0</ele><time>2026-04-19T11:41:42.003Z</time></trkpt><trkpt lat="44.92912054463126" lon="7.17864910185311"><ele>1458.0</ele><time>2026-04-19T11:41:43.003Z</time></trkpt><trkpt lat="44.92902040064098" lon="7.178691164235534"><ele>1458.0</ele><time>2026-04-19T11:41:44.003Z</time></trkpt><trkpt lat="44.92889955824602" lon="7.178708712404144"><ele>1461.2</ele><time>2026-04-19T11:41:45.003Z</time></trkpt><trkpt lat="44.92878280611613" lon="7.17872829964257"><ele>1464.4</ele><time>2026-04-19T11:41:45.999Z</time></trkpt><trkpt lat="44.92868667643243" lon="7.178690585839847"><ele>1467.6000000000001</ele><time>2026-04-19T11:41:46.999Z</time></trkpt><trkpt lat="44.928600737632465" lon="7.178642192131375"><ele>1470.8000000000002</ele><time>2026-04-19T11:41:47.999Z</time></trkpt><trkpt lat="44.9284968185648" lon="7.178583198504933"><ele>1474.0</ele><time>2026-04-19T11:41:48.999Z</time></trkpt><trkpt lat="44.92838308212489" lon="7.178523806024147"><ele>1476.75</ele><time>2026-04-19T11:41:49.999Z</time></trkpt><trkpt lat="44.92827176060564" lon="7.178481771900103"><ele>1479.5</ele><time>2026-04-19T11:41:50.999Z</time></trkpt><trkpt lat="44.92815474949636" lon="7.178455942097961"><ele>1482.25</ele><time>2026-04-19T11:41:51.999Z</time></trkpt><trkpt lat="44.92803618079868" lon="7.178395250968245"><ele>1485.0</ele><time>2026-04-19T11:41:52.999Z</time></trkpt><trkpt lat="44.9279112627991" lon="7.178369586337353"><ele>1485.0</ele><time>2026-04-19T11:41:54Z</time></trkpt><trkpt lat="44.92778248077482" lon="7.178323490478947"><ele>1485.0</ele><time>2026-04-19T11:41:55Z</time></trkpt><trkpt lat="44.927669559233195" lon="7.178223357342967"><ele>1485.0</ele><time>2026-04-19T11:41:56Z</time></trkpt><trkpt lat="44.92755333318961" lon="7.178165610302418"><ele>1485.0</ele><time>2026-04-19T11:41:57Z</time></trkpt><trkpt lat="44.92743593524308" lon="7.178096755972792"><ele>1484.25</ele><time>2026-04-19T11:41:58Z</time></trkpt><trkpt lat="44.92730834398815" lon="7.1780458548727575"><ele>1483.5</ele><time>2026-04-19T11:41:59Z</time></trkpt><trkpt lat="44.927182786356695" lon="7.178006918554893"><ele>1482.75</ele><time>2026-04-19T11:42:00Z</time></trkpt><trkpt lat="44.927045706283394" lon="7.177971284521282"><ele>1482.0</ele><time>2026-04-19T11:42:01Z</time></trkpt><trkpt lat="44.92691472148234" lon="7.177915201189767"><ele>1482.0</ele><time>2026-04-19T11:42:02Z</time></trkpt><trkpt lat="44.926792559753" lon="7.177854630870933"><ele>1482.0</ele><time>2026-04-19T11:42:03Z</time></trkpt><trkpt lat="44.92668710303909" lon="7.177764505514231"><ele>1482.0</ele><time>2026-04-19T11:42:04Z</time></trkpt><trkpt lat="44.926590304285" lon="7.177675808746703"><ele>1482.0</ele><time>2026-04-19T11:42:05Z</time></trkpt><trkpt lat="44.92648184461826" lon="7.177589495247971"><ele>1483.25</ele><time>2026-04-19T11:42:06Z</time></trkpt><trkpt lat="44.92635700394443" lon="7.17752499739081"><ele>1484.5</ele><time>2026-04-19T11:42:07Z</time></trkpt><trkpt lat="44.92623789394278" lon="7.17744051511905"><ele>1485.75</ele><time>2026-04-19T11:42:08Z</time></trkpt><trkpt lat="44.926145750278884" lon="7.177293647380662"><ele>1487.0</ele><time>2026-04-19T11:42:09Z</time></trkpt><trkpt lat="44.92603363261987" lon="7.1771933315817495"><ele>1487.0</ele><time>2026-04-19T11:42:10Z</time></trkpt><trkpt lat="44.925903525181106" lon="7.177140351250837"><ele>1487.0</ele><time>2026-04-19T11:42:11Z</time></trkpt><trkpt lat="44.92580335161115" lon="7.177021083553183"><ele>1487.0</ele><time>2026-04-19T11:42:12Z</time></trkpt><trkpt lat="44.92568192102062" lon="7.176947776269204"><ele>1487.0</ele><time>2026-04-19T11:42:13Z</time></trkpt><trkpt lat="44.92556939634529" lon="7.17688119659586"><ele>1487.5</ele><time>2026-04-19T11:42:14Z</time></trkpt><trkpt lat="44.92544907278807" lon="7.176806940247914"><ele>1488.0</ele><time>2026-04-19T11:42:15Z</time></trkpt><trkpt lat="44.92533518355744" lon="7.176715038855327"><ele>1488.5</ele><time>2026-04-19T11:42:16Z</time></trkpt><trkpt lat="44.92522182283986" lon="7.176603280611526"><ele>1489.0</ele><time>2026-04-19T11:42:17Z</time></trkpt><trkpt lat="44.925109272128694" lon="7.176504583070963"><ele>1493.2</ele><time>2026-04-19T11:42:18Z</time></trkpt><trkpt lat="44.92501890638347" lon="7.1764443736810835"><ele>1497.4</ele><time>2026-04-19T11:42:19Z</time></trkpt><trkpt lat="44.92492451966548" lon="7.176424941371992"><ele>1501.6</ele><time>2026-04-19T11:42:20.001Z</time></trkpt><trkpt lat="44.924819476941" lon="7.176393707297289"><ele>1505.8</ele><time>2026-04-19T11:42:21.001Z</time></trkpt><trkpt lat="44.924690422224195" lon="7.176374543389976"><ele>1510.0</ele><time>2026-04-19T11:42:22.001Z</time></trkpt><trkpt lat="44.92455814835263" lon="7.176357098500281"><ele>1510.0</ele><time>2026-04-19T11:42:23.001Z</time></trkpt><trkpt lat="44.9244519899314" lon="7.176293087801826"><ele>1510.0</ele><time>2026-04-19T11:42:24.001Z</time></trkpt><trkpt lat="44.92434169933153" lon="7.1762198166872375"><ele>1510.0</ele><time>2026-04-19T11:42:25.001Z</time></trkpt><trkpt lat="44.924234694573116" lon="7.176141956238438"><ele>1510.0</ele><time>2026-04-19T11:42:26.001Z</time></trkpt><trkpt lat="44.924118491575314" lon="7.176051060495261"><ele>1509.75</ele><time>2026-04-19T11:42:27.001Z</time></trkpt><trkpt lat="44.92400315664162" lon="7.175956519457174"><ele>1509.5</ele><time>2026-04-19T11:42:28.001Z</time></trkpt><trkpt lat="44.9238889511388" lon="7.175866504935964"><ele>1509.25</ele><time>2026-04-19T11:42:29.001Z</time></trkpt><trkpt lat="44.92379830731179" lon="7.175757697149476"><ele>1509.0</ele><time>2026-04-19T11:42:30.001Z</time></trkpt><trkpt lat="44.92371515348482" lon="7.175648893607074"><ele>1509.0</ele><time>2026-04-19T11:42:31.001Z</time></trkpt><trkpt lat="44.92361473841214" lon="7.175555419809369"><ele>1509.0</ele><time>2026-04-19T11:42:32.001Z</time></trkpt><trkpt lat="44.92350128613213" lon="7.17547806305178"><ele>1509.0</ele><time>2026-04-19T11:42:33.001Z</time></trkpt><trkpt lat="44.923418115539604" lon="7.1753616891684535"><ele>1509.0</ele><time>2026-04-19T11:42:34.001Z</time></trkpt><trkpt lat="44.923263146324594" lon="7.1753468262338"><ele>1517.5</ele><time>2026-04-19T11:42:35.001Z</time></trkpt><trkpt lat="44.92316145568176" lon="7.175280190148537"><ele>1526.0</ele><time>2026-04-19T11:42:36.001Z</time></trkpt><trkpt lat="44.92314481931856" lon="7.175077470452454"><ele>1534.5</ele><time>2026-04-19T11:42:37.001Z</time></trkpt><trkpt lat="44.92305241927333" lon="7.175048237093756"><ele>1543.0</ele><time>2026-04-19T11:42:39.001Z</time></trkpt><trkpt lat="44.922977005031726" lon="7.175164540890018"><ele>1543.0</ele><time>2026-04-19T11:42:41.001Z</time></trkpt><trkpt lat="44.923013663927776" lon="7.175248063179524"><ele>1543.0</ele><time>2026-04-19T11:42:42.001Z</time></trkpt><trkpt lat="44.92311767386846" lon="7.175382037100517"><ele>1543.0</ele><time>2026-04-19T11:42:44.001Z</time></trkpt><trkpt lat="44.92318488977236" lon="7.175474777590447"><ele>1543.0</ele><time>2026-04-19T11:42:45.001Z</time></trkpt><trkpt lat="44.92327431646573" lon="7.175588506655083"><ele>1543.0</ele><time>2026-04-19T11:42:46.001Z</time></trkpt><trkpt lat="44.92336344288964" lon="7.17570867282716"><ele>1541.0</ele><time>2026-04-19T11:42:47.001Z</time></trkpt><trkpt lat="44.92345084155182" lon="7.175829185730422"><ele>1539.0</ele><time>2026-04-19T11:42:48.001Z</time></trkpt><trkpt lat="44.923510488389546" lon="7.175941961286634"><ele>1537.0</ele><time>2026-04-19T11:42:49.001Z</time></trkpt><trkpt lat="44.923543090667586" lon="7.176063118948164"><ele>1535.0</ele><time>2026-04-19T11:42:50.002Z</time></trkpt><trkpt lat="44.923542311197394" lon="7.176225506780006"><ele>1533.0</ele><time>2026-04-19T11:42:51.002Z</time></trkpt><trkpt lat="44.923570316724565" lon="7.1764227859109"><ele>1538.75</ele><time>2026-04-19T11:42:52.002Z</time></trkpt><trkpt lat="44.92364853334427" lon="7.176604187640016"><ele>1544.5</ele><time>2026-04-19T11:42:53.002Z</time></trkpt><trkpt lat="44.92371732763466" lon="7.176744692702992"><ele>1550.25</ele><time>2026-04-19T11:42:54.002Z</time></trkpt><trkpt lat="44.92380167487063" lon="7.176851937906976"><ele>1556.0</ele><time>2026-04-19T11:42:55.002Z</time></trkpt><trkpt lat="44.92389493285515" lon="7.176985451217037"><ele>1555.9999999999998</ele><time>2026-04-19T11:42:56.002Z</time></trkpt><trkpt lat="44.923968266003065" lon="7.1770934741699435"><ele>1556.0</ele><time>2026-04-19T11:42:57.002Z</time></trkpt><trkpt lat="44.92402156648775" lon="7.177170652165129"><ele>1556.0</ele><time>2026-04-19T11:42:58.002Z</time></trkpt><trkpt lat="44.92402752116128" lon="7.177263646123521"><ele>1556.0</ele><time>2026-04-19T11:43:00.002Z</time></trkpt><trkpt lat="44.92395954327115" lon="7.177297483425043"><ele>1555.9999999999998</ele><time>2026-04-19T11:43:02.002Z</time></trkpt><trkpt lat="44.9238694080986" lon="7.177183298991774"><ele>1556.0</ele><time>2026-04-19T11:43:04.002Z</time></trkpt><trkpt lat="44.92378797691558" lon="7.177111282622263"><ele>1556.0</ele><time>2026-04-19T11:43:05.002Z</time></trkpt><trkpt lat="44.92370211220333" lon="7.177023804492656"><ele>1556.0</ele><time>2026-04-19T11:43:06.002Z</time></trkpt><trkpt lat="44.9235978075682" lon="7.176939005168373"><ele>1556.0</ele><time>2026-04-19T11:43:07.002Z</time></trkpt><trkpt lat="44.923484381944746" lon="7.176841349114554"><ele>1556.0</ele><time>2026-04-19T11:43:08.002Z</time></trkpt><trkpt lat="44.923370126406255" lon="7.176754800641204"><ele>1561.0</ele><time>2026-04-19T11:43:09.002Z</time></trkpt><trkpt lat="44.92326634942643" lon="7.176693602743314"><ele>1566.0</ele><time>2026-04-19T11:43:10.002Z</time></trkpt><trkpt lat="44.92314932938249" lon="7.176665415288555"><ele>1571.0</ele><time>2026-04-19T11:43:11.002Z</time></trkpt><trkpt lat="44.9230383378614" lon="7.176616512288408"><ele>1576.0</ele><time>2026-04-19T11:43:12.002Z</time></trkpt><trkpt lat="44.92292240502338" lon="7.176584211236396"><ele>1576.0</ele><time>2026-04-19T11:43:13.002Z</time></trkpt><trkpt lat="44.92280076436824" lon="7.176523029106029"><ele>1576.0</ele><time>2026-04-19T11:43:14.002Z</time></trkpt><trkpt lat="44.92267261769409" lon="7.176481823499535"><ele>1576.0</ele><time>2026-04-19T11:43:15.002Z</time></trkpt><trkpt lat="44.922544151459256" lon="7.176474884589756"><ele>1576.0</ele><time>2026-04-19T11:43:16.002Z</time></trkpt><trkpt lat="44.92242758507279" lon="7.176458331609227"><ele>1577.0</ele><time>2026-04-19T11:43:17.002Z</time></trkpt><trkpt lat="44.922311405169815" lon="7.176451407623409"><ele>1578.0</ele><time>2026-04-19T11:43:18.002Z</time></trkpt><trkpt lat="44.922199288905865" lon="7.176426754839722"><ele>1579.0</ele><time>2026-04-19T11:43:19.002Z</time></trkpt><trkpt lat="44.92210939336626" lon="7.17643284011959"><ele>1580.0</ele><time>2026-04-19T11:43:20.002Z</time></trkpt><trkpt lat="44.922002489682306" lon="7.176390358671614"><ele>1581.0</ele><time>2026-04-19T11:43:22.002Z</time></trkpt><trkpt lat="44.921931831951504" lon="7.17637308784452"><ele>1581.0</ele><time>2026-04-19T11:43:24.003Z</time></trkpt><trkpt lat="44.921854830989275" lon="7.176349683098419"><ele>1581.0</ele><time>2026-04-19T11:45:04.002Z</time></trkpt><trkpt lat="44.921772800721676" lon="7.176301639809884"><ele>1581.0</ele><time>2026-04-19T11:45:06.002Z</time></trkpt><trkpt lat="44.9216631528986" lon="7.176203297437673"><ele>1581.0</ele><time>2026-04-19T11:45:08.002Z</time></trkpt><trkpt lat="44.92160246855615" lon="7.176141378649476"><ele>1581.0</ele><time>2026-04-19T11:45:09.002Z</time></trkpt><trkpt lat="44.92153104549691" lon="7.176070428646595"><ele>1583.6</ele><time>2026-04-19T11:45:10.002Z</time></trkpt><trkpt lat="44.921452108728154" lon="7.1759975105401566"><ele>1586.1999999999998</ele><time>2026-04-19T11:45:11.002Z</time></trkpt><trkpt lat="44.92136955648608" lon="7.1759221005997045"><ele>1588.8000000000002</ele><time>2026-04-19T11:45:12.002Z</time></trkpt><trkpt lat="44.9212727781385" lon="7.1758336954042"><ele>1591.4</ele><time>2026-04-19T11:45:13.002Z</time></trkpt><trkpt lat="44.921170297737845" lon="7.175740651789779"><ele>1594.0</ele><time>2026-04-19T11:45:14.002Z</time></trkpt><trkpt lat="44.92107521329981" lon="7.175645444475421"><ele>1594.2</ele><time>2026-04-19T11:45:15.002Z</time></trkpt><trkpt lat="44.92099857598893" lon="7.17553410134883"><ele>1594.4</ele><time>2026-04-19T11:45:16.002Z</time></trkpt><trkpt lat="44.92090790685089" lon="7.175426168490619"><ele>1594.6</ele><time>2026-04-19T11:45:17.002Z</time></trkpt><trkpt lat="44.92081522747551" lon="7.175361775942607"><ele>1594.8</ele><time>2026-04-19T11:45:18.002Z</time></trkpt><trkpt lat="44.92075036069941" lon="7.175278623005645"><ele>1595.0</ele><time>2026-04-19T11:45:19.002Z</time></trkpt><trkpt lat="44.92069906766141" lon="7.1752126039084985"><ele>1595.0</ele><time>2026-04-19T11:45:20.002Z</time></trkpt><trkpt lat="44.920632786925815" lon="7.175181949765326"><ele>1595.0</ele><time>2026-04-19T11:45:21.002Z</time></trkpt><trkpt lat="44.92056207370832" lon="7.175228735608234"><ele>1595.0</ele><time>2026-04-19T11:45:23.002Z</time></trkpt><trkpt lat="44.92057491756387" lon="7.17536189164305"><ele>1595.0</ele><time>2026-04-19T11:45:24.002Z</time></trkpt><trkpt lat="44.92068127997563" lon="7.175517606139756"><ele>1595.0</ele><time>2026-04-19T11:45:26.002Z</time></trkpt><trkpt lat="44.92075212772589" lon="7.175620714182879"><ele>1594.75</ele><time>2026-04-19T11:45:27.002Z</time></trkpt><trkpt lat="44.92081393758468" lon="7.17575707423489"><ele>1594.5</ele><time>2026-04-19T11:45:28.002Z</time></trkpt><trkpt lat="44.920872961287955" lon="7.175919151120095"><ele>1594.25</ele><time>2026-04-19T11:45:29.003Z</time></trkpt><trkpt lat="44.92094502594423" lon="7.176072464263679"><ele>1594.0</ele><time>2026-04-19T11:45:30.003Z</time></trkpt><trkpt lat="44.92103006661566" lon="7.176226786425388"><ele>1594.0</ele><time>2026-04-19T11:45:31.003Z</time></trkpt><trkpt lat="44.92110994563056" lon="7.176393134581846"><ele>1594.0</ele><time>2026-04-19T11:45:32.003Z</time></trkpt><trkpt lat="44.92117562805535" lon="7.176556863242332"><ele>1594.0</ele><time>2026-04-19T11:45:33.003Z</time></trkpt><trkpt lat="44.92123909448638" lon="7.176706845334433"><ele>1594.0</ele><time>2026-04-19T11:45:34.003Z</time></trkpt><trkpt lat="44.921312369194005" lon="7.176838232462081"><ele>1591.0</ele><time>2026-04-19T11:45:35.003Z</time></trkpt><trkpt lat="44.92137701616533" lon="7.17696634641316"><ele>1588.0</ele><time>2026-04-19T11:45:36.003Z</time></trkpt><trkpt lat="44.92142715129388" lon="7.177119742858446"><ele>1585.0</ele><time>2026-04-19T11:45:37.003Z</time></trkpt><trkpt lat="44.921463266745626" lon="7.17728280824683"><ele>1582.0</ele><time>2026-04-19T11:45:38.003Z</time></trkpt><trkpt lat="44.92149587758733" lon="7.177467804376611"><ele>1578.0</ele><time>2026-04-19T11:45:39.003Z</time></trkpt><trkpt lat="44.921512740671744" lon="7.177663253536582"><ele>1574.0</ele><time>2026-04-19T11:45:40.003Z</time></trkpt><trkpt lat="44.92151911012385" lon="7.177846541160393"><ele>1570.0</ele><time>2026-04-19T11:45:41.003Z</time></trkpt><trkpt lat="44.92154856404677" lon="7.1780227669215115"><ele>1566.0</ele><time>2026-04-19T11:45:42.003Z</time></trkpt><trkpt lat="44.921622683553714" lon="7.178169749191663"><ele>1563.8</ele><time>2026-04-19T11:45:43.003Z</time></trkpt><trkpt lat="44.921680521167914" lon="7.1783171365304295"><ele>1561.6</ele><time>2026-04-19T11:45:44.003Z</time></trkpt><trkpt lat="44.92172132890336" lon="7.17843272145236"><ele>1559.4</ele><time>2026-04-19T11:45:45.003Z</time></trkpt><trkpt lat="44.921707262176206" lon="7.178562093886593"><ele>1557.2</ele><time>2026-04-19T11:45:46.003Z</time></trkpt><trkpt lat="44.92172085066796" lon="7.178709023616762"><ele>1555.0</ele><time>2026-04-19T11:45:47.003Z</time></trkpt><trkpt lat="44.92174115795144" lon="7.178878952607804"><ele>1558.25</ele><time>2026-04-19T11:45:48.003Z</time></trkpt><trkpt lat="44.921799396431965" lon="7.179049646734416"><ele>1561.5</ele><time>2026-04-19T11:45:49.003Z</time></trkpt><trkpt lat="44.92185066212905" lon="7.179228823248374"><ele>1564.75</ele><time>2026-04-19T11:45:50.003Z</time></trkpt><trkpt lat="44.92189358147291" lon="7.179421894911861"><ele>1568.0</ele><time>2026-04-19T11:45:51.003Z</time></trkpt><trkpt lat="44.9219257375702" lon="7.179605797223241"><ele>1568.0</ele><time>2026-04-19T11:45:52.003Z</time></trkpt><trkpt lat="44.92195498602095" lon="7.179785941443516"><ele>1568.0</ele><time>2026-04-19T11:45:53.003Z</time></trkpt><trkpt lat="44.92195362887424" lon="7.179952307492388"><ele>1568.0</ele><time>2026-04-19T11:45:54.003Z</time></trkpt><trkpt lat="44.92192109009214" lon="7.180098400018691"><ele>1568.0</ele><time>2026-04-19T11:45:55.003Z</time></trkpt><trkpt lat="44.921869701036634" lon="7.180244787964116"><ele>1565.5</ele><time>2026-04-19T11:45:56.003Z</time></trkpt><trkpt lat="44.92180945929876" lon="7.180403425264174"><ele>1563.0</ele><time>2026-04-19T11:45:57.003Z</time></trkpt><trkpt lat="44.92177314303673" lon="7.180551198935138"><ele>1560.5</ele><time>2026-04-19T11:45:58Z</time></trkpt><trkpt lat="44.921775439692695" lon="7.180699880130569"><ele>1558.0</ele><time>2026-04-19T11:45:59Z</time></trkpt><trkpt lat="44.921784816131805" lon="7.180851003087198"><ele>1556.25</ele><time>2026-04-19T11:46:00Z</time></trkpt><trkpt lat="44.92176201369979" lon="7.181021207080158"><ele>1554.5</ele><time>2026-04-19T11:46:01Z</time></trkpt><trkpt lat="44.92173668440432" lon="7.181196075627617"><ele>1552.75</ele><time>2026-04-19T11:46:02Z</time></trkpt><trkpt lat="44.92173241820835" lon="7.181377669584264"><ele>1551.0</ele><time>2026-04-19T11:46:03Z</time></trkpt><trkpt lat="44.92172977687798" lon="7.181563757830594"><ele>1550.0</ele><time>2026-04-19T11:46:04Z</time></trkpt><trkpt lat="44.921734306127874" lon="7.1817448633873555"><ele>1549.0</ele><time>2026-04-19T11:46:05Z</time></trkpt><trkpt lat="44.92175194985033" lon="7.181912539562599"><ele>1548.0</ele><time>2026-04-19T11:46:06Z</time></trkpt><trkpt lat="44.92177072714763" lon="7.182061769326119"><ele>1547.0</ele><time>2026-04-19T11:46:07Z</time></trkpt><trkpt lat="44.92179443588732" lon="7.182203220947358"><ele>1545.0</ele><time>2026-04-19T11:46:08Z</time></trkpt><trkpt lat="44.92183806767278" lon="7.1823609298646165"><ele>1543.0</ele><time>2026-04-19T11:46:09Z</time></trkpt><trkpt lat="44.921898732239846" lon="7.182521384379693"><ele>1541.0</ele><time>2026-04-19T11:46:10Z</time></trkpt><trkpt lat="44.921957752897875" lon="7.182681154313971"><ele>1539.0</ele><time>2026-04-19T11:46:11Z</time></trkpt><trkpt lat="44.92199715915942" lon="7.182844345170186"><ele>1539.0</ele><time>2026-04-19T11:46:12Z</time></trkpt><trkpt lat="44.922022843176784" lon="7.183003223540729"><ele>1539.0</ele><time>2026-04-19T11:46:13Z</time></trkpt><trkpt lat="44.92203831472538" lon="7.18315953272337"><ele>1539.0</ele><time>2026-04-19T11:46:14Z</time></trkpt><trkpt lat="44.92204507355731" lon="7.183310066128924"><ele>1539.0</ele><time>2026-04-19T11:46:15Z</time></trkpt><trkpt lat="44.92205483582851" lon="7.183457197607342"><ele>1539.0</ele><time>2026-04-19T11:46:16Z</time></trkpt><trkpt lat="44.92207771231091" lon="7.1835862201063705"><ele>1536.75</ele><time>2026-04-19T11:46:17Z</time></trkpt><trkpt lat="44.92211496345499" lon="7.1837317993035965"><ele>1534.5</ele><time>2026-04-19T11:46:18Z</time></trkpt><trkpt lat="44.922169207125364" lon="7.183887387489225"><ele>1532.25</ele><time>2026-04-19T11:46:19Z</time></trkpt><trkpt lat="44.92224556913827" lon="7.18403024303705"><ele>1530.0</ele><time>2026-04-19T11:46:20Z</time></trkpt><trkpt lat="44.922330178346" lon="7.184186885773141"><ele>1531.4</ele><time>2026-04-19T11:46:21Z</time></trkpt><trkpt lat="44.92240549914407" lon="7.184327076848145"><ele>1532.8</ele><time>2026-04-19T11:46:22Z</time></trkpt><trkpt lat="44.92248507030227" lon="7.184440714106737"><ele>1534.1999999999998</ele><time>2026-04-19T11:46:23Z</time></trkpt><trkpt lat="44.92256582597364" lon="7.1845250734849"><ele>1535.6</ele><time>2026-04-19T11:46:24Z</time></trkpt><trkpt lat="44.92264820262384" lon="7.184614172445878"><ele>1537.0</ele><time>2026-04-19T11:46:25Z</time></trkpt><trkpt lat="44.92270421272793" lon="7.18472952701091"><ele>1536.0</ele><time>2026-04-19T11:46:26Z</time></trkpt><trkpt lat="44.92274258211985" lon="7.184873781053134"><ele>1535.0</ele><time>2026-04-19T11:46:27Z</time></trkpt><trkpt lat="44.92276982914197" lon="7.185032201860726"><ele>1534.0</ele><time>2026-04-19T11:46:28Z</time></trkpt><trkpt lat="44.922789382768826" lon="7.185177368075281"><ele>1533.0</ele><time>2026-04-19T11:46:29.001Z</time></trkpt><trkpt lat="44.922790335346804" lon="7.18529572908745"><ele>1532.0</ele><time>2026-04-19T11:46:30.001Z</time></trkpt><trkpt lat="44.922775503893945" lon="7.185403542809079"><ele>1532.0</ele><time>2026-04-19T11:46:31.001Z</time></trkpt><trkpt lat="44.922749707000015" lon="7.185599277377524"><ele>1532.0</ele><time>2026-04-19T11:46:32.001Z</time></trkpt><trkpt lat="44.922729347899285" lon="7.185771901856009"><ele>1532.0</ele><time>2026-04-19T11:46:33.001Z</time></trkpt><trkpt lat="44.922697328963274" lon="7.1859444758026765"><ele>1532.0</ele><time>2026-04-19T11:46:34.001Z</time></trkpt><trkpt lat="44.92265485480333" lon="7.186098693039638"><ele>1531.5</ele><time>2026-04-19T11:46:35.001Z</time></trkpt><trkpt lat="44.92259552210521" lon="7.18625533347267"><ele>1531.0</ele><time>2026-04-19T11:46:36.001Z</time></trkpt><trkpt lat="44.92253561882424" lon="7.186421381217327"><ele>1530.5</ele><time>2026-04-19T11:46:37.001Z</time></trkpt><trkpt lat="44.92248497985429" lon="7.186584929069665"><ele>1530.0</ele><time>2026-04-19T11:46:38.001Z</time></trkpt><trkpt lat="44.922436997909934" lon="7.186746573831059"><ele>1524.6</ele><time>2026-04-19T11:46:39.001Z</time></trkpt><trkpt lat="44.9224023632337" lon="7.186904640558357"><ele>1519.2</ele><time>2026-04-19T11:46:40.001Z</time></trkpt><trkpt lat="44.92237287976029" lon="7.187059282075175"><ele>1513.8000000000002</ele><time>2026-04-19T11:46:41.001Z</time></trkpt><trkpt lat="44.92230312062257" lon="7.1871858851159"><ele>1508.4</ele><time>2026-04-19T11:46:42.001Z</time></trkpt><trkpt lat="44.92223269683214" lon="7.18728325225759"><ele>1503.0</ele><time>2026-04-19T11:46:43.001Z</time></trkpt><trkpt lat="44.9221517959011" lon="7.18736406943112"><ele>1502.8000000000002</ele><time>2026-04-19T11:46:44.001Z</time></trkpt><trkpt lat="44.92207439109188" lon="7.187469577676939"><ele>1502.6</ele><time>2026-04-19T11:46:45.001Z</time></trkpt><trkpt lat="44.92202005803127" lon="7.187590639855795"><ele>1502.4</ele><time>2026-04-19T11:46:46.001Z</time></trkpt><trkpt lat="44.921990447657734" lon="7.187731274426756"><ele>1502.1999999999998</ele><time>2026-04-19T11:46:47.001Z</time></trkpt><trkpt lat="44.92197934112085" lon="7.187876954567167"><ele>1502.0</ele><time>2026-04-19T11:46:48.001Z</time></trkpt><trkpt lat="44.9219911635689" lon="7.187999418136718"><ele>1502.0</ele><time>2026-04-19T11:46:49.001Z</time></trkpt><trkpt lat="44.92202167084066" lon="7.188092642254259"><ele>1502.0</ele><time>2026-04-19T11:46:50.001Z</time></trkpt><trkpt lat="44.9220850787424" lon="7.1881740285632745"><ele>1502.0</ele><time>2026-04-19T11:46:51.001Z</time></trkpt><trkpt lat="44.92216552837977" lon="7.188236755345467"><ele>1502.0</ele><time>2026-04-19T11:46:52.001Z</time></trkpt><trkpt lat="44.92223071211111" lon="7.188306589982419"><ele>1502.0</ele><time>2026-04-19T11:46:53.001Z</time></trkpt><trkpt lat="44.92226855555524" lon="7.188395153719967"><ele>1502.0</ele><time>2026-04-19T11:46:54.001Z</time></trkpt><trkpt lat="44.92227161862861" lon="7.188493898854494"><ele>1499.3999999999999</ele><time>2026-04-19T11:46:55.001Z</time></trkpt><trkpt lat="44.922233089531034" lon="7.188608491724152"><ele>1496.8</ele><time>2026-04-19T11:46:56.001Z</time></trkpt><trkpt lat="44.92216703923391" lon="7.188718493752463"><ele>1494.2</ele><time>2026-04-19T11:46:57.001Z</time></trkpt><trkpt lat="44.92210282152147" lon="7.188828162364276"><ele>1491.6</ele><time>2026-04-19T11:46:58.001Z</time></trkpt><trkpt lat="44.92204536231546" lon="7.188974643829939"><ele>1489.0</ele><time>2026-04-19T11:46:59.001Z</time></trkpt><trkpt lat="44.92201190483677" lon="7.189103544045641"><ele>1488.3333333333333</ele><time>2026-04-19T11:47:00.001Z</time></trkpt><trkpt lat="44.92199906043233" lon="7.189225259270666"><ele>1487.6666666666665</ele><time>2026-04-19T11:47:01.001Z</time></trkpt><trkpt lat="44.92202362980893" lon="7.189323617230891"><ele>1487.0</ele><time>2026-04-19T11:47:02.001Z</time></trkpt><trkpt lat="44.922077700072336" lon="7.189407136262127"><ele>1486.3333333333333</ele><time>2026-04-19T11:47:03.001Z</time></trkpt><trkpt lat="44.922153015961136" lon="7.18950412544598"><ele>1485.6666666666667</ele><time>2026-04-19T11:47:04.001Z</time></trkpt><trkpt lat="44.9222123893285" lon="7.189601107891887"><ele>1485.0</ele><time>2026-04-19T11:47:05.001Z</time></trkpt><trkpt lat="44.92224189194406" lon="7.189707171939236"><ele>1485.0</ele><time>2026-04-19T11:47:06.001Z</time></trkpt><trkpt lat="44.92223558322397" lon="7.189814148340468"><ele>1485.0</ele><time>2026-04-19T11:47:07.001Z</time></trkpt><trkpt lat="44.92221011143379" lon="7.189914408291901"><ele>1485.0</ele><time>2026-04-19T11:47:08.002Z</time></trkpt><trkpt lat="44.92217656737879" lon="7.190017195523904"><ele>1485.0</ele><time>2026-04-19T11:47:09.002Z</time></trkpt><trkpt lat="44.9221293742348" lon="7.190148992296934"><ele>1485.0</ele><time>2026-04-19T11:47:10.002Z</time></trkpt><trkpt lat="44.92208654830498" lon="7.190253518393905"><ele>1485.0</ele><time>2026-04-19T11:47:11.002Z</time></trkpt><trkpt lat="44.921991934099346" lon="7.190282819027021"><ele>1484.4</ele><time>2026-04-19T11:47:13.002Z</time></trkpt><trkpt lat="44.921883880463504" lon="7.190153829673884"><ele>1483.8</ele><time>2026-04-19T11:47:15.002Z</time></trkpt><trkpt lat="44.92181277371617" lon="7.190061785224929"><ele>1483.1999999999998</ele><time>2026-04-19T11:47:16.002Z</time></trkpt><trkpt lat="44.92173311321232" lon="7.189962024970982"><ele>1482.6</ele><time>2026-04-19T11:47:17.002Z</time></trkpt><trkpt lat="44.921645425017815" lon="7.189882202323221"><ele>1482.0</ele><time>2026-04-19T11:47:18.002Z</time></trkpt><trkpt lat="44.921555709846345" lon="7.1898373390839065"><ele>1479.1666666666667</ele><time>2026-04-19T11:47:19.002Z</time></trkpt><trkpt lat="44.92147297580961" lon="7.189820847633581"><ele>1476.3333333333333</ele><time>2026-04-19T11:47:20.002Z</time></trkpt><trkpt lat="44.92140127133538" lon="7.1897817481154265"><ele>1473.5</ele><time>2026-04-19T11:47:21.002Z</time></trkpt><trkpt lat="44.92134619111927" lon="7.189698158659356"><ele>1470.6666666666665</ele><time>2026-04-19T11:47:22.002Z</time></trkpt><trkpt lat="44.92130606158295" lon="7.189584920873184"><ele>1467.8333333333333</ele><time>2026-04-19T11:47:23.002Z</time></trkpt><trkpt lat="44.92126489174876" lon="7.189447765888642"><ele>1465.0</ele><time>2026-04-19T11:47:24.002Z</time></trkpt><trkpt lat="44.92121297198915" lon="7.189310692156765"><ele>1465.0</ele><time>2026-04-19T11:47:25.002Z</time></trkpt><trkpt lat="44.92115315751719" lon="7.189190426858279"><ele>1465.0</ele><time>2026-04-19T11:47:26.002Z</time></trkpt><trkpt lat="44.92106567700733" lon="7.189095457454417"><ele>1465.0</ele><time>2026-04-19T11:47:27.002Z</time></trkpt><trkpt lat="44.92097607498864" lon="7.188982631769996"><ele>1465.0</ele><time>2026-04-19T11:47:28.002Z</time></trkpt><trkpt lat="44.920911126243716" lon="7.188847550389593"><ele>1461.4</ele><time>2026-04-19T11:47:29.002Z</time></trkpt><trkpt lat="44.920845277302824" lon="7.188724792017535"><ele>1457.8</ele><time>2026-04-19T11:47:30.002Z</time></trkpt><trkpt lat="44.920767055607094" lon="7.188617568251722"><ele>1454.1999999999998</ele><time>2026-04-19T11:47:31.002Z</time></trkpt><trkpt lat="44.92067081234223" lon="7.188542113011963"><ele>1450.6</ele><time>2026-04-19T11:47:32.002Z</time></trkpt><trkpt lat="44.920580718679" lon="7.188497026283693"><ele>1447.0</ele><time>2026-04-19T11:47:33.002Z</time></trkpt><trkpt lat="44.92051190884901" lon="7.188446089967384"><ele>1447.0</ele><time>2026-04-19T11:47:34.002Z</time></trkpt><trkpt lat="44.92046904926456" lon="7.188376926234918"><ele>1447.0</ele><time>2026-04-19T11:47:35.002Z</time></trkpt><trkpt lat="44.92041922243062" lon="7.188300022182184"><ele>1447.0</ele><time>2026-04-19T11:47:36.002Z</time></trkpt><trkpt lat="44.920367749676096" lon="7.188196164551655"><ele>1447.0</ele><time>2026-04-19T11:47:37.002Z</time></trkpt><trkpt lat="44.920333022786686" lon="7.188096083331088"><ele>1447.0</ele><time>2026-04-19T11:47:38.002Z</time></trkpt><trkpt lat="44.92037689288779" lon="7.187988080976217"><ele>1447.0</ele><time>2026-04-19T11:47:39.002Z</time></trkpt><trkpt lat="44.920364929328734" lon="7.187855439536994"><ele>1447.3333333333333</ele><time>2026-04-19T11:47:41.002Z</time></trkpt><trkpt lat="44.92035334300806" lon="7.1877462750530645"><ele>1447.6666666666665</ele><time>2026-04-19T11:47:43.002Z</time></trkpt><trkpt lat="44.92033663385017" lon="7.1876409564164"><ele>1448.0</ele><time>2026-04-19T11:47:45.002Z</time></trkpt><trkpt lat="44.920305487252875" lon="7.18755854069096"><ele>1448.3333333333333</ele><time>2026-04-19T11:47:47.003Z</time></trkpt><trkpt lat="44.92019209185594" lon="7.187625086160436"><ele>1448.6666666666667</ele><time>2026-04-19T11:47:49.003Z</time></trkpt><trkpt lat="44.92026184368559" lon="7.187615124610905"><ele>1449.0</ele><time>2026-04-19T11:47:53.003Z</time></trkpt><trkpt lat="44.92022357944177" lon="7.187761994123302"><ele>1449.0</ele><time>2026-04-19T11:47:55.003Z</time></trkpt><trkpt lat="44.92017129874787" lon="7.187928869796789"><ele>1449.0</ele><time>2026-04-19T11:47:57.003Z</time></trkpt><trkpt lat="44.92014854798119" lon="7.1880229051092055"><ele>1449.0</ele><time>2026-04-19T11:47:58.003Z</time></trkpt><trkpt lat="44.92012787842751" lon="7.1881328732185095"><ele>1449.0</ele><time>2026-04-19T11:47:59.003Z</time></trkpt><trkpt lat="44.92011732663557" lon="7.188236698779361"><ele>1449.0</ele><time>2026-04-19T11:48:00.003Z</time></trkpt><trkpt lat="44.920556815407416" lon="7.188476775625472"><ele>1448.5</ele><time>2026-04-19T11:48:01.003Z</time></trkpt><trkpt lat="44.920645326307714" lon="7.188567355484121"><ele>1448.0</ele><time>2026-04-19T11:48:02.003Z</time></trkpt><trkpt lat="44.92075348103154" lon="7.188633453028712"><ele>1447.5</ele><time>2026-04-19T11:48:03.003Z</time></trkpt><trkpt lat="44.92085940423669" lon="7.188723370405082"><ele>1447.0</ele><time>2026-04-19T11:48:03.999Z</time></trkpt><trkpt lat="44.92093116684501" lon="7.188836683082129"><ele>1450.6</ele><time>2026-04-19T11:48:04.999Z</time></trkpt><trkpt lat="44.920987355093054" lon="7.188964730862016"><ele>1454.1999999999998</ele><time>2026-04-19T11:48:05.999Z</time></trkpt><trkpt lat="44.92104097205997" lon="7.189094100259829"><ele>1457.8</ele><time>2026-04-19T11:48:06.999Z</time></trkpt><trkpt lat="44.92111129493707" lon="7.189198786838633"><ele>1461.4</ele><time>2026-04-19T11:48:07.999Z</time></trkpt><trkpt lat="44.92118919148283" lon="7.189288242369527"><ele>1465.0</ele><time>2026-04-19T11:48:08.999Z</time></trkpt><trkpt lat="44.92126865132625" lon="7.1894111909221685"><ele>1465.0</ele><time>2026-04-19T11:48:09.999Z</time></trkpt><trkpt lat="44.9213140195561" lon="7.189544345941583"><ele>1465.0</ele><time>2026-04-19T11:48:10.999Z</time></trkpt><trkpt lat="44.92135284236899" lon="7.189694152517483"><ele>1465.0</ele><time>2026-04-19T11:48:11.999Z</time></trkpt><trkpt lat="44.92139016824678" lon="7.189800319983825"><ele>1465.0</ele><time>2026-04-19T11:48:12.999Z</time></trkpt><trkpt lat="44.92153066025128" lon="7.1898829737213985"><ele>1463.6</ele><time>2026-04-19T11:48:14.999Z</time></trkpt><trkpt lat="44.92164797588961" lon="7.189923248957319"><ele>1462.2</ele><time>2026-04-19T11:48:15.999Z</time></trkpt><trkpt lat="44.92173945078821" lon="7.189961539469338"><ele>1460.8000000000002</ele><time>2026-04-19T11:48:16.999Z</time></trkpt><trkpt lat="44.92181548504853" lon="7.190029818614445"><ele>1459.4</ele><time>2026-04-19T11:48:18Z</time></trkpt><trkpt lat="44.92188332758645" lon="7.190126113019345"><ele>1458.0</ele><time>2026-04-19T11:48:19Z</time></trkpt><trkpt lat="44.92195420534993" lon="7.190224131895422"><ele>1461.4285714285716</ele><time>2026-04-19T11:48:20Z</time></trkpt><trkpt lat="44.92201204746647" lon="7.1902727692641015"><ele>1464.8571428571427</ele><time>2026-04-19T11:48:21Z</time></trkpt><trkpt lat="44.92208544064024" lon="7.190226791601936"><ele>1468.2857142857142</ele><time>2026-04-19T11:48:23Z</time></trkpt><trkpt lat="44.92211778632671" lon="7.190144165991439"><ele>1471.7142857142858</ele><time>2026-04-19T11:48:24Z</time></trkpt><trkpt lat="44.92214375522284" lon="7.190062621515695"><ele>1475.1428571428573</ele><time>2026-04-19T11:48:25Z</time></trkpt><trkpt lat="44.92219443865056" lon="7.190006358296086"><ele>1478.5714285714284</ele><time>2026-04-19T11:48:26Z</time></trkpt><trkpt lat="44.92221986049167" lon="7.189892219996326"><ele>1482.0</ele><time>2026-04-19T11:48:29Z</time></trkpt><trkpt lat="44.92223491103001" lon="7.1898042004502"><ele>1482.0</ele><time>2026-04-19T11:48:30Z</time></trkpt><trkpt lat="44.92225214330639" lon="7.189695449959499"><ele>1482.0</ele><time>2026-04-19T11:48:32Z</time></trkpt><trkpt lat="44.922254883948845" lon="7.189596358956002"><ele>1482.0</ele><time>2026-04-19T11:48:33Z</time></trkpt><trkpt lat="44.922070407581636" lon="7.189868831907797"><ele>1482.0</ele><time>2026-04-19T11:48:38Z</time></trkpt><trkpt lat="44.922096023586136" lon="7.189985018199485"><ele>1482.0</ele><time>2026-04-19T11:48:41.001Z</time></trkpt><trkpt lat="44.9221793737803" lon="7.1901160289455746"><ele>1482.0</ele><time>2026-04-19T11:48:43.001Z</time></trkpt><trkpt lat="44.92229881917292" lon="7.1901898710385534"><ele>1482.0</ele><time>2026-04-19T11:48:45.001Z</time></trkpt><trkpt lat="44.92236573953786" lon="7.190240228810834"><ele>1482.0</ele><time>2026-04-19T11:48:46.001Z</time></trkpt><trkpt lat="44.92241250749932" lon="7.190302554009002"><ele>1482.0</ele><time>2026-04-19T11:48:47.001Z</time></trkpt><trkpt lat="44.92240248423225" lon="7.19044949751388"><ele>1482.0</ele><time>2026-04-19T11:48:49.001Z</time></trkpt><trkpt lat="44.92237685042202" lon="7.1905705684873125"><ele>1482.0</ele><time>2026-04-19T11:48:50.001Z</time></trkpt><trkpt lat="44.922373111494" lon="7.190684486570553"><ele>1482.0</ele><time>2026-04-19T11:48:51.001Z</time></trkpt><trkpt lat="44.92243855951843" lon="7.190807101851519"><ele>1482.0</ele><time>2026-04-19T11:48:53.001Z</time></trkpt><trkpt lat="44.92250824846134" lon="7.190865980571811"><ele>1482.0</ele><time>2026-04-19T11:48:54.001Z</time></trkpt><trkpt lat="44.92259067479552" lon="7.190924767859867"><ele>1488.25</ele><time>2026-04-19T11:48:55.001Z</time></trkpt><trkpt lat="44.922684582176686" lon="7.19099921798371"><ele>1494.5</ele><time>2026-04-19T11:48:56.001Z</time></trkpt><trkpt lat="44.922777160024864" lon="7.191107659134679"><ele>1500.75</ele><time>2026-04-19T11:48:57.001Z</time></trkpt><trkpt lat="44.922866517693826" lon="7.191218634700009"><ele>1507.0</ele><time>2026-04-19T11:48:58.001Z</time></trkpt><trkpt lat="44.92295014609124" lon="7.191337060074241"><ele>1507.0</ele><time>2026-04-19T11:48:59.001Z</time></trkpt><trkpt lat="44.923020877846945" lon="7.191447343489758"><ele>1507.0</ele><time>2026-04-19T11:49:00.001Z</time></trkpt><trkpt lat="44.923101302899326" lon="7.191560950426806"><ele>1507.0</ele><time>2026-04-19T11:49:01.001Z</time></trkpt><trkpt lat="44.92318803532287" lon="7.191663306950257"><ele>1507.0</ele><time>2026-04-19T11:49:02.001Z</time></trkpt><trkpt lat="44.92328489055529" lon="7.191764897987223"><ele>1508.6</ele><time>2026-04-19T11:49:03.001Z</time></trkpt><trkpt lat="44.92338019499105" lon="7.191871904992411"><ele>1510.1999999999998</ele><time>2026-04-19T11:49:04.001Z</time></trkpt><trkpt lat="44.923466302304185" lon="7.191964497625133"><ele>1511.8</ele><time>2026-04-19T11:49:05.001Z</time></trkpt><trkpt lat="44.923520620002726" lon="7.19204445110644"><ele>1513.4</ele><time>2026-04-19T11:49:06.001Z</time></trkpt><trkpt lat="44.923526488727255" lon="7.19218425305431"><ele>1515.0</ele><time>2026-04-19T11:49:08.001Z</time></trkpt><trkpt lat="44.92348840361773" lon="7.192370342560866"><ele>1515.0</ele><time>2026-04-19T11:49:10.001Z</time></trkpt><trkpt lat="44.92342866791187" lon="7.192491811137529"><ele>1515.0</ele><time>2026-04-19T11:49:11.001Z</time></trkpt><trkpt lat="44.92336523299326" lon="7.192646107937675"><ele>1515.0</ele><time>2026-04-19T11:49:12.001Z</time></trkpt><trkpt lat="44.92331475630487" lon="7.192781326383845"><ele>1515.0</ele><time>2026-04-19T11:49:13.002Z</time></trkpt><trkpt lat="44.923283811834324" lon="7.192917103562218"><ele>1515.0</ele><time>2026-04-19T11:49:14.002Z</time></trkpt><trkpt lat="44.92327321003629" lon="7.193057309129953"><ele>1509.2</ele><time>2026-04-19T11:49:15.002Z</time></trkpt><trkpt lat="44.92325557640139" lon="7.193208595765169"><ele>1503.4</ele><time>2026-04-19T11:49:16.002Z</time></trkpt><trkpt lat="44.923259971792376" lon="7.19336232934569"><ele>1497.6</ele><time>2026-04-19T11:49:17.002Z</time></trkpt><trkpt lat="44.923287818061944" lon="7.193512671595604"><ele>1491.8</ele><time>2026-04-19T11:49:18.002Z</time></trkpt><trkpt lat="44.92332450945771" lon="7.193638064476079"><ele>1486.0</ele><time>2026-04-19T11:49:19.002Z</time></trkpt><trkpt lat="44.92335132684319" lon="7.193732441732328"><ele>1486.0</ele><time>2026-04-19T11:49:20.002Z</time></trkpt><trkpt lat="44.92335670385097" lon="7.193837004329554"><ele>1486.0</ele><time>2026-04-19T11:49:21.002Z</time></trkpt><trkpt lat="44.92333286679801" lon="7.193930768420026"><ele>1486.0</ele><time>2026-04-19T11:49:22.002Z</time></trkpt><trkpt lat="44.923227326167186" lon="7.194028506925958"><ele>1486.0</ele><time>2026-04-19T11:49:24.002Z</time></trkpt><trkpt lat="44.92314679748668" lon="7.194057009426327"><ele>1486.0</ele><time>2026-04-19T11:49:25.002Z</time></trkpt><trkpt lat="44.923052380213385" lon="7.194073863467514"><ele>1486.0</ele><time>2026-04-19T11:49:26.002Z</time></trkpt><trkpt lat="44.92298816980214" lon="7.1940884653455095"><ele>1487.0</ele><time>2026-04-19T11:49:27.002Z</time></trkpt><trkpt lat="44.9229024915185" lon="7.1942475863654956"><ele>1488.0</ele><time>2026-04-19T11:49:29.002Z</time></trkpt><trkpt lat="44.92281865090418" lon="7.194366618030614"><ele>1489.0</ele><time>2026-04-19T11:49:30.002Z</time></trkpt><trkpt lat="44.92272786824034" lon="7.194465599927778"><ele>1490.0</ele><time>2026-04-19T11:49:31.002Z</time></trkpt><trkpt lat="44.92263738938416" lon="7.19457144817286"><ele>1487.4</ele><time>2026-04-19T11:49:32.002Z</time></trkpt><trkpt lat="44.922538558510084" lon="7.194679176384457"><ele>1484.8</ele><time>2026-04-19T11:49:33.002Z</time></trkpt><trkpt lat="44.92244125292971" lon="7.194782332533022"><ele>1482.1999999999998</ele><time>2026-04-19T11:49:34.002Z</time></trkpt><trkpt lat="44.922362520462045" lon="7.1948739837479465"><ele>1479.6</ele><time>2026-04-19T11:49:35.002Z</time></trkpt><trkpt lat="44.92231856184195" lon="7.194956304637443"><ele>1477.0</ele><time>2026-04-19T11:49:36.002Z</time></trkpt><trkpt lat="44.92227826024378" lon="7.195156409397088"><ele>1477.0</ele><time>2026-04-19T11:49:38.002Z</time></trkpt><trkpt lat="44.92225154834357" lon="7.195311298255875"><ele>1477.0</ele><time>2026-04-19T11:49:39.002Z</time></trkpt><trkpt lat="44.9222364614813" lon="7.195480885526957"><ele>1477.0</ele><time>2026-04-19T11:49:40.002Z</time></trkpt><trkpt lat="44.922225398722716" lon="7.195628484847055"><ele>1477.0</ele><time>2026-04-19T11:49:41.002Z</time></trkpt><trkpt lat="44.92220656296856" lon="7.195772696233353"><ele>1477.0</ele><time>2026-04-19T11:49:42.002Z</time></trkpt><trkpt lat="44.922192184207105" lon="7.195942920759174"><ele>1479.5</ele><time>2026-04-19T11:49:43.002Z</time></trkpt><trkpt lat="44.92217413700857" lon="7.196123947775197"><ele>1482.0</ele><time>2026-04-19T11:49:44.002Z</time></trkpt><trkpt lat="44.922159901772346" lon="7.196331338163369"><ele>1484.5</ele><time>2026-04-19T11:49:45.002Z</time></trkpt><trkpt lat="44.92216445249153" lon="7.196533583435451"><ele>1487.0</ele><time>2026-04-19T11:49:46.003Z</time></trkpt><trkpt lat="44.922169395526915" lon="7.19670935178524"><ele>1487.3999999999999</ele><time>2026-04-19T11:49:47.003Z</time></trkpt><trkpt lat="44.92216393244325" lon="7.196854622122307"><ele>1487.8</ele><time>2026-04-19T11:49:48.003Z</time></trkpt><trkpt lat="44.9221231605626" lon="7.1969826760489175"><ele>1488.2</ele><time>2026-04-19T11:49:49.003Z</time></trkpt><trkpt lat="44.92207361055081" lon="7.197113004217147"><ele>1488.6</ele><time>2026-04-19T11:49:50.003Z</time></trkpt><trkpt lat="44.9220223119883" lon="7.197278936939293"><ele>1489.0</ele><time>2026-04-19T11:49:51.003Z</time></trkpt><trkpt lat="44.92197699929534" lon="7.197463769465552"><ele>1489.0</ele><time>2026-04-19T11:49:52.003Z</time></trkpt><trkpt lat="44.921926785848314" lon="7.197638618979048"><ele>1489.0</ele><time>2026-04-19T11:49:53.003Z</time></trkpt><trkpt lat="44.921876440032484" lon="7.197818261190339"><ele>1489.0</ele><time>2026-04-19T11:49:54.003Z</time></trkpt><trkpt lat="44.921842560967455" lon="7.197979855786302"><ele>1489.0</ele><time>2026-04-19T11:49:55.003Z</time></trkpt><trkpt lat="44.921817431520616" lon="7.198121982792173"><ele>1489.0</ele><time>2026-04-19T11:49:56.003Z</time></trkpt><trkpt lat="44.921806446657264" lon="7.198289036837752"><ele>1489.0</ele><time>2026-04-19T11:49:57.003Z</time></trkpt><trkpt lat="44.92181005931443" lon="7.198465932926821"><ele>1489.0</ele><time>2026-04-19T11:49:58.003Z</time></trkpt><trkpt lat="44.92180306787093" lon="7.198621645446233"><ele>1489.0</ele><time>2026-04-19T11:49:59.003Z</time></trkpt><trkpt lat="44.92177763860468" lon="7.19876893146556"><ele>1489.0</ele><time>2026-04-19T11:50:00.003Z</time></trkpt><trkpt lat="44.92173952595278" lon="7.198911700161767"><ele>1489.0</ele><time>2026-04-19T11:50:01.003Z</time></trkpt><trkpt lat="44.92169014449407" lon="7.199048141274049"><ele>1489.0</ele><time>2026-04-19T11:50:02.003Z</time></trkpt><trkpt lat="44.92164049499135" lon="7.199188586888991"><ele>1489.0</ele><time>2026-04-19T11:50:03.003Z</time></trkpt><trkpt lat="44.92159725569139" lon="7.199300081565953"><ele>1489.0</ele><time>2026-04-19T11:50:04.003Z</time></trkpt><trkpt lat="44.92149854704928" lon="7.199414000490596"><ele>1484.4</ele><time>2026-04-19T11:50:06.003Z</time></trkpt><trkpt lat="44.921411278640576" lon="7.199469633280366"><ele>1479.8000000000002</ele><time>2026-04-19T11:50:07.003Z</time></trkpt><trkpt lat="44.921337112880856" lon="7.199533923420713"><ele>1475.1999999999998</ele><time>2026-04-19T11:50:08.003Z</time></trkpt><trkpt lat="44.92124826994776" lon="7.199570559219879"><ele>1470.6</ele><time>2026-04-19T11:50:09.999Z</time></trkpt><trkpt lat="44.921154192636614" lon="7.199440423497243"><ele>1466.0</ele><time>2026-04-19T11:50:11.999Z</time></trkpt><trkpt lat="44.92107568509672" lon="7.199341761881601"><ele>1466.0</ele><time>2026-04-19T11:50:12.999Z</time></trkpt><trkpt lat="44.920993717051" lon="7.199244735600224"><ele>1466.0</ele><time>2026-04-19T11:50:13.999Z</time></trkpt><trkpt lat="44.920925120499525" lon="7.1991475624296415"><ele>1466.0</ele><time>2026-04-19T11:50:14.999Z</time></trkpt><trkpt lat="44.92087486635429" lon="7.199036346798256"><ele>1466.0</ele><time>2026-04-19T11:50:15.999Z</time></trkpt><trkpt lat="44.92081955619942" lon="7.198913058541976"><ele>1466.0</ele><time>2026-04-19T11:50:16.999Z</time></trkpt><trkpt lat="44.920726475364155" lon="7.198832657074411"><ele>1461.8333333333335</ele><time>2026-04-19T11:50:18Z</time></trkpt><trkpt lat="44.92064664285227" lon="7.198773493008798"><ele>1457.6666666666667</ele><time>2026-04-19T11:50:19Z</time></trkpt><trkpt lat="44.92059186474793" lon="7.198702845298175"><ele>1453.5</ele><time>2026-04-19T11:50:20Z</time></trkpt><trkpt lat="44.92054087688896" lon="7.198596038704608"><ele>1449.3333333333333</ele><time>2026-04-19T11:50:21Z</time></trkpt><trkpt lat="44.920513353113606" lon="7.198487762512211"><ele>1445.1666666666665</ele><time>2026-04-19T11:50:22Z</time></trkpt><trkpt lat="44.9205011874345" lon="7.198393248032119"><ele>1441.0</ele><time>2026-04-19T11:50:23Z</time></trkpt><trkpt lat="44.920550253678265" lon="7.198205000305268"><ele>1441.0</ele><time>2026-04-19T11:50:25Z</time></trkpt><trkpt lat="44.92058143710455" lon="7.198116678706384"><ele>1441.0</ele><time>2026-04-19T11:50:26Z</time></trkpt><trkpt lat="44.92051922332076" lon="7.198034846195752"><ele>1441.0</ele><time>2026-04-19T11:50:29Z</time></trkpt><trkpt lat="44.92038233954855" lon="7.198127737610533"><ele>1441.0</ele><time>2026-04-19T11:50:31Z</time></trkpt><trkpt lat="44.920292764176274" lon="7.198164472352597"><ele>1441.0</ele><time>2026-04-19T11:50:32Z</time></trkpt><trkpt lat="44.920208446530204" lon="7.198183898946743"><ele>1441.0</ele><time>2026-04-19T11:50:33Z</time></trkpt><trkpt lat="44.92015001508485" lon="7.1982419795309385"><ele>1441.0</ele><time>2026-04-19T11:50:34Z</time></trkpt><trkpt lat="44.92009964951153" lon="7.198380331472619"><ele>1441.0</ele><time>2026-04-19T11:50:36Z</time></trkpt><trkpt lat="44.92007887904808" lon="7.198515527519901"><ele>1441.0</ele><time>2026-04-19T11:50:37Z</time></trkpt><trkpt lat="44.92002507662973" lon="7.198653429545473"><ele>1441.0</ele><time>2026-04-19T11:50:38Z</time></trkpt><trkpt lat="44.9199726941163" lon="7.198784045431544"><ele>1435.0</ele><time>2026-04-19T11:50:39Z</time></trkpt><trkpt lat="44.91993863640672" lon="7.198899661585023"><ele>1429.0</ele><time>2026-04-19T11:50:40Z</time></trkpt><trkpt lat="44.919936306233225" lon="7.199018211072577"><ele>1423.0</ele><time>2026-04-19T11:50:41Z</time></trkpt><trkpt lat="44.919941100139376" lon="7.199117034392225"><ele>1417.0</ele><time>2026-04-19T11:50:42Z</time></trkpt><trkpt lat="44.91999817525999" lon="7.199278817170819"><ele>1411.0</ele><time>2026-04-19T11:50:44.001Z</time></trkpt><trkpt lat="44.920038030736656" lon="7.19939442489837"><ele>1415.1666666666665</ele><time>2026-04-19T11:50:45.001Z</time></trkpt><trkpt lat="44.92008956813244" lon="7.199499676406468"><ele>1419.3333333333333</ele><time>2026-04-19T11:50:46.001Z</time></trkpt><trkpt lat="44.92015972577116" lon="7.19959305288073"><ele>1423.5</ele><time>2026-04-19T11:50:47.001Z</time></trkpt><trkpt lat="44.92023430009505" lon="7.1996904134355875"><ele>1427.6666666666667</ele><time>2026-04-19T11:50:48.001Z</time></trkpt><trkpt lat="44.92027049903852" lon="7.199776237271985"><ele>1431.8333333333335</ele><time>2026-04-19T11:50:49.001Z</time></trkpt><trkpt lat="44.92027655307645" lon="7.199898569729283"><ele>1436.0</ele><time>2026-04-19T11:50:50.001Z</time></trkpt><trkpt lat="44.920280440914084" lon="7.200034266218108"><ele>1436.0</ele><time>2026-04-19T11:50:51.001Z</time></trkpt><trkpt lat="44.9202831746407" lon="7.200176367964801"><ele>1436.0</ele><time>2026-04-19T11:50:52.001Z</time></trkpt><trkpt lat="44.92028351086443" lon="7.200331638038025"><ele>1436.0</ele><time>2026-04-19T11:50:53.001Z</time></trkpt><trkpt lat="44.92027303089257" lon="7.200462455083743"><ele>1436.0</ele><time>2026-04-19T11:50:54.001Z</time></trkpt><trkpt lat="44.92025773186976" lon="7.200570370403312"><ele>1436.0</ele><time>2026-04-19T11:50:55.001Z</time></trkpt><trkpt lat="44.92024649232437" lon="7.200696550495353"><ele>1436.0</ele><time>2026-04-19T11:50:57.001Z</time></trkpt><trkpt lat="44.92015480428174" lon="7.200664986573647"><ele>1436.0</ele><time>2026-04-19T11:50:59.001Z</time></trkpt><trkpt lat="44.92008997066517" lon="7.200606462075733"><ele>1436.0</ele><time>2026-04-19T11:51:00.001Z</time></trkpt><trkpt lat="44.92004849209708" lon="7.200513574955519"><ele>1436.0</ele><time>2026-04-19T11:51:01.001Z</time></trkpt><trkpt lat="44.92002626581702" lon="7.200405520915536"><ele>1436.0</ele><time>2026-04-19T11:51:02.001Z</time></trkpt><trkpt lat="44.91999010029957" lon="7.200287146105419"><ele>1436.0</ele><time>2026-04-19T11:51:03.001Z</time></trkpt><trkpt lat="44.91991792208905" lon="7.200203016833509"><ele>1430.8</ele><time>2026-04-19T11:51:04.001Z</time></trkpt><trkpt lat="44.919821174949185" lon="7.200136640289534"><ele>1425.6</ele><time>2026-04-19T11:51:05.001Z</time></trkpt><trkpt lat="44.91971132532683" lon="7.200048071136872"><ele>1420.4</ele><time>2026-04-19T11:51:06.001Z</time></trkpt><trkpt lat="44.91961342871628" lon="7.19998033164475"><ele>1415.2</ele><time>2026-04-19T11:51:07.001Z</time></trkpt><trkpt lat="44.91953050837066" lon="7.199901757844449"><ele>1410.0</ele><time>2026-04-19T11:51:08.001Z</time></trkpt><trkpt lat="44.91946769429001" lon="7.199821984481036"><ele>1410.0</ele><time>2026-04-19T11:51:09.001Z</time></trkpt><trkpt lat="44.919382583388085" lon="7.19971123216869"><ele>1410.0</ele><time>2026-04-19T11:51:10.001Z</time></trkpt><trkpt lat="44.91933018935756" lon="7.199643165496647"><ele>1410.0</ele><time>2026-04-19T11:51:11.001Z</time></trkpt><trkpt lat="44.9192722578915" lon="7.199530469675136"><ele>1410.0</ele><time>2026-04-19T11:51:12.001Z</time></trkpt><trkpt lat="44.91922823531832" lon="7.1994094073214425"><ele>1410.0</ele><time>2026-04-19T11:51:13.001Z</time></trkpt><trkpt lat="44.91919897140671" lon="7.199279492475417"><ele>1403.4</ele><time>2026-04-19T11:51:14.002Z</time></trkpt><trkpt lat="44.91916976544307" lon="7.199147733347753"><ele>1396.8</ele><time>2026-04-19T11:51:15.002Z</time></trkpt><trkpt lat="44.91914672537992" lon="7.199004091925565"><ele>1390.1999999999998</ele><time>2026-04-19T11:51:16.002Z</time></trkpt><trkpt lat="44.91913691735364" lon="7.1988781661524675"><ele>1383.6</ele><time>2026-04-19T11:51:17.002Z</time></trkpt><trkpt lat="44.919136712188525" lon="7.198772209947528"><ele>1377.0</ele><time>2026-04-19T11:51:18.002Z</time></trkpt><trkpt lat="44.91910746092196" lon="7.198613934865776"><ele>1376.6</ele><time>2026-04-19T11:51:20.002Z</time></trkpt><trkpt lat="44.9190976230474" lon="7.1985203976828975"><ele>1376.1999999999998</ele><time>2026-04-19T11:51:21.002Z</time></trkpt><trkpt lat="44.91909013669436" lon="7.198396595912938"><ele>1375.8</ele><time>2026-04-19T11:51:22.002Z</time></trkpt><trkpt lat="44.91909239748752" lon="7.198241456295339"><ele>1375.4</ele><time>2026-04-19T11:51:23.002Z</time></trkpt><trkpt lat="44.919067609352844" lon="7.198085990066726"><ele>1375.0</ele><time>2026-04-19T11:51:24.002Z</time></trkpt><trkpt lat="44.91904087094834" lon="7.197934401831305"><ele>1374.25</ele><time>2026-04-19T11:51:25.002Z</time></trkpt><trkpt lat="44.919016763231106" lon="7.197780829265147"><ele>1373.5</ele><time>2026-04-19T11:51:26.002Z</time></trkpt><trkpt lat="44.91900344143842" lon="7.197610859593517"><ele>1372.75</ele><time>2026-04-19T11:51:27.002Z</time></trkpt><trkpt lat="44.91899439354705" lon="7.1974218024835235"><ele>1372.0</ele><time>2026-04-19T11:51:28.002Z</time></trkpt><trkpt lat="44.91898429326829" lon="7.197247929897653"><ele>1371.0</ele><time>2026-04-19T11:51:29.002Z</time></trkpt><trkpt lat="44.91898015134266" lon="7.197089848807895"><ele>1370.0</ele><time>2026-04-19T11:51:30.002Z</time></trkpt><trkpt lat="44.918981646837125" lon="7.196941511833015"><ele>1369.0</ele><time>2026-04-19T11:51:31.002Z</time></trkpt><trkpt lat="44.9189917109418" lon="7.196832683177384"><ele>1368.0</ele><time>2026-04-19T11:51:32.002Z</time></trkpt><trkpt lat="44.9190270261662" lon="7.196750247549329"><ele>1367.0</ele><time>2026-04-19T11:51:33.002Z</time></trkpt><trkpt lat="44.91906975648138" lon="7.196649705194428"><ele>1366.0</ele><time>2026-04-19T11:51:34.002Z</time></trkpt><trkpt lat="44.91914385781535" lon="7.196507400740741"><ele>1363.5</ele><time>2026-04-19T11:51:35.002Z</time></trkpt><trkpt lat="44.91921160418755" lon="7.1963444760922215"><ele>1361.0</ele><time>2026-04-19T11:51:36.002Z</time></trkpt><trkpt lat="44.91927495821118" lon="7.196146378053441"><ele>1358.5</ele><time>2026-04-19T11:51:37.002Z</time></trkpt><trkpt lat="44.919320485904855" lon="7.195966964848655"><ele>1356.0</ele><time>2026-04-19T11:51:38.002Z</time></trkpt><trkpt lat="44.919347128116385" lon="7.195829967697323"><ele>1356.0</ele><time>2026-04-19T11:51:39.002Z</time></trkpt><trkpt lat="44.919345125124266" lon="7.195710017341131"><ele>1356.0</ele><time>2026-04-19T11:51:40.002Z</time></trkpt><trkpt lat="44.91929615218973" lon="7.195615146173409"><ele>1356.0</ele><time>2026-04-19T11:51:41.002Z</time></trkpt><trkpt lat="44.91922158635007" lon="7.195519485037749"><ele>1356.0</ele><time>2026-04-19T11:51:42.002Z</time></trkpt><trkpt lat="44.91916218726241" lon="7.195434881965659"><ele>1356.0</ele><time>2026-04-19T11:51:43.002Z</time></trkpt><trkpt lat="44.91913844513995" lon="7.195301161512557"><ele>1356.0</ele><time>2026-04-19T11:51:45.002Z</time></trkpt><trkpt lat="44.91912483045315" lon="7.195145782670146"><ele>1356.0</ele><time>2026-04-19T11:51:47.003Z</time></trkpt><trkpt lat="44.919110937421756" lon="7.1950141774693"><ele>1356.0</ele><time>2026-04-19T11:51:48.003Z</time></trkpt><trkpt lat="44.91911604609669" lon="7.19486952468409"><ele>1356.0</ele><time>2026-04-19T11:51:49.003Z</time></trkpt><trkpt lat="44.91912158024258" lon="7.194725246844493"><ele>1356.0</ele><time>2026-04-19T11:51:50.003Z</time></trkpt><trkpt lat="44.919140513772206" lon="7.194589067678122"><ele>1355.6666666666667</ele><time>2026-04-19T11:51:51.003Z</time></trkpt><trkpt lat="44.91918534324507" lon="7.194457159126695"><ele>1355.3333333333333</ele><time>2026-04-19T11:51:52.003Z</time></trkpt><trkpt lat="44.91920713134445" lon="7.194359453690591"><ele>1355.0</ele><time>2026-04-19T11:51:53.003Z</time></trkpt><trkpt lat="44.91920828490335" lon="7.194251910551803"><ele>1354.6666666666665</ele><time>2026-04-19T11:51:54.003Z</time></trkpt><trkpt lat="44.91919886600155" lon="7.194149720044454"><ele>1354.3333333333333</ele><time>2026-04-19T11:51:55.003Z</time></trkpt><trkpt lat="44.91914584501554" lon="7.1940601998907745"><ele>1354.0</ele><time>2026-04-19T11:51:57.003Z</time></trkpt><trkpt lat="44.919000633221245" lon="7.194079237206887"><ele>1354.0</ele><time>2026-04-19T11:51:59.003Z</time></trkpt><trkpt lat="44.91889086515102" lon="7.194093673117831"><ele>1354.0</ele><time>2026-04-19T11:52:00.003Z</time></trkpt><trkpt lat="44.91877405069478" lon="7.194095430155074"><ele>1354.0</ele><time>2026-04-19T11:52:01.003Z</time></trkpt><trkpt lat="44.918661034119054" lon="7.194111254695594"><ele>1354.0</ele><time>2026-04-19T11:52:02.003Z</time></trkpt><trkpt lat="44.918563379056955" lon="7.194150156332339"><ele>1354.0</ele><time>2026-04-19T11:52:03.003Z</time></trkpt><trkpt lat="44.91846752067435" lon="7.1941514624419955"><ele>1352.4</ele><time>2026-04-19T11:52:04.003Z</time></trkpt><trkpt lat="44.91837072628921" lon="7.1941304427416775"><ele>1350.8000000000002</ele><time>2026-04-19T11:52:05.003Z</time></trkpt><trkpt lat="44.91829168181491" lon="7.194066517883804"><ele>1349.1999999999998</ele><time>2026-04-19T11:52:06.003Z</time></trkpt><trkpt lat="44.9182498369282" lon="7.19395910932254"><ele>1347.6</ele><time>2026-04-19T11:52:07.003Z</time></trkpt><trkpt lat="44.91825215671674" lon="7.193840674169686"><ele>1346.0</ele><time>2026-04-19T11:52:08.003Z</time></trkpt><trkpt lat="44.91830266158143" lon="7.19372416183802"><ele>1345.1666666666667</ele><time>2026-04-19T11:52:09.003Z</time></trkpt><trkpt lat="44.91836257066341" lon="7.193635047131753"><ele>1344.3333333333335</ele><time>2026-04-19T11:52:10.003Z</time></trkpt><trkpt lat="44.91841772095581" lon="7.193541108376263"><ele>1343.5</ele><time>2026-04-19T11:52:11.003Z</time></trkpt><trkpt lat="44.918444714632756" lon="7.1934586676337435"><ele>1342.6666666666667</ele><time>2026-04-19T11:52:12.003Z</time></trkpt><trkpt lat="44.91837771215488" lon="7.193327280832915"><ele>1341.8333333333333</ele><time>2026-04-19T11:52:14.003Z</time></trkpt><trkpt lat="44.918304027145645" lon="7.193292408368318"><ele>1341.0</ele><time>2026-04-19T11:52:15.003Z</time></trkpt><trkpt lat="44.918204534097335" lon="7.193219707630675"><ele>1341.0</ele><time>2026-04-19T11:52:16Z</time></trkpt><trkpt lat="44.91811316614125" lon="7.193182413100144"><ele>1341.0</ele><time>2026-04-19T11:52:17Z</time></trkpt><trkpt lat="44.918008710936284" lon="7.193158426012776"><ele>1341.0</ele><time>2026-04-19T11:52:18Z</time></trkpt><trkpt lat="44.917924469623976" lon="7.193187811887107"><ele>1341.0</ele><time>2026-04-19T11:52:19Z</time></trkpt><trkpt lat="44.91784516246118" lon="7.193220722522945"><ele>1341.0</ele><time>2026-04-19T11:52:20Z</time></trkpt><trkpt lat="44.91778484652868" lon="7.193294055122845"><ele>1341.0</ele><time>2026-04-19T11:52:21Z</time></trkpt><trkpt lat="44.91775271619395" lon="7.193399961868137"><ele>1341.0</ele><time>2026-04-19T11:52:22Z</time></trkpt><trkpt lat="44.9177322473338" lon="7.193535595615529"><ele>1341.0</ele><time>2026-04-19T11:52:23Z</time></trkpt><trkpt lat="44.917707095535235" lon="7.193696501850678"><ele>1341.0</ele><time>2026-04-19T11:52:24Z</time></trkpt><trkpt lat="44.9176602413088" lon="7.193865538646819"><ele>1341.0</ele><time>2026-04-19T11:52:25Z</time></trkpt><trkpt lat="44.91760191015476" lon="7.194005859788903"><ele>1337.8</ele><time>2026-04-19T11:52:26Z</time></trkpt><trkpt lat="44.91751570844468" lon="7.194114553633657"><ele>1334.6</ele><time>2026-04-19T11:52:27Z</time></trkpt><trkpt lat="44.917461892385155" lon="7.1942358819503065"><ele>1331.4</ele><time>2026-04-19T11:52:28Z</time></trkpt><trkpt lat="44.91742588094633" lon="7.194341344909133"><ele>1328.2</ele><time>2026-04-19T11:52:29Z</time></trkpt><trkpt lat="44.91740993014249" lon="7.194427800124597"><ele>1325.0</ele><time>2026-04-19T11:52:30Z</time></trkpt><trkpt lat="44.917333623723515" lon="7.194296762213316"><ele>1325.0</ele><time>2026-04-19T11:52:33Z</time></trkpt><trkpt lat="44.91730740653815" lon="7.194192019581638"><ele>1325.0</ele><time>2026-04-19T11:52:34Z</time></trkpt><trkpt lat="44.917300780309496" lon="7.194071157274717"><ele>1325.0</ele><time>2026-04-19T11:52:35Z</time></trkpt><trkpt lat="44.917301647654625" lon="7.193923549966755"><ele>1325.0</ele><time>2026-04-19T11:52:36Z</time></trkpt><trkpt lat="44.917228157305914" lon="7.193775321459627"><ele>1325.0</ele><time>2026-04-19T11:52:37Z</time></trkpt><trkpt lat="44.917115706942866" lon="7.1936729687813505"><ele>1324.2</ele><time>2026-04-19T11:52:38Z</time></trkpt><trkpt lat="44.917050168922636" lon="7.193549486513142"><ele>1323.4</ele><time>2026-04-19T11:52:39Z</time></trkpt><trkpt lat="44.917022745814776" lon="7.193432657143347"><ele>1322.6</ele><time>2026-04-19T11:52:40Z</time></trkpt><trkpt lat="44.91701502984019" lon="7.193292480295667"><ele>1321.8</ele><time>2026-04-19T11:52:41Z</time></trkpt><trkpt lat="44.91700448021622" lon="7.19313775078388"><ele>1321.0</ele><time>2026-04-19T11:52:42Z</time></trkpt><trkpt lat="44.91700574373352" lon="7.193012482754585"><ele>1319.25</ele><time>2026-04-19T11:52:43Z</time></trkpt><trkpt lat="44.91710335475065" lon="7.1929691649640874"><ele>1317.5</ele><time>2026-04-19T11:52:45Z</time></trkpt><trkpt lat="44.91705014245804" lon="7.192790895089077"><ele>1315.75</ele><time>2026-04-19T11:52:47.001Z</time></trkpt><trkpt lat="44.91693416086786" lon="7.192831764392044"><ele>1314.0</ele><time>2026-04-19T11:52:48.001Z</time></trkpt><trkpt lat="44.91685077873763" lon="7.192918380648538"><ele>1314.0</ele><time>2026-04-19T11:52:49.001Z</time></trkpt><trkpt lat="44.916784402651025" lon="7.193056910169377"><ele>1314.0</ele><time>2026-04-19T11:52:50.001Z</time></trkpt><trkpt lat="44.91670763407774" lon="7.193217746843478"><ele>1314.0</ele><time>2026-04-19T11:52:51.001Z</time></trkpt><trkpt lat="44.91662804393623" lon="7.193392785708823"><ele>1314.0</ele><time>2026-04-19T11:52:52.001Z</time></trkpt><trkpt lat="44.91651182906701" lon="7.193559107373446"><ele>1308.6666666666667</ele><time>2026-04-19T11:52:53.001Z</time></trkpt><trkpt lat="44.91641190831758" lon="7.193752215877232"><ele>1303.3333333333335</ele><time>2026-04-19T11:52:54.001Z</time></trkpt><trkpt lat="44.916303378179975" lon="7.193930191862606"><ele>1298.0</ele><time>2026-04-19T11:52:55.001Z</time></trkpt><trkpt lat="44.91620449105108" lon="7.194086841904219"><ele>1298.0</ele><time>2026-04-19T11:52:56.001Z</time></trkpt><trkpt lat="44.916128275130916" lon="7.194219435880819"><ele>1298.0</ele><time>2026-04-19T11:52:57.001Z</time></trkpt><trkpt lat="44.91608034400856" lon="7.194344583935706"><ele>1298.0</ele><time>2026-04-19T11:52:58.001Z</time></trkpt><trkpt lat="44.91606560317955" lon="7.19449024809872"><ele>1298.0</ele><time>2026-04-19T11:52:59.001Z</time></trkpt><trkpt lat="44.91606838584385" lon="7.194648808024754"><ele>1298.0</ele><time>2026-04-19T11:53:00.001Z</time></trkpt><trkpt lat="44.91606990190026" lon="7.194817683042172"><ele>1297.0</ele><time>2026-04-19T11:53:01.001Z</time></trkpt><trkpt lat="44.916063378968815" lon="7.194978677805783"><ele>1296.0</ele><time>2026-04-19T11:53:02.001Z</time></trkpt><trkpt lat="44.91603985153237" lon="7.195110665351846"><ele>1295.0</ele><time>2026-04-19T11:53:03.001Z</time></trkpt><trkpt lat="44.91599786114637" lon="7.1952099958399405"><ele>1294.0</ele><time>2026-04-19T11:53:04.001Z</time></trkpt><trkpt lat="44.915908118775036" lon="7.1952605416889766"><ele>1293.0</ele><time>2026-04-19T11:53:05.001Z</time></trkpt><trkpt lat="44.915811750443865" lon="7.195281595714337"><ele>1288.2</ele><time>2026-04-19T11:53:06.001Z</time></trkpt><trkpt lat="44.915712946686256" lon="7.195337506609162"><ele>1283.4</ele><time>2026-04-19T11:53:07.001Z</time></trkpt><trkpt lat="44.91561312668248" lon="7.19537564413396"><ele>1278.6000000000001</ele><time>2026-04-19T11:53:08.001Z</time></trkpt><trkpt lat="44.915597128289235" lon="7.1955373504572835"><ele>1273.8000000000002</ele><time>2026-04-19T11:53:09.001Z</time></trkpt><trkpt lat="44.91554166780317" lon="7.195660145059601"><ele>1269.0</ele><time>2026-04-19T11:53:11.001Z</time></trkpt><trkpt lat="44.91544007787766" lon="7.1956243620277425"><ele>1269.0</ele><time>2026-04-19T11:53:13.001Z</time></trkpt><trkpt lat="44.91542069579683" lon="7.195521230975207"><ele>1269.0</ele><time>2026-04-19T11:53:14.001Z</time></trkpt><trkpt lat="44.91540206996996" lon="7.195419953949154"><ele>1269.0</ele><time>2026-04-19T11:53:15.001Z</time></trkpt><trkpt lat="44.91537926441279" lon="7.195281143710291"><ele>1269.0</ele><time>2026-04-19T11:53:16.001Z</time></trkpt><trkpt lat="44.91537630805618" lon="7.195134363227163"><ele>1269.0</ele><time>2026-04-19T11:53:17.001Z</time></trkpt><trkpt lat="44.91535994331246" lon="7.195012984071162"><ele>1269.0</ele><time>2026-04-19T11:53:18.001Z</time></trkpt><trkpt lat="44.91524124372084" lon="7.194970109098011"><ele>1269.0</ele><time>2026-04-19T11:53:20.002Z</time></trkpt><trkpt lat="44.915197307093976" lon="7.195092527391016"><ele>1269.0</ele><time>2026-04-19T11:53:21.002Z</time></trkpt><trkpt lat="44.91515422271149" lon="7.19520836284305"><ele>1269.0</ele><time>2026-04-19T11:53:22.002Z</time></trkpt><trkpt lat="44.91508834472493" lon="7.19533578324743"><ele>1269.0</ele><time>2026-04-19T11:53:23.002Z</time></trkpt><trkpt lat="44.9150184961376" lon="7.1954762906641525"><ele>1269.0</ele><time>2026-04-19T11:53:24.002Z</time></trkpt><trkpt lat="44.91495694712893" lon="7.19561962040004"><ele>1263.8</ele><time>2026-04-19T11:53:25.002Z</time></trkpt><trkpt lat="44.91489201652874" lon="7.195740250218498"><ele>1258.6000000000001</ele><time>2026-04-19T11:53:26.002Z</time></trkpt><trkpt lat="44.91484195146648" lon="7.195827775444496"><ele>1253.4</ele><time>2026-04-19T11:53:27.002Z</time></trkpt><trkpt lat="44.91472818066529" lon="7.195787008842704"><ele>1248.2</ele><time>2026-04-19T11:53:29.002Z</time></trkpt><trkpt lat="44.91472504343917" lon="7.1956965112684514"><ele>1243.0</ele><time>2026-04-19T11:53:30.002Z</time></trkpt><trkpt lat="44.914780495072655" lon="7.195536531176493"><ele>1243.0</ele><time>2026-04-19T11:53:32.002Z</time></trkpt><trkpt lat="44.91480579587399" lon="7.195399872889552"><ele>1243.0</ele><time>2026-04-19T11:53:33.002Z</time></trkpt><trkpt lat="44.91483346758706" lon="7.1952410941281455"><ele>1243.0</ele><time>2026-04-19T11:53:34.002Z</time></trkpt><trkpt lat="44.91485635791776" lon="7.195066026062979"><ele>1243.0</ele><time>2026-04-19T11:53:35.002Z</time></trkpt><trkpt lat="44.91484236405321" lon="7.194883112940514"><ele>1242.4</ele><time>2026-04-19T11:53:36.002Z</time></trkpt><trkpt lat="44.914804273303304" lon="7.194709756134193"><ele>1241.8</ele><time>2026-04-19T11:53:37.002Z</time></trkpt><trkpt lat="44.91473555672392" lon="7.194558644285138"><ele>1241.2</ele><time>2026-04-19T11:53:38.002Z</time></trkpt><trkpt lat="44.914702467212436" lon="7.194423700396888"><ele>1240.6</ele><time>2026-04-19T11:53:39.002Z</time></trkpt><trkpt lat="44.91467116914497" lon="7.194327876473933"><ele>1240.0</ele><time>2026-04-19T11:53:40.002Z</time></trkpt><trkpt lat="44.91458416105496" lon="7.19422901319021"><ele>1240.0</ele><time>2026-04-19T11:53:42.002Z</time></trkpt><trkpt lat="44.91451131128759" lon="7.194350390806467"><ele>1240.0</ele><time>2026-04-19T11:53:43.002Z</time></trkpt><trkpt lat="44.91450275981426" lon="7.19446711768005"><ele>1240.0</ele><time>2026-04-19T11:53:44.002Z</time></trkpt><trkpt lat="44.91449936209705" lon="7.194609170406427"><ele>1240.0</ele><time>2026-04-19T11:53:45.002Z</time></trkpt><trkpt lat="44.914489358113265" lon="7.194788315860196"><ele>1240.0</ele><time>2026-04-19T11:53:46.002Z</time></trkpt><trkpt lat="44.91445202639539" lon="7.194971418585619"><ele>1241.0</ele><time>2026-04-19T11:53:47.002Z</time></trkpt><trkpt lat="44.91439649012756" lon="7.19516871800605"><ele>1242.0</ele><time>2026-04-19T11:53:48.002Z</time></trkpt><trkpt lat="44.91432320122243" lon="7.1953692472484745"><ele>1243.0</ele><time>2026-04-19T11:53:49.002Z</time></trkpt><trkpt lat="44.91425878106321" lon="7.195562678274069"><ele>1237.2</ele><time>2026-04-19T11:53:50.002Z</time></trkpt><trkpt lat="44.914185173656335" lon="7.195722592305959"><ele>1231.4</ele><time>2026-04-19T11:53:51.002Z</time></trkpt><trkpt lat="44.91411919350753" lon="7.195841551154311"><ele>1225.6000000000001</ele><time>2026-04-19T11:53:52.003Z</time></trkpt><trkpt lat="44.91409975468015" lon="7.1959721910446515"><ele>1219.8</ele><time>2026-04-19T11:53:53.003Z</time></trkpt><trkpt lat="44.914111983976056" lon="7.196093597839522"><ele>1214.0</ele><time>2026-04-19T11:53:54.003Z</time></trkpt><trkpt lat="44.91415215119349" lon="7.196212155699288"><ele>1214.0</ele><time>2026-04-19T11:53:55.003Z</time></trkpt><trkpt lat="44.91422772148638" lon="7.19630670685767"><ele>1214.0</ele><time>2026-04-19T11:53:56.003Z</time></trkpt><trkpt lat="44.9143217384693" lon="7.196371734373765"><ele>1214.0</ele><time>2026-04-19T11:53:57.003Z</time></trkpt><trkpt lat="44.91441595747335" lon="7.196433449228773"><ele>1214.0</ele><time>2026-04-19T11:53:58.003Z</time></trkpt><trkpt lat="44.91452380543556" lon="7.196515501622294"><ele>1214.0</ele><time>2026-04-19T11:53:59.003Z</time></trkpt><trkpt lat="44.91460972939014" lon="7.196551014077327"><ele>1215.5</ele><time>2026-04-19T11:54:00.003Z</time></trkpt><trkpt lat="44.91466030375802" lon="7.1966161310611465"><ele>1217.0</ele><time>2026-04-19T11:54:01.003Z</time></trkpt><trkpt lat="44.91462178574936" lon="7.196751015378924"><ele>1218.5</ele><time>2026-04-19T11:54:03.003Z</time></trkpt><trkpt lat="44.914549611815964" lon="7.19672727619863"><ele>1220.0</ele><time>2026-04-19T11:54:04.003Z</time></trkpt><trkpt lat="44.91449159576724" lon="7.196677383004899"><ele>1221.5</ele><time>2026-04-19T11:54:05.003Z</time></trkpt><trkpt lat="44.91440161911974" lon="7.196660972960172"><ele>1223.0</ele><time>2026-04-19T11:54:06.003Z</time></trkpt><trkpt lat="44.91428412746471" lon="7.196672467951498"><ele>1219.0</ele><time>2026-04-19T11:54:07.003Z</time></trkpt><trkpt lat="44.914183487015855" lon="7.196724252203209"><ele>1215.0</ele><time>2026-04-19T11:54:08.003Z</time></trkpt><trkpt lat="44.914083105422314" lon="7.196765310481514"><ele>1211.0</ele><time>2026-04-19T11:54:09.003Z</time></trkpt><trkpt lat="44.913975078568264" lon="7.196763175576995"><ele>1207.0</ele><time>2026-04-19T11:54:10.003Z</time></trkpt><trkpt lat="44.91388276013285" lon="7.196738624352307"><ele>1203.0</ele><time>2026-04-19T11:54:11.003Z</time></trkpt><trkpt lat="44.913836019892926" lon="7.196668986842071"><ele>1203.0</ele><time>2026-04-19T11:54:12.003Z</time></trkpt><trkpt lat="44.91379768816832" lon="7.196593251282324"><ele>1203.0</ele><time>2026-04-19T11:54:13.003Z</time></trkpt><trkpt lat="44.9137495896029" lon="7.196495259106938"><ele>1203.0</ele><time>2026-04-19T11:54:14.003Z</time></trkpt><trkpt lat="44.91370517356405" lon="7.196399642393628"><ele>1203.0</ele><time>2026-04-19T11:54:15.003Z</time></trkpt><trkpt lat="44.91367196768282" lon="7.196321830602175"><ele>1203.0</ele><time>2026-04-19T11:54:16.003Z</time></trkpt><trkpt lat="44.913564519321035" lon="7.196313644483331"><ele>1203.0</ele><time>2026-04-19T11:54:18.003Z</time></trkpt><trkpt lat="44.9135505266394" lon="7.196438077029477"><ele>1203.0</ele><time>2026-04-19T11:54:19.003Z</time></trkpt><trkpt lat="44.91357370591762" lon="7.19652239584533"><ele>1203.0</ele><time>2026-04-19T11:54:20.003Z</time></trkpt><trkpt lat="44.91360653922713" lon="7.196629249333696"><ele>1203.0</ele><time>2026-04-19T11:54:21.003Z</time></trkpt><trkpt lat="44.91363787031329" lon="7.1967746624020394"><ele>1203.0</ele><time>2026-04-19T11:54:22Z</time></trkpt><trkpt lat="44.91366170545804" lon="7.196949299223465"><ele>1203.0</ele><time>2026-04-19T11:54:23Z</time></trkpt><trkpt lat="44.9136860678632" lon="7.1971490497306965"><ele>1198.8</ele><time>2026-04-19T11:54:24Z</time></trkpt><trkpt lat="44.9137089949786" lon="7.197344536250532"><ele>1194.6</ele><time>2026-04-19T11:54:25Z</time></trkpt><trkpt lat="44.91371662252459" lon="7.197492696481688"><ele>1190.4</ele><time>2026-04-19T11:54:26Z</time></trkpt><trkpt lat="44.91371819489899" lon="7.197609554755832"><ele>1186.2</ele><time>2026-04-19T11:54:27Z</time></trkpt><trkpt lat="44.913691388573554" lon="7.197698367605485"><ele>1182.0</ele><time>2026-04-19T11:54:28Z</time></trkpt><trkpt lat="44.91363543446246" lon="7.197751714167739"><ele>1182.0</ele><time>2026-04-19T11:54:29Z</time></trkpt><trkpt lat="44.91355321510735" lon="7.197696921589071"><ele>1182.0</ele><time>2026-04-19T11:54:30Z</time></trkpt><trkpt lat="44.913456429310465" lon="7.1976966768053465"><ele>1182.0</ele><time>2026-04-19T11:54:31Z</time></trkpt><trkpt lat="44.91332849273295" lon="7.197691092043014"><ele>1182.0</ele><time>2026-04-19T11:54:32Z</time></trkpt><trkpt lat="44.91318443226918" lon="7.197687227514991"><ele>1178.4</ele><time>2026-04-19T11:54:33Z</time></trkpt><trkpt lat="44.91306724294198" lon="7.197704545867132"><ele>1174.8000000000002</ele><time>2026-04-19T11:54:34Z</time></trkpt><trkpt lat="44.912973325244586" lon="7.197684322913579"><ele>1171.2</ele><time>2026-04-19T11:54:35Z</time></trkpt><trkpt lat="44.91289041656046" lon="7.197619376382302"><ele>1167.6000000000001</ele><time>2026-04-19T11:54:36Z</time></trkpt><trkpt lat="44.91283643780363" lon="7.197545095793464"><ele>1164.0</ele><time>2026-04-19T11:54:37Z</time></trkpt><trkpt lat="44.912708917410086" lon="7.197573261307822"><ele>1164.0</ele><time>2026-04-19T11:54:39Z</time></trkpt><trkpt lat="44.91270069961682" lon="7.197681324558779"><ele>1164.0</ele><time>2026-04-19T11:54:40Z</time></trkpt><trkpt lat="44.91271868953148" lon="7.197810526981727"><ele>1164.0</ele><time>2026-04-19T11:54:41Z</time></trkpt><trkpt lat="44.9127616203917" lon="7.197950776924191"><ele>1164.0</ele><time>2026-04-19T11:54:42Z</time></trkpt><trkpt lat="44.91281668031834" lon="7.19807956950263"><ele>1164.0</ele><time>2026-04-19T11:54:43Z</time></trkpt><trkpt lat="44.9128820563725" lon="7.19816477653006"><ele>1160.4</ele><time>2026-04-19T11:54:44Z</time></trkpt><trkpt lat="44.91293069084964" lon="7.1982219840947135"><ele>1156.8000000000002</ele><time>2026-04-19T11:54:45Z</time></trkpt><trkpt lat="44.912835795280586" lon="7.198355165421997"><ele>1153.1999999999998</ele><time>2026-04-19T11:54:48Z</time></trkpt><trkpt lat="44.91277375112355" lon="7.198373840261618"><ele>1149.6</ele><time>2026-04-19T11:54:49Z</time></trkpt><trkpt lat="44.91267707871438" lon="7.198369195862233"><ele>1146.0</ele><time>2026-04-19T11:54:51Z</time></trkpt><trkpt lat="44.91255404099759" lon="7.198105015090208"><ele>1145.75</ele><time>2026-04-19T11:54:52Z</time></trkpt><trkpt lat="44.91244320440036" lon="7.198023770955677"><ele>1145.5</ele><time>2026-04-19T11:54:53.001Z</time></trkpt><trkpt lat="44.91233372429361" lon="7.197971701973226"><ele>1145.25</ele><time>2026-04-19T11:54:54.001Z</time></trkpt><trkpt lat="44.9122467090567" lon="7.197885469703647"><ele>1145.0</ele><time>2026-04-19T11:54:55.001Z</time></trkpt><trkpt lat="44.912253518273495" lon="7.197736304533335"><ele>1145.0</ele><time>2026-04-19T11:54:56.001Z</time></trkpt><trkpt lat="44.91222441961421" lon="7.197617363651375"><ele>1145.0</ele><time>2026-04-19T11:54:57.001Z</time></trkpt><trkpt lat="44.91220960441451" lon="7.197491686039338"><ele>1145.0</ele><time>2026-04-19T11:54:58.001Z</time></trkpt><trkpt lat="44.91220388926917" lon="7.197384746325479"><ele>1145.0</ele><time>2026-04-19T11:54:59.001Z</time></trkpt><trkpt lat="44.91220115769491" lon="7.197265727455335"><ele>1145.0</ele><time>2026-04-19T11:55:00.001Z</time></trkpt><trkpt lat="44.91219215785742" lon="7.1971622261883565"><ele>1145.0</ele><time>2026-04-19T11:55:01.001Z</time></trkpt><trkpt lat="44.91213424098152" lon="7.1970585827431135"><ele>1146.4</ele><time>2026-04-19T11:55:02.001Z</time></trkpt><trkpt lat="44.912040914164315" lon="7.196993635680468"><ele>1147.8</ele><time>2026-04-19T11:55:03.001Z</time></trkpt><trkpt lat="44.9119593149791" lon="7.196897834539729"><ele>1149.2</ele><time>2026-04-19T11:55:04.001Z</time></trkpt><trkpt lat="44.91186861507208" lon="7.196822433996255"><ele>1150.6</ele><time>2026-04-19T11:55:05.001Z</time></trkpt><trkpt lat="44.911785245262124" lon="7.19674904155805"><ele>1152.0</ele><time>2026-04-19T11:55:06.001Z</time></trkpt><trkpt lat="44.91170920587068" lon="7.196707427602102"><ele>1148.4</ele><time>2026-04-19T11:55:07.001Z</time></trkpt><trkpt lat="44.911644889142494" lon="7.196634740683449"><ele>1144.8000000000002</ele><time>2026-04-19T11:55:08.001Z</time></trkpt><trkpt lat="44.91156887361369" lon="7.196563046756113"><ele>1141.2</ele><time>2026-04-19T11:55:09.001Z</time></trkpt><trkpt lat="44.91148826942109" lon="7.196474621283135"><ele>1137.6000000000001</ele><time>2026-04-19T11:55:10.001Z</time></trkpt><trkpt lat="44.91140185954649" lon="7.196379021726921"><ele>1134.0</ele><time>2026-04-19T11:55:11.001Z</time></trkpt><trkpt lat="44.91132726665868" lon="7.196296637815043"><ele>1134.0</ele><time>2026-04-19T11:55:12.001Z</time></trkpt><trkpt lat="44.9112058532119" lon="7.196352024450463"><ele>1134.0</ele><time>2026-04-19T11:55:13.001Z</time></trkpt><trkpt lat="44.911130162767826" lon="7.196357031591949"><ele>1134.0</ele><time>2026-04-19T11:55:14.001Z</time></trkpt><trkpt lat="44.91105214854471" lon="7.196319267644172"><ele>1134.0</ele><time>2026-04-19T11:55:15.001Z</time></trkpt><trkpt lat="44.91098484053876" lon="7.196264434511232"><ele>1134.0</ele><time>2026-04-19T11:55:16.001Z</time></trkpt><trkpt lat="44.91096461690721" lon="7.196174651865809"><ele>1134.0</ele><time>2026-04-19T11:55:17.001Z</time></trkpt><trkpt lat="44.91094338324087" lon="7.1959477834501975"><ele>1134.0</ele><time>2026-04-19T11:55:19.001Z</time></trkpt><trkpt lat="44.910942107769614" lon="7.195788107610941"><ele>1134.0</ele><time>2026-04-19T11:55:20.001Z</time></trkpt><trkpt lat="44.9109441424381" lon="7.1956122181390745"><ele>1134.0</ele><time>2026-04-19T11:55:21.001Z</time></trkpt><trkpt lat="44.910951158637424" lon="7.195430194014856"><ele>1134.0</ele><time>2026-04-19T11:55:22.001Z</time></trkpt><trkpt lat="44.91097599326192" lon="7.195245415020553"><ele>1134.5</ele><time>2026-04-19T11:55:23.001Z</time></trkpt><trkpt lat="44.91102691280981" lon="7.19506763805566"><ele>1135.0</ele><time>2026-04-19T11:55:24.001Z</time></trkpt><trkpt lat="44.911098447387225" lon="7.194902304636606"><ele>1135.5</ele><time>2026-04-19T11:55:25.001Z</time></trkpt><trkpt lat="44.911168891326845" lon="7.1947663452115735"><ele>1136.0</ele><time>2026-04-19T11:55:26.001Z</time></trkpt><trkpt lat="44.911251656390526" lon="7.19465571628816"><ele>1136.25</ele><time>2026-04-19T11:55:27.001Z</time></trkpt><trkpt lat="44.91131767830923" lon="7.194519700256377"><ele>1136.5</ele><time>2026-04-19T11:55:28.001Z</time></trkpt><trkpt lat="44.911380856908124" lon="7.194359609085844"><ele>1136.75</ele><time>2026-04-19T11:55:29.002Z</time></trkpt><trkpt lat="44.91137937434216" lon="7.194172742936587"><ele>1137.0</ele><time>2026-04-19T11:55:30.002Z</time></trkpt><trkpt lat="44.91139957887056" lon="7.193980082658244"><ele>1137.75</ele><time>2026-04-19T11:55:31.002Z</time></trkpt><trkpt lat="44.91138572580288" lon="7.1937757071338835"><ele>1138.5</ele><time>2026-04-19T11:55:32.002Z</time></trkpt><trkpt lat="44.911380292191026" lon="7.193575917542441"><ele>1139.25</ele><time>2026-04-19T11:55:33.002Z</time></trkpt><trkpt lat="44.91138461417076" lon="7.193424188176081"><ele>1140.0</ele><time>2026-04-19T11:55:34.002Z</time></trkpt><trkpt lat="44.91138508843757" lon="7.193327489356773"><ele>1140.0</ele><time>2026-04-19T11:55:35.002Z</time></trkpt><trkpt lat="44.911374601408255" lon="7.193235073839071"><ele>1140.0</ele><time>2026-04-19T11:55:36.002Z</time></trkpt><trkpt lat="44.91134086670977" lon="7.193125673340398"><ele>1140.0</ele><time>2026-04-19T11:55:37.002Z</time></trkpt><trkpt lat="44.91128522423789" lon="7.192954050364625"><ele>1140.0</ele><time>2026-04-19T11:55:38.002Z</time></trkpt><trkpt lat="44.91117098279137" lon="7.192805022419127"><ele>1140.0</ele><time>2026-04-19T11:55:39.002Z</time></trkpt><trkpt lat="44.911065097989" lon="7.192633181819602"><ele>1139.3333333333333</ele><time>2026-04-19T11:55:40.002Z</time></trkpt><trkpt lat="44.910941787100356" lon="7.192469807864767"><ele>1138.6666666666665</ele><time>2026-04-19T11:55:41.002Z</time></trkpt><trkpt lat="44.91080624159745" lon="7.192326194144653"><ele>1138.0</ele><time>2026-04-19T11:55:42.002Z</time></trkpt><trkpt lat="44.91065954885295" lon="7.192193857575303"><ele>1138.0</ele><time>2026-04-19T11:55:43.002Z</time></trkpt><trkpt lat="44.91050701728749" lon="7.192061691119407"><ele>1138.0</ele><time>2026-04-19T11:55:44.002Z</time></trkpt><trkpt lat="44.91034905831042" lon="7.19193101713946"><ele>1138.0</ele><time>2026-04-19T11:55:45.002Z</time></trkpt><trkpt lat="44.91019882572622" lon="7.191813291050263"><ele>1129.6666666666665</ele><time>2026-04-19T11:55:46.002Z</time></trkpt><trkpt lat="44.910053000548125" lon="7.191701646234089"><ele>1121.3333333333333</ele><time>2026-04-19T11:55:47.002Z</time></trkpt><trkpt lat="44.90991084012415" lon="7.191593944912163"><ele>1113.0</ele><time>2026-04-19T11:55:48.002Z</time></trkpt><trkpt lat="44.909770313615205" lon="7.191489249695622"><ele>1113.0</ele><time>2026-04-19T11:55:49.002Z</time></trkpt><trkpt lat="44.90963402476227" lon="7.191387902114501"><ele>1113.0</ele><time>2026-04-19T11:55:50.002Z</time></trkpt><trkpt lat="44.90950711696698" lon="7.191293530175641"><ele>1113.0</ele><time>2026-04-19T11:55:51.002Z</time></trkpt><trkpt lat="44.90939737408453" lon="7.191204020235836"><ele>1113.0</ele><time>2026-04-19T11:55:52.002Z</time></trkpt><trkpt lat="44.90931657103815" lon="7.191096037871747"><ele>1113.0</ele><time>2026-04-19T11:55:53.002Z</time></trkpt><trkpt lat="44.90926511175794" lon="7.190972386853351"><ele>1113.0</ele><time>2026-04-19T11:55:54.002Z</time></trkpt><trkpt lat="44.90923587645254" lon="7.1908331534033465"><ele>1113.0</ele><time>2026-04-19T11:55:55.002Z</time></trkpt><trkpt lat="44.90924164431741" lon="7.190684611777642"><ele>1113.0</ele><time>2026-04-19T11:55:56.002Z</time></trkpt><trkpt lat="44.90924389254136" lon="7.190500288733074"><ele>1113.0</ele><time>2026-04-19T11:55:57.002Z</time></trkpt><trkpt lat="44.909243544319835" lon="7.190302336544991"><ele>1108.0</ele><time>2026-04-19T11:55:58.002Z</time></trkpt><trkpt lat="44.90923361193187" lon="7.19012119095575"><ele>1103.0</ele><time>2026-04-19T11:55:59.002Z</time></trkpt><trkpt lat="44.90920388863034" lon="7.189966246926545"><ele>1098.0</ele><time>2026-04-19T11:56:00.002Z</time></trkpt><trkpt lat="44.90916712444585" lon="7.189821882148949"><ele>1093.0</ele><time>2026-04-19T11:56:01.002Z</time></trkpt><trkpt lat="44.909135840499864" lon="7.18966680701368"><ele>1093.0</ele><time>2026-04-19T11:56:02.002Z</time></trkpt><trkpt lat="44.909126204731116" lon="7.1894998983891725"><ele>1093.0</ele><time>2026-04-19T11:56:03.002Z</time></trkpt><trkpt lat="44.909136941345885" lon="7.189313484293431"><ele>1093.0</ele><time>2026-04-19T11:56:04.002Z</time></trkpt><trkpt lat="44.90915100417975" lon="7.189111794134698"><ele>1093.0</ele><time>2026-04-19T11:56:05.002Z</time></trkpt><trkpt lat="44.90916629023337" lon="7.188902903733593"><ele>1091.75</ele><time>2026-04-19T11:56:06.002Z</time></trkpt><trkpt lat="44.909177228252545" lon="7.188688533329211"><ele>1090.5</ele><time>2026-04-19T11:56:07.002Z</time></trkpt><trkpt lat="44.9091728203884" lon="7.188484417775999"><ele>1089.25</ele><time>2026-04-19T11:56:08.003Z</time></trkpt><trkpt lat="44.90915277614395" lon="7.188284383168173"><ele>1088.0</ele><time>2026-04-19T11:56:09.003Z</time></trkpt><trkpt lat="44.9091456400752" lon="7.188075635664869"><ele>1087.3333333333335</ele><time>2026-04-19T11:56:10.003Z</time></trkpt><trkpt lat="44.90916374434279" lon="7.187859870309189"><ele>1086.6666666666667</ele><time>2026-04-19T11:56:11.003Z</time></trkpt><trkpt lat="44.909129875474186" lon="7.187635180256155"><ele>1086.0</ele><time>2026-04-19T11:56:12.003Z</time></trkpt><trkpt lat="44.909102992924055" lon="7.187430571715247"><ele>1085.3999999999999</ele><time>2026-04-19T11:56:13.003Z</time></trkpt><trkpt lat="44.90909458046691" lon="7.187253815827511"><ele>1084.8</ele><time>2026-04-19T11:56:14.003Z</time></trkpt><trkpt lat="44.90910099078603" lon="7.187093463496249"><ele>1084.1999999999998</ele><time>2026-04-19T11:56:15.003Z</time></trkpt><trkpt lat="44.90910957290152" lon="7.186958486806707"><ele>1083.6</ele><time>2026-04-19T11:56:16.003Z</time></trkpt><trkpt lat="44.90909923427659" lon="7.186861595323377"><ele>1083.0</ele><time>2026-04-19T11:56:17.003Z</time></trkpt><trkpt lat="44.90904146110109" lon="7.186781156111651"><ele>1083.0</ele><time>2026-04-19T11:56:18.003Z</time></trkpt><trkpt lat="44.90894150262057" lon="7.186778635389294"><ele>1083.0</ele><time>2026-04-19T11:56:19.003Z</time></trkpt><trkpt lat="44.90886252849548" lon="7.186945184086605"><ele>1083.0</ele><time>2026-04-19T11:56:20.003Z</time></trkpt><trkpt lat="44.908826918775375" lon="7.187101849738974"><ele>1083.0</ele><time>2026-04-19T11:56:21.003Z</time></trkpt><trkpt lat="44.90882556959485" lon="7.187286047622688"><ele>1083.75</ele><time>2026-04-19T11:56:22.003Z</time></trkpt><trkpt lat="44.90884917884628" lon="7.187475760192635"><ele>1084.5</ele><time>2026-04-19T11:56:23.003Z</time></trkpt><trkpt lat="44.90889087232592" lon="7.187657016015693"><ele>1085.25</ele><time>2026-04-19T11:56:24.003Z</time></trkpt><trkpt lat="44.908905376948965" lon="7.187846624448156"><ele>1086.0</ele><time>2026-04-19T11:56:25.003Z</time></trkpt><trkpt lat="44.908860060951035" lon="7.188032401479751"><ele>1086.5</ele><time>2026-04-19T11:56:26.003Z</time></trkpt><trkpt lat="44.90878105182887" lon="7.188198320969035"><ele>1087.0</ele><time>2026-04-19T11:56:27.003Z</time></trkpt><trkpt lat="44.90868417602468" lon="7.188343192858746"><ele>1087.5</ele><time>2026-04-19T11:56:27.999Z</time></trkpt><trkpt lat="44.90857710188379" lon="7.188488680835979"><ele>1088.0</ele><time>2026-04-19T11:56:28.999Z</time></trkpt><trkpt lat="44.90847122882287" lon="7.188632289601384"><ele>1079.3333333333335</ele><time>2026-04-19T11:56:29.999Z</time></trkpt><trkpt lat="44.90837672611232" lon="7.188798243310384"><ele>1070.6666666666667</ele><time>2026-04-19T11:56:30.999Z</time></trkpt><trkpt lat="44.9082990639112" lon="7.188988110397954"><ele>1062.0</ele><time>2026-04-19T11:56:31.999Z</time></trkpt><trkpt lat="44.908226066233716" lon="7.18919371456677"><ele>1062.0</ele><time>2026-04-19T11:56:32.999Z</time></trkpt><trkpt lat="44.90814630366393" lon="7.189426204710161"><ele>1062.0</ele><time>2026-04-19T11:56:33.999Z</time></trkpt><trkpt lat="44.90807513310733" lon="7.189663417099918"><ele>1062.0</ele><time>2026-04-19T11:56:34.999Z</time></trkpt><trkpt lat="44.90799967837892" lon="7.189901072686766"><ele>1064.0</ele><time>2026-04-19T11:56:35.999Z</time></trkpt><trkpt lat="44.907922106155105" lon="7.190133448693845"><ele>1066.0</ele><time>2026-04-19T11:56:36.999Z</time></trkpt><trkpt lat="44.90784110635828" lon="7.190351811574732"><ele>1068.0</ele><time>2026-04-19T11:56:37.999Z</time></trkpt><trkpt lat="44.907757872768855" lon="7.190565349594419"><ele>1069.0</ele><time>2026-04-19T11:56:38.999Z</time></trkpt><trkpt lat="44.90767151526064" lon="7.190769233467166"><ele>1070.0</ele><time>2026-04-19T11:56:39.999Z</time></trkpt><trkpt lat="44.90759223528296" lon="7.19096879931239"><ele>1071.0</ele><time>2026-04-19T11:56:40.999Z</time></trkpt><trkpt lat="44.90753509756176" lon="7.1911704059054555"><ele>1061.3333333333333</ele><time>2026-04-19T11:56:42Z</time></trkpt><trkpt lat="44.90748552177858" lon="7.191377463318659"><ele>1051.6666666666665</ele><time>2026-04-19T11:56:43Z</time></trkpt><trkpt lat="44.90743329107997" lon="7.19158224312688"><ele>1042.0</ele><time>2026-04-19T11:56:44Z</time></trkpt><trkpt lat="44.90737963665416" lon="7.191768771036267"><ele>1042.0</ele><time>2026-04-19T11:56:45Z</time></trkpt><trkpt lat="44.90733363813464" lon="7.191925492236968"><ele>1042.0</ele><time>2026-04-19T11:56:46Z</time></trkpt><trkpt lat="44.90731339587126" lon="7.192051015825073"><ele>1042.0</ele><time>2026-04-19T11:56:47Z</time></trkpt><trkpt lat="44.907356251277655" lon="7.1921389230736565"><ele>1042.0</ele><time>2026-04-19T11:56:48Z</time></trkpt><trkpt lat="44.907415207140964" lon="7.192222958293076"><ele>1042.0</ele><time>2026-04-19T11:56:49Z</time></trkpt><trkpt lat="44.907520065969" lon="7.192311120956365"><ele>1043.0</ele><time>2026-04-19T11:56:50Z</time></trkpt><trkpt lat="44.90763738882001" lon="7.192402290536032"><ele>1044.0</ele><time>2026-04-19T11:56:51Z</time></trkpt><trkpt lat="44.9077655365892" lon="7.192484765736478"><ele>1045.0</ele><time>2026-04-19T11:56:52Z</time></trkpt><trkpt lat="44.90790769728456" lon="7.192541209605653"><ele>1046.0</ele><time>2026-04-19T11:56:53Z</time></trkpt><trkpt lat="44.90805766215307" lon="7.192583361857417"><ele>1046.0</ele><time>2026-04-19T11:56:54Z</time></trkpt><trkpt lat="44.90820552822167" lon="7.192646552419437"><ele>1046.0</ele><time>2026-04-19T11:56:55Z</time></trkpt><trkpt lat="44.9083528898706" lon="7.19273402771863"><ele>1046.0</ele><time>2026-04-19T11:56:56Z</time></trkpt><trkpt lat="44.908490990015046" lon="7.1928298491753875"><ele>1044.25</ele><time>2026-04-19T11:56:57Z</time></trkpt><trkpt lat="44.90861096522099" lon="7.192925142918356"><ele>1042.5</ele><time>2026-04-19T11:56:58Z</time></trkpt><trkpt lat="44.90872770583105" lon="7.193030292222214"><ele>1040.75</ele><time>2026-04-19T11:56:59Z</time></trkpt><trkpt lat="44.90884499065692" lon="7.193159650800991"><ele>1039.0</ele><time>2026-04-19T11:57:00Z</time></trkpt><trkpt lat="44.90897314708658" lon="7.193299408999427"><ele>1039.0</ele><time>2026-04-19T11:57:01Z</time></trkpt><trkpt lat="44.90909492765755" lon="7.1934440884327415"><ele>1039.0</ele><time>2026-04-19T11:57:02Z</time></trkpt><trkpt lat="44.909206170798846" lon="7.193572790721465"><ele>1039.0</ele><time>2026-04-19T11:57:03.001Z</time></trkpt><trkpt lat="44.909317704393196" lon="7.193697444671622"><ele>1039.0</ele><time>2026-04-19T11:57:04.001Z</time></trkpt><trkpt lat="44.90940258552132" lon="7.193824728756979"><ele>1045.0</ele><time>2026-04-19T11:57:05.001Z</time></trkpt><trkpt lat="44.90943435340407" lon="7.193991708811932"><ele>1051.0</ele><time>2026-04-19T11:57:06.001Z</time></trkpt><trkpt lat="44.90945319858533" lon="7.194167317153947"><ele>1057.0</ele><time>2026-04-19T11:57:07.001Z</time></trkpt><trkpt lat="44.90946494597588" lon="7.194325296328704"><ele>1063.0</ele><time>2026-04-19T11:57:08.001Z</time></trkpt><trkpt lat="44.90944247035293" lon="7.194451996430411"><ele>1063.0</ele><time>2026-04-19T11:57:09.001Z</time></trkpt><trkpt lat="44.909392154271316" lon="7.19454451313245"><ele>1063.0</ele><time>2026-04-19T11:57:10.001Z</time></trkpt><trkpt lat="44.909284696890545" lon="7.194548820611984"><ele>1063.0</ele><time>2026-04-19T11:57:11.001Z</time></trkpt><trkpt lat="44.9091595533066" lon="7.194610180129832"><ele>1063.0</ele><time>2026-04-19T11:57:12.001Z</time></trkpt><trkpt lat="44.90901722699811" lon="7.194667470089911"><ele>1050.3333333333333</ele><time>2026-04-19T11:57:13.001Z</time></trkpt><trkpt lat="44.90887152472331" lon="7.194770547488209"><ele>1037.6666666666667</ele><time>2026-04-19T11:57:14.001Z</time></trkpt><trkpt lat="44.90871664977583" lon="7.194906897479107"><ele>1025.0</ele><time>2026-04-19T11:57:15.001Z</time></trkpt><trkpt lat="44.90855559449368" lon="7.1950385583486325"><ele>1016.5</ele><time>2026-04-19T11:57:16.001Z</time></trkpt><trkpt lat="44.908402679566386" lon="7.195141722268192"><ele>1008.0</ele><time>2026-04-19T11:57:17.001Z</time></trkpt><trkpt lat="44.908273679195844" lon="7.195217797752388"><ele>999.5</ele><time>2026-04-19T11:57:18.001Z</time></trkpt><trkpt lat="44.90817741946115" lon="7.19530593351595"><ele>991.0</ele><time>2026-04-19T11:57:19.001Z</time></trkpt><trkpt lat="44.908121743396784" lon="7.195434703763525"><ele>991.0</ele><time>2026-04-19T11:57:20.001Z</time></trkpt><trkpt lat="44.90813078580094" lon="7.195615923666838"><ele>991.0</ele><time>2026-04-19T11:57:21.001Z</time></trkpt><trkpt lat="44.90812541297477" lon="7.195830831867686"><ele>991.0</ele><time>2026-04-19T11:57:22.001Z</time></trkpt><trkpt lat="44.90814576080176" lon="7.196078106433423"><ele>993.3333333333333</ele><time>2026-04-19T11:57:23.001Z</time></trkpt><trkpt lat="44.90815474412791" lon="7.196329124151144"><ele>995.6666666666667</ele><time>2026-04-19T11:57:24.001Z</time></trkpt><trkpt lat="44.90816119659494" lon="7.196575882283481"><ele>998.0</ele><time>2026-04-19T11:57:25.001Z</time></trkpt><trkpt lat="44.90818345681002" lon="7.196837363503157"><ele>998.0</ele><time>2026-04-19T11:57:26.001Z</time></trkpt><trkpt lat="44.90822527696804" lon="7.197104251380685"><ele>998.0</ele><time>2026-04-19T11:57:27.001Z</time></trkpt><trkpt lat="44.90828847144476" lon="7.197372132168308"><ele>998.0</ele><time>2026-04-19T11:57:28.001Z</time></trkpt><trkpt lat="44.90833848012168" lon="7.197644949391122"><ele>994.0</ele><time>2026-04-19T11:57:29.001Z</time></trkpt><trkpt lat="44.90837030500942" lon="7.197912500091096"><ele>990.0</ele><time>2026-04-19T11:57:30.001Z</time></trkpt><trkpt lat="44.90837735336689" lon="7.198175464972979"><ele>986.0</ele><time>2026-04-19T11:57:31.001Z</time></trkpt><trkpt lat="44.90838127489178" lon="7.198386216246901"><ele>984.4</ele><time>2026-04-19T11:57:32.001Z</time></trkpt><trkpt lat="44.90839301857388" lon="7.198566147560744"><ele>982.8</ele><time>2026-04-19T11:57:33.002Z</time></trkpt><trkpt lat="44.90838452008118" lon="7.198726048941208"><ele>981.1999999999999</ele><time>2026-04-19T11:57:34.002Z</time></trkpt><trkpt lat="44.90834776432502" lon="7.1988480574728095"><ele>979.5999999999999</ele><time>2026-04-19T11:57:35.002Z</time></trkpt><trkpt lat="44.90824525684121" lon="7.198905849737404"><ele>978.0</ele><time>2026-04-19T11:57:36.002Z</time></trkpt><trkpt lat="44.908140030110786" lon="7.198944810385073"><ele>978.0</ele><time>2026-04-19T11:57:37.002Z</time></trkpt><trkpt lat="44.908015718449064" lon="7.1988864295197414"><ele>978.0</ele><time>2026-04-19T11:57:38.002Z</time></trkpt><trkpt lat="44.90786566504551" lon="7.198856360449661"><ele>978.0</ele><time>2026-04-19T11:57:39.002Z</time></trkpt><trkpt lat="44.90771341958754" lon="7.19884363097817"><ele>978.0</ele><time>2026-04-19T11:57:40.002Z</time></trkpt><trkpt lat="44.90757113713154" lon="7.198897404881988"><ele>977.0</ele><time>2026-04-19T11:57:41.002Z</time></trkpt><trkpt lat="44.90741874559353" lon="7.198966125899695"><ele>976.0</ele><time>2026-04-19T11:57:42.002Z</time></trkpt><trkpt lat="44.90727288145049" lon="7.199043672632346"><ele>975.0</ele><time>2026-04-19T11:57:43.002Z</time></trkpt><trkpt lat="44.90713298745121" lon="7.199122744573497"><ele>975.0</ele><time>2026-04-19T11:57:44.002Z</time></trkpt><trkpt lat="44.90702488311373" lon="7.199199072550011"><ele>975.0</ele><time>2026-04-19T11:57:45.002Z</time></trkpt><trkpt lat="44.906938582904154" lon="7.19931155703854"><ele>975.0</ele><time>2026-04-19T11:57:46.002Z</time></trkpt><trkpt lat="44.906881519356034" lon="7.199485319728052"><ele>975.0</ele><time>2026-04-19T11:57:47.002Z</time></trkpt><trkpt lat="44.90685503937039" lon="7.199707588270206"><ele>982.0</ele><time>2026-04-19T11:57:48.002Z</time></trkpt><trkpt lat="44.90683141534791" lon="7.199919804230484"><ele>989.0</ele><time>2026-04-19T11:57:49.002Z</time></trkpt><trkpt lat="44.906774425125064" lon="7.20009672697414"><ele>996.0</ele><time>2026-04-19T11:57:50.002Z</time></trkpt><trkpt lat="44.90669716785815" lon="7.200253372638557"><ele>1003.0</ele><time>2026-04-19T11:57:51.002Z</time></trkpt><trkpt lat="44.906606203406255" lon="7.200436236737532"><ele>991.0</ele><time>2026-04-19T11:57:52.002Z</time></trkpt><trkpt lat="44.906501990693904" lon="7.200628081024337"><ele>979.0</ele><time>2026-04-19T11:57:53.002Z</time></trkpt><trkpt lat="44.906399813377405" lon="7.200820485755923"><ele>967.0</ele><time>2026-04-19T11:57:54.002Z</time></trkpt><trkpt lat="44.906302387897725" lon="7.201010819537733"><ele>967.0</ele><time>2026-04-19T11:57:55.002Z</time></trkpt><trkpt lat="44.90622030355439" lon="7.201209920588542"><ele>967.0</ele><time>2026-04-19T11:57:56.002Z</time></trkpt><trkpt lat="44.906142138719915" lon="7.2014147893851295"><ele>967.0</ele><time>2026-04-19T11:57:57.002Z</time></trkpt><trkpt lat="44.90606024910127" lon="7.201614578600529"><ele>973.3333333333333</ele><time>2026-04-19T11:57:58.002Z</time></trkpt><trkpt lat="44.905949957781445" lon="7.201807602408318"><ele>979.6666666666667</ele><time>2026-04-19T11:57:59.002Z</time></trkpt><trkpt lat="44.9058219548873" lon="7.201997057500008"><ele>986.0</ele><time>2026-04-19T11:58:00.002Z</time></trkpt><trkpt lat="44.90568904897816" lon="7.2022058929656305"><ele>973.3333333333334</ele><time>2026-04-19T11:58:01.002Z</time></trkpt><trkpt lat="44.905574991757085" lon="7.202416672727903"><ele>960.6666666666667</ele><time>2026-04-19T11:58:02.002Z</time></trkpt><trkpt lat="44.90546132447857" lon="7.202596288376553"><ele>948.0</ele><time>2026-04-19T11:58:03.002Z</time></trkpt><trkpt lat="44.90538067693413" lon="7.2027904068004664"><ele>948.0</ele><time>2026-04-19T11:58:04.002Z</time></trkpt><trkpt lat="44.90525999277397" lon="7.20292842512237"><ele>948.0</ele><time>2026-04-19T11:58:05.002Z</time></trkpt><trkpt lat="44.905107499875285" lon="7.2029727024982"><ele>948.0</ele><time>2026-04-19T11:58:06.003Z</time></trkpt><trkpt lat="44.90500337764448" lon="7.203068937439435"><ele>948.0</ele><time>2026-04-19T11:58:07.003Z</time></trkpt><trkpt lat="44.904954316869755" lon="7.2032383172709835"><ele>939.5</ele><time>2026-04-19T11:58:08.003Z</time></trkpt><trkpt lat="44.904921337834985" lon="7.203388301921563"><ele>931.0</ele><time>2026-04-19T11:58:09.003Z</time></trkpt><trkpt lat="44.90493088215167" lon="7.2035654707844765"><ele>922.5</ele><time>2026-04-19T11:58:10.003Z</time></trkpt><trkpt lat="44.9049736840227" lon="7.2037315351726505"><ele>914.0</ele><time>2026-04-19T11:58:11.003Z</time></trkpt><trkpt lat="44.9050590287386" lon="7.203911776494393"><ele>923.5</ele><time>2026-04-19T11:58:12.003Z</time></trkpt><trkpt lat="44.9051315443927" lon="7.204092416459819"><ele>933.0</ele><time>2026-04-19T11:58:13.003Z</time></trkpt><trkpt lat="44.90518127945134" lon="7.204280750512439"><ele>942.5</ele><time>2026-04-19T11:58:14.003Z</time></trkpt><trkpt lat="44.9052469714775" lon="7.20443369886594"><ele>952.0</ele><time>2026-04-19T11:58:15.003Z</time></trkpt><trkpt lat="44.90537084341917" lon="7.20452562563579"><ele>952.0</ele><time>2026-04-19T11:58:16.003Z</time></trkpt><trkpt lat="44.9055011983288" lon="7.204624319643691"><ele>952.0</ele><time>2026-04-19T11:58:17.003Z</time></trkpt><trkpt lat="44.905643152356404" lon="7.2047480427439226"><ele>952.0</ele><time>2026-04-19T11:58:18.003Z</time></trkpt><trkpt lat="44.905749539870335" lon="7.204869221871284"><ele>944.6</ele><time>2026-04-19T11:58:19.003Z</time></trkpt><trkpt lat="44.90582681824683" lon="7.20498514069989"><ele>937.2</ele><time>2026-04-19T11:58:20.003Z</time></trkpt><trkpt lat="44.90587952504581" lon="7.205064461532693"><ele>929.8</ele><time>2026-04-19T11:58:21.003Z</time></trkpt><trkpt lat="44.905908891797836" lon="7.205183422587696"><ele>922.4</ele><time>2026-04-19T11:58:23.003Z</time></trkpt><trkpt lat="44.90575975507755" lon="7.2051939911538"><ele>915.0</ele><time>2026-04-19T11:58:25.003Z</time></trkpt><trkpt lat="44.90573954824847" lon="7.205061817348385"><ele>915.0</ele><time>2026-04-19T11:58:26.003Z</time></trkpt><trkpt lat="44.90566817423428" lon="7.20496352524237"><ele>915.0</ele><time>2026-04-19T11:58:27.003Z</time></trkpt><trkpt lat="44.90559255766601" lon="7.204841549971057"><ele>915.0</ele><time>2026-04-19T11:58:28.003Z</time></trkpt><trkpt lat="44.905469438090414" lon="7.204754119740108"><ele>915.0</ele><time>2026-04-19T11:58:29.003Z</time></trkpt><trkpt lat="44.90532826968802" lon="7.204684804585555"><ele>913.6666666666667</ele><time>2026-04-19T11:58:30.003Z</time></trkpt><trkpt lat="44.905191175380054" lon="7.204556510651483"><ele>912.3333333333334</ele><time>2026-04-19T11:58:31.003Z</time></trkpt><trkpt lat="44.905074986721374" lon="7.204425662743748"><ele>911.0</ele><time>2026-04-19T11:58:32.003Z</time></trkpt><trkpt lat="44.904953122475064" lon="7.204283442058916"><ele>911.0</ele><time>2026-04-19T11:58:33.003Z</time></trkpt><trkpt lat="44.9048286625095" lon="7.204140802816857"><ele>911.0</ele><time>2026-04-19T11:58:33.999Z</time></trkpt><trkpt lat="44.90472195788011" lon="7.203958037474176"><ele>911.0</ele><time>2026-04-19T11:58:34.999Z</time></trkpt><trkpt lat="44.904602387474256" lon="7.2038099074014"><ele>911.75</ele><time>2026-04-19T11:58:35.999Z</time></trkpt><trkpt lat="44.90448771987594" lon="7.2036810780189615"><ele>912.5</ele><time>2026-04-19T11:58:36.999Z</time></trkpt><trkpt lat="44.904431364048634" lon="7.20353488232105"><ele>913.25</ele><time>2026-04-19T11:58:37.999Z</time></trkpt><trkpt lat="44.90439289745067" lon="7.2033909505796645"><ele>914.0</ele><time>2026-04-19T11:58:38.999Z</time></trkpt><trkpt lat="44.90440154487226" lon="7.2032367621017785"><ele>910.25</ele><time>2026-04-19T11:58:39.999Z</time></trkpt><trkpt lat="44.90442212020138" lon="7.203062448824844"><ele>906.5</ele><time>2026-04-19T11:58:40.999Z</time></trkpt><trkpt lat="44.90448028716183" lon="7.202901008481644"><ele>902.75</ele><time>2026-04-19T11:58:41.999Z</time></trkpt><trkpt lat="44.904578910133466" lon="7.202748499386578"><ele>899.0</ele><time>2026-04-19T11:58:42.999Z</time></trkpt><trkpt lat="44.90468734574015" lon="7.20258867102593"><ele>899.0</ele><time>2026-04-19T11:58:43.999Z</time></trkpt><trkpt lat="44.90478669041446" lon="7.202404304532058"><ele>899.0</ele><time>2026-04-19T11:58:44.999Z</time></trkpt><trkpt lat="44.90488711621168" lon="7.202231546825581"><ele>899.0</ele><time>2026-04-19T11:58:45.999Z</time></trkpt><trkpt lat="44.9049717885197" lon="7.202023029330125"><ele>901.0</ele><time>2026-04-19T11:58:46.999Z</time></trkpt><trkpt lat="44.90504458232242" lon="7.201818544967307"><ele>903.0</ele><time>2026-04-19T11:58:48Z</time></trkpt><trkpt lat="44.90510679921293" lon="7.201611348265478"><ele>905.0</ele><time>2026-04-19T11:58:49Z</time></trkpt><trkpt lat="44.90516411945247" lon="7.201403911610935"><ele>905.0</ele><time>2026-04-19T11:58:50Z</time></trkpt><trkpt lat="44.90518470022153" lon="7.201157951449733"><ele>905.0</ele><time>2026-04-19T11:58:51Z</time></trkpt><trkpt lat="44.90520031313879" lon="7.200910218304074"><ele>905.0</ele><time>2026-04-19T11:58:52Z</time></trkpt><trkpt lat="44.90521624569903" lon="7.200657414047164"><ele>900.5</ele><time>2026-04-19T11:58:53Z</time></trkpt><trkpt lat="44.90522793322597" lon="7.200424171819644"><ele>896.0</ele><time>2026-04-19T11:58:54Z</time></trkpt><trkpt lat="44.905240651538406" lon="7.200259530326718"><ele>891.5</ele><time>2026-04-19T11:58:55Z</time></trkpt><trkpt lat="44.905275693324214" lon="7.200119323809385"><ele>887.0</ele><time>2026-04-19T11:58:56Z</time></trkpt><trkpt lat="44.90533748880659" lon="7.20001306395773"><ele>887.0</ele><time>2026-04-19T11:58:57Z</time></trkpt><trkpt lat="44.905432085206726" lon="7.1999250313336"><ele>887.0</ele><time>2026-04-19T11:58:58Z</time></trkpt><trkpt lat="44.90553224643766" lon="7.199789196069062"><ele>887.0</ele><time>2026-04-19T11:58:59Z</time></trkpt><trkpt lat="44.905633739415144" lon="7.1996773629371615"><ele>887.0</ele><time>2026-04-19T11:59:00Z</time></trkpt><trkpt lat="44.905705914141244" lon="7.199517555352257"><ele>880.25</ele><time>2026-04-19T11:59:01Z</time></trkpt><trkpt lat="44.905734813525484" lon="7.199321815037475"><ele>873.5</ele><time>2026-04-19T11:59:02Z</time></trkpt><trkpt lat="44.905742755318975" lon="7.199106492643831"><ele>866.75</ele><time>2026-04-19T11:59:03Z</time></trkpt><trkpt lat="44.90577213879155" lon="7.1989130018920395"><ele>860.0</ele><time>2026-04-19T11:59:04Z</time></trkpt><trkpt lat="44.905828031610696" lon="7.198768560368082"><ele>866.0</ele><time>2026-04-19T11:59:05Z</time></trkpt><trkpt lat="44.90591919116652" lon="7.198675828182603"><ele>872.0</ele><time>2026-04-19T11:59:06Z</time></trkpt><trkpt lat="44.90602632039676" lon="7.198568239321633"><ele>878.0</ele><time>2026-04-19T11:59:07Z</time></trkpt><trkpt lat="44.90610271351682" lon="7.198440174337697"><ele>884.0</ele><time>2026-04-19T11:59:08Z</time></trkpt><trkpt lat="44.90614206522005" lon="7.198305451507158"><ele>884.75</ele><time>2026-04-19T11:59:09.001Z</time></trkpt><trkpt lat="44.90612313109818" lon="7.198146538761215"><ele>885.5</ele><time>2026-04-19T11:59:10.001Z</time></trkpt><trkpt lat="44.906058170204666" lon="7.197966865859855"><ele>886.25</ele><time>2026-04-19T11:59:11.001Z</time></trkpt><trkpt lat="44.90600076576309" lon="7.197805307173608"><ele>887.0</ele><time>2026-04-19T11:59:12.001Z</time></trkpt><trkpt lat="44.90593922162712" lon="7.197631591170548"><ele>878.0</ele><time>2026-04-19T11:59:13.001Z</time></trkpt><trkpt lat="44.90587212325223" lon="7.19745329164676"><ele>869.0</ele><time>2026-04-19T11:59:14.001Z</time></trkpt><trkpt lat="44.90579292939687" lon="7.197271842137543"><ele>860.0</ele><time>2026-04-19T11:59:15.001Z</time></trkpt><trkpt lat="44.905698597309396" lon="7.19708848502578"><ele>860.0</ele><time>2026-04-19T11:59:16.001Z</time></trkpt><trkpt lat="44.90559808054854" lon="7.196905650008102"><ele>860.0</ele><time>2026-04-19T11:59:17.001Z</time></trkpt><trkpt lat="44.90552169912568" lon="7.196699681342982"><ele>860.0</ele><time>2026-04-19T11:59:18.001Z</time></trkpt><trkpt lat="44.905445112673924" lon="7.196492256379489"><ele>869.0</ele><time>2026-04-19T11:59:19.001Z</time></trkpt><trkpt lat="44.90536449951954" lon="7.196289123896555"><ele>878.0</ele><time>2026-04-19T11:59:20.001Z</time></trkpt><trkpt lat="44.90530000151988" lon="7.196085397174613"><ele>887.0</ele><time>2026-04-19T11:59:21.001Z</time></trkpt><trkpt lat="44.90524105114368" lon="7.195886213040457"><ele>887.0</ele><time>2026-04-19T11:59:22.001Z</time></trkpt><trkpt lat="44.90522054039631" lon="7.195716161659332"><ele>887.0</ele><time>2026-04-19T11:59:23.001Z</time></trkpt><trkpt lat="44.90520306722899" lon="7.1955803121636635"><ele>887.0</ele><time>2026-04-19T11:59:24.001Z</time></trkpt><trkpt lat="44.905169422521865" lon="7.195490139284939"><ele>887.0</ele><time>2026-04-19T11:59:25.001Z</time></trkpt><trkpt lat="44.90507965224869" lon="7.195424678222542"><ele>887.0</ele><time>2026-04-19T11:59:27.001Z</time></trkpt><trkpt lat="44.90505660931982" lon="7.195653759893174"><ele>887.0</ele><time>2026-04-19T11:59:29.001Z</time></trkpt><trkpt lat="44.9051056345322" lon="7.195782968291585"><ele>887.0</ele><time>2026-04-19T11:59:30.001Z</time></trkpt><trkpt lat="44.905145512361564" lon="7.195945223558609"><ele>887.0</ele><time>2026-04-19T11:59:31.001Z</time></trkpt><trkpt lat="44.90521465625764" lon="7.196110685626429"><ele>887.0</ele><time>2026-04-19T11:59:32.001Z</time></trkpt><trkpt lat="44.90526317465534" lon="7.196313724394194"><ele>878.0</ele><time>2026-04-19T11:59:33.001Z</time></trkpt><trkpt lat="44.905306911563336" lon="7.196531669717896"><ele>869.0</ele><time>2026-04-19T11:59:34.001Z</time></trkpt><trkpt lat="44.90533838129019" lon="7.196766048806212"><ele>860.0</ele><time>2026-04-19T11:59:35.001Z</time></trkpt><trkpt lat="44.90536139573414" lon="7.197005205542907"><ele>860.0</ele><time>2026-04-19T11:59:36.001Z</time></trkpt><trkpt lat="44.90538169435583" lon="7.197254929059349"><ele>860.0</ele><time>2026-04-19T11:59:37.001Z</time></trkpt><trkpt lat="44.90538301279471" lon="7.197499889389218"><ele>860.0</ele><time>2026-04-19T11:59:38.002Z</time></trkpt><trkpt lat="44.90540218559379" lon="7.197734841656935"><ele>855.0</ele><time>2026-04-19T11:59:39.002Z</time></trkpt><trkpt lat="44.90542210175631" lon="7.197948040813513"><ele>850.0</ele><time>2026-04-19T11:59:40.002Z</time></trkpt><trkpt lat="44.90542556693762" lon="7.198125373123441"><ele>845.0</ele><time>2026-04-19T11:59:41.002Z</time></trkpt><trkpt lat="44.9054120458751" lon="7.198310752357329"><ele>840.0</ele><time>2026-04-19T11:59:42.002Z</time></trkpt><trkpt lat="44.90535235784891" lon="7.198490960326148"><ele>839.6666666666667</ele><time>2026-04-19T11:59:43.002Z</time></trkpt><trkpt lat="44.90523610198806" lon="7.198608199329969"><ele>839.3333333333334</ele><time>2026-04-19T11:59:44.002Z</time></trkpt><trkpt lat="44.905133965737555" lon="7.198773194801938"><ele>839.0</ele><time>2026-04-19T11:59:45.002Z</time></trkpt><trkpt lat="44.9050100329056" lon="7.198929999416289"><ele>830.6666666666667</ele><time>2026-04-19T11:59:46.002Z</time></trkpt><trkpt lat="44.90488779897367" lon="7.19909805749214"><ele>822.3333333333333</ele><time>2026-04-19T11:59:47.002Z</time></trkpt><trkpt lat="44.90476837414724" lon="7.199270505798794"><ele>814.0</ele><time>2026-04-19T11:59:48.002Z</time></trkpt><trkpt lat="44.90466433332736" lon="7.199443775425555"><ele>814.0</ele><time>2026-04-19T11:59:49.002Z</time></trkpt><trkpt lat="44.90455102319886" lon="7.19962887577021"><ele>814.0</ele><time>2026-04-19T11:59:50.002Z</time></trkpt><trkpt lat="44.90445006591594" lon="7.199822966951371"><ele>814.0</ele><time>2026-04-19T11:59:51.002Z</time></trkpt><trkpt lat="44.904343750976466" lon="7.200000555257313"><ele>802.0</ele><time>2026-04-19T11:59:52.002Z</time></trkpt><trkpt lat="44.90422693048879" lon="7.200171679591677"><ele>790.0</ele><time>2026-04-19T11:59:53.002Z</time></trkpt><trkpt lat="44.904120807907645" lon="7.200330868142183"><ele>778.0</ele><time>2026-04-19T11:59:54.002Z</time></trkpt><trkpt lat="44.904033208196076" lon="7.200526817213473"><ele>786.0</ele><time>2026-04-19T11:59:55.002Z</time></trkpt><trkpt lat="44.90403188718042" lon="7.2007503154041705"><ele>794.0</ele><time>2026-04-19T11:59:56.002Z</time></trkpt><trkpt lat="44.903953344213654" lon="7.200916496587166"><ele>802.0</ele><time>2026-04-19T11:59:57.002Z</time></trkpt><trkpt lat="44.90377991179898" lon="7.201002701523765"><ele>802.0</ele><time>2026-04-19T11:59:58.002Z</time></trkpt><trkpt lat="44.903673525264715" lon="7.201188488451714"><ele>802.0</ele><time>2026-04-19T11:59:59.002Z</time></trkpt><trkpt lat="44.9035686063101" lon="7.20140379102756"><ele>802.0</ele><time>2026-04-19T12:00:00.002Z</time></trkpt><trkpt lat="44.90344642942799" lon="7.201617857047852"><ele>793.3333333333333</ele><time>2026-04-19T12:00:01.002Z</time></trkpt><trkpt lat="44.90330702153643" lon="7.201826987250559"><ele>784.6666666666667</ele><time>2026-04-19T12:00:02.002Z</time></trkpt><trkpt lat="44.90316540600067" lon="7.202011990591121"><ele>776.0</ele><time>2026-04-19T12:00:03.002Z</time></trkpt><trkpt lat="44.90303026636275" lon="7.202177817560601"><ele>786.0</ele><time>2026-04-19T12:00:04.002Z</time></trkpt><trkpt lat="44.90289820958995" lon="7.202331612751154"><ele>796.0</ele><time>2026-04-19T12:00:05.002Z</time></trkpt><trkpt lat="44.90278412727817" lon="7.202469147958938"><ele>806.0</ele><time>2026-04-19T12:00:06.002Z</time></trkpt><trkpt lat="44.9026990850759" lon="7.2026205001266"><ele>806.0</ele><time>2026-04-19T12:00:07.002Z</time></trkpt><trkpt lat="44.90264891364981" lon="7.202797456391964"><ele>806.0</ele><time>2026-04-19T12:00:08.002Z</time></trkpt><trkpt lat="44.90264089230414" lon="7.202976342061251"><ele>806.0</ele><time>2026-04-19T12:00:09.002Z</time></trkpt><trkpt lat="44.902664196379966" lon="7.203151956503077"><ele>806.0</ele><time>2026-04-19T12:00:10.002Z</time></trkpt><trkpt lat="44.90270859033389" lon="7.203342199227267"><ele>811.3333333333334</ele><time>2026-04-19T12:00:11.002Z</time></trkpt><trkpt lat="44.90270777870055" lon="7.2035588741102545"><ele>816.6666666666667</ele><time>2026-04-19T12:00:12.003Z</time></trkpt><trkpt lat="44.902688732010176" lon="7.203774990313804"><ele>822.0</ele><time>2026-04-19T12:00:13.003Z</time></trkpt><trkpt lat="44.90271960231031" lon="7.203973509693395"><ele>818.0</ele><time>2026-04-19T12:00:14.003Z</time></trkpt><trkpt lat="44.90277032375257" lon="7.204168152667678"><ele>814.0</ele><time>2026-04-19T12:00:15.003Z</time></trkpt><trkpt lat="44.902826230880606" lon="7.20437841083239"><ele>810.0</ele><time>2026-04-19T12:00:16.003Z</time></trkpt><trkpt lat="44.9029337056991" lon="7.204554955798996"><ele>810.0</ele><time>2026-04-19T12:00:17.003Z</time></trkpt><trkpt lat="44.90306358475089" lon="7.20472942172891"><ele>810.0</ele><time>2026-04-19T12:00:18.003Z</time></trkpt><trkpt lat="44.903202135511854" lon="7.2048852129586525"><ele>810.0</ele><time>2026-04-19T12:00:19.003Z</time></trkpt><trkpt lat="44.90334212535121" lon="7.204994162218695"><ele>806.5</ele><time>2026-04-19T12:00:20.003Z</time></trkpt><trkpt lat="44.90346469828866" lon="7.205118755404496"><ele>803.0</ele><time>2026-04-19T12:00:21.003Z</time></trkpt><trkpt lat="44.903541887696846" lon="7.205264445755093"><ele>799.5</ele><time>2026-04-19T12:00:22.003Z</time></trkpt><trkpt lat="44.90353926267566" lon="7.205503621782669"><ele>796.0</ele><time>2026-04-19T12:00:23.003Z</time></trkpt><trkpt lat="44.903592611967255" lon="7.205730151960165"><ele>796.0</ele><time>2026-04-19T12:00:24.003Z</time></trkpt><trkpt lat="44.9036491722945" lon="7.205926555647702"><ele>796.0</ele><time>2026-04-19T12:00:25.003Z</time></trkpt><trkpt lat="44.90371819576439" lon="7.20608891794138"><ele>796.0</ele><time>2026-04-19T12:00:26.003Z</time></trkpt><trkpt lat="44.90382238852866" lon="7.206200691603338"><ele>796.0</ele><time>2026-04-19T12:00:27.003Z</time></trkpt><trkpt lat="44.90392586270419" lon="7.206318963120034"><ele>796.0</ele><time>2026-04-19T12:00:28.003Z</time></trkpt><trkpt lat="44.90399252448462" lon="7.206490553536943"><ele>796.0</ele><time>2026-04-19T12:00:29.003Z</time></trkpt><trkpt lat="44.90406437818853" lon="7.206687978140028"><ele>796.0</ele><time>2026-04-19T12:00:30.003Z</time></trkpt><trkpt lat="44.904121030050945" lon="7.206900147254878"><ele>796.6666666666666</ele><time>2026-04-19T12:00:31.003Z</time></trkpt><trkpt lat="44.904169476664954" lon="7.207110098250178"><ele>797.3333333333333</ele><time>2026-04-19T12:00:32.003Z</time></trkpt><trkpt lat="44.90421328933642" lon="7.2073217668500345"><ele>798.0</ele><time>2026-04-19T12:00:33.003Z</time></trkpt><trkpt lat="44.904271850784916" lon="7.207547432309331"><ele>798.0</ele><time>2026-04-19T12:00:34.003Z</time></trkpt><trkpt lat="44.90429343519066" lon="7.207802048765806"><ele>798.0</ele><time>2026-04-19T12:00:35.003Z</time></trkpt><trkpt lat="44.904301779421125" lon="7.208046328747325"><ele>798.0</ele><time>2026-04-19T12:00:36.003Z</time></trkpt><trkpt lat="44.90433562960612" lon="7.20827084931546"><ele>786.3333333333334</ele><time>2026-04-19T12:00:37.003Z</time></trkpt><trkpt lat="44.90440793829905" lon="7.208458924727989"><ele>774.6666666666667</ele><time>2026-04-19T12:00:38.003Z</time></trkpt><trkpt lat="44.90450349285854" lon="7.2086290691895165"><ele>763.0</ele><time>2026-04-19T12:00:39.003Z</time></trkpt><trkpt lat="44.904619976391075" lon="7.208769639353314"><ele>763.0</ele><time>2026-04-19T12:00:39.999Z</time></trkpt><trkpt lat="44.904762651428584" lon="7.208902537340094"><ele>763.0</ele><time>2026-04-19T12:00:40.999Z</time></trkpt><trkpt lat="44.90488838985037" lon="7.209029835997338"><ele>763.0</ele><time>2026-04-19T12:00:41.999Z</time></trkpt><trkpt lat="44.90503169241967" lon="7.209102549524551"><ele>753.3333333333334</ele><time>2026-04-19T12:00:42.999Z</time></trkpt><trkpt lat="44.905160583321006" lon="7.20916289622815"><ele>743.6666666666666</ele><time>2026-04-19T12:00:43.999Z</time></trkpt><trkpt lat="44.90530961792678" lon="7.209204303736842"><ele>734.0</ele><time>2026-04-19T12:00:44.999Z</time></trkpt><trkpt lat="44.90546967613323" lon="7.20925105295024"><ele>734.0</ele><time>2026-04-19T12:00:45.999Z</time></trkpt><trkpt lat="44.90561739572134" lon="7.209320772962597"><ele>734.0</ele><time>2026-04-19T12:00:46.999Z</time></trkpt><trkpt lat="44.90573979221445" lon="7.209381788405713"><ele>734.0</ele><time>2026-04-19T12:00:47.999Z</time></trkpt></trkseg><trkseg><trkpt lat="44.90305132809926" lon="7.210920053969668"><ele>652.0</ele><time>2026-04-19T12:04:08.002Z</time></trkpt><trkpt lat="44.90304520881408" lon="7.211047066987125"><ele>652.0</ele><time>2026-04-19T12:04:09.002Z</time></trkpt><trkpt lat="44.90304942478276" lon="7.211199847287438"><ele>652.0</ele><time>2026-04-19T12:04:10.002Z</time></trkpt><trkpt lat="44.9030541540199" lon="7.211388519238936"><ele>652.0</ele><time>2026-04-19T12:04:11.002Z</time></trkpt><trkpt lat="44.90306035427072" lon="7.211609924651911"><ele>651.6666666666667</ele><time>2026-04-19T12:04:12.002Z</time></trkpt><trkpt lat="44.90306761094946" lon="7.211861671430398"><ele>651.3333333333334</ele><time>2026-04-19T12:04:13.002Z</time></trkpt><trkpt lat="44.903075858956306" lon="7.212117006888554"><ele>651.0</ele><time>2026-04-19T12:04:14.002Z</time></trkpt><trkpt lat="44.90308980983181" lon="7.212391343049339"><ele>651.0</ele><time>2026-04-19T12:04:15.002Z</time></trkpt><trkpt lat="44.903105979768924" lon="7.212675409805836"><ele>651.0</ele><time>2026-04-19T12:04:16.002Z</time></trkpt><trkpt lat="44.90310523129094" lon="7.212948448366237"><ele>651.0</ele><time>2026-04-19T12:04:17.002Z</time></trkpt><trkpt lat="44.90308796900847" lon="7.21321653376634"><ele>651.6666666666666</ele><time>2026-04-19T12:04:18.002Z</time></trkpt><trkpt lat="44.903045182079666" lon="7.213488627410426"><ele>652.3333333333333</ele><time>2026-04-19T12:04:19.002Z</time></trkpt><trkpt lat="44.902978510045926" lon="7.213767113257134"><ele>653.0</ele><time>2026-04-19T12:04:20.002Z</time></trkpt><trkpt lat="44.902909594085855" lon="7.214049900517169"><ele>654.6666666666666</ele><time>2026-04-19T12:04:21.002Z</time></trkpt><trkpt lat="44.90283793714404" lon="7.214335306407292"><ele>656.3333333333334</ele><time>2026-04-19T12:04:22.002Z</time></trkpt><trkpt lat="44.90276324116755" lon="7.2146257916763625"><ele>658.0</ele><time>2026-04-19T12:04:23.002Z</time></trkpt><trkpt lat="44.90271824188282" lon="7.21492758258349"><ele>659.3333333333334</ele><time>2026-04-19T12:04:24.003Z</time></trkpt><trkpt lat="44.90268511856987" lon="7.215229695565137"><ele>660.6666666666666</ele><time>2026-04-19T12:04:25.003Z</time></trkpt><trkpt lat="44.90265599935216" lon="7.215511741507981"><ele>662.0</ele><time>2026-04-19T12:04:26.003Z</time></trkpt><trkpt lat="44.90262559757579" lon="7.21576992097535"><ele>662.0</ele><time>2026-04-19T12:04:27.003Z</time></trkpt><trkpt lat="44.902610385580175" lon="7.216014828315498"><ele>662.0</ele><time>2026-04-19T12:04:28.003Z</time></trkpt><trkpt lat="44.90261859659402" lon="7.216255930518555"><ele>662.0</ele><time>2026-04-19T12:04:29.003Z</time></trkpt><trkpt lat="44.90268932864962" lon="7.216477375247339"><ele>662.0</ele><time>2026-04-19T12:04:30.003Z</time></trkpt><trkpt lat="44.90271848456285" lon="7.216705925333833"><ele>662.0</ele><time>2026-04-19T12:04:31.003Z</time></trkpt><trkpt lat="44.902741310163016" lon="7.216915722741975"><ele>662.0</ele><time>2026-04-19T12:04:32.003Z</time></trkpt><trkpt lat="44.902736147866634" lon="7.217134345844968"><ele>660.6666666666666</ele><time>2026-04-19T12:04:33.003Z</time></trkpt><trkpt lat="44.90270845336399" lon="7.2173850237172745"><ele>659.3333333333334</ele><time>2026-04-19T12:04:34.003Z</time></trkpt><trkpt lat="44.902666069162976" lon="7.217646974537191"><ele>658.0</ele><time>2026-04-19T12:04:35.003Z</time></trkpt><trkpt lat="44.902627811215396" lon="7.217916483197385"><ele>657.3333333333334</ele><time>2026-04-19T12:04:36.003Z</time></trkpt><trkpt lat="44.90259305896113" lon="7.218192668511416"><ele>656.6666666666666</ele><time>2026-04-19T12:04:37.003Z</time></trkpt><trkpt lat="44.90256384753103" lon="7.218479394490432"><ele>656.0</ele><time>2026-04-19T12:04:38.003Z</time></trkpt><trkpt lat="44.902523757076594" lon="7.218761142833829"><ele>642.3333333333333</ele><time>2026-04-19T12:04:39.003Z</time></trkpt><trkpt lat="44.90246559009113" lon="7.219032164941409"><ele>628.6666666666666</ele><time>2026-04-19T12:04:40.003Z</time></trkpt><trkpt lat="44.90239721344292" lon="7.219300148384727"><ele>615.0</ele><time>2026-04-19T12:04:41.003Z</time></trkpt><trkpt lat="44.90232115824191" lon="7.2195585633474915"><ele>615.0</ele><time>2026-04-19T12:04:42.003Z</time></trkpt><trkpt lat="44.90222855981007" lon="7.21979862618605"><ele>615.0</ele><time>2026-04-19T12:04:43.003Z</time></trkpt><trkpt lat="44.90211817069047" lon="7.220011469448343"><ele>615.0</ele><time>2026-04-19T12:04:44.003Z</time></trkpt><trkpt lat="44.90199426846057" lon="7.220212239397355"><ele>617.6666666666666</ele><time>2026-04-19T12:04:45.003Z</time></trkpt><trkpt lat="44.90185408360536" lon="7.220401361952001"><ele>620.3333333333333</ele><time>2026-04-19T12:04:46.003Z</time></trkpt><trkpt lat="44.90173845339256" lon="7.220632605239329"><ele>623.0</ele><time>2026-04-19T12:04:47.003Z</time></trkpt><trkpt lat="44.901620798616406" lon="7.220853796644058"><ele>617.3333333333333</ele><time>2026-04-19T12:04:48.003Z</time></trkpt><trkpt lat="44.901524552659495" lon="7.221085285036017"><ele>611.6666666666666</ele><time>2026-04-19T12:04:49.003Z</time></trkpt><trkpt lat="44.90144928220996" lon="7.221322773403519"><ele>606.0</ele><time>2026-04-19T12:04:50.003Z</time></trkpt><trkpt lat="44.901395443177805" lon="7.221559458777873"><ele>606.0</ele><time>2026-04-19T12:04:51.003Z</time></trkpt><trkpt lat="44.90133786755554" lon="7.221794314495145"><ele>606.0</ele><time>2026-04-19T12:04:51.998Z</time></trkpt><trkpt lat="44.90131370617267" lon="7.222040838220176"><ele>606.0</ele><time>2026-04-19T12:04:52.998Z</time></trkpt><trkpt lat="44.901316751717836" lon="7.222300158322993"><ele>607.6666666666666</ele><time>2026-04-19T12:04:53.998Z</time></trkpt><trkpt lat="44.90132642994683" lon="7.222572291433859"><ele>609.3333333333333</ele><time>2026-04-19T12:04:54.998Z</time></trkpt><trkpt lat="44.90133515446976" lon="7.22283266140948"><ele>611.0</ele><time>2026-04-19T12:04:55.998Z</time></trkpt><trkpt lat="44.9013626211289" lon="7.223077551879892"><ele>609.5</ele><time>2026-04-19T12:04:56.998Z</time></trkpt><trkpt lat="44.901417108799876" lon="7.22326692556806"><ele>608.0</ele><time>2026-04-19T12:04:57.998Z</time></trkpt><trkpt lat="44.90148160840114" lon="7.2234522310366485"><ele>606.5</ele><time>2026-04-19T12:04:58.998Z</time></trkpt><trkpt lat="44.90156495345464" lon="7.223642343134549"><ele>605.0</ele><time>2026-04-19T12:04:59.999Z</time></trkpt><trkpt lat="44.90162673656757" lon="7.223829035610598"><ele>602.0</ele><time>2026-04-19T12:05:00.999Z</time></trkpt><trkpt lat="44.90165074378398" lon="7.224031418278452"><ele>599.0</ele><time>2026-04-19T12:05:01.999Z</time></trkpt><trkpt lat="44.90166380976781" lon="7.224258832435768"><ele>596.0</ele><time>2026-04-19T12:05:02.999Z</time></trkpt><trkpt lat="44.90167590702229" lon="7.224493368158066"><ele>596.0</ele><time>2026-04-19T12:05:03.999Z</time></trkpt><trkpt lat="44.90169028918029" lon="7.224740236846155"><ele>596.0</ele><time>2026-04-19T12:05:04.999Z</time></trkpt><trkpt lat="44.9017142780867" lon="7.224982779161133"><ele>596.0</ele><time>2026-04-19T12:05:05.999Z</time></trkpt><trkpt lat="44.90169428544008" lon="7.225217886165443"><ele>595.3333333333333</ele><time>2026-04-19T12:05:06.999Z</time></trkpt><trkpt lat="44.90166156155279" lon="7.22542967073985"><ele>594.6666666666666</ele><time>2026-04-19T12:05:07.999Z</time></trkpt><trkpt lat="44.901651769823985" lon="7.225660137851785"><ele>594.0</ele><time>2026-04-19T12:05:08.999Z</time></trkpt><trkpt lat="44.90160878263146" lon="7.2258507309093005"><ele>593.0</ele><time>2026-04-19T12:05:09.999Z</time></trkpt><trkpt lat="44.90160826361419" lon="7.226039936156256"><ele>592.0</ele><time>2026-04-19T12:05:10.999Z</time></trkpt><trkpt lat="44.9016509805131" lon="7.226221446873231"><ele>591.0</ele><time>2026-04-19T12:05:11.999Z</time></trkpt><trkpt lat="44.901733096103484" lon="7.226403550549177"><ele>590.0</ele><time>2026-04-19T12:05:13Z</time></trkpt><trkpt lat="44.901789974590095" lon="7.226623260259973"><ele>600.6666666666666</ele><time>2026-04-19T12:05:14Z</time></trkpt><trkpt lat="44.901833694835" lon="7.226848312028695"><ele>611.3333333333334</ele><time>2026-04-19T12:05:15Z</time></trkpt><trkpt lat="44.90187261408203" lon="7.227099640309454"><ele>622.0</ele><time>2026-04-19T12:05:16Z</time></trkpt><trkpt lat="44.901908504205785" lon="7.227350548488508"><ele>622.6666666666667</ele><time>2026-04-19T12:05:17Z</time></trkpt><trkpt lat="44.90193869768138" lon="7.227606143790554"><ele>623.3333333333334</ele><time>2026-04-19T12:05:18Z</time></trkpt><trkpt lat="44.90195837257093" lon="7.2278702834555455"><ele>624.0</ele><time>2026-04-19T12:05:19Z</time></trkpt><trkpt lat="44.90195525333393" lon="7.228107524161998"><ele>624.6666666666666</ele><time>2026-04-19T12:05:20Z</time></trkpt><trkpt lat="44.90194269792928" lon="7.228334324437941"><ele>625.3333333333333</ele><time>2026-04-19T12:05:21Z</time></trkpt><trkpt lat="44.90193246896108" lon="7.22856075544478"><ele>626.0</ele><time>2026-04-19T12:05:22Z</time></trkpt><trkpt lat="44.90193620066039" lon="7.228785442492239"><ele>623.0</ele><time>2026-04-19T12:05:23Z</time></trkpt><trkpt lat="44.90192261947923" lon="7.228976074165639"><ele>620.0</ele><time>2026-04-19T12:05:24Z</time></trkpt><trkpt lat="44.90192650868565" lon="7.2291471143434425"><ele>617.0</ele><time>2026-04-19T12:05:25Z</time></trkpt><trkpt lat="44.90192972253665" lon="7.229290190132237"><ele>614.0</ele><time>2026-04-19T12:05:26Z</time></trkpt><trkpt lat="44.90199217226195" lon="7.2294228155938685"><ele>614.0</ele><time>2026-04-19T12:05:27Z</time></trkpt><trkpt lat="44.90211112355746" lon="7.2294762042774385"><ele>614.0</ele><time>2026-04-19T12:05:28Z</time></trkpt><trkpt lat="44.902210356799635" lon="7.229552896508461"><ele>614.0</ele><time>2026-04-19T12:05:29Z</time></trkpt><trkpt lat="44.90228763701232" lon="7.2296339073330715"><ele>614.0</ele><time>2026-04-19T12:05:30Z</time></trkpt><trkpt lat="44.902317486686506" lon="7.2297263437036765"><ele>614.0</ele><time>2026-04-19T12:05:31.001Z</time></trkpt><trkpt lat="44.902296814552535" lon="7.229820013766961"><ele>612.4</ele><time>2026-04-19T12:05:32.001Z</time></trkpt><trkpt lat="44.9022674908807" lon="7.229910531180917"><ele>610.8</ele><time>2026-04-19T12:05:33.001Z</time></trkpt><trkpt lat="44.90216651647285" lon="7.229936217933043"><ele>609.2</ele><time>2026-04-19T12:05:34.001Z</time></trkpt><trkpt lat="44.902082399596594" lon="7.230050907919137"><ele>607.6</ele><time>2026-04-19T12:05:35.001Z</time></trkpt><trkpt lat="44.90201657292655" lon="7.230171877085123"><ele>606.0</ele><time>2026-04-19T12:05:36.001Z</time></trkpt><trkpt lat="44.90198662956536" lon="7.230342800855397"><ele>606.0</ele><time>2026-04-19T12:05:37.001Z</time></trkpt><trkpt lat="44.90199691155639" lon="7.23055206525936"><ele>606.0</ele><time>2026-04-19T12:05:38.001Z</time></trkpt><trkpt lat="44.90200392126357" lon="7.230784929031913"><ele>606.0</ele><time>2026-04-19T12:05:39.001Z</time></trkpt><trkpt lat="44.90202895576865" lon="7.2309872166705835"><ele>605.25</ele><time>2026-04-19T12:05:40.001Z</time></trkpt><trkpt lat="44.902032610642834" lon="7.231172953445588"><ele>604.5</ele><time>2026-04-19T12:05:41.001Z</time></trkpt><trkpt lat="44.90200972355457" lon="7.231337933965544"><ele>603.75</ele><time>2026-04-19T12:05:42.001Z</time></trkpt><trkpt lat="44.90195858696885" lon="7.23146392467833"><ele>603.0</ele><time>2026-04-19T12:05:43.001Z</time></trkpt><trkpt lat="44.90185735182583" lon="7.231546184187519"><ele>592.75</ele><time>2026-04-19T12:05:44.001Z</time></trkpt><trkpt lat="44.90174347882615" lon="7.231621990950687"><ele>582.5</ele><time>2026-04-19T12:05:45.001Z</time></trkpt><trkpt lat="44.90166281378933" lon="7.2317179108579275"><ele>572.25</ele><time>2026-04-19T12:05:46.001Z</time></trkpt><trkpt lat="44.90164988703215" lon="7.2318661379249125"><ele>562.0</ele><time>2026-04-19T12:05:47.001Z</time></trkpt><trkpt lat="44.90163597551391" lon="7.232036905422694"><ele>562.0</ele><time>2026-04-19T12:05:48.001Z</time></trkpt><trkpt lat="44.90165025100337" lon="7.232237535304872"><ele>562.0</ele><time>2026-04-19T12:05:49.001Z</time></trkpt><trkpt lat="44.901618533745854" lon="7.232441274078266"><ele>562.0</ele><time>2026-04-19T12:05:50.001Z</time></trkpt><trkpt lat="44.901554937531294" lon="7.232640679868562"><ele>562.0</ele><time>2026-04-19T12:05:51.001Z</time></trkpt><trkpt lat="44.90148336829775" lon="7.2328236960665455"><ele>564.0</ele><time>2026-04-19T12:05:52.001Z</time></trkpt><trkpt lat="44.90143099232048" lon="7.232992623779629"><ele>566.0</ele><time>2026-04-19T12:05:53.001Z</time></trkpt><trkpt lat="44.90140282429806" lon="7.233165150002517"><ele>568.0</ele><time>2026-04-19T12:05:54.001Z</time></trkpt><trkpt lat="44.90140771354906" lon="7.233334432723013"><ele>570.0</ele><time>2026-04-19T12:05:55.001Z</time></trkpt><trkpt lat="44.901453256413106" lon="7.233513121660378"><ele>570.0</ele><time>2026-04-19T12:05:56.001Z</time></trkpt><trkpt lat="44.90151916845776" lon="7.2336990586894085"><ele>570.0</ele><time>2026-04-19T12:05:57.001Z</time></trkpt><trkpt lat="44.90158920586884" lon="7.233899121183414"><ele>570.0</ele><time>2026-04-19T12:05:58.002Z</time></trkpt><trkpt lat="44.90165679369467" lon="7.234114571154893"><ele>565.6666666666666</ele><time>2026-04-19T12:05:59.002Z</time></trkpt><trkpt lat="44.901727409866126" lon="7.234336855177967"><ele>561.3333333333333</ele><time>2026-04-19T12:06:00.002Z</time></trkpt><trkpt lat="44.90179191692207" lon="7.2345439048085245"><ele>557.0</ele><time>2026-04-19T12:06:01.002Z</time></trkpt><trkpt lat="44.90184362292829" lon="7.2347039847013015"><ele>557.8333333333333</ele><time>2026-04-19T12:06:02.002Z</time></trkpt><trkpt lat="44.90187989217291" lon="7.23480854780211"><ele>558.6666666666666</ele><time>2026-04-19T12:06:03.002Z</time></trkpt><trkpt lat="44.90191303360754" lon="7.234899115289312"><ele>559.5</ele><time>2026-04-19T12:06:04.002Z</time></trkpt><trkpt lat="44.90196095432672" lon="7.235020550161728"><ele>560.3333333333334</ele><time>2026-04-19T12:06:06.002Z</time></trkpt><trkpt lat="44.90198196689094" lon="7.235124987921748"><ele>561.1666666666667</ele><time>2026-04-19T12:06:14.002Z</time></trkpt><trkpt lat="44.90202745451629" lon="7.235198620741387"><ele>562.0</ele><time>2026-04-19T12:06:18.002Z</time></trkpt><trkpt lat="44.90198682880398" lon="7.235069639644094"><ele>562.0</ele><time>2026-04-19T12:06:22.002Z</time></trkpt><trkpt lat="44.90191249573361" lon="7.235021881208825"><ele>562.0</ele><time>2026-04-19T12:06:25.002Z</time></trkpt><trkpt lat="44.90188478846665" lon="7.2349042767101945"><ele>562.0</ele><time>2026-04-19T12:06:28.002Z</time></trkpt><trkpt lat="44.90175149303336" lon="7.234930280857921"><ele>562.0</ele><time>2026-04-19T12:06:30.002Z</time></trkpt><trkpt lat="44.90171877647724" lon="7.235031282646022"><ele>562.0</ele><time>2026-04-19T12:06:31.003Z</time></trkpt><trkpt lat="44.90164629445188" lon="7.235153148598955"><ele>558.5</ele><time>2026-04-19T12:06:33.003Z</time></trkpt><trkpt lat="44.90160557804695" lon="7.235304334138129"><ele>555.0</ele><time>2026-04-19T12:06:35.003Z</time></trkpt><trkpt lat="44.901555416728506" lon="7.235442545438057"><ele>551.5</ele><time>2026-04-19T12:06:37.003Z</time></trkpt><trkpt lat="44.901522603840554" lon="7.235601329022877"><ele>548.0</ele><time>2026-04-19T12:06:39.003Z</time></trkpt><trkpt lat="44.901491229561856" lon="7.235785898602037"><ele>546.8</ele><time>2026-04-19T12:06:41.003Z</time></trkpt><trkpt lat="44.90142695320288" lon="7.2358764876906"><ele>545.5999999999999</ele><time>2026-04-19T12:06:42.003Z</time></trkpt><trkpt lat="44.9013761853025" lon="7.236007007506589"><ele>544.4000000000001</ele><time>2026-04-19T12:06:43.003Z</time></trkpt><trkpt lat="44.901315417042106" lon="7.236119702561499"><ele>543.2</ele><time>2026-04-19T12:06:44.003Z</time></trkpt><trkpt lat="44.90126195402493" lon="7.236233645256207"><ele>542.0</ele><time>2026-04-19T12:06:45.003Z</time></trkpt><trkpt lat="44.901225731459505" lon="7.236345757100281"><ele>542.0</ele><time>2026-04-19T12:06:46.003Z</time></trkpt><trkpt lat="44.90117509039559" lon="7.236438916406892"><ele>542.0</ele><time>2026-04-19T12:06:47.003Z</time></trkpt><trkpt lat="44.90123040036372" lon="7.236595981166165"><ele>542.0</ele><time>2026-04-19T12:06:48.003Z</time></trkpt><trkpt lat="44.901248759401284" lon="7.236749529806154"><ele>542.0</ele><time>2026-04-19T12:06:49.003Z</time></trkpt><trkpt lat="44.901244388086354" lon="7.236916311119559"><ele>542.0</ele><time>2026-04-19T12:06:50.003Z</time></trkpt><trkpt lat="44.90125033636981" lon="7.237044894825791"><ele>540.3333333333333</ele><time>2026-04-19T12:06:51.003Z</time></trkpt><trkpt lat="44.90125551717171" lon="7.237155629388218"><ele>538.6666666666666</ele><time>2026-04-19T12:06:52.003Z</time></trkpt><trkpt lat="44.90125797568721" lon="7.23724689878706"><ele>537.0</ele><time>2026-04-19T12:06:53.003Z</time></trkpt><trkpt lat="44.90126114607955" lon="7.237375963239403"><ele>535.3333333333334</ele><time>2026-04-19T12:06:55.003Z</time></trkpt><trkpt lat="44.9012810069186" lon="7.237502941416397"><ele>533.6666666666667</ele><time>2026-04-19T12:06:57.997Z</time></trkpt><trkpt lat="44.90127692430642" lon="7.237593589886081"><ele>532.0</ele><time>2026-04-19T12:06:59.997Z</time></trkpt><trkpt lat="44.90127890382784" lon="7.237702223911401"><ele>530.7142857142857</ele><time>2026-04-19T12:07:01.998Z</time></trkpt><trkpt lat="44.901279759239024" lon="7.23780777599434"><ele>529.4285714285714</ele><time>2026-04-19T12:07:03.998Z</time></trkpt><trkpt lat="44.90128151449809" lon="7.237900662007129"><ele>528.1428571428571</ele><time>2026-04-19T12:07:05.998Z</time></trkpt><trkpt lat="44.901283449937736" lon="7.237999401570977"><ele>526.8571428571429</ele><time>2026-04-19T12:07:07.998Z</time></trkpt><trkpt lat="44.901267575857844" lon="7.238090502720205"><ele>525.5714285714286</ele><time>2026-04-19T12:07:10.999Z</time></trkpt><trkpt lat="44.90133688980508" lon="7.2381751184862235"><ele>524.2857142857142</ele><time>2026-04-19T12:07:13.999Z</time></trkpt><trkpt lat="44.90140095821416" lon="7.238198243935689"><ele>523.0</ele><time>2026-04-19T12:07:15.999Z</time></trkpt><trkpt lat="44.901454283471395" lon="7.238276018085072"><ele>521.8333333333334</ele><time>2026-04-19T12:07:19.999Z</time></trkpt><trkpt lat="44.90145085863944" lon="7.238370951502286"><ele>520.6666666666667</ele><time>2026-04-19T12:07:22Z</time></trkpt><trkpt lat="44.901438055096506" lon="7.238466545023452"><ele>519.5</ele><time>2026-04-19T12:07:24Z</time></trkpt><trkpt lat="44.901435047065064" lon="7.2385710488240935"><ele>518.3333333333334</ele><time>2026-04-19T12:07:26Z</time></trkpt><trkpt lat="44.90141606205061" lon="7.238661847423287"><ele>517.1666666666666</ele><time>2026-04-19T12:07:28Z</time></trkpt><trkpt lat="44.90133190072188" lon="7.238713653550072"><ele>516.0</ele><time>2026-04-19T12:07:30Z</time></trkpt><trkpt lat="44.90124792885641" lon="7.238750292359794"><ele>516.0</ele><time>2026-04-19T12:07:32Z</time></trkpt><trkpt lat="44.901157563116655" lon="7.2388085095818155"><ele>516.0</ele><time>2026-04-19T12:07:34Z</time></trkpt><trkpt lat="44.90105703514157" lon="7.238835003211321"><ele>516.0</ele><time>2026-04-19T12:07:36Z</time></trkpt><trkpt lat="44.90095330983564" lon="7.238863477153828"><ele>516.0</ele><time>2026-04-19T12:07:38Z</time></trkpt><trkpt lat="44.90086523410975" lon="7.238897730943114"><ele>516.0</ele><time>2026-04-19T12:07:40.001Z</time></trkpt><trkpt lat="44.900792355871715" lon="7.238958075181742"><ele>513.0</ele><time>2026-04-19T12:07:42.001Z</time></trkpt><trkpt lat="44.90072950980454" lon="7.23901845861295"><ele>510.0</ele><time>2026-04-19T12:07:44.001Z</time></trkpt><trkpt lat="44.90068030059124" lon="7.239081770101777"><ele>507.0</ele><time>2026-04-19T12:07:47.001Z</time></trkpt><trkpt lat="44.900558990440736" lon="7.239111757977267"><ele>504.0</ele><time>2026-04-19T12:07:49.001Z</time></trkpt><trkpt lat="44.900477711263306" lon="7.239122783143571"><ele>501.0</ele><time>2026-04-19T12:07:50.001Z</time></trkpt><trkpt lat="44.90040217395477" lon="7.239144092474759"><ele>498.0</ele><time>2026-04-19T12:07:51.001Z</time></trkpt><trkpt lat="44.90032508603346" lon="7.239141460272676"><ele>498.0</ele><time>2026-04-19T12:07:52.001Z</time></trkpt><trkpt lat="44.900244483213385" lon="7.239138902144968"><ele>498.0</ele><time>2026-04-19T12:07:53.001Z</time></trkpt><trkpt lat="44.90015856369418" lon="7.2391508499197466"><ele>498.0</ele><time>2026-04-19T12:07:54.001Z</time></trkpt><trkpt lat="44.90008030586396" lon="7.239158175209333"><ele>498.0</ele><time>2026-04-19T12:07:55.001Z</time></trkpt><trkpt lat="44.900002023177706" lon="7.239179525590916"><ele>498.0</ele><time>2026-04-19T12:07:56.001Z</time></trkpt><trkpt lat="44.899924806489544" lon="7.239210553921618"><ele>498.0</ele><time>2026-04-19T12:07:57.001Z</time></trkpt><trkpt lat="44.89985976126479" lon="7.239240620215316"><ele>497.0</ele><time>2026-04-19T12:07:58.001Z</time></trkpt><trkpt lat="44.899721483986625" lon="7.23928096816135"><ele>495.99999999999994</ele><time>2026-04-19T12:08:00.001Z</time></trkpt><trkpt lat="44.899639139292404" lon="7.239246171612677"><ele>494.99999999999994</ele><time>2026-04-19T12:08:01.001Z</time></trkpt><trkpt lat="44.89954626509371" lon="7.239248488805326"><ele>494.0</ele><time>2026-04-19T12:08:02.001Z</time></trkpt><trkpt lat="44.89948108940301" lon="7.239224648650275"><ele>493.0</ele><time>2026-04-19T12:08:03.001Z</time></trkpt><trkpt lat="44.89938929431974" lon="7.239197914744364"><ele>493.0</ele><time>2026-04-19T12:08:04.001Z</time></trkpt><trkpt lat="44.89929225173243" lon="7.239218993623058"><ele>492.99999999999994</ele><time>2026-04-19T12:08:05.001Z</time></trkpt><trkpt lat="44.899193522848606" lon="7.239256386669043"><ele>492.99999999999994</ele><time>2026-04-19T12:08:06.001Z</time></trkpt><trkpt lat="44.89909775497864" lon="7.239284171235201"><ele>493.0</ele><time>2026-04-19T12:08:07.002Z</time></trkpt><trkpt lat="44.89898489252874" lon="7.239332015872851"><ele>493.0</ele><time>2026-04-19T12:08:08.002Z</time></trkpt><trkpt lat="44.898882079960394" lon="7.239393239342284"><ele>492.59999999999997</ele><time>2026-04-19T12:08:09.002Z</time></trkpt><trkpt lat="44.89878113363035" lon="7.239440496782115"><ele>492.19999999999993</ele><time>2026-04-19T12:08:10.002Z</time></trkpt><trkpt lat="44.89867610797177" lon="7.239482933114529"><ele>491.8</ele><time>2026-04-19T12:08:11.002Z</time></trkpt><trkpt lat="44.89856904152106" lon="7.239528604726735"><ele>491.4</ele><time>2026-04-19T12:08:12.002Z</time></trkpt><trkpt lat="44.898471639089365" lon="7.239572751237102"><ele>491.0</ele><time>2026-04-19T12:08:13.002Z</time></trkpt><trkpt lat="44.898375675617245" lon="7.239589061523911"><ele>489.6</ele><time>2026-04-19T12:08:14.002Z</time></trkpt><trkpt lat="44.89828843226493" lon="7.239609554975583"><ele>488.20000000000005</ele><time>2026-04-19T12:08:15.002Z</time></trkpt><trkpt lat="44.89820007548614" lon="7.239609599976935"><ele>486.79999999999995</ele><time>2026-04-19T12:08:16.002Z</time></trkpt><trkpt lat="44.89812333655293" lon="7.239647477071181"><ele>485.4</ele><time>2026-04-19T12:08:17.002Z</time></trkpt><trkpt lat="44.898060187090195" lon="7.239782121243604"><ele>484.0</ele><time>2026-04-19T12:08:18.002Z</time></trkpt><trkpt lat="44.897997942998146" lon="7.239939205332418"><ele>484.0</ele><time>2026-04-19T12:08:19.002Z</time></trkpt><trkpt lat="44.89793454010783" lon="7.240122793823389"><ele>484.0</ele><time>2026-04-19T12:08:20.002Z</time></trkpt><trkpt lat="44.897857423258564" lon="7.24031911267007"><ele>484.0</ele><time>2026-04-19T12:08:21.002Z</time></trkpt><trkpt lat="44.89776956975147" lon="7.2405033958307925"><ele>483.75</ele><time>2026-04-19T12:08:22.002Z</time></trkpt><trkpt lat="44.89770712466887" lon="7.240686552154015"><ele>483.5</ele><time>2026-04-19T12:08:23.002Z</time></trkpt><trkpt lat="44.897644884947866" lon="7.240862407404191"><ele>483.25</ele><time>2026-04-19T12:08:24.002Z</time></trkpt><trkpt lat="44.897608883628244" lon="7.2410565723554"><ele>483.0</ele><time>2026-04-19T12:08:25.002Z</time></trkpt><trkpt lat="44.89758736788121" lon="7.241277181192721"><ele>478.66666666666663</ele><time>2026-04-19T12:08:26.002Z</time></trkpt><trkpt lat="44.8975704225133" lon="7.241509085648246"><ele>474.3333333333333</ele><time>2026-04-19T12:08:27.002Z</time></trkpt><trkpt lat="44.897556800972296" lon="7.241739355269575"><ele>470.0</ele><time>2026-04-19T12:08:28.002Z</time></trkpt><trkpt lat="44.897541357056824" lon="7.2419581513843605"><ele>470.0</ele><time>2026-04-19T12:08:29.002Z</time></trkpt><trkpt lat="44.89752382988661" lon="7.242160144788407"><ele>470.0</ele><time>2026-04-19T12:08:30.002Z</time></trkpt><trkpt lat="44.897508383032694" lon="7.242341389194135"><ele>470.0</ele><time>2026-04-19T12:08:31.002Z</time></trkpt><trkpt lat="44.89749164533462" lon="7.242522193385505"><ele>470.0</ele><time>2026-04-19T12:08:32.002Z</time></trkpt><trkpt lat="44.89745975775374" lon="7.2426804370538225"><ele>469.5</ele><time>2026-04-19T12:08:33.002Z</time></trkpt><trkpt lat="44.89742124716273" lon="7.242827427375629"><ele>469.0</ele><time>2026-04-19T12:08:34.002Z</time></trkpt><trkpt lat="44.89736683007611" lon="7.242983511731701"><ele>468.5</ele><time>2026-04-19T12:08:35.002Z</time></trkpt><trkpt lat="44.89729891116719" lon="7.243148675977941"><ele>468.0</ele><time>2026-04-19T12:08:36.002Z</time></trkpt><trkpt lat="44.897189372322956" lon="7.243339567841942"><ele>466.33333333333337</ele><time>2026-04-19T12:08:37.002Z</time></trkpt><trkpt lat="44.89709117745587" lon="7.243534554879746"><ele>464.6666666666667</ele><time>2026-04-19T12:08:38.002Z</time></trkpt><trkpt lat="44.89699415638882" lon="7.243728258549246"><ele>463.0</ele><time>2026-04-19T12:08:39.003Z</time></trkpt><trkpt lat="44.89690348249237" lon="7.243928745734065"><ele>462.5</ele><time>2026-04-19T12:08:40.003Z</time></trkpt><trkpt lat="44.89682392372554" lon="7.244126506270013"><ele>462.0</ele><time>2026-04-19T12:08:41.003Z</time></trkpt><trkpt lat="44.89675905021106" lon="7.244310773922885"><ele>461.5</ele><time>2026-04-19T12:08:42.003Z</time></trkpt><trkpt lat="44.89670693529723" lon="7.244489289642446"><ele>461.0</ele><time>2026-04-19T12:08:43.003Z</time></trkpt><trkpt lat="44.8966646253622" lon="7.244637191917788"><ele>460.99999999999994</ele><time>2026-04-19T12:08:44.003Z</time></trkpt><trkpt lat="44.89662650429649" lon="7.24475484796209"><ele>461.0</ele><time>2026-04-19T12:08:45.003Z</time></trkpt><trkpt lat="44.89658499917229" lon="7.244825082234155"><ele>461.0</ele><time>2026-04-19T12:08:46.003Z</time></trkpt><trkpt lat="44.89652889078539" lon="7.244881772987933"><ele>461.0</ele><time>2026-04-19T12:08:47.003Z</time></trkpt><trkpt lat="44.896453214312636" lon="7.244884296573172"><ele>460.99999999999994</ele><time>2026-04-19T12:08:48.003Z</time></trkpt><trkpt lat="44.896349277128316" lon="7.2448269469228785"><ele>461.0</ele><time>2026-04-19T12:08:49.003Z</time></trkpt><trkpt lat="44.8962344147721" lon="7.244779321007017"><ele>461.0</ele><time>2026-04-19T12:08:50.003Z</time></trkpt><trkpt lat="44.8961026664101" lon="7.244737894116062"><ele>461.0</ele><time>2026-04-19T12:08:51.003Z</time></trkpt><trkpt lat="44.89595814057216" lon="7.2446977362105285"><ele>461.0</ele><time>2026-04-19T12:08:52.003Z</time></trkpt><trkpt lat="44.89579873998881" lon="7.244661426645241"><ele>461.0</ele><time>2026-04-19T12:08:53.003Z</time></trkpt><trkpt lat="44.89562690641285" lon="7.244619218172582"><ele>461.0</ele><time>2026-04-19T12:08:54.003Z</time></trkpt><trkpt lat="44.89544862262738" lon="7.244575436947934"><ele>461.0</ele><time>2026-04-19T12:08:55.003Z</time></trkpt><trkpt lat="44.89526714993826" lon="7.244518092722648"><ele>461.0</ele><time>2026-04-19T12:08:56.003Z</time></trkpt><trkpt lat="44.89508634516777" lon="7.244485226912808"><ele>461.0</ele><time>2026-04-19T12:08:57.003Z</time></trkpt><trkpt lat="44.894908863232274" lon="7.244452245945913"><ele>461.0</ele><time>2026-04-19T12:08:58.003Z</time></trkpt><trkpt lat="44.89472611107775" lon="7.244420365399212"><ele>461.0</ele><time>2026-04-19T12:08:59.003Z</time></trkpt><trkpt lat="44.89454452158052" lon="7.244397157503738"><ele>461.0</ele><time>2026-04-19T12:09:00.003Z</time></trkpt><trkpt lat="44.894368708954396" lon="7.2443682577616615"><ele>461.0</ele><time>2026-04-19T12:09:01.003Z</time></trkpt><trkpt lat="44.89418619808626" lon="7.2443451789474445"><ele>461.0</ele><time>2026-04-19T12:09:02.003Z</time></trkpt><trkpt lat="44.89400657909158" lon="7.2443135219615025"><ele>461.66666666666663</ele><time>2026-04-19T12:09:03.003Z</time></trkpt><trkpt lat="44.893834323125645" lon="7.244286263939664"><ele>462.33333333333337</ele><time>2026-04-19T12:09:03.997Z</time></trkpt><trkpt lat="44.893658094069146" lon="7.244253986392241"><ele>463.0</ele><time>2026-04-19T12:09:04.997Z</time></trkpt><trkpt lat="44.8934857704046" lon="7.244220614301204"><ele>462.33333333333337</ele><time>2026-04-19T12:09:05.997Z</time></trkpt><trkpt lat="44.893314630210035" lon="7.2441961801276715"><ele>461.66666666666663</ele><time>2026-04-19T12:09:06.997Z</time></trkpt><trkpt lat="44.89314884414259" lon="7.244186355715773"><ele>461.0</ele><time>2026-04-19T12:09:07.997Z</time></trkpt><trkpt lat="44.89298371533959" lon="7.244199313651516"><ele>461.0</ele><time>2026-04-19T12:09:08.998Z</time></trkpt><trkpt lat="44.89282793147648" lon="7.244195469899635"><ele>461.0</ele><time>2026-04-19T12:09:09.998Z</time></trkpt><trkpt lat="44.8926856259608" lon="7.244222848757524"><ele>461.0</ele><time>2026-04-19T12:09:10.998Z</time></trkpt><trkpt lat="44.892558991909375" lon="7.24425365015568"><ele>461.0</ele><time>2026-04-19T12:09:11.998Z</time></trkpt><trkpt lat="44.89243537858074" lon="7.244298462828637"><ele>459.8</ele><time>2026-04-19T12:09:12.998Z</time></trkpt><trkpt lat="44.89231329708663" lon="7.244304896552272"><ele>458.6</ele><time>2026-04-19T12:09:13.998Z</time></trkpt><trkpt lat="44.89219730853929" lon="7.244298172266645"><ele>457.4</ele><time>2026-04-19T12:09:14.998Z</time></trkpt><trkpt lat="44.89209025806951" lon="7.244282216187563"><ele>456.2</ele><time>2026-04-19T12:09:15.998Z</time></trkpt><trkpt lat="44.89199666787791" lon="7.244291368219348"><ele>455.0</ele><time>2026-04-19T12:09:16.998Z</time></trkpt><trkpt lat="44.89192000168414" lon="7.2443427041529365"><ele>454.99999999999994</ele><time>2026-04-19T12:09:17.998Z</time></trkpt><trkpt lat="44.89186719115112" lon="7.244431796514209"><ele>455.0</ele><time>2026-04-19T12:09:18.999Z</time></trkpt><trkpt lat="44.891844496651395" lon="7.244542099313358"><ele>455.0</ele><time>2026-04-19T12:09:19.999Z</time></trkpt><trkpt lat="44.891851393985135" lon="7.244664155240311"><ele>455.0</ele><time>2026-04-19T12:09:20.999Z</time></trkpt><trkpt lat="44.891892050836105" lon="7.2447958359952915"><ele>454.99999999999994</ele><time>2026-04-19T12:09:21.999Z</time></trkpt><trkpt lat="44.89191781401039" lon="7.244912924953782"><ele>455.0</ele><time>2026-04-19T12:09:22.999Z</time></trkpt><trkpt lat="44.891868500473606" lon="7.245123558419629"><ele>455.0</ele><time>2026-04-19T12:09:24.999Z</time></trkpt><trkpt lat="44.891794927644526" lon="7.245218086136834"><ele>455.0</ele><time>2026-04-19T12:09:25.999Z</time></trkpt><trkpt lat="44.89171145596317" lon="7.245312005241469"><ele>455.0</ele><time>2026-04-19T12:09:26.999Z</time></trkpt><trkpt lat="44.891611746777016" lon="7.245444853973602"><ele>455.0</ele><time>2026-04-19T12:09:27.999Z</time></trkpt><trkpt lat="44.89150783605604" lon="7.24560921647198"><ele>454.3333333333333</ele><time>2026-04-19T12:09:29Z</time></trkpt><trkpt lat="44.891394544675435" lon="7.245804638078413"><ele>453.66666666666663</ele><time>2026-04-19T12:09:30Z</time></trkpt><trkpt lat="44.891284704277304" lon="7.246009193729321"><ele>453.0</ele><time>2026-04-19T12:09:31Z</time></trkpt><trkpt lat="44.89116307495475" lon="7.246236701884557"><ele>452.33333333333337</ele><time>2026-04-19T12:09:32Z</time></trkpt><trkpt lat="44.89103639777323" lon="7.246465549173244"><ele>451.6666666666667</ele><time>2026-04-19T12:09:33Z</time></trkpt><trkpt lat="44.89092595992513" lon="7.246705794924199"><ele>451.0</ele><time>2026-04-19T12:09:34Z</time></trkpt><trkpt lat="44.89082292404666" lon="7.24695579918187"><ele>451.0</ele><time>2026-04-19T12:09:35Z</time></trkpt><trkpt lat="44.89072933290129" lon="7.247212354774408"><ele>451.0</ele><time>2026-04-19T12:09:36Z</time></trkpt><trkpt lat="44.89064726851478" lon="7.247476497592945"><ele>451.0</ele><time>2026-04-19T12:09:37Z</time></trkpt><trkpt lat="44.8905826471452" lon="7.247744668224061"><ele>451.33333333333337</ele><time>2026-04-19T12:09:38Z</time></trkpt><trkpt lat="44.89054198177795" lon="7.248018056858977"><ele>451.66666666666663</ele><time>2026-04-19T12:09:39Z</time></trkpt><trkpt lat="44.89052304031589" lon="7.248301091179948"><ele>452.0</ele><time>2026-04-19T12:09:40Z</time></trkpt><trkpt lat="44.89052696012192" lon="7.248586363973383"><ele>452.0</ele><time>2026-04-19T12:09:41Z</time></trkpt><trkpt lat="44.89054809379218" lon="7.248873028403279"><ele>452.0</ele><time>2026-04-19T12:09:42Z</time></trkpt><trkpt lat="44.890580351626376" lon="7.249161698863198"><ele>452.0</ele><time>2026-04-19T12:09:43Z</time></trkpt><trkpt lat="44.890623422716544" lon="7.2494516225830905"><ele>452.0</ele><time>2026-04-19T12:09:44Z</time></trkpt><trkpt lat="44.89066985518157" lon="7.249742719669217"><ele>452.0</ele><time>2026-04-19T12:09:45.001Z</time></trkpt><trkpt lat="44.890710911472915" lon="7.250035002342527"><ele>452.0</ele><time>2026-04-19T12:09:46.001Z</time></trkpt><trkpt lat="44.8907453163012" lon="7.250322925024906"><ele>452.66666666666663</ele><time>2026-04-19T12:09:47.001Z</time></trkpt><trkpt lat="44.890780074136835" lon="7.250615643673899"><ele>453.33333333333337</ele><time>2026-04-19T12:09:48.001Z</time></trkpt><trkpt lat="44.89081444813706" lon="7.250899998068993"><ele>454.0</ele><time>2026-04-19T12:09:49.001Z</time></trkpt><trkpt lat="44.89084550444185" lon="7.251185287854118"><ele>453.33333333333337</ele><time>2026-04-19T12:09:50.001Z</time></trkpt><trkpt lat="44.89087616862835" lon="7.251469502887855"><ele>452.66666666666663</ele><time>2026-04-19T12:09:51.001Z</time></trkpt><trkpt lat="44.89090869555339" lon="7.251744766736296"><ele>452.0</ele><time>2026-04-19T12:09:52.001Z</time></trkpt><trkpt lat="44.890938109566605" lon="7.252007129911754"><ele>465.3333333333333</ele><time>2026-04-19T12:09:53.001Z</time></trkpt><trkpt lat="44.89096541741486" lon="7.252250419307415"><ele>478.66666666666663</ele><time>2026-04-19T12:09:54.001Z</time></trkpt><trkpt lat="44.890987408426064" lon="7.252476905993971"><ele>492.0</ele><time>2026-04-19T12:09:55.001Z</time></trkpt><trkpt lat="44.89100443734678" lon="7.252698549978484"><ele>492.0</ele><time>2026-04-19T12:09:56.001Z</time></trkpt><trkpt lat="44.89101696169372" lon="7.252908991097223"><ele>492.0</ele><time>2026-04-19T12:09:57.001Z</time></trkpt><trkpt lat="44.891031450191335" lon="7.253103870209315"><ele>492.0</ele><time>2026-04-19T12:09:58.001Z</time></trkpt><trkpt lat="44.89104381232136" lon="7.253308102515849"><ele>492.0</ele><time>2026-04-19T12:09:59.001Z</time></trkpt><trkpt lat="44.89106267291442" lon="7.25353390191958"><ele>489.0</ele><time>2026-04-19T12:10:00.001Z</time></trkpt><trkpt lat="44.89107438486734" lon="7.253789943226731"><ele>486.0</ele><time>2026-04-19T12:10:01.001Z</time></trkpt><trkpt lat="44.89107593450258" lon="7.254043217219266"><ele>483.0</ele><time>2026-04-19T12:10:02.001Z</time></trkpt><trkpt lat="44.8910871069127" lon="7.25430582610566"><ele>483.0</ele><time>2026-04-19T12:10:03.001Z</time></trkpt><trkpt lat="44.89109945770282" lon="7.254547874081491"><ele>483.0</ele><time>2026-04-19T12:10:04.001Z</time></trkpt><trkpt lat="44.891110191474795" lon="7.254771905958411"><ele>483.0</ele><time>2026-04-19T12:10:05.001Z</time></trkpt><trkpt lat="44.891113133748675" lon="7.254999786836209"><ele>483.0</ele><time>2026-04-19T12:10:06.001Z</time></trkpt><trkpt lat="44.89110589110373" lon="7.25523636471464"><ele>483.0</ele><time>2026-04-19T12:10:07.001Z</time></trkpt><trkpt lat="44.89108160759528" lon="7.255489313389746"><ele>483.0</ele><time>2026-04-19T12:10:08.001Z</time></trkpt><trkpt lat="44.89104889846826" lon="7.255737405831331"><ele>485.0</ele><time>2026-04-19T12:10:09.001Z</time></trkpt><trkpt lat="44.891005317044645" lon="7.256028350227042"><ele>487.0</ele><time>2026-04-19T12:10:10.001Z</time></trkpt><trkpt lat="44.89096757625534" lon="7.2563097529521965"><ele>489.0</ele><time>2026-04-19T12:10:11.002Z</time></trkpt><trkpt lat="44.8909373916598" lon="7.256562250621917"><ele>474.66666666666663</ele><time>2026-04-19T12:10:12.002Z</time></trkpt><trkpt lat="44.89090847397371" lon="7.256791389990338"><ele>460.3333333333333</ele><time>2026-04-19T12:10:13.002Z</time></trkpt><trkpt lat="44.890883158306664" lon="7.256991002202588"><ele>446.0</ele><time>2026-04-19T12:10:14.002Z</time></trkpt><trkpt lat="44.890856401971526" lon="7.257209330600763"><ele>444.3333333333333</ele><time>2026-04-19T12:10:15.002Z</time></trkpt><trkpt lat="44.89081020482989" lon="7.257458814423678"><ele>442.66666666666663</ele><time>2026-04-19T12:10:16.002Z</time></trkpt><trkpt lat="44.89077229816515" lon="7.257726089331488"><ele>441.0</ele><time>2026-04-19T12:10:17.002Z</time></trkpt><trkpt lat="44.89074676828921" lon="7.258003737666821"><ele>442.33333333333337</ele><time>2026-04-19T12:10:18.002Z</time></trkpt><trkpt lat="44.890699601095335" lon="7.258273067459972"><ele>443.6666666666667</ele><time>2026-04-19T12:10:19.002Z</time></trkpt><trkpt lat="44.89066360813159" lon="7.25852624529434"><ele>445.0</ele><time>2026-04-19T12:10:20.002Z</time></trkpt><trkpt lat="44.890632021532845" lon="7.258755748732101"><ele>446.0</ele><time>2026-04-19T12:10:21.002Z</time></trkpt><trkpt lat="44.89059732279466" lon="7.258978382233117"><ele>447.0</ele><time>2026-04-19T12:10:22.002Z</time></trkpt><trkpt lat="44.89054909686945" lon="7.259191148383681"><ele>448.0</ele><time>2026-04-19T12:10:23.002Z</time></trkpt><trkpt lat="44.89046397824728" lon="7.259389667493971"><ele>448.0</ele><time>2026-04-19T12:10:24.002Z</time></trkpt><trkpt lat="44.89037281688535" lon="7.259595432471075"><ele>448.0</ele><time>2026-04-19T12:10:25.002Z</time></trkpt><trkpt lat="44.890286520434515" lon="7.259819170760513"><ele>448.0</ele><time>2026-04-19T12:10:26.002Z</time></trkpt><trkpt lat="44.89017474147166" lon="7.260036292565424"><ele>447.33333333333337</ele><time>2026-04-19T12:10:27.002Z</time></trkpt><trkpt lat="44.890064312582" lon="7.260261269730904"><ele>446.66666666666663</ele><time>2026-04-19T12:10:28.002Z</time></trkpt><trkpt lat="44.889955561062614" lon="7.260493970610242"><ele>446.0</ele><time>2026-04-19T12:10:29.002Z</time></trkpt><trkpt lat="44.88984439044696" lon="7.260726962491613"><ele>446.0</ele><time>2026-04-19T12:10:30.002Z</time></trkpt><trkpt lat="44.88974016079555" lon="7.2609553692701825"><ele>446.0</ele><time>2026-04-19T12:10:31.002Z</time></trkpt><trkpt lat="44.88962599193459" lon="7.261192608059842"><ele>446.0</ele><time>2026-04-19T12:10:32.002Z</time></trkpt><trkpt lat="44.889519853278344" lon="7.261420256016944"><ele>441.66666666666663</ele><time>2026-04-19T12:10:33.002Z</time></trkpt><trkpt lat="44.8894200020707" lon="7.261648368081636"><ele>437.33333333333337</ele><time>2026-04-19T12:10:34.002Z</time></trkpt><trkpt lat="44.88931443796465" lon="7.261877832085781"><ele>433.0</ele><time>2026-04-19T12:10:35.002Z</time></trkpt><trkpt lat="44.88921407282258" lon="7.262108213729883"><ele>436.33333333333337</ele><time>2026-04-19T12:10:36.002Z</time></trkpt><trkpt lat="44.88911111544492" lon="7.2623446989816705"><ele>439.66666666666663</ele><time>2026-04-19T12:10:37.002Z</time></trkpt><trkpt lat="44.889008264570904" lon="7.262570041205797"><ele>443.0</ele><time>2026-04-19T12:10:38.002Z</time></trkpt><trkpt lat="44.88891077505952" lon="7.262799719735238"><ele>443.0</ele><time>2026-04-19T12:10:39.002Z</time></trkpt><trkpt lat="44.888802647708395" lon="7.263028251122549"><ele>443.0</ele><time>2026-04-19T12:10:40.002Z</time></trkpt><trkpt lat="44.88870428996645" lon="7.263254224460733"><ele>443.0</ele><time>2026-04-19T12:10:41.002Z</time></trkpt><trkpt lat="44.88859764146649" lon="7.263469101717042"><ele>441.3333333333333</ele><time>2026-04-19T12:10:42.002Z</time></trkpt><trkpt lat="44.88848979101745" lon="7.2636860087607005"><ele>439.66666666666663</ele><time>2026-04-19T12:10:43.003Z</time></trkpt><trkpt lat="44.88838297594114" lon="7.2639021746006165"><ele>438.0</ele><time>2026-04-19T12:10:44.003Z</time></trkpt><trkpt lat="44.88825719354806" lon="7.2640921541204095"><ele>438.0</ele><time>2026-04-19T12:10:45.003Z</time></trkpt><trkpt lat="44.888141422648246" lon="7.2642959095691975"><ele>438.0</ele><time>2026-04-19T12:10:46.003Z</time></trkpt><trkpt lat="44.88803752988085" lon="7.264509749182576"><ele>438.0</ele><time>2026-04-19T12:10:47.003Z</time></trkpt><trkpt lat="44.88794524697165" lon="7.264745203312722"><ele>441.33333333333337</ele><time>2026-04-19T12:10:48.003Z</time></trkpt><trkpt lat="44.887859865492054" lon="7.264986733931622"><ele>444.6666666666667</ele><time>2026-04-19T12:10:49.003Z</time></trkpt><trkpt lat="44.88777662296249" lon="7.265225023688176"><ele>448.0</ele><time>2026-04-19T12:10:50.003Z</time></trkpt><trkpt lat="44.8876963831007" lon="7.265452045237135"><ele>448.6666666666667</ele><time>2026-04-19T12:10:51.003Z</time></trkpt><trkpt lat="44.887643200734935" lon="7.265700634841657"><ele>449.33333333333337</ele><time>2026-04-19T12:10:52.003Z</time></trkpt><trkpt lat="44.88757515776536" lon="7.265914793711044"><ele>450.0</ele><time>2026-04-19T12:10:53.003Z</time></trkpt><trkpt lat="44.88750143236962" lon="7.266131955067068"><ele>444.66666666666663</ele><time>2026-04-19T12:10:54.003Z</time></trkpt><trkpt lat="44.88742493873326" lon="7.26635542030592"><ele>439.3333333333333</ele><time>2026-04-19T12:10:55.003Z</time></trkpt><trkpt lat="44.88731107953278" lon="7.266549628228947"><ele>434.0</ele><time>2026-04-19T12:10:56.003Z</time></trkpt><trkpt lat="44.88722639349279" lon="7.266794553288848"><ele>434.0</ele><time>2026-04-19T12:10:57.003Z</time></trkpt><trkpt lat="44.887152945883706" lon="7.267030560460182"><ele>434.0</ele><time>2026-04-19T12:10:58.003Z</time></trkpt><trkpt lat="44.88711345430841" lon="7.267266175158078"><ele>434.0</ele><time>2026-04-19T12:10:59.003Z</time></trkpt><trkpt lat="44.8870811016273" lon="7.267481566922364"><ele>434.5</ele><time>2026-04-19T12:11:00.003Z</time></trkpt><trkpt lat="44.88706630074198" lon="7.2676765160432355"><ele>435.0</ele><time>2026-04-19T12:11:01.003Z</time></trkpt><trkpt lat="44.88703181259698" lon="7.267838029801697"><ele>435.5</ele><time>2026-04-19T12:11:02.003Z</time></trkpt><trkpt lat="44.887012450516536" lon="7.267998596045268"><ele>436.0</ele><time>2026-04-19T12:11:03.003Z</time></trkpt><trkpt lat="44.886995061267505" lon="7.268144101561552"><ele>436.25</ele><time>2026-04-19T12:11:04.003Z</time></trkpt><trkpt lat="44.88697604137218" lon="7.268304526757846"><ele>436.5</ele><time>2026-04-19T12:11:05.003Z</time></trkpt><trkpt lat="44.886956002534895" lon="7.2684845768173005"><ele>436.75</ele><time>2026-04-19T12:11:06.003Z</time></trkpt><trkpt lat="44.88693571534576" lon="7.268670775748301"><ele>437.0</ele><time>2026-04-19T12:11:07.003Z</time></trkpt><trkpt lat="44.886916933366194" lon="7.268839798800025"><ele>437.75</ele><time>2026-04-19T12:11:08.003Z</time></trkpt><trkpt lat="44.88689838387032" lon="7.2689976509562975"><ele>438.5</ele><time>2026-04-19T12:11:09.003Z</time></trkpt><trkpt lat="44.88689336806858" lon="7.269176656455965"><ele>439.25</ele><time>2026-04-19T12:11:09.997Z</time></trkpt><trkpt lat="44.8868675103355" lon="7.269352094350533"><ele>440.0</ele><time>2026-04-19T12:11:10.997Z</time></trkpt><trkpt lat="44.88684794635591" lon="7.269526910545503"><ele>440.0</ele><time>2026-04-19T12:11:11.998Z</time></trkpt><trkpt lat="44.88682871324486" lon="7.269705524702063"><ele>440.0</ele><time>2026-04-19T12:11:12.998Z</time></trkpt><trkpt lat="44.886804974621334" lon="7.269895454849158"><ele>440.0</ele><time>2026-04-19T12:11:13.998Z</time></trkpt><trkpt lat="44.88677819076431" lon="7.270108497213221"><ele>440.0</ele><time>2026-04-19T12:11:14.998Z</time></trkpt><trkpt lat="44.886740164313544" lon="7.2703418552331645"><ele>436.3333333333333</ele><time>2026-04-19T12:11:15.998Z</time></trkpt><trkpt lat="44.88671437765628" lon="7.2705785958689395"><ele>432.66666666666663</ele><time>2026-04-19T12:11:16.998Z</time></trkpt><trkpt lat="44.88669727977704" lon="7.270825819251506"><ele>429.0</ele><time>2026-04-19T12:11:17.998Z</time></trkpt><trkpt lat="44.88666259392867" lon="7.271058333708807"><ele>428.25</ele><time>2026-04-19T12:11:18.998Z</time></trkpt><trkpt lat="44.886631155106606" lon="7.2712519612686455"><ele>427.5</ele><time>2026-04-19T12:11:19.998Z</time></trkpt><trkpt lat="44.88660084145503" lon="7.271448020455443"><ele>426.75</ele><time>2026-04-19T12:11:20.999Z</time></trkpt><trkpt lat="44.88658801266753" lon="7.271674225456859"><ele>426.0</ele><time>2026-04-19T12:11:21.999Z</time></trkpt><trkpt lat="44.886580505495" lon="7.2719169120385825"><ele>426.0</ele><time>2026-04-19T12:11:22.999Z</time></trkpt><trkpt lat="44.88658880757586" lon="7.272180458578449"><ele>426.0</ele><time>2026-04-19T12:11:23.999Z</time></trkpt><trkpt lat="44.886611622540535" lon="7.272448391717177"><ele>426.0</ele><time>2026-04-19T12:11:24.999Z</time></trkpt><trkpt lat="44.88664417034403" lon="7.272722169162897"><ele>426.33333333333337</ele><time>2026-04-19T12:11:25.999Z</time></trkpt><trkpt lat="44.88667437296883" lon="7.272996345124"><ele>426.6666666666667</ele><time>2026-04-19T12:11:26.999Z</time></trkpt><trkpt lat="44.88670133645839" lon="7.273269416782944"><ele>427.0</ele><time>2026-04-19T12:11:27.999Z</time></trkpt><trkpt lat="44.88672760423099" lon="7.2735390120809535"><ele>426.0</ele><time>2026-04-19T12:11:28.999Z</time></trkpt><trkpt lat="44.886751825109215" lon="7.273806965537564"><ele>425.0</ele><time>2026-04-19T12:11:29.999Z</time></trkpt><trkpt lat="44.88677498559685" lon="7.274073518627547"><ele>424.0</ele><time>2026-04-19T12:11:30.999Z</time></trkpt><trkpt lat="44.88679961641715" lon="7.27433606032037"><ele>431.33333333333337</ele><time>2026-04-19T12:11:31.999Z</time></trkpt><trkpt lat="44.88682270206176" lon="7.274602393926155"><ele>438.66666666666663</ele><time>2026-04-19T12:11:33Z</time></trkpt><trkpt lat="44.886832121712146" lon="7.274866533766319"><ele>446.0</ele><time>2026-04-19T12:11:34Z</time></trkpt><trkpt lat="44.88681894136657" lon="7.27512362462329"><ele>446.0</ele><time>2026-04-19T12:11:35Z</time></trkpt><trkpt lat="44.8867884060077" lon="7.2753880829702045"><ele>446.0</ele><time>2026-04-19T12:11:36Z</time></trkpt><trkpt lat="44.88674952502465" lon="7.275653892491667"><ele>446.0</ele><time>2026-04-19T12:11:37Z</time></trkpt><trkpt lat="44.88670898841458" lon="7.275917532401566"><ele>437.3333333333333</ele><time>2026-04-19T12:11:38Z</time></trkpt><trkpt lat="44.88667414597972" lon="7.276186827195617"><ele>428.66666666666663</ele><time>2026-04-19T12:11:39Z</time></trkpt><trkpt lat="44.88663499989158" lon="7.276456035599939"><ele>420.0</ele><time>2026-04-19T12:11:40Z</time></trkpt><trkpt lat="44.886596505952106" lon="7.276723989470117"><ele>420.0</ele><time>2026-04-19T12:11:41Z</time></trkpt><trkpt lat="44.88655157306668" lon="7.276988427759105"><ele>420.0</ele><time>2026-04-19T12:11:42Z</time></trkpt><trkpt lat="44.88651294859283" lon="7.277224379144805"><ele>420.0</ele><time>2026-04-19T12:11:43Z</time></trkpt><trkpt lat="44.88648938080397" lon="7.277417432452331"><ele>420.6</ele><time>2026-04-19T12:11:44Z</time></trkpt><trkpt lat="44.886471224119845" lon="7.277557797201424"><ele>421.2</ele><time>2026-04-19T12:11:45Z</time></trkpt><trkpt lat="44.886459161641625" lon="7.277651709888614"><ele>421.79999999999995</ele><time>2026-04-19T12:11:46Z</time></trkpt><trkpt lat="44.88646920368247" lon="7.277772912714045"><ele>422.4</ele><time>2026-04-19T12:11:51.001Z</time></trkpt><trkpt lat="44.886569978550334" lon="7.2777170210466195"><ele>423.0</ele><time>2026-04-19T12:11:53.001Z</time></trkpt><trkpt lat="44.886603584570494" lon="7.277522015000581"><ele>423.0</ele><time>2026-04-19T12:11:55.001Z</time></trkpt><trkpt lat="44.8866176054036" lon="7.277428090855303"><ele>423.0</ele><time>2026-04-19T12:11:57.001Z</time></trkpt><trkpt lat="44.886712741903814" lon="7.277409654166506"><ele>423.0</ele><time>2026-04-19T12:11:58.001Z</time></trkpt><trkpt lat="44.88672413152028" lon="7.277300761772745"><ele>423.0</ele><time>2026-04-19T12:18:10Z</time></trkpt><trkpt lat="44.886651599985385" lon="7.277292027761378"><ele>423.0</ele><time>2026-04-19T12:18:17.001Z</time></trkpt><trkpt lat="44.88660918466285" lon="7.277214780349855"><ele>423.0</ele><time>2026-04-19T12:18:22.001Z</time></trkpt><trkpt lat="44.88654181626646" lon="7.277231313015001"><ele>423.0</ele><time>2026-04-19T12:18:37.001Z</time></trkpt><trkpt lat="44.88648784786968" lon="7.2774014210899045"><ele>423.0</ele><time>2026-04-19T12:18:39.001Z</time></trkpt><trkpt lat="44.8864630576323" lon="7.2775370175227545"><ele>423.0</ele><time>2026-04-19T12:18:40.001Z</time></trkpt><trkpt lat="44.8864370445235" lon="7.2777048042541965"><ele>423.0</ele><time>2026-04-19T12:18:41.001Z</time></trkpt><trkpt lat="44.886404281453906" lon="7.277900928710095"><ele>422.66666666666663</ele><time>2026-04-19T12:18:42.001Z</time></trkpt><trkpt lat="44.88637513501318" lon="7.2781135523491765"><ele>422.3333333333333</ele><time>2026-04-19T12:18:43.001Z</time></trkpt><trkpt lat="44.88634014010149" lon="7.2783407775990465"><ele>422.0</ele><time>2026-04-19T12:18:44.001Z</time></trkpt><trkpt lat="44.88630803268894" lon="7.278579222549822"><ele>422.0</ele><time>2026-04-19T12:18:45.001Z</time></trkpt><trkpt lat="44.88626986544347" lon="7.278821225591268"><ele>422.0</ele><time>2026-04-19T12:18:46.001Z</time></trkpt><trkpt lat="44.88623155802339" lon="7.279071790427864"><ele>422.0</ele><time>2026-04-19T12:18:47.001Z</time></trkpt><trkpt lat="44.886192912857084" lon="7.279329199038641"><ele>422.0</ele><time>2026-04-19T12:18:48.001Z</time></trkpt><trkpt lat="44.88615060971088" lon="7.27958169198238"><ele>422.0</ele><time>2026-04-19T12:18:49.001Z</time></trkpt><trkpt lat="44.886109876858285" lon="7.279849543115408"><ele>422.0</ele><time>2026-04-19T12:18:50.001Z</time></trkpt><trkpt lat="44.88606795785043" lon="7.280122550419242"><ele>422.0</ele><time>2026-04-19T12:18:51.001Z</time></trkpt><trkpt lat="44.886015314952004" lon="7.2803846052842625"><ele>422.0</ele><time>2026-04-19T12:18:52.001Z</time></trkpt><trkpt lat="44.88593988023765" lon="7.280653739277623"><ele>422.0</ele><time>2026-04-19T12:18:53.001Z</time></trkpt><trkpt lat="44.885876739602274" lon="7.280913103068666"><ele>418.3333333333333</ele><time>2026-04-19T12:18:54.001Z</time></trkpt><trkpt lat="44.88581098095199" lon="7.2811753480308585"><ele>414.66666666666663</ele><time>2026-04-19T12:18:55.001Z</time></trkpt><trkpt lat="44.88574281073585" lon="7.2814366137511435"><ele>411.0</ele><time>2026-04-19T12:18:56.001Z</time></trkpt><trkpt lat="44.88567762268824" lon="7.281697693580487"><ele>411.0</ele><time>2026-04-19T12:18:57.001Z</time></trkpt><trkpt lat="44.88561386119527" lon="7.281956761682908"><ele>411.0</ele><time>2026-04-19T12:18:58.001Z</time></trkpt><trkpt lat="44.88554979118683" lon="7.2822124882415995"><ele>411.0</ele><time>2026-04-19T12:18:59.001Z</time></trkpt><trkpt lat="44.88549927613747" lon="7.282468667775506"><ele>411.0</ele><time>2026-04-19T12:19:00.001Z</time></trkpt><trkpt lat="44.88546081228434" lon="7.282728137443189"><ele>411.0</ele><time>2026-04-19T12:19:01.001Z</time></trkpt><trkpt lat="44.88543708079785" lon="7.28297778356715"><ele>411.0</ele><time>2026-04-19T12:19:02.001Z</time></trkpt><trkpt lat="44.88542416247707" lon="7.2832488633614725"><ele>411.0</ele><time>2026-04-19T12:19:03.001Z</time></trkpt><trkpt lat="44.88540784251877" lon="7.283510832962067"><ele>411.0</ele><time>2026-04-19T12:19:04.001Z</time></trkpt><trkpt lat="44.88539527014591" lon="7.283775108803626"><ele>411.0</ele><time>2026-04-19T12:19:05.001Z</time></trkpt><trkpt lat="44.88537861542782" lon="7.284020222080631"><ele>411.33333333333337</ele><time>2026-04-19T12:19:06.002Z</time></trkpt><trkpt lat="44.88536451488778" lon="7.284257010733521"><ele>411.6666666666667</ele><time>2026-04-19T12:19:07.002Z</time></trkpt><trkpt lat="44.88535180694671" lon="7.284476785911562"><ele>412.0</ele><time>2026-04-19T12:19:08.002Z</time></trkpt><trkpt lat="44.885342266529335" lon="7.28469423021514"><ele>410.6666666666667</ele><time>2026-04-19T12:19:09.002Z</time></trkpt><trkpt lat="44.88532915494658" lon="7.284906654846703"><ele>409.33333333333337</ele><time>2026-04-19T12:19:10.002Z</time></trkpt><trkpt lat="44.88531767662887" lon="7.285127989971553"><ele>408.0</ele><time>2026-04-19T12:19:11.002Z</time></trkpt><trkpt lat="44.88530202131309" lon="7.285340140256046"><ele>408.0</ele><time>2026-04-19T12:19:12.002Z</time></trkpt><trkpt lat="44.88529351360398" lon="7.28557032804662"><ele>408.0</ele><time>2026-04-19T12:19:13.002Z</time></trkpt><trkpt lat="44.88529427702311" lon="7.285824032977449"><ele>408.0</ele><time>2026-04-19T12:19:14.002Z</time></trkpt><trkpt lat="44.88527685898294" lon="7.286086423255131"><ele>408.66666666666663</ele><time>2026-04-19T12:19:15.002Z</time></trkpt><trkpt lat="44.88528648578274" lon="7.286352818749351"><ele>409.3333333333333</ele><time>2026-04-19T12:19:16.002Z</time></trkpt><trkpt lat="44.88532399110562" lon="7.2866159834461"><ele>410.0</ele><time>2026-04-19T12:19:17.002Z</time></trkpt><trkpt lat="44.88534418990178" lon="7.2868720241272795"><ele>410.66666666666663</ele><time>2026-04-19T12:19:18.002Z</time></trkpt><trkpt lat="44.88536957154056" lon="7.287102381895528"><ele>411.33333333333337</ele><time>2026-04-19T12:19:19.002Z</time></trkpt><trkpt lat="44.88539283822044" lon="7.287317683463149"><ele>412.0</ele><time>2026-04-19T12:19:20.002Z</time></trkpt><trkpt lat="44.8854147584709" lon="7.287502669263338"><ele>412.0</ele><time>2026-04-19T12:19:21.002Z</time></trkpt><trkpt lat="44.885426198295846" lon="7.287670883807906"><ele>412.0</ele><time>2026-04-19T12:19:22.002Z</time></trkpt><trkpt lat="44.88542751750551" lon="7.287821087296597"><ele>412.0</ele><time>2026-04-19T12:19:23.002Z</time></trkpt><trkpt lat="44.88542455265258" lon="7.287962435495614"><ele>412.0</ele><time>2026-04-19T12:19:24.002Z</time></trkpt><trkpt lat="44.88537313245722" lon="7.288082848972589"><ele>412.0</ele><time>2026-04-19T12:19:25.002Z</time></trkpt><trkpt lat="44.88534487991292" lon="7.2881931544601875"><ele>412.0</ele><time>2026-04-19T12:19:26.002Z</time></trkpt><trkpt lat="44.88534175758527" lon="7.288306915695171"><ele>412.0</ele><time>2026-04-19T12:19:27.002Z</time></trkpt><trkpt lat="44.88538283725589" lon="7.28844557969287"><ele>412.0</ele><time>2026-04-19T12:19:28.002Z</time></trkpt><trkpt lat="44.88540629284027" lon="7.288605959477116"><ele>412.0</ele><time>2026-04-19T12:19:29.002Z</time></trkpt><trkpt lat="44.885416708649586" lon="7.288787952165624"><ele>412.0</ele><time>2026-04-19T12:19:30.002Z</time></trkpt><trkpt lat="44.88541431678895" lon="7.288980911558099"><ele>411.0</ele><time>2026-04-19T12:19:31.002Z</time></trkpt><trkpt lat="44.88540345071209" lon="7.289187007473764"><ele>410.0</ele><time>2026-04-19T12:19:32.002Z</time></trkpt><trkpt lat="44.88538886023825" lon="7.28940634084018"><ele>409.0</ele><time>2026-04-19T12:19:33.002Z</time></trkpt><trkpt lat="44.88537583105551" lon="7.28963542147854"><ele>409.33333333333337</ele><time>2026-04-19T12:19:33.997Z</time></trkpt><trkpt lat="44.88536298241777" lon="7.289872038496307"><ele>409.66666666666663</ele><time>2026-04-19T12:19:34.997Z</time></trkpt><trkpt lat="44.88534810702736" lon="7.290111618720871"><ele>410.0</ele><time>2026-04-19T12:19:35.997Z</time></trkpt><trkpt lat="44.885334281626605" lon="7.290359290675579"><ele>409.3333333333333</ele><time>2026-04-19T12:19:36.997Z</time></trkpt><trkpt lat="44.88531993047257" lon="7.290605036505653"><ele>408.66666666666663</ele><time>2026-04-19T12:19:37.997Z</time></trkpt><trkpt lat="44.88530524961539" lon="7.290860665570923"><ele>408.0</ele><time>2026-04-19T12:19:38.997Z</time></trkpt><trkpt lat="44.885291066629996" lon="7.291120196504154"><ele>408.0</ele><time>2026-04-19T12:19:39.997Z</time></trkpt><trkpt lat="44.885275084268336" lon="7.291376558595644"><ele>408.0</ele><time>2026-04-19T12:19:40.997Z</time></trkpt><trkpt lat="44.88526221259226" lon="7.291636264114504"><ele>408.0</ele><time>2026-04-19T12:19:41.997Z</time></trkpt><trkpt lat="44.88525058185618" lon="7.291883960883118"><ele>407.66666666666663</ele><time>2026-04-19T12:19:42.997Z</time></trkpt><trkpt lat="44.885237117519445" lon="7.292147134737103"><ele>407.3333333333333</ele><time>2026-04-19T12:19:43.997Z</time></trkpt><trkpt lat="44.88523813880183" lon="7.292409190880799"><ele>407.0</ele><time>2026-04-19T12:19:44.997Z</time></trkpt><trkpt lat="44.88525919240478" lon="7.29266667345306"><ele>407.0</ele><time>2026-04-19T12:19:45.998Z</time></trkpt><trkpt lat="44.885288050354696" lon="7.292924673416966"><ele>407.0</ele><time>2026-04-19T12:19:46.998Z</time></trkpt><trkpt lat="44.8853273800478" lon="7.293180837690969"><ele>407.0</ele><time>2026-04-19T12:19:47.998Z</time></trkpt><trkpt lat="44.885377279712785" lon="7.293434315907331"><ele>407.3333333333333</ele><time>2026-04-19T12:19:48.998Z</time></trkpt><trkpt lat="44.88542788089653" lon="7.293690729621667"><ele>407.66666666666663</ele><time>2026-04-19T12:19:49.998Z</time></trkpt><trkpt lat="44.88547332163484" lon="7.293939853590705"><ele>408.0</ele><time>2026-04-19T12:19:50.998Z</time></trkpt><trkpt lat="44.88552023317915" lon="7.294187833841083"><ele>408.33333333333337</ele><time>2026-04-19T12:19:51.998Z</time></trkpt><trkpt lat="44.88556440746466" lon="7.294430311206025"><ele>408.6666666666667</ele><time>2026-04-19T12:19:52.998Z</time></trkpt><trkpt lat="44.885600367534856" lon="7.294681433022178"><ele>409.0</ele><time>2026-04-19T12:19:53.998Z</time></trkpt><trkpt lat="44.88562771817974" lon="7.294926095519441"><ele>408.0</ele><time>2026-04-19T12:19:54.998Z</time></trkpt><trkpt lat="44.885634908788724" lon="7.295156428712997"><ele>407.0</ele><time>2026-04-19T12:19:55.998Z</time></trkpt><trkpt lat="44.885632704683665" lon="7.2953711485084565"><ele>406.0</ele><time>2026-04-19T12:19:56.999Z</time></trkpt><trkpt lat="44.88562170729243" lon="7.2955646288510385"><ele>406.0</ele><time>2026-04-19T12:19:57.999Z</time></trkpt><trkpt lat="44.885602655416825" lon="7.295753994099553"><ele>406.0</ele><time>2026-04-19T12:19:58.999Z</time></trkpt><trkpt lat="44.88556688812307" lon="7.295928079865637"><ele>406.0</ele><time>2026-04-19T12:19:59.999Z</time></trkpt><trkpt lat="44.885513013702806" lon="7.296087701730096"><ele>406.0</ele><time>2026-04-19T12:20:00.999Z</time></trkpt><trkpt lat="44.885431579067834" lon="7.2962518902308835"><ele>406.0</ele><time>2026-04-19T12:20:01.999Z</time></trkpt><trkpt lat="44.88533616478093" lon="7.296411950451917"><ele>406.0</ele><time>2026-04-19T12:20:02.999Z</time></trkpt><trkpt lat="44.885239324687724" lon="7.2965832985540535"><ele>406.0</ele><time>2026-04-19T12:20:03.999Z</time></trkpt><trkpt lat="44.885144107563946" lon="7.296757554914432"><ele>405.33333333333337</ele><time>2026-04-19T12:20:04.999Z</time></trkpt><trkpt lat="44.88504961797074" lon="7.296937982522699"><ele>404.66666666666663</ele><time>2026-04-19T12:20:05.999Z</time></trkpt><trkpt lat="44.884953983961445" lon="7.297128804287631"><ele>404.0</ele><time>2026-04-19T12:20:06.999Z</time></trkpt><trkpt lat="44.88486574244751" lon="7.297308014903294"><ele>404.0</ele><time>2026-04-19T12:20:07.999Z</time></trkpt><trkpt lat="44.884780358987754" lon="7.29746384465553"><ele>404.0</ele><time>2026-04-19T12:20:08.999Z</time></trkpt><trkpt lat="44.88470531526362" lon="7.297623553113163"><ele>404.0</ele><time>2026-04-19T12:20:09.999Z</time></trkpt><trkpt lat="44.88463764751605" lon="7.297783101431619"><ele>404.0</ele><time>2026-04-19T12:20:10.999Z</time></trkpt><trkpt lat="44.88457182745841" lon="7.297951028618366"><ele>404.5</ele><time>2026-04-19T12:20:11.999Z</time></trkpt><trkpt lat="44.88453635644221" lon="7.298128954480179"><ele>405.0</ele><time>2026-04-19T12:20:12.999Z</time></trkpt><trkpt lat="44.88456823299269" lon="7.2983302596435005"><ele>405.5</ele><time>2026-04-19T12:20:14Z</time></trkpt><trkpt lat="44.88452990626535" lon="7.298553213287077"><ele>406.0</ele><time>2026-04-19T12:20:15Z</time></trkpt><trkpt lat="44.8845247582591" lon="7.298788347181558"><ele>405.33333333333337</ele><time>2026-04-19T12:20:16Z</time></trkpt><trkpt lat="44.884511909119425" lon="7.299036278099842"><ele>404.66666666666663</ele><time>2026-04-19T12:20:17Z</time></trkpt><trkpt lat="44.88449847355088" lon="7.299278970020286"><ele>404.0</ele><time>2026-04-19T12:20:18Z</time></trkpt><trkpt lat="44.88448477666734" lon="7.299541398468162"><ele>404.0</ele><time>2026-04-19T12:20:19Z</time></trkpt><trkpt lat="44.884471129898515" lon="7.2998061543064585"><ele>404.0</ele><time>2026-04-19T12:20:20Z</time></trkpt><trkpt lat="44.884451869334285" lon="7.300074142411587"><ele>404.0</ele><time>2026-04-19T12:20:21Z</time></trkpt><trkpt lat="44.88443710657396" lon="7.300343879331886"><ele>404.0</ele><time>2026-04-19T12:20:22Z</time></trkpt><trkpt lat="44.88441607669461" lon="7.300613825705246"><ele>404.0</ele><time>2026-04-19T12:20:23Z</time></trkpt><trkpt lat="44.884392063299536" lon="7.300885701681113"><ele>404.0</ele><time>2026-04-19T12:20:24Z</time></trkpt><trkpt lat="44.88436937619989" lon="7.301149392496197"><ele>404.0</ele><time>2026-04-19T12:20:25Z</time></trkpt><trkpt lat="44.88434383368894" lon="7.301414264489261"><ele>404.0</ele><time>2026-04-19T12:20:26Z</time></trkpt><trkpt lat="44.88431919182041" lon="7.301681176680932"><ele>404.0</ele><time>2026-04-19T12:20:27Z</time></trkpt><trkpt lat="44.88428986434601" lon="7.301921123608552"><ele>402.3333333333333</ele><time>2026-04-19T12:20:28Z</time></trkpt><trkpt lat="44.88426280660289" lon="7.302145962019141"><ele>400.66666666666663</ele><time>2026-04-19T12:20:29Z</time></trkpt><trkpt lat="44.884235991112476" lon="7.30234848037292"><ele>399.0</ele><time>2026-04-19T12:20:30Z</time></trkpt><trkpt lat="44.88420815545367" lon="7.3025459329508715"><ele>398.75</ele><time>2026-04-19T12:20:31Z</time></trkpt><trkpt lat="44.8841702353594" lon="7.302729965509137"><ele>398.5</ele><time>2026-04-19T12:20:32Z</time></trkpt><trkpt lat="44.88412893449889" lon="7.302899026620876"><ele>398.25</ele><time>2026-04-19T12:20:33Z</time></trkpt><trkpt lat="44.88410091993848" lon="7.303083714858751"><ele>398.0</ele><time>2026-04-19T12:20:34Z</time></trkpt><trkpt lat="44.884090724829996" lon="7.303290104293821"><ele>397.66666666666663</ele><time>2026-04-19T12:20:35Z</time></trkpt><trkpt lat="44.88408843847759" lon="7.303508446426668"><ele>397.33333333333337</ele><time>2026-04-19T12:20:36Z</time></trkpt><trkpt lat="44.884087535261095" lon="7.303733295490872"><ele>397.0</ele><time>2026-04-19T12:20:37Z</time></trkpt><trkpt lat="44.88408216736745" lon="7.303966982797693"><ele>396.6666666666667</ele><time>2026-04-19T12:20:38Z</time></trkpt><trkpt lat="44.88407468058588" lon="7.3042166675240825"><ele>396.33333333333337</ele><time>2026-04-19T12:20:39Z</time></trkpt><trkpt lat="44.88406789083247" lon="7.304465827754279"><ele>396.0</ele><time>2026-04-19T12:20:40Z</time></trkpt><trkpt lat="44.88406622177143" lon="7.304723751955474"><ele>396.0</ele><time>2026-04-19T12:20:41Z</time></trkpt><trkpt lat="44.88406820348895" lon="7.304981039675005"><ele>396.0</ele><time>2026-04-19T12:20:42.001Z</time></trkpt><trkpt lat="44.88407132911378" lon="7.305242099547169"><ele>396.0</ele><time>2026-04-19T12:20:43.001Z</time></trkpt><trkpt lat="44.884076762105195" lon="7.305469505036497"><ele>396.0</ele><time>2026-04-19T12:20:44.001Z</time></trkpt><trkpt lat="44.88407935209116" lon="7.305669061994344"><ele>396.0</ele><time>2026-04-19T12:20:45.001Z</time></trkpt><trkpt lat="44.88406346563175" lon="7.3058645463056955"><ele>396.0</ele><time>2026-04-19T12:20:46.001Z</time></trkpt><trkpt lat="44.88402547313961" lon="7.305969969821321"><ele>396.0</ele><time>2026-04-19T12:20:47.001Z</time></trkpt><trkpt lat="44.88399694158895" lon="7.306084140946386"><ele>396.0</ele><time>2026-04-19T12:20:48.001Z</time></trkpt><trkpt lat="44.88400745464492" lon="7.30617473312662"><ele>396.0</ele><time>2026-04-19T12:20:49.001Z</time></trkpt><trkpt lat="44.884070475136824" lon="7.306237778010479"><ele>396.0</ele><time>2026-04-19T12:20:50.001Z</time></trkpt><trkpt lat="44.88414209652857" lon="7.306299141560581"><ele>396.0</ele><time>2026-04-19T12:20:51.001Z</time></trkpt><trkpt lat="44.88419536198071" lon="7.306423940352757"><ele>396.0</ele><time>2026-04-19T12:20:52.001Z</time></trkpt><trkpt lat="44.88421749360542" lon="7.306591471960282"><ele>396.0</ele><time>2026-04-19T12:20:53.001Z</time></trkpt><trkpt lat="44.884214993214734" lon="7.306777554416887"><ele>396.0</ele><time>2026-04-19T12:20:54.001Z</time></trkpt><trkpt lat="44.884212789364" lon="7.306974988862042"><ele>396.0</ele><time>2026-04-19T12:20:55.001Z</time></trkpt><trkpt lat="44.88422437419173" lon="7.307192593238984"><ele>396.0</ele><time>2026-04-19T12:20:56.001Z</time></trkpt><trkpt lat="44.88422128777749" lon="7.307405206824823"><ele>395.33333333333337</ele><time>2026-04-19T12:20:57.001Z</time></trkpt><trkpt lat="44.88423214062334" lon="7.307663807081935"><ele>394.6666666666667</ele><time>2026-04-19T12:20:58.001Z</time></trkpt><trkpt lat="44.884242948337665" lon="7.307911025829425"><ele>394.0</ele><time>2026-04-19T12:20:59.001Z</time></trkpt><trkpt lat="44.884249451914506" lon="7.308166789678892"><ele>394.0</ele><time>2026-04-19T12:21:00.001Z</time></trkpt><trkpt lat="44.88425845975178" lon="7.308433899666184"><ele>394.0</ele><time>2026-04-19T12:21:01.001Z</time></trkpt><trkpt lat="44.88428107106232" lon="7.308688525083524"><ele>394.0</ele><time>2026-04-19T12:21:02.001Z</time></trkpt><trkpt lat="44.88431000128487" lon="7.308954001597787"><ele>393.33333333333337</ele><time>2026-04-19T12:21:03.001Z</time></trkpt><trkpt lat="44.88434745412317" lon="7.309212174268618"><ele>392.66666666666663</ele><time>2026-04-19T12:21:04.001Z</time></trkpt><trkpt lat="44.884406056851034" lon="7.309469358341094"><ele>392.0</ele><time>2026-04-19T12:21:05.001Z</time></trkpt><trkpt lat="44.88449026370723" lon="7.309719832218415"><ele>392.3333333333333</ele><time>2026-04-19T12:21:06.001Z</time></trkpt><trkpt lat="44.884575602541176" lon="7.309962616073843"><ele>392.66666666666663</ele><time>2026-04-19T12:21:07.001Z</time></trkpt><trkpt lat="44.88467220446055" lon="7.31019420411948"><ele>393.0</ele><time>2026-04-19T12:21:08.001Z</time></trkpt><trkpt lat="44.88476917001896" lon="7.310415033584916"><ele>392.66666666666663</ele><time>2026-04-19T12:21:09.001Z</time></trkpt><trkpt lat="44.884870777806675" lon="7.3106368526872725"><ele>392.3333333333333</ele><time>2026-04-19T12:21:10.001Z</time></trkpt><trkpt lat="44.88497382080443" lon="7.310852651246103"><ele>392.0</ele><time>2026-04-19T12:21:11.001Z</time></trkpt><trkpt lat="44.885079703855645" lon="7.31105886857874"><ele>392.0</ele><time>2026-04-19T12:21:12.001Z</time></trkpt><trkpt lat="44.885180478696356" lon="7.311247839318081"><ele>392.0</ele><time>2026-04-19T12:21:13.001Z</time></trkpt><trkpt lat="44.885272803897195" lon="7.311430358030617"><ele>392.0</ele><time>2026-04-19T12:21:14.001Z</time></trkpt><trkpt lat="44.88538243210752" lon="7.311582766713435"><ele>392.0</ele><time>2026-04-19T12:21:15.001Z</time></trkpt><trkpt lat="44.88547070146603" lon="7.31172821130949"><ele>392.0</ele><time>2026-04-19T12:21:16.002Z</time></trkpt><trkpt lat="44.88555693958512" lon="7.311855452345395"><ele>392.0</ele><time>2026-04-19T12:21:17.002Z</time></trkpt><trkpt lat="44.88563451937739" lon="7.311997581541454"><ele>392.0</ele><time>2026-04-19T12:21:18.002Z</time></trkpt><trkpt lat="44.885693284641874" lon="7.312144796047245"><ele>391.5</ele><time>2026-04-19T12:21:19.002Z</time></trkpt><trkpt lat="44.88576867886532" lon="7.312252161746926"><ele>391.0</ele><time>2026-04-19T12:21:20.002Z</time></trkpt><trkpt lat="44.88571029445435" lon="7.312467073988176"><ele>390.5</ele><time>2026-04-19T12:21:21.002Z</time></trkpt><trkpt lat="44.88568992731457" lon="7.312655835598321"><ele>390.0</ele><time>2026-04-19T12:21:22.002Z</time></trkpt><trkpt lat="44.885674127591685" lon="7.312857361906901"><ele>390.0</ele><time>2026-04-19T12:21:23.002Z</time></trkpt><trkpt lat="44.885666328212636" lon="7.3130829416261545"><ele>390.0</ele><time>2026-04-19T12:21:24.002Z</time></trkpt><trkpt lat="44.88566083163747" lon="7.3133081557493025"><ele>390.0</ele><time>2026-04-19T12:21:25.002Z</time></trkpt><trkpt lat="44.885649238653514" lon="7.313542352585933"><ele>390.0</ele><time>2026-04-19T12:21:26.002Z</time></trkpt><trkpt lat="44.885641258327944" lon="7.313774782966117"><ele>390.0</ele><time>2026-04-19T12:21:27.002Z</time></trkpt><trkpt lat="44.885636700885726" lon="7.314024626180691"><ele>390.0</ele><time>2026-04-19T12:21:28.002Z</time></trkpt><trkpt lat="44.88563113681874" lon="7.314261942770486"><ele>389.66666666666663</ele><time>2026-04-19T12:21:29.002Z</time></trkpt><trkpt lat="44.88563284969448" lon="7.314516810967743"><ele>389.3333333333333</ele><time>2026-04-19T12:21:30.002Z</time></trkpt><trkpt lat="44.88563000402181" lon="7.3147696636262705"><ele>389.0</ele><time>2026-04-19T12:21:31.002Z</time></trkpt><trkpt lat="44.88562932474386" lon="7.315031683967596"><ele>388.66666666666663</ele><time>2026-04-19T12:21:32.002Z</time></trkpt><trkpt lat="44.885625778369594" lon="7.315293350334115"><ele>388.33333333333337</ele><time>2026-04-19T12:21:33.002Z</time></trkpt><trkpt lat="44.885621699979396" lon="7.315555540061387"><ele>388.0</ele><time>2026-04-19T12:21:34.002Z</time></trkpt><trkpt lat="44.88562672514054" lon="7.315802790501775"><ele>388.0</ele><time>2026-04-19T12:21:35.002Z</time></trkpt><trkpt lat="44.88562063720269" lon="7.316066837993317"><ele>388.0</ele><time>2026-04-19T12:21:36.002Z</time></trkpt><trkpt lat="44.8856111517792" lon="7.316303512363918"><ele>388.0</ele><time>2026-04-19T12:21:37.002Z</time></trkpt><trkpt lat="44.885604080600146" lon="7.316526112115406"><ele>388.0</ele><time>2026-04-19T12:21:38.002Z</time></trkpt><trkpt lat="44.88560555302843" lon="7.316737151236935"><ele>388.0</ele><time>2026-04-19T12:21:39.002Z</time></trkpt><trkpt lat="44.88559873033337" lon="7.316917806445821"><ele>388.0</ele><time>2026-04-19T12:21:39.994Z</time></trkpt><trkpt lat="44.885594542254694" lon="7.3170709149675766"><ele>388.0</ele><time>2026-04-19T12:21:40.994Z</time></trkpt><trkpt lat="44.88559175414796" lon="7.317196314943176"><ele>387.4</ele><time>2026-04-19T12:21:41.995Z</time></trkpt><trkpt lat="44.885574813470626" lon="7.317292209622749"><ele>386.79999999999995</ele><time>2026-04-19T12:21:42.995Z</time></trkpt><trkpt lat="44.88556934523959" lon="7.31747105384057"><ele>386.2</ele><time>2026-04-19T12:21:44.995Z</time></trkpt><trkpt lat="44.88556564659766" lon="7.317583967663629"><ele>385.6</ele><time>2026-04-19T12:21:45.995Z</time></trkpt><trkpt lat="44.88556183683133" lon="7.317700273935305"><ele>385.0</ele><time>2026-04-19T12:21:46.995Z</time></trkpt><trkpt lat="44.88555758544292" lon="7.3178413394243345"><ele>385.0</ele><time>2026-04-19T12:21:47.995Z</time></trkpt><trkpt lat="44.885552708931584" lon="7.317995328380774"><ele>385.0</ele><time>2026-04-19T12:21:48.995Z</time></trkpt><trkpt lat="44.88554753668687" lon="7.318156817347203"><ele>385.0</ele><time>2026-04-19T12:21:49.995Z</time></trkpt><trkpt lat="44.88555759878897" lon="7.31832172080635"><ele>385.0</ele><time>2026-04-19T12:21:50.995Z</time></trkpt><trkpt lat="44.885537803133424" lon="7.318492936490861"><ele>385.0</ele><time>2026-04-19T12:21:51.995Z</time></trkpt><trkpt lat="44.885550142651894" lon="7.318679363338116"><ele>385.0</ele><time>2026-04-19T12:21:52.995Z</time></trkpt><trkpt lat="44.88554081770031" lon="7.318869859837701"><ele>385.0</ele><time>2026-04-19T12:21:53.996Z</time></trkpt><trkpt lat="44.88553586538723" lon="7.319066232486928"><ele>385.0</ele><time>2026-04-19T12:21:54.996Z</time></trkpt><trkpt lat="44.885535156948315" lon="7.319265802684542"><ele>385.75</ele><time>2026-04-19T12:21:55.996Z</time></trkpt><trkpt lat="44.88552583852182" lon="7.319466430425856"><ele>386.5</ele><time>2026-04-19T12:21:56.996Z</time></trkpt><trkpt lat="44.885521286644" lon="7.31965474353992"><ele>387.25</ele><time>2026-04-19T12:21:57.996Z</time></trkpt><trkpt lat="44.885512424474086" lon="7.319828255579725"><ele>388.0</ele><time>2026-04-19T12:21:58.997Z</time></trkpt><trkpt lat="44.885504847002025" lon="7.319990648679647"><ele>388.2</ele><time>2026-04-19T12:21:59.997Z</time></trkpt><trkpt lat="44.88549938015398" lon="7.320133521411222"><ele>388.4</ele><time>2026-04-19T12:22:00.997Z</time></trkpt><trkpt lat="44.8854993246893" lon="7.320273639286786"><ele>388.59999999999997</ele><time>2026-04-19T12:22:01.997Z</time></trkpt><trkpt lat="44.88550033048067" lon="7.320423515690237"><ele>388.79999999999995</ele><time>2026-04-19T12:22:02.997Z</time></trkpt><trkpt lat="44.885499885472626" lon="7.3205929395780585"><ele>389.0</ele><time>2026-04-19T12:22:03.997Z</time></trkpt><trkpt lat="44.88549465732111" lon="7.320784440718588"><ele>388.25</ele><time>2026-04-19T12:22:04.997Z</time></trkpt><trkpt lat="44.88549102875984" lon="7.32098513211682"><ele>387.5</ele><time>2026-04-19T12:22:05.997Z</time></trkpt><trkpt lat="44.88548472069027" lon="7.321198128575405"><ele>386.75</ele><time>2026-04-19T12:22:06.997Z</time></trkpt><trkpt lat="44.88548105695333" lon="7.321409456612214"><ele>386.0</ele><time>2026-04-19T12:22:07.998Z</time></trkpt><trkpt lat="44.885477462218944" lon="7.3216182719829925"><ele>386.0</ele><time>2026-04-19T12:22:08.998Z</time></trkpt><trkpt lat="44.88546887649612" lon="7.321833509657061"><ele>386.0</ele><time>2026-04-19T12:22:09.998Z</time></trkpt><trkpt lat="44.885461842436044" lon="7.322058683154868"><ele>386.0</ele><time>2026-04-19T12:22:10.998Z</time></trkpt><trkpt lat="44.88545685259013" lon="7.322276329561932"><ele>386.0</ele><time>2026-04-19T12:22:11.998Z</time></trkpt><trkpt lat="44.88545324482864" lon="7.32249840828501"><ele>386.0</ele><time>2026-04-19T12:22:12.998Z</time></trkpt><trkpt lat="44.8854477865063" lon="7.322736764373449"><ele>386.0</ele><time>2026-04-19T12:22:13.998Z</time></trkpt><trkpt lat="44.88544350661042" lon="7.322984702916746"><ele>386.0</ele><time>2026-04-19T12:22:14.998Z</time></trkpt><trkpt lat="44.88543926612787" lon="7.323240074197967"><ele>386.0</ele><time>2026-04-19T12:22:15.998Z</time></trkpt><trkpt lat="44.88543151757387" lon="7.323496539673422"><ele>386.0</ele><time>2026-04-19T12:22:16.998Z</time></trkpt><trkpt lat="44.885418607621894" lon="7.3237566989823275"><ele>386.66666666666663</ele><time>2026-04-19T12:22:17.998Z</time></trkpt><trkpt lat="44.88539818618192" lon="7.324015357414646"><ele>387.33333333333337</ele><time>2026-04-19T12:22:18.998Z</time></trkpt><trkpt lat="44.88537465776112" lon="7.324272829926552"><ele>388.0</ele><time>2026-04-19T12:22:19.998Z</time></trkpt><trkpt lat="44.885344174322604" lon="7.3245288200806895"><ele>387.6666666666667</ele><time>2026-04-19T12:22:20.999Z</time></trkpt><trkpt lat="44.88531033395794" lon="7.324778874928971"><ele>387.33333333333337</ele><time>2026-04-19T12:22:21.999Z</time></trkpt><trkpt lat="44.88527552452031" lon="7.325025550057018"><ele>387.0</ele><time>2026-04-19T12:22:22.999Z</time></trkpt><trkpt lat="44.885242199186735" lon="7.325271900585106"><ele>387.0</ele><time>2026-04-19T12:22:23.999Z</time></trkpt><trkpt lat="44.88521188766449" lon="7.325518089739584"><ele>387.0</ele><time>2026-04-19T12:22:24.999Z</time></trkpt><trkpt lat="44.88518362988289" lon="7.325760481959879"><ele>387.0</ele><time>2026-04-19T12:22:25.999Z</time></trkpt><trkpt lat="44.88515343751663" lon="7.3260022781883904"><ele>387.0</ele><time>2026-04-19T12:22:26.999Z</time></trkpt><trkpt lat="44.88511841400028" lon="7.326240313460653"><ele>387.0</ele><time>2026-04-19T12:22:27.999Z</time></trkpt><trkpt lat="44.88507970296748" lon="7.3264805412403975"><ele>387.0</ele><time>2026-04-19T12:22:28.999Z</time></trkpt><trkpt lat="44.88504821114484" lon="7.326723664145734"><ele>386.0</ele><time>2026-04-19T12:22:29.999Z</time></trkpt><trkpt lat="44.88501428665999" lon="7.326965853833382"><ele>385.0</ele><time>2026-04-19T12:22:30.999Z</time></trkpt><trkpt lat="44.88497950592939" lon="7.327212598525341"><ele>384.0</ele><time>2026-04-19T12:22:31.999Z</time></trkpt><trkpt lat="44.884934206277975" lon="7.327460897321087"><ele>384.0</ele><time>2026-04-19T12:22:32.999Z</time></trkpt><trkpt lat="44.884900922418154" lon="7.327697649937722"><ele>384.0</ele><time>2026-04-19T12:22:33.999Z</time></trkpt><trkpt lat="44.88487138145898" lon="7.3279085261972"><ele>384.0</ele><time>2026-04-19T12:22:34.999Z</time></trkpt><trkpt lat="44.884844703196556" lon="7.32809556115455"><ele>384.0</ele><time>2026-04-19T12:22:35.999Z</time></trkpt><trkpt lat="44.88481987477941" lon="7.328269627215841"><ele>384.0</ele><time>2026-04-19T12:22:36.999Z</time></trkpt><trkpt lat="44.88480300976978" lon="7.328434014762087"><ele>384.0</ele><time>2026-04-19T12:22:37.999Z</time></trkpt><trkpt lat="44.88477482154343" lon="7.328597650268927"><ele>384.0</ele><time>2026-04-19T12:22:38.999Z</time></trkpt><trkpt lat="44.88473603725635" lon="7.328778390459094"><ele>383.6666666666667</ele><time>2026-04-19T12:22:39.999Z</time></trkpt><trkpt lat="44.884703315440866" lon="7.328978873895629"><ele>383.33333333333337</ele><time>2026-04-19T12:22:40.999Z</time></trkpt><trkpt lat="44.88467138685395" lon="7.32918549959947"><ele>383.0</ele><time>2026-04-19T12:22:41.999Z</time></trkpt><trkpt lat="44.88463963362206" lon="7.329401465949156"><ele>383.0</ele><time>2026-04-19T12:22:43Z</time></trkpt><trkpt lat="44.884609106466485" lon="7.32959939525826"><ele>383.0</ele><time>2026-04-19T12:22:44Z</time></trkpt><trkpt lat="44.88458365412989" lon="7.329785457612519"><ele>383.0</ele><time>2026-04-19T12:22:45Z</time></trkpt><trkpt lat="44.88455646611815" lon="7.329956832124159"><ele>383.0</ele><time>2026-04-19T12:22:46Z</time></trkpt><trkpt lat="44.88453086823146" lon="7.330111492911877"><ele>382.79999999999995</ele><time>2026-04-19T12:22:47Z</time></trkpt><trkpt lat="44.88451279776006" lon="7.330241996240928"><ele>382.6</ele><time>2026-04-19T12:22:48Z</time></trkpt><trkpt lat="44.88450310454314" lon="7.3303565504085455"><ele>382.4</ele><time>2026-04-19T12:22:49Z</time></trkpt><trkpt lat="44.88450652948687" lon="7.330449305079242"><ele>382.20000000000005</ele><time>2026-04-19T12:22:50Z</time></trkpt><trkpt lat="44.88455180303618" lon="7.330618459838443"><ele>382.0</ele><time>2026-04-19T12:23:53.996Z</time></trkpt><trkpt lat="44.8845730689618" lon="7.330733852201232"><ele>381.25</ele><time>2026-04-19T12:23:54.996Z</time></trkpt><trkpt lat="44.88459398999763" lon="7.33087928126866"><ele>380.5</ele><time>2026-04-19T12:23:55.996Z</time></trkpt><trkpt lat="44.88463628053131" lon="7.331044151594684"><ele>379.75</ele><time>2026-04-19T12:23:56.997Z</time></trkpt><trkpt lat="44.88468472057899" lon="7.331217480073216"><ele>379.0</ele><time>2026-04-19T12:23:57.997Z</time></trkpt><trkpt lat="44.884731900236424" lon="7.331384234307619"><ele>379.0</ele><time>2026-04-19T12:23:58.997Z</time></trkpt><trkpt lat="44.884777991975795" lon="7.33153140050466"><ele>379.0</ele><time>2026-04-19T12:23:59.997Z</time></trkpt><trkpt lat="44.88481651529018" lon="7.3316678519902725"><ele>379.0</ele><time>2026-04-19T12:24:00.997Z</time></trkpt><trkpt lat="44.884853486196434" lon="7.331790407768056"><ele>379.0</ele><time>2026-04-19T12:24:01.998Z</time></trkpt><trkpt lat="44.88488077423066" lon="7.331901564335829"><ele>379.0</ele><time>2026-04-19T12:24:02.998Z</time></trkpt><trkpt lat="44.88490237366151" lon="7.331987988809031"><ele>379.0</ele><time>2026-04-19T12:24:03.998Z</time></trkpt><trkpt lat="44.88492348397994" lon="7.3320812350835105"><ele>379.0</ele><time>2026-04-19T12:24:05.998Z</time></trkpt><trkpt lat="44.88494154667344" lon="7.332169423850224"><ele>379.0</ele><time>2026-04-19T12:24:25Z</time></trkpt><trkpt lat="44.8849671430586" lon="7.3322812031557"><ele>379.0</ele><time>2026-04-19T12:24:26Z</time></trkpt><trkpt lat="44.88500209725805" lon="7.332405634770573"><ele>379.0</ele><time>2026-04-19T12:24:27Z</time></trkpt><trkpt lat="44.88504693040344" lon="7.332559797213125"><ele>379.0</ele><time>2026-04-19T12:24:28Z</time></trkpt><trkpt lat="44.88510197135968" lon="7.332732861008882"><ele>379.0</ele><time>2026-04-19T12:24:29Z</time></trkpt><trkpt lat="44.885156397773024" lon="7.332923775822002"><ele>379.0</ele><time>2026-04-19T12:24:30.001Z</time></trkpt><trkpt lat="44.885209978556226" lon="7.333119209510939"><ele>379.0</ele><time>2026-04-19T12:24:31.001Z</time></trkpt><trkpt lat="44.8852567977623" lon="7.3332917363474825"><ele>379.0</ele><time>2026-04-19T12:24:32.001Z</time></trkpt><trkpt lat="44.88530075006915" lon="7.333448145745943"><ele>378.2</ele><time>2026-04-19T12:24:33.001Z</time></trkpt><trkpt lat="44.88534358057815" lon="7.333592223900373"><ele>377.4</ele><time>2026-04-19T12:24:34.001Z</time></trkpt><trkpt lat="44.88538138949081" lon="7.33372274474086"><ele>376.6</ele><time>2026-04-19T12:24:35.001Z</time></trkpt><trkpt lat="44.8854124117235" lon="7.333842087847596"><ele>375.8</ele><time>2026-04-19T12:24:36.001Z</time></trkpt><trkpt lat="44.885439035216095" lon="7.333943152687602"><ele>375.0</ele><time>2026-04-19T12:24:37.001Z</time></trkpt><trkpt lat="44.885475643962224" lon="7.3340864602513465"><ele>375.0</ele><time>2026-04-19T12:24:39.001Z</time></trkpt><trkpt lat="44.88547971876113" lon="7.3341827617392745"><ele>375.0</ele><time>2026-04-19T12:25:13.002Z</time></trkpt><trkpt lat="44.88550389286015" lon="7.334275533354151"><ele>375.0</ele><time>2026-04-19T12:25:14.002Z</time></trkpt><trkpt lat="44.88553488194926" lon="7.334386930184864"><ele>375.0</ele><time>2026-04-19T12:25:15.002Z</time></trkpt><trkpt lat="44.88559245104311" lon="7.334585052888824"><ele>375.0</ele><time>2026-04-19T12:25:16.002Z</time></trkpt><trkpt lat="44.885654525348315" lon="7.334783103527743"><ele>374.6666666666667</ele><time>2026-04-19T12:25:17.002Z</time></trkpt><trkpt lat="44.88571773082852" lon="7.334986883642304"><ele>374.33333333333337</ele><time>2026-04-19T12:25:18.002Z</time></trkpt><trkpt lat="44.885780618657456" lon="7.3351990603088"><ele>374.0</ele><time>2026-04-19T12:25:19.002Z</time></trkpt><trkpt lat="44.88583587902133" lon="7.335386705972515"><ele>374.0</ele><time>2026-04-19T12:25:20.002Z</time></trkpt><trkpt lat="44.8858773093766" lon="7.335552989934806"><ele>374.0</ele><time>2026-04-19T12:25:21.002Z</time></trkpt><trkpt lat="44.885907922910256" lon="7.335722692178179"><ele>374.0</ele><time>2026-04-19T12:25:22.002Z</time></trkpt><trkpt lat="44.885921429566274" lon="7.335877871912664"><ele>374.0</ele><time>2026-04-19T12:25:23.003Z</time></trkpt><trkpt lat="44.88590899328335" lon="7.33601536481347"><ele>373.79999999999995</ele><time>2026-04-19T12:25:24.003Z</time></trkpt><trkpt lat="44.88589826631302" lon="7.336121508326989"><ele>373.59999999999997</ele><time>2026-04-19T12:25:25.003Z</time></trkpt><trkpt lat="44.885971717819714" lon="7.336237381564094"><ele>373.4</ele><time>2026-04-19T12:25:27.003Z</time></trkpt><trkpt lat="44.88605557462694" lon="7.336266536759809"><ele>373.2</ele><time>2026-04-19T12:25:28.003Z</time></trkpt><trkpt lat="44.88615140285843" lon="7.336342796701249"><ele>373.0</ele><time>2026-04-19T12:25:29.003Z</time></trkpt><trkpt lat="44.886182136455425" lon="7.336500660654944"><ele>372.5</ele><time>2026-04-19T12:25:30.003Z</time></trkpt><trkpt lat="44.88622809643185" lon="7.336662326266157"><ele>372.0</ele><time>2026-04-19T12:25:31.003Z</time></trkpt><trkpt lat="44.88627951187822" lon="7.33684318165196"><ele>371.5</ele><time>2026-04-19T12:25:32.003Z</time></trkpt><trkpt lat="44.88634099950478" lon="7.337029722848999"><ele>371.0</ele><time>2026-04-19T12:25:33.003Z</time></trkpt><trkpt lat="44.8863840766837" lon="7.337190722562688"><ele>370.5</ele><time>2026-04-19T12:25:34.003Z</time></trkpt><trkpt lat="44.88642692554698" lon="7.3373054539597"><ele>370.0</ele><time>2026-04-19T12:25:35.003Z</time></trkpt><trkpt lat="44.8864435223465" lon="7.3374112259246"><ele>369.5</ele><time>2026-04-19T12:25:36.003Z</time></trkpt><trkpt lat="44.88666086188259" lon="7.3374177128300415"><ele>369.0</ele><time>2026-04-19T12:25:38.003Z</time></trkpt><trkpt lat="44.886768150216625" lon="7.337369186371154"><ele>369.0</ele><time>2026-04-19T12:25:39.003Z</time></trkpt><trkpt lat="44.886880753414424" lon="7.337297622623847"><ele>369.0</ele><time>2026-04-19T12:25:40.003Z</time></trkpt><trkpt lat="44.886987152455625" lon="7.337236169522637"><ele>369.0</ele><time>2026-04-19T12:25:41.003Z</time></trkpt><trkpt lat="44.88709044472645" lon="7.33720907753472"><ele>369.0</ele><time>2026-04-19T12:25:42.003Z</time></trkpt><trkpt lat="44.887182369104636" lon="7.337195627121955"><ele>369.0</ele><time>2026-04-19T12:25:43.003Z</time></trkpt><trkpt lat="44.887251448210556" lon="7.337124602219674"><ele>369.4</ele><time>2026-04-19T12:25:44.003Z</time></trkpt><trkpt lat="44.88731219001502" lon="7.337021781856289"><ele>369.79999999999995</ele><time>2026-04-19T12:25:45.003Z</time></trkpt><trkpt lat="44.88739760938079" lon="7.336916949680278"><ele>370.20000000000005</ele><time>2026-04-19T12:25:46.003Z</time></trkpt><trkpt lat="44.88748934988093" lon="7.336839019712021"><ele>370.6</ele><time>2026-04-19T12:25:47.003Z</time></trkpt><trkpt lat="44.88758593094788" lon="7.336790824624229"><ele>371.0</ele><time>2026-04-19T12:25:48.003Z</time></trkpt><trkpt lat="44.887692500205866" lon="7.3367683054117885"><ele>371.0</ele><time>2026-04-19T12:25:49.003Z</time></trkpt><trkpt lat="44.887806401412504" lon="7.336703924921787"><ele>371.0</ele><time>2026-04-19T12:25:50.003Z</time></trkpt><trkpt lat="44.88791552667358" lon="7.336656498173705"><ele>371.0</ele><time>2026-04-19T12:25:51.003Z</time></trkpt><trkpt lat="44.8880076036397" lon="7.336607330398126"><ele>371.0</ele><time>2026-04-19T12:25:51.997Z</time></trkpt><trkpt lat="44.88808958371382" lon="7.336562366092277"><ele>371.0</ele><time>2026-04-19T12:25:52.997Z</time></trkpt><trkpt lat="44.888168268355415" lon="7.3365288899008725"><ele>371.0</ele><time>2026-04-19T12:25:53.998Z</time></trkpt><trkpt lat="44.888238238983014" lon="7.336516246599611"><ele>371.0</ele><time>2026-04-19T12:25:54.998Z</time></trkpt><trkpt lat="44.888320686016584" lon="7.336807197099141"><ele>371.0</ele><time>2026-04-19T12:25:57.998Z</time></trkpt><trkpt lat="44.88838165297148" lon="7.336958177513329"><ele>371.0</ele><time>2026-04-19T12:25:58.998Z</time></trkpt><trkpt lat="44.88842577147126" lon="7.337153377474983"><ele>370.33333333333337</ele><time>2026-04-19T12:25:59.998Z</time></trkpt><trkpt lat="44.88849192415316" lon="7.3373634928288"><ele>369.6666666666667</ele><time>2026-04-19T12:26:00.998Z</time></trkpt><trkpt lat="44.88855566039669" lon="7.337577531268521"><ele>369.0</ele><time>2026-04-19T12:26:01.998Z</time></trkpt><trkpt lat="44.888622809436626" lon="7.337808054815081"><ele>369.0</ele><time>2026-04-19T12:26:02.998Z</time></trkpt><trkpt lat="44.8886935502203" lon="7.338045427292553"><ele>369.0</ele><time>2026-04-19T12:26:03.998Z</time></trkpt><trkpt lat="44.88876625752017" lon="7.338275680649709"><ele>369.0</ele><time>2026-04-19T12:26:04.998Z</time></trkpt><trkpt lat="44.88884656063783" lon="7.338502046621099"><ele>368.3333333333333</ele><time>2026-04-19T12:26:05.999Z</time></trkpt><trkpt lat="44.88893244208039" lon="7.338726421624206"><ele>367.66666666666663</ele><time>2026-04-19T12:26:06.999Z</time></trkpt><trkpt lat="44.88904304854483" lon="7.338934305781207"><ele>367.0</ele><time>2026-04-19T12:26:07.999Z</time></trkpt><trkpt lat="44.889175529824435" lon="7.339116649350753"><ele>366.66666666666663</ele><time>2026-04-19T12:26:08.999Z</time></trkpt><trkpt lat="44.88929819492749" lon="7.33932526256533"><ele>366.3333333333333</ele><time>2026-04-19T12:26:09.999Z</time></trkpt><trkpt lat="44.889438644906306" lon="7.339508823205028"><ele>366.0</ele><time>2026-04-19T12:26:10.999Z</time></trkpt><trkpt lat="44.889562143543" lon="7.339714671943285"><ele>365.6666666666667</ele><time>2026-04-19T12:26:11.999Z</time></trkpt><trkpt lat="44.88968145444312" lon="7.339925693319811"><ele>365.33333333333337</ele><time>2026-04-19T12:26:12.999Z</time></trkpt><trkpt lat="44.88979419905931" lon="7.340143103012564"><ele>365.0</ele><time>2026-04-19T12:26:13.999Z</time></trkpt><trkpt lat="44.889899122781685" lon="7.340365831425732"><ele>364.6666666666667</ele><time>2026-04-19T12:26:14.999Z</time></trkpt><trkpt lat="44.89000030060703" lon="7.340596807569162"><ele>364.3333333333333</ele><time>2026-04-19T12:26:15.999Z</time></trkpt><trkpt lat="44.890095850830804" lon="7.340830237563499"><ele>364.0</ele><time>2026-04-19T12:26:16.999Z</time></trkpt><trkpt lat="44.89019055325726" lon="7.3410654984065085"><ele>364.0</ele><time>2026-04-19T12:26:18Z</time></trkpt><trkpt lat="44.89027840936982" lon="7.341301095260165"><ele>364.0</ele><time>2026-04-19T12:26:19Z</time></trkpt><trkpt lat="44.890369128387306" lon="7.341538375436165"><ele>364.0</ele><time>2026-04-19T12:26:20Z</time></trkpt><trkpt lat="44.89045072688451" lon="7.341766788023068"><ele>364.0</ele><time>2026-04-19T12:26:21Z</time></trkpt><trkpt lat="44.89051701326778" lon="7.342000193973912"><ele>364.0</ele><time>2026-04-19T12:26:22Z</time></trkpt><trkpt lat="44.89061772610038" lon="7.34220486901266"><ele>364.0</ele><time>2026-04-19T12:26:23Z</time></trkpt><trkpt lat="44.89070609635891" lon="7.342429638549725"><ele>364.0</ele><time>2026-04-19T12:26:24Z</time></trkpt><trkpt lat="44.89079304411792" lon="7.342650630046719"><ele>364.0</ele><time>2026-04-19T12:26:25Z</time></trkpt><trkpt lat="44.89088506881727" lon="7.342863474636486"><ele>364.0</ele><time>2026-04-19T12:26:26Z</time></trkpt><trkpt lat="44.89097099629903" lon="7.343064195799302"><ele>364.0</ele><time>2026-04-19T12:26:27Z</time></trkpt><trkpt lat="44.89105755869885" lon="7.343262144405071"><ele>364.0</ele><time>2026-04-19T12:26:28Z</time></trkpt><trkpt lat="44.89115072177149" lon="7.343457685556606"><ele>364.0</ele><time>2026-04-19T12:26:29Z</time></trkpt><trkpt lat="44.89124482560334" lon="7.343665490853674"><ele>364.0</ele><time>2026-04-19T12:26:30Z</time></trkpt><trkpt lat="44.89133387925195" lon="7.343864815608735"><ele>364.0</ele><time>2026-04-19T12:26:31Z</time></trkpt><trkpt lat="44.89140937615909" lon="7.344065678447157"><ele>364.0</ele><time>2026-04-19T12:26:32Z</time></trkpt><trkpt lat="44.89146409702579" lon="7.344279865706354"><ele>363.3333333333333</ele><time>2026-04-19T12:26:33Z</time></trkpt><trkpt lat="44.891500724776684" lon="7.344511851740043"><ele>362.6666666666667</ele><time>2026-04-19T12:26:34Z</time></trkpt><trkpt lat="44.8915049535518" lon="7.344753057785029"><ele>362.0</ele><time>2026-04-19T12:26:35Z</time></trkpt><trkpt lat="44.89146255216487" lon="7.344980228835851"><ele>361.0</ele><time>2026-04-19T12:26:36.001Z</time></trkpt><trkpt lat="44.891426792485674" lon="7.345201711614084"><ele>360.0</ele><time>2026-04-19T12:26:37.001Z</time></trkpt><trkpt lat="44.89137137791419" lon="7.345404341771685"><ele>359.0</ele><time>2026-04-19T12:26:38.001Z</time></trkpt><trkpt lat="44.89130236981726" lon="7.345596759104211"><ele>358.33333333333337</ele><time>2026-04-19T12:26:39.001Z</time></trkpt><trkpt lat="44.891211138119594" lon="7.345781656617304"><ele>357.6666666666667</ele><time>2026-04-19T12:26:40.001Z</time></trkpt><trkpt lat="44.89112758979349" lon="7.3459461402453625"><ele>357.0</ele><time>2026-04-19T12:26:41.001Z</time></trkpt><trkpt lat="44.891005331504566" lon="7.346072536484546"><ele>357.25</ele><time>2026-04-19T12:26:42.001Z</time></trkpt><trkpt lat="44.890898930861255" lon="7.346181072923471"><ele>357.5</ele><time>2026-04-19T12:26:43.001Z</time></trkpt><trkpt lat="44.890797405756636" lon="7.346304742694496"><ele>357.75</ele><time>2026-04-19T12:26:44.001Z</time></trkpt><trkpt lat="44.89070096032363" lon="7.346426428385587"><ele>358.0</ele><time>2026-04-19T12:26:45.001Z</time></trkpt><trkpt lat="44.8905999301724" lon="7.346549717269241"><ele>358.0</ele><time>2026-04-19T12:26:46.001Z</time></trkpt><trkpt lat="44.89049699680376" lon="7.346676175570258"><ele>358.0</ele><time>2026-04-19T12:26:47.001Z</time></trkpt><trkpt lat="44.890392387367726" lon="7.346796509995749"><ele>358.0</ele><time>2026-04-19T12:26:48.001Z</time></trkpt><trkpt lat="44.890286706848904" lon="7.346921092978857"><ele>358.0</ele><time>2026-04-19T12:26:49.001Z</time></trkpt><trkpt lat="44.890174869151444" lon="7.347051584499425"><ele>358.0</ele><time>2026-04-19T12:26:50.001Z</time></trkpt><trkpt lat="44.890052988402864" lon="7.347176807411635"><ele>358.0</ele><time>2026-04-19T12:26:51.001Z</time></trkpt><trkpt lat="44.889943251287846" lon="7.3473166622122"><ele>358.0</ele><time>2026-04-19T12:26:52.001Z</time></trkpt><trkpt lat="44.88983337760128" lon="7.347456697688547"><ele>358.0</ele><time>2026-04-19T12:26:53.001Z</time></trkpt><trkpt lat="44.88973256143792" lon="7.34758402261138"><ele>357.66666666666663</ele><time>2026-04-19T12:26:54.001Z</time></trkpt><trkpt lat="44.88960741943266" lon="7.347737187905148"><ele>357.3333333333333</ele><time>2026-04-19T12:26:55.001Z</time></trkpt><trkpt lat="44.88947551096365" lon="7.347886688310193"><ele>357.0</ele><time>2026-04-19T12:26:56.001Z</time></trkpt><trkpt lat="44.889349793341324" lon="7.348034979709565"><ele>356.6666666666667</ele><time>2026-04-19T12:26:57.001Z</time></trkpt><trkpt lat="44.88922237807276" lon="7.348185219756814"><ele>356.33333333333337</ele><time>2026-04-19T12:26:58.001Z</time></trkpt><trkpt lat="44.88909772993737" lon="7.348341078378893"><ele>356.0</ele><time>2026-04-19T12:26:59.001Z</time></trkpt><trkpt lat="44.88896709900712" lon="7.348482638680627"><ele>356.0</ele><time>2026-04-19T12:27:00.001Z</time></trkpt><trkpt lat="44.8888437043008" lon="7.348621899737938"><ele>356.0</ele><time>2026-04-19T12:27:01.001Z</time></trkpt><trkpt lat="44.88876172405957" lon="7.348724897540178"><ele>356.0</ele><time>2026-04-19T12:27:02.001Z</time></trkpt><trkpt lat="44.88867757893339" lon="7.348815972375044"><ele>356.0</ele><time>2026-04-19T12:27:03.001Z</time></trkpt><trkpt lat="44.88859161503595" lon="7.348919855931344"><ele>356.0</ele><time>2026-04-19T12:27:04.002Z</time></trkpt><trkpt lat="44.88851710714271" lon="7.349030268329875"><ele>356.0</ele><time>2026-04-19T12:27:05.002Z</time></trkpt><trkpt lat="44.88843707007938" lon="7.349117011590552"><ele>356.0</ele><time>2026-04-19T12:27:06.002Z</time></trkpt><trkpt lat="44.88838195511465" lon="7.349205392498355"><ele>356.0</ele><time>2026-04-19T12:27:07.002Z</time></trkpt><trkpt lat="44.88832415624117" lon="7.349310434538586"><ele>356.0</ele><time>2026-04-19T12:27:08.002Z</time></trkpt><trkpt lat="44.88827814114125" lon="7.349402452676228"><ele>356.0</ele><time>2026-04-19T12:27:09.002Z</time></trkpt><trkpt lat="44.888237090663274" lon="7.349494350390753"><ele>356.0</ele><time>2026-04-19T12:27:10.002Z</time></trkpt><trkpt lat="44.88820083913233" lon="7.349585666811316"><ele>356.0</ele><time>2026-04-19T12:27:11.002Z</time></trkpt><trkpt lat="44.88817240572972" lon="7.349682430677791"><ele>356.0</ele><time>2026-04-19T12:27:12.002Z</time></trkpt><trkpt lat="44.888136418171015" lon="7.349777438163"><ele>356.0</ele><time>2026-04-19T12:27:13.002Z</time></trkpt><trkpt lat="44.88809963200936" lon="7.3498816120233945"><ele>356.0</ele><time>2026-04-19T12:27:14.002Z</time></trkpt><trkpt lat="44.8880665925686" lon="7.349992928901481"><ele>356.20000000000005</ele><time>2026-04-19T12:27:15.002Z</time></trkpt><trkpt lat="44.88803332523115" lon="7.350120089074157"><ele>356.40000000000003</ele><time>2026-04-19T12:27:16.002Z</time></trkpt><trkpt lat="44.88800228810023" lon="7.350275721969802"><ele>356.6</ele><time>2026-04-19T12:27:17.002Z</time></trkpt><trkpt lat="44.88795217760219" lon="7.3504330227893995"><ele>356.8</ele><time>2026-04-19T12:27:18.002Z</time></trkpt><trkpt lat="44.88792286240307" lon="7.350550731774549"><ele>357.0</ele><time>2026-04-19T12:27:19.002Z</time></trkpt><trkpt lat="44.88786294206478" lon="7.350684395861869"><ele>356.6</ele><time>2026-04-19T12:27:21.002Z</time></trkpt><trkpt lat="44.88776581010913" lon="7.350772738532058"><ele>356.20000000000005</ele><time>2026-04-19T12:27:23.002Z</time></trkpt><trkpt lat="44.887751403042856" lon="7.350860367642541"><ele>355.8</ele><time>2026-04-19T12:27:24.002Z</time></trkpt><trkpt lat="44.88781114616724" lon="7.35099022834908"><ele>355.4</ele><time>2026-04-19T12:27:26.002Z</time></trkpt><trkpt lat="44.8879142047868" lon="7.350992619935715"><ele>355.0</ele><time>2026-04-19T12:27:28.002Z</time></trkpt><trkpt lat="44.8879800487047" lon="7.350859035453033"><ele>355.0</ele><time>2026-04-19T12:27:30.002Z</time></trkpt><trkpt lat="44.8879590173785" lon="7.350761303844118"><ele>355.0</ele><time>2026-04-19T12:27:31.002Z</time></trkpt><trkpt lat="44.88791502398834" lon="7.3506879129863085"><ele>355.0</ele><time>2026-04-19T12:27:32.002Z</time></trkpt><trkpt lat="44.88784930802504" lon="7.350648180507997"><ele>355.0</ele><time>2026-04-19T12:27:33.002Z</time></trkpt><trkpt lat="44.88777083240167" lon="7.350745230731822"><ele>355.0</ele><time>2026-04-19T12:27:34.002Z</time></trkpt><trkpt lat="44.887744024076554" lon="7.350836793470163"><ele>355.0</ele><time>2026-04-19T12:27:35.002Z</time></trkpt><trkpt lat="44.88775901740776" lon="7.350961565949471"><ele>355.0</ele><time>2026-04-19T12:27:36.002Z</time></trkpt><trkpt lat="44.887785372482945" lon="7.351117053259383"><ele>355.0</ele><time>2026-04-19T12:27:37.003Z</time></trkpt><trkpt lat="44.88779747639271" lon="7.351290350618753"><ele>355.0</ele><time>2026-04-19T12:27:38.003Z</time></trkpt><trkpt lat="44.88784552469598" lon="7.351481142493714"><ele>355.0</ele><time>2026-04-19T12:27:39.003Z</time></trkpt><trkpt lat="44.88784710915842" lon="7.351703073318928"><ele>354.66666666666663</ele><time>2026-04-19T12:27:40.003Z</time></trkpt><trkpt lat="44.88787832960524" lon="7.351916329113316"><ele>354.3333333333333</ele><time>2026-04-19T12:27:41.003Z</time></trkpt><trkpt lat="44.887915168791025" lon="7.352141738669618"><ele>354.0</ele><time>2026-04-19T12:27:42.003Z</time></trkpt><trkpt lat="44.88795033447914" lon="7.352371960299026"><ele>354.6666666666667</ele><time>2026-04-19T12:27:43.003Z</time></trkpt><trkpt lat="44.887983088064104" lon="7.352610152641433"><ele>355.33333333333337</ele><time>2026-04-19T12:27:44.003Z</time></trkpt><trkpt lat="44.88802261836055" lon="7.352851437076658"><ele>356.0</ele><time>2026-04-19T12:27:45.003Z</time></trkpt><trkpt lat="44.88805881596626" lon="7.353091615703127"><ele>356.0</ele><time>2026-04-19T12:27:46.003Z</time></trkpt><trkpt lat="44.88809283668785" lon="7.353332492273974"><ele>356.0</ele><time>2026-04-19T12:27:47.003Z</time></trkpt><trkpt lat="44.888125970043795" lon="7.353574811372986"><ele>356.0</ele><time>2026-04-19T12:27:48.003Z</time></trkpt><trkpt lat="44.88816057561765" lon="7.353819284242133"><ele>355.33333333333337</ele><time>2026-04-19T12:27:49.003Z</time></trkpt><trkpt lat="44.888195437519485" lon="7.35405416421607"><ele>354.6666666666667</ele><time>2026-04-19T12:27:50.003Z</time></trkpt><trkpt lat="44.88822631971053" lon="7.35426804830727"><ele>354.0</ele><time>2026-04-19T12:27:51.003Z</time></trkpt><trkpt lat="44.88825304911039" lon="7.354466176071194"><ele>354.0</ele><time>2026-04-19T12:27:52.003Z</time></trkpt><trkpt lat="44.88827616601352" lon="7.354642290708601"><ele>354.0</ele><time>2026-04-19T12:27:53.003Z</time></trkpt><trkpt lat="44.88829847024373" lon="7.354777908794222"><ele>354.0</ele><time>2026-04-19T12:27:54.003Z</time></trkpt><trkpt lat="44.88833070317253" lon="7.354863595857331"><ele>354.0</ele><time>2026-04-19T12:27:55.003Z</time></trkpt><trkpt lat="44.888403773196664" lon="7.354947319135388"><ele>354.0</ele><time>2026-04-19T12:27:57.003Z</time></trkpt><trkpt lat="44.888543095768334" lon="7.354920961318497"><ele>352.6666666666667</ele><time>2026-04-19T12:27:57.994Z</time></trkpt><trkpt lat="44.88866638342171" lon="7.354705502017784"><ele>351.33333333333337</ele><time>2026-04-19T12:27:58.995Z</time></trkpt><trkpt lat="44.88880895747242" lon="7.35464636069209"><ele>350.0</ele><time>2026-04-19T12:27:59.995Z</time></trkpt><trkpt lat="44.88896257945525" lon="7.354602401175621"><ele>350.0</ele><time>2026-04-19T12:28:00.995Z</time></trkpt><trkpt lat="44.88912687819322" lon="7.3545572954588545"><ele>350.0</ele><time>2026-04-19T12:28:01.995Z</time></trkpt><trkpt lat="44.88928877483583" lon="7.354508478306776"><ele>350.0</ele><time>2026-04-19T12:28:02.996Z</time></trkpt><trkpt lat="44.88945619660732" lon="7.354456278548662"><ele>350.0</ele><time>2026-04-19T12:28:03.996Z</time></trkpt><trkpt lat="44.889632087178526" lon="7.35442851752421"><ele>350.0</ele><time>2026-04-19T12:28:04.996Z</time></trkpt><trkpt lat="44.88977043575065" lon="7.35432923686316"><ele>350.0</ele><time>2026-04-19T12:28:05.996Z</time></trkpt><trkpt lat="44.889908050702154" lon="7.3542606464747555"><ele>350.0</ele><time>2026-04-19T12:28:06.997Z</time></trkpt><trkpt lat="44.89007316833679" lon="7.354231670020205"><ele>350.0</ele><time>2026-04-19T12:28:07.997Z</time></trkpt><trkpt lat="44.89020314526697" lon="7.354096909197938"><ele>350.0</ele><time>2026-04-19T12:28:08.997Z</time></trkpt><trkpt lat="44.89035715035177" lon="7.354061274418703"><ele>350.0</ele><time>2026-04-19T12:28:09.997Z</time></trkpt><trkpt lat="44.89051752504754" lon="7.354068229007953"><ele>350.0</ele><time>2026-04-19T12:28:10.997Z</time></trkpt><trkpt lat="44.890682511962474" lon="7.354129820511402"><ele>350.0</ele><time>2026-04-19T12:28:11.997Z</time></trkpt><trkpt lat="44.89085218670654" lon="7.354196069415381"><ele>350.0</ele><time>2026-04-19T12:28:12.997Z</time></trkpt><trkpt lat="44.89103000488515" lon="7.354243256683872"><ele>350.0</ele><time>2026-04-19T12:28:13.998Z</time></trkpt><trkpt lat="44.891204423844385" lon="7.354311161749707"><ele>350.0</ele><time>2026-04-19T12:28:14.998Z</time></trkpt><trkpt lat="44.89137576660947" lon="7.354385857444937"><ele>350.0</ele><time>2026-04-19T12:28:15.998Z</time></trkpt><trkpt lat="44.89154928143679" lon="7.35445683051111"><ele>350.0</ele><time>2026-04-19T12:28:16.998Z</time></trkpt><trkpt lat="44.8917248636224" lon="7.354532509942667"><ele>350.0</ele><time>2026-04-19T12:28:17.998Z</time></trkpt><trkpt lat="44.89190323425595" lon="7.354603433111915"><ele>350.0</ele><time>2026-04-19T12:28:18.998Z</time></trkpt><trkpt lat="44.89208538209432" lon="7.354676730872212"><ele>350.0</ele><time>2026-04-19T12:28:19.999Z</time></trkpt><trkpt lat="44.89226786749951" lon="7.354746679215758"><ele>350.0</ele><time>2026-04-19T12:28:20.999Z</time></trkpt><trkpt lat="44.89244570436079" lon="7.354817975186647"><ele>349.33333333333337</ele><time>2026-04-19T12:28:21.999Z</time></trkpt><trkpt lat="44.89262892404623" lon="7.354887623397533"><ele>348.6666666666667</ele><time>2026-04-19T12:28:22.999Z</time></trkpt><trkpt lat="44.89279566595166" lon="7.35495706305996"><ele>348.0</ele><time>2026-04-19T12:28:23.999Z</time></trkpt><trkpt lat="44.89294903980263" lon="7.355016997745091"><ele>348.0</ele><time>2026-04-19T12:28:24.999Z</time></trkpt><trkpt lat="44.8930818225562" lon="7.355071834983899"><ele>348.0</ele><time>2026-04-19T12:28:25.999Z</time></trkpt><trkpt lat="44.89321064132432" lon="7.355116942516555"><ele>348.0</ele><time>2026-04-19T12:28:26.999Z</time></trkpt><trkpt lat="44.89332873719812" lon="7.355168654322503"><ele>348.0</ele><time>2026-04-19T12:28:27.999Z</time></trkpt><trkpt lat="44.89343042266294" lon="7.355225984420181"><ele>347.59999999999997</ele><time>2026-04-19T12:28:28.999Z</time></trkpt><trkpt lat="44.89350999756924" lon="7.355254754975675"><ele>347.2</ele><time>2026-04-19T12:28:30Z</time></trkpt><trkpt lat="44.89360384655886" lon="7.355167507673559"><ele>346.8</ele><time>2026-04-19T12:28:32Z</time></trkpt><trkpt lat="44.893619830053595" lon="7.355029661511095"><ele>346.4</ele><time>2026-04-19T12:28:34Z</time></trkpt><trkpt lat="44.893576448647735" lon="7.354871539536005"><ele>346.0</ele><time>2026-04-19T12:28:36Z</time></trkpt><trkpt lat="44.893501024340495" lon="7.354807661856878"><ele>346.5</ele><time>2026-04-19T12:28:37Z</time></trkpt><trkpt lat="44.89341954597947" lon="7.354751772900936"><ele>347.0</ele><time>2026-04-19T12:28:38Z</time></trkpt><trkpt lat="44.893415948216315" lon="7.354553671226767"><ele>347.5</ele><time>2026-04-19T12:28:39Z</time></trkpt><trkpt lat="44.89337002689254" lon="7.354389506544291"><ele>348.0</ele><time>2026-04-19T12:28:40Z</time></trkpt><trkpt lat="44.89329584133635" lon="7.354221240511796"><ele>348.0</ele><time>2026-04-19T12:28:41Z</time></trkpt><trkpt lat="44.89323596785398" lon="7.354027905221375"><ele>348.0</ele><time>2026-04-19T12:28:42Z</time></trkpt><trkpt lat="44.89316496966251" lon="7.35383103013177"><ele>348.0</ele><time>2026-04-19T12:28:43Z</time></trkpt><trkpt lat="44.89309626951969" lon="7.353634080602687"><ele>348.0</ele><time>2026-04-19T12:28:44Z</time></trkpt><trkpt lat="44.893025763766346" lon="7.35343524927706"><ele>348.0</ele><time>2026-04-19T12:28:45.001Z</time></trkpt><trkpt lat="44.89295257086268" lon="7.353229646274128"><ele>348.0</ele><time>2026-04-19T12:28:46.001Z</time></trkpt><trkpt lat="44.892876819705236" lon="7.353021840056622"><ele>349.3333333333333</ele><time>2026-04-19T12:28:47.001Z</time></trkpt><trkpt lat="44.892797009376544" lon="7.352801565189708"><ele>350.66666666666663</ele><time>2026-04-19T12:28:48.001Z</time></trkpt><trkpt lat="44.8927151597291" lon="7.352578684807255"><ele>352.0</ele><time>2026-04-19T12:28:49.001Z</time></trkpt><trkpt lat="44.89263568714511" lon="7.352347936785145"><ele>352.3333333333333</ele><time>2026-04-19T12:28:50.001Z</time></trkpt><trkpt lat="44.8925551130945" lon="7.352127481589742"><ele>352.6666666666667</ele><time>2026-04-19T12:28:51.001Z</time></trkpt><trkpt lat="44.892484521800526" lon="7.3519195133098405"><ele>353.0</ele><time>2026-04-19T12:28:52.001Z</time></trkpt><trkpt lat="44.89244346327956" lon="7.3517339270344815"><ele>353.0</ele><time>2026-04-19T12:28:53.001Z</time></trkpt><trkpt lat="44.892442898142164" lon="7.351567009488569"><ele>353.0</ele><time>2026-04-19T12:28:54.001Z</time></trkpt><trkpt lat="44.89249689190462" lon="7.351404315421709"><ele>353.0</ele><time>2026-04-19T12:28:55.001Z</time></trkpt><trkpt lat="44.8925816107528" lon="7.351246397385263"><ele>353.0</ele><time>2026-04-19T12:28:56.001Z</time></trkpt><trkpt lat="44.89268789333225" lon="7.351098753544973"><ele>353.25</ele><time>2026-04-19T12:28:57.001Z</time></trkpt><trkpt lat="44.89277370990181" lon="7.350930177969664"><ele>353.5</ele><time>2026-04-19T12:28:58.001Z</time></trkpt><trkpt lat="44.892832183378644" lon="7.350767669456152"><ele>353.75</ele><time>2026-04-19T12:28:59.001Z</time></trkpt><trkpt lat="44.89280955929194" lon="7.350612320826139"><ele>354.0</ele><time>2026-04-19T12:29:00.001Z</time></trkpt><trkpt lat="44.892740793892116" lon="7.350489575758927"><ele>354.0</ele><time>2026-04-19T12:29:01.001Z</time></trkpt><trkpt lat="44.89268787362796" lon="7.350381045518887"><ele>354.0</ele><time>2026-04-19T12:29:02.001Z</time></trkpt><trkpt lat="44.89267536843035" lon="7.350282837737392"><ele>354.0</ele><time>2026-04-19T12:29:03.001Z</time></trkpt><trkpt lat="44.892722390766124" lon="7.350184157214749"><ele>354.0</ele><time>2026-04-19T12:29:05.001Z</time></trkpt><trkpt lat="44.8927977347494" lon="7.350230765551666"><ele>354.0</ele><time>2026-04-19T12:29:08.001Z</time></trkpt><trkpt lat="44.89286342931271" lon="7.350273945670019"><ele>354.0</ele><time>2026-04-19T12:29:09.001Z</time></trkpt><trkpt lat="44.89292555600633" lon="7.350394762146378"><ele>354.0</ele><time>2026-04-19T12:29:10.001Z</time></trkpt><trkpt lat="44.892978718499506" lon="7.350545735136688"><ele>354.0</ele><time>2026-04-19T12:29:11.002Z</time></trkpt><trkpt lat="44.893015043145596" lon="7.350723736445706"><ele>354.0</ele><time>2026-04-19T12:29:12.002Z</time></trkpt><trkpt lat="44.89305741090271" lon="7.350924780665152"><ele>354.0</ele><time>2026-04-19T12:29:13.002Z</time></trkpt><trkpt lat="44.89310352290301" lon="7.351148198243404"><ele>354.0</ele><time>2026-04-19T12:29:14.002Z</time></trkpt><trkpt lat="44.893161128937635" lon="7.351383274041905"><ele>354.0</ele><time>2026-04-19T12:29:15.002Z</time></trkpt><trkpt lat="44.89322497047904" lon="7.351635023974977"><ele>354.0</ele><time>2026-04-19T12:29:16.002Z</time></trkpt><trkpt lat="44.89330851812718" lon="7.351892908818545"><ele>354.0</ele><time>2026-04-19T12:29:17.002Z</time></trkpt><trkpt lat="44.89337868007151" lon="7.35215843985275"><ele>354.0</ele><time>2026-04-19T12:29:18.002Z</time></trkpt><trkpt lat="44.89344305855662" lon="7.352430321323094"><ele>354.0</ele><time>2026-04-19T12:29:19.002Z</time></trkpt><trkpt lat="44.893492389667124" lon="7.352698965582954"><ele>353.6666666666667</ele><time>2026-04-19T12:29:20.002Z</time></trkpt><trkpt lat="44.893525528367455" lon="7.352944892566789"><ele>353.33333333333337</ele><time>2026-04-19T12:29:21.002Z</time></trkpt><trkpt lat="44.89354771454212" lon="7.353179168703938"><ele>353.0</ele><time>2026-04-19T12:29:22.002Z</time></trkpt><trkpt lat="44.89356937768177" lon="7.353437583953426"><ele>352.0</ele><time>2026-04-19T12:29:23.002Z</time></trkpt><trkpt lat="44.893596989215695" lon="7.3536894392638255"><ele>351.0</ele><time>2026-04-19T12:29:24.002Z</time></trkpt><trkpt lat="44.89363637984125" lon="7.353933551281301"><ele>350.0</ele><time>2026-04-19T12:29:25.002Z</time></trkpt><trkpt lat="44.89369796408793" lon="7.354184827451679"><ele>349.33333333333337</ele><time>2026-04-19T12:29:26.002Z</time></trkpt><trkpt lat="44.893775774455165" lon="7.35442954649265"><ele>348.6666666666667</ele><time>2026-04-19T12:29:27.002Z</time></trkpt><trkpt lat="44.893862959352276" lon="7.354666602706793"><ele>348.0</ele><time>2026-04-19T12:29:28.002Z</time></trkpt><trkpt lat="44.89395306372952" lon="7.354881087218362"><ele>348.0</ele><time>2026-04-19T12:29:29.002Z</time></trkpt><trkpt lat="44.89404150025699" lon="7.355069077485597"><ele>348.0</ele><time>2026-04-19T12:29:30.002Z</time></trkpt><trkpt lat="44.894128566325854" lon="7.355238591714844"><ele>348.0</ele><time>2026-04-19T12:29:31.002Z</time></trkpt><trkpt lat="44.894204382259325" lon="7.35538377901408"><ele>348.0</ele><time>2026-04-19T12:29:32.002Z</time></trkpt><trkpt lat="44.89428690908767" lon="7.3554864551364965"><ele>347.75</ele><time>2026-04-19T12:29:33.002Z</time></trkpt><trkpt lat="44.89439408496019" lon="7.355565017637658"><ele>347.5</ele><time>2026-04-19T12:29:34.002Z</time></trkpt><trkpt lat="44.894537160830694" lon="7.355611599126634"><ele>347.25</ele><time>2026-04-19T12:29:35.002Z</time></trkpt><trkpt lat="44.894691593181705" lon="7.355671056534988"><ele>347.0</ele><time>2026-04-19T12:29:36.002Z</time></trkpt><trkpt lat="44.894858382458445" lon="7.355738754889226"><ele>347.0</ele><time>2026-04-19T12:29:37.002Z</time></trkpt><trkpt lat="44.89503185007267" lon="7.355806486838809"><ele>347.0</ele><time>2026-04-19T12:29:38.002Z</time></trkpt><trkpt lat="44.89520627397653" lon="7.35587613966183"><ele>347.0</ele><time>2026-04-19T12:29:39.002Z</time></trkpt><trkpt lat="44.89538999410871" lon="7.355939418899759"><ele>346.33333333333337</ele><time>2026-04-19T12:29:40.002Z</time></trkpt><trkpt lat="44.89557687347285" lon="7.356009421227378"><ele>345.6666666666667</ele><time>2026-04-19T12:29:41.002Z</time></trkpt><trkpt lat="44.895760667569625" lon="7.356083428935703"><ele>345.0</ele><time>2026-04-19T12:29:42.003Z</time></trkpt><trkpt lat="44.89594339269388" lon="7.356155079430643"><ele>345.0</ele><time>2026-04-19T12:29:43.003Z</time></trkpt><trkpt lat="44.896123385238134" lon="7.356223192442524"><ele>345.0</ele><time>2026-04-19T12:29:44.003Z</time></trkpt><trkpt lat="44.89630217069274" lon="7.356294613869069"><ele>345.0</ele><time>2026-04-19T12:29:45.003Z</time></trkpt><trkpt lat="44.896484022026435" lon="7.356366482900636"><ele>344.6666666666667</ele><time>2026-04-19T12:29:46.003Z</time></trkpt><trkpt lat="44.8966660486052" lon="7.356438436524026"><ele>344.33333333333337</ele><time>2026-04-19T12:29:47.003Z</time></trkpt><trkpt lat="44.89684818554688" lon="7.356511318766122"><ele>344.0</ele><time>2026-04-19T12:29:48.003Z</time></trkpt><trkpt lat="44.89703207651111" lon="7.356581446138544"><ele>345.33333333333337</ele><time>2026-04-19T12:29:49.003Z</time></trkpt><trkpt lat="44.89721933622656" lon="7.356654557075576"><ele>346.6666666666667</ele><time>2026-04-19T12:29:50.003Z</time></trkpt><trkpt lat="44.89740382954558" lon="7.356731145094992"><ele>348.0</ele><time>2026-04-19T12:29:51.003Z</time></trkpt><trkpt lat="44.89758968925926" lon="7.356806394192904"><ele>350.0</ele><time>2026-04-19T12:29:52.003Z</time></trkpt><trkpt lat="44.89777797086609" lon="7.356878596716285"><ele>352.0</ele><time>2026-04-19T12:29:53.003Z</time></trkpt><trkpt lat="44.897965412719856" lon="7.356954487355611"><ele>354.0</ele><time>2026-04-19T12:29:54.003Z</time></trkpt><trkpt lat="44.898158477886554" lon="7.357023411148871"><ele>354.0</ele><time>2026-04-19T12:29:55.003Z</time></trkpt><trkpt lat="44.898346887695304" lon="7.3570949518499615"><ele>354.0</ele><time>2026-04-19T12:29:56.003Z</time></trkpt><trkpt lat="44.89853614084851" lon="7.357168383609957"><ele>354.0</ele><time>2026-04-19T12:29:57.003Z</time></trkpt><trkpt lat="44.89872631797759" lon="7.35723931627523"><ele>352.3333333333333</ele><time>2026-04-19T12:29:58.003Z</time></trkpt><trkpt lat="44.89891785629277" lon="7.357312078279683"><ele>350.66666666666663</ele><time>2026-04-19T12:29:59.003Z</time></trkpt><trkpt lat="44.899111698287726" lon="7.357383067620425"><ele>349.0</ele><time>2026-04-19T12:30:00.003Z</time></trkpt><trkpt lat="44.899297950354395" lon="7.357452726534117"><ele>347.0</ele><time>2026-04-19T12:30:01.003Z</time></trkpt><trkpt lat="44.89947916543142" lon="7.357529293319784"><ele>345.0</ele><time>2026-04-19T12:30:02.003Z</time></trkpt><trkpt lat="44.89966011600034" lon="7.357605155119684"><ele>343.0</ele><time>2026-04-19T12:30:03.003Z</time></trkpt><trkpt lat="44.89983927078791" lon="7.357671232514852"><ele>343.0</ele><time>2026-04-19T12:30:03.995Z</time></trkpt><trkpt lat="44.90001652808043" lon="7.357744963164152"><ele>343.0</ele><time>2026-04-19T12:30:04.995Z</time></trkpt><trkpt lat="44.900207110321226" lon="7.35781188425891"><ele>343.0</ele><time>2026-04-19T12:30:05.995Z</time></trkpt><trkpt lat="44.900391256584314" lon="7.357883980798207"><ele>342.3333333333333</ele><time>2026-04-19T12:30:06.996Z</time></trkpt><trkpt lat="44.90057680573874" lon="7.357953983206292"><ele>341.6666666666667</ele><time>2026-04-19T12:30:07.996Z</time></trkpt><trkpt lat="44.900748800622814" lon="7.358026726427799"><ele>341.0</ele><time>2026-04-19T12:30:08.996Z</time></trkpt><trkpt lat="44.90091060402869" lon="7.358103240918254"><ele>339.6666666666667</ele><time>2026-04-19T12:30:09.996Z</time></trkpt><trkpt lat="44.90105926057503" lon="7.358183923001606"><ele>338.3333333333333</ele><time>2026-04-19T12:30:10.996Z</time></trkpt><trkpt lat="44.9012033181885" lon="7.35826204340602"><ele>337.0</ele><time>2026-04-19T12:30:11.997Z</time></trkpt><trkpt lat="44.901326611058835" lon="7.358371302946968"><ele>337.0</ele><time>2026-04-19T12:30:12.997Z</time></trkpt><trkpt lat="44.90142692618142" lon="7.358494495587162"><ele>337.0</ele><time>2026-04-19T12:30:13.997Z</time></trkpt><trkpt lat="44.901492226294124" lon="7.358631880583681"><ele>337.0</ele><time>2026-04-19T12:30:14.997Z</time></trkpt><trkpt lat="44.90152659081404" lon="7.358773324772598"><ele>337.0</ele><time>2026-04-19T12:30:15.997Z</time></trkpt><trkpt lat="44.901525090092264" lon="7.3589232392015935"><ele>337.0</ele><time>2026-04-19T12:30:16.997Z</time></trkpt><trkpt lat="44.901499049365476" lon="7.359071142496382"><ele>337.0</ele><time>2026-04-19T12:30:17.998Z</time></trkpt><trkpt lat="44.901470679970025" lon="7.359231635023952"><ele>337.0</ele><time>2026-04-19T12:30:18.998Z</time></trkpt><trkpt lat="44.90148303722556" lon="7.3593839894589115"><ele>337.0</ele><time>2026-04-19T12:30:19.998Z</time></trkpt><trkpt lat="44.901537718626955" lon="7.359523954297855"><ele>337.0</ele><time>2026-04-19T12:30:20.998Z</time></trkpt><trkpt lat="44.90162298714376" lon="7.359624106565013"><ele>337.0</ele><time>2026-04-19T12:30:21.998Z</time></trkpt><trkpt lat="44.901732547460405" lon="7.359683675484096"><ele>337.0</ele><time>2026-04-19T12:30:22.998Z</time></trkpt><trkpt lat="44.90184985068669" lon="7.359691183666125"><ele>337.0</ele><time>2026-04-19T12:30:23.998Z</time></trkpt><trkpt lat="44.90197129236616" lon="7.3596508814713175"><ele>337.0</ele><time>2026-04-19T12:30:24.999Z</time></trkpt><trkpt lat="44.90207403232807" lon="7.359561132285964"><ele>337.20000000000005</ele><time>2026-04-19T12:30:25.999Z</time></trkpt><trkpt lat="44.9021441064665" lon="7.359432992808494"><ele>337.4</ele><time>2026-04-19T12:30:26.999Z</time></trkpt><trkpt lat="44.90218355141442" lon="7.3592977304761655"><ele>337.6</ele><time>2026-04-19T12:30:27.999Z</time></trkpt><trkpt lat="44.90220624727465" lon="7.359162784047471"><ele>337.79999999999995</ele><time>2026-04-19T12:30:28.999Z</time></trkpt><trkpt lat="44.90223484752477" lon="7.3590516076042"><ele>338.0</ele><time>2026-04-19T12:30:29.999Z</time></trkpt><trkpt lat="44.9022872649252" lon="7.358959631801828"><ele>338.0</ele><time>2026-04-19T12:30:30.999Z</time></trkpt><trkpt lat="44.902368193058535" lon="7.35888367065565"><ele>338.0</ele><time>2026-04-19T12:30:31.999Z</time></trkpt><trkpt lat="44.90246748686757" lon="7.3588387430077935"><ele>338.0</ele><time>2026-04-19T12:30:32.999Z</time></trkpt><trkpt lat="44.90257851366392" lon="7.3588049700283875"><ele>338.0</ele><time>2026-04-19T12:30:34Z</time></trkpt><trkpt lat="44.90269926334987" lon="7.358794485620798"><ele>338.0</ele><time>2026-04-19T12:30:35Z</time></trkpt><trkpt lat="44.90281003978715" lon="7.358819954806906"><ele>337.5</ele><time>2026-04-19T12:30:36Z</time></trkpt><trkpt lat="44.9029193417695" lon="7.358867854325277"><ele>337.0</ele><time>2026-04-19T12:30:37Z</time></trkpt><trkpt lat="44.903040015505084" lon="7.3589195018145315"><ele>336.5</ele><time>2026-04-19T12:30:38Z</time></trkpt><trkpt lat="44.90317019309873" lon="7.358975324973276"><ele>336.0</ele><time>2026-04-19T12:30:39Z</time></trkpt><trkpt lat="44.90330548812836" lon="7.359032517114116"><ele>336.25</ele><time>2026-04-19T12:30:40Z</time></trkpt><trkpt lat="44.903434518994196" lon="7.3590841581860955"><ele>336.5</ele><time>2026-04-19T12:30:41Z</time></trkpt><trkpt lat="44.903559226229525" lon="7.359131669631296"><ele>336.75</ele><time>2026-04-19T12:30:42Z</time></trkpt><trkpt lat="44.90368000747618" lon="7.359175527686673"><ele>337.0</ele><time>2026-04-19T12:30:43Z</time></trkpt><trkpt lat="44.90380225199714" lon="7.359223801687578"><ele>337.0</ele><time>2026-04-19T12:30:44Z</time></trkpt><trkpt lat="44.90392827669575" lon="7.359276350261308"><ele>337.0</ele><time>2026-04-19T12:30:45Z</time></trkpt><trkpt lat="44.904055667225315" lon="7.359325993736967"><ele>337.0</ele><time>2026-04-19T12:30:46Z</time></trkpt><trkpt lat="44.90418724588213" lon="7.359378869025539"><ele>337.0</ele><time>2026-04-19T12:30:47Z</time></trkpt><trkpt lat="44.90431734606539" lon="7.359429668485501"><ele>337.75</ele><time>2026-04-19T12:30:48Z</time></trkpt><trkpt lat="44.9044449886205" lon="7.3594817643902015"><ele>338.5</ele><time>2026-04-19T12:30:49Z</time></trkpt><trkpt lat="44.904571079604644" lon="7.359532369041044"><ele>339.25</ele><time>2026-04-19T12:30:50.001Z</time></trkpt><trkpt lat="44.90469741385087" lon="7.359579675737705"><ele>340.0</ele><time>2026-04-19T12:30:51.001Z</time></trkpt><trkpt lat="44.90482176576563" lon="7.359627502957214"><ele>340.0</ele><time>2026-04-19T12:30:52.001Z</time></trkpt><trkpt lat="44.9049473792202" lon="7.359679151536565"><ele>340.0</ele><time>2026-04-19T12:30:53.001Z</time></trkpt><trkpt lat="44.905073976890556" lon="7.359726980643345"><ele>340.0</ele><time>2026-04-19T12:30:54.001Z</time></trkpt><trkpt lat="44.90519407092875" lon="7.359774288451202"><ele>340.0</ele><time>2026-04-19T12:30:55.001Z</time></trkpt><trkpt lat="44.90531168458064" lon="7.359819190037014"><ele>338.5</ele><time>2026-04-19T12:30:56.001Z</time></trkpt><trkpt lat="44.90543399713878" lon="7.359863474925738"><ele>337.0</ele><time>2026-04-19T12:30:57.001Z</time></trkpt><trkpt lat="44.90555471587135" lon="7.359910429704546"><ele>335.5</ele><time>2026-04-19T12:30:58.001Z</time></trkpt><trkpt lat="44.90567365699099" lon="7.3599594103186545"><ele>334.0</ele><time>2026-04-19T12:30:59.001Z</time></trkpt><trkpt lat="44.90579207174923" lon="7.360009011646841"><ele>334.0</ele><time>2026-04-19T12:31:00.001Z</time></trkpt><trkpt lat="44.905909016808174" lon="7.360057398454229"><ele>334.0</ele><time>2026-04-19T12:31:01.001Z</time></trkpt><trkpt lat="44.906023341098305" lon="7.360105286626873"><ele>334.0</ele><time>2026-04-19T12:31:02.001Z</time></trkpt><trkpt lat="44.90613527058175" lon="7.360145521961949"><ele>334.0</ele><time>2026-04-19T12:31:03.001Z</time></trkpt><trkpt lat="44.9062332233793" lon="7.360179645105787"><ele>333.66666666666663</ele><time>2026-04-19T12:31:04.001Z</time></trkpt><trkpt lat="44.90631994593739" lon="7.360211984064178"><ele>333.3333333333333</ele><time>2026-04-19T12:31:05.001Z</time></trkpt><trkpt lat="44.90639221644914" lon="7.360241226939982"><ele>333.0</ele><time>2026-04-19T12:31:06.001Z</time></trkpt><trkpt lat="44.90645478742276" lon="7.360268033532743"><ele>332.6666666666667</ele><time>2026-04-19T12:31:07.001Z</time></trkpt><trkpt lat="44.90651255805336" lon="7.360316456168262"><ele>332.33333333333337</ele><time>2026-04-19T12:31:08.001Z</time></trkpt><trkpt lat="44.90656719024592" lon="7.360385310706503"><ele>332.0</ele><time>2026-04-19T12:31:09.001Z</time></trkpt><trkpt lat="44.90662825447635" lon="7.360486994728626"><ele>332.0</ele><time>2026-04-19T12:31:10.001Z</time></trkpt><trkpt lat="44.906685034065106" lon="7.360612771113466"><ele>332.0</ele><time>2026-04-19T12:31:11.001Z</time></trkpt><trkpt lat="44.90670780683495" lon="7.360786610609305"><ele>332.0</ele><time>2026-04-19T12:31:12.001Z</time></trkpt><trkpt lat="44.90672904218788" lon="7.360976068069912"><ele>332.0</ele><time>2026-04-19T12:31:13.001Z</time></trkpt><trkpt lat="44.90676309298953" lon="7.361174896956122"><ele>331.33333333333337</ele><time>2026-04-19T12:31:14.001Z</time></trkpt><trkpt lat="44.90678627699556" lon="7.36138124802261"><ele>330.6666666666667</ele><time>2026-04-19T12:31:15.002Z</time></trkpt><trkpt lat="44.906805802258305" lon="7.361601282743879"><ele>330.0</ele><time>2026-04-19T12:31:16.002Z</time></trkpt><trkpt lat="44.90682915847483" lon="7.361824047444473"><ele>330.0</ele><time>2026-04-19T12:31:17.002Z</time></trkpt><trkpt lat="44.906849058312666" lon="7.362031150473267"><ele>330.0</ele><time>2026-04-19T12:31:18.002Z</time></trkpt><trkpt lat="44.90686159507927" lon="7.362199395944618"><ele>330.0</ele><time>2026-04-19T12:31:19.002Z</time></trkpt><trkpt lat="44.90688068404588" lon="7.362359811691464"><ele>330.0</ele><time>2026-04-19T12:31:20.002Z</time></trkpt><trkpt lat="44.90690551673333" lon="7.36253562623797"><ele>330.0</ele><time>2026-04-19T12:31:21.002Z</time></trkpt><trkpt lat="44.90693427025154" lon="7.362730497240432"><ele>330.0</ele><time>2026-04-19T12:31:22.002Z</time></trkpt><trkpt lat="44.90696749788765" lon="7.362939323562494"><ele>330.0</ele><time>2026-04-19T12:31:23.002Z</time></trkpt><trkpt lat="44.9070054037273" lon="7.363154205254923"><ele>330.0</ele><time>2026-04-19T12:31:24.002Z</time></trkpt><trkpt lat="44.907050492282735" lon="7.363376070798403"><ele>330.0</ele><time>2026-04-19T12:31:25.002Z</time></trkpt><trkpt lat="44.90710485466406" lon="7.363602100204165"><ele>330.0</ele><time>2026-04-19T12:31:26.002Z</time></trkpt><trkpt lat="44.907168885648105" lon="7.363824709047531"><ele>330.0</ele><time>2026-04-19T12:31:27.002Z</time></trkpt><trkpt lat="44.90723568763855" lon="7.364049385489501"><ele>329.6666666666667</ele><time>2026-04-19T12:31:28.002Z</time></trkpt><trkpt lat="44.90730083109808" lon="7.364279681895751"><ele>329.33333333333337</ele><time>2026-04-19T12:31:29.002Z</time></trkpt><trkpt lat="44.90736404034907" lon="7.364506254833722"><ele>329.0</ele><time>2026-04-19T12:31:30.002Z</time></trkpt><trkpt lat="44.9074329309877" lon="7.364736704115277"><ele>329.0</ele><time>2026-04-19T12:31:31.002Z</time></trkpt><trkpt lat="44.90750656481119" lon="7.364954465294798"><ele>329.0</ele><time>2026-04-19T12:31:32.002Z</time></trkpt><trkpt lat="44.90759070250015" lon="7.365173292448276"><ele>329.0</ele><time>2026-04-19T12:31:33.002Z</time></trkpt><trkpt lat="44.907685612918165" lon="7.365380076546981"><ele>329.6666666666667</ele><time>2026-04-19T12:31:34.002Z</time></trkpt><trkpt lat="44.907785220723895" lon="7.365580251052735"><ele>330.3333333333333</ele><time>2026-04-19T12:31:35.002Z</time></trkpt><trkpt lat="44.90788974001029" lon="7.365772959744545"><ele>331.0</ele><time>2026-04-19T12:31:36.002Z</time></trkpt><trkpt lat="44.90798952114526" lon="7.365954464336739"><ele>331.0</ele><time>2026-04-19T12:31:37.002Z</time></trkpt><trkpt lat="44.908094327450875" lon="7.366143969818723"><ele>331.0</ele><time>2026-04-19T12:31:38.002Z</time></trkpt><trkpt lat="44.908196883363026" lon="7.366338639734445"><ele>331.0</ele><time>2026-04-19T12:31:39.002Z</time></trkpt><trkpt lat="44.90829806378987" lon="7.366538500982586"><ele>330.66666666666663</ele><time>2026-04-19T12:31:40.002Z</time></trkpt><trkpt lat="44.90840832822634" lon="7.366744282453168"><ele>330.3333333333333</ele><time>2026-04-19T12:31:41.002Z</time></trkpt><trkpt lat="44.90850749078017" lon="7.366942274183082"><ele>330.0</ele><time>2026-04-19T12:31:42.002Z</time></trkpt><trkpt lat="44.908613043852824" lon="7.367149839861121"><ele>329.3333333333333</ele><time>2026-04-19T12:31:43.002Z</time></trkpt><trkpt lat="44.90872255570471" lon="7.367358044270148"><ele>328.66666666666663</ele><time>2026-04-19T12:31:44.002Z</time></trkpt><trkpt lat="44.908829692130844" lon="7.367568211205791"><ele>328.0</ele><time>2026-04-19T12:31:45.002Z</time></trkpt><trkpt lat="44.908923700169304" lon="7.367756249179096"><ele>328.0</ele><time>2026-04-19T12:31:46.003Z</time></trkpt><trkpt lat="44.90901257084513" lon="7.367934449728882"><ele>328.0</ele><time>2026-04-19T12:31:47.003Z</time></trkpt><trkpt lat="44.90909665878812" lon="7.368100941230985"><ele>328.0</ele><time>2026-04-19T12:31:48.003Z</time></trkpt><trkpt lat="44.90917518403242" lon="7.368251473185025"><ele>328.0</ele><time>2026-04-19T12:31:49.003Z</time></trkpt><trkpt lat="44.909260961855516" lon="7.3683907082263955"><ele>327.3333333333333</ele><time>2026-04-19T12:31:50.003Z</time></trkpt><trkpt lat="44.909369881946446" lon="7.368526043797314"><ele>326.6666666666667</ele><time>2026-04-19T12:31:51.003Z</time></trkpt><trkpt lat="44.90949904701116" lon="7.36867119958545"><ele>326.0</ele><time>2026-04-19T12:31:52.003Z</time></trkpt><trkpt lat="44.90963102245858" lon="7.368807898013949"><ele>326.0</ele><time>2026-04-19T12:31:53.003Z</time></trkpt><trkpt lat="44.90975263694641" lon="7.368945549973101"><ele>326.0</ele><time>2026-04-19T12:31:54.003Z</time></trkpt><trkpt lat="44.909862780560196" lon="7.369067259517486"><ele>326.0</ele><time>2026-04-19T12:31:55.003Z</time></trkpt><trkpt lat="44.90994758147274" lon="7.369195589485895"><ele>326.0</ele><time>2026-04-19T12:31:56.003Z</time></trkpt><trkpt lat="44.91003281436578" lon="7.3692843591339106"><ele>325.75</ele><time>2026-04-19T12:31:57.003Z</time></trkpt><trkpt lat="44.910109109200434" lon="7.369339082478054"><ele>325.5</ele><time>2026-04-19T12:31:58.003Z</time></trkpt><trkpt lat="44.91018248311173" lon="7.369398594639335"><ele>325.25</ele><time>2026-04-19T12:32:00.003Z</time></trkpt><trkpt lat="44.910132728340486" lon="7.369625029508264"><ele>325.0</ele><time>2026-04-19T12:32:01.003Z</time></trkpt><trkpt lat="44.91013960394628" lon="7.369798989908705"><ele>325.0</ele><time>2026-04-19T12:32:02.003Z</time></trkpt><trkpt lat="44.91013308358207" lon="7.369975076700104"><ele>325.0</ele><time>2026-04-19T12:32:03.003Z</time></trkpt><trkpt lat="44.91013244562062" lon="7.370172870487458"><ele>325.0</ele><time>2026-04-19T12:32:04.003Z</time></trkpt><trkpt lat="44.91013491746368" lon="7.370382768467175"><ele>325.0</ele><time>2026-04-19T12:32:05.003Z</time></trkpt><trkpt lat="44.91013551285532" lon="7.370607480491052"><ele>324.66666666666663</ele><time>2026-04-19T12:32:06.003Z</time></trkpt><trkpt lat="44.91013177730209" lon="7.370847599643833"><ele>324.3333333333333</ele><time>2026-04-19T12:32:07.003Z</time></trkpt><trkpt lat="44.910129870659645" lon="7.371085268956877"><ele>324.0</ele><time>2026-04-19T12:32:08.003Z</time></trkpt><trkpt lat="44.910128562853" lon="7.37134220797569"><ele>324.0</ele><time>2026-04-19T12:32:09.003Z</time></trkpt><trkpt lat="44.91012562196037" lon="7.371604867888767"><ele>324.0</ele><time>2026-04-19T12:32:09.996Z</time></trkpt><trkpt lat="44.91012482038446" lon="7.371869304977518"><ele>324.0</ele><time>2026-04-19T12:32:10.996Z</time></trkpt><trkpt lat="44.91012423470382" lon="7.372110754351843"><ele>324.25</ele><time>2026-04-19T12:32:11.996Z</time></trkpt><trkpt lat="44.91012496372313" lon="7.372332721037836"><ele>324.5</ele><time>2026-04-19T12:32:12.996Z</time></trkpt><trkpt lat="44.91012330591547" lon="7.372538841600279"><ele>324.75</ele><time>2026-04-19T12:32:13.996Z</time></trkpt><trkpt lat="44.910120047811105" lon="7.372714791103661"><ele>325.0</ele><time>2026-04-19T12:32:14.997Z</time></trkpt><trkpt lat="44.91012014825289" lon="7.372865662969987"><ele>325.0</ele><time>2026-04-19T12:32:15.997Z</time></trkpt><trkpt lat="44.91013213952067" lon="7.373001049973604"><ele>325.0</ele><time>2026-04-19T12:32:16.997Z</time></trkpt><trkpt lat="44.91009447650566" lon="7.373119547747783"><ele>325.0</ele><time>2026-04-19T12:32:17.997Z</time></trkpt><trkpt lat="44.91007019467828" lon="7.373265232174159"><ele>325.0</ele><time>2026-04-19T12:32:18.997Z</time></trkpt><trkpt lat="44.91002504135465" lon="7.373384505735922"><ele>325.0</ele><time>2026-04-19T12:32:19.997Z</time></trkpt><trkpt lat="44.90996455663655" lon="7.37343634523876"><ele>322.0</ele><time>2026-04-19T12:32:20.998Z</time></trkpt><trkpt lat="44.910303472706936" lon="7.373870511196804"><ele>322.0</ele><time>2026-04-19T12:32:21.998Z</time></trkpt><trkpt lat="44.910328535068096" lon="7.374056454699269"><ele>322.0</ele><time>2026-04-19T12:32:22.998Z</time></trkpt><trkpt lat="44.910358499804545" lon="7.3742532722334335"><ele>322.0</ele><time>2026-04-19T12:32:23.998Z</time></trkpt><trkpt lat="44.910395925155896" lon="7.374454381339146"><ele>322.0</ele><time>2026-04-19T12:32:24.998Z</time></trkpt><trkpt lat="44.9104338932118" lon="7.374658820247226"><ele>321.75</ele><time>2026-04-19T12:32:25.998Z</time></trkpt><trkpt lat="44.91047004582125" lon="7.374863143757922"><ele>321.5</ele><time>2026-04-19T12:32:26.998Z</time></trkpt><trkpt lat="44.91050340231974" lon="7.375069531917258"><ele>321.25</ele><time>2026-04-19T12:32:27.998Z</time></trkpt><trkpt lat="44.910533251412" lon="7.375263547172819"><ele>321.0</ele><time>2026-04-19T12:32:28.999Z</time></trkpt><trkpt lat="44.910572783213226" lon="7.375468681269311"><ele>321.0</ele><time>2026-04-19T12:32:29.999Z</time></trkpt><trkpt lat="44.910616577251794" lon="7.375663426101681"><ele>321.0</ele><time>2026-04-19T12:32:30.999Z</time></trkpt><trkpt lat="44.91066872520371" lon="7.375862874025263"><ele>321.0</ele><time>2026-04-19T12:32:31.999Z</time></trkpt><trkpt lat="44.910722924482016" lon="7.376059790043669"><ele>321.0</ele><time>2026-04-19T12:32:32.999Z</time></trkpt><trkpt lat="44.91077931231223" lon="7.376252366390554"><ele>320.75</ele><time>2026-04-19T12:32:33.999Z</time></trkpt><trkpt lat="44.910835919407404" lon="7.376454870291149"><ele>320.5</ele><time>2026-04-19T12:32:34.999Z</time></trkpt><trkpt lat="44.91089141869712" lon="7.37664271390548"><ele>320.25</ele><time>2026-04-19T12:32:35.999Z</time></trkpt><trkpt lat="44.9109357723631" lon="7.376838308425514"><ele>320.0</ele><time>2026-04-19T12:32:36.999Z</time></trkpt><trkpt lat="44.910983630426735" lon="7.377043126237677"><ele>320.0</ele><time>2026-04-19T12:32:38Z</time></trkpt><trkpt lat="44.91103380638031" lon="7.377247164133813"><ele>320.0</ele><time>2026-04-19T12:32:39Z</time></trkpt><trkpt lat="44.91109387089771" lon="7.377443998337467"><ele>320.0</ele><time>2026-04-19T12:32:40Z</time></trkpt><trkpt lat="44.91116371269979" lon="7.377634380446981"><ele>320.0</ele><time>2026-04-19T12:32:41Z</time></trkpt><trkpt lat="44.911247867509545" lon="7.377803736127988"><ele>320.0</ele><time>2026-04-19T12:32:42Z</time></trkpt><trkpt lat="44.91133222255054" lon="7.37796459278713"><ele>320.0</ele><time>2026-04-19T12:32:43Z</time></trkpt><trkpt lat="44.91141169857148" lon="7.378132227918028"><ele>320.0</ele><time>2026-04-19T12:32:44Z</time></trkpt><trkpt lat="44.9114754371888" lon="7.378285094348627"><ele>319.75</ele><time>2026-04-19T12:32:45Z</time></trkpt><trkpt lat="44.91155198467857" lon="7.378450450542967"><ele>319.5</ele><time>2026-04-19T12:32:46Z</time></trkpt><trkpt lat="44.91162737522199" lon="7.378634529692313"><ele>319.25</ele><time>2026-04-19T12:32:47Z</time></trkpt><trkpt lat="44.91170006649945" lon="7.378823623818379"><ele>319.0</ele><time>2026-04-19T12:32:48Z</time></trkpt><trkpt lat="44.911785871494935" lon="7.379016362903145"><ele>318.66666666666663</ele><time>2026-04-19T12:32:49Z</time></trkpt><trkpt lat="44.91186885553279" lon="7.379215804199311"><ele>318.3333333333333</ele><time>2026-04-19T12:32:50Z</time></trkpt><trkpt lat="44.91195027778177" lon="7.379403225372339"><ele>318.0</ele><time>2026-04-19T12:32:51Z</time></trkpt><trkpt lat="44.912024566311416" lon="7.379583808661808"><ele>317.75</ele><time>2026-04-19T12:32:52Z</time></trkpt><trkpt lat="44.91210537046966" lon="7.3797634624818516"><ele>317.5</ele><time>2026-04-19T12:32:53Z</time></trkpt><trkpt lat="44.91218011231111" lon="7.379931337819863"><ele>317.25</ele><time>2026-04-19T12:32:54.001Z</time></trkpt><trkpt lat="44.912261901916715" lon="7.3801207925292935"><ele>317.0</ele><time>2026-04-19T12:32:55.001Z</time></trkpt><trkpt lat="44.91234723774679" lon="7.380313922608213"><ele>316.6666666666667</ele><time>2026-04-19T12:32:56.001Z</time></trkpt><trkpt lat="44.91243787895164" lon="7.380517175167078"><ele>316.3333333333333</ele><time>2026-04-19T12:32:57.001Z</time></trkpt><trkpt lat="44.9125231350999" lon="7.3807129071229305"><ele>316.0</ele><time>2026-04-19T12:32:58.001Z</time></trkpt><trkpt lat="44.91259730054778" lon="7.380894798831287"><ele>316.0</ele><time>2026-04-19T12:32:59.001Z</time></trkpt><trkpt lat="44.91266375614567" lon="7.381070931915319"><ele>316.0</ele><time>2026-04-19T12:33:00.001Z</time></trkpt><trkpt lat="44.91273734929518" lon="7.38128227461271"><ele>316.0</ele><time>2026-04-19T12:33:01.001Z</time></trkpt><trkpt lat="44.91280454059354" lon="7.381463940039109"><ele>316.0</ele><time>2026-04-19T12:33:02.001Z</time></trkpt><trkpt lat="44.91288522734938" lon="7.3816630418143205"><ele>316.0</ele><time>2026-04-19T12:33:03.001Z</time></trkpt><trkpt lat="44.912967506335505" lon="7.381861771486794"><ele>316.0</ele><time>2026-04-19T12:33:04.001Z</time></trkpt><trkpt lat="44.9130508173186" lon="7.382063848050592"><ele>316.0</ele><time>2026-04-19T12:33:05.001Z</time></trkpt><trkpt lat="44.9131312425793" lon="7.3822629207234645"><ele>316.0</ele><time>2026-04-19T12:33:06.001Z</time></trkpt><trkpt lat="44.91321049204931" lon="7.382469089704264"><ele>316.0</ele><time>2026-04-19T12:33:07.001Z</time></trkpt><trkpt lat="44.91327856306926" lon="7.38266791236181"><ele>316.0</ele><time>2026-04-19T12:33:08.001Z</time></trkpt><trkpt lat="44.913350056474016" lon="7.382867140627027"><ele>316.0</ele><time>2026-04-19T12:33:09.001Z</time></trkpt><trkpt lat="44.913426298102905" lon="7.38305194993104"><ele>316.0</ele><time>2026-04-19T12:33:10.001Z</time></trkpt><trkpt lat="44.91348499049378" lon="7.383211988895578"><ele>316.0</ele><time>2026-04-19T12:33:11.001Z</time></trkpt><trkpt lat="44.91354057804248" lon="7.383367086215652"><ele>315.6</ele><time>2026-04-19T12:33:12.001Z</time></trkpt><trkpt lat="44.913593238942056" lon="7.383504400103769"><ele>315.20000000000005</ele><time>2026-04-19T12:33:13.001Z</time></trkpt><trkpt lat="44.91363406607922" lon="7.38360572983589"><ele>314.79999999999995</ele><time>2026-04-19T12:33:14.001Z</time></trkpt><trkpt lat="44.91367635046276" lon="7.383675849995961"><ele>314.4</ele><time>2026-04-19T12:33:16.001Z</time></trkpt><trkpt lat="44.913734701038074" lon="7.383641276309618"><ele>314.0</ele><time>2026-04-19T12:33:18.001Z</time></trkpt><trkpt lat="44.91382445305237" lon="7.383501177428491"><ele>314.0</ele><time>2026-04-19T12:33:20.002Z</time></trkpt><trkpt lat="44.91388806244617" lon="7.383438294681029"><ele>314.0</ele><time>2026-04-19T12:33:21.002Z</time></trkpt><trkpt lat="44.913981159476286" lon="7.383494374399242"><ele>314.0</ele><time>2026-04-19T12:33:24.002Z</time></trkpt><trkpt lat="44.914015079380796" lon="7.383602251463543"><ele>314.0</ele><time>2026-04-19T12:33:25.002Z</time></trkpt><trkpt lat="44.9140691199466" lon="7.383715985300545"><ele>314.0</ele><time>2026-04-19T12:33:26.002Z</time></trkpt><trkpt lat="44.914125729345265" lon="7.383830155694513"><ele>314.0</ele><time>2026-04-19T12:33:27.002Z</time></trkpt><trkpt lat="44.914188452900724" lon="7.383960939066093"><ele>314.0</ele><time>2026-04-19T12:33:28.002Z</time></trkpt><trkpt lat="44.9142534979187" lon="7.384105346942087"><ele>314.0</ele><time>2026-04-19T12:33:29.002Z</time></trkpt><trkpt lat="44.91432207995139" lon="7.384255586426814"><ele>314.0</ele><time>2026-04-19T12:33:30.002Z</time></trkpt><trkpt lat="44.91438838266812" lon="7.384403100350883"><ele>313.75</ele><time>2026-04-19T12:33:31.002Z</time></trkpt><trkpt lat="44.91444615112505" lon="7.3845388459398915"><ele>313.5</ele><time>2026-04-19T12:33:32.002Z</time></trkpt><trkpt lat="44.91450789214799" lon="7.384687866259369"><ele>313.25</ele><time>2026-04-19T12:33:33.002Z</time></trkpt><trkpt lat="44.91458297534622" lon="7.384825088124791"><ele>313.0</ele><time>2026-04-19T12:33:34.002Z</time></trkpt><trkpt lat="44.91465429134413" lon="7.3849360831967505"><ele>313.4</ele><time>2026-04-19T12:33:35.002Z</time></trkpt><trkpt lat="44.91472337322694" lon="7.385054374696219"><ele>313.8</ele><time>2026-04-19T12:33:36.002Z</time></trkpt><trkpt lat="44.91479741689391" lon="7.385162107698289"><ele>314.2</ele><time>2026-04-19T12:33:37.002Z</time></trkpt><trkpt lat="44.91486358278647" lon="7.385241560825906"><ele>314.6</ele><time>2026-04-19T12:33:38.002Z</time></trkpt><trkpt lat="44.914927536373625" lon="7.385295246753022"><ele>315.0</ele><time>2026-04-19T12:33:39.002Z</time></trkpt><trkpt lat="44.91505520113555" lon="7.385281602464201"><ele>314.25</ele><time>2026-04-19T12:33:41.002Z</time></trkpt><trkpt lat="44.915142988300815" lon="7.385214520515049"><ele>313.5</ele><time>2026-04-19T12:33:42.002Z</time></trkpt><trkpt lat="44.91526539218739" lon="7.385116612014188"><ele>312.75</ele><time>2026-04-19T12:33:43.002Z</time></trkpt><trkpt lat="44.915382339418066" lon="7.385026375808854"><ele>312.0</ele><time>2026-04-19T12:33:44.002Z</time></trkpt><trkpt lat="44.9155030401797" lon="7.384936165131343"><ele>312.0</ele><time>2026-04-19T12:33:45.002Z</time></trkpt><trkpt lat="44.91561180479892" lon="7.384850141199751"><ele>312.0</ele><time>2026-04-19T12:33:46.002Z</time></trkpt><trkpt lat="44.91568781356912" lon="7.384791146687952"><ele>312.0</ele><time>2026-04-19T12:33:47.002Z</time></trkpt><trkpt lat="44.915775882402635" lon="7.38475429478381"><ele>312.0</ele><time>2026-04-19T12:33:49.002Z</time></trkpt><trkpt lat="44.91583589082855" lon="7.3849263129360265"><ele>312.0</ele><time>2026-04-19T12:33:51.003Z</time></trkpt><trkpt lat="44.91587452293923" lon="7.385080565643192"><ele>311.75</ele><time>2026-04-19T12:33:52.003Z</time></trkpt><trkpt lat="44.915922319012154" lon="7.385250474612126"><ele>311.5</ele><time>2026-04-19T12:33:53.003Z</time></trkpt><trkpt lat="44.915975274676356" lon="7.385428039777353"><ele>311.25</ele><time>2026-04-19T12:33:54.003Z</time></trkpt><trkpt lat="44.91603163686518" lon="7.3856055548500645"><ele>311.0</ele><time>2026-04-19T12:33:55.003Z</time></trkpt><trkpt lat="44.91608988031705" lon="7.385789479515922"><ele>311.0</ele><time>2026-04-19T12:33:56.003Z</time></trkpt><trkpt lat="44.91614868716941" lon="7.385975313448965"><ele>311.0</ele><time>2026-04-19T12:33:57.003Z</time></trkpt><trkpt lat="44.91621040191137" lon="7.38615308659908"><ele>311.0</ele><time>2026-04-19T12:33:58.003Z</time></trkpt><trkpt lat="44.91627484946321" lon="7.3863188807560345"><ele>311.0</ele><time>2026-04-19T12:33:59.003Z</time></trkpt><trkpt lat="44.91633327905476" lon="7.386464393842766"><ele>311.0</ele><time>2026-04-19T12:34:00.003Z</time></trkpt><trkpt lat="44.91639259155624" lon="7.386623914635191"><ele>311.0</ele><time>2026-04-19T12:34:01.003Z</time></trkpt><trkpt lat="44.91645900523757" lon="7.386789140843747"><ele>311.0</ele><time>2026-04-19T12:34:02.003Z</time></trkpt><trkpt lat="44.916524209589184" lon="7.386960409697375"><ele>311.0</ele><time>2026-04-19T12:34:03.003Z</time></trkpt><trkpt lat="44.91659018440081" lon="7.387141489553038"><ele>310.6666666666667</ele><time>2026-04-19T12:34:04.003Z</time></trkpt><trkpt lat="44.916662866307874" lon="7.387329100421871"><ele>310.3333333333333</ele><time>2026-04-19T12:34:05.003Z</time></trkpt><trkpt lat="44.91673671579342" lon="7.387514952722421"><ele>310.0</ele><time>2026-04-19T12:34:06.003Z</time></trkpt><trkpt lat="44.916809918319764" lon="7.387701371551619"><ele>310.0</ele><time>2026-04-19T12:34:07.003Z</time></trkpt><trkpt lat="44.91688627688495" lon="7.387885340162995"><ele>310.0</ele><time>2026-04-19T12:34:08.003Z</time></trkpt><trkpt lat="44.91696216703267" lon="7.38807176179766"><ele>310.0</ele><time>2026-04-19T12:34:09.003Z</time></trkpt><trkpt lat="44.91703635940849" lon="7.3882620586158065"><ele>309.5</ele><time>2026-04-19T12:34:10.003Z</time></trkpt><trkpt lat="44.91710964311928" lon="7.388452568257136"><ele>309.0</ele><time>2026-04-19T12:34:11.003Z</time></trkpt><trkpt lat="44.91717918408016" lon="7.3886194952783955"><ele>308.5</ele><time>2026-04-19T12:34:12.003Z</time></trkpt><trkpt lat="44.917250587124244" lon="7.388787721719242"><ele>308.0</ele><time>2026-04-19T12:34:13.003Z</time></trkpt><trkpt lat="44.91731158934366" lon="7.388951917674709"><ele>308.0</ele><time>2026-04-19T12:34:14.003Z</time></trkpt><trkpt lat="44.91736585733338" lon="7.389094290100486"><ele>308.0</ele><time>2026-04-19T12:34:15.003Z</time></trkpt><trkpt lat="44.91741501578798" lon="7.389221182035592"><ele>308.0</ele><time>2026-04-19T12:34:15.996Z</time></trkpt><trkpt lat="44.91745569920456" lon="7.389330096280233"><ele>308.0</ele><time>2026-04-19T12:34:16.997Z</time></trkpt><trkpt lat="44.91754099887452" lon="7.389396860282471"><ele>308.0</ele><time>2026-04-19T12:34:18.997Z</time></trkpt><trkpt lat="44.91764304464796" lon="7.389352991939613"><ele>308.0</ele><time>2026-04-19T12:34:20.997Z</time></trkpt><trkpt lat="44.91772304411361" lon="7.389285591220637"><ele>308.0</ele><time>2026-04-19T12:34:21.997Z</time></trkpt><trkpt lat="44.917828320594" lon="7.389206295683591"><ele>308.0</ele><time>2026-04-19T12:34:22.998Z</time></trkpt><trkpt lat="44.91794604045105" lon="7.389125076363322"><ele>308.0</ele><time>2026-04-19T12:34:23.998Z</time></trkpt><trkpt lat="44.91806738102273" lon="7.389026684088747"><ele>308.0</ele><time>2026-04-19T12:34:24.998Z</time></trkpt><trkpt lat="44.91818861896002" lon="7.388919640055745"><ele>308.0</ele><time>2026-04-19T12:34:25.998Z</time></trkpt><trkpt lat="44.91831139452118" lon="7.388810555245168"><ele>308.0</ele><time>2026-04-19T12:34:26.998Z</time></trkpt><trkpt lat="44.9184375505079" lon="7.388698750418239"><ele>308.0</ele><time>2026-04-19T12:34:27.998Z</time></trkpt><trkpt lat="44.91857327691964" lon="7.388579071006448"><ele>307.75</ele><time>2026-04-19T12:34:28.998Z</time></trkpt><trkpt lat="44.91870678243286" lon="7.3884661011372605"><ele>307.5</ele><time>2026-04-19T12:34:29.998Z</time></trkpt><trkpt lat="44.918841187089306" lon="7.388348509873693"><ele>307.25</ele><time>2026-04-19T12:34:30.998Z</time></trkpt><trkpt lat="44.918956130285906" lon="7.388248652776484"><ele>307.0</ele><time>2026-04-19T12:34:31.999Z</time></trkpt><trkpt lat="44.919057837406584" lon="7.388164761755823"><ele>307.0</ele><time>2026-04-19T12:34:32.999Z</time></trkpt><trkpt lat="44.919135269789045" lon="7.388095629956589"><ele>307.0</ele><time>2026-04-19T12:34:33.999Z</time></trkpt><trkpt lat="44.91919424403671" lon="7.388051682557744"><ele>307.0</ele><time>2026-04-19T12:34:34.999Z</time></trkpt><trkpt lat="44.91927112130305" lon="7.388090755226476"><ele>307.0</ele><time>2026-04-19T12:34:36.999Z</time></trkpt><trkpt lat="44.91928568109471" lon="7.38818374067671"><ele>307.0</ele><time>2026-04-19T12:34:37.999Z</time></trkpt><trkpt lat="44.91931055739102" lon="7.388314694429445"><ele>307.0</ele><time>2026-04-19T12:34:38.999Z</time></trkpt><trkpt lat="44.91935423522625" lon="7.388469533567556"><ele>307.0</ele><time>2026-04-19T12:34:39.999Z</time></trkpt><trkpt lat="44.91941006862289" lon="7.3886341645506555"><ele>307.0</ele><time>2026-04-19T12:34:40.999Z</time></trkpt><trkpt lat="44.919471505526765" lon="7.388804021363801"><ele>307.0</ele><time>2026-04-19T12:34:42Z</time></trkpt><trkpt lat="44.91954078024087" lon="7.388989619248059"><ele>307.0</ele><time>2026-04-19T12:34:43Z</time></trkpt><trkpt lat="44.91961232764463" lon="7.389181033660343"><ele>306.66666666666663</ele><time>2026-04-19T12:34:44Z</time></trkpt><trkpt lat="44.919683749426" lon="7.389375195551652"><ele>306.3333333333333</ele><time>2026-04-19T12:34:45Z</time></trkpt><trkpt lat="44.91975678050139" lon="7.389574909483873"><ele>306.0</ele><time>2026-04-19T12:34:46Z</time></trkpt><trkpt lat="44.91981309538917" lon="7.38977987058074"><ele>306.0</ele><time>2026-04-19T12:34:47Z</time></trkpt><trkpt lat="44.9198536608119" lon="7.390003520029369"><ele>306.0</ele><time>2026-04-19T12:34:48Z</time></trkpt><trkpt lat="44.91989000138105" lon="7.390245898504233"><ele>306.0</ele><time>2026-04-19T12:34:49Z</time></trkpt><trkpt lat="44.91992466872667" lon="7.390481667147975"><ele>305.6666666666667</ele><time>2026-04-19T12:34:50Z</time></trkpt><trkpt lat="44.919967526586355" lon="7.390733300192259"><ele>305.33333333333337</ele><time>2026-04-19T12:34:51Z</time></trkpt><trkpt lat="44.92001400748748" lon="7.390997487344412"><ele>305.0</ele><time>2026-04-19T12:34:52Z</time></trkpt><trkpt lat="44.92005912680499" lon="7.391257578305502"><ele>304.6666666666667</ele><time>2026-04-19T12:34:53Z</time></trkpt><trkpt lat="44.920108314491884" lon="7.391523488307483"><ele>304.3333333333333</ele><time>2026-04-19T12:34:54Z</time></trkpt><trkpt lat="44.92015910041869" lon="7.391787776088899"><ele>304.0</ele><time>2026-04-19T12:34:55Z</time></trkpt><trkpt lat="44.92020683834816" lon="7.392046060946737"><ele>304.0</ele><time>2026-04-19T12:34:56Z</time></trkpt><trkpt lat="44.92025106985052" lon="7.392279551367896"><ele>304.0</ele><time>2026-04-19T12:34:57Z</time></trkpt><trkpt lat="44.9202941783287" lon="7.392485207558441"><ele>304.0</ele><time>2026-04-19T12:34:58.001Z</time></trkpt><trkpt lat="44.92033180269795" lon="7.392652227415906"><ele>304.0</ele><time>2026-04-19T12:34:59.001Z</time></trkpt><trkpt lat="44.920352832476155" lon="7.3927729888652385"><ele>304.0</ele><time>2026-04-19T12:35:00.001Z</time></trkpt><trkpt lat="44.92034803254614" lon="7.392892029592134"><ele>304.0</ele><time>2026-04-19T12:35:02.001Z</time></trkpt><trkpt lat="44.92024802392785" lon="7.392896352728158"><ele>304.0</ele><time>2026-04-19T12:35:03.001Z</time></trkpt><trkpt lat="44.92015237349885" lon="7.392948624545208"><ele>304.0</ele><time>2026-04-19T12:35:04.001Z</time></trkpt><trkpt lat="44.92006513921308" lon="7.393058648930086"><ele>304.0</ele><time>2026-04-19T12:35:05.001Z</time></trkpt><trkpt lat="44.91999732865187" lon="7.393180919698094"><ele>304.0</ele><time>2026-04-19T12:35:06.001Z</time></trkpt><trkpt lat="44.919980178363254" lon="7.3933409211478045"><ele>304.0</ele><time>2026-04-19T12:35:07.001Z</time></trkpt><trkpt lat="44.91999007563063" lon="7.393504879699192"><ele>304.0</ele><time>2026-04-19T12:35:08.001Z</time></trkpt><trkpt lat="44.9200337284717" lon="7.393677051940977"><ele>304.0</ele><time>2026-04-19T12:35:09.001Z</time></trkpt><trkpt lat="44.92010989686864" lon="7.393844674261326"><ele>304.0</ele><time>2026-04-19T12:35:10.001Z</time></trkpt><trkpt lat="44.92020832740447" lon="7.394010190952138"><ele>304.0</ele><time>2026-04-19T12:35:11.001Z</time></trkpt><trkpt lat="44.92031238396936" lon="7.394179651322891"><ele>304.0</ele><time>2026-04-19T12:35:12.001Z</time></trkpt><trkpt lat="44.92040279587867" lon="7.394359686866387"><ele>304.0</ele><time>2026-04-19T12:35:13.001Z</time></trkpt><trkpt lat="44.92048254894628" lon="7.394559781551049"><ele>304.0</ele><time>2026-04-19T12:35:14.001Z</time></trkpt><trkpt lat="44.92054935348782" lon="7.394768999602533"><ele>304.0</ele><time>2026-04-19T12:35:15.001Z</time></trkpt><trkpt lat="44.92060935453326" lon="7.394969810277394"><ele>304.0</ele><time>2026-04-19T12:35:16.001Z</time></trkpt><trkpt lat="44.92067685030178" lon="7.3951645447378995"><ele>304.0</ele><time>2026-04-19T12:35:17.001Z</time></trkpt><trkpt lat="44.92075682679188" lon="7.395345088253867"><ele>304.0</ele><time>2026-04-19T12:35:18.001Z</time></trkpt><trkpt lat="44.92084936945356" lon="7.395507730674888"><ele>304.0</ele><time>2026-04-19T12:35:19.001Z</time></trkpt><trkpt lat="44.92094759616077" lon="7.3956742100511725"><ele>304.0</ele><time>2026-04-19T12:35:20.001Z</time></trkpt><trkpt lat="44.921045550428126" lon="7.395841347342042"><ele>304.0</ele><time>2026-04-19T12:35:21.001Z</time></trkpt><trkpt lat="44.92113909875761" lon="7.396014472814817"><ele>304.0</ele><time>2026-04-19T12:35:22.001Z</time></trkpt><trkpt lat="44.92122764237222" lon="7.396181031808538"><ele>304.0</ele><time>2026-04-19T12:35:23.001Z</time></trkpt><trkpt lat="44.92130807194188" lon="7.396343838752392"><ele>304.0</ele><time>2026-04-19T12:35:24.002Z</time></trkpt><trkpt lat="44.92138064819612" lon="7.396495545891946"><ele>304.0</ele><time>2026-04-19T12:35:25.002Z</time></trkpt><trkpt lat="44.92143084167834" lon="7.39667661049805"><ele>304.0</ele><time>2026-04-19T12:35:26.002Z</time></trkpt><trkpt lat="44.92146838568002" lon="7.3968701805222565"><ele>304.0</ele><time>2026-04-19T12:35:27.002Z</time></trkpt><trkpt lat="44.92150329548116" lon="7.3970742841765995"><ele>304.0</ele><time>2026-04-19T12:35:28.002Z</time></trkpt><trkpt lat="44.92153768939098" lon="7.39727958754022"><ele>304.0</ele><time>2026-04-19T12:35:29.002Z</time></trkpt><trkpt lat="44.92157434492898" lon="7.397499702365259"><ele>303.0</ele><time>2026-04-19T12:35:30.002Z</time></trkpt><trkpt lat="44.92161068155551" lon="7.397727418038516"><ele>302.0</ele><time>2026-04-19T12:35:31.002Z</time></trkpt><trkpt lat="44.92170264574762" lon="7.39793136354092"><ele>301.0</ele><time>2026-04-19T12:35:32.002Z</time></trkpt><trkpt lat="44.92178678314456" lon="7.39813617315714"><ele>300.5</ele><time>2026-04-19T12:35:33.002Z</time></trkpt><trkpt lat="44.921852252621456" lon="7.398326994169996"><ele>300.0</ele><time>2026-04-19T12:35:34.002Z</time></trkpt><trkpt lat="44.921932864719686" lon="7.398490348585101"><ele>299.5</ele><time>2026-04-19T12:35:35.002Z</time></trkpt><trkpt lat="44.922022385143144" lon="7.398627009338299"><ele>299.0</ele><time>2026-04-19T12:35:36.002Z</time></trkpt><trkpt lat="44.922087522071834" lon="7.398756668202255"><ele>299.0</ele><time>2026-04-19T12:35:37.002Z</time></trkpt><trkpt lat="44.92213621926161" lon="7.398864533790234"><ele>299.0</ele><time>2026-04-19T12:35:38.002Z</time></trkpt><trkpt lat="44.92217499463716" lon="7.398936252274365"><ele>299.0</ele><time>2026-04-19T12:35:39.002Z</time></trkpt><trkpt lat="44.922330277819256" lon="7.398989918086989"><ele>299.0</ele><time>2026-04-19T12:35:48.002Z</time></trkpt><trkpt lat="44.92239827602753" lon="7.398948197395736"><ele>299.0</ele><time>2026-04-19T12:35:49.002Z</time></trkpt><trkpt lat="44.922485178342605" lon="7.398890734331509"><ele>298.5</ele><time>2026-04-19T12:35:50.002Z</time></trkpt><trkpt lat="44.92258874567106" lon="7.398822933433026"><ele>298.0</ele><time>2026-04-19T12:35:51.002Z</time></trkpt><trkpt lat="44.922711163515466" lon="7.3987448463301755"><ele>297.5</ele><time>2026-04-19T12:35:52.002Z</time></trkpt><trkpt lat="44.92284673887412" lon="7.398661850180834"><ele>297.0</ele><time>2026-04-19T12:35:53.002Z</time></trkpt><trkpt lat="44.92299424095331" lon="7.398577290996862"><ele>297.0</ele><time>2026-04-19T12:35:54.002Z</time></trkpt><trkpt lat="44.92314648510757" lon="7.398490544905331"><ele>297.0</ele><time>2026-04-19T12:35:55.002Z</time></trkpt><trkpt lat="44.92330176466439" lon="7.398402052810341"><ele>297.0</ele><time>2026-04-19T12:35:56.003Z</time></trkpt><trkpt lat="44.923460847190334" lon="7.398312619445547"><ele>297.3333333333333</ele><time>2026-04-19T12:35:57.003Z</time></trkpt><trkpt lat="44.92362184127978" lon="7.3982261827438816"><ele>297.66666666666663</ele><time>2026-04-19T12:35:58.003Z</time></trkpt><trkpt lat="44.92378498935696" lon="7.398143746192846"><ele>298.0</ele><time>2026-04-19T12:35:59.003Z</time></trkpt><trkpt lat="44.92394748993347" lon="7.3980595386462005"><ele>297.66666666666663</ele><time>2026-04-19T12:36:00.003Z</time></trkpt><trkpt lat="44.924107442259285" lon="7.397974962536344"><ele>297.3333333333333</ele><time>2026-04-19T12:36:01.003Z</time></trkpt><trkpt lat="44.92427090638802" lon="7.397907379123131"><ele>297.0</ele><time>2026-04-19T12:36:02.003Z</time></trkpt><trkpt lat="44.92443277331822" lon="7.397862146993654"><ele>297.0</ele><time>2026-04-19T12:36:03.003Z</time></trkpt><trkpt lat="44.92459520561616" lon="7.397827659882093"><ele>297.0</ele><time>2026-04-19T12:36:04.003Z</time></trkpt><trkpt lat="44.92476361166086" lon="7.397810814127557"><ele>297.0</ele><time>2026-04-19T12:36:05.003Z</time></trkpt><trkpt lat="44.92491678625476" lon="7.397805830560802"><ele>297.0</ele><time>2026-04-19T12:36:06.003Z</time></trkpt><trkpt lat="44.92504084349048" lon="7.397810891673267"><ele>297.0</ele><time>2026-04-19T12:36:07.003Z</time></trkpt><trkpt lat="44.925131665206365" lon="7.397820838176504"><ele>297.0</ele><time>2026-04-19T12:36:08.003Z</time></trkpt><trkpt lat="44.9252038457173" lon="7.397851073520837"><ele>297.0</ele><time>2026-04-19T12:36:09.003Z</time></trkpt><trkpt lat="44.925274595388366" lon="7.3979356684437665"><ele>297.0</ele><time>2026-04-19T12:36:10.003Z</time></trkpt><trkpt lat="44.9253540677393" lon="7.3980586215233775"><ele>296.25</ele><time>2026-04-19T12:36:11.003Z</time></trkpt><trkpt lat="44.92541402505252" lon="7.398226234212552"><ele>295.5</ele><time>2026-04-19T12:36:12.003Z</time></trkpt><trkpt lat="44.925515008005" lon="7.398348198965111"><ele>294.75</ele><time>2026-04-19T12:36:13.003Z</time></trkpt><trkpt lat="44.92559653155189" lon="7.398479922581464"><ele>294.0</ele><time>2026-04-19T12:36:14.003Z</time></trkpt><trkpt lat="44.92565892483031" lon="7.398561572926095"><ele>294.0</ele><time>2026-04-19T12:36:15.003Z</time></trkpt><trkpt lat="44.92573366140222" lon="7.398603963216227"><ele>294.0</ele><time>2026-04-19T12:36:19.003Z</time></trkpt><trkpt lat="44.92581032722935" lon="7.398601885776369"><ele>294.0</ele><time>2026-04-19T12:36:22.996Z</time></trkpt><trkpt lat="44.92588830489247" lon="7.398620685525758"><ele>294.0</ele><time>2026-04-19T12:36:25.997Z</time></trkpt><trkpt lat="44.92595652009995" lon="7.398625330565341"><ele>294.0</ele><time>2026-04-19T12:36:27.997Z</time></trkpt><trkpt lat="44.92604200763222" lon="7.398621337916071"><ele>294.0</ele><time>2026-04-19T12:36:29.998Z</time></trkpt><trkpt lat="44.92615054966063" lon="7.398613809575516"><ele>293.6666666666667</ele><time>2026-04-19T12:36:39.999Z</time></trkpt><trkpt lat="44.92622054474532" lon="7.3986096395538326"><ele>293.3333333333333</ele><time>2026-04-19T12:36:40.999Z</time></trkpt><trkpt lat="44.92629724525521" lon="7.398602217026415"><ele>293.0</ele><time>2026-04-19T12:36:41.999Z</time></trkpt><trkpt lat="44.92638557182434" lon="7.398594280789759"><ele>292.66666666666663</ele><time>2026-04-19T12:36:42.999Z</time></trkpt><trkpt lat="44.926474104820436" lon="7.398596803094259"><ele>292.3333333333333</ele><time>2026-04-19T12:36:43.999Z</time></trkpt><trkpt lat="44.92653789395759" lon="7.398610049761303"><ele>292.0</ele><time>2026-04-19T12:36:44.999Z</time></trkpt><trkpt lat="44.92658926979584" lon="7.39869233217025"><ele>292.5</ele><time>2026-04-19T12:36:47.999Z</time></trkpt><trkpt lat="44.92657688827704" lon="7.398867933914004"><ele>293.0</ele><time>2026-04-19T12:36:51Z</time></trkpt><trkpt lat="44.926571079133616" lon="7.399034696148336"><ele>293.5</ele><time>2026-04-19T12:36:53Z</time></trkpt><trkpt lat="44.926549603396424" lon="7.399176254285788"><ele>294.0</ele><time>2026-04-19T12:36:54Z</time></trkpt><trkpt lat="44.92656563306602" lon="7.399339187834684"><ele>294.0</ele><time>2026-04-19T12:36:55Z</time></trkpt><trkpt lat="44.92657426939785" lon="7.399547569952034"><ele>294.0</ele><time>2026-04-19T12:36:56Z</time></trkpt><trkpt lat="44.92660229982293" lon="7.399780163020401"><ele>294.0</ele><time>2026-04-19T12:36:57Z</time></trkpt><trkpt lat="44.926658189162616" lon="7.400018629420244"><ele>294.0</ele><time>2026-04-19T12:36:58Z</time></trkpt><trkpt lat="44.92673466253506" lon="7.400259820241078"><ele>294.0</ele><time>2026-04-19T12:36:59Z</time></trkpt><trkpt lat="44.9267940152223" lon="7.400433057478106"><ele>294.0</ele><time>2026-04-19T12:37:00Z</time></trkpt><trkpt lat="44.92682419775954" lon="7.400519788974967"><ele>294.0</ele><time>2026-04-19T12:37:01Z</time></trkpt><trkpt lat="44.92694026209272" lon="7.400475268834585"><ele>294.0</ele><time>2026-04-19T12:37:05.001Z</time></trkpt><trkpt lat="44.92705213339574" lon="7.400446813060689"><ele>294.0</ele><time>2026-04-19T12:37:06.001Z</time></trkpt><trkpt lat="44.92719424184653" lon="7.400404445245276"><ele>294.0</ele><time>2026-04-19T12:37:07.001Z</time></trkpt><trkpt lat="44.92737179540496" lon="7.40035748606693"><ele>294.0</ele><time>2026-04-19T12:37:08.001Z</time></trkpt><trkpt lat="44.92757445879045" lon="7.400305537841118"><ele>294.0</ele><time>2026-04-19T12:37:09.001Z</time></trkpt><trkpt lat="44.927741486916794" lon="7.400235549419812"><ele>294.0</ele><time>2026-04-19T12:37:10.001Z</time></trkpt><trkpt lat="44.9278833946717" lon="7.4002000340599"><ele>294.0</ele><time>2026-04-19T12:37:11.001Z</time></trkpt><trkpt lat="44.928010405182775" lon="7.400170035911672"><ele>294.0</ele><time>2026-04-19T12:37:12.001Z</time></trkpt><trkpt lat="44.928119462115326" lon="7.400133712870814"><ele>294.0</ele><time>2026-04-19T12:37:13.001Z</time></trkpt><trkpt lat="44.92822135949487" lon="7.400121224297815"><ele>294.0</ele><time>2026-04-19T12:37:14.001Z</time></trkpt><trkpt lat="44.92830018282207" lon="7.400060727910095"><ele>294.0</ele><time>2026-04-19T12:37:15.001Z</time></trkpt><trkpt lat="44.92834758367483" lon="7.3999951429026165"><ele>294.0</ele><time>2026-04-19T12:37:16.001Z</time></trkpt><trkpt lat="44.92835944961591" lon="7.399903161482208"><ele>294.0</ele><time>2026-04-19T12:37:17.001Z</time></trkpt><trkpt lat="44.928323625507" lon="7.399781343251471"><ele>294.0</ele><time>2026-04-19T12:37:18.001Z</time></trkpt><trkpt lat="44.928304445659585" lon="7.399644158928234"><ele>294.0</ele><time>2026-04-19T12:37:19.001Z</time></trkpt><trkpt lat="44.9283503889026" lon="7.399500382121058"><ele>294.0</ele><time>2026-04-19T12:37:21.001Z</time></trkpt><trkpt lat="44.928419913280194" lon="7.399434008326191"><ele>294.0</ele><time>2026-04-19T12:37:22.001Z</time></trkpt><trkpt lat="44.92854696940271" lon="7.399400236997058"><ele>294.0</ele><time>2026-04-19T12:37:23.001Z</time></trkpt><trkpt lat="44.92871845931565" lon="7.399326839088777"><ele>294.3333333333333</ele><time>2026-04-19T12:37:24.001Z</time></trkpt><trkpt lat="44.9289029702006" lon="7.399247868123813"><ele>294.66666666666663</ele><time>2026-04-19T12:37:25.001Z</time></trkpt><trkpt lat="44.9291077096214" lon="7.3991535725486015"><ele>295.0</ele><time>2026-04-19T12:37:26.001Z</time></trkpt><trkpt lat="44.92924322146446" lon="7.399099873284689"><ele>295.16666666666663</ele><time>2026-04-19T12:37:27.001Z</time></trkpt><trkpt lat="44.929324578224005" lon="7.399085086389405"><ele>295.3333333333333</ele><time>2026-04-19T12:37:28.001Z</time></trkpt><trkpt lat="44.9293929553152" lon="7.3991234070422"><ele>295.5</ele><time>2026-04-19T12:37:30.001Z</time></trkpt><trkpt lat="44.92942084640565" lon="7.399280907990045"><ele>295.6666666666667</ele><time>2026-04-19T12:37:32.002Z</time></trkpt><trkpt lat="44.929446422464025" lon="7.399406492654417"><ele>295.83333333333337</ele><time>2026-04-19T12:37:33.002Z</time></trkpt><trkpt lat="44.929479763708436" lon="7.399492419665515"><ele>296.0</ele><time>2026-04-19T12:37:34.002Z</time></trkpt><trkpt lat="44.92958189917812" lon="7.399552793895793"><ele>296.0</ele><time>2026-04-19T12:37:36.002Z</time></trkpt><trkpt lat="44.929693656356385" lon="7.399509610519994"><ele>296.0</ele><time>2026-04-19T12:37:38.002Z</time></trkpt><trkpt lat="44.92976241296645" lon="7.399492832147497"><ele>296.0</ele><time>2026-04-19T12:37:39.002Z</time></trkpt><trkpt lat="44.92983007990064" lon="7.399461206423387"><ele>296.0</ele><time>2026-04-19T12:37:40.002Z</time></trkpt><trkpt lat="44.92989811427281" lon="7.399426438255614"><ele>296.0</ele><time>2026-04-19T12:37:41.002Z</time></trkpt><trkpt lat="44.92995791043908" lon="7.399372573813471"><ele>296.0</ele><time>2026-04-19T12:37:42.002Z</time></trkpt><trkpt lat="44.93003947928042" lon="7.399341693180888"><ele>296.0</ele><time>2026-04-19T12:37:44.002Z</time></trkpt><trkpt lat="44.929907464090626" lon="7.399417459239626"><ele>296.0</ele><time>2026-04-19T12:37:57.002Z</time></trkpt><trkpt lat="44.929812470597916" lon="7.399446891167468"><ele>296.0</ele><time>2026-04-19T12:37:58.002Z</time></trkpt><trkpt lat="44.92972600993313" lon="7.399482055736752"><ele>296.0</ele><time>2026-04-19T12:37:59.002Z</time></trkpt><trkpt lat="44.929648084037446" lon="7.399503673285598"><ele>296.0</ele><time>2026-04-19T12:38:00.002Z</time></trkpt><trkpt lat="44.9295507644353" lon="7.399546184336083"><ele>296.0</ele><time>2026-04-19T12:38:02.002Z</time></trkpt><trkpt lat="44.929540540964645" lon="7.399654013553986"><ele>296.0</ele><time>2026-04-19T12:38:04.003Z</time></trkpt><trkpt lat="44.929573634126" lon="7.39975509200464"><ele>296.0</ele><time>2026-04-19T12:38:05.003Z</time></trkpt><trkpt lat="44.92959390592039" lon="7.399884600075596"><ele>296.0</ele><time>2026-04-19T12:38:06.003Z</time></trkpt><trkpt lat="44.92963994086371" lon="7.400011146087737"><ele>296.0</ele><time>2026-04-19T12:38:07.003Z</time></trkpt><trkpt lat="44.92966840503362" lon="7.400166553439887"><ele>296.0</ele><time>2026-04-19T12:38:08.003Z</time></trkpt><trkpt lat="44.929718352964734" lon="7.4003353117683215"><ele>296.0</ele><time>2026-04-19T12:38:09.003Z</time></trkpt><trkpt lat="44.92976604714196" lon="7.400526926914474"><ele>296.0</ele><time>2026-04-19T12:38:10.003Z</time></trkpt><trkpt lat="44.92981830660218" lon="7.400730716450977"><ele>296.0</ele><time>2026-04-19T12:38:11.003Z</time></trkpt><trkpt lat="44.9298756158354" lon="7.400948516135698"><ele>295.6666666666667</ele><time>2026-04-19T12:38:12.003Z</time></trkpt><trkpt lat="44.92992869715135" lon="7.4011557369615675"><ele>295.3333333333333</ele><time>2026-04-19T12:38:13.003Z</time></trkpt><trkpt lat="44.92998348867612" lon="7.401356276206326"><ele>295.0</ele><time>2026-04-19T12:38:14.003Z</time></trkpt><trkpt lat="44.930043430079685" lon="7.4015672368733885"><ele>295.0</ele><time>2026-04-19T12:38:15.003Z</time></trkpt><trkpt lat="44.93009742146721" lon="7.401774815544682"><ele>295.0</ele><time>2026-04-19T12:38:16.003Z</time></trkpt><trkpt lat="44.93015705447272" lon="7.40199305857773"><ele>295.0</ele><time>2026-04-19T12:38:17.003Z</time></trkpt><trkpt lat="44.93021627452976" lon="7.402222994645717"><ele>294.3333333333333</ele><time>2026-04-19T12:38:18.003Z</time></trkpt><trkpt lat="44.930283401097974" lon="7.402442361077502"><ele>293.6666666666667</ele><time>2026-04-19T12:38:19.003Z</time></trkpt><trkpt lat="44.930347478591344" lon="7.402672578869004"><ele>293.0</ele><time>2026-04-19T12:38:20.003Z</time></trkpt><trkpt lat="44.93041547680462" lon="7.402908645475046"><ele>293.0</ele><time>2026-04-19T12:38:21.003Z</time></trkpt><trkpt lat="44.930479327956164" lon="7.403138281680216"><ele>293.0</ele><time>2026-04-19T12:38:22.003Z</time></trkpt><trkpt lat="44.930543442921106" lon="7.403366913256099"><ele>293.0</ele><time>2026-04-19T12:38:23.003Z</time></trkpt><trkpt lat="44.93060828821072" lon="7.403583633380855"><ele>293.0</ele><time>2026-04-19T12:38:24.003Z</time></trkpt><trkpt lat="44.9306583527892" lon="7.403753199310183"><ele>293.0</ele><time>2026-04-19T12:38:25.003Z</time></trkpt><trkpt lat="44.93070357287343" lon="7.403882434510823"><ele>293.0</ele><time>2026-04-19T12:38:26.003Z</time></trkpt><trkpt lat="44.930737250827434" lon="7.403986061214001"><ele>293.0</ele><time>2026-04-19T12:38:27.003Z</time></trkpt><trkpt lat="44.93071599554765" lon="7.404103657297531"><ele>293.0</ele><time>2026-04-19T12:38:28.996Z</time></trkpt><trkpt lat="44.93057698644382" lon="7.404151060828853"><ele>292.8</ele><time>2026-04-19T12:38:29.996Z</time></trkpt><trkpt lat="44.930489522558176" lon="7.404261537494289"><ele>292.6</ele><time>2026-04-19T12:38:30.997Z</time></trkpt><trkpt lat="44.930438267270944" lon="7.4043548541850095"><ele>292.4</ele><time>2026-04-19T12:38:31.997Z</time></trkpt><trkpt lat="44.93043773394503" lon="7.404455608075516"><ele>292.2</ele><time>2026-04-19T12:38:32.997Z</time></trkpt><trkpt lat="44.93046905553084" lon="7.404585184647497"><ele>292.0</ele><time>2026-04-19T12:38:33.997Z</time></trkpt><trkpt lat="44.93051003490193" lon="7.404748922579755"><ele>292.0</ele><time>2026-04-19T12:38:34.997Z</time></trkpt><trkpt lat="44.930544015364205" lon="7.40496520122648"><ele>292.0</ele><time>2026-04-19T12:38:35.997Z</time></trkpt><trkpt lat="44.93058777370738" lon="7.405236549085609"><ele>292.0</ele><time>2026-04-19T12:38:36.997Z</time></trkpt><trkpt lat="44.930628916559535" lon="7.405537264539786"><ele>290.5</ele><time>2026-04-19T12:38:37.998Z</time></trkpt><trkpt lat="44.930666582714444" lon="7.405851648837945"><ele>289.0</ele><time>2026-04-19T12:38:38.998Z</time></trkpt><trkpt lat="44.93070235861509" lon="7.40617125716716"><ele>288.66666666666663</ele><time>2026-04-19T12:38:39.998Z</time></trkpt><trkpt lat="44.93073415166009" lon="7.406440209282433"><ele>288.3333333333333</ele><time>2026-04-19T12:38:40.998Z</time></trkpt><trkpt lat="44.93076550224181" lon="7.40663108863075"><ele>288.0</ele><time>2026-04-19T12:38:41.998Z</time></trkpt><trkpt lat="44.93081303352403" lon="7.406798024183985"><ele>288.0</ele><time>2026-04-19T12:38:42.998Z</time></trkpt><trkpt lat="44.93089444047465" lon="7.4069932805959136"><ele>288.0</ele><time>2026-04-19T12:38:43.998Z</time></trkpt><trkpt lat="44.93097544510031" lon="7.407204811187583"><ele>288.0</ele><time>2026-04-19T12:38:44.998Z</time></trkpt><trkpt lat="44.93104588811748" lon="7.407372920015114"><ele>288.25</ele><time>2026-04-19T12:38:45.999Z</time></trkpt><trkpt lat="44.93109344659577" lon="7.407475527256389"><ele>288.5</ele><time>2026-04-19T12:38:46.999Z</time></trkpt><trkpt lat="44.93114571555246" lon="7.407594003284457"><ele>288.75</ele><time>2026-04-19T12:38:47.999Z</time></trkpt><trkpt lat="44.93120291261711" lon="7.407765876083689"><ele>289.0</ele><time>2026-04-19T12:38:48.999Z</time></trkpt><trkpt lat="44.931269179222966" lon="7.407974700762386"><ele>289.0</ele><time>2026-04-19T12:38:49.999Z</time></trkpt><trkpt lat="44.931337736984354" lon="7.408198970441251"><ele>289.0</ele><time>2026-04-19T12:38:50.999Z</time></trkpt><trkpt lat="44.93139648460252" lon="7.408427816791896"><ele>289.0</ele><time>2026-04-19T12:38:51.999Z</time></trkpt><trkpt lat="44.931454030012446" lon="7.408664660194345"><ele>288.3333333333333</ele><time>2026-04-19T12:38:52.999Z</time></trkpt><trkpt lat="44.931514626278386" lon="7.408900575173671"><ele>287.6666666666667</ele><time>2026-04-19T12:38:53.999Z</time></trkpt><trkpt lat="44.931573362395575" lon="7.4091385116144926"><ele>287.0</ele><time>2026-04-19T12:38:54.999Z</time></trkpt><trkpt lat="44.93163220931866" lon="7.4093617612642735"><ele>287.0</ele><time>2026-04-19T12:38:56Z</time></trkpt><trkpt lat="44.93168043959393" lon="7.409553275659229"><ele>287.0</ele><time>2026-04-19T12:38:57Z</time></trkpt><trkpt lat="44.93172425960922" lon="7.409757923867359"><ele>287.0</ele><time>2026-04-19T12:38:58Z</time></trkpt><trkpt lat="44.93171198618591" lon="7.409988519402422"><ele>287.0</ele><time>2026-04-19T12:38:59Z</time></trkpt><trkpt lat="44.93176512079051" lon="7.410253891202386"><ele>287.0</ele><time>2026-04-19T12:39:00Z</time></trkpt><trkpt lat="44.93180739113032" lon="7.4104988322861045"><ele>287.0</ele><time>2026-04-19T12:39:01Z</time></trkpt><trkpt lat="44.93183712855325" lon="7.410762727221718"><ele>287.0</ele><time>2026-04-19T12:39:02Z</time></trkpt><trkpt lat="44.93187992567764" lon="7.411029559699249"><ele>287.0</ele><time>2026-04-19T12:39:03Z</time></trkpt><trkpt lat="44.931926444030616" lon="7.411296261686033"><ele>287.0</ele><time>2026-04-19T12:39:04Z</time></trkpt><trkpt lat="44.931974851504734" lon="7.411542834717326"><ele>287.0</ele><time>2026-04-19T12:39:05Z</time></trkpt><trkpt lat="44.93202528223427" lon="7.411783103352659"><ele>287.0</ele><time>2026-04-19T12:39:06Z</time></trkpt><trkpt lat="44.93207740551243" lon="7.412010040933271"><ele>287.0</ele><time>2026-04-19T12:39:07Z</time></trkpt><trkpt lat="44.93211108596221" lon="7.41217615919417"><ele>287.0</ele><time>2026-04-19T12:39:08Z</time></trkpt><trkpt lat="44.93212668901494" lon="7.412328787664851"><ele>287.0</ele><time>2026-04-19T12:39:09Z</time></trkpt><trkpt lat="44.932102689662344" lon="7.41243954142223"><ele>287.0</ele><time>2026-04-19T12:39:10Z</time></trkpt><trkpt lat="44.93204422985803" lon="7.412529783552415"><ele>287.0</ele><time>2026-04-19T12:39:11Z</time></trkpt><trkpt lat="44.93196145565107" lon="7.412683606241393"><ele>287.0</ele><time>2026-04-19T12:39:12.001Z</time></trkpt><trkpt lat="44.931872443373834" lon="7.412849569943973"><ele>287.0</ele><time>2026-04-19T12:39:13.001Z</time></trkpt><trkpt lat="44.93179506542305" lon="7.413029576156355"><ele>287.0</ele><time>2026-04-19T12:39:14.001Z</time></trkpt><trkpt lat="44.93175645368336" lon="7.41322133803729"><ele>287.0</ele><time>2026-04-19T12:39:15.001Z</time></trkpt><trkpt lat="44.93171647982034" lon="7.413409778976105"><ele>287.0</ele><time>2026-04-19T12:39:16.001Z</time></trkpt><trkpt lat="44.93169574549977" lon="7.41364448428117"><ele>287.0</ele><time>2026-04-19T12:39:17.001Z</time></trkpt><trkpt lat="44.93169313878371" lon="7.4138742700829825"><ele>287.0</ele><time>2026-04-19T12:39:18.001Z</time></trkpt><trkpt lat="44.931693288571424" lon="7.414081517066725"><ele>287.0</ele><time>2026-04-19T12:39:19.001Z</time></trkpt><trkpt lat="44.93169522249737" lon="7.414271522287651"><ele>287.0</ele><time>2026-04-19T12:39:20.001Z</time></trkpt><trkpt lat="44.93170415117999" lon="7.414415671774945"><ele>287.0</ele><time>2026-04-19T12:39:21.001Z</time></trkpt><trkpt lat="44.93169339354764" lon="7.41450662242419"><ele>287.0</ele><time>2026-04-19T12:39:22.001Z</time></trkpt><trkpt lat="44.93168799864655" lon="7.414658251173855"><ele>287.0</ele><time>2026-04-19T12:39:24.001Z</time></trkpt><trkpt lat="44.931548783424404" lon="7.414706718837194"><ele>287.0</ele><time>2026-04-19T12:39:26.001Z</time></trkpt><trkpt lat="44.93144799560089" lon="7.414758759319048"><ele>287.0</ele><time>2026-04-19T12:39:27.001Z</time></trkpt><trkpt lat="44.931329363521144" lon="7.4148148220639625"><ele>287.33333333333337</ele><time>2026-04-19T12:39:28.001Z</time></trkpt><trkpt lat="44.931191400519424" lon="7.414877804064012"><ele>287.6666666666667</ele><time>2026-04-19T12:39:29.001Z</time></trkpt><trkpt lat="44.93103983501333" lon="7.41494636491434"><ele>288.0</ele><time>2026-04-19T12:39:30.001Z</time></trkpt><trkpt lat="44.93087702515275" lon="7.415012803134863"><ele>287.3333333333333</ele><time>2026-04-19T12:39:31.001Z</time></trkpt><trkpt lat="44.930707674513926" lon="7.415069767666497"><ele>286.66666666666663</ele><time>2026-04-19T12:39:32.001Z</time></trkpt><trkpt lat="44.93053376270681" lon="7.415118135233844"><ele>286.0</ele><time>2026-04-19T12:39:33.001Z</time></trkpt><trkpt lat="44.93035733764008" lon="7.4151658832141605"><ele>286.0</ele><time>2026-04-19T12:39:34.001Z</time></trkpt><trkpt lat="44.93017668538974" lon="7.415214775253504"><ele>286.0</ele><time>2026-04-19T12:39:35.001Z</time></trkpt><trkpt lat="44.929991551749175" lon="7.4152648801500565"><ele>286.0</ele><time>2026-04-19T12:39:36.001Z</time></trkpt><trkpt lat="44.929814425540904" lon="7.4153128178930094"><ele>286.0</ele><time>2026-04-19T12:39:37.001Z</time></trkpt><trkpt lat="44.92966034097109" lon="7.415377671741273"><ele>286.0</ele><time>2026-04-19T12:39:38.002Z</time></trkpt><trkpt lat="44.92949915030871" lon="7.415432219355214"><ele>286.0</ele><time>2026-04-19T12:39:39.002Z</time></trkpt><trkpt lat="44.92933801193435" lon="7.415513414598926"><ele>285.66666666666663</ele><time>2026-04-19T12:39:40.002Z</time></trkpt><trkpt lat="44.92919128685818" lon="7.415629992185758"><ele>285.3333333333333</ele><time>2026-04-19T12:39:41.002Z</time></trkpt><trkpt lat="44.92904445783387" lon="7.415757580811192"><ele>285.0</ele><time>2026-04-19T12:39:42.002Z</time></trkpt><trkpt lat="44.928876462780536" lon="7.4158524309188065"><ele>285.0</ele><time>2026-04-19T12:39:43.002Z</time></trkpt><trkpt lat="44.92871428403351" lon="7.4159703289987995"><ele>285.0</ele><time>2026-04-19T12:39:44.002Z</time></trkpt><trkpt lat="44.92854958254719" lon="7.416055833579483"><ele>285.0</ele><time>2026-04-19T12:39:45.002Z</time></trkpt><trkpt lat="44.92838637539212" lon="7.416144139106446"><ele>285.0</ele><time>2026-04-19T12:39:46.002Z</time></trkpt><trkpt lat="44.92823669063921" lon="7.416235197030427"><ele>285.0</ele><time>2026-04-19T12:39:47.002Z</time></trkpt><trkpt lat="44.928112647166145" lon="7.4163429821069755"><ele>285.0</ele><time>2026-04-19T12:39:48.002Z</time></trkpt><trkpt lat="44.928023106125565" lon="7.41647137228165"><ele>285.0</ele><time>2026-04-19T12:39:49.002Z</time></trkpt><trkpt lat="44.92796636680016" lon="7.416619123059769"><ele>285.0</ele><time>2026-04-19T12:39:50.002Z</time></trkpt><trkpt lat="44.927918783528895" lon="7.416820873802481"><ele>285.0</ele><time>2026-04-19T12:39:51.002Z</time></trkpt><trkpt lat="44.92782405605782" lon="7.4173428849582885"><ele>284.6666666666667</ele><time>2026-04-19T12:39:53.002Z</time></trkpt><trkpt lat="44.92776118341355" lon="7.417584142720329"><ele>284.33333333333337</ele><time>2026-04-19T12:39:54.002Z</time></trkpt><trkpt lat="44.92768603290096" lon="7.41777163613032"><ele>284.0</ele><time>2026-04-19T12:39:55.002Z</time></trkpt><trkpt lat="44.92757755722345" lon="7.4179078291446645"><ele>284.33333333333337</ele><time>2026-04-19T12:39:56.002Z</time></trkpt><trkpt lat="44.92746635238158" lon="7.418050694390211"><ele>284.6666666666667</ele><time>2026-04-19T12:39:57.002Z</time></trkpt><trkpt lat="44.92738581384026" lon="7.418236681641154"><ele>285.0</ele><time>2026-04-19T12:39:58.002Z</time></trkpt><trkpt lat="44.92733509905791" lon="7.418430588324667"><ele>285.0</ele><time>2026-04-19T12:39:59.002Z</time></trkpt><trkpt lat="44.92729845144189" lon="7.418664490535822"><ele>285.0</ele><time>2026-04-19T12:40:00.002Z</time></trkpt><trkpt lat="44.92727228117815" lon="7.418921171220474"><ele>285.0</ele><time>2026-04-19T12:40:01.002Z</time></trkpt><trkpt lat="44.92724443101826" lon="7.419175246789602"><ele>284.6666666666667</ele><time>2026-04-19T12:40:02.002Z</time></trkpt><trkpt lat="44.92719065525372" lon="7.419414462238043"><ele>284.33333333333337</ele><time>2026-04-19T12:40:03.002Z</time></trkpt><trkpt lat="44.92716390955382" lon="7.419668189796985"><ele>284.0</ele><time>2026-04-19T12:40:04.002Z</time></trkpt><trkpt lat="44.92712060578535" lon="7.419919022586368"><ele>284.0</ele><time>2026-04-19T12:40:05.002Z</time></trkpt><trkpt lat="44.92708694897592" lon="7.420147946539993"><ele>284.0</ele><time>2026-04-19T12:40:06.002Z</time></trkpt><trkpt lat="44.927065193433315" lon="7.420355813825474"><ele>284.0</ele><time>2026-04-19T12:40:07.002Z</time></trkpt><trkpt lat="44.92705673636933" lon="7.42054901659359"><ele>284.0</ele><time>2026-04-19T12:40:08.002Z</time></trkpt><trkpt lat="44.92706445407954" lon="7.420733985945822"><ele>284.0</ele><time>2026-04-19T12:40:09.002Z</time></trkpt><trkpt lat="44.92707475013754" lon="7.420902482240613"><ele>284.0</ele><time>2026-04-19T12:40:10.003Z</time></trkpt><trkpt lat="44.927082641074676" lon="7.421047435691859"><ele>284.0</ele><time>2026-04-19T12:40:11.003Z</time></trkpt><trkpt lat="44.92708763177532" lon="7.4211479884200475"><ele>284.0</ele><time>2026-04-19T12:40:12.003Z</time></trkpt><trkpt lat="44.92707283257241" lon="7.421254802251341"><ele>284.0</ele><time>2026-04-19T12:40:14.003Z</time></trkpt><trkpt lat="44.92720081632585" lon="7.421310177674912"><ele>284.0</ele><time>2026-04-19T12:40:16.003Z</time></trkpt><trkpt lat="44.927287226721916" lon="7.421319440247987"><ele>284.0</ele><time>2026-04-19T12:40:17.003Z</time></trkpt><trkpt lat="44.927389885205706" lon="7.421333697338855"><ele>284.0</ele><time>2026-04-19T12:40:18.003Z</time></trkpt><trkpt lat="44.9275060421556" lon="7.421351007936947"><ele>284.0</ele><time>2026-04-19T12:40:19.003Z</time></trkpt><trkpt lat="44.92763660218059" lon="7.421372027213675"><ele>283.33333333333337</ele><time>2026-04-19T12:40:20.003Z</time></trkpt><trkpt lat="44.92777820280183" lon="7.421402720914264"><ele>282.6666666666667</ele><time>2026-04-19T12:40:21.003Z</time></trkpt><trkpt lat="44.92792786311657" lon="7.4214364234118575"><ele>282.0</ele><time>2026-04-19T12:40:22.003Z</time></trkpt><trkpt lat="44.928087975974755" lon="7.4214735759623"><ele>282.0</ele><time>2026-04-19T12:40:23.003Z</time></trkpt><trkpt lat="44.92825427612603" lon="7.421502786876918"><ele>282.0</ele><time>2026-04-19T12:40:24.003Z</time></trkpt><trkpt lat="44.92842803191904" lon="7.421534837703334"><ele>282.0</ele><time>2026-04-19T12:40:25.003Z</time></trkpt><trkpt lat="44.9285941969032" lon="7.4215665518385725"><ele>282.3333333333333</ele><time>2026-04-19T12:40:26.003Z</time></trkpt><trkpt lat="44.928760805223305" lon="7.421599590272182"><ele>282.66666666666663</ele><time>2026-04-19T12:40:27.003Z</time></trkpt><trkpt lat="44.928928456282286" lon="7.4216312441337475"><ele>283.0</ele><time>2026-04-19T12:40:28.003Z</time></trkpt><trkpt lat="44.92910125975976" lon="7.421665296062641"><ele>282.66666666666663</ele><time>2026-04-19T12:40:29.003Z</time></trkpt><trkpt lat="44.929272108974835" lon="7.421694315347925"><ele>282.3333333333333</ele><time>2026-04-19T12:40:30.003Z</time></trkpt><trkpt lat="44.929438058472016" lon="7.4217252803883715"><ele>282.0</ele><time>2026-04-19T12:40:31.003Z</time></trkpt><trkpt lat="44.92960405457255" lon="7.4217596947001265"><ele>282.0</ele><time>2026-04-19T12:40:32.003Z</time></trkpt><trkpt lat="44.9297682507192" lon="7.421795396527915"><ele>282.0</ele><time>2026-04-19T12:40:33.003Z</time></trkpt><trkpt lat="44.92993326135096" lon="7.421828271923922"><ele>282.0</ele><time>2026-04-19T12:40:33.995Z</time></trkpt><trkpt lat="44.93010055829785" lon="7.421860152293556"><ele>282.6666666666667</ele><time>2026-04-19T12:40:34.996Z</time></trkpt><trkpt lat="44.93026586447928" lon="7.421891927255986"><ele>283.33333333333337</ele><time>2026-04-19T12:40:35.996Z</time></trkpt><trkpt lat="44.93042905871633" lon="7.4219220386663665"><ele>284.0</ele><time>2026-04-19T12:40:36.996Z</time></trkpt><trkpt lat="44.9305922311275" lon="7.421953324490918"><ele>284.0</ele><time>2026-04-19T12:40:37.996Z</time></trkpt><trkpt lat="44.93074566361816" lon="7.421987432315025"><ele>284.0</ele><time>2026-04-19T12:40:38.997Z</time></trkpt><trkpt lat="44.93088558361892" lon="7.422024168291045"><ele>284.0</ele><time>2026-04-19T12:40:39.997Z</time></trkpt><trkpt lat="44.93100401200908" lon="7.422039216154412"><ele>284.0</ele><time>2026-04-19T12:40:40.997Z</time></trkpt><trkpt lat="44.931101408837044" lon="7.4220452366813845"><ele>284.0</ele><time>2026-04-19T12:40:41.997Z</time></trkpt><trkpt lat="44.931168931883164" lon="7.422054021190974"><ele>284.0</ele><time>2026-04-19T12:40:42.997Z</time></trkpt><trkpt lat="44.931225003601305" lon="7.422259641344206"><ele>284.0</ele><time>2026-04-19T12:40:45.998Z</time></trkpt><trkpt lat="44.93122399314875" lon="7.42239995413734"><ele>284.0</ele><time>2026-04-19T12:40:46.998Z</time></trkpt><trkpt lat="44.93123283170897" lon="7.422566720791567"><ele>284.0</ele><time>2026-04-19T12:40:47.998Z</time></trkpt><trkpt lat="44.93125959882731" lon="7.422754402227951"><ele>283.33333333333337</ele><time>2026-04-19T12:40:48.998Z</time></trkpt><trkpt lat="44.93127547244673" lon="7.422973574029102"><ele>282.6666666666667</ele><time>2026-04-19T12:40:49.998Z</time></trkpt><trkpt lat="44.931295331187876" lon="7.423201057222693"><ele>282.0</ele><time>2026-04-19T12:40:50.998Z</time></trkpt><trkpt lat="44.93129858028299" lon="7.423441473152799"><ele>282.0</ele><time>2026-04-19T12:40:51.998Z</time></trkpt><trkpt lat="44.9313334706728" lon="7.423684724847405"><ele>282.0</ele><time>2026-04-19T12:40:52.998Z</time></trkpt><trkpt lat="44.93135244623319" lon="7.4239368060164646"><ele>282.0</ele><time>2026-04-19T12:40:53.999Z</time></trkpt><trkpt lat="44.93137386750793" lon="7.424199154612971"><ele>282.3333333333333</ele><time>2026-04-19T12:40:54.999Z</time></trkpt><trkpt lat="44.93139487147735" lon="7.424458698516918"><ele>282.66666666666663</ele><time>2026-04-19T12:40:55.999Z</time></trkpt><trkpt lat="44.93141662968564" lon="7.4247245124857155"><ele>283.0</ele><time>2026-04-19T12:40:56.999Z</time></trkpt><trkpt lat="44.931436158163585" lon="7.424982068347365"><ele>283.0</ele><time>2026-04-19T12:40:57.999Z</time></trkpt><trkpt lat="44.931456827191774" lon="7.425240458566142"><ele>283.0</ele><time>2026-04-19T12:40:58.999Z</time></trkpt><trkpt lat="44.93147852177608" lon="7.425503176482332"><ele>283.0</ele><time>2026-04-19T12:40:59.999Z</time></trkpt><trkpt lat="44.93150859505062" lon="7.425762560260951"><ele>282.66666666666663</ele><time>2026-04-19T12:41:00.999Z</time></trkpt><trkpt lat="44.931546422936826" lon="7.426014163113336"><ele>282.3333333333333</ele><time>2026-04-19T12:41:01.999Z</time></trkpt><trkpt lat="44.93158872729228" lon="7.426248544121417"><ele>282.0</ele><time>2026-04-19T12:41:02.999Z</time></trkpt><trkpt lat="44.93162840081937" lon="7.426465678257382"><ele>281.75</ele><time>2026-04-19T12:41:04Z</time></trkpt><trkpt lat="44.931673791688226" lon="7.426668688362571"><ele>281.5</ele><time>2026-04-19T12:41:05Z</time></trkpt><trkpt lat="44.931725994247884" lon="7.426856332012835"><ele>281.25</ele><time>2026-04-19T12:41:06Z</time></trkpt><trkpt lat="44.93178689119669" lon="7.427030463029742"><ele>281.0</ele><time>2026-04-19T12:41:07Z</time></trkpt><trkpt lat="44.93184753851262" lon="7.427199688688347"><ele>280.40000000000003</ele><time>2026-04-19T12:41:08Z</time></trkpt><trkpt lat="44.93191018708911" lon="7.427345455529329"><ele>279.8</ele><time>2026-04-19T12:41:09Z</time></trkpt><trkpt lat="44.931965452139366" lon="7.427469461055421"><ele>279.20000000000005</ele><time>2026-04-19T12:41:10Z</time></trkpt><trkpt lat="44.932011108765295" lon="7.42757968522256"><ele>278.6</ele><time>2026-04-19T12:41:11Z</time></trkpt><trkpt lat="44.93205250016349" lon="7.427705207132065"><ele>278.0</ele><time>2026-04-19T12:41:12Z</time></trkpt><trkpt lat="44.93210223841444" lon="7.427822365113314"><ele>278.0</ele><time>2026-04-19T12:41:13Z</time></trkpt><trkpt lat="44.93220729560128" lon="7.427865500389053"><ele>278.0</ele><time>2026-04-19T12:41:14Z</time></trkpt><trkpt lat="44.93228752395602" lon="7.427881291212452"><ele>278.0</ele><time>2026-04-19T12:41:15Z</time></trkpt><trkpt lat="44.93235418895749" lon="7.427750631896579"><ele>278.0</ele><time>2026-04-19T12:41:16Z</time></trkpt><trkpt lat="44.93233588301334" lon="7.427608956728993"><ele>278.0</ele><time>2026-04-19T12:41:17Z</time></trkpt><trkpt lat="44.93241984493107" lon="7.4274890027638385"><ele>278.0</ele><time>2026-04-19T12:41:18Z</time></trkpt><trkpt lat="44.93249824164308" lon="7.427380767427197"><ele>278.0</ele><time>2026-04-19T12:41:19Z</time></trkpt><trkpt lat="44.93256708640487" lon="7.427285034132534"><ele>278.0</ele><time>2026-04-19T12:41:20.001Z</time></trkpt><trkpt lat="44.932622708704564" lon="7.427223856490992"><ele>278.0</ele><time>2026-04-19T12:41:21.001Z</time></trkpt><trkpt lat="44.93301997564916" lon="7.427704386010792"><ele>278.0</ele><time>2026-04-19T12:41:23.001Z</time></trkpt><trkpt lat="44.93310557737662" lon="7.427834447239016"><ele>278.0</ele><time>2026-04-19T12:41:24.001Z</time></trkpt><trkpt lat="44.93318711084655" lon="7.427979866693664"><ele>278.0</ele><time>2026-04-19T12:41:25.001Z</time></trkpt><trkpt lat="44.933272174702765" lon="7.42813193181832"><ele>278.0</ele><time>2026-04-19T12:41:26.001Z</time></trkpt><trkpt lat="44.933364875354904" lon="7.428292721621138"><ele>278.0</ele><time>2026-04-19T12:41:27.001Z</time></trkpt><trkpt lat="44.93345401035778" lon="7.428445453023422"><ele>278.0</ele><time>2026-04-19T12:41:28.001Z</time></trkpt><trkpt lat="44.93353851381497" lon="7.428592705383256"><ele>278.0</ele><time>2026-04-19T12:41:29.001Z</time></trkpt><trkpt lat="44.933616303104415" lon="7.428715278491269"><ele>278.0</ele><time>2026-04-19T12:41:30.001Z</time></trkpt><trkpt lat="44.93367698579405" lon="7.428809438826781"><ele>278.0</ele><time>2026-04-19T12:41:31.001Z</time></trkpt><trkpt lat="44.93376512460152" lon="7.428846540703488"><ele>278.0</ele><time>2026-04-19T12:41:33.001Z</time></trkpt><trkpt lat="44.933882329199115" lon="7.428741292923678"><ele>278.0</ele><time>2026-04-19T12:41:35.001Z</time></trkpt><trkpt lat="44.93396833071244" lon="7.428660105177875"><ele>278.0</ele><time>2026-04-19T12:41:36.001Z</time></trkpt><trkpt lat="44.934066638626696" lon="7.4285798794882565"><ele>278.0</ele><time>2026-04-19T12:41:37.001Z</time></trkpt><trkpt lat="44.93417767398057" lon="7.428502131898884"><ele>278.0</ele><time>2026-04-19T12:41:38.001Z</time></trkpt><trkpt lat="44.9343005599547" lon="7.4284197198616795"><ele>278.0</ele><time>2026-04-19T12:41:39.001Z</time></trkpt><trkpt lat="44.934434015723575" lon="7.428328775369084"><ele>278.0</ele><time>2026-04-19T12:41:40.001Z</time></trkpt><trkpt lat="44.934559482723124" lon="7.4282396789902"><ele>278.0</ele><time>2026-04-19T12:41:41.001Z</time></trkpt><trkpt lat="44.93469414928622" lon="7.428147865681719"><ele>278.0</ele><time>2026-04-19T12:41:42.001Z</time></trkpt><trkpt lat="44.93483106140353" lon="7.428055791092326"><ele>278.0</ele><time>2026-04-19T12:41:43.001Z</time></trkpt><trkpt lat="44.934968396546395" lon="7.427965805543784"><ele>278.0</ele><time>2026-04-19T12:41:44.001Z</time></trkpt><trkpt lat="44.93509339848529" lon="7.427885643492656"><ele>278.0</ele><time>2026-04-19T12:41:45.001Z</time></trkpt><trkpt lat="44.935200396672705" lon="7.427810745258385"><ele>278.0</ele><time>2026-04-19T12:41:46.002Z</time></trkpt><trkpt lat="44.93529065713819" lon="7.427755247674674"><ele>278.0</ele><time>2026-04-19T12:41:47.002Z</time></trkpt><trkpt lat="44.93536403743" lon="7.427741132891519"><ele>278.0</ele><time>2026-04-19T12:41:48.002Z</time></trkpt><trkpt lat="44.93546498108909" lon="7.427851462146572"><ele>278.0</ele><time>2026-04-19T12:41:50.002Z</time></trkpt><trkpt lat="44.93553898186721" lon="7.427849298779465"><ele>278.0</ele><time>2026-04-19T12:41:51.002Z</time></trkpt><trkpt lat="44.93562666661926" lon="7.427813799173843"><ele>278.0</ele><time>2026-04-19T12:41:52.002Z</time></trkpt><trkpt lat="44.93573013936676" lon="7.427785932940403"><ele>278.0</ele><time>2026-04-19T12:41:53.002Z</time></trkpt><trkpt lat="44.935844218216644" lon="7.427740207884001"><ele>278.0</ele><time>2026-04-19T12:41:54.002Z</time></trkpt><trkpt lat="44.93597755204181" lon="7.427694851781369"><ele>278.0</ele><time>2026-04-19T12:41:55.002Z</time></trkpt><trkpt lat="44.93611714812166" lon="7.427654743600495"><ele>278.33333333333337</ele><time>2026-04-19T12:41:56.002Z</time></trkpt><trkpt lat="44.93626445446104" lon="7.4276024222931465"><ele>278.6666666666667</ele><time>2026-04-19T12:41:57.002Z</time></trkpt><trkpt lat="44.936410952357114" lon="7.427557565562211"><ele>279.0</ele><time>2026-04-19T12:41:58.002Z</time></trkpt><trkpt lat="44.93656104579378" lon="7.427511085737409"><ele>279.0</ele><time>2026-04-19T12:41:59.002Z</time></trkpt><trkpt lat="44.93671487445938" lon="7.427460579344439"><ele>279.0</ele><time>2026-04-19T12:42:00.002Z</time></trkpt><trkpt lat="44.93687251105372" lon="7.427439080854236"><ele>279.0</ele><time>2026-04-19T12:42:01.002Z</time></trkpt><trkpt lat="44.93701635885398" lon="7.4273864711767414"><ele>279.0</ele><time>2026-04-19T12:42:02.002Z</time></trkpt><trkpt lat="44.93717441705175" lon="7.4273446987940055"><ele>279.0</ele><time>2026-04-19T12:42:03.002Z</time></trkpt><trkpt lat="44.9373257090167" lon="7.427289012889096"><ele>279.0</ele><time>2026-04-19T12:42:04.002Z</time></trkpt><trkpt lat="44.93747551870577" lon="7.427288143033345"><ele>278.75</ele><time>2026-04-19T12:42:05.002Z</time></trkpt><trkpt lat="44.93760971415865" lon="7.427272273744413"><ele>278.5</ele><time>2026-04-19T12:42:06.002Z</time></trkpt><trkpt lat="44.93773457219124" lon="7.427246579518275"><ele>278.25</ele><time>2026-04-19T12:42:07.002Z</time></trkpt><trkpt lat="44.93785499158357" lon="7.4272050937853615"><ele>278.0</ele><time>2026-04-19T12:42:08.002Z</time></trkpt><trkpt lat="44.93795196719478" lon="7.427117015590645"><ele>278.0</ele><time>2026-04-19T12:42:09.002Z</time></trkpt><trkpt lat="44.93803157148316" lon="7.427065682909734"><ele>278.0</ele><time>2026-04-19T12:42:10.002Z</time></trkpt><trkpt lat="44.93815042436694" lon="7.427108306690867"><ele>278.0</ele><time>2026-04-19T12:42:12.002Z</time></trkpt><trkpt lat="44.93822733341944" lon="7.427166370533661"><ele>278.0</ele><time>2026-04-19T12:42:13.002Z</time></trkpt><trkpt lat="44.93833205252765" lon="7.427216859229036"><ele>278.0</ele><time>2026-04-19T12:42:14.002Z</time></trkpt><trkpt lat="44.93846452430278" lon="7.427216989248807"><ele>277.75</ele><time>2026-04-19T12:42:15.002Z</time></trkpt><trkpt lat="44.93860372209927" lon="7.427185496571396"><ele>277.5</ele><time>2026-04-19T12:42:16.002Z</time></trkpt><trkpt lat="44.938749335474874" lon="7.427169636590031"><ele>277.25</ele><time>2026-04-19T12:42:17.002Z</time></trkpt><trkpt lat="44.93888082771967" lon="7.427129145023639"><ele>277.0</ele><time>2026-04-19T12:42:18.003Z</time></trkpt><trkpt lat="44.93898838907897" lon="7.427122848869036"><ele>277.0</ele><time>2026-04-19T12:42:19.003Z</time></trkpt><trkpt lat="44.93906869805909" lon="7.427140329442917"><ele>277.0</ele><time>2026-04-19T12:42:20.003Z</time></trkpt><trkpt lat="44.93912903926097" lon="7.427200189078819"><ele>277.0</ele><time>2026-04-19T12:42:21.003Z</time></trkpt><trkpt lat="44.939162700772485" lon="7.427306673453512"><ele>277.0</ele><time>2026-04-19T12:42:22.003Z</time></trkpt><trkpt lat="44.93917441205826" lon="7.427424974789027"><ele>277.0</ele><time>2026-04-19T12:42:23.003Z</time></trkpt><trkpt lat="44.93922726557847" lon="7.427626522813422"><ele>277.0</ele><time>2026-04-19T12:42:24.003Z</time></trkpt><trkpt lat="44.939287135558224" lon="7.427815940992654"><ele>277.0</ele><time>2026-04-19T12:42:25.003Z</time></trkpt><trkpt lat="44.93936404301696" lon="7.428008712828197"><ele>277.0</ele><time>2026-04-19T12:42:26.003Z</time></trkpt><trkpt lat="44.93945561275837" lon="7.428203984072461"><ele>277.0</ele><time>2026-04-19T12:42:27.003Z</time></trkpt><trkpt lat="44.93953538053457" lon="7.428385435225913"><ele>277.0</ele><time>2026-04-19T12:42:28.003Z</time></trkpt><trkpt lat="44.93960879244903" lon="7.428547781605192"><ele>277.0</ele><time>2026-04-19T12:42:29.003Z</time></trkpt><trkpt lat="44.93967665217971" lon="7.4286985296861054"><ele>277.0</ele><time>2026-04-19T12:42:30.003Z</time></trkpt><trkpt lat="44.93973264642089" lon="7.4288285533637355"><ele>276.5</ele><time>2026-04-19T12:42:31.003Z</time></trkpt><trkpt lat="44.93977507812056" lon="7.428942892645997"><ele>276.0</ele><time>2026-04-19T12:42:32.003Z</time></trkpt><trkpt lat="44.93981136123444" lon="7.429050562342475"><ele>275.5</ele><time>2026-04-19T12:42:33.003Z</time></trkpt><trkpt lat="44.93986417856629" lon="7.4292064262618505"><ele>275.0</ele><time>2026-04-19T12:42:35.003Z</time></trkpt><trkpt lat="44.94005794312199" lon="7.429126035823978"><ele>275.0</ele><time>2026-04-19T12:42:37.003Z</time></trkpt><trkpt lat="44.9401552842144" lon="7.42911151686665"><ele>275.0</ele><time>2026-04-19T12:42:38.003Z</time></trkpt><trkpt lat="44.940264097703604" lon="7.429070959392719"><ele>275.0</ele><time>2026-04-19T12:42:39.003Z</time></trkpt><trkpt lat="44.9403816597491" lon="7.42902796182253"><ele>275.0</ele><time>2026-04-19T12:42:39.995Z</time></trkpt><trkpt lat="44.94050887724422" lon="7.428983374088949"><ele>275.0</ele><time>2026-04-19T12:42:40.995Z</time></trkpt><trkpt lat="44.940643605046276" lon="7.428930204649122"><ele>275.0</ele><time>2026-04-19T12:42:41.995Z</time></trkpt><trkpt lat="44.94078755463991" lon="7.428896156101632"><ele>275.0</ele><time>2026-04-19T12:42:42.996Z</time></trkpt><trkpt lat="44.94093947237354" lon="7.428875125328209"><ele>275.0</ele><time>2026-04-19T12:42:43.996Z</time></trkpt><trkpt lat="44.941098513435136" lon="7.428869822896312"><ele>275.33333333333337</ele><time>2026-04-19T12:42:44.996Z</time></trkpt><trkpt lat="44.94126077406243" lon="7.428899197046154"><ele>275.6666666666667</ele><time>2026-04-19T12:42:45.996Z</time></trkpt><trkpt lat="44.94141993430463" lon="7.428885543663074"><ele>276.0</ele><time>2026-04-19T12:42:46.996Z</time></trkpt><trkpt lat="44.941559922644544" lon="7.428901445253149"><ele>276.0</ele><time>2026-04-19T12:42:47.997Z</time></trkpt><trkpt lat="44.94169154346224" lon="7.428834787961189"><ele>276.0</ele><time>2026-04-19T12:42:48.997Z</time></trkpt><trkpt lat="44.94181325248634" lon="7.428730437739808"><ele>276.0</ele><time>2026-04-19T12:42:49.997Z</time></trkpt><trkpt lat="44.941934717864356" lon="7.428609952652374"><ele>276.0</ele><time>2026-04-19T12:42:50.997Z</time></trkpt><trkpt lat="44.942044711601696" lon="7.428496476568614"><ele>276.25</ele><time>2026-04-19T12:42:51.997Z</time></trkpt><trkpt lat="44.94214073128197" lon="7.4283902669522845"><ele>276.5</ele><time>2026-04-19T12:42:52.997Z</time></trkpt><trkpt lat="44.942260206370285" lon="7.428356052871574"><ele>276.75</ele><time>2026-04-19T12:42:53.997Z</time></trkpt><trkpt lat="44.9423811515255" lon="7.428414787857645"><ele>277.0</ele><time>2026-04-19T12:42:54.998Z</time></trkpt><trkpt lat="44.94252051740828" lon="7.428445607560626"><ele>277.0</ele><time>2026-04-19T12:42:55.998Z</time></trkpt><trkpt lat="44.94267273315542" lon="7.428475498324518"><ele>277.0</ele><time>2026-04-19T12:42:56.998Z</time></trkpt><trkpt lat="44.942834843846214" lon="7.428506818423764"><ele>277.0</ele><time>2026-04-19T12:42:57.998Z</time></trkpt><trkpt lat="44.94300122136125" lon="7.428537419055083"><ele>277.0</ele><time>2026-04-19T12:42:58.998Z</time></trkpt><trkpt lat="44.9431756966421" lon="7.428569509063247"><ele>277.0</ele><time>2026-04-19T12:42:59.998Z</time></trkpt><trkpt lat="44.94335631735744" lon="7.428602729341145"><ele>277.0</ele><time>2026-04-19T12:43:00.999Z</time></trkpt><trkpt lat="44.943538771596785" lon="7.428636286854148"><ele>276.66666666666663</ele><time>2026-04-19T12:43:01.999Z</time></trkpt><trkpt lat="44.94372524098965" lon="7.428670582843806"><ele>276.3333333333333</ele><time>2026-04-19T12:43:02.999Z</time></trkpt><trkpt lat="44.94390127713318" lon="7.4287013512529345"><ele>276.0</ele><time>2026-04-19T12:43:03.999Z</time></trkpt><trkpt lat="44.94405304742773" lon="7.428726210991841"><ele>276.0</ele><time>2026-04-19T12:43:04.999Z</time></trkpt><trkpt lat="44.94418445091719" lon="7.4287481384415495"><ele>276.0</ele><time>2026-04-19T12:43:05.999Z</time></trkpt><trkpt lat="44.944289539199936" lon="7.428769107413431"><ele>276.0</ele><time>2026-04-19T12:43:06.999Z</time></trkpt><trkpt lat="44.94437741328977" lon="7.42878708430759"><ele>276.0</ele><time>2026-04-19T12:43:07.999Z</time></trkpt><trkpt lat="44.944444022913935" lon="7.428864989145814"><ele>276.0</ele><time>2026-04-19T12:43:08.999Z</time></trkpt><trkpt lat="44.94446752955034" lon="7.428983465246612"><ele>276.25</ele><time>2026-04-19T12:43:09.999Z</time></trkpt><trkpt lat="44.944446342341166" lon="7.429138511427713"><ele>276.5</ele><time>2026-04-19T12:43:11Z</time></trkpt><trkpt lat="44.94444775864639" lon="7.429313517211649"><ele>276.75</ele><time>2026-04-19T12:43:12Z</time></trkpt><trkpt lat="44.94443220064444" lon="7.42950584900052"><ele>277.0</ele><time>2026-04-19T12:43:13Z</time></trkpt><trkpt lat="44.94442140692046" lon="7.429708926501993"><ele>277.0</ele><time>2026-04-19T12:43:14Z</time></trkpt><trkpt lat="44.94441148959088" lon="7.429922856562047"><ele>277.0</ele><time>2026-04-19T12:43:15Z</time></trkpt><trkpt lat="44.94440197774115" lon="7.430146771322518"><ele>277.0</ele><time>2026-04-19T12:43:16Z</time></trkpt><trkpt lat="44.944392203650345" lon="7.430380985301366"><ele>276.66666666666663</ele><time>2026-04-19T12:43:17Z</time></trkpt><trkpt lat="44.94438370289791" lon="7.430624275991075"><ele>276.3333333333333</ele><time>2026-04-19T12:43:18Z</time></trkpt><trkpt lat="44.94437535130265" lon="7.430870242360446"><ele>276.0</ele><time>2026-04-19T12:43:19Z</time></trkpt><trkpt lat="44.944369255811026" lon="7.43110747018382"><ele>276.0</ele><time>2026-04-19T12:43:20Z</time></trkpt><trkpt lat="44.94436386113715" lon="7.431327820497765"><ele>276.0</ele><time>2026-04-19T12:43:21Z</time></trkpt><trkpt lat="44.94435969712043" lon="7.43153415228501"><ele>276.0</ele><time>2026-04-19T12:43:22Z</time></trkpt><trkpt lat="44.94436436380484" lon="7.431725400513505"><ele>276.0</ele><time>2026-04-19T12:43:23Z</time></trkpt><trkpt lat="44.94438835968708" lon="7.4318999997870145"><ele>276.0</ele><time>2026-04-19T12:43:24Z</time></trkpt><trkpt lat="44.944451287458975" lon="7.432044351140281"><ele>276.0</ele><time>2026-04-19T12:43:25Z</time></trkpt><trkpt lat="44.94454777395893" lon="7.4321709960858575"><ele>276.0</ele><time>2026-04-19T12:43:26Z</time></trkpt><trkpt lat="44.94463425940548" lon="7.432309452628245"><ele>276.0</ele><time>2026-04-19T12:43:27.001Z</time></trkpt><trkpt lat="44.944693802501554" lon="7.432468587136291"><ele>276.0</ele><time>2026-04-19T12:43:28.001Z</time></trkpt><trkpt lat="44.944697671003695" lon="7.43265782181934"><ele>276.0</ele><time>2026-04-19T12:43:29.001Z</time></trkpt><trkpt lat="44.94472431115059" lon="7.432853349078869"><ele>276.0</ele><time>2026-04-19T12:43:30.001Z</time></trkpt><trkpt lat="44.944771941963616" lon="7.433058502023882"><ele>276.0</ele><time>2026-04-19T12:43:31.001Z</time></trkpt><trkpt lat="44.944801101335514" lon="7.433275985210289"><ele>275.6666666666667</ele><time>2026-04-19T12:43:32.001Z</time></trkpt><trkpt lat="44.94483406954363" lon="7.43350013234247"><ele>275.33333333333337</ele><time>2026-04-19T12:43:33.001Z</time></trkpt><trkpt lat="44.94487039624079" lon="7.433731107614738"><ele>275.0</ele><time>2026-04-19T12:43:34.001Z</time></trkpt><trkpt lat="44.94490842960423" lon="7.433959500757176"><ele>274.6666666666667</ele><time>2026-04-19T12:43:35.001Z</time></trkpt><trkpt lat="44.94494752523694" lon="7.434192617128437"><ele>274.3333333333333</ele><time>2026-04-19T12:43:36.001Z</time></trkpt><trkpt lat="44.94498876764804" lon="7.434431474363695"><ele>274.0</ele><time>2026-04-19T12:43:37.001Z</time></trkpt><trkpt lat="44.94502912160564" lon="7.434667753505105"><ele>273.66666666666663</ele><time>2026-04-19T12:43:38.001Z</time></trkpt><trkpt lat="44.94506565545872" lon="7.434894217629571"><ele>273.3333333333333</ele><time>2026-04-19T12:43:39.001Z</time></trkpt><trkpt lat="44.945101400385454" lon="7.43511427976608"><ele>273.0</ele><time>2026-04-19T12:43:40.001Z</time></trkpt><trkpt lat="44.945139523118534" lon="7.435334804370896"><ele>273.0</ele><time>2026-04-19T12:43:41.001Z</time></trkpt><trkpt lat="44.94517697847752" lon="7.435544625847302"><ele>273.0</ele><time>2026-04-19T12:43:42.001Z</time></trkpt><trkpt lat="44.945213397686196" lon="7.435757065180704"><ele>273.0</ele><time>2026-04-19T12:43:43.001Z</time></trkpt><trkpt lat="44.94524760136732" lon="7.435954173093542"><ele>273.0</ele><time>2026-04-19T12:43:44.001Z</time></trkpt><trkpt lat="44.94527927780907" lon="7.436136133986451"><ele>273.0</ele><time>2026-04-19T12:43:45.001Z</time></trkpt><trkpt lat="44.94530061146091" lon="7.436294102810647"><ele>273.0</ele><time>2026-04-19T12:43:46.001Z</time></trkpt><trkpt lat="44.945324761851005" lon="7.436419272109076"><ele>273.0</ele><time>2026-04-19T12:43:47.001Z</time></trkpt><trkpt lat="44.94535516512714" lon="7.4365133000998105"><ele>273.0</ele><time>2026-04-19T12:43:48.001Z</time></trkpt><trkpt lat="44.94537281495998" lon="7.436615108007194"><ele>273.25</ele><time>2026-04-19T12:43:50.001Z</time></trkpt><trkpt lat="44.94550152364753" lon="7.436561512471656"><ele>273.5</ele><time>2026-04-19T12:43:51.001Z</time></trkpt><trkpt lat="44.94558518447448" lon="7.436491809185366"><ele>273.75</ele><time>2026-04-19T12:43:52.002Z</time></trkpt><trkpt lat="44.94567793238213" lon="7.4364131732477095"><ele>274.0</ele><time>2026-04-19T12:43:53.002Z</time></trkpt><trkpt lat="44.945781513254" lon="7.436325354322508"><ele>273.66666666666663</ele><time>2026-04-19T12:43:54.002Z</time></trkpt><trkpt lat="44.94590524147182" lon="7.436220620889374"><ele>273.3333333333333</ele><time>2026-04-19T12:43:55.002Z</time></trkpt><trkpt lat="44.946041367796425" lon="7.4361070182654965"><ele>273.0</ele><time>2026-04-19T12:43:56.002Z</time></trkpt><trkpt lat="44.94617765283699" lon="7.435993283459204"><ele>273.0</ele><time>2026-04-19T12:43:57.002Z</time></trkpt><trkpt lat="44.946301994493616" lon="7.435889515516896"><ele>273.0</ele><time>2026-04-19T12:43:58.002Z</time></trkpt><trkpt lat="44.94640806887651" lon="7.435802137903536"><ele>273.0</ele><time>2026-04-19T12:43:59.002Z</time></trkpt><trkpt lat="44.946492076129225" lon="7.435741520370549"><ele>273.0</ele><time>2026-04-19T12:44:00.002Z</time></trkpt><trkpt lat="44.946564727778046" lon="7.4357014378198265"><ele>273.0</ele><time>2026-04-19T12:44:01.002Z</time></trkpt><trkpt lat="44.94663896175788" lon="7.435651942937025"><ele>273.0</ele><time>2026-04-19T12:44:02.002Z</time></trkpt><trkpt lat="44.946678471911234" lon="7.4355320134805565"><ele>273.0</ele><time>2026-04-19T12:44:03.002Z</time></trkpt><trkpt lat="44.946662484644975" lon="7.43536062144281"><ele>273.0</ele><time>2026-04-19T12:44:04.002Z</time></trkpt><trkpt lat="44.94668997677137" lon="7.435180252250719"><ele>273.0</ele><time>2026-04-19T12:44:05.002Z</time></trkpt><trkpt lat="44.94673365069978" lon="7.434999869577252"><ele>272.6666666666667</ele><time>2026-04-19T12:44:06.002Z</time></trkpt><trkpt lat="44.94680266011065" lon="7.434810420113373"><ele>272.33333333333337</ele><time>2026-04-19T12:44:07.002Z</time></trkpt><trkpt lat="44.946889277805035" lon="7.43461351861243"><ele>272.0</ele><time>2026-04-19T12:44:08.002Z</time></trkpt><trkpt lat="44.946983693474934" lon="7.434413275560111"><ele>271.6666666666667</ele><time>2026-04-19T12:44:09.002Z</time></trkpt><trkpt lat="44.947082486793725" lon="7.434207353177426"><ele>271.3333333333333</ele><time>2026-04-19T12:44:10.002Z</time></trkpt><trkpt lat="44.94718670663414" lon="7.433990119810582"><ele>271.0</ele><time>2026-04-19T12:44:11.002Z</time></trkpt><trkpt lat="44.94729459758613" lon="7.433765234507194"><ele>271.66666666666663</ele><time>2026-04-19T12:44:12.002Z</time></trkpt><trkpt lat="44.947404014760465" lon="7.433537167892949"><ele>272.3333333333333</ele><time>2026-04-19T12:44:13.002Z</time></trkpt><trkpt lat="44.94751463905725" lon="7.43330658532122"><ele>273.0</ele><time>2026-04-19T12:44:14.002Z</time></trkpt><trkpt lat="44.94762663550547" lon="7.433073142599709"><ele>273.3333333333333</ele><time>2026-04-19T12:44:15.002Z</time></trkpt><trkpt lat="44.94773805397771" lon="7.432840904573536"><ele>273.66666666666663</ele><time>2026-04-19T12:44:16.002Z</time></trkpt><trkpt lat="44.94785239042851" lon="7.432602204527807"><ele>274.0</ele><time>2026-04-19T12:44:17.002Z</time></trkpt><trkpt lat="44.94795720568717" lon="7.432382938463997"><ele>274.0</ele><time>2026-04-19T12:44:18.002Z</time></trkpt><trkpt lat="44.94805456503622" lon="7.4321792696445925"><ele>274.0</ele><time>2026-04-19T12:44:19.002Z</time></trkpt><trkpt lat="44.94814726384361" lon="7.431985350384415"><ele>274.0</ele><time>2026-04-19T12:44:20.002Z</time></trkpt><trkpt lat="44.948238442995454" lon="7.4318165201557855"><ele>274.0</ele><time>2026-04-19T12:44:21.002Z</time></trkpt><trkpt lat="44.94834376583842" lon="7.431684894678398"><ele>274.0</ele><time>2026-04-19T12:44:22.002Z</time></trkpt><trkpt lat="44.94845713794013" lon="7.4316458551878215"><ele>274.0</ele><time>2026-04-19T12:44:23.002Z</time></trkpt><trkpt lat="44.94858105132198" lon="7.431614497533346"><ele>274.0</ele><time>2026-04-19T12:44:24.003Z</time></trkpt><trkpt lat="44.94872316563944" lon="7.431589284148388"><ele>274.3333333333333</ele><time>2026-04-19T12:44:25.003Z</time></trkpt><trkpt lat="44.94887854552222" lon="7.431559525706172"><ele>274.6666666666667</ele><time>2026-04-19T12:44:26.003Z</time></trkpt><trkpt lat="44.94903967914248" lon="7.431511268015937"><ele>275.0</ele><time>2026-04-19T12:44:27.003Z</time></trkpt><trkpt lat="44.94920288226058" lon="7.431442271697039"><ele>274.6666666666667</ele><time>2026-04-19T12:44:28.003Z</time></trkpt><trkpt lat="44.9493800227944" lon="7.431419786502827"><ele>274.3333333333333</ele><time>2026-04-19T12:44:29.003Z</time></trkpt><trkpt lat="44.94955205457597" lon="7.431378724974109"><ele>274.0</ele><time>2026-04-19T12:44:30.003Z</time></trkpt><trkpt lat="44.949751827558345" lon="7.431328847379976"><ele>274.0</ele><time>2026-04-19T12:44:31.003Z</time></trkpt><trkpt lat="44.949928810661596" lon="7.431284851764686"><ele>274.0</ele><time>2026-04-19T12:44:32.003Z</time></trkpt><trkpt lat="44.950104287967996" lon="7.431243026073635"><ele>274.0</ele><time>2026-04-19T12:44:33.003Z</time></trkpt><trkpt lat="44.950267444617104" lon="7.4312041370353334"><ele>274.0</ele><time>2026-04-19T12:44:34.003Z</time></trkpt><trkpt lat="44.95040404965291" lon="7.431171576701698"><ele>274.0</ele><time>2026-04-19T12:44:35.003Z</time></trkpt><trkpt lat="44.95054727874856" lon="7.43113781502731"><ele>274.0</ele><time>2026-04-19T12:44:36.003Z</time></trkpt><trkpt lat="44.95068225883829" lon="7.431107457057776"><ele>274.0</ele><time>2026-04-19T12:44:37.003Z</time></trkpt><trkpt lat="44.950824546671846" lon="7.431078462709398"><ele>273.66666666666663</ele><time>2026-04-19T12:44:38.003Z</time></trkpt><trkpt lat="44.95098609130669" lon="7.431026047830238"><ele>273.3333333333333</ele><time>2026-04-19T12:44:39.003Z</time></trkpt><trkpt lat="44.95114205167616" lon="7.430996950118439"><ele>273.0</ele><time>2026-04-19T12:44:40.003Z</time></trkpt><trkpt lat="44.9512729263379" lon="7.430989761301367"><ele>273.0</ele><time>2026-04-19T12:44:41.003Z</time></trkpt><trkpt lat="44.95138716917745" lon="7.430952240629891"><ele>273.0</ele><time>2026-04-19T12:44:42.003Z</time></trkpt><trkpt lat="44.951481643162474" lon="7.43088035537528"><ele>273.0</ele><time>2026-04-19T12:44:43.003Z</time></trkpt><trkpt lat="44.951535270983996" lon="7.430742890825051"><ele>273.0</ele><time>2026-04-19T12:44:44.003Z</time></trkpt><trkpt lat="44.951571154624475" lon="7.430603360556909"><ele>273.0</ele><time>2026-04-19T12:44:45.003Z</time></trkpt><trkpt lat="44.95164461858977" lon="7.430463626338422"><ele>272.8</ele><time>2026-04-19T12:44:45.994Z</time></trkpt><trkpt lat="44.951711815410825" lon="7.43038166535676"><ele>272.6</ele><time>2026-04-19T12:44:46.994Z</time></trkpt><trkpt lat="44.95178636048695" lon="7.430320427661043"><ele>272.4</ele><time>2026-04-19T12:44:47.994Z</time></trkpt><trkpt lat="44.951881987087575" lon="7.430264437950472"><ele>272.2</ele><time>2026-04-19T12:44:48.995Z</time></trkpt><trkpt lat="44.95199044048415" lon="7.430225906352514"><ele>272.0</ele><time>2026-04-19T12:44:49.995Z</time></trkpt><trkpt lat="44.95212500193818" lon="7.430210341762142"><ele>272.0</ele><time>2026-04-19T12:44:50.995Z</time></trkpt><trkpt lat="44.95226611648737" lon="7.430209755853356"><ele>272.0</ele><time>2026-04-19T12:44:51.995Z</time></trkpt><trkpt lat="44.952402219101074" lon="7.430197079385485"><ele>272.0</ele><time>2026-04-19T12:44:52.996Z</time></trkpt><trkpt lat="44.952524559823836" lon="7.43017830576697"><ele>272.0</ele><time>2026-04-19T12:44:53.996Z</time></trkpt><trkpt lat="44.95262406322956" lon="7.430133422047331"><ele>272.1666666666667</ele><time>2026-04-19T12:44:54.996Z</time></trkpt><trkpt lat="44.952701663947465" lon="7.430073381270605"><ele>272.33333333333337</ele><time>2026-04-19T12:44:55.996Z</time></trkpt><trkpt lat="44.95276219560278" lon="7.430026008664938"><ele>272.5</ele><time>2026-04-19T12:44:56.996Z</time></trkpt><trkpt lat="44.952830538442164" lon="7.429992883099895"><ele>272.6666666666667</ele><time>2026-04-19T12:44:57.997Z</time></trkpt><trkpt lat="44.95291326077523" lon="7.430005111465987"><ele>272.8333333333333</ele><time>2026-04-19T12:44:58.997Z</time></trkpt><trkpt lat="44.95300150502776" lon="7.429995692436148"><ele>273.0</ele><time>2026-04-19T12:44:59.997Z</time></trkpt><trkpt lat="44.95310660641724" lon="7.430007138270675"><ele>273.0</ele><time>2026-04-19T12:45:00.997Z</time></trkpt><trkpt lat="44.953223087319785" lon="7.4300093135663365"><ele>273.0</ele><time>2026-04-19T12:45:01.997Z</time></trkpt><trkpt lat="44.953351326082704" lon="7.4300132761296664"><ele>273.0</ele><time>2026-04-19T12:45:02.997Z</time></trkpt><trkpt lat="44.9534848882603" lon="7.430002605920031"><ele>273.0</ele><time>2026-04-19T12:45:03.998Z</time></trkpt><trkpt lat="44.95362296131302" lon="7.430021205889903"><ele>273.5</ele><time>2026-04-19T12:45:04.998Z</time></trkpt><trkpt lat="44.95376180872149" lon="7.430018796963587"><ele>274.0</ele><time>2026-04-19T12:45:05.998Z</time></trkpt><trkpt lat="44.953905242453004" lon="7.430020159075633"><ele>274.5</ele><time>2026-04-19T12:45:06.998Z</time></trkpt><trkpt lat="44.95404526320207" lon="7.430018668392445"><ele>275.0</ele><time>2026-04-19T12:45:07.998Z</time></trkpt><trkpt lat="44.9541850880813" lon="7.430014928670148"><ele>275.33333333333337</ele><time>2026-04-19T12:45:08.998Z</time></trkpt><trkpt lat="44.95432807307163" lon="7.430019343485559"><ele>275.6666666666667</ele><time>2026-04-19T12:45:09.999Z</time></trkpt><trkpt lat="44.95448405864282" lon="7.430033926631631"><ele>276.0</ele><time>2026-04-19T12:45:10.999Z</time></trkpt><trkpt lat="44.95465546413289" lon="7.430078718079309"><ele>276.0</ele><time>2026-04-19T12:45:11.999Z</time></trkpt><trkpt lat="44.9548150077471" lon="7.430105786062784"><ele>276.0</ele><time>2026-04-19T12:45:12.999Z</time></trkpt><trkpt lat="44.954996598254276" lon="7.4301221402284074"><ele>276.0</ele><time>2026-04-19T12:45:13.999Z</time></trkpt><trkpt lat="44.95517911163966" lon="7.430104824935536"><ele>276.3333333333333</ele><time>2026-04-19T12:45:14.999Z</time></trkpt><trkpt lat="44.95535651140542" lon="7.430102918067608"><ele>276.66666666666663</ele><time>2026-04-19T12:45:15.999Z</time></trkpt><trkpt lat="44.955526577221235" lon="7.4301004390424845"><ele>277.0</ele><time>2026-04-19T12:45:16.999Z</time></trkpt><trkpt lat="44.95570284424224" lon="7.430088568136688"><ele>277.0</ele><time>2026-04-19T12:45:17.999Z</time></trkpt><trkpt lat="44.9558779561406" lon="7.430082780399207"><ele>277.0</ele><time>2026-04-19T12:45:19Z</time></trkpt><trkpt lat="44.95605217780665" lon="7.430103807306631"><ele>277.0</ele><time>2026-04-19T12:45:20Z</time></trkpt><trkpt lat="44.95622283842722" lon="7.430104905530772"><ele>277.0</ele><time>2026-04-19T12:45:21Z</time></trkpt><trkpt lat="44.95639742886056" lon="7.430106918241284"><ele>277.0</ele><time>2026-04-19T12:45:22Z</time></trkpt><trkpt lat="44.95657068258769" lon="7.430111184005232"><ele>277.0</ele><time>2026-04-19T12:45:23Z</time></trkpt><trkpt lat="44.9567439996895" lon="7.430115451332663"><ele>276.66666666666663</ele><time>2026-04-19T12:45:24Z</time></trkpt><trkpt lat="44.956916602241975" lon="7.430119701063574"><ele>276.3333333333333</ele><time>2026-04-19T12:45:25Z</time></trkpt><trkpt lat="44.957091727598915" lon="7.43012408373524"><ele>276.0</ele><time>2026-04-19T12:45:26Z</time></trkpt><trkpt lat="44.95726444238718" lon="7.430128516303701"><ele>276.0</ele><time>2026-04-19T12:45:27Z</time></trkpt><trkpt lat="44.95743193206127" lon="7.430132814779878"><ele>276.0</ele><time>2026-04-19T12:45:28Z</time></trkpt><trkpt lat="44.95760575246293" lon="7.43011734152739"><ele>276.0</ele><time>2026-04-19T12:45:29Z</time></trkpt><trkpt lat="44.95777068665525" lon="7.430141508614757"><ele>276.0</ele><time>2026-04-19T12:45:30Z</time></trkpt><trkpt lat="44.95794633072291" lon="7.4301458581266555"><ele>276.0</ele><time>2026-04-19T12:45:31Z</time></trkpt><trkpt lat="44.958120542818556" lon="7.4301495208804"><ele>276.0</ele><time>2026-04-19T12:45:32Z</time></trkpt><trkpt lat="44.95829593431548" lon="7.430153208423069"><ele>276.0</ele><time>2026-04-19T12:45:33Z</time></trkpt><trkpt lat="44.958463773844706" lon="7.430156737189346"><ele>276.0</ele><time>2026-04-19T12:45:34.001Z</time></trkpt><trkpt lat="44.95863094379095" lon="7.430160251876326"><ele>276.0</ele><time>2026-04-19T12:45:35.001Z</time></trkpt><trkpt lat="44.95880647897935" lon="7.430164701210295"><ele>276.0</ele><time>2026-04-19T12:45:36.001Z</time></trkpt><trkpt lat="44.9589832071718" lon="7.4301704274518325"><ele>276.0</ele><time>2026-04-19T12:45:37.001Z</time></trkpt><trkpt lat="44.95915137296853" lon="7.430175876261906"><ele>276.0</ele><time>2026-04-19T12:45:38.001Z</time></trkpt><trkpt lat="44.9593206992122" lon="7.430181362626333"><ele>276.0</ele><time>2026-04-19T12:45:39.001Z</time></trkpt><trkpt lat="44.959480501027485" lon="7.430186620315252"><ele>276.0</ele><time>2026-04-19T12:45:40.001Z</time></trkpt><trkpt lat="44.95964540508436" lon="7.4301763936571765"><ele>276.0</ele><time>2026-04-19T12:45:41.001Z</time></trkpt><trkpt lat="44.9598140549359" lon="7.430179231751369"><ele>276.0</ele><time>2026-04-19T12:45:42.001Z</time></trkpt><trkpt lat="44.9599811826954" lon="7.43018182038732"><ele>276.0</ele><time>2026-04-19T12:45:43.001Z</time></trkpt><trkpt lat="44.96014163019328" lon="7.430211984925452"><ele>276.0</ele><time>2026-04-19T12:45:44.001Z</time></trkpt><trkpt lat="44.960305753803574" lon="7.430219086629024"><ele>276.3333333333333</ele><time>2026-04-19T12:45:45.001Z</time></trkpt><trkpt lat="44.960468826020126" lon="7.430223303470227"><ele>276.66666666666663</ele><time>2026-04-19T12:45:46.001Z</time></trkpt><trkpt lat="44.960639234322535" lon="7.43022679661853"><ele>277.0</ele><time>2026-04-19T12:45:47.001Z</time></trkpt><trkpt lat="44.9608081806285" lon="7.430221268667548"><ele>277.3333333333333</ele><time>2026-04-19T12:45:48.001Z</time></trkpt><trkpt lat="44.96097405066075" lon="7.430212565173838"><ele>277.6666666666667</ele><time>2026-04-19T12:45:49.001Z</time></trkpt><trkpt lat="44.96114124755152" lon="7.430201023934727"><ele>278.0</ele><time>2026-04-19T12:45:50.001Z</time></trkpt><trkpt lat="44.9613144078453" lon="7.43018836098804"><ele>278.0</ele><time>2026-04-19T12:45:51.001Z</time></trkpt><trkpt lat="44.96148625605101" lon="7.4301752740314955"><ele>278.0</ele><time>2026-04-19T12:45:52.001Z</time></trkpt><trkpt lat="44.96165779541991" lon="7.430161547471576"><ele>278.0</ele><time>2026-04-19T12:45:53.001Z</time></trkpt><trkpt lat="44.96183672374364" lon="7.430147351249285"><ele>278.6666666666667</ele><time>2026-04-19T12:45:54.001Z</time></trkpt><trkpt lat="44.96200651084175" lon="7.430134643159832"><ele>279.3333333333333</ele><time>2026-04-19T12:45:55.001Z</time></trkpt><trkpt lat="44.96217559522263" lon="7.430114910426833"><ele>280.0</ele><time>2026-04-19T12:45:56.001Z</time></trkpt><trkpt lat="44.96234323043759" lon="7.430087089358004"><ele>280.0</ele><time>2026-04-19T12:45:57.001Z</time></trkpt><trkpt lat="44.96249525305486" lon="7.4300597930276995"><ele>280.0</ele><time>2026-04-19T12:45:58.002Z</time></trkpt><trkpt lat="44.96264706714627" lon="7.430032534141002"><ele>280.0</ele><time>2026-04-19T12:45:59.002Z</time></trkpt><trkpt lat="44.96278755567076" lon="7.4300104160845235"><ele>280.0</ele><time>2026-04-19T12:46:00.002Z</time></trkpt><trkpt lat="44.962931706011574" lon="7.4299682150337745"><ele>279.3333333333333</ele><time>2026-04-19T12:46:01.002Z</time></trkpt><trkpt lat="44.96307501925673" lon="7.42996555189525"><ele>278.6666666666667</ele><time>2026-04-19T12:46:02.002Z</time></trkpt><trkpt lat="44.96322053851944" lon="7.429928865679172"><ele>278.0</ele><time>2026-04-19T12:46:03.002Z</time></trkpt><trkpt lat="44.96338043851422" lon="7.429888628579694"><ele>277.6666666666667</ele><time>2026-04-19T12:46:04.002Z</time></trkpt><trkpt lat="44.96352587374611" lon="7.429881032859799"><ele>277.3333333333333</ele><time>2026-04-19T12:46:05.002Z</time></trkpt><trkpt lat="44.963675303304" lon="7.429843795534628"><ele>277.0</ele><time>2026-04-19T12:46:06.002Z</time></trkpt><trkpt lat="44.96383595912737" lon="7.429799478267791"><ele>277.0</ele><time>2026-04-19T12:46:07.002Z</time></trkpt><trkpt lat="44.963987303526196" lon="7.429756237021089"><ele>277.0</ele><time>2026-04-19T12:46:08.002Z</time></trkpt><trkpt lat="44.964150285566774" lon="7.429709670731974"><ele>277.0</ele><time>2026-04-19T12:46:09.002Z</time></trkpt><trkpt lat="44.964315646291084" lon="7.429662425163673"><ele>277.0</ele><time>2026-04-19T12:46:10.002Z</time></trkpt><trkpt lat="44.96444773079979" lon="7.429625091716551"><ele>277.0</ele><time>2026-04-19T12:46:11.002Z</time></trkpt><trkpt lat="44.96459797015021" lon="7.4295669389670875"><ele>277.0</ele><time>2026-04-19T12:46:12.002Z</time></trkpt><trkpt lat="44.964753336917106" lon="7.429534432724946"><ele>277.0</ele><time>2026-04-19T12:46:13.002Z</time></trkpt><trkpt lat="44.96491309650489" lon="7.429482777219504"><ele>276.66666666666663</ele><time>2026-04-19T12:46:14.002Z</time></trkpt><trkpt lat="44.96508164568925" lon="7.429446246168247"><ele>276.3333333333333</ele><time>2026-04-19T12:46:15.002Z</time></trkpt><trkpt lat="44.965226296334336" lon="7.4294035714764695"><ele>276.0</ele><time>2026-04-19T12:46:16.002Z</time></trkpt><trkpt lat="44.96537950339425" lon="7.429359800722613"><ele>276.0</ele><time>2026-04-19T12:46:17.002Z</time></trkpt><trkpt lat="44.965527090832374" lon="7.429319519419682"><ele>276.0</ele><time>2026-04-19T12:46:18.002Z</time></trkpt><trkpt lat="44.965675677443265" lon="7.429286574759385"><ele>276.0</ele><time>2026-04-19T12:46:19.002Z</time></trkpt><trkpt lat="44.965816475225694" lon="7.429257093454517"><ele>276.0</ele><time>2026-04-19T12:46:20.002Z</time></trkpt><trkpt lat="44.96595835783662" lon="7.4292404855903"><ele>276.3333333333333</ele><time>2026-04-19T12:46:21.002Z</time></trkpt><trkpt lat="44.966110043764715" lon="7.429207737626855"><ele>276.66666666666663</ele><time>2026-04-19T12:46:22.002Z</time></trkpt><trkpt lat="44.96626347180764" lon="7.429173383412424"><ele>277.0</ele><time>2026-04-19T12:46:23.002Z</time></trkpt><trkpt lat="44.966410191102476" lon="7.429136244780642"><ele>277.0</ele><time>2026-04-19T12:46:24.002Z</time></trkpt><trkpt lat="44.96655820599915" lon="7.429097835335534"><ele>277.0</ele><time>2026-04-19T12:46:25.002Z</time></trkpt><trkpt lat="44.96669896456861" lon="7.429060243683887"><ele>277.0</ele><time>2026-04-19T12:46:26.002Z</time></trkpt><trkpt lat="44.96682032350616" lon="7.42902783293932"><ele>277.0</ele><time>2026-04-19T12:46:27.002Z</time></trkpt><trkpt lat="44.966929992796885" lon="7.428998544079139"><ele>277.0</ele><time>2026-04-19T12:46:28.002Z</time></trkpt><trkpt lat="44.96703267697975" lon="7.428971120743444"><ele>277.0</ele><time>2026-04-19T12:46:29.002Z</time></trkpt><trkpt lat="44.967105852445584" lon="7.428929485602393"><ele>277.0</ele><time>2026-04-19T12:46:30.003Z</time></trkpt><trkpt lat="44.96717391319945" lon="7.428948258513114"><ele>277.0</ele><time>2026-04-19T12:46:31.003Z</time></trkpt><trkpt lat="44.96723588583321" lon="7.429006610389714"><ele>277.0</ele><time>2026-04-19T12:46:32.003Z</time></trkpt><trkpt lat="44.96728174332379" lon="7.429108366204205"><ele>277.0</ele><time>2026-04-19T12:46:33.003Z</time></trkpt><trkpt lat="44.967323783360094" lon="7.429242417112358"><ele>277.0</ele><time>2026-04-19T12:46:34.003Z</time></trkpt><trkpt lat="44.967379288715115" lon="7.429380885033964"><ele>277.0</ele><time>2026-04-19T12:46:35.003Z</time></trkpt><trkpt lat="44.96745200342591" lon="7.429530650756768"><ele>277.0</ele><time>2026-04-19T12:46:36.003Z</time></trkpt><trkpt lat="44.96753307407622" lon="7.429690232878929"><ele>277.0</ele><time>2026-04-19T12:46:37.003Z</time></trkpt><trkpt lat="44.96761617757527" lon="7.429867184850552"><ele>276.66666666666663</ele><time>2026-04-19T12:46:38.003Z</time></trkpt><trkpt lat="44.96770128174626" lon="7.430057066279619"><ele>276.3333333333333</ele><time>2026-04-19T12:46:39.003Z</time></trkpt><trkpt lat="44.96779204074287" lon="7.430249100933526"><ele>276.0</ele><time>2026-04-19T12:46:40.003Z</time></trkpt><trkpt lat="44.96788839415291" lon="7.430439492417795"><ele>276.3333333333333</ele><time>2026-04-19T12:46:41.003Z</time></trkpt><trkpt lat="44.9679918855289" lon="7.430642325609646"><ele>276.66666666666663</ele><time>2026-04-19T12:46:42.003Z</time></trkpt><trkpt lat="44.96808949924912" lon="7.430842191475012"><ele>277.0</ele><time>2026-04-19T12:46:43.003Z</time></trkpt><trkpt lat="44.9681883177387" lon="7.431048499386286"><ele>277.0</ele><time>2026-04-19T12:46:44.003Z</time></trkpt><trkpt lat="44.968287391573526" lon="7.431261068769053"><ele>277.0</ele><time>2026-04-19T12:46:45.003Z</time></trkpt><trkpt lat="44.96839216524829" lon="7.431477558757773"><ele>277.0</ele><time>2026-04-19T12:46:46.003Z</time></trkpt><trkpt lat="44.968500091540335" lon="7.431690799256602"><ele>277.3333333333333</ele><time>2026-04-19T12:46:47.003Z</time></trkpt><trkpt lat="44.96860970713521" lon="7.431910028087212"><ele>277.6666666666667</ele><time>2026-04-19T12:46:48.003Z</time></trkpt><trkpt lat="44.96871671371084" lon="7.432132666435371"><ele>278.0</ele><time>2026-04-19T12:46:49.003Z</time></trkpt><trkpt lat="44.9688215516378" lon="7.432354771637137"><ele>277.33333333333337</ele><time>2026-04-19T12:46:50.003Z</time></trkpt><trkpt lat="44.968927366745916" lon="7.432576915970141"><ele>276.6666666666667</ele><time>2026-04-19T12:46:51.003Z</time></trkpt><trkpt lat="44.96903192194939" lon="7.432802279481589"><ele>276.0</ele><time>2026-04-19T12:46:51.995Z</time></trkpt><trkpt lat="44.96914362849137" lon="7.433033719039637"><ele>275.6666666666667</ele><time>2026-04-19T12:46:52.995Z</time></trkpt><trkpt lat="44.96925388345771" lon="7.433272017139527"><ele>275.33333333333337</ele><time>2026-04-19T12:46:53.995Z</time></trkpt><trkpt lat="44.969368274431595" lon="7.433513661877375"><ele>275.0</ele><time>2026-04-19T12:46:54.995Z</time></trkpt><trkpt lat="44.969489211953025" lon="7.433756632504585"><ele>274.6666666666667</ele><time>2026-04-19T12:46:55.996Z</time></trkpt><trkpt lat="44.96961267055496" lon="7.43399902476996"><ele>274.3333333333333</ele><time>2026-04-19T12:46:56.996Z</time></trkpt><trkpt lat="44.96973118342315" lon="7.434242881678767"><ele>274.0</ele><time>2026-04-19T12:46:57.996Z</time></trkpt><trkpt lat="44.969851055642344" lon="7.434486840661042"><ele>274.3333333333333</ele><time>2026-04-19T12:46:58.996Z</time></trkpt><trkpt lat="44.969970519314366" lon="7.434728213788123"><ele>274.6666666666667</ele><time>2026-04-19T12:46:59.996Z</time></trkpt><trkpt lat="44.97008788852988" lon="7.4349679701404146"><ele>275.0</ele><time>2026-04-19T12:47:00.997Z</time></trkpt><trkpt lat="44.970202044549296" lon="7.435208043882115"><ele>275.0</ele><time>2026-04-19T12:47:01.997Z</time></trkpt><trkpt lat="44.97031369439001" lon="7.4354452980907215"><ele>275.0</ele><time>2026-04-19T12:47:02.997Z</time></trkpt><trkpt lat="44.97042159853102" lon="7.4356857468081055"><ele>275.0</ele><time>2026-04-19T12:47:03.997Z</time></trkpt><trkpt lat="44.97053069233747" lon="7.435926243363787"><ele>275.33333333333337</ele><time>2026-04-19T12:47:04.997Z</time></trkpt><trkpt lat="44.970642351941066" lon="7.436164392104554"><ele>275.6666666666667</ele><time>2026-04-19T12:47:05.997Z</time></trkpt><trkpt lat="44.97075602477496" lon="7.436403430455528"><ele>276.0</ele><time>2026-04-19T12:47:06.998Z</time></trkpt><trkpt lat="44.970871214089726" lon="7.4366434314373056"><ele>275.6666666666667</ele><time>2026-04-19T12:47:07.998Z</time></trkpt><trkpt lat="44.97098917765554" lon="7.436883065265822"><ele>275.33333333333337</ele><time>2026-04-19T12:47:08.998Z</time></trkpt><trkpt lat="44.97110172753932" lon="7.437123947035756"><ele>275.0</ele><time>2026-04-19T12:47:09.998Z</time></trkpt><trkpt lat="44.971216468691765" lon="7.437365532279069"><ele>275.0</ele><time>2026-04-19T12:47:10.998Z</time></trkpt><trkpt lat="44.971332150889545" lon="7.437603793376845"><ele>275.0</ele><time>2026-04-19T12:47:11.998Z</time></trkpt><trkpt lat="44.971448816941404" lon="7.43784084473627"><ele>275.0</ele><time>2026-04-19T12:47:12.998Z</time></trkpt><trkpt lat="44.97156430240957" lon="7.438078274690299"><ele>274.6666666666667</ele><time>2026-04-19T12:47:13.999Z</time></trkpt><trkpt lat="44.9716782075601" lon="7.438312708295648"><ele>274.3333333333333</ele><time>2026-04-19T12:47:14.999Z</time></trkpt><trkpt lat="44.97179527696704" lon="7.438548383359132"><ele>274.0</ele><time>2026-04-19T12:47:15.999Z</time></trkpt><trkpt lat="44.971910244739085" lon="7.438782729335767"><ele>273.66666666666663</ele><time>2026-04-19T12:47:16.999Z</time></trkpt><trkpt lat="44.97202420499766" lon="7.43902331540252"><ele>273.3333333333333</ele><time>2026-04-19T12:47:17.999Z</time></trkpt><trkpt lat="44.972137446876346" lon="7.439258650204557"><ele>273.0</ele><time>2026-04-19T12:47:18.999Z</time></trkpt><trkpt lat="44.972250443025494" lon="7.439495013593893"><ele>273.3333333333333</ele><time>2026-04-19T12:47:19.999Z</time></trkpt><trkpt lat="44.97236377584259" lon="7.439728576404506"><ele>273.66666666666663</ele><time>2026-04-19T12:47:20.999Z</time></trkpt><trkpt lat="44.97247657443277" lon="7.439960417000451"><ele>274.0</ele><time>2026-04-19T12:47:21.999Z</time></trkpt><trkpt lat="44.97259110957167" lon="7.44019109422048"><ele>274.66666666666663</ele><time>2026-04-19T12:47:23Z</time></trkpt><trkpt lat="44.97270664201636" lon="7.4404176505108115"><ele>275.3333333333333</ele><time>2026-04-19T12:47:24Z</time></trkpt><trkpt lat="44.97281517480938" lon="7.440644253986661"><ele>276.0</ele><time>2026-04-19T12:47:25Z</time></trkpt><trkpt lat="44.97292232885839" lon="7.440875106800494"><ele>276.0</ele><time>2026-04-19T12:47:26Z</time></trkpt><trkpt lat="44.9730257485821" lon="7.441095893693284"><ele>276.0</ele><time>2026-04-19T12:47:27Z</time></trkpt><trkpt lat="44.973121192682314" lon="7.441296981768958"><ele>276.0</ele><time>2026-04-19T12:47:28Z</time></trkpt><trkpt lat="44.973212073357686" lon="7.441489093509498"><ele>276.0</ele><time>2026-04-19T12:47:29Z</time></trkpt><trkpt lat="44.973287851145216" lon="7.441656349850766"><ele>276.0</ele><time>2026-04-19T12:47:30Z</time></trkpt><trkpt lat="44.97334937982756" lon="7.441807390067935"><ele>276.0</ele><time>2026-04-19T12:47:31Z</time></trkpt><trkpt lat="44.9733889834808" lon="7.441925983087042"><ele>276.0</ele><time>2026-04-19T12:47:32Z</time></trkpt><trkpt lat="44.97341584717217" lon="7.4420256260509845"><ele>276.0</ele><time>2026-04-19T12:47:33Z</time></trkpt><trkpt lat="44.973440710577535" lon="7.442204739678742"><ele>276.0</ele><time>2026-04-19T12:47:35Z</time></trkpt><trkpt lat="44.97349056098376" lon="7.442313314287817"><ele>276.0</ele><time>2026-04-19T12:47:36Z</time></trkpt><trkpt lat="44.97357076959844" lon="7.442417704589116"><ele>276.0</ele><time>2026-04-19T12:47:37Z</time></trkpt><trkpt lat="44.9736623799934" lon="7.4425276166533525"><ele>276.0</ele><time>2026-04-19T12:47:38.001Z</time></trkpt><trkpt lat="44.973735440800105" lon="7.442679177174947"><ele>276.0</ele><time>2026-04-19T12:47:39.001Z</time></trkpt><trkpt lat="44.9738141417748" lon="7.44284839450672"><ele>276.0</ele><time>2026-04-19T12:47:40.001Z</time></trkpt><trkpt lat="44.97390087533865" lon="7.443032813548328"><ele>276.0</ele><time>2026-04-19T12:47:41.001Z</time></trkpt><trkpt lat="44.97399492616332" lon="7.443239796746321"><ele>276.0</ele><time>2026-04-19T12:47:42.001Z</time></trkpt><trkpt lat="44.97408981900266" lon="7.443473778887483"><ele>276.0</ele><time>2026-04-19T12:47:43.001Z</time></trkpt><trkpt lat="44.974188018001" lon="7.443716128233641"><ele>276.0</ele><time>2026-04-19T12:47:44.001Z</time></trkpt><trkpt lat="44.97429174912757" lon="7.443962714861252"><ele>277.0</ele><time>2026-04-19T12:47:45.001Z</time></trkpt><trkpt lat="44.97439908432757" lon="7.444218680448659"><ele>278.0</ele><time>2026-04-19T12:47:46.001Z</time></trkpt><trkpt lat="44.97450776435423" lon="7.4444741295721"><ele>279.0</ele><time>2026-04-19T12:47:47.001Z</time></trkpt><trkpt lat="44.97460599330657" lon="7.444712902775579"><ele>280.0</ele><time>2026-04-19T12:47:48.001Z</time></trkpt><trkpt lat="44.97469515850413" lon="7.4449342610192915"><ele>281.0</ele><time>2026-04-19T12:47:49.001Z</time></trkpt><trkpt lat="44.97477405712468" lon="7.4451422921875"><ele>282.0</ele><time>2026-04-19T12:47:50.001Z</time></trkpt><trkpt lat="44.974847466344315" lon="7.445350301994574"><ele>282.0</ele><time>2026-04-19T12:47:51.001Z</time></trkpt><trkpt lat="44.97491630290281" lon="7.445560031144177"><ele>282.0</ele><time>2026-04-19T12:47:52.001Z</time></trkpt><trkpt lat="44.974983998522205" lon="7.445751479361402"><ele>282.0</ele><time>2026-04-19T12:47:53.001Z</time></trkpt><trkpt lat="44.975043190544696" lon="7.4459339529027515"><ele>282.0</ele><time>2026-04-19T12:47:54.001Z</time></trkpt><trkpt lat="44.97509105683603" lon="7.4461203571695345"><ele>282.0</ele><time>2026-04-19T12:47:55.001Z</time></trkpt><trkpt lat="44.97512877178609" lon="7.446332023094199"><ele>282.0</ele><time>2026-04-19T12:47:56.001Z</time></trkpt><trkpt lat="44.97515160775253" lon="7.4465188011331005"><ele>282.0</ele><time>2026-04-19T12:47:57.001Z</time></trkpt><trkpt lat="44.97518249496969" lon="7.446652106400309"><ele>281.5</ele><time>2026-04-19T12:47:58.001Z</time></trkpt><trkpt lat="44.97523816267788" lon="7.446748775346999"><ele>281.0</ele><time>2026-04-19T12:47:59.001Z</time></trkpt><trkpt lat="44.975280804566616" lon="7.446837075620271"><ele>280.5</ele><time>2026-04-19T12:48:00.001Z</time></trkpt><trkpt lat="44.975398972547836" lon="7.446802367549594"><ele>280.0</ele><time>2026-04-19T12:48:01.001Z</time></trkpt><trkpt lat="44.975466308125995" lon="7.4467596201159685"><ele>279.5</ele><time>2026-04-19T12:48:02.002Z</time></trkpt><trkpt lat="44.975505725993166" lon="7.446681512133262"><ele>279.0</ele><time>2026-04-19T12:48:03.002Z</time></trkpt><trkpt lat="44.975556222128176" lon="7.446619225592593"><ele>279.0</ele><time>2026-04-19T12:48:04.002Z</time></trkpt><trkpt lat="44.97552522199161" lon="7.446456646091515"><ele>279.0</ele><time>2026-04-19T12:48:05.002Z</time></trkpt><trkpt lat="44.975492406988266" lon="7.4463561855356115"><ele>279.0</ele><time>2026-04-19T12:48:06.002Z</time></trkpt><trkpt lat="44.97543836346078" lon="7.446284335013491"><ele>279.0</ele><time>2026-04-19T12:48:07.002Z</time></trkpt><trkpt lat="44.97536295768173" lon="7.446242228698751"><ele>279.0</ele><time>2026-04-19T12:48:08.002Z</time></trkpt><trkpt lat="44.97527579886495" lon="7.446250965687803"><ele>279.0</ele><time>2026-04-19T12:48:09.002Z</time></trkpt><trkpt lat="44.9751961771231" lon="7.446307476268127"><ele>279.0</ele><time>2026-04-19T12:48:10.002Z</time></trkpt><trkpt lat="44.975145919861056" lon="7.446399853839611"><ele>279.0</ele><time>2026-04-19T12:48:11.002Z</time></trkpt><trkpt lat="44.97512556287477" lon="7.446507512071159"><ele>279.0</ele><time>2026-04-19T12:48:12.002Z</time></trkpt><trkpt lat="44.975130437893796" lon="7.446645841892372"><ele>279.0</ele><time>2026-04-19T12:48:13.002Z</time></trkpt><trkpt lat="44.97516451315118" lon="7.446800478012917"><ele>279.0</ele><time>2026-04-19T12:48:14.002Z</time></trkpt><trkpt lat="44.975208067542745" lon="7.4469662212896965"><ele>278.75</ele><time>2026-04-19T12:48:15.002Z</time></trkpt><trkpt lat="44.975253113982" lon="7.447147736236403"><ele>278.5</ele><time>2026-04-19T12:48:16.002Z</time></trkpt><trkpt lat="44.97529550383814" lon="7.447330721695598"><ele>278.25</ele><time>2026-04-19T12:48:17.002Z</time></trkpt><trkpt lat="44.975350393818694" lon="7.4475065224122945"><ele>278.0</ele><time>2026-04-19T12:48:18.002Z</time></trkpt><trkpt lat="44.975395158835454" lon="7.4476863609509945"><ele>278.0</ele><time>2026-04-19T12:48:19.002Z</time></trkpt><trkpt lat="44.975461941842866" lon="7.447849539944876"><ele>278.0</ele><time>2026-04-19T12:48:20.002Z</time></trkpt><trkpt lat="44.97545089889133" lon="7.448089916136897"><ele>278.0</ele><time>2026-04-19T12:48:21.002Z</time></trkpt><trkpt lat="44.975495814164105" lon="7.448292031253838"><ele>278.0</ele><time>2026-04-19T12:48:22.002Z</time></trkpt><trkpt lat="44.975535390907574" lon="7.448486274713285"><ele>278.0</ele><time>2026-04-19T12:48:23.002Z</time></trkpt><trkpt lat="44.97556894190518" lon="7.44866081594272"><ele>278.0</ele><time>2026-04-19T12:48:24.002Z</time></trkpt><trkpt lat="44.975598884838405" lon="7.448828617655019"><ele>278.0</ele><time>2026-04-19T12:48:25.002Z</time></trkpt><trkpt lat="44.97563240551984" lon="7.4490207801970065"><ele>278.0</ele><time>2026-04-19T12:48:26.002Z</time></trkpt><trkpt lat="44.97567447510417" lon="7.449220904802428"><ele>278.0</ele><time>2026-04-19T12:48:27.002Z</time></trkpt><trkpt lat="44.97570977017142" lon="7.449368925601171"><ele>278.0</ele><time>2026-04-19T12:48:28.002Z</time></trkpt><trkpt lat="44.975730266452054" lon="7.449496413975986"><ele>278.0</ele><time>2026-04-19T12:48:29.002Z</time></trkpt><trkpt lat="44.975753410900644" lon="7.449652720525227"><ele>277.8</ele><time>2026-04-19T12:48:30.002Z</time></trkpt><trkpt lat="44.97578056493316" lon="7.449818725346178"><ele>277.6</ele><time>2026-04-19T12:48:31.002Z</time></trkpt><trkpt lat="44.97579754661247" lon="7.449956637392433"><ele>277.4</ele><time>2026-04-19T12:48:32.002Z</time></trkpt><trkpt lat="44.975797649600395" lon="7.450090598449205"><ele>277.2</ele><time>2026-04-19T12:48:33.003Z</time></trkpt><trkpt lat="44.97583384173975" lon="7.450224234551286"><ele>277.0</ele><time>2026-04-19T12:48:34.003Z</time></trkpt><trkpt lat="44.975803321630856" lon="7.4503889622727835"><ele>277.25</ele><time>2026-04-19T12:48:35.003Z</time></trkpt><trkpt lat="44.97582817153276" lon="7.450556563545622"><ele>277.5</ele><time>2026-04-19T12:48:36.003Z</time></trkpt><trkpt lat="44.97585991214862" lon="7.450739774673978"><ele>277.75</ele><time>2026-04-19T12:48:37.003Z</time></trkpt><trkpt lat="44.97589392089063" lon="7.450936975529439"><ele>278.0</ele><time>2026-04-19T12:48:38.003Z</time></trkpt><trkpt lat="44.9759266103067" lon="7.451151706123797"><ele>278.0</ele><time>2026-04-19T12:48:39.003Z</time></trkpt><trkpt lat="44.97595471221469" lon="7.451381751770599"><ele>278.0</ele><time>2026-04-19T12:48:40.003Z</time></trkpt><trkpt lat="44.97597429194215" lon="7.451591328290188"><ele>278.0</ele><time>2026-04-19T12:48:41.003Z</time></trkpt><trkpt lat="44.9760002014634" lon="7.451797960124538"><ele>278.0</ele><time>2026-04-19T12:48:42.003Z</time></trkpt><trkpt lat="44.976025667021865" lon="7.451997440378564"><ele>278.0</ele><time>2026-04-19T12:48:43.003Z</time></trkpt><trkpt lat="44.97606050491744" lon="7.452220738834466"><ele>278.0</ele><time>2026-04-19T12:48:44.003Z</time></trkpt><trkpt lat="44.976091724834944" lon="7.452430445760081"><ele>278.33333333333337</ele><time>2026-04-19T12:48:45.003Z</time></trkpt><trkpt lat="44.9761214411862" lon="7.4526470830591105"><ele>278.6666666666667</ele><time>2026-04-19T12:48:46.003Z</time></trkpt><trkpt lat="44.97614401483621" lon="7.452863115544499"><ele>279.0</ele><time>2026-04-19T12:48:47.003Z</time></trkpt><trkpt lat="44.976233644638036" lon="7.453060597769959"><ele>278.3333333333333</ele><time>2026-04-19T12:48:48.003Z</time></trkpt><trkpt lat="44.97619343608416" lon="7.4532891945476125"><ele>277.66666666666663</ele><time>2026-04-19T12:48:49.003Z</time></trkpt><trkpt lat="44.97622476347292" lon="7.453501817913025"><ele>277.0</ele><time>2026-04-19T12:48:50.003Z</time></trkpt><trkpt lat="44.97626097349066" lon="7.453723374110219"><ele>277.66666666666663</ele><time>2026-04-19T12:48:51.003Z</time></trkpt><trkpt lat="44.97629727820021" lon="7.4539543186145965"><ele>278.3333333333333</ele><time>2026-04-19T12:48:52.003Z</time></trkpt><trkpt lat="44.976336224154274" lon="7.454178875193805"><ele>279.0</ele><time>2026-04-19T12:48:53.003Z</time></trkpt><trkpt lat="44.97636993558797" lon="7.454410153562421"><ele>279.0</ele><time>2026-04-19T12:48:54.003Z</time></trkpt><trkpt lat="44.976398054689255" lon="7.454638224697301"><ele>279.0</ele><time>2026-04-19T12:48:55.003Z</time></trkpt><trkpt lat="44.976420233447094" lon="7.454837104018232"><ele>279.0</ele><time>2026-04-19T12:48:56.003Z</time></trkpt><trkpt lat="44.97644027616235" lon="7.455021866417987"><ele>279.0</ele><time>2026-04-19T12:48:57.003Z</time></trkpt><trkpt lat="44.976454246669505" lon="7.4551734139786445"><ele>279.0</ele><time>2026-04-19T12:48:57.995Z</time></trkpt><trkpt lat="44.97645436645039" lon="7.455302812068555"><ele>279.0</ele><time>2026-04-19T12:48:58.995Z</time></trkpt><trkpt lat="44.97641052431354" lon="7.455453880197154"><ele>279.0</ele><time>2026-04-19T12:49:00.995Z</time></trkpt><trkpt lat="44.97650205843391" lon="7.45548820047525"><ele>279.0</ele><time>2026-04-19T12:49:04.996Z</time></trkpt><trkpt lat="44.97656125616339" lon="7.4554504731936495"><ele>279.0</ele><time>2026-04-19T12:49:06.997Z</time></trkpt><trkpt lat="44.976626101440694" lon="7.4554548873934285"><ele>279.0</ele><time>2026-04-19T12:49:08.997Z</time></trkpt><trkpt lat="44.97678966069554" lon="7.455399786109453"><ele>279.0</ele><time>2026-04-19T12:49:11.997Z</time></trkpt><trkpt lat="44.97687715097029" lon="7.455405610954993"><ele>279.0</ele><time>2026-04-19T12:49:12.998Z</time></trkpt><trkpt lat="44.976956361600045" lon="7.455393588789486"><ele>279.0</ele><time>2026-04-19T12:49:13.998Z</time></trkpt><trkpt lat="44.977039182606624" lon="7.455388255693513"><ele>279.0</ele><time>2026-04-19T12:49:14.998Z</time></trkpt><trkpt lat="44.97713227905257" lon="7.455384619645073"><ele>279.0</ele><time>2026-04-19T12:49:15.998Z</time></trkpt><trkpt lat="44.97723180444725" lon="7.4553868249729325"><ele>279.0</ele><time>2026-04-19T12:49:16.998Z</time></trkpt><trkpt lat="44.97733532287488" lon="7.4553667985721495"><ele>279.0</ele><time>2026-04-19T12:49:17.998Z</time></trkpt><trkpt lat="44.97744471664627" lon="7.455372412510456"><ele>279.0</ele><time>2026-04-19T12:49:18.998Z</time></trkpt><trkpt lat="44.977565416857814" lon="7.455343863279456"><ele>279.0</ele><time>2026-04-19T12:49:19.999Z</time></trkpt><trkpt lat="44.977681784728986" lon="7.455301869471962"><ele>279.0</ele><time>2026-04-19T12:49:20.999Z</time></trkpt><trkpt lat="44.97780028515596" lon="7.455259176993387"><ele>279.75</ele><time>2026-04-19T12:49:21.999Z</time></trkpt><trkpt lat="44.97791333272525" lon="7.45522262090946"><ele>280.5</ele><time>2026-04-19T12:49:22.999Z</time></trkpt><trkpt lat="44.97802941432002" lon="7.455194331277328"><ele>281.25</ele><time>2026-04-19T12:49:23.999Z</time></trkpt><trkpt lat="44.97815064672136" lon="7.4551587741693375"><ele>282.0</ele><time>2026-04-19T12:49:24.999Z</time></trkpt><trkpt lat="44.978267743519346" lon="7.455125135526756"><ele>282.2</ele><time>2026-04-19T12:49:25.999Z</time></trkpt><trkpt lat="44.9783846458114" lon="7.455117554162144"><ele>282.4</ele><time>2026-04-19T12:49:26.999Z</time></trkpt><trkpt lat="44.97849595408769" lon="7.455104136804389"><ele>282.6</ele><time>2026-04-19T12:49:27.999Z</time></trkpt><trkpt lat="44.97860089517755" lon="7.455157239909703"><ele>282.8</ele><time>2026-04-19T12:49:29Z</time></trkpt><trkpt lat="44.97869657415011" lon="7.455188298483613"><ele>283.0</ele><time>2026-04-19T12:49:30Z</time></trkpt><trkpt lat="44.97877585592843" lon="7.455187823371186"><ele>283.0</ele><time>2026-04-19T12:49:31Z</time></trkpt><trkpt lat="44.97884018593837" lon="7.455193377921232"><ele>283.0</ele><time>2026-04-19T12:49:32Z</time></trkpt><trkpt lat="44.97893285565337" lon="7.455199266931234"><ele>283.0</ele><time>2026-04-19T12:49:33Z</time></trkpt><trkpt lat="44.97904072483766" lon="7.455264696454467"><ele>283.0</ele><time>2026-04-19T12:49:34Z</time></trkpt><trkpt lat="44.97914508967357" lon="7.455333956490421"><ele>283.0</ele><time>2026-04-19T12:49:35Z</time></trkpt><trkpt lat="44.97921420407306" lon="7.455438927370469"><ele>283.5</ele><time>2026-04-19T12:49:36Z</time></trkpt><trkpt lat="44.979278939776485" lon="7.455555582435587"><ele>284.0</ele><time>2026-04-19T12:49:37Z</time></trkpt><trkpt lat="44.97934707094443" lon="7.455692134029611"><ele>284.5</ele><time>2026-04-19T12:49:38Z</time></trkpt><trkpt lat="44.97940047016558" lon="7.455847086438293"><ele>285.0</ele><time>2026-04-19T12:49:39Z</time></trkpt><trkpt lat="44.97946337134759" lon="7.455984859842466"><ele>285.0</ele><time>2026-04-19T12:49:40Z</time></trkpt><trkpt lat="44.97955744322129" lon="7.4560818547582555"><ele>285.0</ele><time>2026-04-19T12:49:41Z</time></trkpt><trkpt lat="44.979655987904685" lon="7.456157298223767"><ele>285.0</ele><time>2026-04-19T12:49:42Z</time></trkpt><trkpt lat="44.97977182415294" lon="7.456205721157153"><ele>285.0</ele><time>2026-04-19T12:49:43Z</time></trkpt><trkpt lat="44.979887490567435" lon="7.456259954710859"><ele>285.25</ele><time>2026-04-19T12:49:44Z</time></trkpt><trkpt lat="44.98001175170982" lon="7.456307812208181"><ele>285.5</ele><time>2026-04-19T12:49:45.001Z</time></trkpt><trkpt lat="44.98013555526152" lon="7.456348369211972"><ele>285.75</ele><time>2026-04-19T12:49:46.001Z</time></trkpt><trkpt lat="44.98025970483498" lon="7.456373878021316"><ele>286.0</ele><time>2026-04-19T12:49:47.001Z</time></trkpt><trkpt lat="44.980387910682" lon="7.456378634870049"><ele>286.0</ele><time>2026-04-19T12:49:48.001Z</time></trkpt><trkpt lat="44.98051809744134" lon="7.456399265433614"><ele>286.0</ele><time>2026-04-19T12:49:49.001Z</time></trkpt><trkpt lat="44.98065250830941" lon="7.456431871152856"><ele>286.0</ele><time>2026-04-19T12:49:50.001Z</time></trkpt><trkpt lat="44.980789882445485" lon="7.4564902087928155"><ele>286.0</ele><time>2026-04-19T12:49:51.001Z</time></trkpt><trkpt lat="44.98092024167976" lon="7.456560361238156"><ele>286.0</ele><time>2026-04-19T12:49:52.001Z</time></trkpt><trkpt lat="44.98104491489594" lon="7.456629580228824"><ele>286.0</ele><time>2026-04-19T12:49:53.001Z</time></trkpt><trkpt lat="44.981160984998766" lon="7.456716342931458"><ele>286.0</ele><time>2026-04-19T12:49:54.001Z</time></trkpt><trkpt lat="44.98127088175521" lon="7.456776270594211"><ele>286.0</ele><time>2026-04-19T12:49:55.001Z</time></trkpt><trkpt lat="44.981394043576685" lon="7.456815218150252"><ele>286.0</ele><time>2026-04-19T12:49:56.001Z</time></trkpt><trkpt lat="44.98152930134128" lon="7.456898014172344"><ele>286.0</ele><time>2026-04-19T12:49:57.001Z</time></trkpt><trkpt lat="44.9816749704583" lon="7.456973192236605"><ele>286.0</ele><time>2026-04-19T12:49:58.001Z</time></trkpt><trkpt lat="44.98182307243736" lon="7.457054092463442"><ele>287.3333333333333</ele><time>2026-04-19T12:49:59.001Z</time></trkpt><trkpt lat="44.98197751221349" lon="7.4571246222239145"><ele>288.6666666666667</ele><time>2026-04-19T12:50:00.001Z</time></trkpt><trkpt lat="44.982126210199624" lon="7.4572200014499"><ele>290.0</ele><time>2026-04-19T12:50:01.001Z</time></trkpt><trkpt lat="44.982270958370655" lon="7.457306307637321"><ele>290.0</ele><time>2026-04-19T12:50:02.001Z</time></trkpt><trkpt lat="44.98242208929289" lon="7.457394579729432"><ele>290.0</ele><time>2026-04-19T12:50:03.001Z</time></trkpt><trkpt lat="44.98257699484069" lon="7.457478610500149"><ele>290.0</ele><time>2026-04-19T12:50:04.001Z</time></trkpt><trkpt lat="44.98272612204177" lon="7.457547223331228"><ele>290.25</ele><time>2026-04-19T12:50:05.001Z</time></trkpt><trkpt lat="44.98287754075074" lon="7.457609218794004"><ele>290.5</ele><time>2026-04-19T12:50:06.001Z</time></trkpt><trkpt lat="44.9830236878248" lon="7.457641602152868"><ele>290.75</ele><time>2026-04-19T12:50:07.001Z</time></trkpt><trkpt lat="44.98316048737695" lon="7.45763549953782"><ele>291.0</ele><time>2026-04-19T12:50:08.001Z</time></trkpt><trkpt lat="44.983284575144886" lon="7.457643043049006"><ele>291.3333333333333</ele><time>2026-04-19T12:50:09.001Z</time></trkpt><trkpt lat="44.98337551272599" lon="7.4576073866661465"><ele>291.6666666666667</ele><time>2026-04-19T12:50:10.002Z</time></trkpt><trkpt lat="44.983469019537594" lon="7.4576265398224955"><ele>292.0</ele><time>2026-04-19T12:50:11.002Z</time></trkpt><trkpt lat="44.98353368588432" lon="7.457623250473396"><ele>292.33333333333337</ele><time>2026-04-19T12:50:12.002Z</time></trkpt><trkpt lat="44.98354570738673" lon="7.457713041745874"><ele>292.6666666666667</ele><time>2026-04-19T12:50:13.002Z</time></trkpt><trkpt lat="44.98355558939398" lon="7.457619857809608"><ele>293.0</ele><time>2026-04-19T12:50:45.003Z</time></trkpt><trkpt lat="44.98360804590678" lon="7.4577720168865245"><ele>293.0</ele><time>2026-04-19T12:50:46.003Z</time></trkpt><trkpt lat="44.983672866501855" lon="7.457838628932804"><ele>293.0</ele><time>2026-04-19T12:50:47.003Z</time></trkpt><trkpt lat="44.98374888470702" lon="7.457925728155842"><ele>293.0</ele><time>2026-04-19T12:50:48.003Z</time></trkpt><trkpt lat="44.98383707744795" lon="7.458030914902643"><ele>293.0</ele><time>2026-04-19T12:50:49.003Z</time></trkpt><trkpt lat="44.983938655417205" lon="7.458151155854956"><ele>293.0</ele><time>2026-04-19T12:50:50.003Z</time></trkpt><trkpt lat="44.984038871175606" lon="7.458277117270895"><ele>292.8</ele><time>2026-04-19T12:50:51.003Z</time></trkpt><trkpt lat="44.984109023105844" lon="7.458391785893168"><ele>292.6</ele><time>2026-04-19T12:50:52.003Z</time></trkpt><trkpt lat="44.98417030093515" lon="7.458502644504778"><ele>292.4</ele><time>2026-04-19T12:50:53.003Z</time></trkpt><trkpt lat="44.98423175730571" lon="7.458610600210779"><ele>292.2</ele><time>2026-04-19T12:50:54.003Z</time></trkpt><trkpt lat="44.98430716578309" lon="7.458711534614383"><ele>292.0</ele><time>2026-04-19T12:50:55.003Z</time></trkpt><trkpt lat="44.984406263437585" lon="7.458775293342877"><ele>292.25</ele><time>2026-04-19T12:50:56.003Z</time></trkpt><trkpt lat="44.98452090602289" lon="7.45884528827838"><ele>292.5</ele><time>2026-04-19T12:50:57.003Z</time></trkpt><trkpt lat="44.98462830630861" lon="7.458953439285073"><ele>292.75</ele><time>2026-04-19T12:50:58.003Z</time></trkpt><trkpt lat="44.9847402145138" lon="7.459083715348523"><ele>293.0</ele><time>2026-04-19T12:50:59.003Z</time></trkpt><trkpt lat="44.984861852122705" lon="7.459228907617005"><ele>293.0</ele><time>2026-04-19T12:51:00.003Z</time></trkpt><trkpt lat="44.98499693467445" lon="7.459383297954803"><ele>293.0</ele><time>2026-04-19T12:51:01.003Z</time></trkpt><trkpt lat="44.985131597230954" lon="7.459530850858769"><ele>293.0</ele><time>2026-04-19T12:51:02.003Z</time></trkpt><trkpt lat="44.985263550351824" lon="7.4596789722744195"><ele>293.33333333333337</ele><time>2026-04-19T12:51:03.003Z</time></trkpt><trkpt lat="44.985388025356166" lon="7.4598246627031815"><ele>293.6666666666667</ele><time>2026-04-19T12:51:03.995Z</time></trkpt><trkpt lat="44.985508690499465" lon="7.459968811213882"><ele>294.0</ele><time>2026-04-19T12:51:04.995Z</time></trkpt><trkpt lat="44.985632903392705" lon="7.460110553896091"><ele>294.0</ele><time>2026-04-19T12:51:05.995Z</time></trkpt><trkpt lat="44.985758826538785" lon="7.460253466418455"><ele>294.0</ele><time>2026-04-19T12:51:06.995Z</time></trkpt><trkpt lat="44.98588700051757" lon="7.460400955130075"><ele>294.0</ele><time>2026-04-19T12:51:07.995Z</time></trkpt><trkpt lat="44.98601096730102" lon="7.460552243621397"><ele>294.6666666666667</ele><time>2026-04-19T12:51:08.996Z</time></trkpt><trkpt lat="44.98613450273995" lon="7.460700704552249"><ele>295.33333333333337</ele><time>2026-04-19T12:51:09.996Z</time></trkpt><trkpt lat="44.98626035292243" lon="7.460841436157059"><ele>296.0</ele><time>2026-04-19T12:51:10.996Z</time></trkpt><trkpt lat="44.98637173995778" lon="7.460965078028798"><ele>296.0</ele><time>2026-04-19T12:51:11.996Z</time></trkpt><trkpt lat="44.9864742888827" lon="7.461081318000367"><ele>296.0</ele><time>2026-04-19T12:51:12.997Z</time></trkpt><trkpt lat="44.98656775647798" lon="7.461194150577956"><ele>296.0</ele><time>2026-04-19T12:51:13.997Z</time></trkpt><trkpt lat="44.986657727497615" lon="7.46130367427492"><ele>296.0</ele><time>2026-04-19T12:51:14.997Z</time></trkpt><trkpt lat="44.98676470269166" lon="7.461439933417024"><ele>296.33333333333337</ele><time>2026-04-19T12:51:15.997Z</time></trkpt><trkpt lat="44.98687525653668" lon="7.461568034011309"><ele>296.6666666666667</ele><time>2026-04-19T12:51:16.997Z</time></trkpt><trkpt lat="44.98699585840444" lon="7.46170793941869"><ele>297.0</ele><time>2026-04-19T12:51:17.997Z</time></trkpt><trkpt lat="44.98711547772978" lon="7.461842150597499"><ele>297.0</ele><time>2026-04-19T12:51:18.997Z</time></trkpt><trkpt lat="44.987227934670905" lon="7.461967396750942"><ele>297.0</ele><time>2026-04-19T12:51:19.998Z</time></trkpt><trkpt lat="44.98733056001527" lon="7.462083914999609"><ele>297.0</ele><time>2026-04-19T12:51:20.998Z</time></trkpt><trkpt lat="44.9874244577087" lon="7.462190653501935"><ele>297.0</ele><time>2026-04-19T12:51:21.998Z</time></trkpt><trkpt lat="44.987508035513216" lon="7.462289361090502"><ele>297.3333333333333</ele><time>2026-04-19T12:51:22.998Z</time></trkpt><trkpt lat="44.987587168326904" lon="7.462377328551385"><ele>297.6666666666667</ele><time>2026-04-19T12:51:23.998Z</time></trkpt><trkpt lat="44.98766283540089" lon="7.462465858992876"><ele>298.0</ele><time>2026-04-19T12:51:24.998Z</time></trkpt><trkpt lat="44.98773206795739" lon="7.462543254458407"><ele>298.33333333333337</ele><time>2026-04-19T12:51:25.999Z</time></trkpt><trkpt lat="44.98779370351909" lon="7.462611061542869"><ele>298.6666666666667</ele><time>2026-04-19T12:51:26.999Z</time></trkpt><trkpt lat="44.98784376272215" lon="7.462666250183535"><ele>299.0</ele><time>2026-04-19T12:51:27.999Z</time></trkpt><trkpt lat="44.987883948150014" lon="7.462750570234009"><ele>299.0</ele><time>2026-04-19T12:51:29.999Z</time></trkpt><trkpt lat="44.98794195903622" lon="7.462825352805016"><ele>299.0</ele><time>2026-04-19T12:51:32.999Z</time></trkpt><trkpt lat="44.98802271728534" lon="7.462891745799087"><ele>299.0</ele><time>2026-04-19T12:51:35.999Z</time></trkpt><trkpt lat="44.98808969420205" lon="7.462962046519861"><ele>299.0</ele><time>2026-04-19T12:51:37Z</time></trkpt><trkpt lat="44.98817355983812" lon="7.463056552349145"><ele>299.0</ele><time>2026-04-19T12:51:38Z</time></trkpt><trkpt lat="44.988262405635105" lon="7.463161227412625"><ele>298.75</ele><time>2026-04-19T12:51:39Z</time></trkpt><trkpt lat="44.988362564001854" lon="7.463272888372421"><ele>298.5</ele><time>2026-04-19T12:51:40Z</time></trkpt><trkpt lat="44.98847764394235" lon="7.463408481039683"><ele>298.25</ele><time>2026-04-19T12:51:41Z</time></trkpt><trkpt lat="44.988605604071076" lon="7.463561268912524"><ele>298.0</ele><time>2026-04-19T12:51:42Z</time></trkpt><trkpt lat="44.98873895095639" lon="7.463723742284597"><ele>297.66666666666663</ele><time>2026-04-19T12:51:43Z</time></trkpt><trkpt lat="44.98886937158426" lon="7.463892632593229"><ele>297.3333333333333</ele><time>2026-04-19T12:51:44Z</time></trkpt><trkpt lat="44.98898636884458" lon="7.464070859102295"><ele>297.0</ele><time>2026-04-19T12:51:45Z</time></trkpt><trkpt lat="44.98908228800845" lon="7.464260176215045"><ele>297.0</ele><time>2026-04-19T12:51:46Z</time></trkpt><trkpt lat="44.989158755060764" lon="7.464454788554693"><ele>297.0</ele><time>2026-04-19T12:51:47Z</time></trkpt><trkpt lat="44.98920812197745" lon="7.464637826270513"><ele>297.0</ele><time>2026-04-19T12:51:48Z</time></trkpt><trkpt lat="44.989236692937105" lon="7.464803511480112"><ele>297.0</ele><time>2026-04-19T12:51:49Z</time></trkpt><trkpt lat="44.989258361072345" lon="7.464936385647962"><ele>297.0</ele><time>2026-04-19T12:51:50Z</time></trkpt><trkpt lat="44.98928314138812" lon="7.465048243579301"><ele>297.0</ele><time>2026-04-19T12:51:51Z</time></trkpt><trkpt lat="44.98930478635642" lon="7.465138820518184"><ele>297.0</ele><time>2026-04-19T12:51:52Z</time></trkpt><trkpt lat="44.9893391355234" lon="7.465275866285069"><ele>297.0</ele><time>2026-04-19T12:51:54.001Z</time></trkpt><trkpt lat="44.989373393345915" lon="7.465421780241139"><ele>297.0</ele><time>2026-04-19T12:51:56.001Z</time></trkpt><trkpt lat="44.98939842275764" lon="7.465565463661752"><ele>297.0</ele><time>2026-04-19T12:51:57.001Z</time></trkpt><trkpt lat="44.98943755815111" lon="7.465733058106973"><ele>297.0</ele><time>2026-04-19T12:51:58.001Z</time></trkpt><trkpt lat="44.98948124280575" lon="7.465915671875688"><ele>297.0</ele><time>2026-04-19T12:51:59.001Z</time></trkpt><trkpt lat="44.98952968730921" lon="7.466108335943974"><ele>297.0</ele><time>2026-04-19T12:52:00.001Z</time></trkpt><trkpt lat="44.98958122161139" lon="7.466325316593015"><ele>297.3333333333333</ele><time>2026-04-19T12:52:01.001Z</time></trkpt><trkpt lat="44.98963870914115" lon="7.466553919674889"><ele>297.66666666666663</ele><time>2026-04-19T12:52:02.001Z</time></trkpt><trkpt lat="44.989692002969996" lon="7.466786447755461"><ele>298.0</ele><time>2026-04-19T12:52:03.001Z</time></trkpt><trkpt lat="44.9897437569841" lon="7.4670201532408145"><ele>298.25</ele><time>2026-04-19T12:52:04.001Z</time></trkpt><trkpt lat="44.989785299303776" lon="7.467231027627977"><ele>298.5</ele><time>2026-04-19T12:52:05.001Z</time></trkpt><trkpt lat="44.98982903482347" lon="7.467414283653625"><ele>298.75</ele><time>2026-04-19T12:52:06.001Z</time></trkpt><trkpt lat="44.989867250957786" lon="7.467586438146494"><ele>299.0</ele><time>2026-04-19T12:52:07.001Z</time></trkpt><trkpt lat="44.98989611013844" lon="7.467749594949202"><ele>299.0</ele><time>2026-04-19T12:52:08.001Z</time></trkpt><trkpt lat="44.989901853554976" lon="7.46790839965946"><ele>299.0</ele><time>2026-04-19T12:52:09.001Z</time></trkpt><trkpt lat="44.989885281072965" lon="7.468053498377178"><ele>299.0</ele><time>2026-04-19T12:52:10.001Z</time></trkpt><trkpt lat="44.98986949561282" lon="7.468169510829443"><ele>299.0</ele><time>2026-04-19T12:52:11.001Z</time></trkpt><trkpt lat="44.989930094639064" lon="7.46831059204857"><ele>299.0</ele><time>2026-04-19T12:52:13.001Z</time></trkpt><trkpt lat="44.990043019644546" lon="7.468368405201811"><ele>298.75</ele><time>2026-04-19T12:52:15.001Z</time></trkpt><trkpt lat="44.99014718276417" lon="7.468228524547428"><ele>298.5</ele><time>2026-04-19T12:52:16.001Z</time></trkpt><trkpt lat="44.99025401637944" lon="7.468174277051455"><ele>298.25</ele><time>2026-04-19T12:52:17.001Z</time></trkpt><trkpt lat="44.9903737981022" lon="7.468155106506423"><ele>298.0</ele><time>2026-04-19T12:52:18.001Z</time></trkpt><trkpt lat="44.99050724758942" lon="7.468149217485883"><ele>298.0</ele><time>2026-04-19T12:52:19.001Z</time></trkpt><trkpt lat="44.99065010143334" lon="7.46816581525969"><ele>298.0</ele><time>2026-04-19T12:52:20.002Z</time></trkpt><trkpt lat="44.99079129711416" lon="7.468150083279937"><ele>298.0</ele><time>2026-04-19T12:52:21.002Z</time></trkpt><trkpt lat="44.990929893493174" lon="7.468134483651985"><ele>298.0</ele><time>2026-04-19T12:52:22.002Z</time></trkpt><trkpt lat="44.99105443544032" lon="7.468120518633953"><ele>298.0</ele><time>2026-04-19T12:52:23.002Z</time></trkpt><trkpt lat="44.99116742116079" lon="7.468107849426976"><ele>298.0</ele><time>2026-04-19T12:52:24.002Z</time></trkpt><trkpt lat="44.99127270078529" lon="7.468096044292758"><ele>298.0</ele><time>2026-04-19T12:52:25.002Z</time></trkpt><trkpt lat="44.99137511380082" lon="7.46805138088973"><ele>298.0</ele><time>2026-04-19T12:52:26.002Z</time></trkpt><trkpt lat="44.99147354212208" lon="7.468044155601218"><ele>298.0</ele><time>2026-04-19T12:52:27.002Z</time></trkpt><trkpt lat="44.99156568632827" lon="7.468037690779631"><ele>298.0</ele><time>2026-04-19T12:52:28.002Z</time></trkpt><trkpt lat="44.99165039569245" lon="7.468024765356293"><ele>298.0</ele><time>2026-04-19T12:52:29.002Z</time></trkpt><trkpt lat="44.99172330098359" lon="7.468021909161981"><ele>298.0</ele><time>2026-04-19T12:52:30.002Z</time></trkpt><trkpt lat="44.99179117321398" lon="7.468017619863048"><ele>298.0</ele><time>2026-04-19T12:52:31.002Z</time></trkpt><trkpt lat="44.99188003757637" lon="7.468007397567227"><ele>298.0</ele><time>2026-04-19T12:52:33.002Z</time></trkpt><trkpt lat="44.99195999018014" lon="7.468019277546935"><ele>298.0</ele><time>2026-04-19T12:52:36.002Z</time></trkpt><trkpt lat="44.99203303542947" lon="7.467993337336367"><ele>298.2</ele><time>2026-04-19T12:52:40.002Z</time></trkpt><trkpt lat="44.99217432934247" lon="7.467986775422295"><ele>298.4</ele><time>2026-04-19T12:52:44.002Z</time></trkpt><trkpt lat="44.992279276965576" lon="7.467973523783251"><ele>298.59999999999997</ele><time>2026-04-19T12:52:45.002Z</time></trkpt><trkpt lat="44.99235790870249" lon="7.467996454508409"><ele>298.8</ele><time>2026-04-19T12:52:46.002Z</time></trkpt><trkpt lat="44.9924161869839" lon="7.468062963549111"><ele>299.0</ele><time>2026-04-19T12:52:47.002Z</time></trkpt><trkpt lat="44.992450949596176" lon="7.468203827733273"><ele>299.0</ele><time>2026-04-19T12:52:48.002Z</time></trkpt><trkpt lat="44.99252657834909" lon="7.46835620431519"><ele>299.0</ele><time>2026-04-19T12:52:49.002Z</time></trkpt><trkpt lat="44.992597044727816" lon="7.468537400538524"><ele>299.0</ele><time>2026-04-19T12:52:50.002Z</time></trkpt><trkpt lat="44.99268201416758" lon="7.468738755780857"><ele>299.0</ele><time>2026-04-19T12:52:51.002Z</time></trkpt><trkpt lat="44.99277586570528" lon="7.468944319716313"><ele>299.0</ele><time>2026-04-19T12:52:52.003Z</time></trkpt><trkpt lat="44.99285451923165" lon="7.469126947520417"><ele>299.0</ele><time>2026-04-19T12:52:53.003Z</time></trkpt><trkpt lat="44.99293218662757" lon="7.469306839932808"><ele>299.0</ele><time>2026-04-19T12:52:54.003Z</time></trkpt><trkpt lat="44.99300734031375" lon="7.469492972425726"><ele>298.75</ele><time>2026-04-19T12:52:55.003Z</time></trkpt><trkpt lat="44.99307541684623" lon="7.4696563740771404"><ele>298.5</ele><time>2026-04-19T12:52:56.003Z</time></trkpt><trkpt lat="44.9931406892522" lon="7.469806801117381"><ele>298.25</ele><time>2026-04-19T12:52:57.003Z</time></trkpt><trkpt lat="44.99320615044686" lon="7.469960506228004"><ele>298.0</ele><time>2026-04-19T12:52:58.003Z</time></trkpt><trkpt lat="44.99326925680365" lon="7.470117418313377"><ele>298.0</ele><time>2026-04-19T12:52:59.003Z</time></trkpt><trkpt lat="44.99333025869101" lon="7.470256113655834"><ele>298.0</ele><time>2026-04-19T12:53:00.003Z</time></trkpt><trkpt lat="44.993395323294926" lon="7.470408380472474"><ele>298.0</ele><time>2026-04-19T12:53:01.003Z</time></trkpt><trkpt lat="44.99346069299322" lon="7.470557182679129"><ele>298.0</ele><time>2026-04-19T12:53:02.003Z</time></trkpt><trkpt lat="44.993529859558784" lon="7.470713703831433"><ele>297.75</ele><time>2026-04-19T12:53:03.003Z</time></trkpt><trkpt lat="44.99360812152752" lon="7.470873977664639"><ele>297.5</ele><time>2026-04-19T12:53:04.003Z</time></trkpt><trkpt lat="44.993678982484866" lon="7.471023938627875"><ele>297.25</ele><time>2026-04-19T12:53:05.003Z</time></trkpt><trkpt lat="44.99374444006032" lon="7.471199506907094"><ele>297.0</ele><time>2026-04-19T12:53:06.003Z</time></trkpt><trkpt lat="44.993857088881335" lon="7.471357575698201"><ele>297.0</ele><time>2026-04-19T12:53:07.003Z</time></trkpt><trkpt lat="44.993962273060255" lon="7.4715450570468365"><ele>297.0</ele><time>2026-04-19T12:53:08.003Z</time></trkpt><trkpt lat="44.9940502576361" lon="7.471722914632465"><ele>297.0</ele><time>2026-04-19T12:53:09.003Z</time></trkpt><trkpt lat="44.99415545046438" lon="7.471873141328871"><ele>297.25</ele><time>2026-04-19T12:53:09.994Z</time></trkpt><trkpt lat="44.994244198740454" lon="7.472026032054387"><ele>297.5</ele><time>2026-04-19T12:53:10.994Z</time></trkpt><trkpt lat="44.99432215710607" lon="7.472170613980659"><ele>297.75</ele><time>2026-04-19T12:53:11.994Z</time></trkpt><trkpt lat="44.99440672524585" lon="7.472313531966053"><ele>298.0</ele><time>2026-04-19T12:53:12.994Z</time></trkpt><trkpt lat="44.99448579743293" lon="7.4724776903996615"><ele>297.3333333333333</ele><time>2026-04-19T12:53:13.995Z</time></trkpt><trkpt lat="44.994582514614684" lon="7.472638072470827"><ele>296.6666666666667</ele><time>2026-04-19T12:53:14.995Z</time></trkpt><trkpt lat="44.99468719705317" lon="7.472807869639459"><ele>296.0</ele><time>2026-04-19T12:53:15.995Z</time></trkpt><trkpt lat="44.994797042175584" lon="7.472982817028704"><ele>295.6666666666667</ele><time>2026-04-19T12:53:16.995Z</time></trkpt><trkpt lat="44.994916246971606" lon="7.473175850959116"><ele>295.3333333333333</ele><time>2026-04-19T12:53:17.996Z</time></trkpt><trkpt lat="44.995041740083785" lon="7.473357276701802"><ele>295.0</ele><time>2026-04-19T12:53:18.996Z</time></trkpt><trkpt lat="44.995162690859075" lon="7.4735550490368725"><ele>295.0</ele><time>2026-04-19T12:53:19.996Z</time></trkpt><trkpt lat="44.99528594247274" lon="7.473751885275245"><ele>295.0</ele><time>2026-04-19T12:53:20.996Z</time></trkpt><trkpt lat="44.99540675934768" lon="7.473951783133111"><ele>295.0</ele><time>2026-04-19T12:53:21.996Z</time></trkpt><trkpt lat="44.995543208993695" lon="7.474144883393782"><ele>295.0</ele><time>2026-04-19T12:53:22.996Z</time></trkpt><trkpt lat="44.995689337360176" lon="7.4743211091740225"><ele>295.0</ele><time>2026-04-19T12:53:23.997Z</time></trkpt><trkpt lat="44.995835736450665" lon="7.474482895627783"><ele>295.0</ele><time>2026-04-19T12:53:24.997Z</time></trkpt><trkpt lat="44.995987167088586" lon="7.474644605378476"><ele>295.0</ele><time>2026-04-19T12:53:25.997Z</time></trkpt><trkpt lat="44.99613241035743" lon="7.474822675162161"><ele>295.0</ele><time>2026-04-19T12:53:26.997Z</time></trkpt><trkpt lat="44.99628817504085" lon="7.474984504663322"><ele>295.0</ele><time>2026-04-19T12:53:27.998Z</time></trkpt><trkpt lat="44.996447959646815" lon="7.475146146290304"><ele>295.0</ele><time>2026-04-19T12:53:28.998Z</time></trkpt><trkpt lat="44.99660747374061" lon="7.475282453940648"><ele>295.0</ele><time>2026-04-19T12:53:29.998Z</time></trkpt><trkpt lat="44.99674862960709" lon="7.475452836550707"><ele>295.0</ele><time>2026-04-19T12:53:30.998Z</time></trkpt><trkpt lat="44.99688495426074" lon="7.4756268380091235"><ele>295.3333333333333</ele><time>2026-04-19T12:53:31.998Z</time></trkpt><trkpt lat="44.9970167200982" lon="7.475815583003163"><ele>295.6666666666667</ele><time>2026-04-19T12:53:32.998Z</time></trkpt><trkpt lat="44.99714319558558" lon="7.475996897645834"><ele>296.0</ele><time>2026-04-19T12:53:33.998Z</time></trkpt><trkpt lat="44.99728588703805" lon="7.47615673690436"><ele>296.33333333333337</ele><time>2026-04-19T12:53:34.999Z</time></trkpt><trkpt lat="44.99744808317646" lon="7.476296575822175"><ele>296.6666666666667</ele><time>2026-04-19T12:53:35.999Z</time></trkpt><trkpt lat="44.99760484293832" lon="7.476436064616225"><ele>297.0</ele><time>2026-04-19T12:53:36.999Z</time></trkpt><trkpt lat="44.997752718256656" lon="7.4765959028119235"><ele>297.0</ele><time>2026-04-19T12:53:37.999Z</time></trkpt><trkpt lat="44.99789519260786" lon="7.476778665293547"><ele>297.0</ele><time>2026-04-19T12:53:38.999Z</time></trkpt><trkpt lat="44.998026890226306" lon="7.476970770935873"><ele>297.0</ele><time>2026-04-19T12:53:39.999Z</time></trkpt><trkpt lat="44.99815649469108" lon="7.477165895469743"><ele>296.6666666666667</ele><time>2026-04-19T12:53:40.999Z</time></trkpt><trkpt lat="44.99828558291369" lon="7.477362030501731"><ele>296.33333333333337</ele><time>2026-04-19T12:53:41.999Z</time></trkpt><trkpt lat="44.99841693094133" lon="7.4775693879367315"><ele>296.0</ele><time>2026-04-19T12:53:42.999Z</time></trkpt><trkpt lat="44.99854070601004" lon="7.477780839677443"><ele>296.33333333333337</ele><time>2026-04-19T12:53:44Z</time></trkpt><trkpt lat="44.99866343834212" lon="7.47799452736312"><ele>296.6666666666667</ele><time>2026-04-19T12:53:45Z</time></trkpt><trkpt lat="44.99879382692989" lon="7.478205864243554"><ele>297.0</ele><time>2026-04-19T12:53:46Z</time></trkpt><trkpt lat="44.998920476250355" lon="7.478417680129299"><ele>297.0</ele><time>2026-04-19T12:53:47Z</time></trkpt><trkpt lat="44.99905071722199" lon="7.478623609824025"><ele>297.0</ele><time>2026-04-19T12:53:48Z</time></trkpt><trkpt lat="44.99918168518856" lon="7.4788200808321985"><ele>297.0</ele><time>2026-04-19T12:53:49Z</time></trkpt><trkpt lat="44.999319986033285" lon="7.479011460563014"><ele>296.3333333333333</ele><time>2026-04-19T12:53:50Z</time></trkpt><trkpt lat="44.999456068724164" lon="7.479197200779058"><ele>295.66666666666663</ele><time>2026-04-19T12:53:51Z</time></trkpt><trkpt lat="44.999594425529914" lon="7.479382270281794"><ele>295.0</ele><time>2026-04-19T12:53:52Z</time></trkpt><trkpt lat="44.999713591422925" lon="7.479589757100569"><ele>295.0</ele><time>2026-04-19T12:53:53Z</time></trkpt><trkpt lat="44.99984329751822" lon="7.479783644254608"><ele>295.0</ele><time>2026-04-19T12:53:54Z</time></trkpt><trkpt lat="44.99997340491908" lon="7.47997813237467"><ele>295.0</ele><time>2026-04-19T12:53:55Z</time></trkpt><trkpt lat="45.00010438864768" lon="7.480173930452503"><ele>295.0</ele><time>2026-04-19T12:53:56Z</time></trkpt><trkpt lat="45.00023849519865" lon="7.4803706964893575"><ele>295.0</ele><time>2026-04-19T12:53:57Z</time></trkpt><trkpt lat="45.00040068706237" lon="7.480523881389823"><ele>295.0</ele><time>2026-04-19T12:53:58Z</time></trkpt><trkpt lat="45.000539275059666" lon="7.48070922192291"><ele>294.66666666666663</ele><time>2026-04-19T12:53:59Z</time></trkpt><trkpt lat="45.000671229359924" lon="7.480896314751817"><ele>294.3333333333333</ele><time>2026-04-19T12:54:00.001Z</time></trkpt><trkpt lat="45.00079117844503" lon="7.481097245373779"><ele>294.0</ele><time>2026-04-19T12:54:01.001Z</time></trkpt><trkpt lat="45.00088385648298" lon="7.481312063351116"><ele>292.6666666666667</ele><time>2026-04-19T12:54:02.001Z</time></trkpt><trkpt lat="45.00095680888066" lon="7.481556323995014"><ele>291.33333333333337</ele><time>2026-04-19T12:54:03.001Z</time></trkpt><trkpt lat="45.001019660800864" lon="7.481797944138552"><ele>290.0</ele><time>2026-04-19T12:54:04.001Z</time></trkpt><trkpt lat="45.00108696626873" lon="7.482052956511762"><ele>289.0</ele><time>2026-04-19T12:54:05.001Z</time></trkpt><trkpt lat="45.0011560568567" lon="7.482305715883466"><ele>288.0</ele><time>2026-04-19T12:54:06.001Z</time></trkpt><trkpt lat="45.00122879071319" lon="7.482558134879933"><ele>287.0</ele><time>2026-04-19T12:54:07.001Z</time></trkpt><trkpt lat="45.00131009458216" lon="7.4828102434295225"><ele>288.33333333333337</ele><time>2026-04-19T12:54:08.001Z</time></trkpt><trkpt lat="45.001401202356554" lon="7.483055656847869"><ele>289.6666666666667</ele><time>2026-04-19T12:54:09.001Z</time></trkpt><trkpt lat="45.00149740002106" lon="7.483278647114624"><ele>291.0</ele><time>2026-04-19T12:54:10.001Z</time></trkpt><trkpt lat="45.001592589823694" lon="7.483471075825081"><ele>291.0</ele><time>2026-04-19T12:54:11.001Z</time></trkpt><trkpt lat="45.001691946888585" lon="7.483654587910351"><ele>291.0</ele><time>2026-04-19T12:54:12.001Z</time></trkpt><trkpt lat="45.00179953778637" lon="7.4838345290641115"><ele>291.0</ele><time>2026-04-19T12:54:13.001Z</time></trkpt><trkpt lat="45.001900882086865" lon="7.483992509795422"><ele>291.0</ele><time>2026-04-19T12:54:14.001Z</time></trkpt><trkpt lat="45.00197406782276" lon="7.484117334060118"><ele>291.0</ele><time>2026-04-19T12:54:15.001Z</time></trkpt><trkpt lat="45.002014474422104" lon="7.484210126553232"><ele>291.0</ele><time>2026-04-19T12:54:16.001Z</time></trkpt><trkpt lat="45.002028984339375" lon="7.4843290339676924"><ele>291.0</ele><time>2026-04-19T12:54:18.001Z</time></trkpt><trkpt lat="45.00208212799148" lon="7.484389745929501"><ele>291.0</ele><time>2026-04-19T12:54:19.001Z</time></trkpt><trkpt lat="45.002131096684614" lon="7.484448291500198"><ele>291.0</ele><time>2026-04-19T12:54:20.001Z</time></trkpt><trkpt lat="45.002015839946104" lon="7.484675154168989"><ele>291.75</ele><time>2026-04-19T12:54:23.001Z</time></trkpt><trkpt lat="45.00191107848322" lon="7.484786850002326"><ele>292.5</ele><time>2026-04-19T12:54:24.001Z</time></trkpt><trkpt lat="45.0018006745827" lon="7.484930670123204"><ele>293.25</ele><time>2026-04-19T12:54:25.002Z</time></trkpt><trkpt lat="45.00168672836812" lon="7.485098564518143"><ele>294.0</ele><time>2026-04-19T12:54:26.002Z</time></trkpt><trkpt lat="45.0015592200564" lon="7.485286506174003"><ele>294.0</ele><time>2026-04-19T12:54:27.002Z</time></trkpt><trkpt lat="45.00142052685523" lon="7.485484869672442"><ele>294.0</ele><time>2026-04-19T12:54:28.002Z</time></trkpt><trkpt lat="45.00126919097891" lon="7.485691594430596"><ele>294.0</ele><time>2026-04-19T12:54:29.002Z</time></trkpt><trkpt lat="45.00112596888568" lon="7.485898393363956"><ele>294.0</ele><time>2026-04-19T12:54:30.002Z</time></trkpt><trkpt lat="45.000991711492645" lon="7.48610903135275"><ele>294.0</ele><time>2026-04-19T12:54:31.002Z</time></trkpt><trkpt lat="45.00085505973478" lon="7.486307845278589"><ele>294.0</ele><time>2026-04-19T12:54:32.002Z</time></trkpt><trkpt lat="45.00072235045041" lon="7.486511016035"><ele>292.3333333333333</ele><time>2026-04-19T12:54:33.002Z</time></trkpt><trkpt lat="45.000593482130746" lon="7.486703057971375"><ele>290.66666666666663</ele><time>2026-04-19T12:54:34.002Z</time></trkpt><trkpt lat="45.00047179975671" lon="7.486882047751092"><ele>289.0</ele><time>2026-04-19T12:54:35.002Z</time></trkpt><trkpt lat="45.0003578574011" lon="7.487042190837435"><ele>289.3333333333333</ele><time>2026-04-19T12:54:36.002Z</time></trkpt><trkpt lat="45.00026397506936" lon="7.487208562219589"><ele>289.6666666666667</ele><time>2026-04-19T12:54:37.002Z</time></trkpt><trkpt lat="45.00019167655909" lon="7.487395058388817"><ele>290.0</ele><time>2026-04-19T12:54:38.002Z</time></trkpt><trkpt lat="45.00013106899511" lon="7.487599218096985"><ele>290.0</ele><time>2026-04-19T12:54:39.002Z</time></trkpt><trkpt lat="45.00006878202586" lon="7.487809680901123"><ele>290.0</ele><time>2026-04-19T12:54:40.002Z</time></trkpt><trkpt lat="45.00000585762372" lon="7.487994516938636"><ele>290.0</ele><time>2026-04-19T12:54:41.002Z</time></trkpt><trkpt lat="44.999924322613474" lon="7.488163231853889"><ele>290.33333333333337</ele><time>2026-04-19T12:54:42.002Z</time></trkpt><trkpt lat="44.99984238717206" lon="7.4883436479317"><ele>290.6666666666667</ele><time>2026-04-19T12:54:43.002Z</time></trkpt><trkpt lat="44.99976172627678" lon="7.488536173711763"><ele>291.0</ele><time>2026-04-19T12:54:44.002Z</time></trkpt><trkpt lat="44.99968496274214" lon="7.488739715153664"><ele>291.3333333333333</ele><time>2026-04-19T12:54:45.002Z</time></trkpt><trkpt lat="44.999600103520095" lon="7.488929048756619"><ele>291.66666666666663</ele><time>2026-04-19T12:54:46.002Z</time></trkpt><trkpt lat="44.99950621843865" lon="7.489101457038042"><ele>292.0</ele><time>2026-04-19T12:54:47.002Z</time></trkpt><trkpt lat="44.999411124564645" lon="7.48926493616124"><ele>292.0</ele><time>2026-04-19T12:54:48.002Z</time></trkpt><trkpt lat="44.999318586606286" lon="7.48944084414388"><ele>292.0</ele><time>2026-04-19T12:54:49.002Z</time></trkpt><trkpt lat="44.99923464053627" lon="7.489636302989279"><ele>292.0</ele><time>2026-04-19T12:54:50.002Z</time></trkpt><trkpt lat="44.999159862042596" lon="7.489850295726845"><ele>291.66666666666663</ele><time>2026-04-19T12:54:51.002Z</time></trkpt><trkpt lat="44.9990978024791" lon="7.490074542442014"><ele>291.3333333333333</ele><time>2026-04-19T12:54:52.002Z</time></trkpt><trkpt lat="44.99904344487891" lon="7.490302057671794"><ele>291.0</ele><time>2026-04-19T12:54:53.002Z</time></trkpt><trkpt lat="44.99897894689937" lon="7.490519513576246"><ele>291.0</ele><time>2026-04-19T12:54:54.002Z</time></trkpt><trkpt lat="44.998904190935235" lon="7.490705373720415"><ele>291.0</ele><time>2026-04-19T12:54:55.002Z</time></trkpt><trkpt lat="44.99882782582065" lon="7.490872426051109"><ele>291.0</ele><time>2026-04-19T12:54:56.003Z</time></trkpt><trkpt lat="44.99876440358801" lon="7.491040869042442"><ele>291.0</ele><time>2026-04-19T12:54:57.003Z</time></trkpt><trkpt lat="44.99869328213449" lon="7.491221139248665"><ele>291.0</ele><time>2026-04-19T12:54:58.003Z</time></trkpt><trkpt lat="44.99861245893014" lon="7.491399069773379"><ele>291.0</ele><time>2026-04-19T12:54:59.003Z</time></trkpt><trkpt lat="44.99853476102032" lon="7.491578092705287"><ele>291.0</ele><time>2026-04-19T12:55:00.003Z</time></trkpt><trkpt lat="44.99846460118671" lon="7.491760329029939"><ele>291.0</ele><time>2026-04-19T12:55:01.003Z</time></trkpt><trkpt lat="44.998397273290166" lon="7.491955156854771"><ele>290.0</ele><time>2026-04-19T12:55:02.003Z</time></trkpt><trkpt lat="44.99832182417602" lon="7.492149840843614"><ele>289.0</ele><time>2026-04-19T12:55:03.003Z</time></trkpt><trkpt lat="44.998247166440365" lon="7.492346760592483"><ele>288.0</ele><time>2026-04-19T12:55:04.003Z</time></trkpt><trkpt lat="44.99817837032531" lon="7.492546944509891"><ele>288.0</ele><time>2026-04-19T12:55:05.003Z</time></trkpt><trkpt lat="44.99810794578037" lon="7.49275546452809"><ele>288.0</ele><time>2026-04-19T12:55:06.003Z</time></trkpt><trkpt lat="44.9980339306136" lon="7.492968112117114"><ele>288.0</ele><time>2026-04-19T12:55:07.003Z</time></trkpt><trkpt lat="44.997948955823766" lon="7.49317599403045"><ele>287.0</ele><time>2026-04-19T12:55:08.003Z</time></trkpt><trkpt lat="44.99785264933527" lon="7.493378382746503"><ele>286.0</ele><time>2026-04-19T12:55:09.003Z</time></trkpt><trkpt lat="44.99774803502677" lon="7.49358126470405"><ele>285.0</ele><time>2026-04-19T12:55:10.003Z</time></trkpt><trkpt lat="44.997638625115755" lon="7.4937885323283675"><ele>285.0</ele><time>2026-04-19T12:55:11.003Z</time></trkpt><trkpt lat="44.99752754907948" lon="7.493988888928534"><ele>285.0</ele><time>2026-04-19T12:55:12.003Z</time></trkpt><trkpt lat="44.997426192255" lon="7.494173018341987"><ele>285.0</ele><time>2026-04-19T12:55:13.003Z</time></trkpt><trkpt lat="44.99732573972358" lon="7.494345420511376"><ele>285.0</ele><time>2026-04-19T12:55:14.003Z</time></trkpt><trkpt lat="44.99721716990507" lon="7.494490051949108"><ele>285.0</ele><time>2026-04-19T12:55:15.003Z</time></trkpt><trkpt lat="44.99708956939768" lon="7.49462802984639"><ele>285.0</ele><time>2026-04-19T12:55:15.994Z</time></trkpt><trkpt lat="44.99695326904275" lon="7.494758399512191"><ele>285.0</ele><time>2026-04-19T12:55:16.994Z</time></trkpt><trkpt lat="44.99682215304574" lon="7.494866281795924"><ele>285.0</ele><time>2026-04-19T12:55:17.995Z</time></trkpt><trkpt lat="44.99669054441581" lon="7.494941628334484"><ele>285.0</ele><time>2026-04-19T12:55:18.995Z</time></trkpt><trkpt lat="44.99654536095681" lon="7.494969440806583"><ele>285.0</ele><time>2026-04-19T12:55:19.995Z</time></trkpt><trkpt lat="44.996386110104844" lon="7.494956897866284"><ele>285.3333333333333</ele><time>2026-04-19T12:55:20.995Z</time></trkpt><trkpt lat="44.99622392608128" lon="7.494959763331198"><ele>285.66666666666663</ele><time>2026-04-19T12:55:21.996Z</time></trkpt><trkpt lat="44.99605568446702" lon="7.4949765264970365"><ele>286.0</ele><time>2026-04-19T12:55:22.996Z</time></trkpt><trkpt lat="44.995895338402455" lon="7.495009564162631"><ele>285.3333333333333</ele><time>2026-04-19T12:55:23.996Z</time></trkpt><trkpt lat="44.99572609593843" lon="7.495050510823198"><ele>284.6666666666667</ele><time>2026-04-19T12:55:24.996Z</time></trkpt><trkpt lat="44.995553023660705" lon="7.4950975499525505"><ele>284.0</ele><time>2026-04-19T12:55:25.996Z</time></trkpt><trkpt lat="44.99538367686589" lon="7.495139194849122"><ele>284.0</ele><time>2026-04-19T12:55:26.997Z</time></trkpt><trkpt lat="44.99521354697067" lon="7.495176924109705"><ele>284.0</ele><time>2026-04-19T12:55:27.997Z</time></trkpt><trkpt lat="44.99505891123075" lon="7.495203575656383"><ele>284.0</ele><time>2026-04-19T12:55:28.997Z</time></trkpt><trkpt lat="44.99491310668694" lon="7.495226796969835"><ele>284.0</ele><time>2026-04-19T12:55:29.997Z</time></trkpt><trkpt lat="44.994781700821505" lon="7.495244486657017"><ele>284.0</ele><time>2026-04-19T12:55:30.997Z</time></trkpt><trkpt lat="44.99465949162877" lon="7.4952760260571285"><ele>284.0</ele><time>2026-04-19T12:55:31.998Z</time></trkpt><trkpt lat="44.99453499965904" lon="7.4953425477497415"><ele>284.0</ele><time>2026-04-19T12:55:32.998Z</time></trkpt><trkpt lat="44.99441419709353" lon="7.49544611959588"><ele>284.25</ele><time>2026-04-19T12:55:33.998Z</time></trkpt><trkpt lat="44.9942962012907" lon="7.495548371085413"><ele>284.5</ele><time>2026-04-19T12:55:34.998Z</time></trkpt><trkpt lat="44.99419013730545" lon="7.495644220368351"><ele>284.75</ele><time>2026-04-19T12:55:35.998Z</time></trkpt><trkpt lat="44.994094501478955" lon="7.495730069831266"><ele>285.0</ele><time>2026-04-19T12:55:36.998Z</time></trkpt><trkpt lat="44.99401044956628" lon="7.495807204526614"><ele>284.6666666666667</ele><time>2026-04-19T12:55:37.998Z</time></trkpt><trkpt lat="44.993940470479984" lon="7.49587321898497"><ele>284.3333333333333</ele><time>2026-04-19T12:55:38.999Z</time></trkpt><trkpt lat="44.99388488786032" lon="7.495918721141271"><ele>284.0</ele><time>2026-04-19T12:55:39.999Z</time></trkpt><trkpt lat="44.99377684343722" lon="7.495893101604634"><ele>283.66666666666663</ele><time>2026-04-19T12:55:41.999Z</time></trkpt><trkpt lat="44.99373550126954" lon="7.495812061030007"><ele>283.3333333333333</ele><time>2026-04-19T12:55:42.999Z</time></trkpt><trkpt lat="44.99370989745077" lon="7.495696060396148"><ele>283.0</ele><time>2026-04-19T12:55:43.999Z</time></trkpt><trkpt lat="44.99369047035229" lon="7.49556381221728"><ele>283.0</ele><time>2026-04-19T12:55:44.999Z</time></trkpt><trkpt lat="44.993657500533075" lon="7.49543549687176"><ele>283.0</ele><time>2026-04-19T12:55:45.999Z</time></trkpt><trkpt lat="44.993619129152584" lon="7.495310678150889"><ele>283.0</ele><time>2026-04-19T12:55:46.999Z</time></trkpt><trkpt lat="44.99358126309401" lon="7.495186135287131"><ele>283.0</ele><time>2026-04-19T12:55:48Z</time></trkpt><trkpt lat="44.99354802495037" lon="7.495074385323164"><ele>283.0</ele><time>2026-04-19T12:55:49Z</time></trkpt><trkpt lat="44.993524498015695" lon="7.494981411559923"><ele>283.0</ele><time>2026-04-19T12:55:50Z</time></trkpt><trkpt lat="44.99354491097106" lon="7.494871037916362"><ele>282.57142857142856</ele><time>2026-04-19T12:55:52Z</time></trkpt><trkpt lat="44.99361540776323" lon="7.494875975178852"><ele>282.14285714285717</ele><time>2026-04-19T12:55:54Z</time></trkpt><trkpt lat="44.99363600111965" lon="7.494975245406618"><ele>281.7142857142857</ele><time>2026-04-19T12:55:58Z</time></trkpt><trkpt lat="44.993676613849814" lon="7.495047586675285"><ele>281.2857142857143</ele><time>2026-04-19T12:56:41.002Z</time></trkpt><trkpt lat="44.993716486076536" lon="7.495131573047594"><ele>280.8571428571429</ele><time>2026-04-19T12:56:43.002Z</time></trkpt><trkpt lat="44.99371104066533" lon="7.495224082063622"><ele>280.42857142857144</ele><time>2026-04-19T12:56:45.002Z</time></trkpt><trkpt lat="44.99367078027814" lon="7.495294900641497"><ele>280.0</ele><time>2026-04-19T12:56:47.002Z</time></trkpt><trkpt lat="44.993685133195534" lon="7.495384451178125"><ele>280.5</ele><time>2026-04-19T12:56:49.002Z</time></trkpt><trkpt lat="44.99373267571841" lon="7.495538830093823"><ele>281.0</ele><time>2026-04-19T12:56:51.002Z</time></trkpt><trkpt lat="44.99375911841777" lon="7.495633265232192"><ele>281.5</ele><time>2026-04-19T12:56:52.002Z</time></trkpt><trkpt lat="44.99378318722202" lon="7.4957240233192275"><ele>282.0</ele><time>2026-04-19T12:56:53.002Z</time></trkpt><trkpt lat="44.993820235531324" lon="7.495834760866342"><ele>282.5</ele><time>2026-04-19T12:56:55.002Z</time></trkpt><trkpt lat="44.99382624939717" lon="7.49592557319456"><ele>283.0</ele><time>2026-04-19T12:56:57.002Z</time></trkpt><trkpt lat="44.993812616471224" lon="7.4961186669367095"><ele>283.0</ele><time>2026-04-19T12:56:59.003Z</time></trkpt><trkpt lat="44.99382038284916" lon="7.4962184390002955"><ele>283.0</ele><time>2026-04-19T12:57:00.003Z</time></trkpt><trkpt lat="44.9938547552479" lon="7.496372688057906"><ele>283.0</ele><time>2026-04-19T12:57:02.003Z</time></trkpt><trkpt lat="44.99389128086641" lon="7.496451447347824"><ele>283.0</ele><time>2026-04-19T12:57:03.003Z</time></trkpt><trkpt lat="44.99394659488733" lon="7.4965930628639"><ele>283.0</ele><time>2026-04-19T12:57:04.003Z</time></trkpt><trkpt lat="44.993995006663525" lon="7.496740055801563"><ele>283.0</ele><time>2026-04-19T12:57:05.003Z</time></trkpt><trkpt lat="44.9940455736097" lon="7.496920398798998"><ele>283.0</ele><time>2026-04-19T12:57:06.003Z</time></trkpt><trkpt lat="44.994096966466934" lon="7.497116094681356"><ele>283.0</ele><time>2026-04-19T12:57:07.003Z</time></trkpt><trkpt lat="44.99415011927657" lon="7.497323318519546"><ele>283.0</ele><time>2026-04-19T12:57:08.003Z</time></trkpt><trkpt lat="44.99419834543965" lon="7.497542806140823"><ele>283.0</ele><time>2026-04-19T12:57:09.003Z</time></trkpt><trkpt lat="44.994231027792324" lon="7.497745155080847"><ele>283.0</ele><time>2026-04-19T12:57:10.003Z</time></trkpt><trkpt lat="44.99427495392192" lon="7.497945363913734"><ele>283.0</ele><time>2026-04-19T12:57:11.003Z</time></trkpt><trkpt lat="44.99433822126426" lon="7.498141437786973"><ele>283.0</ele><time>2026-04-19T12:57:12.003Z</time></trkpt><trkpt lat="44.994415178241596" lon="7.49832600067546"><ele>283.3333333333333</ele><time>2026-04-19T12:57:13.003Z</time></trkpt><trkpt lat="44.994499588148386" lon="7.4985242656765285"><ele>283.6666666666667</ele><time>2026-04-19T12:57:14.003Z</time></trkpt><trkpt lat="44.994572555036015" lon="7.498735762846431"><ele>284.0</ele><time>2026-04-19T12:57:15.003Z</time></trkpt><trkpt lat="44.99463617597391" lon="7.498962668295944"><ele>283.33333333333337</ele><time>2026-04-19T12:57:16.003Z</time></trkpt><trkpt lat="44.994698784832664" lon="7.499190777231684"><ele>282.6666666666667</ele><time>2026-04-19T12:57:17.003Z</time></trkpt><trkpt lat="44.9947623501933" lon="7.4994163314933235"><ele>282.0</ele><time>2026-04-19T12:57:18.003Z</time></trkpt><trkpt lat="44.994828268717384" lon="7.499647096289876"><ele>282.0</ele><time>2026-04-19T12:57:19.003Z</time></trkpt><trkpt lat="44.9948930760872" lon="7.499884164185724"><ele>282.0</ele><time>2026-04-19T12:57:20.003Z</time></trkpt><trkpt lat="44.99495775989476" lon="7.500123262953127"><ele>282.0</ele><time>2026-04-19T12:57:21.003Z</time></trkpt><trkpt lat="44.995019324161554" lon="7.500352960392737"><ele>283.3333333333333</ele><time>2026-04-19T12:57:21.996Z</time></trkpt><trkpt lat="44.99508953286245" lon="7.500588151313963"><ele>284.66666666666663</ele><time>2026-04-19T12:57:22.996Z</time></trkpt><trkpt lat="44.995165161416296" lon="7.5008300073237715"><ele>286.0</ele><time>2026-04-19T12:57:23.997Z</time></trkpt><trkpt lat="44.995234696601926" lon="7.501069936052416"><ele>285.3333333333333</ele><time>2026-04-19T12:57:24.997Z</time></trkpt><trkpt lat="44.99529979892636" lon="7.501317758273733"><ele>284.6666666666667</ele><time>2026-04-19T12:57:25.997Z</time></trkpt><trkpt lat="44.99536353685278" lon="7.501562977809407"><ele>284.0</ele><time>2026-04-19T12:57:26.997Z</time></trkpt><trkpt lat="44.99543241839734" lon="7.501817113918473"><ele>284.0</ele><time>2026-04-19T12:57:27.997Z</time></trkpt><trkpt lat="44.99550463792801" lon="7.502067139387216"><ele>284.0</ele><time>2026-04-19T12:57:28.997Z</time></trkpt><trkpt lat="44.995578385859396" lon="7.502318030847637"><ele>284.0</ele><time>2026-04-19T12:57:29.997Z</time></trkpt><trkpt lat="44.99565337212119" lon="7.502570648056647"><ele>283.33333333333337</ele><time>2026-04-19T12:57:30.998Z</time></trkpt><trkpt lat="44.99572679819291" lon="7.502827825190662"><ele>282.6666666666667</ele><time>2026-04-19T12:57:31.998Z</time></trkpt><trkpt lat="44.995803674307034" lon="7.503086178783953"><ele>282.0</ele><time>2026-04-19T12:57:32.998Z</time></trkpt><trkpt lat="44.99587923297488" lon="7.503346246347535"><ele>283.3333333333333</ele><time>2026-04-19T12:57:33.998Z</time></trkpt><trkpt lat="44.995949811845215" lon="7.503605518507173"><ele>284.66666666666663</ele><time>2026-04-19T12:57:34.998Z</time></trkpt><trkpt lat="44.99602253584179" lon="7.503860796239955"><ele>286.0</ele><time>2026-04-19T12:57:35.998Z</time></trkpt><trkpt lat="44.9960935852456" lon="7.504115350547617"><ele>286.0</ele><time>2026-04-19T12:57:36.998Z</time></trkpt><trkpt lat="44.996164207341664" lon="7.5043733976677105"><ele>286.0</ele><time>2026-04-19T12:57:37.998Z</time></trkpt><trkpt lat="44.99623145370128" lon="7.5046271591278675"><ele>286.0</ele><time>2026-04-19T12:57:38.998Z</time></trkpt><trkpt lat="44.99629538142857" lon="7.504858821150989"><ele>285.0</ele><time>2026-04-19T12:57:39.999Z</time></trkpt><trkpt lat="44.99635831276545" lon="7.505074621440252"><ele>284.0</ele><time>2026-04-19T12:57:40.999Z</time></trkpt><trkpt lat="44.996414372218744" lon="7.5052759387417325"><ele>283.0</ele><time>2026-04-19T12:57:41.999Z</time></trkpt><trkpt lat="44.99646053718287" lon="7.50546782015254"><ele>282.75</ele><time>2026-04-19T12:57:42.999Z</time></trkpt><trkpt lat="44.99650260770735" lon="7.505657633624943"><ele>282.5</ele><time>2026-04-19T12:57:43.999Z</time></trkpt><trkpt lat="44.99652909988115" lon="7.505832517277252"><ele>282.25</ele><time>2026-04-19T12:57:44.999Z</time></trkpt><trkpt lat="44.99656212830904" lon="7.50599698188372"><ele>282.0</ele><time>2026-04-19T12:57:45.999Z</time></trkpt><trkpt lat="44.99661701006129" lon="7.506138843885025"><ele>282.0</ele><time>2026-04-19T12:57:46.999Z</time></trkpt><trkpt lat="44.99668760593903" lon="7.506292754149975"><ele>282.0</ele><time>2026-04-19T12:57:47.999Z</time></trkpt><trkpt lat="44.99675554884423" lon="7.50646798781154"><ele>282.0</ele><time>2026-04-19T12:57:48.999Z</time></trkpt><trkpt lat="44.99681887701029" lon="7.506661899380029"><ele>282.0</ele><time>2026-04-19T12:57:50Z</time></trkpt><trkpt lat="44.99688492787648" lon="7.506873259945911"><ele>282.0</ele><time>2026-04-19T12:57:51Z</time></trkpt><trkpt lat="44.99695067407336" lon="7.507094373645869"><ele>282.0</ele><time>2026-04-19T12:57:52Z</time></trkpt><trkpt lat="44.99701661249216" lon="7.507323516327033"><ele>282.0</ele><time>2026-04-19T12:57:53Z</time></trkpt><trkpt lat="44.99708546109099" lon="7.507564141503399"><ele>282.0</ele><time>2026-04-19T12:57:54Z</time></trkpt><trkpt lat="44.99714928705138" lon="7.50778306719576"><ele>282.0</ele><time>2026-04-19T12:57:55Z</time></trkpt><trkpt lat="44.99720446819176" lon="7.507994488636839"><ele>282.0</ele><time>2026-04-19T12:57:56Z</time></trkpt><trkpt lat="44.997266776727194" lon="7.508228934876883"><ele>282.3333333333333</ele><time>2026-04-19T12:57:57Z</time></trkpt><trkpt lat="44.99733454947712" lon="7.50846899540416"><ele>282.66666666666663</ele><time>2026-04-19T12:57:58Z</time></trkpt><trkpt lat="44.99740781306242" lon="7.508709930172433"><ele>283.0</ele><time>2026-04-19T12:57:59Z</time></trkpt><trkpt lat="44.99748689439181" lon="7.508956037511383"><ele>283.0</ele><time>2026-04-19T12:58:00Z</time></trkpt><trkpt lat="44.99756143298612" lon="7.509204782827605"><ele>283.0</ele><time>2026-04-19T12:58:01Z</time></trkpt><trkpt lat="44.99763674833326" lon="7.509457933617374"><ele>283.0</ele><time>2026-04-19T12:58:02Z</time></trkpt><trkpt lat="44.99771358275949" lon="7.509717546111949"><ele>283.0</ele><time>2026-04-19T12:58:03Z</time></trkpt><trkpt lat="44.9977848595901" lon="7.509970614791105"><ele>283.0</ele><time>2026-04-19T12:58:04Z</time></trkpt><trkpt lat="44.99785549803823" lon="7.510227024892964"><ele>283.0</ele><time>2026-04-19T12:58:05Z</time></trkpt><trkpt lat="44.99792146619324" lon="7.510471868904331"><ele>283.3333333333333</ele><time>2026-04-19T12:58:06Z</time></trkpt><trkpt lat="44.99799659270346" lon="7.51072425710044"><ele>283.6666666666667</ele><time>2026-04-19T12:58:07.001Z</time></trkpt><trkpt lat="44.99806836933107" lon="7.510968579317542"><ele>284.0</ele><time>2026-04-19T12:58:08.001Z</time></trkpt><trkpt lat="44.998128472332645" lon="7.511195049980371"><ele>284.0</ele><time>2026-04-19T12:58:09.001Z</time></trkpt><trkpt lat="44.99817717215884" lon="7.511410039753022"><ele>284.0</ele><time>2026-04-19T12:58:10.001Z</time></trkpt><trkpt lat="44.99821846674784" lon="7.5116175001967616"><ele>284.0</ele><time>2026-04-19T12:58:11.001Z</time></trkpt><trkpt lat="44.99826454599825" lon="7.511809105471217"><ele>284.0</ele><time>2026-04-19T12:58:12.001Z</time></trkpt><trkpt lat="44.998313447590746" lon="7.511978232676648"><ele>284.0</ele><time>2026-04-19T12:58:13.001Z</time></trkpt><trkpt lat="44.99833665971215" lon="7.51212740976909"><ele>284.0</ele><time>2026-04-19T12:58:14.001Z</time></trkpt><trkpt lat="44.99833197957767" lon="7.51227026968577"><ele>284.0</ele><time>2026-04-19T12:58:15.001Z</time></trkpt><trkpt lat="44.998322865806834" lon="7.512393839240749"><ele>284.0</ele><time>2026-04-19T12:58:16.001Z</time></trkpt><trkpt lat="44.998352445381286" lon="7.512489655147192"><ele>284.0</ele><time>2026-04-19T12:58:17.001Z</time></trkpt><trkpt lat="44.9984362995198" lon="7.51253348907584"><ele>284.0</ele><time>2026-04-19T12:58:18.001Z</time></trkpt><trkpt lat="44.99849374487634" lon="7.512613748076027"><ele>284.0</ele><time>2026-04-19T12:58:19.001Z</time></trkpt><trkpt lat="44.99856241157111" lon="7.512707365810923"><ele>284.0</ele><time>2026-04-19T12:58:20.001Z</time></trkpt><trkpt lat="44.99860906557196" lon="7.512851646770616"><ele>284.0</ele><time>2026-04-19T12:58:21.001Z</time></trkpt><trkpt lat="44.99865028439656" lon="7.5130282138853675"><ele>284.0</ele><time>2026-04-19T12:58:22.001Z</time></trkpt><trkpt lat="44.99869346830751" lon="7.513209615430749"><ele>284.0</ele><time>2026-04-19T12:58:23.001Z</time></trkpt><trkpt lat="44.998745175310624" lon="7.5134014144988255"><ele>284.0</ele><time>2026-04-19T12:58:24.001Z</time></trkpt><trkpt lat="44.99880126608698" lon="7.513605746911348"><ele>284.0</ele><time>2026-04-19T12:58:25.001Z</time></trkpt><trkpt lat="44.99886076142781" lon="7.513831773832719"><ele>284.6666666666667</ele><time>2026-04-19T12:58:26.001Z</time></trkpt><trkpt lat="44.99893202639558" lon="7.514064058172434"><ele>285.3333333333333</ele><time>2026-04-19T12:58:27.001Z</time></trkpt><trkpt lat="44.99899395955536" lon="7.51429271379584"><ele>286.0</ele><time>2026-04-19T12:58:28.001Z</time></trkpt><trkpt lat="44.99903771016259" lon="7.514499768769979"><ele>286.0</ele><time>2026-04-19T12:58:29.001Z</time></trkpt><trkpt lat="44.9991066470272" lon="7.514705135935868"><ele>286.0</ele><time>2026-04-19T12:58:30.001Z</time></trkpt><trkpt lat="44.99917109968227" lon="7.514917100223845"><ele>286.0</ele><time>2026-04-19T12:58:31.001Z</time></trkpt><trkpt lat="44.99923353179205" lon="7.515124026087032"><ele>286.0</ele><time>2026-04-19T12:58:32.001Z</time></trkpt><trkpt lat="44.999286170177655" lon="7.515303497212044"><ele>286.0</ele><time>2026-04-19T12:58:33.002Z</time></trkpt><trkpt lat="44.999338198981434" lon="7.515478329629484"><ele>286.0</ele><time>2026-04-19T12:58:34.002Z</time></trkpt><trkpt lat="44.99938250800011" lon="7.515645678892297"><ele>286.0</ele><time>2026-04-19T12:58:35.002Z</time></trkpt><trkpt lat="44.99942957001365" lon="7.515816089479138"><ele>285.5</ele><time>2026-04-19T12:58:36.002Z</time></trkpt><trkpt lat="44.999482237295595" lon="7.515993816079245"><ele>285.0</ele><time>2026-04-19T12:58:37.002Z</time></trkpt><trkpt lat="44.99954109433858" lon="7.516180989245023"><ele>284.5</ele><time>2026-04-19T12:58:38.002Z</time></trkpt><trkpt lat="44.99959226202714" lon="7.516380806146823"><ele>284.0</ele><time>2026-04-19T12:58:39.002Z</time></trkpt><trkpt lat="44.999641310877486" lon="7.516596304608526"><ele>283.0</ele><time>2026-04-19T12:58:40.002Z</time></trkpt><trkpt lat="44.9996951136122" lon="7.516804996863459"><ele>282.0</ele><time>2026-04-19T12:58:41.002Z</time></trkpt><trkpt lat="44.99975396099299" lon="7.517026329458758"><ele>281.0</ele><time>2026-04-19T12:58:42.002Z</time></trkpt><trkpt lat="44.9998107382098" lon="7.517244852062635"><ele>280.75</ele><time>2026-04-19T12:58:43.002Z</time></trkpt><trkpt lat="44.999866695559355" lon="7.517446210730937"><ele>280.5</ele><time>2026-04-19T12:58:44.002Z</time></trkpt><trkpt lat="44.99991860170485" lon="7.517625732437138"><ele>280.25</ele><time>2026-04-19T12:58:45.002Z</time></trkpt><trkpt lat="44.99997715782349" lon="7.51779132771943"><ele>280.0</ele><time>2026-04-19T12:58:46.002Z</time></trkpt><trkpt lat="45.00001416771497" lon="7.517958691094749"><ele>280.0</ele><time>2026-04-19T12:58:47.002Z</time></trkpt><trkpt lat="45.000056565205035" lon="7.518111276518773"><ele>280.0</ele><time>2026-04-19T12:58:48.002Z</time></trkpt><trkpt lat="45.00009790076923" lon="7.518260687426662"><ele>280.0</ele><time>2026-04-19T12:58:49.002Z</time></trkpt><trkpt lat="45.000147209191105" lon="7.518402620104579"><ele>280.0</ele><time>2026-04-19T12:58:50.002Z</time></trkpt><trkpt lat="45.00017933416691" lon="7.518557659808348"><ele>280.0</ele><time>2026-04-19T12:58:51.002Z</time></trkpt><trkpt lat="45.000221609864646" lon="7.518713412182984"><ele>280.0</ele><time>2026-04-19T12:58:52.002Z</time></trkpt><trkpt lat="45.00026255365225" lon="7.518862418786522"><ele>280.0</ele><time>2026-04-19T12:58:53.002Z</time></trkpt><trkpt lat="45.00029830126472" lon="7.519001810788474"><ele>280.0</ele><time>2026-04-19T12:58:54.002Z</time></trkpt><trkpt lat="45.00033294387743" lon="7.519126726248848"><ele>280.0</ele><time>2026-04-19T12:58:55.002Z</time></trkpt><trkpt lat="45.000353199624826" lon="7.519250619341509"><ele>279.5</ele><time>2026-04-19T12:58:56.002Z</time></trkpt><trkpt lat="45.000360381100876" lon="7.5193601435613004"><ele>279.0</ele><time>2026-04-19T12:58:57.002Z</time></trkpt><trkpt lat="45.00035291649644" lon="7.519501569013607"><ele>278.5</ele><time>2026-04-19T12:58:59.002Z</time></trkpt><trkpt lat="45.000324665393514" lon="7.5195827065155845"><ele>278.0</ele><time>2026-04-19T12:59:00.002Z</time></trkpt><trkpt lat="45.00026710435548" lon="7.519660758945635"><ele>277.5</ele><time>2026-04-19T12:59:01.002Z</time></trkpt><trkpt lat="45.000273960780255" lon="7.5198042236397455"><ele>277.0</ele><time>2026-04-19T12:59:02.002Z</time></trkpt><trkpt lat="45.000040538651255" lon="7.519819679810415"><ele>276.66666666666663</ele><time>2026-04-19T12:59:03.002Z</time></trkpt><trkpt lat="44.99989679412803" lon="7.519871835538625"><ele>276.3333333333333</ele><time>2026-04-19T12:59:04.002Z</time></trkpt><trkpt lat="44.999744269663935" lon="7.51992037203061"><ele>276.0</ele><time>2026-04-19T12:59:05.003Z</time></trkpt><trkpt lat="44.99957383460468" lon="7.519970475011507"><ele>276.0</ele><time>2026-04-19T12:59:06.003Z</time></trkpt><trkpt lat="44.99938721702861" lon="7.520021105453778"><ele>276.0</ele><time>2026-04-19T12:59:07.003Z</time></trkpt><trkpt lat="44.999182527158055" lon="7.520079261385633"><ele>276.0</ele><time>2026-04-19T12:59:08.003Z</time></trkpt><trkpt lat="44.99896915263594" lon="7.5201392446104895"><ele>276.0</ele><time>2026-04-19T12:59:09.003Z</time></trkpt><trkpt lat="44.99874284098833" lon="7.520198362596325"><ele>276.0</ele><time>2026-04-19T12:59:10.003Z</time></trkpt><trkpt lat="44.99851481564253" lon="7.52026125140235"><ele>275.5</ele><time>2026-04-19T12:59:11.003Z</time></trkpt><trkpt lat="44.99828277659611" lon="7.5203325362214155"><ele>275.0</ele><time>2026-04-19T12:59:12.003Z</time></trkpt><trkpt lat="44.99804170677906" lon="7.520403013150884"><ele>275.0</ele><time>2026-04-19T12:59:13.003Z</time></trkpt><trkpt lat="44.997797436989146" lon="7.520472163589439"><ele>275.0</ele><time>2026-04-19T12:59:14.003Z</time></trkpt><trkpt lat="44.99755164503968" lon="7.52053963859495"><ele>276.0</ele><time>2026-04-19T12:59:15.003Z</time></trkpt><trkpt lat="44.9973080424497" lon="7.5206064162692"><ele>277.0</ele><time>2026-04-19T12:59:16.003Z</time></trkpt><trkpt lat="44.99706676208451" lon="7.520672515774546"><ele>277.0</ele><time>2026-04-19T12:59:17.003Z</time></trkpt><trkpt lat="44.99683549046541" lon="7.520736516754749"><ele>277.0</ele><time>2026-04-19T12:59:18.003Z</time></trkpt><trkpt lat="44.99661462395363" lon="7.520799495342668"><ele>276.0</ele><time>2026-04-19T12:59:19.003Z</time></trkpt><trkpt lat="44.996392470085105" lon="7.520857610280004"><ele>275.0</ele><time>2026-04-19T12:59:20.003Z</time></trkpt><trkpt lat="44.996172323140605" lon="7.520923913408076"><ele>275.0</ele><time>2026-04-19T12:59:21.003Z</time></trkpt><trkpt lat="44.995957687562836" lon="7.521002360856037"><ele>275.0</ele><time>2026-04-19T12:59:22.003Z</time></trkpt><trkpt lat="44.99574828653255" lon="7.521091492688569"><ele>275.0</ele><time>2026-04-19T12:59:23.003Z</time></trkpt><trkpt lat="44.9955419392979" lon="7.5211879181416466"><ele>275.33333333333337</ele><time>2026-04-19T12:59:24.003Z</time></trkpt><trkpt lat="44.99534109585201" lon="7.521283869407203"><ele>275.6666666666667</ele><time>2026-04-19T12:59:25.003Z</time></trkpt><trkpt lat="44.99514080034151" lon="7.5213905612964895"><ele>276.0</ele><time>2026-04-19T12:59:26.003Z</time></trkpt><trkpt lat="44.99494732513104" lon="7.521510279427975"><ele>276.6666666666667</ele><time>2026-04-19T12:59:27.003Z</time></trkpt><trkpt lat="44.99476601552872" lon="7.52164964102415"><ele>277.33333333333337</ele><time>2026-04-19T12:59:27.995Z</time></trkpt><trkpt lat="44.99459096622353" lon="7.521813431548621"><ele>278.0</ele><time>2026-04-19T12:59:28.995Z</time></trkpt><trkpt lat="44.99442644023267" lon="7.521992349957261"><ele>276.33333333333337</ele><time>2026-04-19T12:59:29.995Z</time></trkpt><trkpt lat="44.99428933928974" lon="7.522189977211373"><ele>274.6666666666667</ele><time>2026-04-19T12:59:30.996Z</time></trkpt><trkpt lat="44.994187358694404" lon="7.522407260508667"><ele>273.0</ele><time>2026-04-19T12:59:31.996Z</time></trkpt><trkpt lat="44.994116476290536" lon="7.5226332976583805"><ele>273.0</ele><time>2026-04-19T12:59:32.996Z</time></trkpt><trkpt lat="44.99407327190352" lon="7.522866234833421"><ele>273.0</ele><time>2026-04-19T12:59:33.996Z</time></trkpt><trkpt lat="44.99406343843192" lon="7.523114078764462"><ele>273.0</ele><time>2026-04-19T12:59:34.996Z</time></trkpt><trkpt lat="44.994093960458684" lon="7.523367762125577"><ele>272.3333333333333</ele><time>2026-04-19T12:59:35.997Z</time></trkpt><trkpt lat="44.994173387298986" lon="7.523597404670348"><ele>271.66666666666663</ele><time>2026-04-19T12:59:36.997Z</time></trkpt><trkpt lat="44.994286014039545" lon="7.523787075688311"><ele>271.0</ele><time>2026-04-19T12:59:37.997Z</time></trkpt><trkpt lat="44.994432811127474" lon="7.523946757467669"><ele>271.0</ele><time>2026-04-19T12:59:38.997Z</time></trkpt><trkpt lat="44.99460581204736" lon="7.524066887501689"><ele>271.0</ele><time>2026-04-19T12:59:39.997Z</time></trkpt><trkpt lat="44.994801255574735" lon="7.524098816711429"><ele>271.0</ele><time>2026-04-19T12:59:40.997Z</time></trkpt><trkpt lat="44.99498344863744" lon="7.524182765379756"><ele>271.3333333333333</ele><time>2026-04-19T12:59:41.998Z</time></trkpt><trkpt lat="44.99515993924012" lon="7.524231908107613"><ele>271.6666666666667</ele><time>2026-04-19T12:59:42.998Z</time></trkpt><trkpt lat="44.99532879095515" lon="7.524301258544992"><ele>272.0</ele><time>2026-04-19T12:59:43.998Z</time></trkpt><trkpt lat="44.995486715793504" lon="7.524402848273807"><ele>272.0</ele><time>2026-04-19T12:59:44.998Z</time></trkpt><trkpt lat="44.99563789049585" lon="7.524542316579043"><ele>272.0</ele><time>2026-04-19T12:59:45.998Z</time></trkpt><trkpt lat="44.99577953478905" lon="7.524708767724138"><ele>272.0</ele><time>2026-04-19T12:59:46.998Z</time></trkpt><trkpt lat="44.99590660908505" lon="7.524895517043024"><ele>272.0</ele><time>2026-04-19T12:59:47.998Z</time></trkpt><trkpt lat="44.99602606192889" lon="7.525105312175656"><ele>272.0</ele><time>2026-04-19T12:59:48.999Z</time></trkpt><trkpt lat="44.99613035461153" lon="7.525328940601733"><ele>272.0</ele><time>2026-04-19T12:59:49.999Z</time></trkpt><trkpt lat="44.99622660483487" lon="7.5255688639505"><ele>272.6666666666667</ele><time>2026-04-19T12:59:50.999Z</time></trkpt><trkpt lat="44.99631854627389" lon="7.525815822942287"><ele>273.3333333333333</ele><time>2026-04-19T12:59:51.999Z</time></trkpt><trkpt lat="44.99640384206022" lon="7.5260717361204215"><ele>274.0</ele><time>2026-04-19T12:59:52.999Z</time></trkpt><trkpt lat="44.99646904394814" lon="7.526347883463041"><ele>274.0</ele><time>2026-04-19T12:59:53.999Z</time></trkpt><trkpt lat="44.99651199214372" lon="7.526620296766596"><ele>274.0</ele><time>2026-04-19T12:59:54.999Z</time></trkpt><trkpt lat="44.99650106751986" lon="7.526914304695678"><ele>274.0</ele><time>2026-04-19T12:59:55.999Z</time></trkpt><trkpt lat="44.99649099788328" lon="7.527202036672601"><ele>274.0</ele><time>2026-04-19T12:59:56.999Z</time></trkpt><trkpt lat="44.99647267625191" lon="7.527487084184561"><ele>274.0</ele><time>2026-04-19T12:59:57.999Z</time></trkpt><trkpt lat="44.99645321094302" lon="7.527772245805048"><ele>274.0</ele><time>2026-04-19T12:59:59Z</time></trkpt><trkpt lat="44.996432348481605" lon="7.528053877652697"><ele>273.0</ele><time>2026-04-19T13:00:00Z</time></trkpt><trkpt lat="44.99641492637895" lon="7.528337180234538"><ele>272.0</ele><time>2026-04-19T13:00:01Z</time></trkpt><trkpt lat="44.99639553173277" lon="7.528620188204222"><ele>271.0</ele><time>2026-04-19T13:00:02Z</time></trkpt><trkpt lat="44.99637343419152" lon="7.528905690135241"><ele>271.0</ele><time>2026-04-19T13:00:03Z</time></trkpt><trkpt lat="44.996352223849414" lon="7.529191255943834"><ele>271.0</ele><time>2026-04-19T13:00:04Z</time></trkpt><trkpt lat="44.99633319079303" lon="7.529478016126399"><ele>271.0</ele><time>2026-04-19T13:00:05Z</time></trkpt><trkpt lat="44.99631636983344" lon="7.529768733054447"><ele>270.66666666666663</ele><time>2026-04-19T13:00:06Z</time></trkpt><trkpt lat="44.99629853958303" lon="7.53006121554507"><ele>270.3333333333333</ele><time>2026-04-19T13:00:07Z</time></trkpt><trkpt lat="44.99627929591459" lon="7.53033390303111"><ele>270.0</ele><time>2026-04-19T13:00:08Z</time></trkpt><trkpt lat="44.99625720517151" lon="7.53059294158318"><ele>270.3333333333333</ele><time>2026-04-19T13:00:09Z</time></trkpt><trkpt lat="44.9962358457107" lon="7.530837370484954"><ele>270.66666666666663</ele><time>2026-04-19T13:00:10Z</time></trkpt><trkpt lat="44.99620015164038" lon="7.531063364241197"><ele>271.0</ele><time>2026-04-19T13:00:11Z</time></trkpt><trkpt lat="44.996170345296655" lon="7.531276686760707"><ele>271.0</ele><time>2026-04-19T13:00:12Z</time></trkpt><trkpt lat="44.99614489634" lon="7.531483832474188"><ele>271.0</ele><time>2026-04-19T13:00:13Z</time></trkpt><trkpt lat="44.99610525601912" lon="7.531673457351332"><ele>271.0</ele><time>2026-04-19T13:00:14Z</time></trkpt><trkpt lat="44.99607220476418" lon="7.531854983504544"><ele>271.0</ele><time>2026-04-19T13:00:15.001Z</time></trkpt><trkpt lat="44.99600148937156" lon="7.532006665394919"><ele>271.25</ele><time>2026-04-19T13:00:16.001Z</time></trkpt><trkpt lat="44.99598766391014" lon="7.532191440401671"><ele>271.5</ele><time>2026-04-19T13:00:17.001Z</time></trkpt><trkpt lat="44.99604675002233" lon="7.532394356927002"><ele>271.75</ele><time>2026-04-19T13:00:18.001Z</time></trkpt><trkpt lat="44.996049649835044" lon="7.53261846545196"><ele>272.0</ele><time>2026-04-19T13:00:19.001Z</time></trkpt><trkpt lat="44.996070599612864" lon="7.532851276703755"><ele>271.33333333333337</ele><time>2026-04-19T13:00:20.001Z</time></trkpt><trkpt lat="44.9960707843667" lon="7.533085690842098"><ele>270.6666666666667</ele><time>2026-04-19T13:00:21.001Z</time></trkpt><trkpt lat="44.996060785080246" lon="7.533338527466471"><ele>270.0</ele><time>2026-04-19T13:00:22.001Z</time></trkpt><trkpt lat="44.996042479820844" lon="7.533603650575765"><ele>269.6666666666667</ele><time>2026-04-19T13:00:23.001Z</time></trkpt><trkpt lat="44.99601963132619" lon="7.53387564939947"><ele>269.33333333333337</ele><time>2026-04-19T13:00:24.001Z</time></trkpt><trkpt lat="44.99599361069874" lon="7.5341654783069005"><ele>269.0</ele><time>2026-04-19T13:00:25.001Z</time></trkpt><trkpt lat="44.995969042744896" lon="7.5344627275626825"><ele>268.6666666666667</ele><time>2026-04-19T13:00:26.001Z</time></trkpt><trkpt lat="44.99594639084928" lon="7.534768021032379"><ele>268.3333333333333</ele><time>2026-04-19T13:00:27.001Z</time></trkpt><trkpt lat="44.99592527582949" lon="7.535075940455966"><ele>268.0</ele><time>2026-04-19T13:00:28.001Z</time></trkpt><trkpt lat="44.99590593880736" lon="7.535393048518806"><ele>268.0</ele><time>2026-04-19T13:00:29.001Z</time></trkpt><trkpt lat="44.99588458081733" lon="7.535712140817441"><ele>268.0</ele><time>2026-04-19T13:00:30.001Z</time></trkpt><trkpt lat="44.99586030962516" lon="7.536035488510334"><ele>268.5</ele><time>2026-04-19T13:00:31.001Z</time></trkpt><trkpt lat="44.99583480785464" lon="7.536360555867026"><ele>269.0</ele><time>2026-04-19T13:00:32.001Z</time></trkpt><trkpt lat="44.99580861286898" lon="7.536686390204472"><ele>269.0</ele><time>2026-04-19T13:00:33.001Z</time></trkpt><trkpt lat="44.9957845945644" lon="7.537008120588131"><ele>269.0</ele><time>2026-04-19T13:00:34.001Z</time></trkpt><trkpt lat="44.99576199314992" lon="7.537324125006093"><ele>269.0</ele><time>2026-04-19T13:00:35.001Z</time></trkpt><trkpt lat="44.99574095598234" lon="7.537640229484439"><ele>269.0</ele><time>2026-04-19T13:00:36.001Z</time></trkpt><trkpt lat="44.995719489805325" lon="7.5379519940558914"><ele>269.0</ele><time>2026-04-19T13:00:37.001Z</time></trkpt><trkpt lat="44.99569888072364" lon="7.538257357959237"><ele>268.6666666666667</ele><time>2026-04-19T13:00:38.001Z</time></trkpt><trkpt lat="44.99567528750689" lon="7.538564125054658"><ele>268.3333333333333</ele><time>2026-04-19T13:00:39.001Z</time></trkpt><trkpt lat="44.99565193010052" lon="7.538865647344454"><ele>268.0</ele><time>2026-04-19T13:00:40.002Z</time></trkpt><trkpt lat="44.99562700632229" lon="7.539165369405894"><ele>267.3333333333333</ele><time>2026-04-19T13:00:41.002Z</time></trkpt><trkpt lat="44.99560043935633" lon="7.539461452798366"><ele>266.6666666666667</ele><time>2026-04-19T13:00:42.002Z</time></trkpt><trkpt lat="44.99557580515224" lon="7.539760179483997"><ele>266.0</ele><time>2026-04-19T13:00:43.002Z</time></trkpt><trkpt lat="44.9955505768514" lon="7.5400568164356265"><ele>265.33333333333337</ele><time>2026-04-19T13:00:44.002Z</time></trkpt><trkpt lat="44.99552632043326" lon="7.540353614797043"><ele>264.6666666666667</ele><time>2026-04-19T13:00:45.002Z</time></trkpt><trkpt lat="44.99550390638569" lon="7.540651566652094"><ele>264.0</ele><time>2026-04-19T13:00:46.002Z</time></trkpt><trkpt lat="44.99548486301426" lon="7.540951050472077"><ele>265.0</ele><time>2026-04-19T13:00:47.002Z</time></trkpt><trkpt lat="44.9954649341622" lon="7.541250619364063"><ele>266.0</ele><time>2026-04-19T13:00:48.002Z</time></trkpt><trkpt lat="44.9954510348698" lon="7.541551085071655"><ele>267.0</ele><time>2026-04-19T13:00:49.002Z</time></trkpt><trkpt lat="44.99543576654091" lon="7.541847120680361"><ele>266.3333333333333</ele><time>2026-04-19T13:00:50.002Z</time></trkpt><trkpt lat="44.99542796558253" lon="7.542145371853169"><ele>265.66666666666663</ele><time>2026-04-19T13:00:51.002Z</time></trkpt><trkpt lat="44.99543168770872" lon="7.542444080398794"><ele>265.0</ele><time>2026-04-19T13:00:52.002Z</time></trkpt><trkpt lat="44.99544111814793" lon="7.542742109484446"><ele>265.0</ele><time>2026-04-19T13:00:53.002Z</time></trkpt><trkpt lat="44.995458656379654" lon="7.543040665171384"><ele>265.0</ele><time>2026-04-19T13:00:54.002Z</time></trkpt><trkpt lat="44.99547905958704" lon="7.5433382538027125"><ele>265.0</ele><time>2026-04-19T13:00:55.002Z</time></trkpt><trkpt lat="44.99550790244471" lon="7.543637451071424"><ele>264.3333333333333</ele><time>2026-04-19T13:00:56.002Z</time></trkpt><trkpt lat="44.99553870315804" lon="7.543934152462269"><ele>263.6666666666667</ele><time>2026-04-19T13:00:57.002Z</time></trkpt><trkpt lat="44.99557396921553" lon="7.544230050295528"><ele>263.0</ele><time>2026-04-19T13:00:58.002Z</time></trkpt><trkpt lat="44.9956170539036" lon="7.544527404475346"><ele>263.0</ele><time>2026-04-19T13:00:59.002Z</time></trkpt><trkpt lat="44.9956683861329" lon="7.544827886407842"><ele>263.0</ele><time>2026-04-19T13:01:00.002Z</time></trkpt><trkpt lat="44.99572961626343" lon="7.54512380609931"><ele>263.0</ele><time>2026-04-19T13:01:01.002Z</time></trkpt><trkpt lat="44.99579827059145" lon="7.5454187362878"><ele>263.33333333333337</ele><time>2026-04-19T13:01:02.002Z</time></trkpt><trkpt lat="44.995874770711055" lon="7.545713495914927"><ele>263.6666666666667</ele><time>2026-04-19T13:01:03.002Z</time></trkpt><trkpt lat="44.99595837821049" lon="7.546002710215403"><ele>264.0</ele><time>2026-04-19T13:01:04.002Z</time></trkpt><trkpt lat="44.99604971038899" lon="7.546285213879839"><ele>264.0</ele><time>2026-04-19T13:01:05.002Z</time></trkpt><trkpt lat="44.99614849734279" lon="7.546562542704764"><ele>264.0</ele><time>2026-04-19T13:01:06.002Z</time></trkpt><trkpt lat="44.99624826123656" lon="7.546838009163011"><ele>264.0</ele><time>2026-04-19T13:01:07.002Z</time></trkpt><trkpt lat="44.99635445831843" lon="7.547109573703307"><ele>264.3333333333333</ele><time>2026-04-19T13:01:08.002Z</time></trkpt><trkpt lat="44.99646490626858" lon="7.547377751138908"><ele>264.66666666666663</ele><time>2026-04-19T13:01:09.002Z</time></trkpt><trkpt lat="44.99658116517946" lon="7.547643072435629"><ele>265.0</ele><time>2026-04-19T13:01:10.002Z</time></trkpt><trkpt lat="44.996701060330764" lon="7.547907881678098"><ele>265.66666666666663</ele><time>2026-04-19T13:01:11.002Z</time></trkpt><trkpt lat="44.996825619864495" lon="7.548162988594108"><ele>266.3333333333333</ele><time>2026-04-19T13:01:12.003Z</time></trkpt><trkpt lat="44.99695586452514" lon="7.5484134234559725"><ele>267.0</ele><time>2026-04-19T13:01:13.003Z</time></trkpt><trkpt lat="44.99708853912107" lon="7.548660217141543"><ele>266.0</ele><time>2026-04-19T13:01:14.003Z</time></trkpt><trkpt lat="44.997222066692345" lon="7.548898931855552"><ele>265.0</ele><time>2026-04-19T13:01:15.003Z</time></trkpt><trkpt lat="44.99735633956623" lon="7.549137268830782"><ele>264.0</ele><time>2026-04-19T13:01:16.003Z</time></trkpt><trkpt lat="44.99749761895856" lon="7.549370167870822"><ele>262.6666666666667</ele><time>2026-04-19T13:01:17.003Z</time></trkpt><trkpt lat="44.99764575334957" lon="7.5495838857645685"><ele>261.33333333333337</ele><time>2026-04-19T13:01:18.003Z</time></trkpt><trkpt lat="44.99781160934361" lon="7.549779790101927"><ele>260.0</ele><time>2026-04-19T13:01:19.003Z</time></trkpt><trkpt lat="44.99798393132989" lon="7.549955192148543"><ele>260.0</ele><time>2026-04-19T13:01:20.003Z</time></trkpt><trkpt lat="44.99815405945247" lon="7.550130915182719"><ele>260.0</ele><time>2026-04-19T13:01:21.003Z</time></trkpt><trkpt lat="44.99832124806553" lon="7.550306597509736"><ele>260.0</ele><time>2026-04-19T13:01:22.003Z</time></trkpt><trkpt lat="44.99848043319467" lon="7.550471087933981"><ele>261.0</ele><time>2026-04-19T13:01:23.003Z</time></trkpt><trkpt lat="44.998631134980556" lon="7.5506168224208885"><ele>262.0</ele><time>2026-04-19T13:01:24.003Z</time></trkpt><trkpt lat="44.99877201940059" lon="7.550755192958565"><ele>263.0</ele><time>2026-04-19T13:01:25.003Z</time></trkpt><trkpt lat="44.99889872209413" lon="7.550890412273743"><ele>263.0</ele><time>2026-04-19T13:01:26.003Z</time></trkpt><trkpt lat="44.99900775465133" lon="7.551023732084958"><ele>263.0</ele><time>2026-04-19T13:01:27.003Z</time></trkpt><trkpt lat="44.99906513628816" lon="7.551187322510696"><ele>263.0</ele><time>2026-04-19T13:01:28.003Z</time></trkpt><trkpt lat="44.999155736982914" lon="7.5513010438259816"><ele>263.0</ele><time>2026-04-19T13:01:29.003Z</time></trkpt><trkpt lat="44.99929448157637" lon="7.551363058141819"><ele>263.33333333333337</ele><time>2026-04-19T13:01:30.003Z</time></trkpt><trkpt lat="44.99946333231726" lon="7.551362127928941"><ele>263.6666666666667</ele><time>2026-04-19T13:01:31.003Z</time></trkpt><trkpt lat="44.99963279473738" lon="7.55141228862033"><ele>264.0</ele><time>2026-04-19T13:01:32.003Z</time></trkpt><trkpt lat="44.99980744400799" lon="7.551491231468575"><ele>264.0</ele><time>2026-04-19T13:01:33.003Z</time></trkpt><trkpt lat="44.999989986898214" lon="7.551582237177166"><ele>264.0</ele><time>2026-04-19T13:01:33.995Z</time></trkpt><trkpt lat="45.000182240250574" lon="7.551676796864862"><ele>264.0</ele><time>2026-04-19T13:01:34.995Z</time></trkpt><trkpt lat="45.00038200296014" lon="7.551771180252269"><ele>264.0</ele><time>2026-04-19T13:01:35.995Z</time></trkpt><trkpt lat="45.00058407094192" lon="7.551859155259847"><ele>264.0</ele><time>2026-04-19T13:01:36.996Z</time></trkpt><trkpt lat="45.00079434163422" lon="7.551947516954134"><ele>264.0</ele><time>2026-04-19T13:01:37.996Z</time></trkpt><trkpt lat="45.00100734711351" lon="7.552032849183359"><ele>264.3333333333333</ele><time>2026-04-19T13:01:38.996Z</time></trkpt><trkpt lat="45.00121445443425" lon="7.552116870221438"><ele>264.66666666666663</ele><time>2026-04-19T13:01:39.996Z</time></trkpt><trkpt lat="45.00141772505684" lon="7.552201126320371"><ele>265.0</ele><time>2026-04-19T13:01:40.996Z</time></trkpt><trkpt lat="45.001616010505735" lon="7.552286563093027"><ele>265.3333333333333</ele><time>2026-04-19T13:01:41.997Z</time></trkpt><trkpt lat="45.00181288425536" lon="7.552370574499194"><ele>265.6666666666667</ele><time>2026-04-19T13:01:42.997Z</time></trkpt><trkpt lat="45.002012298655856" lon="7.552451354461504"><ele>266.0</ele><time>2026-04-19T13:01:43.997Z</time></trkpt><trkpt lat="45.00221314024588" lon="7.552532615584631"><ele>266.0</ele><time>2026-04-19T13:01:44.997Z</time></trkpt><trkpt lat="45.002411539647724" lon="7.552613866146914"><ele>266.0</ele><time>2026-04-19T13:01:45.997Z</time></trkpt><trkpt lat="45.00260794187994" lon="7.552700076845094"><ele>266.0</ele><time>2026-04-19T13:01:46.997Z</time></trkpt><trkpt lat="45.0028050760287" lon="7.552782140855328"><ele>265.6666666666667</ele><time>2026-04-19T13:01:47.997Z</time></trkpt><trkpt lat="45.00300422290553" lon="7.552861857352033"><ele>265.3333333333333</ele><time>2026-04-19T13:01:48.998Z</time></trkpt><trkpt lat="45.00320190495915" lon="7.552943020197708"><ele>265.0</ele><time>2026-04-19T13:01:49.998Z</time></trkpt><trkpt lat="45.003400098788006" lon="7.553026574712957"><ele>264.66666666666663</ele><time>2026-04-19T13:01:50.998Z</time></trkpt><trkpt lat="45.003596356949316" lon="7.55311144930831"><ele>264.3333333333333</ele><time>2026-04-19T13:01:51.998Z</time></trkpt><trkpt lat="45.00379380444871" lon="7.553196305100889"><ele>264.0</ele><time>2026-04-19T13:01:52.998Z</time></trkpt><trkpt lat="45.00399422157083" lon="7.553278754045777"><ele>264.6666666666667</ele><time>2026-04-19T13:01:53.998Z</time></trkpt><trkpt lat="45.00419106940909" lon="7.553361759132933"><ele>265.33333333333337</ele><time>2026-04-19T13:01:54.999Z</time></trkpt><trkpt lat="45.004392844693776" lon="7.553446868542383"><ele>266.0</ele><time>2026-04-19T13:01:55.999Z</time></trkpt><trkpt lat="45.00459870811746" lon="7.553526417870835"><ele>266.0</ele><time>2026-04-19T13:01:56.999Z</time></trkpt><trkpt lat="45.00480907204923" lon="7.553608167746266"><ele>266.0</ele><time>2026-04-19T13:01:57.999Z</time></trkpt><trkpt lat="45.00501509711259" lon="7.553692454675582"><ele>266.0</ele><time>2026-04-19T13:01:58.999Z</time></trkpt><trkpt lat="45.00522312889775" lon="7.553781752382969"><ele>266.0</ele><time>2026-04-19T13:01:59.999Z</time></trkpt><trkpt lat="45.00542715231792" lon="7.5538747975358715"><ele>266.0</ele><time>2026-04-19T13:02:00.999Z</time></trkpt><trkpt lat="45.00561920527979" lon="7.55396659197826"><ele>266.0</ele><time>2026-04-19T13:02:01.999Z</time></trkpt><trkpt lat="45.00579544009631" lon="7.554049648324679"><ele>265.6666666666667</ele><time>2026-04-19T13:02:02.999Z</time></trkpt><trkpt lat="45.00596160099671" lon="7.554120757317958"><ele>265.3333333333333</ele><time>2026-04-19T13:02:03.999Z</time></trkpt><trkpt lat="45.0061132253215" lon="7.554185511181477"><ele>265.0</ele><time>2026-04-19T13:02:05Z</time></trkpt><trkpt lat="45.00624982589642" lon="7.554250252406497"><ele>265.0</ele><time>2026-04-19T13:02:06Z</time></trkpt><trkpt lat="45.00636969406483" lon="7.5543199139248784"><ele>265.0</ele><time>2026-04-19T13:02:07Z</time></trkpt><trkpt lat="45.00646587616267" lon="7.554415965185851"><ele>265.0</ele><time>2026-04-19T13:02:08Z</time></trkpt><trkpt lat="45.00651830350582" lon="7.554547440496899"><ele>265.0</ele><time>2026-04-19T13:02:09Z</time></trkpt><trkpt lat="45.00658408257179" lon="7.55461438777069"><ele>265.0</ele><time>2026-04-19T13:02:10Z</time></trkpt><trkpt lat="45.0066671793226" lon="7.55462447885231"><ele>265.16666666666663</ele><time>2026-04-19T13:02:11Z</time></trkpt><trkpt lat="45.00673640403224" lon="7.554592777659269"><ele>265.3333333333333</ele><time>2026-04-19T13:02:12Z</time></trkpt><trkpt lat="45.00681082658676" lon="7.5545374306162"><ele>265.5</ele><time>2026-04-19T13:02:13Z</time></trkpt><trkpt lat="45.006851243340776" lon="7.554414209825393"><ele>265.6666666666667</ele><time>2026-04-19T13:02:14Z</time></trkpt><trkpt lat="45.006827248329536" lon="7.554275156460585"><ele>265.83333333333337</ele><time>2026-04-19T13:02:15Z</time></trkpt><trkpt lat="45.00679155845107" lon="7.554184666701274"><ele>266.0</ele><time>2026-04-19T13:02:16Z</time></trkpt><trkpt lat="45.00674718203637" lon="7.554107361601196"><ele>265.75</ele><time>2026-04-19T13:02:17Z</time></trkpt><trkpt lat="45.00664590994816" lon="7.5541027740788405"><ele>265.5</ele><time>2026-04-19T13:02:18Z</time></trkpt><trkpt lat="45.0065419752927" lon="7.554117301352433"><ele>265.25</ele><time>2026-04-19T13:02:19Z</time></trkpt><trkpt lat="45.006423099810384" lon="7.55412503855427"><ele>265.0</ele><time>2026-04-19T13:02:20.001Z</time></trkpt><trkpt lat="45.00629657736209" lon="7.5540989819843"><ele>265.0</ele><time>2026-04-19T13:02:21.001Z</time></trkpt><trkpt lat="45.00616421868226" lon="7.554050208650056"><ele>265.0</ele><time>2026-04-19T13:02:22.001Z</time></trkpt><trkpt lat="45.006037614260606" lon="7.553999494371278"><ele>265.0</ele><time>2026-04-19T13:02:23.001Z</time></trkpt><trkpt lat="45.005912562781376" lon="7.5539533197280395"><ele>265.0</ele><time>2026-04-19T13:02:24.001Z</time></trkpt><trkpt lat="45.00581002411464" lon="7.5539112439680025"><ele>265.2</ele><time>2026-04-19T13:02:25.001Z</time></trkpt><trkpt lat="45.00572998633887" lon="7.553863405138086"><ele>265.4</ele><time>2026-04-19T13:02:26.001Z</time></trkpt><trkpt lat="45.00565366872648" lon="7.553853998613514"><ele>265.6</ele><time>2026-04-19T13:02:27.001Z</time></trkpt><trkpt lat="45.00555300599843" lon="7.553812925866524"><ele>265.8</ele><time>2026-04-19T13:02:28.001Z</time></trkpt><trkpt lat="45.00544024328193" lon="7.553766914203963"><ele>266.0</ele><time>2026-04-19T13:02:29.001Z</time></trkpt><trkpt lat="45.00531437369852" lon="7.553716113274869"><ele>266.0</ele><time>2026-04-19T13:02:30.001Z</time></trkpt><trkpt lat="45.0051771510671" lon="7.5536608689708835"><ele>266.0</ele><time>2026-04-19T13:02:31.001Z</time></trkpt><trkpt lat="45.005050840682955" lon="7.553610018049868"><ele>266.0</ele><time>2026-04-19T13:02:32.001Z</time></trkpt><trkpt lat="45.00494044311985" lon="7.553566423753263"><ele>266.0</ele><time>2026-04-19T13:02:33.001Z</time></trkpt><trkpt lat="45.00487369511778" lon="7.553375298966862"><ele>266.0</ele><time>2026-04-19T13:02:34.001Z</time></trkpt><trkpt lat="45.004796062522935" lon="7.553303501387665"><ele>266.0</ele><time>2026-04-19T13:02:35.001Z</time></trkpt><trkpt lat="45.004729186541255" lon="7.553244909281026"><ele>266.0</ele><time>2026-04-19T13:02:36.001Z</time></trkpt><trkpt lat="45.00466513182083" lon="7.553193037676364"><ele>266.0</ele><time>2026-04-19T13:02:37.001Z</time></trkpt><trkpt lat="45.00458685684931" lon="7.55313628283252"><ele>266.0</ele><time>2026-04-19T13:02:39.001Z</time></trkpt></trkseg></trk></gpx>